<?xml version="1.0" encoding="UTF-8" standalone="no" ?>
<gpx xmlns="http://www.topografix.com/GPX/1/1" xmlns:xsi="http://www.w3.org/2001/XMLSchema-instance" xsi:schemaLocation="http://www.topografix.com/GPX/1/1 http://www.topografix.com/GPX/1/1/gpx.xsd" version="1.1" creator="VisuGPX - https://www.visugpx.com">
  <metadata>
    <name>2017-12-29 Bike ride-Ambérieux-Rancé O 36km</name>
    <desc><![CDATA[2017-12-29 Bike ride-Ambérieux-Rancé O 36km]]></desc>
  </metadata>
  <wpt lat="45.92453" lon="4.73717">
    <ele>174</ele>
    <name><![CDATA[2017-12-29 10:29 (Start)]]></name>
  </wpt>
  <wpt lat="45.92465" lon="4.73709">
    <ele>174</ele>
    <name><![CDATA[2017-12-29 10:29 (End)]]></name>
    <desc><![CDATA[Created by Google My Tracks on Android  Name: 2017-12-29 10:29 Activity type: biking Description: - Total distance: 35.78 km (22.2 mi) Total time: 2:05:14 Moving time: 2:04:29 Average speed: 17.14 km/h (10.6 mi/h) Average moving speed: 17.24 km/h (10.7 mi/h) Max speed: 55.15 km/h (34.3 mi/h) Average pace: 3:30 min/km (5:38 min/mi) Average moving pace: 3:29 min/km (5:36 min/mi) Fastest pace: 1:05 min/km (1:45 min/mi) Max elevation: 337 m (1105 ft) Min elevation: 213 m (700 ft) Elevation gain: 386 m (1267 ft) Max grade: 17 % Min grade: -11 % Recorded: 29/12/2017 10:29]]></desc>
  </wpt>
  <trk>
    <name><![CDATA[2017-12-29 10:29]]></name>
    <trkseg>
      <trkpt lat="45.92453" lon="4.73717">
        <ele>174</ele>
        <time>2017-12-29T09:29:55.562Z</time>
      </trkpt>
      <trkpt lat="45.92464" lon="4.73709">
        <ele>174</ele>
        <time>2017-12-29T09:30:00.185Z</time>
      </trkpt>
      <trkpt lat="45.9247" lon="4.73701">
        <ele>174</ele>
        <time>2017-12-29T09:30:31Z</time>
      </trkpt>
      <trkpt lat="45.92471" lon="4.73698">
        <ele>174</ele>
        <time>2017-12-29T09:30:32Z</time>
      </trkpt>
      <trkpt lat="45.92472" lon="4.73687">
        <ele>174</ele>
        <time>2017-12-29T09:30:36Z</time>
      </trkpt>
      <trkpt lat="45.92472" lon="4.73683">
        <ele>174</ele>
        <time>2017-12-29T09:30:37Z</time>
      </trkpt>
      <trkpt lat="45.92472" lon="4.73671">
        <ele>174</ele>
        <time>2017-12-29T09:30:41Z</time>
      </trkpt>
      <trkpt lat="45.92472" lon="4.73668">
        <ele>174</ele>
        <time>2017-12-29T09:30:42Z</time>
      </trkpt>
      <trkpt lat="45.92473" lon="4.7366">
        <ele>174</ele>
        <time>2017-12-29T09:30:44Z</time>
      </trkpt>
      <trkpt lat="45.92474" lon="4.73655">
        <ele>174</ele>
        <time>2017-12-29T09:30:45Z</time>
      </trkpt>
      <trkpt lat="45.92476" lon="4.73645">
        <ele>174</ele>
        <time>2017-12-29T09:30:48Z</time>
      </trkpt>
      <trkpt lat="45.92478" lon="4.73642">
        <ele>174</ele>
        <time>2017-12-29T09:30:49Z</time>
      </trkpt>
      <trkpt lat="45.92484" lon="4.73639">
        <ele>174</ele>
        <time>2017-12-29T09:30:51Z</time>
      </trkpt>
      <trkpt lat="45.92487" lon="4.73638">
        <ele>174</ele>
        <time>2017-12-29T09:30:52Z</time>
      </trkpt>
      <trkpt lat="45.92493" lon="4.73637">
        <ele>174</ele>
        <time>2017-12-29T09:30:54Z</time>
      </trkpt>
      <trkpt lat="45.92497" lon="4.73637">
        <ele>174</ele>
        <time>2017-12-29T09:30:55Z</time>
      </trkpt>
      <trkpt lat="45.92505" lon="4.73638">
        <ele>174</ele>
        <time>2017-12-29T09:30:57Z</time>
      </trkpt>
      <trkpt lat="45.92509" lon="4.73638">
        <ele>174</ele>
        <time>2017-12-29T09:30:58Z</time>
      </trkpt>
      <trkpt lat="45.92517" lon="4.73638">
        <ele>173</ele>
        <time>2017-12-29T09:31:00Z</time>
      </trkpt>
      <trkpt lat="45.92521" lon="4.73638">
        <ele>173</ele>
        <time>2017-12-29T09:31:01Z</time>
      </trkpt>
      <trkpt lat="45.92526" lon="4.73638">
        <ele>173</ele>
        <time>2017-12-29T09:31:02Z</time>
      </trkpt>
      <trkpt lat="45.9253" lon="4.73638">
        <ele>173</ele>
        <time>2017-12-29T09:31:03Z</time>
      </trkpt>
      <trkpt lat="45.92536" lon="4.73637">
        <ele>173</ele>
        <time>2017-12-29T09:31:04Z</time>
      </trkpt>
      <trkpt lat="45.92541" lon="4.73635">
        <ele>173</ele>
        <time>2017-12-29T09:31:05Z</time>
      </trkpt>
      <trkpt lat="45.92545" lon="4.73634">
        <ele>173</ele>
        <time>2017-12-29T09:31:06Z</time>
      </trkpt>
      <trkpt lat="45.92551" lon="4.73633">
        <ele>173</ele>
        <time>2017-12-29T09:31:07Z</time>
      </trkpt>
      <trkpt lat="45.92556" lon="4.73631">
        <ele>173</ele>
        <time>2017-12-29T09:31:08Z</time>
      </trkpt>
      <trkpt lat="45.92561" lon="4.7363">
        <ele>173</ele>
        <time>2017-12-29T09:31:09Z</time>
      </trkpt>
      <trkpt lat="45.92569" lon="4.73628">
        <ele>173</ele>
        <time>2017-12-29T09:31:11Z</time>
      </trkpt>
      <trkpt lat="45.92574" lon="4.73626">
        <ele>173</ele>
        <time>2017-12-29T09:31:12Z</time>
      </trkpt>
      <trkpt lat="45.92579" lon="4.73626">
        <ele>173</ele>
        <time>2017-12-29T09:31:13Z</time>
      </trkpt>
      <trkpt lat="45.92583" lon="4.73624">
        <ele>173</ele>
        <time>2017-12-29T09:31:14Z</time>
      </trkpt>
      <trkpt lat="45.92589" lon="4.73623">
        <ele>173</ele>
        <time>2017-12-29T09:31:15Z</time>
      </trkpt>
      <trkpt lat="45.92594" lon="4.73622">
        <ele>173</ele>
        <time>2017-12-29T09:31:16Z</time>
      </trkpt>
      <trkpt lat="45.92598" lon="4.73622">
        <ele>173</ele>
        <time>2017-12-29T09:31:17Z</time>
      </trkpt>
      <trkpt lat="45.92603" lon="4.73622">
        <ele>173</ele>
        <time>2017-12-29T09:31:18Z</time>
      </trkpt>
      <trkpt lat="45.92609" lon="4.73622">
        <ele>173</ele>
        <time>2017-12-29T09:31:19Z</time>
      </trkpt>
      <trkpt lat="45.92615" lon="4.73623">
        <ele>173</ele>
        <time>2017-12-29T09:31:20Z</time>
      </trkpt>
      <trkpt lat="45.92618" lon="4.73628">
        <ele>173</ele>
        <time>2017-12-29T09:31:21Z</time>
      </trkpt>
      <trkpt lat="45.92623" lon="4.73632">
        <ele>173</ele>
        <time>2017-12-29T09:31:22Z</time>
      </trkpt>
      <trkpt lat="45.92627" lon="4.73643">
        <ele>173</ele>
        <time>2017-12-29T09:31:24Z</time>
      </trkpt>
      <trkpt lat="45.92629" lon="4.73648">
        <ele>173</ele>
        <time>2017-12-29T09:31:25Z</time>
      </trkpt>
      <trkpt lat="45.92632" lon="4.73654">
        <ele>173</ele>
        <time>2017-12-29T09:31:26Z</time>
      </trkpt>
      <trkpt lat="45.92635" lon="4.73661">
        <ele>173</ele>
        <time>2017-12-29T09:31:27Z</time>
      </trkpt>
      <trkpt lat="45.92638" lon="4.73666">
        <ele>173</ele>
        <time>2017-12-29T09:31:28Z</time>
      </trkpt>
      <trkpt lat="45.92642" lon="4.73673">
        <ele>173</ele>
        <time>2017-12-29T09:31:29Z</time>
      </trkpt>
      <trkpt lat="45.92645" lon="4.73678">
        <ele>173</ele>
        <time>2017-12-29T09:31:30Z</time>
      </trkpt>
      <trkpt lat="45.92649" lon="4.73684">
        <ele>173</ele>
        <time>2017-12-29T09:31:31Z</time>
      </trkpt>
      <trkpt lat="45.92654" lon="4.73688">
        <ele>173</ele>
        <time>2017-12-29T09:31:32Z</time>
      </trkpt>
      <trkpt lat="45.92659" lon="4.73692">
        <ele>173</ele>
        <time>2017-12-29T09:31:33Z</time>
      </trkpt>
      <trkpt lat="45.92664" lon="4.73696">
        <ele>173</ele>
        <time>2017-12-29T09:31:34Z</time>
      </trkpt>
      <trkpt lat="45.92669" lon="4.737">
        <ele>174</ele>
        <time>2017-12-29T09:31:35Z</time>
      </trkpt>
      <trkpt lat="45.92675" lon="4.73702">
        <ele>174</ele>
        <time>2017-12-29T09:31:36Z</time>
      </trkpt>
      <trkpt lat="45.92681" lon="4.73704">
        <ele>173</ele>
        <time>2017-12-29T09:31:37Z</time>
      </trkpt>
      <trkpt lat="45.92687" lon="4.73705">
        <ele>173</ele>
        <time>2017-12-29T09:31:38Z</time>
      </trkpt>
      <trkpt lat="45.92693" lon="4.73706">
        <ele>173</ele>
        <time>2017-12-29T09:31:39Z</time>
      </trkpt>
      <trkpt lat="45.92699" lon="4.73707">
        <ele>173</ele>
        <time>2017-12-29T09:31:40Z</time>
      </trkpt>
      <trkpt lat="45.92705" lon="4.73708">
        <ele>173</ele>
        <time>2017-12-29T09:31:41Z</time>
      </trkpt>
      <trkpt lat="45.92711" lon="4.73709">
        <ele>173</ele>
        <time>2017-12-29T09:31:42Z</time>
      </trkpt>
      <trkpt lat="45.92716" lon="4.73711">
        <ele>173</ele>
        <time>2017-12-29T09:31:43Z</time>
      </trkpt>
      <trkpt lat="45.92722" lon="4.73713">
        <ele>173</ele>
        <time>2017-12-29T09:31:44Z</time>
      </trkpt>
      <trkpt lat="45.92727" lon="4.73716">
        <ele>173</ele>
        <time>2017-12-29T09:31:45Z</time>
      </trkpt>
      <trkpt lat="45.92732" lon="4.73717">
        <ele>173</ele>
        <time>2017-12-29T09:31:46Z</time>
      </trkpt>
      <trkpt lat="45.92737" lon="4.73718">
        <ele>173</ele>
        <time>2017-12-29T09:31:47Z</time>
      </trkpt>
      <trkpt lat="45.92745" lon="4.73721">
        <ele>173</ele>
        <time>2017-12-29T09:31:49Z</time>
      </trkpt>
      <trkpt lat="45.9275" lon="4.73722">
        <ele>172</ele>
        <time>2017-12-29T09:31:50Z</time>
      </trkpt>
      <trkpt lat="45.92755" lon="4.73724">
        <ele>172</ele>
        <time>2017-12-29T09:31:51Z</time>
      </trkpt>
      <trkpt lat="45.9276" lon="4.73726">
        <ele>172</ele>
        <time>2017-12-29T09:31:52Z</time>
      </trkpt>
      <trkpt lat="45.92767" lon="4.7373">
        <ele>172</ele>
        <time>2017-12-29T09:31:54Z</time>
      </trkpt>
      <trkpt lat="45.92771" lon="4.73731">
        <ele>172</ele>
        <time>2017-12-29T09:31:55Z</time>
      </trkpt>
      <trkpt lat="45.92776" lon="4.73733">
        <ele>172</ele>
        <time>2017-12-29T09:31:56Z</time>
      </trkpt>
      <trkpt lat="45.92779" lon="4.73739">
        <ele>172</ele>
        <time>2017-12-29T09:31:57Z</time>
      </trkpt>
      <trkpt lat="45.92783" lon="4.7375">
        <ele>172</ele>
        <time>2017-12-29T09:32:00Z</time>
      </trkpt>
      <trkpt lat="45.92789" lon="4.73753">
        <ele>173</ele>
        <time>2017-12-29T09:32:01Z</time>
      </trkpt>
      <trkpt lat="45.92797" lon="4.73758">
        <ele>173</ele>
        <time>2017-12-29T09:32:03Z</time>
      </trkpt>
      <trkpt lat="45.928" lon="4.73762">
        <ele>173</ele>
        <time>2017-12-29T09:32:04Z</time>
      </trkpt>
      <trkpt lat="45.92805" lon="4.73764">
        <ele>173</ele>
        <time>2017-12-29T09:32:05Z</time>
      </trkpt>
      <trkpt lat="45.9281" lon="4.73767">
        <ele>173</ele>
        <time>2017-12-29T09:32:06Z</time>
      </trkpt>
      <trkpt lat="45.92818" lon="4.7377">
        <ele>173</ele>
        <time>2017-12-29T09:32:07Z</time>
      </trkpt>
      <trkpt lat="45.92823" lon="4.73773">
        <ele>173</ele>
        <time>2017-12-29T09:32:08Z</time>
      </trkpt>
      <trkpt lat="45.92828" lon="4.73777">
        <ele>173</ele>
        <time>2017-12-29T09:32:09Z</time>
      </trkpt>
      <trkpt lat="45.92832" lon="4.73782">
        <ele>173</ele>
        <time>2017-12-29T09:32:10Z</time>
      </trkpt>
      <trkpt lat="45.92838" lon="4.73785">
        <ele>173</ele>
        <time>2017-12-29T09:32:11Z</time>
      </trkpt>
      <trkpt lat="45.92843" lon="4.7379">
        <ele>173</ele>
        <time>2017-12-29T09:32:12Z</time>
      </trkpt>
      <trkpt lat="45.92848" lon="4.73794">
        <ele>173</ele>
        <time>2017-12-29T09:32:13Z</time>
      </trkpt>
      <trkpt lat="45.92853" lon="4.73799">
        <ele>173</ele>
        <time>2017-12-29T09:32:14Z</time>
      </trkpt>
      <trkpt lat="45.9286" lon="4.73803">
        <ele>173</ele>
        <time>2017-12-29T09:32:15Z</time>
      </trkpt>
      <trkpt lat="45.92858" lon="4.73812">
        <ele>173</ele>
        <time>2017-12-29T09:32:16Z</time>
      </trkpt>
      <trkpt lat="45.92859" lon="4.73819">
        <ele>173</ele>
        <time>2017-12-29T09:32:17Z</time>
      </trkpt>
      <trkpt lat="45.92861" lon="4.73827">
        <ele>173</ele>
        <time>2017-12-29T09:32:18Z</time>
      </trkpt>
      <trkpt lat="45.92862" lon="4.73834">
        <ele>173</ele>
        <time>2017-12-29T09:32:19Z</time>
      </trkpt>
      <trkpt lat="45.92865" lon="4.73842">
        <ele>173</ele>
        <time>2017-12-29T09:32:20Z</time>
      </trkpt>
      <trkpt lat="45.92867" lon="4.7385">
        <ele>173</ele>
        <time>2017-12-29T09:32:21Z</time>
      </trkpt>
      <trkpt lat="45.92869" lon="4.73857">
        <ele>173</ele>
        <time>2017-12-29T09:32:22Z</time>
      </trkpt>
      <trkpt lat="45.92872" lon="4.73867">
        <ele>173</ele>
        <time>2017-12-29T09:32:23Z</time>
      </trkpt>
      <trkpt lat="45.92873" lon="4.73877">
        <ele>173</ele>
        <time>2017-12-29T09:32:24Z</time>
      </trkpt>
      <trkpt lat="45.92875" lon="4.73885">
        <ele>173</ele>
        <time>2017-12-29T09:32:25Z</time>
      </trkpt>
      <trkpt lat="45.92877" lon="4.73893">
        <ele>173</ele>
        <time>2017-12-29T09:32:26Z</time>
      </trkpt>
      <trkpt lat="45.92877" lon="4.73901">
        <ele>173</ele>
        <time>2017-12-29T09:32:27Z</time>
      </trkpt>
      <trkpt lat="45.92878" lon="4.73908">
        <ele>173</ele>
        <time>2017-12-29T09:32:28Z</time>
      </trkpt>
      <trkpt lat="45.92879" lon="4.73915">
        <ele>173</ele>
        <time>2017-12-29T09:32:29Z</time>
      </trkpt>
      <trkpt lat="45.92879" lon="4.73923">
        <ele>172</ele>
        <time>2017-12-29T09:32:30Z</time>
      </trkpt>
      <trkpt lat="45.9288" lon="4.73931">
        <ele>172</ele>
        <time>2017-12-29T09:32:31Z</time>
      </trkpt>
      <trkpt lat="45.9288" lon="4.73938">
        <ele>172</ele>
        <time>2017-12-29T09:32:32Z</time>
      </trkpt>
      <trkpt lat="45.92881" lon="4.73945">
        <ele>172</ele>
        <time>2017-12-29T09:32:33Z</time>
      </trkpt>
      <trkpt lat="45.92881" lon="4.73952">
        <ele>172</ele>
        <time>2017-12-29T09:32:34Z</time>
      </trkpt>
      <trkpt lat="45.92881" lon="4.73961">
        <ele>172</ele>
        <time>2017-12-29T09:32:35Z</time>
      </trkpt>
      <trkpt lat="45.92881" lon="4.73969">
        <ele>172</ele>
        <time>2017-12-29T09:32:36Z</time>
      </trkpt>
      <trkpt lat="45.92881" lon="4.73975">
        <ele>172</ele>
        <time>2017-12-29T09:32:37Z</time>
      </trkpt>
      <trkpt lat="45.9288" lon="4.73982">
        <ele>172</ele>
        <time>2017-12-29T09:32:38Z</time>
      </trkpt>
      <trkpt lat="45.92879" lon="4.73991">
        <ele>172</ele>
        <time>2017-12-29T09:32:39Z</time>
      </trkpt>
      <trkpt lat="45.92877" lon="4.73998">
        <ele>172</ele>
        <time>2017-12-29T09:32:40Z</time>
      </trkpt>
      <trkpt lat="45.92876" lon="4.74007">
        <ele>172</ele>
        <time>2017-12-29T09:32:41Z</time>
      </trkpt>
      <trkpt lat="45.92874" lon="4.74014">
        <ele>172</ele>
        <time>2017-12-29T09:32:42Z</time>
      </trkpt>
      <trkpt lat="45.92873" lon="4.74021">
        <ele>172</ele>
        <time>2017-12-29T09:32:43Z</time>
      </trkpt>
      <trkpt lat="45.92872" lon="4.74029">
        <ele>172</ele>
        <time>2017-12-29T09:32:44Z</time>
      </trkpt>
      <trkpt lat="45.92871" lon="4.74036">
        <ele>172</ele>
        <time>2017-12-29T09:32:45Z</time>
      </trkpt>
      <trkpt lat="45.92868" lon="4.74043">
        <ele>172</ele>
        <time>2017-12-29T09:32:46Z</time>
      </trkpt>
      <trkpt lat="45.92865" lon="4.74048">
        <ele>172</ele>
        <time>2017-12-29T09:32:47Z</time>
      </trkpt>
      <trkpt lat="45.92861" lon="4.74054">
        <ele>172</ele>
        <time>2017-12-29T09:32:48Z</time>
      </trkpt>
      <trkpt lat="45.92857" lon="4.7406">
        <ele>172</ele>
        <time>2017-12-29T09:32:49Z</time>
      </trkpt>
      <trkpt lat="45.92854" lon="4.74066">
        <ele>172</ele>
        <time>2017-12-29T09:32:50Z</time>
      </trkpt>
      <trkpt lat="45.9285" lon="4.74071">
        <ele>172</ele>
        <time>2017-12-29T09:32:51Z</time>
      </trkpt>
      <trkpt lat="45.92846" lon="4.74077">
        <ele>172</ele>
        <time>2017-12-29T09:32:52Z</time>
      </trkpt>
      <trkpt lat="45.92841" lon="4.74083">
        <ele>171</ele>
        <time>2017-12-29T09:32:53Z</time>
      </trkpt>
      <trkpt lat="45.92837" lon="4.74088">
        <ele>171</ele>
        <time>2017-12-29T09:32:54Z</time>
      </trkpt>
      <trkpt lat="45.92833" lon="4.74093">
        <ele>171</ele>
        <time>2017-12-29T09:32:55Z</time>
      </trkpt>
      <trkpt lat="45.92829" lon="4.74098">
        <ele>171</ele>
        <time>2017-12-29T09:32:56Z</time>
      </trkpt>
      <trkpt lat="45.92824" lon="4.74102">
        <ele>171</ele>
        <time>2017-12-29T09:32:57Z</time>
      </trkpt>
      <trkpt lat="45.9282" lon="4.74106">
        <ele>171</ele>
        <time>2017-12-29T09:32:58Z</time>
      </trkpt>
      <trkpt lat="45.92816" lon="4.7411">
        <ele>172</ele>
        <time>2017-12-29T09:32:59Z</time>
      </trkpt>
      <trkpt lat="45.92811" lon="4.74115">
        <ele>172</ele>
        <time>2017-12-29T09:33:00Z</time>
      </trkpt>
      <trkpt lat="45.92807" lon="4.7412">
        <ele>172</ele>
        <time>2017-12-29T09:33:01Z</time>
      </trkpt>
      <trkpt lat="45.92803" lon="4.74126">
        <ele>172</ele>
        <time>2017-12-29T09:33:02Z</time>
      </trkpt>
      <trkpt lat="45.92798" lon="4.7413">
        <ele>172</ele>
        <time>2017-12-29T09:33:03Z</time>
      </trkpt>
      <trkpt lat="45.92793" lon="4.74135">
        <ele>172</ele>
        <time>2017-12-29T09:33:04Z</time>
      </trkpt>
      <trkpt lat="45.92789" lon="4.74139">
        <ele>172</ele>
        <time>2017-12-29T09:33:05Z</time>
      </trkpt>
      <trkpt lat="45.92784" lon="4.74144">
        <ele>172</ele>
        <time>2017-12-29T09:33:06Z</time>
      </trkpt>
      <trkpt lat="45.9278" lon="4.74148">
        <ele>172</ele>
        <time>2017-12-29T09:33:07Z</time>
      </trkpt>
      <trkpt lat="45.92775" lon="4.74153">
        <ele>172</ele>
        <time>2017-12-29T09:33:08Z</time>
      </trkpt>
      <trkpt lat="45.92771" lon="4.74158">
        <ele>172</ele>
        <time>2017-12-29T09:33:09Z</time>
      </trkpt>
      <trkpt lat="45.92766" lon="4.74163">
        <ele>172</ele>
        <time>2017-12-29T09:33:10Z</time>
      </trkpt>
      <trkpt lat="45.92762" lon="4.74167">
        <ele>172</ele>
        <time>2017-12-29T09:33:11Z</time>
      </trkpt>
      <trkpt lat="45.92757" lon="4.74171">
        <ele>172</ele>
        <time>2017-12-29T09:33:12Z</time>
      </trkpt>
      <trkpt lat="45.92753" lon="4.74176">
        <ele>172</ele>
        <time>2017-12-29T09:33:13Z</time>
      </trkpt>
      <trkpt lat="45.92749" lon="4.7418">
        <ele>172</ele>
        <time>2017-12-29T09:33:14Z</time>
      </trkpt>
      <trkpt lat="45.92745" lon="4.74186">
        <ele>172</ele>
        <time>2017-12-29T09:33:15Z</time>
      </trkpt>
      <trkpt lat="45.92741" lon="4.74191">
        <ele>171</ele>
        <time>2017-12-29T09:33:16Z</time>
      </trkpt>
      <trkpt lat="45.92737" lon="4.74197">
        <ele>171</ele>
        <time>2017-12-29T09:33:17Z</time>
      </trkpt>
      <trkpt lat="45.92733" lon="4.74202">
        <ele>171</ele>
        <time>2017-12-29T09:33:18Z</time>
      </trkpt>
      <trkpt lat="45.9273" lon="4.74207">
        <ele>171</ele>
        <time>2017-12-29T09:33:19Z</time>
      </trkpt>
      <trkpt lat="45.92726" lon="4.74213">
        <ele>171</ele>
        <time>2017-12-29T09:33:20Z</time>
      </trkpt>
      <trkpt lat="45.92722" lon="4.74219">
        <ele>171</ele>
        <time>2017-12-29T09:33:21Z</time>
      </trkpt>
      <trkpt lat="45.92719" lon="4.74224">
        <ele>171</ele>
        <time>2017-12-29T09:33:22Z</time>
      </trkpt>
      <trkpt lat="45.92714" lon="4.7423">
        <ele>171</ele>
        <time>2017-12-29T09:33:23Z</time>
      </trkpt>
      <trkpt lat="45.9271" lon="4.74236">
        <ele>171</ele>
        <time>2017-12-29T09:33:24Z</time>
      </trkpt>
      <trkpt lat="45.92706" lon="4.74243">
        <ele>171</ele>
        <time>2017-12-29T09:33:25Z</time>
      </trkpt>
      <trkpt lat="45.92702" lon="4.7425">
        <ele>171</ele>
        <time>2017-12-29T09:33:26Z</time>
      </trkpt>
      <trkpt lat="45.92698" lon="4.74254">
        <ele>171</ele>
        <time>2017-12-29T09:33:27Z</time>
      </trkpt>
      <trkpt lat="45.92694" lon="4.74261">
        <ele>171</ele>
        <time>2017-12-29T09:33:28Z</time>
      </trkpt>
      <trkpt lat="45.9269" lon="4.74268">
        <ele>171</ele>
        <time>2017-12-29T09:33:29Z</time>
      </trkpt>
      <trkpt lat="45.92687" lon="4.74274">
        <ele>171</ele>
        <time>2017-12-29T09:33:30Z</time>
      </trkpt>
      <trkpt lat="45.92684" lon="4.7428">
        <ele>171</ele>
        <time>2017-12-29T09:33:31Z</time>
      </trkpt>
      <trkpt lat="45.92681" lon="4.74285">
        <ele>171</ele>
        <time>2017-12-29T09:33:32Z</time>
      </trkpt>
      <trkpt lat="45.92677" lon="4.74291">
        <ele>171</ele>
        <time>2017-12-29T09:33:33Z</time>
      </trkpt>
      <trkpt lat="45.92673" lon="4.74297">
        <ele>171</ele>
        <time>2017-12-29T09:33:34Z</time>
      </trkpt>
      <trkpt lat="45.9267" lon="4.74303">
        <ele>171</ele>
        <time>2017-12-29T09:33:35Z</time>
      </trkpt>
      <trkpt lat="45.92666" lon="4.7431">
        <ele>171</ele>
        <time>2017-12-29T09:33:36Z</time>
      </trkpt>
      <trkpt lat="45.92663" lon="4.74316">
        <ele>171</ele>
        <time>2017-12-29T09:33:37Z</time>
      </trkpt>
      <trkpt lat="45.92658" lon="4.74323">
        <ele>171</ele>
        <time>2017-12-29T09:33:38Z</time>
      </trkpt>
      <trkpt lat="45.92655" lon="4.7433">
        <ele>171</ele>
        <time>2017-12-29T09:33:39Z</time>
      </trkpt>
      <trkpt lat="45.92652" lon="4.74337">
        <ele>171</ele>
        <time>2017-12-29T09:33:40Z</time>
      </trkpt>
      <trkpt lat="45.92648" lon="4.74344">
        <ele>171</ele>
        <time>2017-12-29T09:33:41Z</time>
      </trkpt>
      <trkpt lat="45.92645" lon="4.74351">
        <ele>171</ele>
        <time>2017-12-29T09:33:42Z</time>
      </trkpt>
      <trkpt lat="45.92641" lon="4.74358">
        <ele>171</ele>
        <time>2017-12-29T09:33:43Z</time>
      </trkpt>
      <trkpt lat="45.92637" lon="4.74365">
        <ele>171</ele>
        <time>2017-12-29T09:33:44Z</time>
      </trkpt>
      <trkpt lat="45.92634" lon="4.74371">
        <ele>171</ele>
        <time>2017-12-29T09:33:45Z</time>
      </trkpt>
      <trkpt lat="45.9263" lon="4.74378">
        <ele>170</ele>
        <time>2017-12-29T09:33:46Z</time>
      </trkpt>
      <trkpt lat="45.92627" lon="4.74384">
        <ele>170</ele>
        <time>2017-12-29T09:33:47Z</time>
      </trkpt>
      <trkpt lat="45.92624" lon="4.7439">
        <ele>170</ele>
        <time>2017-12-29T09:33:48Z</time>
      </trkpt>
      <trkpt lat="45.92621" lon="4.74396">
        <ele>170</ele>
        <time>2017-12-29T09:33:49Z</time>
      </trkpt>
      <trkpt lat="45.92618" lon="4.74403">
        <ele>170</ele>
        <time>2017-12-29T09:33:50Z</time>
      </trkpt>
      <trkpt lat="45.92614" lon="4.74408">
        <ele>170</ele>
        <time>2017-12-29T09:33:51Z</time>
      </trkpt>
      <trkpt lat="45.9261" lon="4.74415">
        <ele>170</ele>
        <time>2017-12-29T09:33:52Z</time>
      </trkpt>
      <trkpt lat="45.92607" lon="4.74423">
        <ele>170</ele>
        <time>2017-12-29T09:33:53Z</time>
      </trkpt>
      <trkpt lat="45.92603" lon="4.74429">
        <ele>170</ele>
        <time>2017-12-29T09:33:54Z</time>
      </trkpt>
      <trkpt lat="45.92599" lon="4.74436">
        <ele>170</ele>
        <time>2017-12-29T09:33:55Z</time>
      </trkpt>
      <trkpt lat="45.92595" lon="4.74443">
        <ele>170</ele>
        <time>2017-12-29T09:33:56Z</time>
      </trkpt>
      <trkpt lat="45.92592" lon="4.74449">
        <ele>170</ele>
        <time>2017-12-29T09:33:57Z</time>
      </trkpt>
      <trkpt lat="45.92589" lon="4.74455">
        <ele>170</ele>
        <time>2017-12-29T09:33:58Z</time>
      </trkpt>
      <trkpt lat="45.92585" lon="4.74461">
        <ele>170</ele>
        <time>2017-12-29T09:33:59Z</time>
      </trkpt>
      <trkpt lat="45.92582" lon="4.74466">
        <ele>170</ele>
        <time>2017-12-29T09:34:00Z</time>
      </trkpt>
      <trkpt lat="45.92579" lon="4.74472">
        <ele>170</ele>
        <time>2017-12-29T09:34:01Z</time>
      </trkpt>
      <trkpt lat="45.92575" lon="4.74478">
        <ele>170</ele>
        <time>2017-12-29T09:34:02Z</time>
      </trkpt>
      <trkpt lat="45.92573" lon="4.74483">
        <ele>170</ele>
        <time>2017-12-29T09:34:03Z</time>
      </trkpt>
      <trkpt lat="45.92569" lon="4.74489">
        <ele>170</ele>
        <time>2017-12-29T09:34:04Z</time>
      </trkpt>
      <trkpt lat="45.92565" lon="4.74496">
        <ele>170</ele>
        <time>2017-12-29T09:34:05Z</time>
      </trkpt>
      <trkpt lat="45.92561" lon="4.74502">
        <ele>170</ele>
        <time>2017-12-29T09:34:06Z</time>
      </trkpt>
      <trkpt lat="45.92557" lon="4.74509">
        <ele>170</ele>
        <time>2017-12-29T09:34:07Z</time>
      </trkpt>
      <trkpt lat="45.92552" lon="4.74516">
        <ele>170</ele>
        <time>2017-12-29T09:34:08Z</time>
      </trkpt>
      <trkpt lat="45.92549" lon="4.74522">
        <ele>170</ele>
        <time>2017-12-29T09:34:09Z</time>
      </trkpt>
      <trkpt lat="45.92545" lon="4.74527">
        <ele>170</ele>
        <time>2017-12-29T09:34:10Z</time>
      </trkpt>
      <trkpt lat="45.92541" lon="4.74534">
        <ele>171</ele>
        <time>2017-12-29T09:34:11Z</time>
      </trkpt>
      <trkpt lat="45.92538" lon="4.7454">
        <ele>171</ele>
        <time>2017-12-29T09:34:12Z</time>
      </trkpt>
      <trkpt lat="45.92534" lon="4.74546">
        <ele>171</ele>
        <time>2017-12-29T09:34:13Z</time>
      </trkpt>
      <trkpt lat="45.9253" lon="4.74551">
        <ele>171</ele>
        <time>2017-12-29T09:34:14Z</time>
      </trkpt>
      <trkpt lat="45.92526" lon="4.74557">
        <ele>171</ele>
        <time>2017-12-29T09:34:15Z</time>
      </trkpt>
      <trkpt lat="45.92522" lon="4.74562">
        <ele>171</ele>
        <time>2017-12-29T09:34:16Z</time>
      </trkpt>
      <trkpt lat="45.92518" lon="4.74568">
        <ele>171</ele>
        <time>2017-12-29T09:34:17Z</time>
      </trkpt>
      <trkpt lat="45.92513" lon="4.74573">
        <ele>171</ele>
        <time>2017-12-29T09:34:18Z</time>
      </trkpt>
      <trkpt lat="45.92509" lon="4.74577">
        <ele>171</ele>
        <time>2017-12-29T09:34:19Z</time>
      </trkpt>
      <trkpt lat="45.92505" lon="4.74582">
        <ele>171</ele>
        <time>2017-12-29T09:34:20Z</time>
      </trkpt>
      <trkpt lat="45.92501" lon="4.74588">
        <ele>171</ele>
        <time>2017-12-29T09:34:21Z</time>
      </trkpt>
      <trkpt lat="45.92496" lon="4.74593">
        <ele>171</ele>
        <time>2017-12-29T09:34:22Z</time>
      </trkpt>
      <trkpt lat="45.92492" lon="4.74598">
        <ele>171</ele>
        <time>2017-12-29T09:34:23Z</time>
      </trkpt>
      <trkpt lat="45.92488" lon="4.74603">
        <ele>171</ele>
        <time>2017-12-29T09:34:24Z</time>
      </trkpt>
      <trkpt lat="45.92483" lon="4.74609">
        <ele>171</ele>
        <time>2017-12-29T09:34:25Z</time>
      </trkpt>
      <trkpt lat="45.92479" lon="4.74615">
        <ele>171</ele>
        <time>2017-12-29T09:34:26Z</time>
      </trkpt>
      <trkpt lat="45.92475" lon="4.74621">
        <ele>171</ele>
        <time>2017-12-29T09:34:27Z</time>
      </trkpt>
      <trkpt lat="45.9247" lon="4.74627">
        <ele>171</ele>
        <time>2017-12-29T09:34:28Z</time>
      </trkpt>
      <trkpt lat="45.92467" lon="4.74632">
        <ele>171</ele>
        <time>2017-12-29T09:34:29Z</time>
      </trkpt>
      <trkpt lat="45.92463" lon="4.74639">
        <ele>171</ele>
        <time>2017-12-29T09:34:30Z</time>
      </trkpt>
      <trkpt lat="45.92459" lon="4.74647">
        <ele>171</ele>
        <time>2017-12-29T09:34:31Z</time>
      </trkpt>
      <trkpt lat="45.92456" lon="4.74654">
        <ele>171</ele>
        <time>2017-12-29T09:34:32Z</time>
      </trkpt>
      <trkpt lat="45.92451" lon="4.74664">
        <ele>171</ele>
        <time>2017-12-29T09:34:33Z</time>
      </trkpt>
      <trkpt lat="45.92448" lon="4.74673">
        <ele>171</ele>
        <time>2017-12-29T09:34:34Z</time>
      </trkpt>
      <trkpt lat="45.92446" lon="4.74681">
        <ele>171</ele>
        <time>2017-12-29T09:34:35Z</time>
      </trkpt>
      <trkpt lat="45.92442" lon="4.74687">
        <ele>171</ele>
        <time>2017-12-29T09:34:36Z</time>
      </trkpt>
      <trkpt lat="45.9244" lon="4.74693">
        <ele>171</ele>
        <time>2017-12-29T09:34:37Z</time>
      </trkpt>
      <trkpt lat="45.92436" lon="4.74699">
        <ele>171</ele>
        <time>2017-12-29T09:34:38Z</time>
      </trkpt>
      <trkpt lat="45.92433" lon="4.74706">
        <ele>171</ele>
        <time>2017-12-29T09:34:39Z</time>
      </trkpt>
      <trkpt lat="45.92431" lon="4.74712">
        <ele>171</ele>
        <time>2017-12-29T09:34:40Z</time>
      </trkpt>
      <trkpt lat="45.92429" lon="4.74718">
        <ele>171</ele>
        <time>2017-12-29T09:34:41Z</time>
      </trkpt>
      <trkpt lat="45.92426" lon="4.74725">
        <ele>171</ele>
        <time>2017-12-29T09:34:42Z</time>
      </trkpt>
      <trkpt lat="45.92423" lon="4.74731">
        <ele>171</ele>
        <time>2017-12-29T09:34:43Z</time>
      </trkpt>
      <trkpt lat="45.92422" lon="4.74738">
        <ele>172</ele>
        <time>2017-12-29T09:34:44Z</time>
      </trkpt>
      <trkpt lat="45.92419" lon="4.74746">
        <ele>172</ele>
        <time>2017-12-29T09:34:45Z</time>
      </trkpt>
      <trkpt lat="45.92417" lon="4.74753">
        <ele>172</ele>
        <time>2017-12-29T09:34:46Z</time>
      </trkpt>
      <trkpt lat="45.92415" lon="4.74761">
        <ele>172</ele>
        <time>2017-12-29T09:34:47Z</time>
      </trkpt>
      <trkpt lat="45.92413" lon="4.74769">
        <ele>172</ele>
        <time>2017-12-29T09:34:48Z</time>
      </trkpt>
      <trkpt lat="45.92411" lon="4.74777">
        <ele>171</ele>
        <time>2017-12-29T09:34:49Z</time>
      </trkpt>
      <trkpt lat="45.92409" lon="4.74785">
        <ele>171</ele>
        <time>2017-12-29T09:34:50Z</time>
      </trkpt>
      <trkpt lat="45.92407" lon="4.74793">
        <ele>171</ele>
        <time>2017-12-29T09:34:51Z</time>
      </trkpt>
      <trkpt lat="45.92406" lon="4.74801">
        <ele>171</ele>
        <time>2017-12-29T09:34:52Z</time>
      </trkpt>
      <trkpt lat="45.92404" lon="4.74808">
        <ele>171</ele>
        <time>2017-12-29T09:34:53Z</time>
      </trkpt>
      <trkpt lat="45.92403" lon="4.74818">
        <ele>171</ele>
        <time>2017-12-29T09:34:54Z</time>
      </trkpt>
      <trkpt lat="45.92401" lon="4.74825">
        <ele>171</ele>
        <time>2017-12-29T09:34:55Z</time>
      </trkpt>
      <trkpt lat="45.92399" lon="4.74832">
        <ele>171</ele>
        <time>2017-12-29T09:34:56Z</time>
      </trkpt>
      <trkpt lat="45.92396" lon="4.7484">
        <ele>171</ele>
        <time>2017-12-29T09:34:57Z</time>
      </trkpt>
      <trkpt lat="45.92394" lon="4.74847">
        <ele>171</ele>
        <time>2017-12-29T09:34:58Z</time>
      </trkpt>
      <trkpt lat="45.92392" lon="4.74855">
        <ele>171</ele>
        <time>2017-12-29T09:34:59Z</time>
      </trkpt>
      <trkpt lat="45.9239" lon="4.74862">
        <ele>171</ele>
        <time>2017-12-29T09:35:00Z</time>
      </trkpt>
      <trkpt lat="45.92389" lon="4.7487">
        <ele>171</ele>
        <time>2017-12-29T09:35:01Z</time>
      </trkpt>
      <trkpt lat="45.92386" lon="4.74877">
        <ele>171</ele>
        <time>2017-12-29T09:35:02Z</time>
      </trkpt>
      <trkpt lat="45.92384" lon="4.74884">
        <ele>171</ele>
        <time>2017-12-29T09:35:03Z</time>
      </trkpt>
      <trkpt lat="45.92381" lon="4.74891">
        <ele>171</ele>
        <time>2017-12-29T09:35:04Z</time>
      </trkpt>
      <trkpt lat="45.92378" lon="4.74898">
        <ele>171</ele>
        <time>2017-12-29T09:35:05Z</time>
      </trkpt>
      <trkpt lat="45.92377" lon="4.74904">
        <ele>171</ele>
        <time>2017-12-29T09:35:06Z</time>
      </trkpt>
      <trkpt lat="45.92373" lon="4.74912">
        <ele>171</ele>
        <time>2017-12-29T09:35:07Z</time>
      </trkpt>
      <trkpt lat="45.92371" lon="4.74919">
        <ele>170</ele>
        <time>2017-12-29T09:35:08Z</time>
      </trkpt>
      <trkpt lat="45.92368" lon="4.74926">
        <ele>170</ele>
        <time>2017-12-29T09:35:09Z</time>
      </trkpt>
      <trkpt lat="45.92366" lon="4.74933">
        <ele>170</ele>
        <time>2017-12-29T09:35:10Z</time>
      </trkpt>
      <trkpt lat="45.92363" lon="4.7494">
        <ele>170</ele>
        <time>2017-12-29T09:35:11Z</time>
      </trkpt>
      <trkpt lat="45.92359" lon="4.74947">
        <ele>170</ele>
        <time>2017-12-29T09:35:12Z</time>
      </trkpt>
      <trkpt lat="45.92357" lon="4.74954">
        <ele>170</ele>
        <time>2017-12-29T09:35:13Z</time>
      </trkpt>
      <trkpt lat="45.92354" lon="4.74962">
        <ele>170</ele>
        <time>2017-12-29T09:35:14Z</time>
      </trkpt>
      <trkpt lat="45.92352" lon="4.74969">
        <ele>170</ele>
        <time>2017-12-29T09:35:15Z</time>
      </trkpt>
      <trkpt lat="45.9235" lon="4.74976">
        <ele>170</ele>
        <time>2017-12-29T09:35:16Z</time>
      </trkpt>
      <trkpt lat="45.92347" lon="4.74983">
        <ele>170</ele>
        <time>2017-12-29T09:35:17Z</time>
      </trkpt>
      <trkpt lat="45.92344" lon="4.7499">
        <ele>170</ele>
        <time>2017-12-29T09:35:18Z</time>
      </trkpt>
      <trkpt lat="45.92341" lon="4.74996">
        <ele>170</ele>
        <time>2017-12-29T09:35:19Z</time>
      </trkpt>
      <trkpt lat="45.92338" lon="4.75003">
        <ele>170</ele>
        <time>2017-12-29T09:35:20Z</time>
      </trkpt>
      <trkpt lat="45.92335" lon="4.75009">
        <ele>170</ele>
        <time>2017-12-29T09:35:21Z</time>
      </trkpt>
      <trkpt lat="45.92332" lon="4.75016">
        <ele>171</ele>
        <time>2017-12-29T09:35:22Z</time>
      </trkpt>
      <trkpt lat="45.92329" lon="4.75023">
        <ele>171</ele>
        <time>2017-12-29T09:35:23Z</time>
      </trkpt>
      <trkpt lat="45.92325" lon="4.75029">
        <ele>171</ele>
        <time>2017-12-29T09:35:24Z</time>
      </trkpt>
      <trkpt lat="45.92322" lon="4.75035">
        <ele>171</ele>
        <time>2017-12-29T09:35:25Z</time>
      </trkpt>
      <trkpt lat="45.92319" lon="4.75041">
        <ele>172</ele>
        <time>2017-12-29T09:35:26Z</time>
      </trkpt>
      <trkpt lat="45.92315" lon="4.75046">
        <ele>172</ele>
        <time>2017-12-29T09:35:27Z</time>
      </trkpt>
      <trkpt lat="45.92311" lon="4.75052">
        <ele>172</ele>
        <time>2017-12-29T09:35:28Z</time>
      </trkpt>
      <trkpt lat="45.92307" lon="4.75058">
        <ele>172</ele>
        <time>2017-12-29T09:35:29Z</time>
      </trkpt>
      <trkpt lat="45.92302" lon="4.75062">
        <ele>172</ele>
        <time>2017-12-29T09:35:30Z</time>
      </trkpt>
      <trkpt lat="45.92298" lon="4.75068">
        <ele>172</ele>
        <time>2017-12-29T09:35:31Z</time>
      </trkpt>
      <trkpt lat="45.92294" lon="4.75073">
        <ele>172</ele>
        <time>2017-12-29T09:35:32Z</time>
      </trkpt>
      <trkpt lat="45.9229" lon="4.75078">
        <ele>172</ele>
        <time>2017-12-29T09:35:33Z</time>
      </trkpt>
      <trkpt lat="45.92285" lon="4.75083">
        <ele>172</ele>
        <time>2017-12-29T09:35:34Z</time>
      </trkpt>
      <trkpt lat="45.92282" lon="4.75087">
        <ele>173</ele>
        <time>2017-12-29T09:35:35Z</time>
      </trkpt>
      <trkpt lat="45.92277" lon="4.75092">
        <ele>173</ele>
        <time>2017-12-29T09:35:36Z</time>
      </trkpt>
      <trkpt lat="45.92273" lon="4.75096">
        <ele>173</ele>
        <time>2017-12-29T09:35:37Z</time>
      </trkpt>
      <trkpt lat="45.92268" lon="4.75101">
        <ele>173</ele>
        <time>2017-12-29T09:35:38Z</time>
      </trkpt>
      <trkpt lat="45.92264" lon="4.75106">
        <ele>174</ele>
        <time>2017-12-29T09:35:39Z</time>
      </trkpt>
      <trkpt lat="45.92259" lon="4.75111">
        <ele>174</ele>
        <time>2017-12-29T09:35:40Z</time>
      </trkpt>
      <trkpt lat="45.92255" lon="4.75115">
        <ele>174</ele>
        <time>2017-12-29T09:35:41Z</time>
      </trkpt>
      <trkpt lat="45.92251" lon="4.7512">
        <ele>174</ele>
        <time>2017-12-29T09:35:42Z</time>
      </trkpt>
      <trkpt lat="45.92247" lon="4.75126">
        <ele>174</ele>
        <time>2017-12-29T09:35:43Z</time>
      </trkpt>
      <trkpt lat="45.92243" lon="4.75131">
        <ele>174</ele>
        <time>2017-12-29T09:35:44Z</time>
      </trkpt>
      <trkpt lat="45.92238" lon="4.75137">
        <ele>174</ele>
        <time>2017-12-29T09:35:45Z</time>
      </trkpt>
      <trkpt lat="45.92235" lon="4.75142">
        <ele>174</ele>
        <time>2017-12-29T09:35:46Z</time>
      </trkpt>
      <trkpt lat="45.92232" lon="4.75147">
        <ele>174</ele>
        <time>2017-12-29T09:35:47Z</time>
      </trkpt>
      <trkpt lat="45.92229" lon="4.75154">
        <ele>174</ele>
        <time>2017-12-29T09:35:48Z</time>
      </trkpt>
      <trkpt lat="45.92226" lon="4.7516">
        <ele>174</ele>
        <time>2017-12-29T09:35:49Z</time>
      </trkpt>
      <trkpt lat="45.92223" lon="4.75166">
        <ele>174</ele>
        <time>2017-12-29T09:35:50Z</time>
      </trkpt>
      <trkpt lat="45.9222" lon="4.75172">
        <ele>175</ele>
        <time>2017-12-29T09:35:51Z</time>
      </trkpt>
      <trkpt lat="45.92217" lon="4.75178">
        <ele>175</ele>
        <time>2017-12-29T09:35:52Z</time>
      </trkpt>
      <trkpt lat="45.92215" lon="4.75185">
        <ele>175</ele>
        <time>2017-12-29T09:35:53Z</time>
      </trkpt>
      <trkpt lat="45.92214" lon="4.75192">
        <ele>175</ele>
        <time>2017-12-29T09:35:54Z</time>
      </trkpt>
      <trkpt lat="45.92213" lon="4.752">
        <ele>175</ele>
        <time>2017-12-29T09:35:55Z</time>
      </trkpt>
      <trkpt lat="45.92212" lon="4.75207">
        <ele>175</ele>
        <time>2017-12-29T09:35:56Z</time>
      </trkpt>
      <trkpt lat="45.92211" lon="4.75213">
        <ele>175</ele>
        <time>2017-12-29T09:35:57Z</time>
      </trkpt>
      <trkpt lat="45.9221" lon="4.7522">
        <ele>175</ele>
        <time>2017-12-29T09:35:58Z</time>
      </trkpt>
      <trkpt lat="45.92209" lon="4.75227">
        <ele>175</ele>
        <time>2017-12-29T09:35:59Z</time>
      </trkpt>
      <trkpt lat="45.92209" lon="4.75233">
        <ele>175</ele>
        <time>2017-12-29T09:36:00Z</time>
      </trkpt>
      <trkpt lat="45.9221" lon="4.7524">
        <ele>175</ele>
        <time>2017-12-29T09:36:01Z</time>
      </trkpt>
      <trkpt lat="45.92209" lon="4.75247">
        <ele>175</ele>
        <time>2017-12-29T09:36:02Z</time>
      </trkpt>
      <trkpt lat="45.92209" lon="4.75253">
        <ele>175</ele>
        <time>2017-12-29T09:36:03Z</time>
      </trkpt>
      <trkpt lat="45.92209" lon="4.7526">
        <ele>176</ele>
        <time>2017-12-29T09:36:04Z</time>
      </trkpt>
      <trkpt lat="45.92209" lon="4.75268">
        <ele>176</ele>
        <time>2017-12-29T09:36:05Z</time>
      </trkpt>
      <trkpt lat="45.92209" lon="4.75274">
        <ele>176</ele>
        <time>2017-12-29T09:36:06Z</time>
      </trkpt>
      <trkpt lat="45.92209" lon="4.75281">
        <ele>176</ele>
        <time>2017-12-29T09:36:07Z</time>
      </trkpt>
      <trkpt lat="45.92208" lon="4.75288">
        <ele>176</ele>
        <time>2017-12-29T09:36:08Z</time>
      </trkpt>
      <trkpt lat="45.92208" lon="4.75295">
        <ele>176</ele>
        <time>2017-12-29T09:36:09Z</time>
      </trkpt>
      <trkpt lat="45.92207" lon="4.75302">
        <ele>176</ele>
        <time>2017-12-29T09:36:10Z</time>
      </trkpt>
      <trkpt lat="45.92206" lon="4.75313">
        <ele>176</ele>
        <time>2017-12-29T09:36:12Z</time>
      </trkpt>
      <trkpt lat="45.92205" lon="4.75319">
        <ele>176</ele>
        <time>2017-12-29T09:36:13Z</time>
      </trkpt>
      <trkpt lat="45.92204" lon="4.75325">
        <ele>176</ele>
        <time>2017-12-29T09:36:14Z</time>
      </trkpt>
      <trkpt lat="45.92203" lon="4.75332">
        <ele>176</ele>
        <time>2017-12-29T09:36:15Z</time>
      </trkpt>
      <trkpt lat="45.92201" lon="4.75343">
        <ele>177</ele>
        <time>2017-12-29T09:36:17Z</time>
      </trkpt>
      <trkpt lat="45.92199" lon="4.75349">
        <ele>177</ele>
        <time>2017-12-29T09:36:18Z</time>
      </trkpt>
      <trkpt lat="45.92196" lon="4.75359">
        <ele>177</ele>
        <time>2017-12-29T09:36:20Z</time>
      </trkpt>
      <trkpt lat="45.92194" lon="4.75364">
        <ele>177</ele>
        <time>2017-12-29T09:36:21Z</time>
      </trkpt>
      <trkpt lat="45.92192" lon="4.7537">
        <ele>177</ele>
        <time>2017-12-29T09:36:22Z</time>
      </trkpt>
      <trkpt lat="45.92189" lon="4.75378">
        <ele>177</ele>
        <time>2017-12-29T09:36:23Z</time>
      </trkpt>
      <trkpt lat="45.92187" lon="4.75386">
        <ele>177</ele>
        <time>2017-12-29T09:36:24Z</time>
      </trkpt>
      <trkpt lat="45.92184" lon="4.75392">
        <ele>177</ele>
        <time>2017-12-29T09:36:25Z</time>
      </trkpt>
      <trkpt lat="45.92182" lon="4.75398">
        <ele>177</ele>
        <time>2017-12-29T09:36:26Z</time>
      </trkpt>
      <trkpt lat="45.92179" lon="4.75404">
        <ele>177</ele>
        <time>2017-12-29T09:36:27Z</time>
      </trkpt>
      <trkpt lat="45.92177" lon="4.7541">
        <ele>177</ele>
        <time>2017-12-29T09:36:28Z</time>
      </trkpt>
      <trkpt lat="45.92174" lon="4.75416">
        <ele>178</ele>
        <time>2017-12-29T09:36:29Z</time>
      </trkpt>
      <trkpt lat="45.92172" lon="4.75422">
        <ele>177</ele>
        <time>2017-12-29T09:36:30Z</time>
      </trkpt>
      <trkpt lat="45.92171" lon="4.75428">
        <ele>177</ele>
        <time>2017-12-29T09:36:31Z</time>
      </trkpt>
      <trkpt lat="45.92166" lon="4.75438">
        <ele>177</ele>
        <time>2017-12-29T09:36:33Z</time>
      </trkpt>
      <trkpt lat="45.92163" lon="4.75444">
        <ele>177</ele>
        <time>2017-12-29T09:36:34Z</time>
      </trkpt>
      <trkpt lat="45.92161" lon="4.75451">
        <ele>176</ele>
        <time>2017-12-29T09:36:35Z</time>
      </trkpt>
      <trkpt lat="45.9216" lon="4.75459">
        <ele>176</ele>
        <time>2017-12-29T09:36:36Z</time>
      </trkpt>
      <trkpt lat="45.92158" lon="4.75466">
        <ele>176</ele>
        <time>2017-12-29T09:36:37Z</time>
      </trkpt>
      <trkpt lat="45.92155" lon="4.75473">
        <ele>176</ele>
        <time>2017-12-29T09:36:38Z</time>
      </trkpt>
      <trkpt lat="45.92153" lon="4.75481">
        <ele>176</ele>
        <time>2017-12-29T09:36:39Z</time>
      </trkpt>
      <trkpt lat="45.9215" lon="4.75488">
        <ele>176</ele>
        <time>2017-12-29T09:36:40Z</time>
      </trkpt>
      <trkpt lat="45.92148" lon="4.75496">
        <ele>175</ele>
        <time>2017-12-29T09:36:41Z</time>
      </trkpt>
      <trkpt lat="45.92145" lon="4.75502">
        <ele>175</ele>
        <time>2017-12-29T09:36:42Z</time>
      </trkpt>
      <trkpt lat="45.9214" lon="4.75508">
        <ele>174</ele>
        <time>2017-12-29T09:36:43Z</time>
      </trkpt>
      <trkpt lat="45.92136" lon="4.75515">
        <ele>174</ele>
        <time>2017-12-29T09:36:44Z</time>
      </trkpt>
      <trkpt lat="45.92134" lon="4.75523">
        <ele>174</ele>
        <time>2017-12-29T09:36:45Z</time>
      </trkpt>
      <trkpt lat="45.92131" lon="4.7553">
        <ele>174</ele>
        <time>2017-12-29T09:36:46Z</time>
      </trkpt>
      <trkpt lat="45.92128" lon="4.75536">
        <ele>174</ele>
        <time>2017-12-29T09:36:47Z</time>
      </trkpt>
      <trkpt lat="45.92125" lon="4.75543">
        <ele>174</ele>
        <time>2017-12-29T09:36:48Z</time>
      </trkpt>
      <trkpt lat="45.92122" lon="4.75549">
        <ele>174</ele>
        <time>2017-12-29T09:36:49Z</time>
      </trkpt>
      <trkpt lat="45.92119" lon="4.75556">
        <ele>174</ele>
        <time>2017-12-29T09:36:50Z</time>
      </trkpt>
      <trkpt lat="45.92117" lon="4.75563">
        <ele>174</ele>
        <time>2017-12-29T09:36:51Z</time>
      </trkpt>
      <trkpt lat="45.92113" lon="4.75571">
        <ele>174</ele>
        <time>2017-12-29T09:36:52Z</time>
      </trkpt>
      <trkpt lat="45.92113" lon="4.75584">
        <ele>174</ele>
        <time>2017-12-29T09:36:54Z</time>
      </trkpt>
      <trkpt lat="45.92116" lon="4.75589">
        <ele>174</ele>
        <time>2017-12-29T09:36:55Z</time>
      </trkpt>
      <trkpt lat="45.92119" lon="4.75595">
        <ele>174</ele>
        <time>2017-12-29T09:36:56Z</time>
      </trkpt>
      <trkpt lat="45.92123" lon="4.75598">
        <ele>174</ele>
        <time>2017-12-29T09:36:57Z</time>
      </trkpt>
      <trkpt lat="45.92128" lon="4.75602">
        <ele>174</ele>
        <time>2017-12-29T09:36:58Z</time>
      </trkpt>
      <trkpt lat="45.92133" lon="4.75605">
        <ele>174</ele>
        <time>2017-12-29T09:36:59Z</time>
      </trkpt>
      <trkpt lat="45.92138" lon="4.75608">
        <ele>174</ele>
        <time>2017-12-29T09:37:00Z</time>
      </trkpt>
      <trkpt lat="45.92143" lon="4.75612">
        <ele>174</ele>
        <time>2017-12-29T09:37:01Z</time>
      </trkpt>
      <trkpt lat="45.92147" lon="4.75618">
        <ele>174</ele>
        <time>2017-12-29T09:37:02Z</time>
      </trkpt>
      <trkpt lat="45.92151" lon="4.75622">
        <ele>174</ele>
        <time>2017-12-29T09:37:03Z</time>
      </trkpt>
      <trkpt lat="45.92157" lon="4.75625">
        <ele>174</ele>
        <time>2017-12-29T09:37:04Z</time>
      </trkpt>
      <trkpt lat="45.92161" lon="4.7563">
        <ele>174</ele>
        <time>2017-12-29T09:37:05Z</time>
      </trkpt>
      <trkpt lat="45.92166" lon="4.75634">
        <ele>174</ele>
        <time>2017-12-29T09:37:06Z</time>
      </trkpt>
      <trkpt lat="45.92171" lon="4.75639">
        <ele>174</ele>
        <time>2017-12-29T09:37:07Z</time>
      </trkpt>
      <trkpt lat="45.92176" lon="4.75643">
        <ele>174</ele>
        <time>2017-12-29T09:37:08Z</time>
      </trkpt>
      <trkpt lat="45.9218" lon="4.75647">
        <ele>174</ele>
        <time>2017-12-29T09:37:09Z</time>
      </trkpt>
      <trkpt lat="45.92184" lon="4.75651">
        <ele>174</ele>
        <time>2017-12-29T09:37:10Z</time>
      </trkpt>
      <trkpt lat="45.92189" lon="4.75656">
        <ele>174</ele>
        <time>2017-12-29T09:37:11Z</time>
      </trkpt>
      <trkpt lat="45.92194" lon="4.7566">
        <ele>174</ele>
        <time>2017-12-29T09:37:12Z</time>
      </trkpt>
      <trkpt lat="45.92198" lon="4.75666">
        <ele>174</ele>
        <time>2017-12-29T09:37:13Z</time>
      </trkpt>
      <trkpt lat="45.92203" lon="4.7567">
        <ele>174</ele>
        <time>2017-12-29T09:37:14Z</time>
      </trkpt>
      <trkpt lat="45.92207" lon="4.75673">
        <ele>174</ele>
        <time>2017-12-29T09:37:15Z</time>
      </trkpt>
      <trkpt lat="45.92211" lon="4.75681">
        <ele>174</ele>
        <time>2017-12-29T09:37:16Z</time>
      </trkpt>
      <trkpt lat="45.92215" lon="4.75684">
        <ele>174</ele>
        <time>2017-12-29T09:37:17Z</time>
      </trkpt>
      <trkpt lat="45.92219" lon="4.75688">
        <ele>174</ele>
        <time>2017-12-29T09:37:18Z</time>
      </trkpt>
      <trkpt lat="45.92223" lon="4.75692">
        <ele>174</ele>
        <time>2017-12-29T09:37:19Z</time>
      </trkpt>
      <trkpt lat="45.92227" lon="4.75696">
        <ele>174</ele>
        <time>2017-12-29T09:37:20Z</time>
      </trkpt>
      <trkpt lat="45.9223" lon="4.75701">
        <ele>174</ele>
        <time>2017-12-29T09:37:21Z</time>
      </trkpt>
      <trkpt lat="45.92235" lon="4.75706">
        <ele>174</ele>
        <time>2017-12-29T09:37:22Z</time>
      </trkpt>
      <trkpt lat="45.92238" lon="4.7571">
        <ele>174</ele>
        <time>2017-12-29T09:37:23Z</time>
      </trkpt>
      <trkpt lat="45.92242" lon="4.75715">
        <ele>174</ele>
        <time>2017-12-29T09:37:24Z</time>
      </trkpt>
      <trkpt lat="45.92244" lon="4.75721">
        <ele>174</ele>
        <time>2017-12-29T09:37:25Z</time>
      </trkpt>
      <trkpt lat="45.92246" lon="4.75728">
        <ele>174</ele>
        <time>2017-12-29T09:37:26Z</time>
      </trkpt>
      <trkpt lat="45.92247" lon="4.75735">
        <ele>174</ele>
        <time>2017-12-29T09:37:27Z</time>
      </trkpt>
      <trkpt lat="45.92248" lon="4.75741">
        <ele>174</ele>
        <time>2017-12-29T09:37:28Z</time>
      </trkpt>
      <trkpt lat="45.9225" lon="4.75748">
        <ele>174</ele>
        <time>2017-12-29T09:37:29Z</time>
      </trkpt>
      <trkpt lat="45.92251" lon="4.75755">
        <ele>174</ele>
        <time>2017-12-29T09:37:30Z</time>
      </trkpt>
      <trkpt lat="45.92252" lon="4.75761">
        <ele>174</ele>
        <time>2017-12-29T09:37:31Z</time>
      </trkpt>
      <trkpt lat="45.92254" lon="4.75768">
        <ele>174</ele>
        <time>2017-12-29T09:37:32Z</time>
      </trkpt>
      <trkpt lat="45.92255" lon="4.75774">
        <ele>174</ele>
        <time>2017-12-29T09:37:33Z</time>
      </trkpt>
      <trkpt lat="45.92256" lon="4.75781">
        <ele>174</ele>
        <time>2017-12-29T09:37:34Z</time>
      </trkpt>
      <trkpt lat="45.92257" lon="4.75787">
        <ele>174</ele>
        <time>2017-12-29T09:37:35Z</time>
      </trkpt>
      <trkpt lat="45.92259" lon="4.75794">
        <ele>174</ele>
        <time>2017-12-29T09:37:36Z</time>
      </trkpt>
      <trkpt lat="45.92261" lon="4.75801">
        <ele>174</ele>
        <time>2017-12-29T09:37:37Z</time>
      </trkpt>
      <trkpt lat="45.92263" lon="4.75808">
        <ele>174</ele>
        <time>2017-12-29T09:37:38Z</time>
      </trkpt>
      <trkpt lat="45.92266" lon="4.75815">
        <ele>174</ele>
        <time>2017-12-29T09:37:39Z</time>
      </trkpt>
      <trkpt lat="45.92269" lon="4.75821">
        <ele>174</ele>
        <time>2017-12-29T09:37:40Z</time>
      </trkpt>
      <trkpt lat="45.92274" lon="4.75826">
        <ele>174</ele>
        <time>2017-12-29T09:37:41Z</time>
      </trkpt>
      <trkpt lat="45.92279" lon="4.75831">
        <ele>174</ele>
        <time>2017-12-29T09:37:42Z</time>
      </trkpt>
      <trkpt lat="45.92285" lon="4.75834">
        <ele>173</ele>
        <time>2017-12-29T09:37:43Z</time>
      </trkpt>
      <trkpt lat="45.9229" lon="4.75837">
        <ele>173</ele>
        <time>2017-12-29T09:37:44Z</time>
      </trkpt>
      <trkpt lat="45.92296" lon="4.75841">
        <ele>173</ele>
        <time>2017-12-29T09:37:45Z</time>
      </trkpt>
      <trkpt lat="45.923" lon="4.75844">
        <ele>173</ele>
        <time>2017-12-29T09:37:46Z</time>
      </trkpt>
      <trkpt lat="45.92306" lon="4.75846">
        <ele>173</ele>
        <time>2017-12-29T09:37:47Z</time>
      </trkpt>
      <trkpt lat="45.92311" lon="4.75849">
        <ele>173</ele>
        <time>2017-12-29T09:37:48Z</time>
      </trkpt>
      <trkpt lat="45.92316" lon="4.75852">
        <ele>173</ele>
        <time>2017-12-29T09:37:49Z</time>
      </trkpt>
      <trkpt lat="45.92321" lon="4.75856">
        <ele>173</ele>
        <time>2017-12-29T09:37:50Z</time>
      </trkpt>
      <trkpt lat="45.92327" lon="4.75859">
        <ele>173</ele>
        <time>2017-12-29T09:37:51Z</time>
      </trkpt>
      <trkpt lat="45.92332" lon="4.75864">
        <ele>173</ele>
        <time>2017-12-29T09:37:52Z</time>
      </trkpt>
      <trkpt lat="45.92337" lon="4.75868">
        <ele>173</ele>
        <time>2017-12-29T09:37:53Z</time>
      </trkpt>
      <trkpt lat="45.92342" lon="4.75871">
        <ele>173</ele>
        <time>2017-12-29T09:37:54Z</time>
      </trkpt>
      <trkpt lat="45.92346" lon="4.75874">
        <ele>173</ele>
        <time>2017-12-29T09:37:55Z</time>
      </trkpt>
      <trkpt lat="45.92352" lon="4.75878">
        <ele>173</ele>
        <time>2017-12-29T09:37:56Z</time>
      </trkpt>
      <trkpt lat="45.92357" lon="4.7588">
        <ele>173</ele>
        <time>2017-12-29T09:37:57Z</time>
      </trkpt>
      <trkpt lat="45.92362" lon="4.75884">
        <ele>173</ele>
        <time>2017-12-29T09:37:58Z</time>
      </trkpt>
      <trkpt lat="45.92366" lon="4.75887">
        <ele>173</ele>
        <time>2017-12-29T09:37:59Z</time>
      </trkpt>
      <trkpt lat="45.92372" lon="4.7589">
        <ele>173</ele>
        <time>2017-12-29T09:38:00Z</time>
      </trkpt>
      <trkpt lat="45.92377" lon="4.75893">
        <ele>173</ele>
        <time>2017-12-29T09:38:01Z</time>
      </trkpt>
      <trkpt lat="45.92382" lon="4.75896">
        <ele>173</ele>
        <time>2017-12-29T09:38:02Z</time>
      </trkpt>
      <trkpt lat="45.92387" lon="4.759">
        <ele>173</ele>
        <time>2017-12-29T09:38:03Z</time>
      </trkpt>
      <trkpt lat="45.92391" lon="4.75903">
        <ele>173</ele>
        <time>2017-12-29T09:38:04Z</time>
      </trkpt>
      <trkpt lat="45.92395" lon="4.75907">
        <ele>173</ele>
        <time>2017-12-29T09:38:05Z</time>
      </trkpt>
      <trkpt lat="45.92401" lon="4.7591">
        <ele>172</ele>
        <time>2017-12-29T09:38:06Z</time>
      </trkpt>
      <trkpt lat="45.92405" lon="4.75913">
        <ele>172</ele>
        <time>2017-12-29T09:38:07Z</time>
      </trkpt>
      <trkpt lat="45.9241" lon="4.75917">
        <ele>172</ele>
        <time>2017-12-29T09:38:08Z</time>
      </trkpt>
      <trkpt lat="45.92414" lon="4.75919">
        <ele>172</ele>
        <time>2017-12-29T09:38:09Z</time>
      </trkpt>
      <trkpt lat="45.92419" lon="4.75922">
        <ele>172</ele>
        <time>2017-12-29T09:38:10Z</time>
      </trkpt>
      <trkpt lat="45.92423" lon="4.75925">
        <ele>172</ele>
        <time>2017-12-29T09:38:11Z</time>
      </trkpt>
      <trkpt lat="45.92431" lon="4.7593">
        <ele>172</ele>
        <time>2017-12-29T09:38:13Z</time>
      </trkpt>
      <trkpt lat="45.92435" lon="4.75935">
        <ele>172</ele>
        <time>2017-12-29T09:38:14Z</time>
      </trkpt>
      <trkpt lat="45.92442" lon="4.7594">
        <ele>172</ele>
        <time>2017-12-29T09:38:16Z</time>
      </trkpt>
      <trkpt lat="45.92445" lon="4.75941">
        <ele>172</ele>
        <time>2017-12-29T09:38:17Z</time>
      </trkpt>
      <trkpt lat="45.92453" lon="4.75947">
        <ele>172</ele>
        <time>2017-12-29T09:38:19Z</time>
      </trkpt>
      <trkpt lat="45.92456" lon="4.75951">
        <ele>172</ele>
        <time>2017-12-29T09:38:20Z</time>
      </trkpt>
      <trkpt lat="45.92463" lon="4.75957">
        <ele>172</ele>
        <time>2017-12-29T09:38:22Z</time>
      </trkpt>
      <trkpt lat="45.92466" lon="4.7596">
        <ele>172</ele>
        <time>2017-12-29T09:38:23Z</time>
      </trkpt>
      <trkpt lat="45.92472" lon="4.75966">
        <ele>172</ele>
        <time>2017-12-29T09:38:25Z</time>
      </trkpt>
      <trkpt lat="45.92476" lon="4.75969">
        <ele>172</ele>
        <time>2017-12-29T09:38:26Z</time>
      </trkpt>
      <trkpt lat="45.92483" lon="4.75975">
        <ele>172</ele>
        <time>2017-12-29T09:38:28Z</time>
      </trkpt>
      <trkpt lat="45.92487" lon="4.75977">
        <ele>172</ele>
        <time>2017-12-29T09:38:29Z</time>
      </trkpt>
      <trkpt lat="45.92494" lon="4.75982">
        <ele>172</ele>
        <time>2017-12-29T09:38:31Z</time>
      </trkpt>
      <trkpt lat="45.92497" lon="4.75985">
        <ele>172</ele>
        <time>2017-12-29T09:38:32Z</time>
      </trkpt>
      <trkpt lat="45.92504" lon="4.7599">
        <ele>172</ele>
        <time>2017-12-29T09:38:34Z</time>
      </trkpt>
      <trkpt lat="45.92508" lon="4.75993">
        <ele>172</ele>
        <time>2017-12-29T09:38:35Z</time>
      </trkpt>
      <trkpt lat="45.92516" lon="4.75999">
        <ele>172</ele>
        <time>2017-12-29T09:38:37Z</time>
      </trkpt>
      <trkpt lat="45.9252" lon="4.76">
        <ele>172</ele>
        <time>2017-12-29T09:38:38Z</time>
      </trkpt>
      <trkpt lat="45.92528" lon="4.76004">
        <ele>172</ele>
        <time>2017-12-29T09:38:40Z</time>
      </trkpt>
      <trkpt lat="45.92533" lon="4.76008">
        <ele>172</ele>
        <time>2017-12-29T09:38:41Z</time>
      </trkpt>
      <trkpt lat="45.92537" lon="4.76013">
        <ele>172</ele>
        <time>2017-12-29T09:38:42Z</time>
      </trkpt>
      <trkpt lat="45.92541" lon="4.76016">
        <ele>172</ele>
        <time>2017-12-29T09:38:43Z</time>
      </trkpt>
      <trkpt lat="45.9255" lon="4.7602">
        <ele>172</ele>
        <time>2017-12-29T09:38:45Z</time>
      </trkpt>
      <trkpt lat="45.92553" lon="4.76023">
        <ele>172</ele>
        <time>2017-12-29T09:38:46Z</time>
      </trkpt>
      <trkpt lat="45.92557" lon="4.76026">
        <ele>172</ele>
        <time>2017-12-29T09:38:47Z</time>
      </trkpt>
      <trkpt lat="45.92561" lon="4.76029">
        <ele>172</ele>
        <time>2017-12-29T09:38:48Z</time>
      </trkpt>
      <trkpt lat="45.92569" lon="4.76034">
        <ele>172</ele>
        <time>2017-12-29T09:38:50Z</time>
      </trkpt>
      <trkpt lat="45.92573" lon="4.76036">
        <ele>172</ele>
        <time>2017-12-29T09:38:51Z</time>
      </trkpt>
      <trkpt lat="45.92577" lon="4.76039">
        <ele>172</ele>
        <time>2017-12-29T09:38:52Z</time>
      </trkpt>
      <trkpt lat="45.92581" lon="4.76043">
        <ele>171</ele>
        <time>2017-12-29T09:38:53Z</time>
      </trkpt>
      <trkpt lat="45.92586" lon="4.76047">
        <ele>171</ele>
        <time>2017-12-29T09:38:54Z</time>
      </trkpt>
      <trkpt lat="45.92591" lon="4.76051">
        <ele>171</ele>
        <time>2017-12-29T09:38:55Z</time>
      </trkpt>
      <trkpt lat="45.92596" lon="4.76055">
        <ele>171</ele>
        <time>2017-12-29T09:38:56Z</time>
      </trkpt>
      <trkpt lat="45.926" lon="4.76058">
        <ele>171</ele>
        <time>2017-12-29T09:38:57Z</time>
      </trkpt>
      <trkpt lat="45.92605" lon="4.76061">
        <ele>171</ele>
        <time>2017-12-29T09:38:58Z</time>
      </trkpt>
      <trkpt lat="45.92609" lon="4.76064">
        <ele>171</ele>
        <time>2017-12-29T09:38:59Z</time>
      </trkpt>
      <trkpt lat="45.92615" lon="4.76067">
        <ele>171</ele>
        <time>2017-12-29T09:39:00Z</time>
      </trkpt>
      <trkpt lat="45.9262" lon="4.76071">
        <ele>171</ele>
        <time>2017-12-29T09:39:01Z</time>
      </trkpt>
      <trkpt lat="45.92626" lon="4.76075">
        <ele>170</ele>
        <time>2017-12-29T09:39:02Z</time>
      </trkpt>
      <trkpt lat="45.92631" lon="4.76079">
        <ele>170</ele>
        <time>2017-12-29T09:39:03Z</time>
      </trkpt>
      <trkpt lat="45.92637" lon="4.76083">
        <ele>170</ele>
        <time>2017-12-29T09:39:04Z</time>
      </trkpt>
      <trkpt lat="45.92643" lon="4.76086">
        <ele>170</ele>
        <time>2017-12-29T09:39:05Z</time>
      </trkpt>
      <trkpt lat="45.92649" lon="4.7609">
        <ele>170</ele>
        <time>2017-12-29T09:39:06Z</time>
      </trkpt>
      <trkpt lat="45.92653" lon="4.76097">
        <ele>170</ele>
        <time>2017-12-29T09:39:07Z</time>
      </trkpt>
      <trkpt lat="45.92659" lon="4.76101">
        <ele>170</ele>
        <time>2017-12-29T09:39:08Z</time>
      </trkpt>
      <trkpt lat="45.92665" lon="4.76105">
        <ele>170</ele>
        <time>2017-12-29T09:39:09Z</time>
      </trkpt>
      <trkpt lat="45.92671" lon="4.76108">
        <ele>169</ele>
        <time>2017-12-29T09:39:10Z</time>
      </trkpt>
      <trkpt lat="45.92677" lon="4.76112">
        <ele>169</ele>
        <time>2017-12-29T09:39:11Z</time>
      </trkpt>
      <trkpt lat="45.92684" lon="4.76116">
        <ele>169</ele>
        <time>2017-12-29T09:39:12Z</time>
      </trkpt>
      <trkpt lat="45.9269" lon="4.76119">
        <ele>169</ele>
        <time>2017-12-29T09:39:13Z</time>
      </trkpt>
      <trkpt lat="45.92696" lon="4.76123">
        <ele>169</ele>
        <time>2017-12-29T09:39:14Z</time>
      </trkpt>
      <trkpt lat="45.92702" lon="4.76127">
        <ele>169</ele>
        <time>2017-12-29T09:39:15Z</time>
      </trkpt>
      <trkpt lat="45.92709" lon="4.76129">
        <ele>168</ele>
        <time>2017-12-29T09:39:16Z</time>
      </trkpt>
      <trkpt lat="45.92715" lon="4.76134">
        <ele>168</ele>
        <time>2017-12-29T09:39:17Z</time>
      </trkpt>
      <trkpt lat="45.92722" lon="4.76138">
        <ele>168</ele>
        <time>2017-12-29T09:39:18Z</time>
      </trkpt>
      <trkpt lat="45.92728" lon="4.76142">
        <ele>168</ele>
        <time>2017-12-29T09:39:19Z</time>
      </trkpt>
      <trkpt lat="45.92734" lon="4.76146">
        <ele>168</ele>
        <time>2017-12-29T09:39:20Z</time>
      </trkpt>
      <trkpt lat="45.92739" lon="4.76152">
        <ele>168</ele>
        <time>2017-12-29T09:39:21Z</time>
      </trkpt>
      <trkpt lat="45.92745" lon="4.76157">
        <ele>168</ele>
        <time>2017-12-29T09:39:22Z</time>
      </trkpt>
      <trkpt lat="45.9275" lon="4.76161">
        <ele>167</ele>
        <time>2017-12-29T09:39:23Z</time>
      </trkpt>
      <trkpt lat="45.92756" lon="4.76165">
        <ele>167</ele>
        <time>2017-12-29T09:39:24Z</time>
      </trkpt>
      <trkpt lat="45.92761" lon="4.7617">
        <ele>167</ele>
        <time>2017-12-29T09:39:25Z</time>
      </trkpt>
      <trkpt lat="45.92766" lon="4.76174">
        <ele>167</ele>
        <time>2017-12-29T09:39:26Z</time>
      </trkpt>
      <trkpt lat="45.9277" lon="4.76179">
        <ele>167</ele>
        <time>2017-12-29T09:39:27Z</time>
      </trkpt>
      <trkpt lat="45.92775" lon="4.76183">
        <ele>167</ele>
        <time>2017-12-29T09:39:28Z</time>
      </trkpt>
      <trkpt lat="45.9278" lon="4.76186">
        <ele>168</ele>
        <time>2017-12-29T09:39:29Z</time>
      </trkpt>
      <trkpt lat="45.92784" lon="4.7619">
        <ele>168</ele>
        <time>2017-12-29T09:39:30Z</time>
      </trkpt>
      <trkpt lat="45.92789" lon="4.76194">
        <ele>168</ele>
        <time>2017-12-29T09:39:31Z</time>
      </trkpt>
      <trkpt lat="45.92793" lon="4.76198">
        <ele>168</ele>
        <time>2017-12-29T09:39:32Z</time>
      </trkpt>
      <trkpt lat="45.92798" lon="4.76202">
        <ele>168</ele>
        <time>2017-12-29T09:39:33Z</time>
      </trkpt>
      <trkpt lat="45.92802" lon="4.76207">
        <ele>168</ele>
        <time>2017-12-29T09:39:34Z</time>
      </trkpt>
      <trkpt lat="45.92806" lon="4.76212">
        <ele>168</ele>
        <time>2017-12-29T09:39:35Z</time>
      </trkpt>
      <trkpt lat="45.92811" lon="4.76216">
        <ele>168</ele>
        <time>2017-12-29T09:39:36Z</time>
      </trkpt>
      <trkpt lat="45.92816" lon="4.76221">
        <ele>168</ele>
        <time>2017-12-29T09:39:37Z</time>
      </trkpt>
      <trkpt lat="45.92821" lon="4.76226">
        <ele>168</ele>
        <time>2017-12-29T09:39:38Z</time>
      </trkpt>
      <trkpt lat="45.92825" lon="4.7623">
        <ele>168</ele>
        <time>2017-12-29T09:39:39Z</time>
      </trkpt>
      <trkpt lat="45.9283" lon="4.76234">
        <ele>168</ele>
        <time>2017-12-29T09:39:40Z</time>
      </trkpt>
      <trkpt lat="45.92835" lon="4.76238">
        <ele>169</ele>
        <time>2017-12-29T09:39:41Z</time>
      </trkpt>
      <trkpt lat="45.92839" lon="4.76241">
        <ele>169</ele>
        <time>2017-12-29T09:39:42Z</time>
      </trkpt>
      <trkpt lat="45.92843" lon="4.76247">
        <ele>169</ele>
        <time>2017-12-29T09:39:43Z</time>
      </trkpt>
      <trkpt lat="45.92846" lon="4.76254">
        <ele>169</ele>
        <time>2017-12-29T09:39:44Z</time>
      </trkpt>
      <trkpt lat="45.9285" lon="4.76258">
        <ele>169</ele>
        <time>2017-12-29T09:39:45Z</time>
      </trkpt>
      <trkpt lat="45.92855" lon="4.76262">
        <ele>169</ele>
        <time>2017-12-29T09:39:46Z</time>
      </trkpt>
      <trkpt lat="45.92858" lon="4.76267">
        <ele>169</ele>
        <time>2017-12-29T09:39:47Z</time>
      </trkpt>
      <trkpt lat="45.92862" lon="4.7627">
        <ele>169</ele>
        <time>2017-12-29T09:39:48Z</time>
      </trkpt>
      <trkpt lat="45.92867" lon="4.76273">
        <ele>169</ele>
        <time>2017-12-29T09:39:49Z</time>
      </trkpt>
      <trkpt lat="45.92871" lon="4.76277">
        <ele>169</ele>
        <time>2017-12-29T09:39:50Z</time>
      </trkpt>
      <trkpt lat="45.92876" lon="4.76282">
        <ele>169</ele>
        <time>2017-12-29T09:39:51Z</time>
      </trkpt>
      <trkpt lat="45.92881" lon="4.76286">
        <ele>169</ele>
        <time>2017-12-29T09:39:52Z</time>
      </trkpt>
      <trkpt lat="45.92885" lon="4.76291">
        <ele>169</ele>
        <time>2017-12-29T09:39:53Z</time>
      </trkpt>
      <trkpt lat="45.92888" lon="4.76297">
        <ele>169</ele>
        <time>2017-12-29T09:39:54Z</time>
      </trkpt>
      <trkpt lat="45.92892" lon="4.76301">
        <ele>169</ele>
        <time>2017-12-29T09:39:55Z</time>
      </trkpt>
      <trkpt lat="45.92897" lon="4.76305">
        <ele>169</ele>
        <time>2017-12-29T09:39:56Z</time>
      </trkpt>
      <trkpt lat="45.92901" lon="4.76309">
        <ele>169</ele>
        <time>2017-12-29T09:39:57Z</time>
      </trkpt>
      <trkpt lat="45.92905" lon="4.76313">
        <ele>169</ele>
        <time>2017-12-29T09:39:58Z</time>
      </trkpt>
      <trkpt lat="45.92909" lon="4.76317">
        <ele>169</ele>
        <time>2017-12-29T09:39:59Z</time>
      </trkpt>
      <trkpt lat="45.92913" lon="4.76321">
        <ele>169</ele>
        <time>2017-12-29T09:40:00Z</time>
      </trkpt>
      <trkpt lat="45.92917" lon="4.76326">
        <ele>169</ele>
        <time>2017-12-29T09:40:01Z</time>
      </trkpt>
      <trkpt lat="45.92922" lon="4.76331">
        <ele>169</ele>
        <time>2017-12-29T09:40:02Z</time>
      </trkpt>
      <trkpt lat="45.92926" lon="4.76336">
        <ele>169</ele>
        <time>2017-12-29T09:40:03Z</time>
      </trkpt>
      <trkpt lat="45.9293" lon="4.7634">
        <ele>169</ele>
        <time>2017-12-29T09:40:04Z</time>
      </trkpt>
      <trkpt lat="45.92934" lon="4.76345">
        <ele>169</ele>
        <time>2017-12-29T09:40:05Z</time>
      </trkpt>
      <trkpt lat="45.92939" lon="4.7635">
        <ele>169</ele>
        <time>2017-12-29T09:40:06Z</time>
      </trkpt>
      <trkpt lat="45.92943" lon="4.76354">
        <ele>169</ele>
        <time>2017-12-29T09:40:07Z</time>
      </trkpt>
      <trkpt lat="45.92948" lon="4.76357">
        <ele>169</ele>
        <time>2017-12-29T09:40:08Z</time>
      </trkpt>
      <trkpt lat="45.92952" lon="4.76362">
        <ele>169</ele>
        <time>2017-12-29T09:40:09Z</time>
      </trkpt>
      <trkpt lat="45.92956" lon="4.76365">
        <ele>169</ele>
        <time>2017-12-29T09:40:10Z</time>
      </trkpt>
      <trkpt lat="45.9296" lon="4.76369">
        <ele>169</ele>
        <time>2017-12-29T09:40:11Z</time>
      </trkpt>
      <trkpt lat="45.92965" lon="4.76373">
        <ele>169</ele>
        <time>2017-12-29T09:40:12Z</time>
      </trkpt>
      <trkpt lat="45.92969" lon="4.76378">
        <ele>169</ele>
        <time>2017-12-29T09:40:13Z</time>
      </trkpt>
      <trkpt lat="45.92973" lon="4.76382">
        <ele>169</ele>
        <time>2017-12-29T09:40:14Z</time>
      </trkpt>
      <trkpt lat="45.92977" lon="4.76386">
        <ele>169</ele>
        <time>2017-12-29T09:40:15Z</time>
      </trkpt>
      <trkpt lat="45.92981" lon="4.7639">
        <ele>169</ele>
        <time>2017-12-29T09:40:16Z</time>
      </trkpt>
      <trkpt lat="45.92985" lon="4.76393">
        <ele>169</ele>
        <time>2017-12-29T09:40:17Z</time>
      </trkpt>
      <trkpt lat="45.9299" lon="4.76398">
        <ele>169</ele>
        <time>2017-12-29T09:40:18Z</time>
      </trkpt>
      <trkpt lat="45.92994" lon="4.76402">
        <ele>169</ele>
        <time>2017-12-29T09:40:19Z</time>
      </trkpt>
      <trkpt lat="45.92998" lon="4.76407">
        <ele>169</ele>
        <time>2017-12-29T09:40:20Z</time>
      </trkpt>
      <trkpt lat="45.93003" lon="4.76412">
        <ele>169</ele>
        <time>2017-12-29T09:40:21Z</time>
      </trkpt>
      <trkpt lat="45.93008" lon="4.76417">
        <ele>169</ele>
        <time>2017-12-29T09:40:22Z</time>
      </trkpt>
      <trkpt lat="45.93013" lon="4.76421">
        <ele>169</ele>
        <time>2017-12-29T09:40:23Z</time>
      </trkpt>
      <trkpt lat="45.93017" lon="4.76426">
        <ele>169</ele>
        <time>2017-12-29T09:40:24Z</time>
      </trkpt>
      <trkpt lat="45.93021" lon="4.7643">
        <ele>169</ele>
        <time>2017-12-29T09:40:25Z</time>
      </trkpt>
      <trkpt lat="45.93026" lon="4.76435">
        <ele>169</ele>
        <time>2017-12-29T09:40:26Z</time>
      </trkpt>
      <trkpt lat="45.93029" lon="4.7644">
        <ele>169</ele>
        <time>2017-12-29T09:40:27Z</time>
      </trkpt>
      <trkpt lat="45.93034" lon="4.76443">
        <ele>169</ele>
        <time>2017-12-29T09:40:28Z</time>
      </trkpt>
      <trkpt lat="45.93038" lon="4.76448">
        <ele>169</ele>
        <time>2017-12-29T09:40:29Z</time>
      </trkpt>
      <trkpt lat="45.93042" lon="4.76452">
        <ele>169</ele>
        <time>2017-12-29T09:40:30Z</time>
      </trkpt>
      <trkpt lat="45.93046" lon="4.76455">
        <ele>169</ele>
        <time>2017-12-29T09:40:31Z</time>
      </trkpt>
      <trkpt lat="45.93051" lon="4.76459">
        <ele>169</ele>
        <time>2017-12-29T09:40:32Z</time>
      </trkpt>
      <trkpt lat="45.93056" lon="4.76464">
        <ele>169</ele>
        <time>2017-12-29T09:40:33Z</time>
      </trkpt>
      <trkpt lat="45.93062" lon="4.76468">
        <ele>169</ele>
        <time>2017-12-29T09:40:34Z</time>
      </trkpt>
      <trkpt lat="45.93068" lon="4.76471">
        <ele>169</ele>
        <time>2017-12-29T09:40:35Z</time>
      </trkpt>
      <trkpt lat="45.93072" lon="4.76475">
        <ele>169</ele>
        <time>2017-12-29T09:40:36Z</time>
      </trkpt>
      <trkpt lat="45.93077" lon="4.76481">
        <ele>169</ele>
        <time>2017-12-29T09:40:37Z</time>
      </trkpt>
      <trkpt lat="45.93082" lon="4.76485">
        <ele>170</ele>
        <time>2017-12-29T09:40:38Z</time>
      </trkpt>
      <trkpt lat="45.93086" lon="4.76489">
        <ele>170</ele>
        <time>2017-12-29T09:40:39Z</time>
      </trkpt>
      <trkpt lat="45.93091" lon="4.76493">
        <ele>170</ele>
        <time>2017-12-29T09:40:40Z</time>
      </trkpt>
      <trkpt lat="45.93095" lon="4.76497">
        <ele>170</ele>
        <time>2017-12-29T09:40:41Z</time>
      </trkpt>
      <trkpt lat="45.93099" lon="4.76499">
        <ele>170</ele>
        <time>2017-12-29T09:40:42Z</time>
      </trkpt>
      <trkpt lat="45.93104" lon="4.76504">
        <ele>170</ele>
        <time>2017-12-29T09:40:43Z</time>
      </trkpt>
      <trkpt lat="45.93108" lon="4.76509">
        <ele>170</ele>
        <time>2017-12-29T09:40:44Z</time>
      </trkpt>
      <trkpt lat="45.93112" lon="4.76513">
        <ele>170</ele>
        <time>2017-12-29T09:40:45Z</time>
      </trkpt>
      <trkpt lat="45.93117" lon="4.76517">
        <ele>170</ele>
        <time>2017-12-29T09:40:46Z</time>
      </trkpt>
      <trkpt lat="45.93121" lon="4.7652">
        <ele>170</ele>
        <time>2017-12-29T09:40:47Z</time>
      </trkpt>
      <trkpt lat="45.93125" lon="4.76525">
        <ele>170</ele>
        <time>2017-12-29T09:40:48Z</time>
      </trkpt>
      <trkpt lat="45.9313" lon="4.76529">
        <ele>170</ele>
        <time>2017-12-29T09:40:49Z</time>
      </trkpt>
      <trkpt lat="45.93133" lon="4.76532">
        <ele>170</ele>
        <time>2017-12-29T09:40:50Z</time>
      </trkpt>
      <trkpt lat="45.93137" lon="4.76537">
        <ele>170</ele>
        <time>2017-12-29T09:40:51Z</time>
      </trkpt>
      <trkpt lat="45.93141" lon="4.76541">
        <ele>170</ele>
        <time>2017-12-29T09:40:52Z</time>
      </trkpt>
      <trkpt lat="45.93146" lon="4.76545">
        <ele>170</ele>
        <time>2017-12-29T09:40:53Z</time>
      </trkpt>
      <trkpt lat="45.9315" lon="4.76549">
        <ele>170</ele>
        <time>2017-12-29T09:40:54Z</time>
      </trkpt>
      <trkpt lat="45.93155" lon="4.76553">
        <ele>170</ele>
        <time>2017-12-29T09:40:55Z</time>
      </trkpt>
      <trkpt lat="45.93159" lon="4.76557">
        <ele>170</ele>
        <time>2017-12-29T09:40:56Z</time>
      </trkpt>
      <trkpt lat="45.93163" lon="4.76561">
        <ele>170</ele>
        <time>2017-12-29T09:40:57Z</time>
      </trkpt>
      <trkpt lat="45.93168" lon="4.76566">
        <ele>170</ele>
        <time>2017-12-29T09:40:58Z</time>
      </trkpt>
      <trkpt lat="45.93171" lon="4.7657">
        <ele>170</ele>
        <time>2017-12-29T09:40:59Z</time>
      </trkpt>
      <trkpt lat="45.93173" lon="4.76576">
        <ele>170</ele>
        <time>2017-12-29T09:41:00Z</time>
      </trkpt>
      <trkpt lat="45.93177" lon="4.7658">
        <ele>170</ele>
        <time>2017-12-29T09:41:01Z</time>
      </trkpt>
      <trkpt lat="45.93181" lon="4.76584">
        <ele>171</ele>
        <time>2017-12-29T09:41:02Z</time>
      </trkpt>
      <trkpt lat="45.93186" lon="4.76588">
        <ele>171</ele>
        <time>2017-12-29T09:41:03Z</time>
      </trkpt>
      <trkpt lat="45.9319" lon="4.76593">
        <ele>170</ele>
        <time>2017-12-29T09:41:04Z</time>
      </trkpt>
      <trkpt lat="45.93195" lon="4.76597">
        <ele>170</ele>
        <time>2017-12-29T09:41:05Z</time>
      </trkpt>
      <trkpt lat="45.93198" lon="4.76602">
        <ele>170</ele>
        <time>2017-12-29T09:41:06Z</time>
      </trkpt>
      <trkpt lat="45.93202" lon="4.76607">
        <ele>170</ele>
        <time>2017-12-29T09:41:07Z</time>
      </trkpt>
      <trkpt lat="45.93206" lon="4.7661">
        <ele>170</ele>
        <time>2017-12-29T09:41:08Z</time>
      </trkpt>
      <trkpt lat="45.93212" lon="4.76615">
        <ele>170</ele>
        <time>2017-12-29T09:41:09Z</time>
      </trkpt>
      <trkpt lat="45.93219" lon="4.76622">
        <ele>170</ele>
        <time>2017-12-29T09:41:11Z</time>
      </trkpt>
      <trkpt lat="45.93222" lon="4.76627">
        <ele>170</ele>
        <time>2017-12-29T09:41:12Z</time>
      </trkpt>
      <trkpt lat="45.93228" lon="4.76635">
        <ele>171</ele>
        <time>2017-12-29T09:41:14Z</time>
      </trkpt>
      <trkpt lat="45.93232" lon="4.7664">
        <ele>171</ele>
        <time>2017-12-29T09:41:15Z</time>
      </trkpt>
      <trkpt lat="45.93236" lon="4.76643">
        <ele>171</ele>
        <time>2017-12-29T09:41:16Z</time>
      </trkpt>
      <trkpt lat="45.9324" lon="4.76646">
        <ele>171</ele>
        <time>2017-12-29T09:41:17Z</time>
      </trkpt>
      <trkpt lat="45.93245" lon="4.76649">
        <ele>171</ele>
        <time>2017-12-29T09:41:18Z</time>
      </trkpt>
      <trkpt lat="45.93248" lon="4.76653">
        <ele>171</ele>
        <time>2017-12-29T09:41:19Z</time>
      </trkpt>
      <trkpt lat="45.93253" lon="4.76657">
        <ele>171</ele>
        <time>2017-12-29T09:41:20Z</time>
      </trkpt>
      <trkpt lat="45.93256" lon="4.76661">
        <ele>171</ele>
        <time>2017-12-29T09:41:21Z</time>
      </trkpt>
      <trkpt lat="45.93261" lon="4.76664">
        <ele>171</ele>
        <time>2017-12-29T09:41:22Z</time>
      </trkpt>
      <trkpt lat="45.93266" lon="4.76669">
        <ele>172</ele>
        <time>2017-12-29T09:41:23Z</time>
      </trkpt>
      <trkpt lat="45.9327" lon="4.76673">
        <ele>172</ele>
        <time>2017-12-29T09:41:24Z</time>
      </trkpt>
      <trkpt lat="45.93274" lon="4.76677">
        <ele>172</ele>
        <time>2017-12-29T09:41:25Z</time>
      </trkpt>
      <trkpt lat="45.93278" lon="4.76684">
        <ele>172</ele>
        <time>2017-12-29T09:41:26Z</time>
      </trkpt>
      <trkpt lat="45.93283" lon="4.76687">
        <ele>172</ele>
        <time>2017-12-29T09:41:27Z</time>
      </trkpt>
      <trkpt lat="45.93286" lon="4.76692">
        <ele>172</ele>
        <time>2017-12-29T09:41:28Z</time>
      </trkpt>
      <trkpt lat="45.9329" lon="4.76695">
        <ele>172</ele>
        <time>2017-12-29T09:41:29Z</time>
      </trkpt>
      <trkpt lat="45.93295" lon="4.76699">
        <ele>172</ele>
        <time>2017-12-29T09:41:30Z</time>
      </trkpt>
      <trkpt lat="45.933" lon="4.76704">
        <ele>172</ele>
        <time>2017-12-29T09:41:31Z</time>
      </trkpt>
      <trkpt lat="45.93304" lon="4.76708">
        <ele>172</ele>
        <time>2017-12-29T09:41:32Z</time>
      </trkpt>
      <trkpt lat="45.93308" lon="4.76712">
        <ele>172</ele>
        <time>2017-12-29T09:41:33Z</time>
      </trkpt>
      <trkpt lat="45.93312" lon="4.76717">
        <ele>172</ele>
        <time>2017-12-29T09:41:34Z</time>
      </trkpt>
      <trkpt lat="45.93317" lon="4.76721">
        <ele>172</ele>
        <time>2017-12-29T09:41:35Z</time>
      </trkpt>
      <trkpt lat="45.93321" lon="4.76725">
        <ele>172</ele>
        <time>2017-12-29T09:41:36Z</time>
      </trkpt>
      <trkpt lat="45.93325" lon="4.76728">
        <ele>172</ele>
        <time>2017-12-29T09:41:37Z</time>
      </trkpt>
      <trkpt lat="45.93332" lon="4.76736">
        <ele>172</ele>
        <time>2017-12-29T09:41:39Z</time>
      </trkpt>
      <trkpt lat="45.93336" lon="4.76741">
        <ele>173</ele>
        <time>2017-12-29T09:41:40Z</time>
      </trkpt>
      <trkpt lat="45.93342" lon="4.76745">
        <ele>173</ele>
        <time>2017-12-29T09:41:41Z</time>
      </trkpt>
      <trkpt lat="45.93346" lon="4.7675">
        <ele>172</ele>
        <time>2017-12-29T09:41:42Z</time>
      </trkpt>
      <trkpt lat="45.93351" lon="4.76757">
        <ele>172</ele>
        <time>2017-12-29T09:41:43Z</time>
      </trkpt>
      <trkpt lat="45.93357" lon="4.76761">
        <ele>172</ele>
        <time>2017-12-29T09:41:44Z</time>
      </trkpt>
      <trkpt lat="45.93362" lon="4.76765">
        <ele>172</ele>
        <time>2017-12-29T09:41:45Z</time>
      </trkpt>
      <trkpt lat="45.93366" lon="4.7677">
        <ele>172</ele>
        <time>2017-12-29T09:41:46Z</time>
      </trkpt>
      <trkpt lat="45.9337" lon="4.76775">
        <ele>172</ele>
        <time>2017-12-29T09:41:47Z</time>
      </trkpt>
      <trkpt lat="45.93374" lon="4.76778">
        <ele>172</ele>
        <time>2017-12-29T09:41:48Z</time>
      </trkpt>
      <trkpt lat="45.93378" lon="4.76783">
        <ele>172</ele>
        <time>2017-12-29T09:41:49Z</time>
      </trkpt>
      <trkpt lat="45.93382" lon="4.76787">
        <ele>172</ele>
        <time>2017-12-29T09:41:50Z</time>
      </trkpt>
      <trkpt lat="45.93386" lon="4.76792">
        <ele>172</ele>
        <time>2017-12-29T09:41:51Z</time>
      </trkpt>
      <trkpt lat="45.93389" lon="4.76797">
        <ele>172</ele>
        <time>2017-12-29T09:41:52Z</time>
      </trkpt>
      <trkpt lat="45.93394" lon="4.76802">
        <ele>172</ele>
        <time>2017-12-29T09:41:53Z</time>
      </trkpt>
      <trkpt lat="45.93398" lon="4.76806">
        <ele>172</ele>
        <time>2017-12-29T09:41:54Z</time>
      </trkpt>
      <trkpt lat="45.93401" lon="4.76812">
        <ele>172</ele>
        <time>2017-12-29T09:41:55Z</time>
      </trkpt>
      <trkpt lat="45.93405" lon="4.76818">
        <ele>172</ele>
        <time>2017-12-29T09:41:56Z</time>
      </trkpt>
      <trkpt lat="45.93408" lon="4.76823">
        <ele>172</ele>
        <time>2017-12-29T09:41:57Z</time>
      </trkpt>
      <trkpt lat="45.93411" lon="4.76829">
        <ele>172</ele>
        <time>2017-12-29T09:41:58Z</time>
      </trkpt>
      <trkpt lat="45.93415" lon="4.76836">
        <ele>172</ele>
        <time>2017-12-29T09:41:59Z</time>
      </trkpt>
      <trkpt lat="45.93418" lon="4.76843">
        <ele>171</ele>
        <time>2017-12-29T09:42:00Z</time>
      </trkpt>
      <trkpt lat="45.93421" lon="4.76849">
        <ele>171</ele>
        <time>2017-12-29T09:42:01Z</time>
      </trkpt>
      <trkpt lat="45.93425" lon="4.76856">
        <ele>171</ele>
        <time>2017-12-29T09:42:02Z</time>
      </trkpt>
      <trkpt lat="45.93428" lon="4.76862">
        <ele>171</ele>
        <time>2017-12-29T09:42:03Z</time>
      </trkpt>
      <trkpt lat="45.93431" lon="4.76871">
        <ele>171</ele>
        <time>2017-12-29T09:42:04Z</time>
      </trkpt>
      <trkpt lat="45.93433" lon="4.76877">
        <ele>171</ele>
        <time>2017-12-29T09:42:05Z</time>
      </trkpt>
      <trkpt lat="45.93435" lon="4.76882">
        <ele>171</ele>
        <time>2017-12-29T09:42:06Z</time>
      </trkpt>
      <trkpt lat="45.93437" lon="4.76889">
        <ele>171</ele>
        <time>2017-12-29T09:42:07Z</time>
      </trkpt>
      <trkpt lat="45.93439" lon="4.76895">
        <ele>170</ele>
        <time>2017-12-29T09:42:08Z</time>
      </trkpt>
      <trkpt lat="45.9344" lon="4.76901">
        <ele>170</ele>
        <time>2017-12-29T09:42:09Z</time>
      </trkpt>
      <trkpt lat="45.93442" lon="4.76907">
        <ele>170</ele>
        <time>2017-12-29T09:42:10Z</time>
      </trkpt>
      <trkpt lat="45.93443" lon="4.76913">
        <ele>170</ele>
        <time>2017-12-29T09:42:11Z</time>
      </trkpt>
      <trkpt lat="45.93445" lon="4.7692">
        <ele>170</ele>
        <time>2017-12-29T09:42:12Z</time>
      </trkpt>
      <trkpt lat="45.93446" lon="4.76927">
        <ele>170</ele>
        <time>2017-12-29T09:42:13Z</time>
      </trkpt>
      <trkpt lat="45.93448" lon="4.76934">
        <ele>170</ele>
        <time>2017-12-29T09:42:14Z</time>
      </trkpt>
      <trkpt lat="45.9345" lon="4.76941">
        <ele>170</ele>
        <time>2017-12-29T09:42:15Z</time>
      </trkpt>
      <trkpt lat="45.93451" lon="4.76949">
        <ele>170</ele>
        <time>2017-12-29T09:42:16Z</time>
      </trkpt>
      <trkpt lat="45.93452" lon="4.76956">
        <ele>170</ele>
        <time>2017-12-29T09:42:17Z</time>
      </trkpt>
      <trkpt lat="45.93453" lon="4.76964">
        <ele>170</ele>
        <time>2017-12-29T09:42:18Z</time>
      </trkpt>
      <trkpt lat="45.93454" lon="4.76971">
        <ele>170</ele>
        <time>2017-12-29T09:42:19Z</time>
      </trkpt>
      <trkpt lat="45.93455" lon="4.76978">
        <ele>170</ele>
        <time>2017-12-29T09:42:20Z</time>
      </trkpt>
      <trkpt lat="45.93456" lon="4.76984">
        <ele>170</ele>
        <time>2017-12-29T09:42:21Z</time>
      </trkpt>
      <trkpt lat="45.93457" lon="4.76992">
        <ele>170</ele>
        <time>2017-12-29T09:42:22Z</time>
      </trkpt>
      <trkpt lat="45.93458" lon="4.76999">
        <ele>170</ele>
        <time>2017-12-29T09:42:23Z</time>
      </trkpt>
      <trkpt lat="45.93459" lon="4.77005">
        <ele>170</ele>
        <time>2017-12-29T09:42:24Z</time>
      </trkpt>
      <trkpt lat="45.93461" lon="4.77013">
        <ele>170</ele>
        <time>2017-12-29T09:42:25Z</time>
      </trkpt>
      <trkpt lat="45.93462" lon="4.7702">
        <ele>170</ele>
        <time>2017-12-29T09:42:26Z</time>
      </trkpt>
      <trkpt lat="45.93463" lon="4.77027">
        <ele>170</ele>
        <time>2017-12-29T09:42:27Z</time>
      </trkpt>
      <trkpt lat="45.93464" lon="4.77035">
        <ele>170</ele>
        <time>2017-12-29T09:42:28Z</time>
      </trkpt>
      <trkpt lat="45.93466" lon="4.77042">
        <ele>170</ele>
        <time>2017-12-29T09:42:29Z</time>
      </trkpt>
      <trkpt lat="45.93468" lon="4.77049">
        <ele>170</ele>
        <time>2017-12-29T09:42:30Z</time>
      </trkpt>
      <trkpt lat="45.93469" lon="4.77057">
        <ele>170</ele>
        <time>2017-12-29T09:42:31Z</time>
      </trkpt>
      <trkpt lat="45.9347" lon="4.77065">
        <ele>170</ele>
        <time>2017-12-29T09:42:32Z</time>
      </trkpt>
      <trkpt lat="45.93471" lon="4.77072">
        <ele>170</ele>
        <time>2017-12-29T09:42:33Z</time>
      </trkpt>
      <trkpt lat="45.93473" lon="4.77081">
        <ele>170</ele>
        <time>2017-12-29T09:42:34Z</time>
      </trkpt>
      <trkpt lat="45.93474" lon="4.77088">
        <ele>169</ele>
        <time>2017-12-29T09:42:35Z</time>
      </trkpt>
      <trkpt lat="45.93476" lon="4.77096">
        <ele>169</ele>
        <time>2017-12-29T09:42:36Z</time>
      </trkpt>
      <trkpt lat="45.93477" lon="4.77103">
        <ele>169</ele>
        <time>2017-12-29T09:42:37Z</time>
      </trkpt>
      <trkpt lat="45.93478" lon="4.7711">
        <ele>169</ele>
        <time>2017-12-29T09:42:38Z</time>
      </trkpt>
      <trkpt lat="45.9348" lon="4.77116">
        <ele>169</ele>
        <time>2017-12-29T09:42:39Z</time>
      </trkpt>
      <trkpt lat="45.93481" lon="4.77123">
        <ele>169</ele>
        <time>2017-12-29T09:42:40Z</time>
      </trkpt>
      <trkpt lat="45.93482" lon="4.7713">
        <ele>169</ele>
        <time>2017-12-29T09:42:41Z</time>
      </trkpt>
      <trkpt lat="45.93483" lon="4.77136">
        <ele>169</ele>
        <time>2017-12-29T09:42:42Z</time>
      </trkpt>
      <trkpt lat="45.93485" lon="4.77143">
        <ele>169</ele>
        <time>2017-12-29T09:42:43Z</time>
      </trkpt>
      <trkpt lat="45.93487" lon="4.7715">
        <ele>169</ele>
        <time>2017-12-29T09:42:44Z</time>
      </trkpt>
      <trkpt lat="45.93488" lon="4.77157">
        <ele>169</ele>
        <time>2017-12-29T09:42:45Z</time>
      </trkpt>
      <trkpt lat="45.9349" lon="4.77164">
        <ele>169</ele>
        <time>2017-12-29T09:42:46Z</time>
      </trkpt>
      <trkpt lat="45.93491" lon="4.7717">
        <ele>169</ele>
        <time>2017-12-29T09:42:47Z</time>
      </trkpt>
      <trkpt lat="45.93493" lon="4.77177">
        <ele>169</ele>
        <time>2017-12-29T09:42:48Z</time>
      </trkpt>
      <trkpt lat="45.93494" lon="4.77184">
        <ele>169</ele>
        <time>2017-12-29T09:42:49Z</time>
      </trkpt>
      <trkpt lat="45.93495" lon="4.7719">
        <ele>169</ele>
        <time>2017-12-29T09:42:50Z</time>
      </trkpt>
      <trkpt lat="45.93496" lon="4.77197">
        <ele>169</ele>
        <time>2017-12-29T09:42:51Z</time>
      </trkpt>
      <trkpt lat="45.93498" lon="4.77203">
        <ele>169</ele>
        <time>2017-12-29T09:42:52Z</time>
      </trkpt>
      <trkpt lat="45.93499" lon="4.77209">
        <ele>169</ele>
        <time>2017-12-29T09:42:53Z</time>
      </trkpt>
      <trkpt lat="45.93501" lon="4.77215">
        <ele>169</ele>
        <time>2017-12-29T09:42:54Z</time>
      </trkpt>
      <trkpt lat="45.93502" lon="4.77224">
        <ele>169</ele>
        <time>2017-12-29T09:42:55Z</time>
      </trkpt>
      <trkpt lat="45.93504" lon="4.7723">
        <ele>169</ele>
        <time>2017-12-29T09:42:56Z</time>
      </trkpt>
      <trkpt lat="45.93506" lon="4.77236">
        <ele>169</ele>
        <time>2017-12-29T09:42:57Z</time>
      </trkpt>
      <trkpt lat="45.93507" lon="4.77243">
        <ele>170</ele>
        <time>2017-12-29T09:42:58Z</time>
      </trkpt>
      <trkpt lat="45.93509" lon="4.77251">
        <ele>170</ele>
        <time>2017-12-29T09:42:59Z</time>
      </trkpt>
      <trkpt lat="45.9351" lon="4.77258">
        <ele>170</ele>
        <time>2017-12-29T09:43:00Z</time>
      </trkpt>
      <trkpt lat="45.93512" lon="4.77265">
        <ele>170</ele>
        <time>2017-12-29T09:43:01Z</time>
      </trkpt>
      <trkpt lat="45.93513" lon="4.77273">
        <ele>170</ele>
        <time>2017-12-29T09:43:02Z</time>
      </trkpt>
      <trkpt lat="45.93515" lon="4.7728">
        <ele>170</ele>
        <time>2017-12-29T09:43:03Z</time>
      </trkpt>
      <trkpt lat="45.93516" lon="4.77287">
        <ele>170</ele>
        <time>2017-12-29T09:43:04Z</time>
      </trkpt>
      <trkpt lat="45.93518" lon="4.77294">
        <ele>170</ele>
        <time>2017-12-29T09:43:05Z</time>
      </trkpt>
      <trkpt lat="45.93519" lon="4.77301">
        <ele>170</ele>
        <time>2017-12-29T09:43:06Z</time>
      </trkpt>
      <trkpt lat="45.9352" lon="4.77307">
        <ele>170</ele>
        <time>2017-12-29T09:43:07Z</time>
      </trkpt>
      <trkpt lat="45.93522" lon="4.77314">
        <ele>170</ele>
        <time>2017-12-29T09:43:08Z</time>
      </trkpt>
      <trkpt lat="45.93523" lon="4.77321">
        <ele>170</ele>
        <time>2017-12-29T09:43:09Z</time>
      </trkpt>
      <trkpt lat="45.93525" lon="4.77328">
        <ele>170</ele>
        <time>2017-12-29T09:43:10Z</time>
      </trkpt>
      <trkpt lat="45.93526" lon="4.77335">
        <ele>170</ele>
        <time>2017-12-29T09:43:11Z</time>
      </trkpt>
      <trkpt lat="45.93528" lon="4.77341">
        <ele>170</ele>
        <time>2017-12-29T09:43:12Z</time>
      </trkpt>
      <trkpt lat="45.93529" lon="4.77348">
        <ele>170</ele>
        <time>2017-12-29T09:43:13Z</time>
      </trkpt>
      <trkpt lat="45.9353" lon="4.77355">
        <ele>170</ele>
        <time>2017-12-29T09:43:14Z</time>
      </trkpt>
      <trkpt lat="45.93532" lon="4.77362">
        <ele>170</ele>
        <time>2017-12-29T09:43:15Z</time>
      </trkpt>
      <trkpt lat="45.93533" lon="4.77368">
        <ele>170</ele>
        <time>2017-12-29T09:43:16Z</time>
      </trkpt>
      <trkpt lat="45.93535" lon="4.77375">
        <ele>170</ele>
        <time>2017-12-29T09:43:17Z</time>
      </trkpt>
      <trkpt lat="45.93536" lon="4.77383">
        <ele>170</ele>
        <time>2017-12-29T09:43:18Z</time>
      </trkpt>
      <trkpt lat="45.93538" lon="4.7739">
        <ele>170</ele>
        <time>2017-12-29T09:43:19Z</time>
      </trkpt>
      <trkpt lat="45.9354" lon="4.77397">
        <ele>170</ele>
        <time>2017-12-29T09:43:20Z</time>
      </trkpt>
      <trkpt lat="45.93541" lon="4.77405">
        <ele>170</ele>
        <time>2017-12-29T09:43:21Z</time>
      </trkpt>
      <trkpt lat="45.93542" lon="4.77411">
        <ele>170</ele>
        <time>2017-12-29T09:43:22Z</time>
      </trkpt>
      <trkpt lat="45.93543" lon="4.77418">
        <ele>170</ele>
        <time>2017-12-29T09:43:23Z</time>
      </trkpt>
      <trkpt lat="45.93544" lon="4.77424">
        <ele>170</ele>
        <time>2017-12-29T09:43:24Z</time>
      </trkpt>
      <trkpt lat="45.93546" lon="4.77431">
        <ele>169</ele>
        <time>2017-12-29T09:43:25Z</time>
      </trkpt>
      <trkpt lat="45.93547" lon="4.77438">
        <ele>169</ele>
        <time>2017-12-29T09:43:26Z</time>
      </trkpt>
      <trkpt lat="45.93549" lon="4.77449">
        <ele>169</ele>
        <time>2017-12-29T09:43:28Z</time>
      </trkpt>
      <trkpt lat="45.9355" lon="4.77457">
        <ele>169</ele>
        <time>2017-12-29T09:43:29Z</time>
      </trkpt>
      <trkpt lat="45.93552" lon="4.77464">
        <ele>169</ele>
        <time>2017-12-29T09:43:30Z</time>
      </trkpt>
      <trkpt lat="45.93554" lon="4.7747">
        <ele>169</ele>
        <time>2017-12-29T09:43:31Z</time>
      </trkpt>
      <trkpt lat="45.93557" lon="4.77475">
        <ele>169</ele>
        <time>2017-12-29T09:43:32Z</time>
      </trkpt>
      <trkpt lat="45.93559" lon="4.77481">
        <ele>169</ele>
        <time>2017-12-29T09:43:33Z</time>
      </trkpt>
      <trkpt lat="45.93562" lon="4.77488">
        <ele>169</ele>
        <time>2017-12-29T09:43:34Z</time>
      </trkpt>
      <trkpt lat="45.93563" lon="4.77495">
        <ele>169</ele>
        <time>2017-12-29T09:43:35Z</time>
      </trkpt>
      <trkpt lat="45.93565" lon="4.77502">
        <ele>169</ele>
        <time>2017-12-29T09:43:36Z</time>
      </trkpt>
      <trkpt lat="45.93566" lon="4.77509">
        <ele>169</ele>
        <time>2017-12-29T09:43:37Z</time>
      </trkpt>
      <trkpt lat="45.93569" lon="4.77516">
        <ele>169</ele>
        <time>2017-12-29T09:43:38Z</time>
      </trkpt>
      <trkpt lat="45.93571" lon="4.77523">
        <ele>169</ele>
        <time>2017-12-29T09:43:39Z</time>
      </trkpt>
      <trkpt lat="45.93572" lon="4.77529">
        <ele>169</ele>
        <time>2017-12-29T09:43:40Z</time>
      </trkpt>
      <trkpt lat="45.93573" lon="4.77536">
        <ele>169</ele>
        <time>2017-12-29T09:43:41Z</time>
      </trkpt>
      <trkpt lat="45.93575" lon="4.77542">
        <ele>169</ele>
        <time>2017-12-29T09:43:42Z</time>
      </trkpt>
      <trkpt lat="45.93577" lon="4.77548">
        <ele>169</ele>
        <time>2017-12-29T09:43:43Z</time>
      </trkpt>
      <trkpt lat="45.93579" lon="4.77555">
        <ele>169</ele>
        <time>2017-12-29T09:43:44Z</time>
      </trkpt>
      <trkpt lat="45.9358" lon="4.77561">
        <ele>169</ele>
        <time>2017-12-29T09:43:45Z</time>
      </trkpt>
      <trkpt lat="45.93581" lon="4.77569">
        <ele>170</ele>
        <time>2017-12-29T09:43:46Z</time>
      </trkpt>
      <trkpt lat="45.93583" lon="4.77577">
        <ele>170</ele>
        <time>2017-12-29T09:43:47Z</time>
      </trkpt>
      <trkpt lat="45.93586" lon="4.77584">
        <ele>170</ele>
        <time>2017-12-29T09:43:48Z</time>
      </trkpt>
      <trkpt lat="45.93588" lon="4.7759">
        <ele>170</ele>
        <time>2017-12-29T09:43:49Z</time>
      </trkpt>
      <trkpt lat="45.9359" lon="4.77597">
        <ele>170</ele>
        <time>2017-12-29T09:43:50Z</time>
      </trkpt>
      <trkpt lat="45.93592" lon="4.77603">
        <ele>170</ele>
        <time>2017-12-29T09:43:51Z</time>
      </trkpt>
      <trkpt lat="45.93595" lon="4.7761">
        <ele>170</ele>
        <time>2017-12-29T09:43:52Z</time>
      </trkpt>
      <trkpt lat="45.93597" lon="4.77616">
        <ele>170</ele>
        <time>2017-12-29T09:43:53Z</time>
      </trkpt>
      <trkpt lat="45.93599" lon="4.77622">
        <ele>170</ele>
        <time>2017-12-29T09:43:54Z</time>
      </trkpt>
      <trkpt lat="45.93602" lon="4.77628">
        <ele>169</ele>
        <time>2017-12-29T09:43:55Z</time>
      </trkpt>
      <trkpt lat="45.93604" lon="4.77634">
        <ele>169</ele>
        <time>2017-12-29T09:43:56Z</time>
      </trkpt>
      <trkpt lat="45.93606" lon="4.7764">
        <ele>169</ele>
        <time>2017-12-29T09:43:57Z</time>
      </trkpt>
      <trkpt lat="45.93611" lon="4.7765">
        <ele>169</ele>
        <time>2017-12-29T09:43:59Z</time>
      </trkpt>
      <trkpt lat="45.93614" lon="4.77656">
        <ele>169</ele>
        <time>2017-12-29T09:44:00Z</time>
      </trkpt>
      <trkpt lat="45.93616" lon="4.77662">
        <ele>169</ele>
        <time>2017-12-29T09:44:01Z</time>
      </trkpt>
      <trkpt lat="45.93618" lon="4.77669">
        <ele>169</ele>
        <time>2017-12-29T09:44:02Z</time>
      </trkpt>
      <trkpt lat="45.93621" lon="4.77675">
        <ele>169</ele>
        <time>2017-12-29T09:44:03Z</time>
      </trkpt>
      <trkpt lat="45.93624" lon="4.7768">
        <ele>169</ele>
        <time>2017-12-29T09:44:04Z</time>
      </trkpt>
      <trkpt lat="45.93626" lon="4.77686">
        <ele>169</ele>
        <time>2017-12-29T09:44:05Z</time>
      </trkpt>
      <trkpt lat="45.93628" lon="4.77692">
        <ele>169</ele>
        <time>2017-12-29T09:44:06Z</time>
      </trkpt>
      <trkpt lat="45.93631" lon="4.77698">
        <ele>169</ele>
        <time>2017-12-29T09:44:07Z</time>
      </trkpt>
      <trkpt lat="45.93633" lon="4.77703">
        <ele>170</ele>
        <time>2017-12-29T09:44:08Z</time>
      </trkpt>
      <trkpt lat="45.93639" lon="4.77713">
        <ele>170</ele>
        <time>2017-12-29T09:44:10Z</time>
      </trkpt>
      <trkpt lat="45.93642" lon="4.77718">
        <ele>170</ele>
        <time>2017-12-29T09:44:11Z</time>
      </trkpt>
      <trkpt lat="45.93647" lon="4.77726">
        <ele>170</ele>
        <time>2017-12-29T09:44:13Z</time>
      </trkpt>
      <trkpt lat="45.9365" lon="4.77729">
        <ele>170</ele>
        <time>2017-12-29T09:44:14Z</time>
      </trkpt>
      <trkpt lat="45.93654" lon="4.77738">
        <ele>170</ele>
        <time>2017-12-29T09:44:16Z</time>
      </trkpt>
      <trkpt lat="45.93656" lon="4.77742">
        <ele>170</ele>
        <time>2017-12-29T09:44:17Z</time>
      </trkpt>
      <trkpt lat="45.9366" lon="4.77749">
        <ele>171</ele>
        <time>2017-12-29T09:44:19Z</time>
      </trkpt>
      <trkpt lat="45.93662" lon="4.77753">
        <ele>171</ele>
        <time>2017-12-29T09:44:20Z</time>
      </trkpt>
      <trkpt lat="45.93667" lon="4.7776">
        <ele>170</ele>
        <time>2017-12-29T09:44:22Z</time>
      </trkpt>
      <trkpt lat="45.93669" lon="4.77763">
        <ele>170</ele>
        <time>2017-12-29T09:44:23Z</time>
      </trkpt>
      <trkpt lat="45.93674" lon="4.7777">
        <ele>170</ele>
        <time>2017-12-29T09:44:25Z</time>
      </trkpt>
      <trkpt lat="45.93676" lon="4.77774">
        <ele>170</ele>
        <time>2017-12-29T09:44:26Z</time>
      </trkpt>
      <trkpt lat="45.93681" lon="4.77781">
        <ele>170</ele>
        <time>2017-12-29T09:44:28Z</time>
      </trkpt>
      <trkpt lat="45.93684" lon="4.77785">
        <ele>170</ele>
        <time>2017-12-29T09:44:29Z</time>
      </trkpt>
      <trkpt lat="45.93689" lon="4.77792">
        <ele>170</ele>
        <time>2017-12-29T09:44:31Z</time>
      </trkpt>
      <trkpt lat="45.93692" lon="4.77796">
        <ele>169</ele>
        <time>2017-12-29T09:44:32Z</time>
      </trkpt>
      <trkpt lat="45.93697" lon="4.77804">
        <ele>169</ele>
        <time>2017-12-29T09:44:34Z</time>
      </trkpt>
      <trkpt lat="45.937" lon="4.77807">
        <ele>169</ele>
        <time>2017-12-29T09:44:35Z</time>
      </trkpt>
      <trkpt lat="45.93706" lon="4.77814">
        <ele>169</ele>
        <time>2017-12-29T09:44:37Z</time>
      </trkpt>
      <trkpt lat="45.93708" lon="4.77818">
        <ele>169</ele>
        <time>2017-12-29T09:44:38Z</time>
      </trkpt>
      <trkpt lat="45.93713" lon="4.77825">
        <ele>169</ele>
        <time>2017-12-29T09:44:40Z</time>
      </trkpt>
      <trkpt lat="45.93716" lon="4.77828">
        <ele>169</ele>
        <time>2017-12-29T09:44:41Z</time>
      </trkpt>
      <trkpt lat="45.93721" lon="4.77835">
        <ele>167</ele>
        <time>2017-12-29T09:44:43Z</time>
      </trkpt>
      <trkpt lat="45.93724" lon="4.77838">
        <ele>167</ele>
        <time>2017-12-29T09:44:44Z</time>
      </trkpt>
      <trkpt lat="45.93729" lon="4.77844">
        <ele>167</ele>
        <time>2017-12-29T09:44:46Z</time>
      </trkpt>
      <trkpt lat="45.93732" lon="4.77847">
        <ele>167</ele>
        <time>2017-12-29T09:44:47Z</time>
      </trkpt>
      <trkpt lat="45.93737" lon="4.77855">
        <ele>167</ele>
        <time>2017-12-29T09:44:49Z</time>
      </trkpt>
      <trkpt lat="45.9374" lon="4.77858">
        <ele>167</ele>
        <time>2017-12-29T09:44:50Z</time>
      </trkpt>
      <trkpt lat="45.93746" lon="4.77865">
        <ele>167</ele>
        <time>2017-12-29T09:44:52Z</time>
      </trkpt>
      <trkpt lat="45.9375" lon="4.77869">
        <ele>167</ele>
        <time>2017-12-29T09:44:53Z</time>
      </trkpt>
      <trkpt lat="45.93756" lon="4.77876">
        <ele>166</ele>
        <time>2017-12-29T09:44:55Z</time>
      </trkpt>
      <trkpt lat="45.93759" lon="4.7788">
        <ele>166</ele>
        <time>2017-12-29T09:44:56Z</time>
      </trkpt>
      <trkpt lat="45.93765" lon="4.77888">
        <ele>166</ele>
        <time>2017-12-29T09:44:58Z</time>
      </trkpt>
      <trkpt lat="45.93768" lon="4.77892">
        <ele>166</ele>
        <time>2017-12-29T09:44:59Z</time>
      </trkpt>
      <trkpt lat="45.93774" lon="4.779">
        <ele>166</ele>
        <time>2017-12-29T09:45:01Z</time>
      </trkpt>
      <trkpt lat="45.93777" lon="4.77904">
        <ele>166</ele>
        <time>2017-12-29T09:45:02Z</time>
      </trkpt>
      <trkpt lat="45.93783" lon="4.77911">
        <ele>166</ele>
        <time>2017-12-29T09:45:04Z</time>
      </trkpt>
      <trkpt lat="45.93785" lon="4.77915">
        <ele>166</ele>
        <time>2017-12-29T09:45:05Z</time>
      </trkpt>
      <trkpt lat="45.93791" lon="4.77922">
        <ele>168</ele>
        <time>2017-12-29T09:45:07Z</time>
      </trkpt>
      <trkpt lat="45.93794" lon="4.77926">
        <ele>168</ele>
        <time>2017-12-29T09:45:08Z</time>
      </trkpt>
      <trkpt lat="45.93801" lon="4.77934">
        <ele>168</ele>
        <time>2017-12-29T09:45:10Z</time>
      </trkpt>
      <trkpt lat="45.93805" lon="4.77938">
        <ele>169</ele>
        <time>2017-12-29T09:45:11Z</time>
      </trkpt>
      <trkpt lat="45.93808" lon="4.77943">
        <ele>169</ele>
        <time>2017-12-29T09:45:12Z</time>
      </trkpt>
      <trkpt lat="45.93812" lon="4.77947">
        <ele>169</ele>
        <time>2017-12-29T09:45:13Z</time>
      </trkpt>
      <trkpt lat="45.93815" lon="4.77952">
        <ele>170</ele>
        <time>2017-12-29T09:45:14Z</time>
      </trkpt>
      <trkpt lat="45.93818" lon="4.77957">
        <ele>170</ele>
        <time>2017-12-29T09:45:15Z</time>
      </trkpt>
      <trkpt lat="45.93822" lon="4.77961">
        <ele>171</ele>
        <time>2017-12-29T09:45:16Z</time>
      </trkpt>
      <trkpt lat="45.93825" lon="4.77966">
        <ele>171</ele>
        <time>2017-12-29T09:45:17Z</time>
      </trkpt>
      <trkpt lat="45.93829" lon="4.77971">
        <ele>172</ele>
        <time>2017-12-29T09:45:18Z</time>
      </trkpt>
      <trkpt lat="45.93833" lon="4.77977">
        <ele>173</ele>
        <time>2017-12-29T09:45:19Z</time>
      </trkpt>
      <trkpt lat="45.93837" lon="4.77983">
        <ele>178</ele>
        <time>2017-12-29T09:45:20Z</time>
      </trkpt>
      <trkpt lat="45.93839" lon="4.77988">
        <ele>179</ele>
        <time>2017-12-29T09:45:21Z</time>
      </trkpt>
      <trkpt lat="45.93841" lon="4.77996">
        <ele>179</ele>
        <time>2017-12-29T09:45:22Z</time>
      </trkpt>
      <trkpt lat="45.93843" lon="4.78004">
        <ele>181</ele>
        <time>2017-12-29T09:45:23Z</time>
      </trkpt>
      <trkpt lat="45.93844" lon="4.7801">
        <ele>181</ele>
        <time>2017-12-29T09:45:24Z</time>
      </trkpt>
      <trkpt lat="45.93844" lon="4.78018">
        <ele>182</ele>
        <time>2017-12-29T09:45:25Z</time>
      </trkpt>
      <trkpt lat="45.93845" lon="4.78026">
        <ele>182</ele>
        <time>2017-12-29T09:45:26Z</time>
      </trkpt>
      <trkpt lat="45.93846" lon="4.78032">
        <ele>182</ele>
        <time>2017-12-29T09:45:27Z</time>
      </trkpt>
      <trkpt lat="45.93846" lon="4.78044">
        <ele>182</ele>
        <time>2017-12-29T09:45:29Z</time>
      </trkpt>
      <trkpt lat="45.93846" lon="4.7805">
        <ele>182</ele>
        <time>2017-12-29T09:45:30Z</time>
      </trkpt>
      <trkpt lat="45.93843" lon="4.78062">
        <ele>182</ele>
        <time>2017-12-29T09:45:32Z</time>
      </trkpt>
      <trkpt lat="45.93843" lon="4.78068">
        <ele>182</ele>
        <time>2017-12-29T09:45:33Z</time>
      </trkpt>
      <trkpt lat="45.9384" lon="4.7808">
        <ele>181</ele>
        <time>2017-12-29T09:45:35Z</time>
      </trkpt>
      <trkpt lat="45.9384" lon="4.78086">
        <ele>181</ele>
        <time>2017-12-29T09:45:36Z</time>
      </trkpt>
      <trkpt lat="45.93838" lon="4.78098">
        <ele>183</ele>
        <time>2017-12-29T09:45:38Z</time>
      </trkpt>
      <trkpt lat="45.93837" lon="4.78103">
        <ele>183</ele>
        <time>2017-12-29T09:45:39Z</time>
      </trkpt>
      <trkpt lat="45.93834" lon="4.78115">
        <ele>184</ele>
        <time>2017-12-29T09:45:41Z</time>
      </trkpt>
      <trkpt lat="45.93832" lon="4.78121">
        <ele>180</ele>
        <time>2017-12-29T09:45:42Z</time>
      </trkpt>
      <trkpt lat="45.93829" lon="4.78132">
        <ele>180</ele>
        <time>2017-12-29T09:45:44Z</time>
      </trkpt>
      <trkpt lat="45.93827" lon="4.78137">
        <ele>180</ele>
        <time>2017-12-29T09:45:45Z</time>
      </trkpt>
      <trkpt lat="45.93824" lon="4.78148">
        <ele>180</ele>
        <time>2017-12-29T09:45:47Z</time>
      </trkpt>
      <trkpt lat="45.93822" lon="4.78153">
        <ele>180</ele>
        <time>2017-12-29T09:45:48Z</time>
      </trkpt>
      <trkpt lat="45.9382" lon="4.78165">
        <ele>181</ele>
        <time>2017-12-29T09:45:50Z</time>
      </trkpt>
      <trkpt lat="45.93819" lon="4.78171">
        <ele>182</ele>
        <time>2017-12-29T09:45:51Z</time>
      </trkpt>
      <trkpt lat="45.93816" lon="4.78181">
        <ele>182</ele>
        <time>2017-12-29T09:45:53Z</time>
      </trkpt>
      <trkpt lat="45.93815" lon="4.78187">
        <ele>182</ele>
        <time>2017-12-29T09:45:54Z</time>
      </trkpt>
      <trkpt lat="45.93813" lon="4.78197">
        <ele>182</ele>
        <time>2017-12-29T09:45:56Z</time>
      </trkpt>
      <trkpt lat="45.93811" lon="4.78202">
        <ele>182</ele>
        <time>2017-12-29T09:45:57Z</time>
      </trkpt>
      <trkpt lat="45.93809" lon="4.78213">
        <ele>182</ele>
        <time>2017-12-29T09:45:59Z</time>
      </trkpt>
      <trkpt lat="45.93807" lon="4.78218">
        <ele>182</ele>
        <time>2017-12-29T09:46:00Z</time>
      </trkpt>
      <trkpt lat="45.93804" lon="4.78228">
        <ele>182</ele>
        <time>2017-12-29T09:46:02Z</time>
      </trkpt>
      <trkpt lat="45.938" lon="4.78232">
        <ele>182</ele>
        <time>2017-12-29T09:46:03Z</time>
      </trkpt>
      <trkpt lat="45.93795" lon="4.78241">
        <ele>182</ele>
        <time>2017-12-29T09:46:05Z</time>
      </trkpt>
      <trkpt lat="45.93794" lon="4.78248">
        <ele>182</ele>
        <time>2017-12-29T09:46:06Z</time>
      </trkpt>
      <trkpt lat="45.93793" lon="4.78254">
        <ele>183</ele>
        <time>2017-12-29T09:46:07Z</time>
      </trkpt>
      <trkpt lat="45.93792" lon="4.78261">
        <ele>183</ele>
        <time>2017-12-29T09:46:08Z</time>
      </trkpt>
      <trkpt lat="45.93791" lon="4.78272">
        <ele>183</ele>
        <time>2017-12-29T09:46:10Z</time>
      </trkpt>
      <trkpt lat="45.93789" lon="4.78277">
        <ele>183</ele>
        <time>2017-12-29T09:46:11Z</time>
      </trkpt>
      <trkpt lat="45.93785" lon="4.78288">
        <ele>183</ele>
        <time>2017-12-29T09:46:13Z</time>
      </trkpt>
      <trkpt lat="45.93783" lon="4.78293">
        <ele>183</ele>
        <time>2017-12-29T09:46:14Z</time>
      </trkpt>
      <trkpt lat="45.93781" lon="4.78299">
        <ele>183</ele>
        <time>2017-12-29T09:46:15Z</time>
      </trkpt>
      <trkpt lat="45.9378" lon="4.78306">
        <ele>183</ele>
        <time>2017-12-29T09:46:16Z</time>
      </trkpt>
      <trkpt lat="45.93779" lon="4.78312">
        <ele>183</ele>
        <time>2017-12-29T09:46:17Z</time>
      </trkpt>
      <trkpt lat="45.93777" lon="4.78319">
        <ele>183</ele>
        <time>2017-12-29T09:46:18Z</time>
      </trkpt>
      <trkpt lat="45.93776" lon="4.78326">
        <ele>183</ele>
        <time>2017-12-29T09:46:19Z</time>
      </trkpt>
      <trkpt lat="45.93774" lon="4.78333">
        <ele>183</ele>
        <time>2017-12-29T09:46:20Z</time>
      </trkpt>
      <trkpt lat="45.93772" lon="4.7834">
        <ele>183</ele>
        <time>2017-12-29T09:46:21Z</time>
      </trkpt>
      <trkpt lat="45.9377" lon="4.78347">
        <ele>183</ele>
        <time>2017-12-29T09:46:22Z</time>
      </trkpt>
      <trkpt lat="45.93768" lon="4.78353">
        <ele>183</ele>
        <time>2017-12-29T09:46:23Z</time>
      </trkpt>
      <trkpt lat="45.93766" lon="4.78361">
        <ele>183</ele>
        <time>2017-12-29T09:46:24Z</time>
      </trkpt>
      <trkpt lat="45.93764" lon="4.78368">
        <ele>183</ele>
        <time>2017-12-29T09:46:25Z</time>
      </trkpt>
      <trkpt lat="45.93762" lon="4.78376">
        <ele>183</ele>
        <time>2017-12-29T09:46:26Z</time>
      </trkpt>
      <trkpt lat="45.9376" lon="4.78382">
        <ele>183</ele>
        <time>2017-12-29T09:46:27Z</time>
      </trkpt>
      <trkpt lat="45.93757" lon="4.7839">
        <ele>183</ele>
        <time>2017-12-29T09:46:28Z</time>
      </trkpt>
      <trkpt lat="45.93755" lon="4.78398">
        <ele>183</ele>
        <time>2017-12-29T09:46:29Z</time>
      </trkpt>
      <trkpt lat="45.93753" lon="4.78406">
        <ele>182</ele>
        <time>2017-12-29T09:46:30Z</time>
      </trkpt>
      <trkpt lat="45.93751" lon="4.78414">
        <ele>181</ele>
        <time>2017-12-29T09:46:31Z</time>
      </trkpt>
      <trkpt lat="45.93748" lon="4.78421">
        <ele>181</ele>
        <time>2017-12-29T09:46:32Z</time>
      </trkpt>
      <trkpt lat="45.93746" lon="4.78429">
        <ele>180</ele>
        <time>2017-12-29T09:46:33Z</time>
      </trkpt>
      <trkpt lat="45.93745" lon="4.78436">
        <ele>180</ele>
        <time>2017-12-29T09:46:34Z</time>
      </trkpt>
      <trkpt lat="45.93743" lon="4.78445">
        <ele>180</ele>
        <time>2017-12-29T09:46:35Z</time>
      </trkpt>
      <trkpt lat="45.93741" lon="4.78452">
        <ele>180</ele>
        <time>2017-12-29T09:46:36Z</time>
      </trkpt>
      <trkpt lat="45.93739" lon="4.78459">
        <ele>180</ele>
        <time>2017-12-29T09:46:37Z</time>
      </trkpt>
      <trkpt lat="45.93737" lon="4.78466">
        <ele>180</ele>
        <time>2017-12-29T09:46:38Z</time>
      </trkpt>
      <trkpt lat="45.93736" lon="4.78474">
        <ele>180</ele>
        <time>2017-12-29T09:46:39Z</time>
      </trkpt>
      <trkpt lat="45.93733" lon="4.78484">
        <ele>180</ele>
        <time>2017-12-29T09:46:40Z</time>
      </trkpt>
      <trkpt lat="45.93731" lon="4.78491">
        <ele>180</ele>
        <time>2017-12-29T09:46:41Z</time>
      </trkpt>
      <trkpt lat="45.9373" lon="4.78499">
        <ele>180</ele>
        <time>2017-12-29T09:46:42Z</time>
      </trkpt>
      <trkpt lat="45.93728" lon="4.78507">
        <ele>179</ele>
        <time>2017-12-29T09:46:43Z</time>
      </trkpt>
      <trkpt lat="45.93726" lon="4.78514">
        <ele>179</ele>
        <time>2017-12-29T09:46:44Z</time>
      </trkpt>
      <trkpt lat="45.93724" lon="4.78522">
        <ele>179</ele>
        <time>2017-12-29T09:46:45Z</time>
      </trkpt>
      <trkpt lat="45.93722" lon="4.7853">
        <ele>178</ele>
        <time>2017-12-29T09:46:46Z</time>
      </trkpt>
      <trkpt lat="45.9372" lon="4.78538">
        <ele>178</ele>
        <time>2017-12-29T09:46:47Z</time>
      </trkpt>
      <trkpt lat="45.93717" lon="4.78546">
        <ele>178</ele>
        <time>2017-12-29T09:46:48Z</time>
      </trkpt>
      <trkpt lat="45.93715" lon="4.78554">
        <ele>178</ele>
        <time>2017-12-29T09:46:49Z</time>
      </trkpt>
      <trkpt lat="45.93714" lon="4.78562">
        <ele>178</ele>
        <time>2017-12-29T09:46:50Z</time>
      </trkpt>
      <trkpt lat="45.93713" lon="4.7857">
        <ele>178</ele>
        <time>2017-12-29T09:46:51Z</time>
      </trkpt>
      <trkpt lat="45.93711" lon="4.78576">
        <ele>177</ele>
        <time>2017-12-29T09:46:52Z</time>
      </trkpt>
      <trkpt lat="45.93708" lon="4.78584">
        <ele>176</ele>
        <time>2017-12-29T09:46:53Z</time>
      </trkpt>
      <trkpt lat="45.93706" lon="4.78592">
        <ele>176</ele>
        <time>2017-12-29T09:46:54Z</time>
      </trkpt>
      <trkpt lat="45.93704" lon="4.78598">
        <ele>176</ele>
        <time>2017-12-29T09:46:55Z</time>
      </trkpt>
      <trkpt lat="45.93702" lon="4.78605">
        <ele>176</ele>
        <time>2017-12-29T09:46:56Z</time>
      </trkpt>
      <trkpt lat="45.93701" lon="4.78618">
        <ele>176</ele>
        <time>2017-12-29T09:46:58Z</time>
      </trkpt>
      <trkpt lat="45.93702" lon="4.78624">
        <ele>176</ele>
        <time>2017-12-29T09:46:59Z</time>
      </trkpt>
      <trkpt lat="45.93708" lon="4.78629">
        <ele>176</ele>
        <time>2017-12-29T09:47:01Z</time>
      </trkpt>
      <trkpt lat="45.93712" lon="4.78628">
        <ele>176</ele>
        <time>2017-12-29T09:47:02Z</time>
      </trkpt>
      <trkpt lat="45.9372" lon="4.78625">
        <ele>177</ele>
        <time>2017-12-29T09:47:04Z</time>
      </trkpt>
      <trkpt lat="45.93724" lon="4.78625">
        <ele>177</ele>
        <time>2017-12-29T09:47:05Z</time>
      </trkpt>
      <trkpt lat="45.93729" lon="4.78624">
        <ele>177</ele>
        <time>2017-12-29T09:47:07Z</time>
      </trkpt>
      <trkpt lat="45.93733" lon="4.78622">
        <ele>177</ele>
        <time>2017-12-29T09:47:08Z</time>
      </trkpt>
      <trkpt lat="45.9374" lon="4.7862">
        <ele>177</ele>
        <time>2017-12-29T09:47:10Z</time>
      </trkpt>
      <trkpt lat="45.93743" lon="4.7862">
        <ele>177</ele>
        <time>2017-12-29T09:47:11Z</time>
      </trkpt>
      <trkpt lat="45.9375" lon="4.7862">
        <ele>177</ele>
        <time>2017-12-29T09:47:13Z</time>
      </trkpt>
      <trkpt lat="45.93753" lon="4.78619">
        <ele>181</ele>
        <time>2017-12-29T09:47:14Z</time>
      </trkpt>
      <trkpt lat="45.93761" lon="4.78618">
        <ele>181</ele>
        <time>2017-12-29T09:47:17Z</time>
      </trkpt>
      <trkpt lat="45.93763" lon="4.78618">
        <ele>181</ele>
        <time>2017-12-29T09:47:18Z</time>
      </trkpt>
      <trkpt lat="45.93772" lon="4.78616">
        <ele>181</ele>
        <time>2017-12-29T09:47:21Z</time>
      </trkpt>
      <trkpt lat="45.93775" lon="4.78615">
        <ele>181</ele>
        <time>2017-12-29T09:47:22Z</time>
      </trkpt>
      <trkpt lat="45.93781" lon="4.78613">
        <ele>181</ele>
        <time>2017-12-29T09:47:24Z</time>
      </trkpt>
      <trkpt lat="45.93784" lon="4.78612">
        <ele>182</ele>
        <time>2017-12-29T09:47:25Z</time>
      </trkpt>
      <trkpt lat="45.93791" lon="4.78611">
        <ele>182</ele>
        <time>2017-12-29T09:47:27Z</time>
      </trkpt>
      <trkpt lat="45.93795" lon="4.7861">
        <ele>182</ele>
        <time>2017-12-29T09:47:28Z</time>
      </trkpt>
      <trkpt lat="45.93802" lon="4.78609">
        <ele>183</ele>
        <time>2017-12-29T09:47:30Z</time>
      </trkpt>
      <trkpt lat="45.93806" lon="4.78608">
        <ele>183</ele>
        <time>2017-12-29T09:47:31Z</time>
      </trkpt>
      <trkpt lat="45.93813" lon="4.78606">
        <ele>183</ele>
        <time>2017-12-29T09:47:33Z</time>
      </trkpt>
      <trkpt lat="45.93817" lon="4.78605">
        <ele>183</ele>
        <time>2017-12-29T09:47:34Z</time>
      </trkpt>
      <trkpt lat="45.93823" lon="4.78603">
        <ele>184</ele>
        <time>2017-12-29T09:47:36Z</time>
      </trkpt>
      <trkpt lat="45.93826" lon="4.78602">
        <ele>184</ele>
        <time>2017-12-29T09:47:37Z</time>
      </trkpt>
      <trkpt lat="45.93835" lon="4.78599">
        <ele>187</ele>
        <time>2017-12-29T09:47:40Z</time>
      </trkpt>
      <trkpt lat="45.93837" lon="4.78599">
        <ele>187</ele>
        <time>2017-12-29T09:47:41Z</time>
      </trkpt>
      <trkpt lat="45.93844" lon="4.78596">
        <ele>188</ele>
        <time>2017-12-29T09:47:44Z</time>
      </trkpt>
      <trkpt lat="45.93846" lon="4.78596">
        <ele>188</ele>
        <time>2017-12-29T09:47:45Z</time>
      </trkpt>
      <trkpt lat="45.93854" lon="4.78595">
        <ele>188</ele>
        <time>2017-12-29T09:47:50Z</time>
      </trkpt>
      <trkpt lat="45.93856" lon="4.78594">
        <ele>188</ele>
        <time>2017-12-29T09:47:51Z</time>
      </trkpt>
      <trkpt lat="45.93864" lon="4.78594">
        <ele>188</ele>
        <time>2017-12-29T09:47:55Z</time>
      </trkpt>
      <trkpt lat="45.93866" lon="4.78594">
        <ele>188</ele>
        <time>2017-12-29T09:47:56Z</time>
      </trkpt>
      <trkpt lat="45.93875" lon="4.78592">
        <ele>189</ele>
        <time>2017-12-29T09:48:00Z</time>
      </trkpt>
      <trkpt lat="45.93877" lon="4.78591">
        <ele>189</ele>
        <time>2017-12-29T09:48:01Z</time>
      </trkpt>
      <trkpt lat="45.93885" lon="4.78589">
        <ele>189</ele>
        <time>2017-12-29T09:48:04Z</time>
      </trkpt>
      <trkpt lat="45.93887" lon="4.78588">
        <ele>190</ele>
        <time>2017-12-29T09:48:05Z</time>
      </trkpt>
      <trkpt lat="45.93893" lon="4.78585">
        <ele>190</ele>
        <time>2017-12-29T09:48:08Z</time>
      </trkpt>
      <trkpt lat="45.93896" lon="4.78585">
        <ele>190</ele>
        <time>2017-12-29T09:48:09Z</time>
      </trkpt>
      <trkpt lat="45.93904" lon="4.78583">
        <ele>192</ele>
        <time>2017-12-29T09:48:13Z</time>
      </trkpt>
      <trkpt lat="45.93906" lon="4.78582">
        <ele>192</ele>
        <time>2017-12-29T09:48:14Z</time>
      </trkpt>
      <trkpt lat="45.93914" lon="4.78578">
        <ele>193</ele>
        <time>2017-12-29T09:48:18Z</time>
      </trkpt>
      <trkpt lat="45.93915" lon="4.78577">
        <ele>193</ele>
        <time>2017-12-29T09:48:19Z</time>
      </trkpt>
      <trkpt lat="45.93923" lon="4.7857">
        <ele>195</ele>
        <time>2017-12-29T09:48:23Z</time>
      </trkpt>
      <trkpt lat="45.93925" lon="4.78568">
        <ele>196</ele>
        <time>2017-12-29T09:48:24Z</time>
      </trkpt>
      <trkpt lat="45.93933" lon="4.78567">
        <ele>196</ele>
        <time>2017-12-29T09:48:29Z</time>
      </trkpt>
      <trkpt lat="45.93935" lon="4.7857">
        <ele>196</ele>
        <time>2017-12-29T09:48:30Z</time>
      </trkpt>
      <trkpt lat="45.93937" lon="4.78582">
        <ele>196</ele>
        <time>2017-12-29T09:48:33Z</time>
      </trkpt>
      <trkpt lat="45.93937" lon="4.78586">
        <ele>195</ele>
        <time>2017-12-29T09:48:34Z</time>
      </trkpt>
      <trkpt lat="45.93937" lon="4.78599">
        <ele>195</ele>
        <time>2017-12-29T09:48:37Z</time>
      </trkpt>
      <trkpt lat="45.93937" lon="4.78602">
        <ele>196</ele>
        <time>2017-12-29T09:48:38Z</time>
      </trkpt>
      <trkpt lat="45.93938" lon="4.78615">
        <ele>196</ele>
        <time>2017-12-29T09:48:41Z</time>
      </trkpt>
      <trkpt lat="45.93938" lon="4.7862">
        <ele>196</ele>
        <time>2017-12-29T09:48:42Z</time>
      </trkpt>
      <trkpt lat="45.93938" lon="4.78629">
        <ele>195</ele>
        <time>2017-12-29T09:48:44Z</time>
      </trkpt>
      <trkpt lat="45.93938" lon="4.78634">
        <ele>195</ele>
        <time>2017-12-29T09:48:45Z</time>
      </trkpt>
      <trkpt lat="45.93938" lon="4.78643">
        <ele>195</ele>
        <time>2017-12-29T09:48:47Z</time>
      </trkpt>
      <trkpt lat="45.93937" lon="4.78648">
        <ele>195</ele>
        <time>2017-12-29T09:48:48Z</time>
      </trkpt>
      <trkpt lat="45.93937" lon="4.78657">
        <ele>194</ele>
        <time>2017-12-29T09:48:50Z</time>
      </trkpt>
      <trkpt lat="45.93937" lon="4.78662">
        <ele>194</ele>
        <time>2017-12-29T09:48:51Z</time>
      </trkpt>
      <trkpt lat="45.93936" lon="4.78672">
        <ele>193</ele>
        <time>2017-12-29T09:48:53Z</time>
      </trkpt>
      <trkpt lat="45.93935" lon="4.78677">
        <ele>193</ele>
        <time>2017-12-29T09:48:54Z</time>
      </trkpt>
      <trkpt lat="45.93935" lon="4.78688">
        <ele>194</ele>
        <time>2017-12-29T09:48:56Z</time>
      </trkpt>
      <trkpt lat="45.93935" lon="4.78693">
        <ele>194</ele>
        <time>2017-12-29T09:48:57Z</time>
      </trkpt>
      <trkpt lat="45.93935" lon="4.78704">
        <ele>194</ele>
        <time>2017-12-29T09:48:59Z</time>
      </trkpt>
      <trkpt lat="45.93934" lon="4.78709">
        <ele>194</ele>
        <time>2017-12-29T09:49:00Z</time>
      </trkpt>
      <trkpt lat="45.93934" lon="4.78721">
        <ele>194</ele>
        <time>2017-12-29T09:49:02Z</time>
      </trkpt>
      <trkpt lat="45.93934" lon="4.78727">
        <ele>194</ele>
        <time>2017-12-29T09:49:03Z</time>
      </trkpt>
      <trkpt lat="45.93935" lon="4.78739">
        <ele>193</ele>
        <time>2017-12-29T09:49:05Z</time>
      </trkpt>
      <trkpt lat="45.93935" lon="4.78744">
        <ele>193</ele>
        <time>2017-12-29T09:49:06Z</time>
      </trkpt>
      <trkpt lat="45.93935" lon="4.78755">
        <ele>193</ele>
        <time>2017-12-29T09:49:08Z</time>
      </trkpt>
      <trkpt lat="45.93935" lon="4.7876">
        <ele>193</ele>
        <time>2017-12-29T09:49:09Z</time>
      </trkpt>
      <trkpt lat="45.93935" lon="4.7877">
        <ele>193</ele>
        <time>2017-12-29T09:49:11Z</time>
      </trkpt>
      <trkpt lat="45.93935" lon="4.78775">
        <ele>194</ele>
        <time>2017-12-29T09:49:12Z</time>
      </trkpt>
      <trkpt lat="45.93936" lon="4.78784">
        <ele>194</ele>
        <time>2017-12-29T09:49:14Z</time>
      </trkpt>
      <trkpt lat="45.93936" lon="4.78789">
        <ele>194</ele>
        <time>2017-12-29T09:49:15Z</time>
      </trkpt>
      <trkpt lat="45.93936" lon="4.78799">
        <ele>194</ele>
        <time>2017-12-29T09:49:17Z</time>
      </trkpt>
      <trkpt lat="45.93936" lon="4.78804">
        <ele>194</ele>
        <time>2017-12-29T09:49:18Z</time>
      </trkpt>
      <trkpt lat="45.93936" lon="4.78816">
        <ele>194</ele>
        <time>2017-12-29T09:49:20Z</time>
      </trkpt>
      <trkpt lat="45.93937" lon="4.78822">
        <ele>193</ele>
        <time>2017-12-29T09:49:21Z</time>
      </trkpt>
      <trkpt lat="45.93937" lon="4.78828">
        <ele>193</ele>
        <time>2017-12-29T09:49:22Z</time>
      </trkpt>
      <trkpt lat="45.93938" lon="4.78836">
        <ele>193</ele>
        <time>2017-12-29T09:49:23Z</time>
      </trkpt>
      <trkpt lat="45.93938" lon="4.78842">
        <ele>193</ele>
        <time>2017-12-29T09:49:24Z</time>
      </trkpt>
      <trkpt lat="45.93938" lon="4.78849">
        <ele>193</ele>
        <time>2017-12-29T09:49:25Z</time>
      </trkpt>
      <trkpt lat="45.9394" lon="4.78861">
        <ele>194</ele>
        <time>2017-12-29T09:49:27Z</time>
      </trkpt>
      <trkpt lat="45.9394" lon="4.78866">
        <ele>194</ele>
        <time>2017-12-29T09:49:28Z</time>
      </trkpt>
      <trkpt lat="45.93941" lon="4.78877">
        <ele>194</ele>
        <time>2017-12-29T09:49:30Z</time>
      </trkpt>
      <trkpt lat="45.93941" lon="4.78882">
        <ele>194</ele>
        <time>2017-12-29T09:49:31Z</time>
      </trkpt>
      <trkpt lat="45.93941" lon="4.78893">
        <ele>193</ele>
        <time>2017-12-29T09:49:33Z</time>
      </trkpt>
      <trkpt lat="45.93941" lon="4.78899">
        <ele>193</ele>
        <time>2017-12-29T09:49:34Z</time>
      </trkpt>
      <trkpt lat="45.93941" lon="4.78911">
        <ele>193</ele>
        <time>2017-12-29T09:49:36Z</time>
      </trkpt>
      <trkpt lat="45.93942" lon="4.78917">
        <ele>193</ele>
        <time>2017-12-29T09:49:37Z</time>
      </trkpt>
      <trkpt lat="45.93942" lon="4.78929">
        <ele>193</ele>
        <time>2017-12-29T09:49:39Z</time>
      </trkpt>
      <trkpt lat="45.93942" lon="4.78935">
        <ele>193</ele>
        <time>2017-12-29T09:49:40Z</time>
      </trkpt>
      <trkpt lat="45.93943" lon="4.78945">
        <ele>194</ele>
        <time>2017-12-29T09:49:42Z</time>
      </trkpt>
      <trkpt lat="45.93943" lon="4.7895">
        <ele>194</ele>
        <time>2017-12-29T09:49:43Z</time>
      </trkpt>
      <trkpt lat="45.93943" lon="4.78959">
        <ele>194</ele>
        <time>2017-12-29T09:49:45Z</time>
      </trkpt>
      <trkpt lat="45.93943" lon="4.78965">
        <ele>194</ele>
        <time>2017-12-29T09:49:46Z</time>
      </trkpt>
      <trkpt lat="45.93944" lon="4.78975">
        <ele>194</ele>
        <time>2017-12-29T09:49:48Z</time>
      </trkpt>
      <trkpt lat="45.93944" lon="4.7898">
        <ele>194</ele>
        <time>2017-12-29T09:49:49Z</time>
      </trkpt>
      <trkpt lat="45.93942" lon="4.78992">
        <ele>194</ele>
        <time>2017-12-29T09:49:51Z</time>
      </trkpt>
      <trkpt lat="45.93943" lon="4.78996">
        <ele>194</ele>
        <time>2017-12-29T09:49:52Z</time>
      </trkpt>
      <trkpt lat="45.93944" lon="4.79008">
        <ele>195</ele>
        <time>2017-12-29T09:49:54Z</time>
      </trkpt>
      <trkpt lat="45.93943" lon="4.79014">
        <ele>195</ele>
        <time>2017-12-29T09:49:55Z</time>
      </trkpt>
      <trkpt lat="45.93943" lon="4.79024">
        <ele>195</ele>
        <time>2017-12-29T09:49:57Z</time>
      </trkpt>
      <trkpt lat="45.93943" lon="4.7903">
        <ele>195</ele>
        <time>2017-12-29T09:49:58Z</time>
      </trkpt>
      <trkpt lat="45.93943" lon="4.79041">
        <ele>195</ele>
        <time>2017-12-29T09:50:00Z</time>
      </trkpt>
      <trkpt lat="45.93944" lon="4.79047">
        <ele>195</ele>
        <time>2017-12-29T09:50:01Z</time>
      </trkpt>
      <trkpt lat="45.93945" lon="4.79057">
        <ele>195</ele>
        <time>2017-12-29T09:50:03Z</time>
      </trkpt>
      <trkpt lat="45.93945" lon="4.79062">
        <ele>195</ele>
        <time>2017-12-29T09:50:04Z</time>
      </trkpt>
      <trkpt lat="45.93946" lon="4.79073">
        <ele>195</ele>
        <time>2017-12-29T09:50:06Z</time>
      </trkpt>
      <trkpt lat="45.93946" lon="4.79079">
        <ele>195</ele>
        <time>2017-12-29T09:50:07Z</time>
      </trkpt>
      <trkpt lat="45.93946" lon="4.7909">
        <ele>196</ele>
        <time>2017-12-29T09:50:09Z</time>
      </trkpt>
      <trkpt lat="45.93946" lon="4.79095">
        <ele>196</ele>
        <time>2017-12-29T09:50:10Z</time>
      </trkpt>
      <trkpt lat="45.93946" lon="4.79106">
        <ele>196</ele>
        <time>2017-12-29T09:50:12Z</time>
      </trkpt>
      <trkpt lat="45.93946" lon="4.79111">
        <ele>196</ele>
        <time>2017-12-29T09:50:13Z</time>
      </trkpt>
      <trkpt lat="45.93946" lon="4.79122">
        <ele>197</ele>
        <time>2017-12-29T09:50:15Z</time>
      </trkpt>
      <trkpt lat="45.93947" lon="4.79127">
        <ele>197</ele>
        <time>2017-12-29T09:50:16Z</time>
      </trkpt>
      <trkpt lat="45.93948" lon="4.79137">
        <ele>197</ele>
        <time>2017-12-29T09:50:18Z</time>
      </trkpt>
      <trkpt lat="45.93948" lon="4.79143">
        <ele>197</ele>
        <time>2017-12-29T09:50:19Z</time>
      </trkpt>
      <trkpt lat="45.93948" lon="4.79153">
        <ele>196</ele>
        <time>2017-12-29T09:50:21Z</time>
      </trkpt>
      <trkpt lat="45.93948" lon="4.79159">
        <ele>196</ele>
        <time>2017-12-29T09:50:22Z</time>
      </trkpt>
      <trkpt lat="45.93948" lon="4.79169">
        <ele>196</ele>
        <time>2017-12-29T09:50:24Z</time>
      </trkpt>
      <trkpt lat="45.93948" lon="4.79175">
        <ele>197</ele>
        <time>2017-12-29T09:50:25Z</time>
      </trkpt>
      <trkpt lat="45.93948" lon="4.79186">
        <ele>197</ele>
        <time>2017-12-29T09:50:27Z</time>
      </trkpt>
      <trkpt lat="45.93948" lon="4.79192">
        <ele>197</ele>
        <time>2017-12-29T09:50:28Z</time>
      </trkpt>
      <trkpt lat="45.93947" lon="4.79203">
        <ele>197</ele>
        <time>2017-12-29T09:50:30Z</time>
      </trkpt>
      <trkpt lat="45.93947" lon="4.79209">
        <ele>197</ele>
        <time>2017-12-29T09:50:31Z</time>
      </trkpt>
      <trkpt lat="45.93948" lon="4.7922">
        <ele>197</ele>
        <time>2017-12-29T09:50:33Z</time>
      </trkpt>
      <trkpt lat="45.93949" lon="4.79225">
        <ele>197</ele>
        <time>2017-12-29T09:50:34Z</time>
      </trkpt>
      <trkpt lat="45.9395" lon="4.79235">
        <ele>197</ele>
        <time>2017-12-29T09:50:36Z</time>
      </trkpt>
      <trkpt lat="45.9395" lon="4.7924">
        <ele>197</ele>
        <time>2017-12-29T09:50:37Z</time>
      </trkpt>
      <trkpt lat="45.9395" lon="4.79251">
        <ele>197</ele>
        <time>2017-12-29T09:50:39Z</time>
      </trkpt>
      <trkpt lat="45.9395" lon="4.79256">
        <ele>197</ele>
        <time>2017-12-29T09:50:40Z</time>
      </trkpt>
      <trkpt lat="45.9395" lon="4.79267">
        <ele>198</ele>
        <time>2017-12-29T09:50:42Z</time>
      </trkpt>
      <trkpt lat="45.9395" lon="4.79272">
        <ele>198</ele>
        <time>2017-12-29T09:50:43Z</time>
      </trkpt>
      <trkpt lat="45.9395" lon="4.79282">
        <ele>198</ele>
        <time>2017-12-29T09:50:45Z</time>
      </trkpt>
      <trkpt lat="45.93951" lon="4.79287">
        <ele>198</ele>
        <time>2017-12-29T09:50:46Z</time>
      </trkpt>
      <trkpt lat="45.93951" lon="4.79298">
        <ele>198</ele>
        <time>2017-12-29T09:50:48Z</time>
      </trkpt>
      <trkpt lat="45.93951" lon="4.79303">
        <ele>198</ele>
        <time>2017-12-29T09:50:49Z</time>
      </trkpt>
      <trkpt lat="45.93951" lon="4.79313">
        <ele>198</ele>
        <time>2017-12-29T09:50:51Z</time>
      </trkpt>
      <trkpt lat="45.93951" lon="4.79318">
        <ele>198</ele>
        <time>2017-12-29T09:50:52Z</time>
      </trkpt>
      <trkpt lat="45.93951" lon="4.79329">
        <ele>198</ele>
        <time>2017-12-29T09:50:54Z</time>
      </trkpt>
      <trkpt lat="45.93952" lon="4.79334">
        <ele>200</ele>
        <time>2017-12-29T09:50:55Z</time>
      </trkpt>
      <trkpt lat="45.93952" lon="4.79344">
        <ele>200</ele>
        <time>2017-12-29T09:50:57Z</time>
      </trkpt>
      <trkpt lat="45.93952" lon="4.79349">
        <ele>200</ele>
        <time>2017-12-29T09:50:58Z</time>
      </trkpt>
      <trkpt lat="45.93952" lon="4.79359">
        <ele>200</ele>
        <time>2017-12-29T09:51:00Z</time>
      </trkpt>
      <trkpt lat="45.93952" lon="4.79364">
        <ele>201</ele>
        <time>2017-12-29T09:51:01Z</time>
      </trkpt>
      <trkpt lat="45.93952" lon="4.79374">
        <ele>201</ele>
        <time>2017-12-29T09:51:03Z</time>
      </trkpt>
      <trkpt lat="45.93952" lon="4.79379">
        <ele>201</ele>
        <time>2017-12-29T09:51:04Z</time>
      </trkpt>
      <trkpt lat="45.93951" lon="4.79389">
        <ele>201</ele>
        <time>2017-12-29T09:51:06Z</time>
      </trkpt>
      <trkpt lat="45.93951" lon="4.79393">
        <ele>201</ele>
        <time>2017-12-29T09:51:07Z</time>
      </trkpt>
      <trkpt lat="45.9395" lon="4.79403">
        <ele>201</ele>
        <time>2017-12-29T09:51:09Z</time>
      </trkpt>
      <trkpt lat="45.9395" lon="4.79408">
        <ele>201</ele>
        <time>2017-12-29T09:51:10Z</time>
      </trkpt>
      <trkpt lat="45.9395" lon="4.79417">
        <ele>202</ele>
        <time>2017-12-29T09:51:12Z</time>
      </trkpt>
      <trkpt lat="45.9395" lon="4.79422">
        <ele>202</ele>
        <time>2017-12-29T09:51:13Z</time>
      </trkpt>
      <trkpt lat="45.93949" lon="4.79431">
        <ele>202</ele>
        <time>2017-12-29T09:51:15Z</time>
      </trkpt>
      <trkpt lat="45.93949" lon="4.79436">
        <ele>202</ele>
        <time>2017-12-29T09:51:16Z</time>
      </trkpt>
      <trkpt lat="45.93948" lon="4.79448">
        <ele>202</ele>
        <time>2017-12-29T09:51:19Z</time>
      </trkpt>
      <trkpt lat="45.93948" lon="4.79453">
        <ele>202</ele>
        <time>2017-12-29T09:51:20Z</time>
      </trkpt>
      <trkpt lat="45.93948" lon="4.79464">
        <ele>202</ele>
        <time>2017-12-29T09:51:22Z</time>
      </trkpt>
      <trkpt lat="45.93948" lon="4.79469">
        <ele>202</ele>
        <time>2017-12-29T09:51:23Z</time>
      </trkpt>
      <trkpt lat="45.93948" lon="4.7948">
        <ele>202</ele>
        <time>2017-12-29T09:51:25Z</time>
      </trkpt>
      <trkpt lat="45.93948" lon="4.79485">
        <ele>202</ele>
        <time>2017-12-29T09:51:26Z</time>
      </trkpt>
      <trkpt lat="45.93948" lon="4.79495">
        <ele>202</ele>
        <time>2017-12-29T09:51:28Z</time>
      </trkpt>
      <trkpt lat="45.93949" lon="4.79499">
        <ele>202</ele>
        <time>2017-12-29T09:51:29Z</time>
      </trkpt>
      <trkpt lat="45.93949" lon="4.7951">
        <ele>203</ele>
        <time>2017-12-29T09:51:31Z</time>
      </trkpt>
      <trkpt lat="45.93949" lon="4.79515">
        <ele>204</ele>
        <time>2017-12-29T09:51:32Z</time>
      </trkpt>
      <trkpt lat="45.9395" lon="4.79526">
        <ele>204</ele>
        <time>2017-12-29T09:51:34Z</time>
      </trkpt>
      <trkpt lat="45.93951" lon="4.79531">
        <ele>204</ele>
        <time>2017-12-29T09:51:35Z</time>
      </trkpt>
      <trkpt lat="45.93951" lon="4.7954">
        <ele>204</ele>
        <time>2017-12-29T09:51:37Z</time>
      </trkpt>
      <trkpt lat="45.93951" lon="4.79545">
        <ele>205</ele>
        <time>2017-12-29T09:51:38Z</time>
      </trkpt>
      <trkpt lat="45.93951" lon="4.79554">
        <ele>205</ele>
        <time>2017-12-29T09:51:40Z</time>
      </trkpt>
      <trkpt lat="45.93951" lon="4.79559">
        <ele>205</ele>
        <time>2017-12-29T09:51:41Z</time>
      </trkpt>
      <trkpt lat="45.93952" lon="4.79568">
        <ele>205</ele>
        <time>2017-12-29T09:51:43Z</time>
      </trkpt>
      <trkpt lat="45.93952" lon="4.79572">
        <ele>205</ele>
        <time>2017-12-29T09:51:44Z</time>
      </trkpt>
      <trkpt lat="45.93953" lon="4.79581">
        <ele>205</ele>
        <time>2017-12-29T09:51:46Z</time>
      </trkpt>
      <trkpt lat="45.93954" lon="4.79586">
        <ele>206</ele>
        <time>2017-12-29T09:51:47Z</time>
      </trkpt>
      <trkpt lat="45.93955" lon="4.79594">
        <ele>206</ele>
        <time>2017-12-29T09:51:49Z</time>
      </trkpt>
      <trkpt lat="45.93955" lon="4.79598">
        <ele>206</ele>
        <time>2017-12-29T09:51:50Z</time>
      </trkpt>
      <trkpt lat="45.93957" lon="4.79607">
        <ele>207</ele>
        <time>2017-12-29T09:51:52Z</time>
      </trkpt>
      <trkpt lat="45.93957" lon="4.79611">
        <ele>207</ele>
        <time>2017-12-29T09:51:53Z</time>
      </trkpt>
      <trkpt lat="45.93959" lon="4.7962">
        <ele>207</ele>
        <time>2017-12-29T09:51:55Z</time>
      </trkpt>
      <trkpt lat="45.93959" lon="4.79624">
        <ele>207</ele>
        <time>2017-12-29T09:51:56Z</time>
      </trkpt>
      <trkpt lat="45.93961" lon="4.79633">
        <ele>207</ele>
        <time>2017-12-29T09:51:58Z</time>
      </trkpt>
      <trkpt lat="45.93961" lon="4.79638">
        <ele>207</ele>
        <time>2017-12-29T09:51:59Z</time>
      </trkpt>
      <trkpt lat="45.93962" lon="4.7965">
        <ele>207</ele>
        <time>2017-12-29T09:52:02Z</time>
      </trkpt>
      <trkpt lat="45.93963" lon="4.79655">
        <ele>207</ele>
        <time>2017-12-29T09:52:03Z</time>
      </trkpt>
      <trkpt lat="45.93964" lon="4.79664">
        <ele>207</ele>
        <time>2017-12-29T09:52:05Z</time>
      </trkpt>
      <trkpt lat="45.93965" lon="4.79669">
        <ele>207</ele>
        <time>2017-12-29T09:52:06Z</time>
      </trkpt>
      <trkpt lat="45.93966" lon="4.79681">
        <ele>207</ele>
        <time>2017-12-29T09:52:09Z</time>
      </trkpt>
      <trkpt lat="45.93967" lon="4.79686">
        <ele>207</ele>
        <time>2017-12-29T09:52:10Z</time>
      </trkpt>
      <trkpt lat="45.93966" lon="4.79695">
        <ele>207</ele>
        <time>2017-12-29T09:52:12Z</time>
      </trkpt>
      <trkpt lat="45.93967" lon="4.797">
        <ele>207</ele>
        <time>2017-12-29T09:52:13Z</time>
      </trkpt>
      <trkpt lat="45.93967" lon="4.79711">
        <ele>207</ele>
        <time>2017-12-29T09:52:15Z</time>
      </trkpt>
      <trkpt lat="45.93968" lon="4.79716">
        <ele>207</ele>
        <time>2017-12-29T09:52:16Z</time>
      </trkpt>
      <trkpt lat="45.93968" lon="4.79727">
        <ele>206</ele>
        <time>2017-12-29T09:52:18Z</time>
      </trkpt>
      <trkpt lat="45.93968" lon="4.79732">
        <ele>206</ele>
        <time>2017-12-29T09:52:19Z</time>
      </trkpt>
      <trkpt lat="45.93969" lon="4.79742">
        <ele>206</ele>
        <time>2017-12-29T09:52:21Z</time>
      </trkpt>
      <trkpt lat="45.93969" lon="4.79747">
        <ele>206</ele>
        <time>2017-12-29T09:52:22Z</time>
      </trkpt>
      <trkpt lat="45.9397" lon="4.79758">
        <ele>206</ele>
        <time>2017-12-29T09:52:24Z</time>
      </trkpt>
      <trkpt lat="45.9397" lon="4.79764">
        <ele>206</ele>
        <time>2017-12-29T09:52:25Z</time>
      </trkpt>
      <trkpt lat="45.93971" lon="4.79776">
        <ele>206</ele>
        <time>2017-12-29T09:52:27Z</time>
      </trkpt>
      <trkpt lat="45.9397" lon="4.79783">
        <ele>206</ele>
        <time>2017-12-29T09:52:28Z</time>
      </trkpt>
      <trkpt lat="45.93969" lon="4.79794">
        <ele>206</ele>
        <time>2017-12-29T09:52:30Z</time>
      </trkpt>
      <trkpt lat="45.93969" lon="4.79799">
        <ele>206</ele>
        <time>2017-12-29T09:52:31Z</time>
      </trkpt>
      <trkpt lat="45.93967" lon="4.79809">
        <ele>206</ele>
        <time>2017-12-29T09:52:33Z</time>
      </trkpt>
      <trkpt lat="45.93966" lon="4.79815">
        <ele>206</ele>
        <time>2017-12-29T09:52:34Z</time>
      </trkpt>
      <trkpt lat="45.93965" lon="4.79827">
        <ele>206</ele>
        <time>2017-12-29T09:52:36Z</time>
      </trkpt>
      <trkpt lat="45.93964" lon="4.79833">
        <ele>206</ele>
        <time>2017-12-29T09:52:37Z</time>
      </trkpt>
      <trkpt lat="45.93962" lon="4.79845">
        <ele>206</ele>
        <time>2017-12-29T09:52:39Z</time>
      </trkpt>
      <trkpt lat="45.93961" lon="4.79851">
        <ele>206</ele>
        <time>2017-12-29T09:52:40Z</time>
      </trkpt>
      <trkpt lat="45.93959" lon="4.79862">
        <ele>206</ele>
        <time>2017-12-29T09:52:42Z</time>
      </trkpt>
      <trkpt lat="45.93958" lon="4.79867">
        <ele>206</ele>
        <time>2017-12-29T09:52:43Z</time>
      </trkpt>
      <trkpt lat="45.93955" lon="4.79878">
        <ele>206</ele>
        <time>2017-12-29T09:52:45Z</time>
      </trkpt>
      <trkpt lat="45.93954" lon="4.79884">
        <ele>206</ele>
        <time>2017-12-29T09:52:46Z</time>
      </trkpt>
      <trkpt lat="45.93952" lon="4.7989">
        <ele>205</ele>
        <time>2017-12-29T09:52:47Z</time>
      </trkpt>
      <trkpt lat="45.93951" lon="4.79897">
        <ele>205</ele>
        <time>2017-12-29T09:52:48Z</time>
      </trkpt>
      <trkpt lat="45.93949" lon="4.79908">
        <ele>205</ele>
        <time>2017-12-29T09:52:50Z</time>
      </trkpt>
      <trkpt lat="45.93948" lon="4.79914">
        <ele>205</ele>
        <time>2017-12-29T09:52:51Z</time>
      </trkpt>
      <trkpt lat="45.93947" lon="4.79924">
        <ele>205</ele>
        <time>2017-12-29T09:52:53Z</time>
      </trkpt>
      <trkpt lat="45.93947" lon="4.79929">
        <ele>205</ele>
        <time>2017-12-29T09:52:54Z</time>
      </trkpt>
      <trkpt lat="45.93945" lon="4.79941">
        <ele>205</ele>
        <time>2017-12-29T09:52:56Z</time>
      </trkpt>
      <trkpt lat="45.93944" lon="4.79947">
        <ele>205</ele>
        <time>2017-12-29T09:52:57Z</time>
      </trkpt>
      <trkpt lat="45.93943" lon="4.79953">
        <ele>205</ele>
        <time>2017-12-29T09:52:58Z</time>
      </trkpt>
      <trkpt lat="45.93943" lon="4.7996">
        <ele>205</ele>
        <time>2017-12-29T09:52:59Z</time>
      </trkpt>
      <trkpt lat="45.93941" lon="4.79972">
        <ele>205</ele>
        <time>2017-12-29T09:53:01Z</time>
      </trkpt>
      <trkpt lat="45.93941" lon="4.79977">
        <ele>204</ele>
        <time>2017-12-29T09:53:02Z</time>
      </trkpt>
      <trkpt lat="45.93939" lon="4.79987">
        <ele>204</ele>
        <time>2017-12-29T09:53:04Z</time>
      </trkpt>
      <trkpt lat="45.93939" lon="4.79993">
        <ele>204</ele>
        <time>2017-12-29T09:53:05Z</time>
      </trkpt>
      <trkpt lat="45.93938" lon="4.80004">
        <ele>205</ele>
        <time>2017-12-29T09:53:07Z</time>
      </trkpt>
      <trkpt lat="45.93938" lon="4.8001">
        <ele>205</ele>
        <time>2017-12-29T09:53:08Z</time>
      </trkpt>
      <trkpt lat="45.93936" lon="4.80022">
        <ele>206</ele>
        <time>2017-12-29T09:53:10Z</time>
      </trkpt>
      <trkpt lat="45.93936" lon="4.80028">
        <ele>206</ele>
        <time>2017-12-29T09:53:11Z</time>
      </trkpt>
      <trkpt lat="45.93935" lon="4.8004">
        <ele>207</ele>
        <time>2017-12-29T09:53:13Z</time>
      </trkpt>
      <trkpt lat="45.93934" lon="4.80046">
        <ele>207</ele>
        <time>2017-12-29T09:53:14Z</time>
      </trkpt>
      <trkpt lat="45.93935" lon="4.80058">
        <ele>207</ele>
        <time>2017-12-29T09:53:16Z</time>
      </trkpt>
      <trkpt lat="45.93935" lon="4.80064">
        <ele>207</ele>
        <time>2017-12-29T09:53:17Z</time>
      </trkpt>
      <trkpt lat="45.93935" lon="4.80076">
        <ele>207</ele>
        <time>2017-12-29T09:53:19Z</time>
      </trkpt>
      <trkpt lat="45.93936" lon="4.80083">
        <ele>207</ele>
        <time>2017-12-29T09:53:20Z</time>
      </trkpt>
      <trkpt lat="45.93936" lon="4.8009">
        <ele>208</ele>
        <time>2017-12-29T09:53:21Z</time>
      </trkpt>
      <trkpt lat="45.93937" lon="4.80097">
        <ele>208</ele>
        <time>2017-12-29T09:53:22Z</time>
      </trkpt>
      <trkpt lat="45.93937" lon="4.80105">
        <ele>208</ele>
        <time>2017-12-29T09:53:23Z</time>
      </trkpt>
      <trkpt lat="45.93939" lon="4.80111">
        <ele>208</ele>
        <time>2017-12-29T09:53:24Z</time>
      </trkpt>
      <trkpt lat="45.93939" lon="4.80118">
        <ele>208</ele>
        <time>2017-12-29T09:53:25Z</time>
      </trkpt>
      <trkpt lat="45.93939" lon="4.80125">
        <ele>208</ele>
        <time>2017-12-29T09:53:26Z</time>
      </trkpt>
      <trkpt lat="45.93941" lon="4.80136">
        <ele>208</ele>
        <time>2017-12-29T09:53:28Z</time>
      </trkpt>
      <trkpt lat="45.93941" lon="4.80142">
        <ele>208</ele>
        <time>2017-12-29T09:53:29Z</time>
      </trkpt>
      <trkpt lat="45.93942" lon="4.80153">
        <ele>208</ele>
        <time>2017-12-29T09:53:31Z</time>
      </trkpt>
      <trkpt lat="45.93943" lon="4.80158">
        <ele>208</ele>
        <time>2017-12-29T09:53:32Z</time>
      </trkpt>
      <trkpt lat="45.93946" lon="4.8017">
        <ele>206</ele>
        <time>2017-12-29T09:53:34Z</time>
      </trkpt>
      <trkpt lat="45.93947" lon="4.80176">
        <ele>206</ele>
        <time>2017-12-29T09:53:35Z</time>
      </trkpt>
      <trkpt lat="45.93949" lon="4.80181">
        <ele>206</ele>
        <time>2017-12-29T09:53:36Z</time>
      </trkpt>
      <trkpt lat="45.9395" lon="4.80188">
        <ele>206</ele>
        <time>2017-12-29T09:53:37Z</time>
      </trkpt>
      <trkpt lat="45.93952" lon="4.802">
        <ele>205</ele>
        <time>2017-12-29T09:53:39Z</time>
      </trkpt>
      <trkpt lat="45.93953" lon="4.80207">
        <ele>205</ele>
        <time>2017-12-29T09:53:40Z</time>
      </trkpt>
      <trkpt lat="45.93956" lon="4.80217">
        <ele>205</ele>
        <time>2017-12-29T09:53:42Z</time>
      </trkpt>
      <trkpt lat="45.93958" lon="4.80223">
        <ele>205</ele>
        <time>2017-12-29T09:53:43Z</time>
      </trkpt>
      <trkpt lat="45.9396" lon="4.80233">
        <ele>204</ele>
        <time>2017-12-29T09:53:45Z</time>
      </trkpt>
      <trkpt lat="45.93961" lon="4.80239">
        <ele>204</ele>
        <time>2017-12-29T09:53:46Z</time>
      </trkpt>
      <trkpt lat="45.93964" lon="4.80249">
        <ele>204</ele>
        <time>2017-12-29T09:53:48Z</time>
      </trkpt>
      <trkpt lat="45.93966" lon="4.80255">
        <ele>202</ele>
        <time>2017-12-29T09:53:49Z</time>
      </trkpt>
      <trkpt lat="45.93969" lon="4.80266">
        <ele>202</ele>
        <time>2017-12-29T09:53:51Z</time>
      </trkpt>
      <trkpt lat="45.93971" lon="4.80271">
        <ele>202</ele>
        <time>2017-12-29T09:53:52Z</time>
      </trkpt>
      <trkpt lat="45.93975" lon="4.80281">
        <ele>203</ele>
        <time>2017-12-29T09:53:54Z</time>
      </trkpt>
      <trkpt lat="45.93976" lon="4.80286">
        <ele>203</ele>
        <time>2017-12-29T09:53:55Z</time>
      </trkpt>
      <trkpt lat="45.9398" lon="4.80296">
        <ele>203</ele>
        <time>2017-12-29T09:53:57Z</time>
      </trkpt>
      <trkpt lat="45.93982" lon="4.803">
        <ele>203</ele>
        <time>2017-12-29T09:53:58Z</time>
      </trkpt>
      <trkpt lat="45.93984" lon="4.80308">
        <ele>203</ele>
        <time>2017-12-29T09:54:00Z</time>
      </trkpt>
      <trkpt lat="45.93986" lon="4.80312">
        <ele>203</ele>
        <time>2017-12-29T09:54:01Z</time>
      </trkpt>
      <trkpt lat="45.93989" lon="4.80323">
        <ele>204</ele>
        <time>2017-12-29T09:54:04Z</time>
      </trkpt>
      <trkpt lat="45.9399" lon="4.80327">
        <ele>204</ele>
        <time>2017-12-29T09:54:05Z</time>
      </trkpt>
      <trkpt lat="45.93993" lon="4.80338">
        <ele>206</ele>
        <time>2017-12-29T09:54:08Z</time>
      </trkpt>
      <trkpt lat="45.93994" lon="4.80341">
        <ele>206</ele>
        <time>2017-12-29T09:54:09Z</time>
      </trkpt>
      <trkpt lat="45.93997" lon="4.80353">
        <ele>206</ele>
        <time>2017-12-29T09:54:12Z</time>
      </trkpt>
      <trkpt lat="45.93997" lon="4.80357">
        <ele>207</ele>
        <time>2017-12-29T09:54:13Z</time>
      </trkpt>
      <trkpt lat="45.94" lon="4.80368">
        <ele>207</ele>
        <time>2017-12-29T09:54:16Z</time>
      </trkpt>
      <trkpt lat="45.94001" lon="4.80372">
        <ele>216</ele>
        <time>2017-12-29T09:54:17Z</time>
      </trkpt>
      <trkpt lat="45.94004" lon="4.80382">
        <ele>216</ele>
        <time>2017-12-29T09:54:20Z</time>
      </trkpt>
      <trkpt lat="45.94005" lon="4.80385">
        <ele>217</ele>
        <time>2017-12-29T09:54:21Z</time>
      </trkpt>
      <trkpt lat="45.94008" lon="4.80395">
        <ele>217</ele>
        <time>2017-12-29T09:54:24Z</time>
      </trkpt>
      <trkpt lat="45.94009" lon="4.80399">
        <ele>217</ele>
        <time>2017-12-29T09:54:25Z</time>
      </trkpt>
      <trkpt lat="45.94012" lon="4.8041">
        <ele>217</ele>
        <time>2017-12-29T09:54:28Z</time>
      </trkpt>
      <trkpt lat="45.94013" lon="4.80413">
        <ele>217</ele>
        <time>2017-12-29T09:54:29Z</time>
      </trkpt>
      <trkpt lat="45.94016" lon="4.80423">
        <ele>221</ele>
        <time>2017-12-29T09:54:32Z</time>
      </trkpt>
      <trkpt lat="45.94017" lon="4.80427">
        <ele>221</ele>
        <time>2017-12-29T09:54:33Z</time>
      </trkpt>
      <trkpt lat="45.94019" lon="4.80438">
        <ele>222</ele>
        <time>2017-12-29T09:54:36Z</time>
      </trkpt>
      <trkpt lat="45.94019" lon="4.80441">
        <ele>223</ele>
        <time>2017-12-29T09:54:37Z</time>
      </trkpt>
      <trkpt lat="45.9402" lon="4.80452">
        <ele>223</ele>
        <time>2017-12-29T09:54:40Z</time>
      </trkpt>
      <trkpt lat="45.9402" lon="4.80456">
        <ele>223</ele>
        <time>2017-12-29T09:54:41Z</time>
      </trkpt>
      <trkpt lat="45.9402" lon="4.80465">
        <ele>223</ele>
        <time>2017-12-29T09:54:43Z</time>
      </trkpt>
      <trkpt lat="45.9402" lon="4.80469">
        <ele>223</ele>
        <time>2017-12-29T09:54:44Z</time>
      </trkpt>
      <trkpt lat="45.9402" lon="4.80482">
        <ele>223</ele>
        <time>2017-12-29T09:54:47Z</time>
      </trkpt>
      <trkpt lat="45.9402" lon="4.80486">
        <ele>223</ele>
        <time>2017-12-29T09:54:48Z</time>
      </trkpt>
      <trkpt lat="45.9402" lon="4.80497">
        <ele>222</ele>
        <time>2017-12-29T09:54:52Z</time>
      </trkpt>
      <trkpt lat="45.94019" lon="4.80499">
        <ele>222</ele>
        <time>2017-12-29T09:54:53Z</time>
      </trkpt>
      <trkpt lat="45.94019" lon="4.8051">
        <ele>223</ele>
        <time>2017-12-29T09:54:57Z</time>
      </trkpt>
      <trkpt lat="45.94019" lon="4.80513">
        <ele>224</ele>
        <time>2017-12-29T09:54:58Z</time>
      </trkpt>
      <trkpt lat="45.94019" lon="4.80525">
        <ele>224</ele>
        <time>2017-12-29T09:55:01Z</time>
      </trkpt>
      <trkpt lat="45.94019" lon="4.80528">
        <ele>224</ele>
        <time>2017-12-29T09:55:02Z</time>
      </trkpt>
      <trkpt lat="45.94019" lon="4.80538">
        <ele>225</ele>
        <time>2017-12-29T09:55:05Z</time>
      </trkpt>
      <trkpt lat="45.9402" lon="4.80542">
        <ele>225</ele>
        <time>2017-12-29T09:55:06Z</time>
      </trkpt>
      <trkpt lat="45.9402" lon="4.80553">
        <ele>224</ele>
        <time>2017-12-29T09:55:09Z</time>
      </trkpt>
      <trkpt lat="45.9402" lon="4.80557">
        <ele>224</ele>
        <time>2017-12-29T09:55:10Z</time>
      </trkpt>
      <trkpt lat="45.94019" lon="4.80568">
        <ele>224</ele>
        <time>2017-12-29T09:55:13Z</time>
      </trkpt>
      <trkpt lat="45.94019" lon="4.80571">
        <ele>223</ele>
        <time>2017-12-29T09:55:14Z</time>
      </trkpt>
      <trkpt lat="45.94018" lon="4.80581">
        <ele>222</ele>
        <time>2017-12-29T09:55:17Z</time>
      </trkpt>
      <trkpt lat="45.94018" lon="4.80584">
        <ele>222</ele>
        <time>2017-12-29T09:55:18Z</time>
      </trkpt>
      <trkpt lat="45.9402" lon="4.80594">
        <ele>223</ele>
        <time>2017-12-29T09:55:21Z</time>
      </trkpt>
      <trkpt lat="45.9402" lon="4.80597">
        <ele>223</ele>
        <time>2017-12-29T09:55:22Z</time>
      </trkpt>
      <trkpt lat="45.94021" lon="4.80607">
        <ele>224</ele>
        <time>2017-12-29T09:55:25Z</time>
      </trkpt>
      <trkpt lat="45.94022" lon="4.80611">
        <ele>224</ele>
        <time>2017-12-29T09:55:26Z</time>
      </trkpt>
      <trkpt lat="45.94024" lon="4.80621">
        <ele>225</ele>
        <time>2017-12-29T09:55:29Z</time>
      </trkpt>
      <trkpt lat="45.94024" lon="4.80624">
        <ele>225</ele>
        <time>2017-12-29T09:55:30Z</time>
      </trkpt>
      <trkpt lat="45.94026" lon="4.80635">
        <ele>225</ele>
        <time>2017-12-29T09:55:33Z</time>
      </trkpt>
      <trkpt lat="45.94026" lon="4.80638">
        <ele>225</ele>
        <time>2017-12-29T09:55:34Z</time>
      </trkpt>
      <trkpt lat="45.94029" lon="4.8065">
        <ele>224</ele>
        <time>2017-12-29T09:55:37Z</time>
      </trkpt>
      <trkpt lat="45.94029" lon="4.80653">
        <ele>224</ele>
        <time>2017-12-29T09:55:38Z</time>
      </trkpt>
      <trkpt lat="45.94032" lon="4.80664">
        <ele>225</ele>
        <time>2017-12-29T09:55:41Z</time>
      </trkpt>
      <trkpt lat="45.94032" lon="4.80667">
        <ele>225</ele>
        <time>2017-12-29T09:55:42Z</time>
      </trkpt>
      <trkpt lat="45.94034" lon="4.80677">
        <ele>225</ele>
        <time>2017-12-29T09:55:45Z</time>
      </trkpt>
      <trkpt lat="45.94034" lon="4.80681">
        <ele>225</ele>
        <time>2017-12-29T09:55:46Z</time>
      </trkpt>
      <trkpt lat="45.94035" lon="4.80691">
        <ele>226</ele>
        <time>2017-12-29T09:55:49Z</time>
      </trkpt>
      <trkpt lat="45.94035" lon="4.80695">
        <ele>226</ele>
        <time>2017-12-29T09:55:50Z</time>
      </trkpt>
      <trkpt lat="45.94037" lon="4.80705">
        <ele>226</ele>
        <time>2017-12-29T09:55:53Z</time>
      </trkpt>
      <trkpt lat="45.94037" lon="4.80708">
        <ele>226</ele>
        <time>2017-12-29T09:55:54Z</time>
      </trkpt>
      <trkpt lat="45.94038" lon="4.80718">
        <ele>226</ele>
        <time>2017-12-29T09:55:57Z</time>
      </trkpt>
      <trkpt lat="45.94039" lon="4.80721">
        <ele>227</ele>
        <time>2017-12-29T09:55:58Z</time>
      </trkpt>
      <trkpt lat="45.9404" lon="4.80732">
        <ele>227</ele>
        <time>2017-12-29T09:56:01Z</time>
      </trkpt>
      <trkpt lat="45.9404" lon="4.80736">
        <ele>227</ele>
        <time>2017-12-29T09:56:02Z</time>
      </trkpt>
      <trkpt lat="45.94041" lon="4.80748">
        <ele>227</ele>
        <time>2017-12-29T09:56:06Z</time>
      </trkpt>
      <trkpt lat="45.94042" lon="4.80751">
        <ele>228</ele>
        <time>2017-12-29T09:56:07Z</time>
      </trkpt>
      <trkpt lat="45.94044" lon="4.80761">
        <ele>228</ele>
        <time>2017-12-29T09:56:10Z</time>
      </trkpt>
      <trkpt lat="45.94044" lon="4.80764">
        <ele>228</ele>
        <time>2017-12-29T09:56:11Z</time>
      </trkpt>
      <trkpt lat="45.94046" lon="4.80776">
        <ele>228</ele>
        <time>2017-12-29T09:56:15Z</time>
      </trkpt>
      <trkpt lat="45.94046" lon="4.8078">
        <ele>229</ele>
        <time>2017-12-29T09:56:16Z</time>
      </trkpt>
      <trkpt lat="45.94047" lon="4.80791">
        <ele>229</ele>
        <time>2017-12-29T09:56:19Z</time>
      </trkpt>
      <trkpt lat="45.94047" lon="4.80794">
        <ele>229</ele>
        <time>2017-12-29T09:56:20Z</time>
      </trkpt>
      <trkpt lat="45.94048" lon="4.80804">
        <ele>229</ele>
        <time>2017-12-29T09:56:23Z</time>
      </trkpt>
      <trkpt lat="45.94049" lon="4.80807">
        <ele>229</ele>
        <time>2017-12-29T09:56:24Z</time>
      </trkpt>
      <trkpt lat="45.9405" lon="4.80818">
        <ele>230</ele>
        <time>2017-12-29T09:56:27Z</time>
      </trkpt>
      <trkpt lat="45.9405" lon="4.80821">
        <ele>230</ele>
        <time>2017-12-29T09:56:28Z</time>
      </trkpt>
      <trkpt lat="45.94051" lon="4.80831">
        <ele>230</ele>
        <time>2017-12-29T09:56:31Z</time>
      </trkpt>
      <trkpt lat="45.94052" lon="4.80835">
        <ele>231</ele>
        <time>2017-12-29T09:56:32Z</time>
      </trkpt>
      <trkpt lat="45.94053" lon="4.80845">
        <ele>231</ele>
        <time>2017-12-29T09:56:35Z</time>
      </trkpt>
      <trkpt lat="45.94054" lon="4.80848">
        <ele>231</ele>
        <time>2017-12-29T09:56:36Z</time>
      </trkpt>
      <trkpt lat="45.94057" lon="4.8086">
        <ele>231</ele>
        <time>2017-12-29T09:56:40Z</time>
      </trkpt>
      <trkpt lat="45.94058" lon="4.80863">
        <ele>231</ele>
        <time>2017-12-29T09:56:41Z</time>
      </trkpt>
      <trkpt lat="45.94059" lon="4.80874">
        <ele>231</ele>
        <time>2017-12-29T09:56:45Z</time>
      </trkpt>
      <trkpt lat="45.94059" lon="4.80877">
        <ele>231</ele>
        <time>2017-12-29T09:56:46Z</time>
      </trkpt>
      <trkpt lat="45.94062" lon="4.80888">
        <ele>231</ele>
        <time>2017-12-29T09:56:50Z</time>
      </trkpt>
      <trkpt lat="45.94062" lon="4.80892">
        <ele>231</ele>
        <time>2017-12-29T09:56:51Z</time>
      </trkpt>
      <trkpt lat="45.94063" lon="4.80902">
        <ele>232</ele>
        <time>2017-12-29T09:56:54Z</time>
      </trkpt>
      <trkpt lat="45.94064" lon="4.80905">
        <ele>232</ele>
        <time>2017-12-29T09:56:55Z</time>
      </trkpt>
      <trkpt lat="45.94065" lon="4.80916">
        <ele>233</ele>
        <time>2017-12-29T09:56:58Z</time>
      </trkpt>
      <trkpt lat="45.94065" lon="4.80919">
        <ele>234</ele>
        <time>2017-12-29T09:56:59Z</time>
      </trkpt>
      <trkpt lat="45.94066" lon="4.80929">
        <ele>233</ele>
        <time>2017-12-29T09:57:02Z</time>
      </trkpt>
      <trkpt lat="45.94067" lon="4.80932">
        <ele>233</ele>
        <time>2017-12-29T09:57:03Z</time>
      </trkpt>
      <trkpt lat="45.94067" lon="4.80944">
        <ele>233</ele>
        <time>2017-12-29T09:57:07Z</time>
      </trkpt>
      <trkpt lat="45.94067" lon="4.80947">
        <ele>232</ele>
        <time>2017-12-29T09:57:08Z</time>
      </trkpt>
      <trkpt lat="45.94069" lon="4.80957">
        <ele>232</ele>
        <time>2017-12-29T09:57:11Z</time>
      </trkpt>
      <trkpt lat="45.94069" lon="4.8096">
        <ele>232</ele>
        <time>2017-12-29T09:57:12Z</time>
      </trkpt>
      <trkpt lat="45.9407" lon="4.8097">
        <ele>233</ele>
        <time>2017-12-29T09:57:15Z</time>
      </trkpt>
      <trkpt lat="45.9407" lon="4.80973">
        <ele>233</ele>
        <time>2017-12-29T09:57:16Z</time>
      </trkpt>
      <trkpt lat="45.94072" lon="4.80983">
        <ele>234</ele>
        <time>2017-12-29T09:57:19Z</time>
      </trkpt>
      <trkpt lat="45.94072" lon="4.80986">
        <ele>235</ele>
        <time>2017-12-29T09:57:20Z</time>
      </trkpt>
      <trkpt lat="45.94073" lon="4.80996">
        <ele>236</ele>
        <time>2017-12-29T09:57:23Z</time>
      </trkpt>
      <trkpt lat="45.94074" lon="4.80999">
        <ele>237</ele>
        <time>2017-12-29T09:57:24Z</time>
      </trkpt>
      <trkpt lat="45.94075" lon="4.81009">
        <ele>236</ele>
        <time>2017-12-29T09:57:27Z</time>
      </trkpt>
      <trkpt lat="45.94075" lon="4.81012">
        <ele>236</ele>
        <time>2017-12-29T09:57:28Z</time>
      </trkpt>
      <trkpt lat="45.94078" lon="4.81022">
        <ele>235</ele>
        <time>2017-12-29T09:57:31Z</time>
      </trkpt>
      <trkpt lat="45.94079" lon="4.81024">
        <ele>234</ele>
        <time>2017-12-29T09:57:32Z</time>
      </trkpt>
      <trkpt lat="45.94082" lon="4.81035">
        <ele>234</ele>
        <time>2017-12-29T09:57:36Z</time>
      </trkpt>
      <trkpt lat="45.94083" lon="4.81038">
        <ele>234</ele>
        <time>2017-12-29T09:57:37Z</time>
      </trkpt>
      <trkpt lat="45.94087" lon="4.81049">
        <ele>243</ele>
        <time>2017-12-29T09:57:41Z</time>
      </trkpt>
      <trkpt lat="45.94088" lon="4.81051">
        <ele>243</ele>
        <time>2017-12-29T09:57:42Z</time>
      </trkpt>
      <trkpt lat="45.94092" lon="4.81062">
        <ele>242</ele>
        <time>2017-12-29T09:57:46Z</time>
      </trkpt>
      <trkpt lat="45.94093" lon="4.81065">
        <ele>242</ele>
        <time>2017-12-29T09:57:47Z</time>
      </trkpt>
      <trkpt lat="45.94096" lon="4.81074">
        <ele>242</ele>
        <time>2017-12-29T09:57:50Z</time>
      </trkpt>
      <trkpt lat="45.94098" lon="4.81077">
        <ele>241</ele>
        <time>2017-12-29T09:57:51Z</time>
      </trkpt>
      <trkpt lat="45.94102" lon="4.81086">
        <ele>241</ele>
        <time>2017-12-29T09:57:54Z</time>
      </trkpt>
      <trkpt lat="45.94103" lon="4.81088">
        <ele>241</ele>
        <time>2017-12-29T09:57:55Z</time>
      </trkpt>
      <trkpt lat="45.94109" lon="4.81097">
        <ele>242</ele>
        <time>2017-12-29T09:57:59Z</time>
      </trkpt>
      <trkpt lat="45.9411" lon="4.81099">
        <ele>242</ele>
        <time>2017-12-29T09:58:00Z</time>
      </trkpt>
      <trkpt lat="45.94115" lon="4.81108">
        <ele>243</ele>
        <time>2017-12-29T09:58:03Z</time>
      </trkpt>
      <trkpt lat="45.94117" lon="4.8111">
        <ele>243</ele>
        <time>2017-12-29T09:58:04Z</time>
      </trkpt>
      <trkpt lat="45.94122" lon="4.81119">
        <ele>243</ele>
        <time>2017-12-29T09:58:08Z</time>
      </trkpt>
      <trkpt lat="45.94123" lon="4.81121">
        <ele>243</ele>
        <time>2017-12-29T09:58:09Z</time>
      </trkpt>
      <trkpt lat="45.94127" lon="4.81131">
        <ele>243</ele>
        <time>2017-12-29T09:58:13Z</time>
      </trkpt>
      <trkpt lat="45.94129" lon="4.81133">
        <ele>243</ele>
        <time>2017-12-29T09:58:14Z</time>
      </trkpt>
      <trkpt lat="45.94134" lon="4.81143">
        <ele>244</ele>
        <time>2017-12-29T09:58:18Z</time>
      </trkpt>
      <trkpt lat="45.94135" lon="4.81145">
        <ele>244</ele>
        <time>2017-12-29T09:58:19Z</time>
      </trkpt>
      <trkpt lat="45.94139" lon="4.81157">
        <ele>244</ele>
        <time>2017-12-29T09:58:23Z</time>
      </trkpt>
      <trkpt lat="45.9414" lon="4.81159">
        <ele>244</ele>
        <time>2017-12-29T09:58:24Z</time>
      </trkpt>
      <trkpt lat="45.94143" lon="4.81168">
        <ele>244</ele>
        <time>2017-12-29T09:58:27Z</time>
      </trkpt>
      <trkpt lat="45.94144" lon="4.81171">
        <ele>244</ele>
        <time>2017-12-29T09:58:28Z</time>
      </trkpt>
      <trkpt lat="45.94147" lon="4.81182">
        <ele>244</ele>
        <time>2017-12-29T09:58:32Z</time>
      </trkpt>
      <trkpt lat="45.94148" lon="4.81184">
        <ele>244</ele>
        <time>2017-12-29T09:58:33Z</time>
      </trkpt>
      <trkpt lat="45.94151" lon="4.81194">
        <ele>244</ele>
        <time>2017-12-29T09:58:36Z</time>
      </trkpt>
      <trkpt lat="45.94151" lon="4.81197">
        <ele>244</ele>
        <time>2017-12-29T09:58:37Z</time>
      </trkpt>
      <trkpt lat="45.94154" lon="4.81209">
        <ele>244</ele>
        <time>2017-12-29T09:58:41Z</time>
      </trkpt>
      <trkpt lat="45.94155" lon="4.81211">
        <ele>245</ele>
        <time>2017-12-29T09:58:42Z</time>
      </trkpt>
      <trkpt lat="45.94157" lon="4.81221">
        <ele>245</ele>
        <time>2017-12-29T09:58:46Z</time>
      </trkpt>
      <trkpt lat="45.94158" lon="4.81224">
        <ele>245</ele>
        <time>2017-12-29T09:58:47Z</time>
      </trkpt>
      <trkpt lat="45.9416" lon="4.81236">
        <ele>247</ele>
        <time>2017-12-29T09:58:52Z</time>
      </trkpt>
      <trkpt lat="45.94161" lon="4.81239">
        <ele>247</ele>
        <time>2017-12-29T09:58:53Z</time>
      </trkpt>
      <trkpt lat="45.94162" lon="4.81249">
        <ele>249</ele>
        <time>2017-12-29T09:58:56Z</time>
      </trkpt>
      <trkpt lat="45.94163" lon="4.81252">
        <ele>249</ele>
        <time>2017-12-29T09:58:57Z</time>
      </trkpt>
      <trkpt lat="45.94166" lon="4.81262">
        <ele>248</ele>
        <time>2017-12-29T09:59:00Z</time>
      </trkpt>
      <trkpt lat="45.94166" lon="4.81266">
        <ele>248</ele>
        <time>2017-12-29T09:59:01Z</time>
      </trkpt>
      <trkpt lat="45.94167" lon="4.81277">
        <ele>255</ele>
        <time>2017-12-29T09:59:04Z</time>
      </trkpt>
      <trkpt lat="45.94168" lon="4.8128">
        <ele>255</ele>
        <time>2017-12-29T09:59:05Z</time>
      </trkpt>
      <trkpt lat="45.94168" lon="4.8129">
        <ele>255</ele>
        <time>2017-12-29T09:59:08Z</time>
      </trkpt>
      <trkpt lat="45.94169" lon="4.81293">
        <ele>255</ele>
        <time>2017-12-29T09:59:09Z</time>
      </trkpt>
      <trkpt lat="45.94169" lon="4.81305">
        <ele>255</ele>
        <time>2017-12-29T09:59:13Z</time>
      </trkpt>
      <trkpt lat="45.94169" lon="4.81307">
        <ele>255</ele>
        <time>2017-12-29T09:59:14Z</time>
      </trkpt>
      <trkpt lat="45.94168" lon="4.81319">
        <ele>254</ele>
        <time>2017-12-29T09:59:19Z</time>
      </trkpt>
      <trkpt lat="45.94167" lon="4.81322">
        <ele>254</ele>
        <time>2017-12-29T09:59:20Z</time>
      </trkpt>
      <trkpt lat="45.94166" lon="4.81334">
        <ele>252</ele>
        <time>2017-12-29T09:59:24Z</time>
      </trkpt>
      <trkpt lat="45.94165" lon="4.81338">
        <ele>252</ele>
        <time>2017-12-29T09:59:25Z</time>
      </trkpt>
      <trkpt lat="45.94164" lon="4.81348">
        <ele>251</ele>
        <time>2017-12-29T09:59:28Z</time>
      </trkpt>
      <trkpt lat="45.94164" lon="4.81351">
        <ele>251</ele>
        <time>2017-12-29T09:59:29Z</time>
      </trkpt>
      <trkpt lat="45.94164" lon="4.8136">
        <ele>251</ele>
        <time>2017-12-29T09:59:31Z</time>
      </trkpt>
      <trkpt lat="45.94164" lon="4.81364">
        <ele>251</ele>
        <time>2017-12-29T09:59:32Z</time>
      </trkpt>
      <trkpt lat="45.94163" lon="4.81373">
        <ele>251</ele>
        <time>2017-12-29T09:59:34Z</time>
      </trkpt>
      <trkpt lat="45.94163" lon="4.81377">
        <ele>251</ele>
        <time>2017-12-29T09:59:35Z</time>
      </trkpt>
      <trkpt lat="45.94163" lon="4.81386">
        <ele>251</ele>
        <time>2017-12-29T09:59:38Z</time>
      </trkpt>
      <trkpt lat="45.94162" lon="4.81391">
        <ele>252</ele>
        <time>2017-12-29T09:59:39Z</time>
      </trkpt>
      <trkpt lat="45.94162" lon="4.81403">
        <ele>253</ele>
        <time>2017-12-29T09:59:42Z</time>
      </trkpt>
      <trkpt lat="45.94162" lon="4.81406">
        <ele>253</ele>
        <time>2017-12-29T09:59:43Z</time>
      </trkpt>
      <trkpt lat="45.9416" lon="4.81416">
        <ele>254</ele>
        <time>2017-12-29T09:59:46Z</time>
      </trkpt>
      <trkpt lat="45.9416" lon="4.81419">
        <ele>256</ele>
        <time>2017-12-29T09:59:47Z</time>
      </trkpt>
      <trkpt lat="45.94158" lon="4.8143">
        <ele>256</ele>
        <time>2017-12-29T09:59:52Z</time>
      </trkpt>
      <trkpt lat="45.94158" lon="4.81433">
        <ele>256</ele>
        <time>2017-12-29T09:59:53Z</time>
      </trkpt>
      <trkpt lat="45.94154" lon="4.81445">
        <ele>256</ele>
        <time>2017-12-29T09:59:57Z</time>
      </trkpt>
      <trkpt lat="45.94154" lon="4.81448">
        <ele>257</ele>
        <time>2017-12-29T09:59:58Z</time>
      </trkpt>
      <trkpt lat="45.94153" lon="4.81459">
        <ele>257</ele>
        <time>2017-12-29T10:00:01Z</time>
      </trkpt>
      <trkpt lat="45.94152" lon="4.81462">
        <ele>257</ele>
        <time>2017-12-29T10:00:02Z</time>
      </trkpt>
      <trkpt lat="45.9415" lon="4.81473">
        <ele>258</ele>
        <time>2017-12-29T10:00:05Z</time>
      </trkpt>
      <trkpt lat="45.9415" lon="4.81476">
        <ele>258</ele>
        <time>2017-12-29T10:00:06Z</time>
      </trkpt>
      <trkpt lat="45.9415" lon="4.81488">
        <ele>259</ele>
        <time>2017-12-29T10:00:10Z</time>
      </trkpt>
      <trkpt lat="45.94149" lon="4.81493">
        <ele>259</ele>
        <time>2017-12-29T10:00:11Z</time>
      </trkpt>
      <trkpt lat="45.9415" lon="4.81505">
        <ele>263</ele>
        <time>2017-12-29T10:00:14Z</time>
      </trkpt>
      <trkpt lat="45.94149" lon="4.81507">
        <ele>263</ele>
        <time>2017-12-29T10:00:15Z</time>
      </trkpt>
      <trkpt lat="45.94148" lon="4.81516">
        <ele>263</ele>
        <time>2017-12-29T10:00:18Z</time>
      </trkpt>
      <trkpt lat="45.94148" lon="4.81521">
        <ele>263</ele>
        <time>2017-12-29T10:00:19Z</time>
      </trkpt>
      <trkpt lat="45.9415" lon="4.81533">
        <ele>264</ele>
        <time>2017-12-29T10:00:22Z</time>
      </trkpt>
      <trkpt lat="45.9415" lon="4.81536">
        <ele>264</ele>
        <time>2017-12-29T10:00:23Z</time>
      </trkpt>
      <trkpt lat="45.94151" lon="4.81547">
        <ele>264</ele>
        <time>2017-12-29T10:00:27Z</time>
      </trkpt>
      <trkpt lat="45.94151" lon="4.81549">
        <ele>264</ele>
        <time>2017-12-29T10:00:28Z</time>
      </trkpt>
      <trkpt lat="45.94153" lon="4.81561">
        <ele>265</ele>
        <time>2017-12-29T10:00:31Z</time>
      </trkpt>
      <trkpt lat="45.94153" lon="4.81565">
        <ele>265</ele>
        <time>2017-12-29T10:00:32Z</time>
      </trkpt>
      <trkpt lat="45.94154" lon="4.81576">
        <ele>266</ele>
        <time>2017-12-29T10:00:35Z</time>
      </trkpt>
      <trkpt lat="45.94155" lon="4.8158">
        <ele>266</ele>
        <time>2017-12-29T10:00:36Z</time>
      </trkpt>
      <trkpt lat="45.94157" lon="4.81589">
        <ele>267</ele>
        <time>2017-12-29T10:00:38Z</time>
      </trkpt>
      <trkpt lat="45.94157" lon="4.81593">
        <ele>267</ele>
        <time>2017-12-29T10:00:39Z</time>
      </trkpt>
      <trkpt lat="45.9416" lon="4.81605">
        <ele>267</ele>
        <time>2017-12-29T10:00:42Z</time>
      </trkpt>
      <trkpt lat="45.94161" lon="4.81609">
        <ele>267</ele>
        <time>2017-12-29T10:00:43Z</time>
      </trkpt>
      <trkpt lat="45.94163" lon="4.81617">
        <ele>268</ele>
        <time>2017-12-29T10:00:45Z</time>
      </trkpt>
      <trkpt lat="45.94163" lon="4.81621">
        <ele>268</ele>
        <time>2017-12-29T10:00:46Z</time>
      </trkpt>
      <trkpt lat="45.94165" lon="4.81634">
        <ele>268</ele>
        <time>2017-12-29T10:00:49Z</time>
      </trkpt>
      <trkpt lat="45.94166" lon="4.81638">
        <ele>268</ele>
        <time>2017-12-29T10:00:50Z</time>
      </trkpt>
      <trkpt lat="45.94167" lon="4.8165">
        <ele>268</ele>
        <time>2017-12-29T10:00:53Z</time>
      </trkpt>
      <trkpt lat="45.94167" lon="4.81654">
        <ele>268</ele>
        <time>2017-12-29T10:00:54Z</time>
      </trkpt>
      <trkpt lat="45.94169" lon="4.81666">
        <ele>269</ele>
        <time>2017-12-29T10:00:57Z</time>
      </trkpt>
      <trkpt lat="45.9417" lon="4.8167">
        <ele>269</ele>
        <time>2017-12-29T10:00:58Z</time>
      </trkpt>
      <trkpt lat="45.94173" lon="4.81681">
        <ele>268</ele>
        <time>2017-12-29T10:01:01Z</time>
      </trkpt>
      <trkpt lat="45.94174" lon="4.81686">
        <ele>268</ele>
        <time>2017-12-29T10:01:02Z</time>
      </trkpt>
      <trkpt lat="45.94177" lon="4.81697">
        <ele>267</ele>
        <time>2017-12-29T10:01:05Z</time>
      </trkpt>
      <trkpt lat="45.94178" lon="4.81701">
        <ele>267</ele>
        <time>2017-12-29T10:01:06Z</time>
      </trkpt>
      <trkpt lat="45.94181" lon="4.81712">
        <ele>267</ele>
        <time>2017-12-29T10:01:09Z</time>
      </trkpt>
      <trkpt lat="45.94181" lon="4.81717">
        <ele>267</ele>
        <time>2017-12-29T10:01:10Z</time>
      </trkpt>
      <trkpt lat="45.94181" lon="4.81727">
        <ele>267</ele>
        <time>2017-12-29T10:01:12Z</time>
      </trkpt>
      <trkpt lat="45.94181" lon="4.81731">
        <ele>267</ele>
        <time>2017-12-29T10:01:13Z</time>
      </trkpt>
      <trkpt lat="45.94183" lon="4.8174">
        <ele>267</ele>
        <time>2017-12-29T10:01:15Z</time>
      </trkpt>
      <trkpt lat="45.94184" lon="4.81744">
        <ele>267</ele>
        <time>2017-12-29T10:01:16Z</time>
      </trkpt>
      <trkpt lat="45.94187" lon="4.81751">
        <ele>266</ele>
        <time>2017-12-29T10:01:18Z</time>
      </trkpt>
      <trkpt lat="45.94189" lon="4.81754">
        <ele>266</ele>
        <time>2017-12-29T10:01:19Z</time>
      </trkpt>
      <trkpt lat="45.94192" lon="4.81761">
        <ele>266</ele>
        <time>2017-12-29T10:01:21Z</time>
      </trkpt>
      <trkpt lat="45.94194" lon="4.81765">
        <ele>266</ele>
        <time>2017-12-29T10:01:22Z</time>
      </trkpt>
      <trkpt lat="45.94196" lon="4.81774">
        <ele>266</ele>
        <time>2017-12-29T10:01:24Z</time>
      </trkpt>
      <trkpt lat="45.94197" lon="4.81779">
        <ele>266</ele>
        <time>2017-12-29T10:01:25Z</time>
      </trkpt>
      <trkpt lat="45.94197" lon="4.81788">
        <ele>266</ele>
        <time>2017-12-29T10:01:27Z</time>
      </trkpt>
      <trkpt lat="45.94196" lon="4.81793">
        <ele>266</ele>
        <time>2017-12-29T10:01:28Z</time>
      </trkpt>
      <trkpt lat="45.94196" lon="4.81802">
        <ele>266</ele>
        <time>2017-12-29T10:01:30Z</time>
      </trkpt>
      <trkpt lat="45.94197" lon="4.81807">
        <ele>266</ele>
        <time>2017-12-29T10:01:31Z</time>
      </trkpt>
      <trkpt lat="45.94198" lon="4.81816">
        <ele>266</ele>
        <time>2017-12-29T10:01:33Z</time>
      </trkpt>
      <trkpt lat="45.94199" lon="4.81821">
        <ele>266</ele>
        <time>2017-12-29T10:01:34Z</time>
      </trkpt>
      <trkpt lat="45.94201" lon="4.81829">
        <ele>266</ele>
        <time>2017-12-29T10:01:36Z</time>
      </trkpt>
      <trkpt lat="45.94202" lon="4.81833">
        <ele>266</ele>
        <time>2017-12-29T10:01:37Z</time>
      </trkpt>
      <trkpt lat="45.94205" lon="4.81843">
        <ele>266</ele>
        <time>2017-12-29T10:01:40Z</time>
      </trkpt>
      <trkpt lat="45.94205" lon="4.81847">
        <ele>266</ele>
        <time>2017-12-29T10:01:41Z</time>
      </trkpt>
      <trkpt lat="45.94207" lon="4.81857">
        <ele>265</ele>
        <time>2017-12-29T10:01:43Z</time>
      </trkpt>
      <trkpt lat="45.94208" lon="4.81862">
        <ele>265</ele>
        <time>2017-12-29T10:01:44Z</time>
      </trkpt>
      <trkpt lat="45.9421" lon="4.81871">
        <ele>265</ele>
        <time>2017-12-29T10:01:46Z</time>
      </trkpt>
      <trkpt lat="45.94211" lon="4.81875">
        <ele>265</ele>
        <time>2017-12-29T10:01:47Z</time>
      </trkpt>
      <trkpt lat="45.94213" lon="4.81886">
        <ele>265</ele>
        <time>2017-12-29T10:01:49Z</time>
      </trkpt>
      <trkpt lat="45.94214" lon="4.81892">
        <ele>265</ele>
        <time>2017-12-29T10:01:50Z</time>
      </trkpt>
      <trkpt lat="45.94216" lon="4.81902">
        <ele>265</ele>
        <time>2017-12-29T10:01:52Z</time>
      </trkpt>
      <trkpt lat="45.94217" lon="4.81907">
        <ele>265</ele>
        <time>2017-12-29T10:01:53Z</time>
      </trkpt>
      <trkpt lat="45.9422" lon="4.81918">
        <ele>264</ele>
        <time>2017-12-29T10:01:55Z</time>
      </trkpt>
      <trkpt lat="45.94221" lon="4.81924">
        <ele>264</ele>
        <time>2017-12-29T10:01:56Z</time>
      </trkpt>
      <trkpt lat="45.94223" lon="4.81935">
        <ele>264</ele>
        <time>2017-12-29T10:01:58Z</time>
      </trkpt>
      <trkpt lat="45.94225" lon="4.81941">
        <ele>264</ele>
        <time>2017-12-29T10:01:59Z</time>
      </trkpt>
      <trkpt lat="45.94227" lon="4.81952">
        <ele>264</ele>
        <time>2017-12-29T10:02:01Z</time>
      </trkpt>
      <trkpt lat="45.94228" lon="4.81957">
        <ele>264</ele>
        <time>2017-12-29T10:02:02Z</time>
      </trkpt>
      <trkpt lat="45.9423" lon="4.81967">
        <ele>264</ele>
        <time>2017-12-29T10:02:04Z</time>
      </trkpt>
      <trkpt lat="45.94231" lon="4.81972">
        <ele>264</ele>
        <time>2017-12-29T10:02:05Z</time>
      </trkpt>
      <trkpt lat="45.94232" lon="4.8198">
        <ele>263</ele>
        <time>2017-12-29T10:02:07Z</time>
      </trkpt>
      <trkpt lat="45.94233" lon="4.81985">
        <ele>263</ele>
        <time>2017-12-29T10:02:08Z</time>
      </trkpt>
      <trkpt lat="45.94235" lon="4.81994">
        <ele>263</ele>
        <time>2017-12-29T10:02:10Z</time>
      </trkpt>
      <trkpt lat="45.94236" lon="4.81999">
        <ele>263</ele>
        <time>2017-12-29T10:02:11Z</time>
      </trkpt>
      <trkpt lat="45.94238" lon="4.8201">
        <ele>263</ele>
        <time>2017-12-29T10:02:13Z</time>
      </trkpt>
      <trkpt lat="45.94238" lon="4.82016">
        <ele>263</ele>
        <time>2017-12-29T10:02:14Z</time>
      </trkpt>
      <trkpt lat="45.94239" lon="4.82028">
        <ele>263</ele>
        <time>2017-12-29T10:02:16Z</time>
      </trkpt>
      <trkpt lat="45.9424" lon="4.82034">
        <ele>263</ele>
        <time>2017-12-29T10:02:17Z</time>
      </trkpt>
      <trkpt lat="45.94242" lon="4.82043">
        <ele>263</ele>
        <time>2017-12-29T10:02:19Z</time>
      </trkpt>
      <trkpt lat="45.94242" lon="4.82047">
        <ele>263</ele>
        <time>2017-12-29T10:02:20Z</time>
      </trkpt>
      <trkpt lat="45.94243" lon="4.82057">
        <ele>263</ele>
        <time>2017-12-29T10:02:22Z</time>
      </trkpt>
      <trkpt lat="45.94244" lon="4.82062">
        <ele>263</ele>
        <time>2017-12-29T10:02:23Z</time>
      </trkpt>
      <trkpt lat="45.94246" lon="4.82074">
        <ele>263</ele>
        <time>2017-12-29T10:02:25Z</time>
      </trkpt>
      <trkpt lat="45.94247" lon="4.82078">
        <ele>262</ele>
        <time>2017-12-29T10:02:26Z</time>
      </trkpt>
      <trkpt lat="45.9425" lon="4.82088">
        <ele>262</ele>
        <time>2017-12-29T10:02:28Z</time>
      </trkpt>
      <trkpt lat="45.94251" lon="4.82094">
        <ele>262</ele>
        <time>2017-12-29T10:02:29Z</time>
      </trkpt>
      <trkpt lat="45.94253" lon="4.82101">
        <ele>262</ele>
        <time>2017-12-29T10:02:30Z</time>
      </trkpt>
      <trkpt lat="45.94254" lon="4.82107">
        <ele>262</ele>
        <time>2017-12-29T10:02:31Z</time>
      </trkpt>
      <trkpt lat="45.94256" lon="4.82114">
        <ele>263</ele>
        <time>2017-12-29T10:02:32Z</time>
      </trkpt>
      <trkpt lat="45.94259" lon="4.82121">
        <ele>263</ele>
        <time>2017-12-29T10:02:33Z</time>
      </trkpt>
      <trkpt lat="45.9426" lon="4.82127">
        <ele>263</ele>
        <time>2017-12-29T10:02:34Z</time>
      </trkpt>
      <trkpt lat="45.94262" lon="4.82135">
        <ele>263</ele>
        <time>2017-12-29T10:02:35Z</time>
      </trkpt>
      <trkpt lat="45.94266" lon="4.82146">
        <ele>263</ele>
        <time>2017-12-29T10:02:37Z</time>
      </trkpt>
      <trkpt lat="45.94267" lon="4.82153">
        <ele>263</ele>
        <time>2017-12-29T10:02:38Z</time>
      </trkpt>
      <trkpt lat="45.9427" lon="4.82164">
        <ele>263</ele>
        <time>2017-12-29T10:02:40Z</time>
      </trkpt>
      <trkpt lat="45.94271" lon="4.8217">
        <ele>264</ele>
        <time>2017-12-29T10:02:41Z</time>
      </trkpt>
      <trkpt lat="45.94272" lon="4.82178">
        <ele>264</ele>
        <time>2017-12-29T10:02:42Z</time>
      </trkpt>
      <trkpt lat="45.94273" lon="4.82185">
        <ele>264</ele>
        <time>2017-12-29T10:02:43Z</time>
      </trkpt>
      <trkpt lat="45.94273" lon="4.82192">
        <ele>264</ele>
        <time>2017-12-29T10:02:44Z</time>
      </trkpt>
      <trkpt lat="45.94274" lon="4.82199">
        <ele>264</ele>
        <time>2017-12-29T10:02:45Z</time>
      </trkpt>
      <trkpt lat="45.94276" lon="4.8221">
        <ele>264</ele>
        <time>2017-12-29T10:02:47Z</time>
      </trkpt>
      <trkpt lat="45.94278" lon="4.82215">
        <ele>264</ele>
        <time>2017-12-29T10:02:48Z</time>
      </trkpt>
      <trkpt lat="45.9428" lon="4.82226">
        <ele>264</ele>
        <time>2017-12-29T10:02:50Z</time>
      </trkpt>
      <trkpt lat="45.9428" lon="4.82232">
        <ele>264</ele>
        <time>2017-12-29T10:02:51Z</time>
      </trkpt>
      <trkpt lat="45.9428" lon="4.82238">
        <ele>264</ele>
        <time>2017-12-29T10:02:52Z</time>
      </trkpt>
      <trkpt lat="45.94281" lon="4.82245">
        <ele>264</ele>
        <time>2017-12-29T10:02:53Z</time>
      </trkpt>
      <trkpt lat="45.94281" lon="4.82257">
        <ele>265</ele>
        <time>2017-12-29T10:02:55Z</time>
      </trkpt>
      <trkpt lat="45.94281" lon="4.82262">
        <ele>265</ele>
        <time>2017-12-29T10:02:56Z</time>
      </trkpt>
      <trkpt lat="45.94281" lon="4.82273">
        <ele>265</ele>
        <time>2017-12-29T10:02:58Z</time>
      </trkpt>
      <trkpt lat="45.94281" lon="4.82278">
        <ele>265</ele>
        <time>2017-12-29T10:02:59Z</time>
      </trkpt>
      <trkpt lat="45.94282" lon="4.82289">
        <ele>265</ele>
        <time>2017-12-29T10:03:01Z</time>
      </trkpt>
      <trkpt lat="45.94282" lon="4.82295">
        <ele>265</ele>
        <time>2017-12-29T10:03:02Z</time>
      </trkpt>
      <trkpt lat="45.94283" lon="4.82306">
        <ele>265</ele>
        <time>2017-12-29T10:03:04Z</time>
      </trkpt>
      <trkpt lat="45.94283" lon="4.82311">
        <ele>265</ele>
        <time>2017-12-29T10:03:05Z</time>
      </trkpt>
      <trkpt lat="45.94284" lon="4.82321">
        <ele>265</ele>
        <time>2017-12-29T10:03:07Z</time>
      </trkpt>
      <trkpt lat="45.94284" lon="4.82326">
        <ele>265</ele>
        <time>2017-12-29T10:03:08Z</time>
      </trkpt>
      <trkpt lat="45.94285" lon="4.82337">
        <ele>264</ele>
        <time>2017-12-29T10:03:10Z</time>
      </trkpt>
      <trkpt lat="45.94286" lon="4.82343">
        <ele>264</ele>
        <time>2017-12-29T10:03:11Z</time>
      </trkpt>
      <trkpt lat="45.94287" lon="4.82355">
        <ele>264</ele>
        <time>2017-12-29T10:03:13Z</time>
      </trkpt>
      <trkpt lat="45.94287" lon="4.8236">
        <ele>264</ele>
        <time>2017-12-29T10:03:14Z</time>
      </trkpt>
      <trkpt lat="45.94288" lon="4.82371">
        <ele>264</ele>
        <time>2017-12-29T10:03:16Z</time>
      </trkpt>
      <trkpt lat="45.94288" lon="4.82376">
        <ele>264</ele>
        <time>2017-12-29T10:03:17Z</time>
      </trkpt>
      <trkpt lat="45.94289" lon="4.82387">
        <ele>264</ele>
        <time>2017-12-29T10:03:19Z</time>
      </trkpt>
      <trkpt lat="45.94289" lon="4.82393">
        <ele>264</ele>
        <time>2017-12-29T10:03:20Z</time>
      </trkpt>
      <trkpt lat="45.9429" lon="4.82405">
        <ele>264</ele>
        <time>2017-12-29T10:03:22Z</time>
      </trkpt>
      <trkpt lat="45.94291" lon="4.8241">
        <ele>264</ele>
        <time>2017-12-29T10:03:23Z</time>
      </trkpt>
      <trkpt lat="45.94291" lon="4.82421">
        <ele>264</ele>
        <time>2017-12-29T10:03:25Z</time>
      </trkpt>
      <trkpt lat="45.94292" lon="4.82426">
        <ele>264</ele>
        <time>2017-12-29T10:03:26Z</time>
      </trkpt>
      <trkpt lat="45.94292" lon="4.82436">
        <ele>264</ele>
        <time>2017-12-29T10:03:28Z</time>
      </trkpt>
      <trkpt lat="45.94292" lon="4.82441">
        <ele>264</ele>
        <time>2017-12-29T10:03:29Z</time>
      </trkpt>
      <trkpt lat="45.94293" lon="4.8245">
        <ele>264</ele>
        <time>2017-12-29T10:03:31Z</time>
      </trkpt>
      <trkpt lat="45.94294" lon="4.82455">
        <ele>264</ele>
        <time>2017-12-29T10:03:32Z</time>
      </trkpt>
      <trkpt lat="45.94294" lon="4.82465">
        <ele>264</ele>
        <time>2017-12-29T10:03:34Z</time>
      </trkpt>
      <trkpt lat="45.94295" lon="4.8247">
        <ele>264</ele>
        <time>2017-12-29T10:03:35Z</time>
      </trkpt>
      <trkpt lat="45.94295" lon="4.8248">
        <ele>264</ele>
        <time>2017-12-29T10:03:37Z</time>
      </trkpt>
      <trkpt lat="45.94295" lon="4.82485">
        <ele>264</ele>
        <time>2017-12-29T10:03:38Z</time>
      </trkpt>
      <trkpt lat="45.94295" lon="4.82495">
        <ele>264</ele>
        <time>2017-12-29T10:03:40Z</time>
      </trkpt>
      <trkpt lat="45.94295" lon="4.825">
        <ele>264</ele>
        <time>2017-12-29T10:03:41Z</time>
      </trkpt>
      <trkpt lat="45.94295" lon="4.82511">
        <ele>264</ele>
        <time>2017-12-29T10:03:43Z</time>
      </trkpt>
      <trkpt lat="45.94295" lon="4.82516">
        <ele>264</ele>
        <time>2017-12-29T10:03:44Z</time>
      </trkpt>
      <trkpt lat="45.94295" lon="4.82525">
        <ele>264</ele>
        <time>2017-12-29T10:03:46Z</time>
      </trkpt>
      <trkpt lat="45.94294" lon="4.82529">
        <ele>264</ele>
        <time>2017-12-29T10:03:47Z</time>
      </trkpt>
      <trkpt lat="45.94295" lon="4.82539">
        <ele>264</ele>
        <time>2017-12-29T10:03:49Z</time>
      </trkpt>
      <trkpt lat="45.94295" lon="4.82544">
        <ele>264</ele>
        <time>2017-12-29T10:03:50Z</time>
      </trkpt>
      <trkpt lat="45.94295" lon="4.82554">
        <ele>264</ele>
        <time>2017-12-29T10:03:52Z</time>
      </trkpt>
      <trkpt lat="45.94295" lon="4.82558">
        <ele>264</ele>
        <time>2017-12-29T10:03:53Z</time>
      </trkpt>
      <trkpt lat="45.94295" lon="4.82568">
        <ele>264</ele>
        <time>2017-12-29T10:03:55Z</time>
      </trkpt>
      <trkpt lat="45.94295" lon="4.82574">
        <ele>264</ele>
        <time>2017-12-29T10:03:56Z</time>
      </trkpt>
      <trkpt lat="45.94296" lon="4.82585">
        <ele>265</ele>
        <time>2017-12-29T10:03:58Z</time>
      </trkpt>
      <trkpt lat="45.94296" lon="4.82591">
        <ele>265</ele>
        <time>2017-12-29T10:03:59Z</time>
      </trkpt>
      <trkpt lat="45.94296" lon="4.82602">
        <ele>265</ele>
        <time>2017-12-29T10:04:01Z</time>
      </trkpt>
      <trkpt lat="45.94296" lon="4.82608">
        <ele>265</ele>
        <time>2017-12-29T10:04:02Z</time>
      </trkpt>
      <trkpt lat="45.94296" lon="4.82619">
        <ele>265</ele>
        <time>2017-12-29T10:04:04Z</time>
      </trkpt>
      <trkpt lat="45.94296" lon="4.82626">
        <ele>265</ele>
        <time>2017-12-29T10:04:05Z</time>
      </trkpt>
      <trkpt lat="45.94295" lon="4.82638">
        <ele>265</ele>
        <time>2017-12-29T10:04:07Z</time>
      </trkpt>
      <trkpt lat="45.94295" lon="4.82644">
        <ele>265</ele>
        <time>2017-12-29T10:04:08Z</time>
      </trkpt>
      <trkpt lat="45.94295" lon="4.82655">
        <ele>265</ele>
        <time>2017-12-29T10:04:10Z</time>
      </trkpt>
      <trkpt lat="45.94295" lon="4.82661">
        <ele>265</ele>
        <time>2017-12-29T10:04:11Z</time>
      </trkpt>
      <trkpt lat="45.94295" lon="4.82671">
        <ele>265</ele>
        <time>2017-12-29T10:04:13Z</time>
      </trkpt>
      <trkpt lat="45.94295" lon="4.82677">
        <ele>265</ele>
        <time>2017-12-29T10:04:14Z</time>
      </trkpt>
      <trkpt lat="45.94295" lon="4.82687">
        <ele>265</ele>
        <time>2017-12-29T10:04:16Z</time>
      </trkpt>
      <trkpt lat="45.94294" lon="4.82693">
        <ele>265</ele>
        <time>2017-12-29T10:04:17Z</time>
      </trkpt>
      <trkpt lat="45.94294" lon="4.82705">
        <ele>265</ele>
        <time>2017-12-29T10:04:19Z</time>
      </trkpt>
      <trkpt lat="45.94294" lon="4.82711">
        <ele>265</ele>
        <time>2017-12-29T10:04:20Z</time>
      </trkpt>
      <trkpt lat="45.94295" lon="4.82719">
        <ele>265</ele>
        <time>2017-12-29T10:04:21Z</time>
      </trkpt>
      <trkpt lat="45.94295" lon="4.82726">
        <ele>265</ele>
        <time>2017-12-29T10:04:22Z</time>
      </trkpt>
      <trkpt lat="45.94295" lon="4.82736">
        <ele>265</ele>
        <time>2017-12-29T10:04:24Z</time>
      </trkpt>
      <trkpt lat="45.94295" lon="4.82741">
        <ele>265</ele>
        <time>2017-12-29T10:04:25Z</time>
      </trkpt>
      <trkpt lat="45.94293" lon="4.8275">
        <ele>265</ele>
        <time>2017-12-29T10:04:27Z</time>
      </trkpt>
      <trkpt lat="45.94293" lon="4.82755">
        <ele>265</ele>
        <time>2017-12-29T10:04:28Z</time>
      </trkpt>
      <trkpt lat="45.94292" lon="4.82765">
        <ele>265</ele>
        <time>2017-12-29T10:04:30Z</time>
      </trkpt>
      <trkpt lat="45.94293" lon="4.8277">
        <ele>265</ele>
        <time>2017-12-29T10:04:31Z</time>
      </trkpt>
      <trkpt lat="45.94293" lon="4.82782">
        <ele>265</ele>
        <time>2017-12-29T10:04:33Z</time>
      </trkpt>
      <trkpt lat="45.94293" lon="4.82788">
        <ele>265</ele>
        <time>2017-12-29T10:04:34Z</time>
      </trkpt>
      <trkpt lat="45.94293" lon="4.82799">
        <ele>265</ele>
        <time>2017-12-29T10:04:36Z</time>
      </trkpt>
      <trkpt lat="45.94293" lon="4.82804">
        <ele>265</ele>
        <time>2017-12-29T10:04:37Z</time>
      </trkpt>
      <trkpt lat="45.94292" lon="4.82813">
        <ele>265</ele>
        <time>2017-12-29T10:04:39Z</time>
      </trkpt>
      <trkpt lat="45.94292" lon="4.82818">
        <ele>265</ele>
        <time>2017-12-29T10:04:40Z</time>
      </trkpt>
      <trkpt lat="45.94292" lon="4.8283">
        <ele>265</ele>
        <time>2017-12-29T10:04:42Z</time>
      </trkpt>
      <trkpt lat="45.94292" lon="4.82836">
        <ele>265</ele>
        <time>2017-12-29T10:04:43Z</time>
      </trkpt>
      <trkpt lat="45.94292" lon="4.82847">
        <ele>265</ele>
        <time>2017-12-29T10:04:45Z</time>
      </trkpt>
      <trkpt lat="45.94292" lon="4.82853">
        <ele>265</ele>
        <time>2017-12-29T10:04:46Z</time>
      </trkpt>
      <trkpt lat="45.94291" lon="4.82863">
        <ele>265</ele>
        <time>2017-12-29T10:04:48Z</time>
      </trkpt>
      <trkpt lat="45.9429" lon="4.82868">
        <ele>265</ele>
        <time>2017-12-29T10:04:49Z</time>
      </trkpt>
      <trkpt lat="45.9429" lon="4.82879">
        <ele>265</ele>
        <time>2017-12-29T10:04:51Z</time>
      </trkpt>
      <trkpt lat="45.94289" lon="4.82885">
        <ele>265</ele>
        <time>2017-12-29T10:04:52Z</time>
      </trkpt>
      <trkpt lat="45.94288" lon="4.82896">
        <ele>265</ele>
        <time>2017-12-29T10:04:54Z</time>
      </trkpt>
      <trkpt lat="45.94288" lon="4.82902">
        <ele>265</ele>
        <time>2017-12-29T10:04:55Z</time>
      </trkpt>
      <trkpt lat="45.94288" lon="4.82913">
        <ele>265</ele>
        <time>2017-12-29T10:04:57Z</time>
      </trkpt>
      <trkpt lat="45.94288" lon="4.82919">
        <ele>265</ele>
        <time>2017-12-29T10:04:58Z</time>
      </trkpt>
      <trkpt lat="45.94287" lon="4.82931">
        <ele>265</ele>
        <time>2017-12-29T10:05:00Z</time>
      </trkpt>
      <trkpt lat="45.94286" lon="4.82937">
        <ele>265</ele>
        <time>2017-12-29T10:05:01Z</time>
      </trkpt>
      <trkpt lat="45.94284" lon="4.82949">
        <ele>265</ele>
        <time>2017-12-29T10:05:03Z</time>
      </trkpt>
      <trkpt lat="45.94284" lon="4.82955">
        <ele>265</ele>
        <time>2017-12-29T10:05:04Z</time>
      </trkpt>
      <trkpt lat="45.94284" lon="4.82965">
        <ele>265</ele>
        <time>2017-12-29T10:05:06Z</time>
      </trkpt>
      <trkpt lat="45.94285" lon="4.82969">
        <ele>265</ele>
        <time>2017-12-29T10:05:07Z</time>
      </trkpt>
      <trkpt lat="45.94288" lon="4.82979">
        <ele>265</ele>
        <time>2017-12-29T10:05:09Z</time>
      </trkpt>
      <trkpt lat="45.94289" lon="4.82983">
        <ele>265</ele>
        <time>2017-12-29T10:05:10Z</time>
      </trkpt>
      <trkpt lat="45.94292" lon="4.82992">
        <ele>265</ele>
        <time>2017-12-29T10:05:12Z</time>
      </trkpt>
      <trkpt lat="45.94293" lon="4.82996">
        <ele>265</ele>
        <time>2017-12-29T10:05:13Z</time>
      </trkpt>
      <trkpt lat="45.94297" lon="4.83005">
        <ele>266</ele>
        <time>2017-12-29T10:05:15Z</time>
      </trkpt>
      <trkpt lat="45.94298" lon="4.8301">
        <ele>266</ele>
        <time>2017-12-29T10:05:16Z</time>
      </trkpt>
      <trkpt lat="45.943" lon="4.83022">
        <ele>266</ele>
        <time>2017-12-29T10:05:18Z</time>
      </trkpt>
      <trkpt lat="45.94301" lon="4.83028">
        <ele>266</ele>
        <time>2017-12-29T10:05:19Z</time>
      </trkpt>
      <trkpt lat="45.94302" lon="4.83034">
        <ele>266</ele>
        <time>2017-12-29T10:05:20Z</time>
      </trkpt>
      <trkpt lat="45.94303" lon="4.8304">
        <ele>266</ele>
        <time>2017-12-29T10:05:21Z</time>
      </trkpt>
      <trkpt lat="45.94306" lon="4.83053">
        <ele>266</ele>
        <time>2017-12-29T10:05:23Z</time>
      </trkpt>
      <trkpt lat="45.94307" lon="4.83058">
        <ele>266</ele>
        <time>2017-12-29T10:05:24Z</time>
      </trkpt>
      <trkpt lat="45.94308" lon="4.83069">
        <ele>266</ele>
        <time>2017-12-29T10:05:26Z</time>
      </trkpt>
      <trkpt lat="45.94309" lon="4.83074">
        <ele>266</ele>
        <time>2017-12-29T10:05:27Z</time>
      </trkpt>
      <trkpt lat="45.94311" lon="4.83084">
        <ele>266</ele>
        <time>2017-12-29T10:05:29Z</time>
      </trkpt>
      <trkpt lat="45.94312" lon="4.83088">
        <ele>266</ele>
        <time>2017-12-29T10:05:30Z</time>
      </trkpt>
      <trkpt lat="45.94314" lon="4.83098">
        <ele>266</ele>
        <time>2017-12-29T10:05:32Z</time>
      </trkpt>
      <trkpt lat="45.94316" lon="4.83103">
        <ele>266</ele>
        <time>2017-12-29T10:05:33Z</time>
      </trkpt>
      <trkpt lat="45.94319" lon="4.83114">
        <ele>266</ele>
        <time>2017-12-29T10:05:35Z</time>
      </trkpt>
      <trkpt lat="45.94321" lon="4.8312">
        <ele>266</ele>
        <time>2017-12-29T10:05:36Z</time>
      </trkpt>
      <trkpt lat="45.94324" lon="4.83126">
        <ele>266</ele>
        <time>2017-12-29T10:05:37Z</time>
      </trkpt>
      <trkpt lat="45.94326" lon="4.83132">
        <ele>266</ele>
        <time>2017-12-29T10:05:38Z</time>
      </trkpt>
      <trkpt lat="45.9433" lon="4.83144">
        <ele>266</ele>
        <time>2017-12-29T10:05:40Z</time>
      </trkpt>
      <trkpt lat="45.94331" lon="4.8315">
        <ele>266</ele>
        <time>2017-12-29T10:05:41Z</time>
      </trkpt>
      <trkpt lat="45.94334" lon="4.8316">
        <ele>266</ele>
        <time>2017-12-29T10:05:43Z</time>
      </trkpt>
      <trkpt lat="45.94336" lon="4.83165">
        <ele>266</ele>
        <time>2017-12-29T10:05:44Z</time>
      </trkpt>
      <trkpt lat="45.94341" lon="4.83173">
        <ele>266</ele>
        <time>2017-12-29T10:05:46Z</time>
      </trkpt>
      <trkpt lat="45.94343" lon="4.83176">
        <ele>266</ele>
        <time>2017-12-29T10:05:47Z</time>
      </trkpt>
      <trkpt lat="45.94345" lon="4.83185">
        <ele>266</ele>
        <time>2017-12-29T10:05:49Z</time>
      </trkpt>
      <trkpt lat="45.94347" lon="4.8319">
        <ele>266</ele>
        <time>2017-12-29T10:05:50Z</time>
      </trkpt>
      <trkpt lat="45.9435" lon="4.83199">
        <ele>266</ele>
        <time>2017-12-29T10:05:52Z</time>
      </trkpt>
      <trkpt lat="45.94352" lon="4.83205">
        <ele>266</ele>
        <time>2017-12-29T10:05:53Z</time>
      </trkpt>
      <trkpt lat="45.94355" lon="4.8321">
        <ele>266</ele>
        <time>2017-12-29T10:05:54Z</time>
      </trkpt>
      <trkpt lat="45.94357" lon="4.83216">
        <ele>266</ele>
        <time>2017-12-29T10:05:55Z</time>
      </trkpt>
      <trkpt lat="45.94361" lon="4.83227">
        <ele>266</ele>
        <time>2017-12-29T10:05:57Z</time>
      </trkpt>
      <trkpt lat="45.94363" lon="4.83233">
        <ele>266</ele>
        <time>2017-12-29T10:05:58Z</time>
      </trkpt>
      <trkpt lat="45.94365" lon="4.83239">
        <ele>265</ele>
        <time>2017-12-29T10:05:59Z</time>
      </trkpt>
      <trkpt lat="45.94367" lon="4.83245">
        <ele>265</ele>
        <time>2017-12-29T10:06:00Z</time>
      </trkpt>
      <trkpt lat="45.94371" lon="4.83256">
        <ele>265</ele>
        <time>2017-12-29T10:06:02Z</time>
      </trkpt>
      <trkpt lat="45.94373" lon="4.83261">
        <ele>264</ele>
        <time>2017-12-29T10:06:03Z</time>
      </trkpt>
      <trkpt lat="45.94377" lon="4.83273">
        <ele>264</ele>
        <time>2017-12-29T10:06:05Z</time>
      </trkpt>
      <trkpt lat="45.94379" lon="4.83279">
        <ele>264</ele>
        <time>2017-12-29T10:06:06Z</time>
      </trkpt>
      <trkpt lat="45.94383" lon="4.83289">
        <ele>264</ele>
        <time>2017-12-29T10:06:08Z</time>
      </trkpt>
      <trkpt lat="45.94385" lon="4.83295">
        <ele>264</ele>
        <time>2017-12-29T10:06:09Z</time>
      </trkpt>
      <trkpt lat="45.94388" lon="4.83305">
        <ele>264</ele>
        <time>2017-12-29T10:06:11Z</time>
      </trkpt>
      <trkpt lat="45.9439" lon="4.83311">
        <ele>264</ele>
        <time>2017-12-29T10:06:12Z</time>
      </trkpt>
      <trkpt lat="45.94393" lon="4.83318">
        <ele>264</ele>
        <time>2017-12-29T10:06:13Z</time>
      </trkpt>
      <trkpt lat="45.94395" lon="4.83323">
        <ele>264</ele>
        <time>2017-12-29T10:06:14Z</time>
      </trkpt>
      <trkpt lat="45.94397" lon="4.8333">
        <ele>264</ele>
        <time>2017-12-29T10:06:15Z</time>
      </trkpt>
      <trkpt lat="45.94401" lon="4.83336">
        <ele>263</ele>
        <time>2017-12-29T10:06:16Z</time>
      </trkpt>
      <trkpt lat="45.94404" lon="4.83342">
        <ele>263</ele>
        <time>2017-12-29T10:06:17Z</time>
      </trkpt>
      <trkpt lat="45.94406" lon="4.83349">
        <ele>263</ele>
        <time>2017-12-29T10:06:18Z</time>
      </trkpt>
      <trkpt lat="45.94408" lon="4.83355">
        <ele>263</ele>
        <time>2017-12-29T10:06:19Z</time>
      </trkpt>
      <trkpt lat="45.94411" lon="4.8336">
        <ele>264</ele>
        <time>2017-12-29T10:06:20Z</time>
      </trkpt>
      <trkpt lat="45.94415" lon="4.8337">
        <ele>264</ele>
        <time>2017-12-29T10:06:22Z</time>
      </trkpt>
      <trkpt lat="45.94417" lon="4.83376">
        <ele>264</ele>
        <time>2017-12-29T10:06:23Z</time>
      </trkpt>
      <trkpt lat="45.94419" lon="4.83382">
        <ele>264</ele>
        <time>2017-12-29T10:06:24Z</time>
      </trkpt>
      <trkpt lat="45.94422" lon="4.83388">
        <ele>264</ele>
        <time>2017-12-29T10:06:25Z</time>
      </trkpt>
      <trkpt lat="45.94424" lon="4.83394">
        <ele>264</ele>
        <time>2017-12-29T10:06:26Z</time>
      </trkpt>
      <trkpt lat="45.94427" lon="4.83399">
        <ele>264</ele>
        <time>2017-12-29T10:06:27Z</time>
      </trkpt>
      <trkpt lat="45.9443" lon="4.83405">
        <ele>264</ele>
        <time>2017-12-29T10:06:28Z</time>
      </trkpt>
      <trkpt lat="45.94432" lon="4.8341">
        <ele>264</ele>
        <time>2017-12-29T10:06:29Z</time>
      </trkpt>
      <trkpt lat="45.94437" lon="4.8342">
        <ele>264</ele>
        <time>2017-12-29T10:06:31Z</time>
      </trkpt>
      <trkpt lat="45.94441" lon="4.83425">
        <ele>264</ele>
        <time>2017-12-29T10:06:32Z</time>
      </trkpt>
      <trkpt lat="45.94446" lon="4.83434">
        <ele>263</ele>
        <time>2017-12-29T10:06:34Z</time>
      </trkpt>
      <trkpt lat="45.94449" lon="4.83438">
        <ele>263</ele>
        <time>2017-12-29T10:06:35Z</time>
      </trkpt>
      <trkpt lat="45.94451" lon="4.83444">
        <ele>263</ele>
        <time>2017-12-29T10:06:36Z</time>
      </trkpt>
      <trkpt lat="45.94454" lon="4.83449">
        <ele>263</ele>
        <time>2017-12-29T10:06:37Z</time>
      </trkpt>
      <trkpt lat="45.94458" lon="4.83454">
        <ele>263</ele>
        <time>2017-12-29T10:06:38Z</time>
      </trkpt>
      <trkpt lat="45.94462" lon="4.83461">
        <ele>263</ele>
        <time>2017-12-29T10:06:39Z</time>
      </trkpt>
      <trkpt lat="45.94465" lon="4.83467">
        <ele>263</ele>
        <time>2017-12-29T10:06:40Z</time>
      </trkpt>
      <trkpt lat="45.94468" lon="4.83473">
        <ele>263</ele>
        <time>2017-12-29T10:06:41Z</time>
      </trkpt>
      <trkpt lat="45.94471" lon="4.83479">
        <ele>263</ele>
        <time>2017-12-29T10:06:42Z</time>
      </trkpt>
      <trkpt lat="45.94474" lon="4.83486">
        <ele>263</ele>
        <time>2017-12-29T10:06:43Z</time>
      </trkpt>
      <trkpt lat="45.94478" lon="4.83491">
        <ele>263</ele>
        <time>2017-12-29T10:06:44Z</time>
      </trkpt>
      <trkpt lat="45.94481" lon="4.83496">
        <ele>263</ele>
        <time>2017-12-29T10:06:45Z</time>
      </trkpt>
      <trkpt lat="45.94485" lon="4.83503">
        <ele>262</ele>
        <time>2017-12-29T10:06:46Z</time>
      </trkpt>
      <trkpt lat="45.94488" lon="4.83509">
        <ele>262</ele>
        <time>2017-12-29T10:06:47Z</time>
      </trkpt>
      <trkpt lat="45.9449" lon="4.83514">
        <ele>262</ele>
        <time>2017-12-29T10:06:48Z</time>
      </trkpt>
      <trkpt lat="45.94494" lon="4.8352">
        <ele>262</ele>
        <time>2017-12-29T10:06:49Z</time>
      </trkpt>
      <trkpt lat="45.94497" lon="4.83525">
        <ele>262</ele>
        <time>2017-12-29T10:06:50Z</time>
      </trkpt>
      <trkpt lat="45.945" lon="4.83529">
        <ele>262</ele>
        <time>2017-12-29T10:06:51Z</time>
      </trkpt>
      <trkpt lat="45.94505" lon="4.8354">
        <ele>262</ele>
        <time>2017-12-29T10:06:53Z</time>
      </trkpt>
      <trkpt lat="45.94508" lon="4.83545">
        <ele>261</ele>
        <time>2017-12-29T10:06:54Z</time>
      </trkpt>
      <trkpt lat="45.94511" lon="4.83551">
        <ele>261</ele>
        <time>2017-12-29T10:06:55Z</time>
      </trkpt>
      <trkpt lat="45.94514" lon="4.83556">
        <ele>261</ele>
        <time>2017-12-29T10:06:56Z</time>
      </trkpt>
      <trkpt lat="45.94517" lon="4.83563">
        <ele>261</ele>
        <time>2017-12-29T10:06:57Z</time>
      </trkpt>
      <trkpt lat="45.9452" lon="4.83568">
        <ele>261</ele>
        <time>2017-12-29T10:06:58Z</time>
      </trkpt>
      <trkpt lat="45.94522" lon="4.83574">
        <ele>261</ele>
        <time>2017-12-29T10:06:59Z</time>
      </trkpt>
      <trkpt lat="45.94525" lon="4.8358">
        <ele>261</ele>
        <time>2017-12-29T10:07:00Z</time>
      </trkpt>
      <trkpt lat="45.94527" lon="4.83587">
        <ele>261</ele>
        <time>2017-12-29T10:07:01Z</time>
      </trkpt>
      <trkpt lat="45.94529" lon="4.83592">
        <ele>261</ele>
        <time>2017-12-29T10:07:02Z</time>
      </trkpt>
      <trkpt lat="45.94531" lon="4.83598">
        <ele>261</ele>
        <time>2017-12-29T10:07:03Z</time>
      </trkpt>
      <trkpt lat="45.94533" lon="4.83604">
        <ele>261</ele>
        <time>2017-12-29T10:07:04Z</time>
      </trkpt>
      <trkpt lat="45.94537" lon="4.83615">
        <ele>261</ele>
        <time>2017-12-29T10:07:06Z</time>
      </trkpt>
      <trkpt lat="45.94538" lon="4.83623">
        <ele>261</ele>
        <time>2017-12-29T10:07:07Z</time>
      </trkpt>
      <trkpt lat="45.94539" lon="4.8363">
        <ele>261</ele>
        <time>2017-12-29T10:07:08Z</time>
      </trkpt>
      <trkpt lat="45.94539" lon="4.83637">
        <ele>261</ele>
        <time>2017-12-29T10:07:09Z</time>
      </trkpt>
      <trkpt lat="45.9454" lon="4.83645">
        <ele>261</ele>
        <time>2017-12-29T10:07:10Z</time>
      </trkpt>
      <trkpt lat="45.9454" lon="4.83653">
        <ele>261</ele>
        <time>2017-12-29T10:07:11Z</time>
      </trkpt>
      <trkpt lat="45.94542" lon="4.83661">
        <ele>261</ele>
        <time>2017-12-29T10:07:12Z</time>
      </trkpt>
      <trkpt lat="45.94543" lon="4.83669">
        <ele>262</ele>
        <time>2017-12-29T10:07:13Z</time>
      </trkpt>
      <trkpt lat="45.94543" lon="4.83675">
        <ele>262</ele>
        <time>2017-12-29T10:07:14Z</time>
      </trkpt>
      <trkpt lat="45.94544" lon="4.83682">
        <ele>262</ele>
        <time>2017-12-29T10:07:15Z</time>
      </trkpt>
      <trkpt lat="45.94545" lon="4.83689">
        <ele>262</ele>
        <time>2017-12-29T10:07:16Z</time>
      </trkpt>
      <trkpt lat="45.94546" lon="4.83695">
        <ele>262</ele>
        <time>2017-12-29T10:07:17Z</time>
      </trkpt>
      <trkpt lat="45.94548" lon="4.83707">
        <ele>262</ele>
        <time>2017-12-29T10:07:19Z</time>
      </trkpt>
      <trkpt lat="45.94549" lon="4.83714">
        <ele>262</ele>
        <time>2017-12-29T10:07:20Z</time>
      </trkpt>
      <trkpt lat="45.94551" lon="4.83721">
        <ele>262</ele>
        <time>2017-12-29T10:07:21Z</time>
      </trkpt>
      <trkpt lat="45.94554" lon="4.83727">
        <ele>262</ele>
        <time>2017-12-29T10:07:22Z</time>
      </trkpt>
      <trkpt lat="45.94554" lon="4.83734">
        <ele>262</ele>
        <time>2017-12-29T10:07:23Z</time>
      </trkpt>
      <trkpt lat="45.94556" lon="4.83742">
        <ele>262</ele>
        <time>2017-12-29T10:07:24Z</time>
      </trkpt>
      <trkpt lat="45.94556" lon="4.83749">
        <ele>262</ele>
        <time>2017-12-29T10:07:25Z</time>
      </trkpt>
      <trkpt lat="45.94558" lon="4.83755">
        <ele>263</ele>
        <time>2017-12-29T10:07:26Z</time>
      </trkpt>
      <trkpt lat="45.94558" lon="4.83763">
        <ele>263</ele>
        <time>2017-12-29T10:07:27Z</time>
      </trkpt>
      <trkpt lat="45.94559" lon="4.8377">
        <ele>263</ele>
        <time>2017-12-29T10:07:28Z</time>
      </trkpt>
      <trkpt lat="45.9456" lon="4.83777">
        <ele>264</ele>
        <time>2017-12-29T10:07:29Z</time>
      </trkpt>
      <trkpt lat="45.94561" lon="4.83784">
        <ele>264</ele>
        <time>2017-12-29T10:07:30Z</time>
      </trkpt>
      <trkpt lat="45.94562" lon="4.8379">
        <ele>264</ele>
        <time>2017-12-29T10:07:31Z</time>
      </trkpt>
      <trkpt lat="45.94563" lon="4.83797">
        <ele>264</ele>
        <time>2017-12-29T10:07:32Z</time>
      </trkpt>
      <trkpt lat="45.94564" lon="4.83803">
        <ele>264</ele>
        <time>2017-12-29T10:07:33Z</time>
      </trkpt>
      <trkpt lat="45.94565" lon="4.8381">
        <ele>264</ele>
        <time>2017-12-29T10:07:34Z</time>
      </trkpt>
      <trkpt lat="45.94565" lon="4.83818">
        <ele>264</ele>
        <time>2017-12-29T10:07:35Z</time>
      </trkpt>
      <trkpt lat="45.94566" lon="4.83824">
        <ele>265</ele>
        <time>2017-12-29T10:07:36Z</time>
      </trkpt>
      <trkpt lat="45.94567" lon="4.83831">
        <ele>265</ele>
        <time>2017-12-29T10:07:37Z</time>
      </trkpt>
      <trkpt lat="45.94568" lon="4.83837">
        <ele>266</ele>
        <time>2017-12-29T10:07:38Z</time>
      </trkpt>
      <trkpt lat="45.94569" lon="4.83845">
        <ele>266</ele>
        <time>2017-12-29T10:07:39Z</time>
      </trkpt>
      <trkpt lat="45.9457" lon="4.83851">
        <ele>266</ele>
        <time>2017-12-29T10:07:40Z</time>
      </trkpt>
      <trkpt lat="45.94572" lon="4.83862">
        <ele>267</ele>
        <time>2017-12-29T10:07:42Z</time>
      </trkpt>
      <trkpt lat="45.94573" lon="4.83868">
        <ele>267</ele>
        <time>2017-12-29T10:07:43Z</time>
      </trkpt>
      <trkpt lat="45.94574" lon="4.83878">
        <ele>267</ele>
        <time>2017-12-29T10:07:45Z</time>
      </trkpt>
      <trkpt lat="45.94574" lon="4.83884">
        <ele>267</ele>
        <time>2017-12-29T10:07:46Z</time>
      </trkpt>
      <trkpt lat="45.94576" lon="4.83896">
        <ele>267</ele>
        <time>2017-12-29T10:07:48Z</time>
      </trkpt>
      <trkpt lat="45.94577" lon="4.83901">
        <ele>268</ele>
        <time>2017-12-29T10:07:49Z</time>
      </trkpt>
      <trkpt lat="45.94579" lon="4.83912">
        <ele>268</ele>
        <time>2017-12-29T10:07:51Z</time>
      </trkpt>
      <trkpt lat="45.9458" lon="4.83918">
        <ele>268</ele>
        <time>2017-12-29T10:07:52Z</time>
      </trkpt>
      <trkpt lat="45.94582" lon="4.83929">
        <ele>268</ele>
        <time>2017-12-29T10:07:54Z</time>
      </trkpt>
      <trkpt lat="45.94584" lon="4.83935">
        <ele>268</ele>
        <time>2017-12-29T10:07:55Z</time>
      </trkpt>
      <trkpt lat="45.94587" lon="4.83946">
        <ele>268</ele>
        <time>2017-12-29T10:07:57Z</time>
      </trkpt>
      <trkpt lat="45.94588" lon="4.83952">
        <ele>268</ele>
        <time>2017-12-29T10:07:58Z</time>
      </trkpt>
      <trkpt lat="45.9459" lon="4.83963">
        <ele>268</ele>
        <time>2017-12-29T10:08:00Z</time>
      </trkpt>
      <trkpt lat="45.94591" lon="4.83969">
        <ele>268</ele>
        <time>2017-12-29T10:08:01Z</time>
      </trkpt>
      <trkpt lat="45.94592" lon="4.83979">
        <ele>268</ele>
        <time>2017-12-29T10:08:03Z</time>
      </trkpt>
      <trkpt lat="45.94593" lon="4.83985">
        <ele>268</ele>
        <time>2017-12-29T10:08:04Z</time>
      </trkpt>
      <trkpt lat="45.94595" lon="4.83995">
        <ele>269</ele>
        <time>2017-12-29T10:08:06Z</time>
      </trkpt>
      <trkpt lat="45.94595" lon="4.84">
        <ele>269</ele>
        <time>2017-12-29T10:08:07Z</time>
      </trkpt>
      <trkpt lat="45.94597" lon="4.8401">
        <ele>269</ele>
        <time>2017-12-29T10:08:09Z</time>
      </trkpt>
      <trkpt lat="45.94598" lon="4.84015">
        <ele>269</ele>
        <time>2017-12-29T10:08:10Z</time>
      </trkpt>
      <trkpt lat="45.946" lon="4.84025">
        <ele>269</ele>
        <time>2017-12-29T10:08:12Z</time>
      </trkpt>
      <trkpt lat="45.94601" lon="4.8403">
        <ele>269</ele>
        <time>2017-12-29T10:08:13Z</time>
      </trkpt>
      <trkpt lat="45.94601" lon="4.8404">
        <ele>269</ele>
        <time>2017-12-29T10:08:15Z</time>
      </trkpt>
      <trkpt lat="45.94602" lon="4.84045">
        <ele>269</ele>
        <time>2017-12-29T10:08:16Z</time>
      </trkpt>
      <trkpt lat="45.94604" lon="4.84055">
        <ele>269</ele>
        <time>2017-12-29T10:08:18Z</time>
      </trkpt>
      <trkpt lat="45.94605" lon="4.8406">
        <ele>269</ele>
        <time>2017-12-29T10:08:19Z</time>
      </trkpt>
      <trkpt lat="45.94607" lon="4.84072">
        <ele>269</ele>
        <time>2017-12-29T10:08:21Z</time>
      </trkpt>
      <trkpt lat="45.94609" lon="4.84077">
        <ele>269</ele>
        <time>2017-12-29T10:08:22Z</time>
      </trkpt>
      <trkpt lat="45.9461" lon="4.84086">
        <ele>269</ele>
        <time>2017-12-29T10:08:24Z</time>
      </trkpt>
      <trkpt lat="45.94611" lon="4.84091">
        <ele>269</ele>
        <time>2017-12-29T10:08:25Z</time>
      </trkpt>
      <trkpt lat="45.94613" lon="4.841">
        <ele>269</ele>
        <time>2017-12-29T10:08:27Z</time>
      </trkpt>
      <trkpt lat="45.94614" lon="4.84105">
        <ele>269</ele>
        <time>2017-12-29T10:08:28Z</time>
      </trkpt>
      <trkpt lat="45.94615" lon="4.84115">
        <ele>269</ele>
        <time>2017-12-29T10:08:30Z</time>
      </trkpt>
      <trkpt lat="45.94616" lon="4.84121">
        <ele>269</ele>
        <time>2017-12-29T10:08:31Z</time>
      </trkpt>
      <trkpt lat="45.94618" lon="4.84131">
        <ele>269</ele>
        <time>2017-12-29T10:08:33Z</time>
      </trkpt>
      <trkpt lat="45.94619" lon="4.84136">
        <ele>269</ele>
        <time>2017-12-29T10:08:34Z</time>
      </trkpt>
      <trkpt lat="45.9462" lon="4.84146">
        <ele>269</ele>
        <time>2017-12-29T10:08:36Z</time>
      </trkpt>
      <trkpt lat="45.94621" lon="4.84151">
        <ele>269</ele>
        <time>2017-12-29T10:08:37Z</time>
      </trkpt>
      <trkpt lat="45.94622" lon="4.84162">
        <ele>269</ele>
        <time>2017-12-29T10:08:39Z</time>
      </trkpt>
      <trkpt lat="45.94623" lon="4.84168">
        <ele>269</ele>
        <time>2017-12-29T10:08:40Z</time>
      </trkpt>
      <trkpt lat="45.94624" lon="4.8418">
        <ele>269</ele>
        <time>2017-12-29T10:08:42Z</time>
      </trkpt>
      <trkpt lat="45.94625" lon="4.84186">
        <ele>269</ele>
        <time>2017-12-29T10:08:43Z</time>
      </trkpt>
      <trkpt lat="45.94627" lon="4.84196">
        <ele>269</ele>
        <time>2017-12-29T10:08:45Z</time>
      </trkpt>
      <trkpt lat="45.94627" lon="4.842">
        <ele>269</ele>
        <time>2017-12-29T10:08:46Z</time>
      </trkpt>
      <trkpt lat="45.94628" lon="4.84209">
        <ele>269</ele>
        <time>2017-12-29T10:08:48Z</time>
      </trkpt>
      <trkpt lat="45.94629" lon="4.84214">
        <ele>269</ele>
        <time>2017-12-29T10:08:49Z</time>
      </trkpt>
      <trkpt lat="45.9463" lon="4.84224">
        <ele>269</ele>
        <time>2017-12-29T10:08:51Z</time>
      </trkpt>
      <trkpt lat="45.94631" lon="4.84229">
        <ele>269</ele>
        <time>2017-12-29T10:08:52Z</time>
      </trkpt>
      <trkpt lat="45.94633" lon="4.84241">
        <ele>269</ele>
        <time>2017-12-29T10:08:54Z</time>
      </trkpt>
      <trkpt lat="45.94634" lon="4.84247">
        <ele>269</ele>
        <time>2017-12-29T10:08:55Z</time>
      </trkpt>
      <trkpt lat="45.94635" lon="4.84258">
        <ele>269</ele>
        <time>2017-12-29T10:08:57Z</time>
      </trkpt>
      <trkpt lat="45.94636" lon="4.84264">
        <ele>269</ele>
        <time>2017-12-29T10:08:58Z</time>
      </trkpt>
      <trkpt lat="45.94637" lon="4.84274">
        <ele>269</ele>
        <time>2017-12-29T10:09:00Z</time>
      </trkpt>
      <trkpt lat="45.94638" lon="4.84279">
        <ele>269</ele>
        <time>2017-12-29T10:09:01Z</time>
      </trkpt>
      <trkpt lat="45.94639" lon="4.84289">
        <ele>269</ele>
        <time>2017-12-29T10:09:03Z</time>
      </trkpt>
      <trkpt lat="45.9464" lon="4.84294">
        <ele>269</ele>
        <time>2017-12-29T10:09:04Z</time>
      </trkpt>
      <trkpt lat="45.94641" lon="4.84303">
        <ele>269</ele>
        <time>2017-12-29T10:09:06Z</time>
      </trkpt>
      <trkpt lat="45.94641" lon="4.84307">
        <ele>269</ele>
        <time>2017-12-29T10:09:07Z</time>
      </trkpt>
      <trkpt lat="45.94643" lon="4.84318">
        <ele>269</ele>
        <time>2017-12-29T10:09:09Z</time>
      </trkpt>
      <trkpt lat="45.94644" lon="4.84323">
        <ele>268</ele>
        <time>2017-12-29T10:09:10Z</time>
      </trkpt>
      <trkpt lat="45.94645" lon="4.84331">
        <ele>268</ele>
        <time>2017-12-29T10:09:12Z</time>
      </trkpt>
      <trkpt lat="45.94646" lon="4.84336">
        <ele>268</ele>
        <time>2017-12-29T10:09:13Z</time>
      </trkpt>
      <trkpt lat="45.94648" lon="4.84346">
        <ele>268</ele>
        <time>2017-12-29T10:09:15Z</time>
      </trkpt>
      <trkpt lat="45.94649" lon="4.8435">
        <ele>268</ele>
        <time>2017-12-29T10:09:16Z</time>
      </trkpt>
      <trkpt lat="45.94649" lon="4.8436">
        <ele>268</ele>
        <time>2017-12-29T10:09:18Z</time>
      </trkpt>
      <trkpt lat="45.9465" lon="4.84365">
        <ele>268</ele>
        <time>2017-12-29T10:09:19Z</time>
      </trkpt>
      <trkpt lat="45.94651" lon="4.84376">
        <ele>268</ele>
        <time>2017-12-29T10:09:21Z</time>
      </trkpt>
      <trkpt lat="45.94651" lon="4.84381">
        <ele>268</ele>
        <time>2017-12-29T10:09:22Z</time>
      </trkpt>
      <trkpt lat="45.94652" lon="4.84391">
        <ele>268</ele>
        <time>2017-12-29T10:09:24Z</time>
      </trkpt>
      <trkpt lat="45.94653" lon="4.84396">
        <ele>268</ele>
        <time>2017-12-29T10:09:25Z</time>
      </trkpt>
      <trkpt lat="45.94654" lon="4.84405">
        <ele>268</ele>
        <time>2017-12-29T10:09:27Z</time>
      </trkpt>
      <trkpt lat="45.94655" lon="4.8441">
        <ele>268</ele>
        <time>2017-12-29T10:09:28Z</time>
      </trkpt>
      <trkpt lat="45.94657" lon="4.8442">
        <ele>268</ele>
        <time>2017-12-29T10:09:30Z</time>
      </trkpt>
      <trkpt lat="45.94657" lon="4.84425">
        <ele>268</ele>
        <time>2017-12-29T10:09:31Z</time>
      </trkpt>
      <trkpt lat="45.94658" lon="4.84436">
        <ele>268</ele>
        <time>2017-12-29T10:09:33Z</time>
      </trkpt>
      <trkpt lat="45.94659" lon="4.84441">
        <ele>268</ele>
        <time>2017-12-29T10:09:34Z</time>
      </trkpt>
      <trkpt lat="45.9466" lon="4.84451">
        <ele>268</ele>
        <time>2017-12-29T10:09:36Z</time>
      </trkpt>
      <trkpt lat="45.94661" lon="4.84456">
        <ele>268</ele>
        <time>2017-12-29T10:09:37Z</time>
      </trkpt>
      <trkpt lat="45.94662" lon="4.84466">
        <ele>268</ele>
        <time>2017-12-29T10:09:39Z</time>
      </trkpt>
      <trkpt lat="45.94663" lon="4.84472">
        <ele>268</ele>
        <time>2017-12-29T10:09:40Z</time>
      </trkpt>
      <trkpt lat="45.94664" lon="4.84484">
        <ele>268</ele>
        <time>2017-12-29T10:09:42Z</time>
      </trkpt>
      <trkpt lat="45.94665" lon="4.84489">
        <ele>268</ele>
        <time>2017-12-29T10:09:43Z</time>
      </trkpt>
      <trkpt lat="45.94666" lon="4.845">
        <ele>268</ele>
        <time>2017-12-29T10:09:45Z</time>
      </trkpt>
      <trkpt lat="45.94667" lon="4.84505">
        <ele>268</ele>
        <time>2017-12-29T10:09:46Z</time>
      </trkpt>
      <trkpt lat="45.94668" lon="4.84515">
        <ele>268</ele>
        <time>2017-12-29T10:09:48Z</time>
      </trkpt>
      <trkpt lat="45.94669" lon="4.8452">
        <ele>268</ele>
        <time>2017-12-29T10:09:49Z</time>
      </trkpt>
      <trkpt lat="45.9467" lon="4.84532">
        <ele>268</ele>
        <time>2017-12-29T10:09:51Z</time>
      </trkpt>
      <trkpt lat="45.9467" lon="4.84538">
        <ele>268</ele>
        <time>2017-12-29T10:09:52Z</time>
      </trkpt>
      <trkpt lat="45.94671" lon="4.84549">
        <ele>268</ele>
        <time>2017-12-29T10:09:54Z</time>
      </trkpt>
      <trkpt lat="45.94671" lon="4.84554">
        <ele>268</ele>
        <time>2017-12-29T10:09:55Z</time>
      </trkpt>
      <trkpt lat="45.94671" lon="4.84565">
        <ele>268</ele>
        <time>2017-12-29T10:09:57Z</time>
      </trkpt>
      <trkpt lat="45.94671" lon="4.8457">
        <ele>268</ele>
        <time>2017-12-29T10:09:58Z</time>
      </trkpt>
      <trkpt lat="45.94671" lon="4.8458">
        <ele>268</ele>
        <time>2017-12-29T10:10:00Z</time>
      </trkpt>
      <trkpt lat="45.94671" lon="4.84585">
        <ele>268</ele>
        <time>2017-12-29T10:10:01Z</time>
      </trkpt>
      <trkpt lat="45.94671" lon="4.84595">
        <ele>268</ele>
        <time>2017-12-29T10:10:03Z</time>
      </trkpt>
      <trkpt lat="45.94672" lon="4.84599">
        <ele>268</ele>
        <time>2017-12-29T10:10:04Z</time>
      </trkpt>
      <trkpt lat="45.94671" lon="4.84609">
        <ele>268</ele>
        <time>2017-12-29T10:10:06Z</time>
      </trkpt>
      <trkpt lat="45.94671" lon="4.84613">
        <ele>268</ele>
        <time>2017-12-29T10:10:07Z</time>
      </trkpt>
      <trkpt lat="45.94671" lon="4.84624">
        <ele>268</ele>
        <time>2017-12-29T10:10:09Z</time>
      </trkpt>
      <trkpt lat="45.94671" lon="4.84629">
        <ele>268</ele>
        <time>2017-12-29T10:10:10Z</time>
      </trkpt>
      <trkpt lat="45.94672" lon="4.84641">
        <ele>268</ele>
        <time>2017-12-29T10:10:12Z</time>
      </trkpt>
      <trkpt lat="45.94673" lon="4.84647">
        <ele>268</ele>
        <time>2017-12-29T10:10:13Z</time>
      </trkpt>
      <trkpt lat="45.94673" lon="4.8466">
        <ele>268</ele>
        <time>2017-12-29T10:10:15Z</time>
      </trkpt>
      <trkpt lat="45.94672" lon="4.84667">
        <ele>269</ele>
        <time>2017-12-29T10:10:16Z</time>
      </trkpt>
      <trkpt lat="45.94673" lon="4.84673">
        <ele>269</ele>
        <time>2017-12-29T10:10:17Z</time>
      </trkpt>
      <trkpt lat="45.94673" lon="4.8468">
        <ele>269</ele>
        <time>2017-12-29T10:10:18Z</time>
      </trkpt>
      <trkpt lat="45.94673" lon="4.84692">
        <ele>269</ele>
        <time>2017-12-29T10:10:20Z</time>
      </trkpt>
      <trkpt lat="45.94674" lon="4.84698">
        <ele>269</ele>
        <time>2017-12-29T10:10:21Z</time>
      </trkpt>
      <trkpt lat="45.94676" lon="4.8471">
        <ele>269</ele>
        <time>2017-12-29T10:10:23Z</time>
      </trkpt>
      <trkpt lat="45.94676" lon="4.84716">
        <ele>269</ele>
        <time>2017-12-29T10:10:24Z</time>
      </trkpt>
      <trkpt lat="45.94676" lon="4.84726">
        <ele>269</ele>
        <time>2017-12-29T10:10:26Z</time>
      </trkpt>
      <trkpt lat="45.94676" lon="4.84732">
        <ele>269</ele>
        <time>2017-12-29T10:10:27Z</time>
      </trkpt>
      <trkpt lat="45.94676" lon="4.84738">
        <ele>269</ele>
        <time>2017-12-29T10:10:28Z</time>
      </trkpt>
      <trkpt lat="45.94676" lon="4.84745">
        <ele>269</ele>
        <time>2017-12-29T10:10:29Z</time>
      </trkpt>
      <trkpt lat="45.94677" lon="4.84751">
        <ele>269</ele>
        <time>2017-12-29T10:10:30Z</time>
      </trkpt>
      <trkpt lat="45.94678" lon="4.84758">
        <ele>269</ele>
        <time>2017-12-29T10:10:31Z</time>
      </trkpt>
      <trkpt lat="45.94678" lon="4.84765">
        <ele>269</ele>
        <time>2017-12-29T10:10:32Z</time>
      </trkpt>
      <trkpt lat="45.94678" lon="4.84771">
        <ele>269</ele>
        <time>2017-12-29T10:10:33Z</time>
      </trkpt>
      <trkpt lat="45.94679" lon="4.84783">
        <ele>269</ele>
        <time>2017-12-29T10:10:35Z</time>
      </trkpt>
      <trkpt lat="45.94679" lon="4.8479">
        <ele>269</ele>
        <time>2017-12-29T10:10:36Z</time>
      </trkpt>
      <trkpt lat="45.9468" lon="4.84801">
        <ele>268</ele>
        <time>2017-12-29T10:10:38Z</time>
      </trkpt>
      <trkpt lat="45.9468" lon="4.84806">
        <ele>268</ele>
        <time>2017-12-29T10:10:39Z</time>
      </trkpt>
      <trkpt lat="45.94681" lon="4.84817">
        <ele>268</ele>
        <time>2017-12-29T10:10:41Z</time>
      </trkpt>
      <trkpt lat="45.94682" lon="4.84823">
        <ele>268</ele>
        <time>2017-12-29T10:10:42Z</time>
      </trkpt>
      <trkpt lat="45.94683" lon="4.84831">
        <ele>268</ele>
        <time>2017-12-29T10:10:43Z</time>
      </trkpt>
      <trkpt lat="45.94684" lon="4.84837">
        <ele>268</ele>
        <time>2017-12-29T10:10:44Z</time>
      </trkpt>
      <trkpt lat="45.94685" lon="4.8485">
        <ele>268</ele>
        <time>2017-12-29T10:10:46Z</time>
      </trkpt>
      <trkpt lat="45.94685" lon="4.84855">
        <ele>268</ele>
        <time>2017-12-29T10:10:47Z</time>
      </trkpt>
      <trkpt lat="45.94685" lon="4.84866">
        <ele>268</ele>
        <time>2017-12-29T10:10:49Z</time>
      </trkpt>
      <trkpt lat="45.94687" lon="4.84873">
        <ele>268</ele>
        <time>2017-12-29T10:10:50Z</time>
      </trkpt>
      <trkpt lat="45.94687" lon="4.84879">
        <ele>268</ele>
        <time>2017-12-29T10:10:51Z</time>
      </trkpt>
      <trkpt lat="45.94688" lon="4.84887">
        <ele>268</ele>
        <time>2017-12-29T10:10:52Z</time>
      </trkpt>
      <trkpt lat="45.94688" lon="4.84894">
        <ele>268</ele>
        <time>2017-12-29T10:10:53Z</time>
      </trkpt>
      <trkpt lat="45.94689" lon="4.849">
        <ele>268</ele>
        <time>2017-12-29T10:10:54Z</time>
      </trkpt>
      <trkpt lat="45.9469" lon="4.84907">
        <ele>269</ele>
        <time>2017-12-29T10:10:55Z</time>
      </trkpt>
      <trkpt lat="45.94691" lon="4.84914">
        <ele>269</ele>
        <time>2017-12-29T10:10:56Z</time>
      </trkpt>
      <trkpt lat="45.94691" lon="4.8492">
        <ele>269</ele>
        <time>2017-12-29T10:10:57Z</time>
      </trkpt>
      <trkpt lat="45.94691" lon="4.84928">
        <ele>269</ele>
        <time>2017-12-29T10:10:58Z</time>
      </trkpt>
      <trkpt lat="45.94691" lon="4.84935">
        <ele>269</ele>
        <time>2017-12-29T10:10:59Z</time>
      </trkpt>
      <trkpt lat="45.94692" lon="4.84942">
        <ele>269</ele>
        <time>2017-12-29T10:11:00Z</time>
      </trkpt>
      <trkpt lat="45.94694" lon="4.84948">
        <ele>269</ele>
        <time>2017-12-29T10:11:01Z</time>
      </trkpt>
      <trkpt lat="45.94696" lon="4.84956">
        <ele>269</ele>
        <time>2017-12-29T10:11:02Z</time>
      </trkpt>
      <trkpt lat="45.94698" lon="4.84967">
        <ele>269</ele>
        <time>2017-12-29T10:11:04Z</time>
      </trkpt>
      <trkpt lat="45.94698" lon="4.84973">
        <ele>269</ele>
        <time>2017-12-29T10:11:05Z</time>
      </trkpt>
      <trkpt lat="45.94699" lon="4.84983">
        <ele>269</ele>
        <time>2017-12-29T10:11:07Z</time>
      </trkpt>
      <trkpt lat="45.94701" lon="4.84987">
        <ele>269</ele>
        <time>2017-12-29T10:11:08Z</time>
      </trkpt>
      <trkpt lat="45.94702" lon="4.84998">
        <ele>269</ele>
        <time>2017-12-29T10:11:10Z</time>
      </trkpt>
      <trkpt lat="45.94703" lon="4.85004">
        <ele>269</ele>
        <time>2017-12-29T10:11:11Z</time>
      </trkpt>
      <trkpt lat="45.94703" lon="4.85015">
        <ele>269</ele>
        <time>2017-12-29T10:11:13Z</time>
      </trkpt>
      <trkpt lat="45.94704" lon="4.85021">
        <ele>269</ele>
        <time>2017-12-29T10:11:14Z</time>
      </trkpt>
      <trkpt lat="45.94705" lon="4.85034">
        <ele>269</ele>
        <time>2017-12-29T10:11:16Z</time>
      </trkpt>
      <trkpt lat="45.94705" lon="4.85039">
        <ele>269</ele>
        <time>2017-12-29T10:11:17Z</time>
      </trkpt>
      <trkpt lat="45.94707" lon="4.8505">
        <ele>269</ele>
        <time>2017-12-29T10:11:19Z</time>
      </trkpt>
      <trkpt lat="45.94708" lon="4.85055">
        <ele>269</ele>
        <time>2017-12-29T10:11:20Z</time>
      </trkpt>
      <trkpt lat="45.94709" lon="4.85066">
        <ele>269</ele>
        <time>2017-12-29T10:11:22Z</time>
      </trkpt>
      <trkpt lat="45.9471" lon="4.85071">
        <ele>269</ele>
        <time>2017-12-29T10:11:23Z</time>
      </trkpt>
      <trkpt lat="45.94711" lon="4.85083">
        <ele>269</ele>
        <time>2017-12-29T10:11:25Z</time>
      </trkpt>
      <trkpt lat="45.94712" lon="4.85088">
        <ele>269</ele>
        <time>2017-12-29T10:11:26Z</time>
      </trkpt>
      <trkpt lat="45.94712" lon="4.851">
        <ele>269</ele>
        <time>2017-12-29T10:11:28Z</time>
      </trkpt>
      <trkpt lat="45.94713" lon="4.85106">
        <ele>269</ele>
        <time>2017-12-29T10:11:29Z</time>
      </trkpt>
      <trkpt lat="45.94714" lon="4.85119">
        <ele>269</ele>
        <time>2017-12-29T10:11:31Z</time>
      </trkpt>
      <trkpt lat="45.94714" lon="4.85125">
        <ele>269</ele>
        <time>2017-12-29T10:11:32Z</time>
      </trkpt>
      <trkpt lat="45.94713" lon="4.85132">
        <ele>269</ele>
        <time>2017-12-29T10:11:33Z</time>
      </trkpt>
      <trkpt lat="45.94714" lon="4.85138">
        <ele>269</ele>
        <time>2017-12-29T10:11:34Z</time>
      </trkpt>
      <trkpt lat="45.94715" lon="4.85148">
        <ele>269</ele>
        <time>2017-12-29T10:11:36Z</time>
      </trkpt>
      <trkpt lat="45.94716" lon="4.85153">
        <ele>269</ele>
        <time>2017-12-29T10:11:37Z</time>
      </trkpt>
      <trkpt lat="45.94717" lon="4.85164">
        <ele>269</ele>
        <time>2017-12-29T10:11:39Z</time>
      </trkpt>
      <trkpt lat="45.94718" lon="4.85169">
        <ele>269</ele>
        <time>2017-12-29T10:11:40Z</time>
      </trkpt>
      <trkpt lat="45.9472" lon="4.85179">
        <ele>269</ele>
        <time>2017-12-29T10:11:42Z</time>
      </trkpt>
      <trkpt lat="45.9472" lon="4.85184">
        <ele>269</ele>
        <time>2017-12-29T10:11:43Z</time>
      </trkpt>
      <trkpt lat="45.94721" lon="4.85195">
        <ele>269</ele>
        <time>2017-12-29T10:11:45Z</time>
      </trkpt>
      <trkpt lat="45.94721" lon="4.85201">
        <ele>269</ele>
        <time>2017-12-29T10:11:46Z</time>
      </trkpt>
      <trkpt lat="45.94722" lon="4.85212">
        <ele>269</ele>
        <time>2017-12-29T10:11:48Z</time>
      </trkpt>
      <trkpt lat="45.94722" lon="4.85218">
        <ele>269</ele>
        <time>2017-12-29T10:11:49Z</time>
      </trkpt>
      <trkpt lat="45.94723" lon="4.85228">
        <ele>269</ele>
        <time>2017-12-29T10:11:51Z</time>
      </trkpt>
      <trkpt lat="45.94724" lon="4.85233">
        <ele>269</ele>
        <time>2017-12-29T10:11:52Z</time>
      </trkpt>
      <trkpt lat="45.94725" lon="4.85245">
        <ele>269</ele>
        <time>2017-12-29T10:11:54Z</time>
      </trkpt>
      <trkpt lat="45.94726" lon="4.85251">
        <ele>269</ele>
        <time>2017-12-29T10:11:55Z</time>
      </trkpt>
      <trkpt lat="45.94727" lon="4.85258">
        <ele>269</ele>
        <time>2017-12-29T10:11:56Z</time>
      </trkpt>
      <trkpt lat="45.94728" lon="4.85264">
        <ele>269</ele>
        <time>2017-12-29T10:11:57Z</time>
      </trkpt>
      <trkpt lat="45.9473" lon="4.85275">
        <ele>269</ele>
        <time>2017-12-29T10:11:59Z</time>
      </trkpt>
      <trkpt lat="45.94731" lon="4.85281">
        <ele>269</ele>
        <time>2017-12-29T10:12:00Z</time>
      </trkpt>
      <trkpt lat="45.94732" lon="4.85292">
        <ele>270</ele>
        <time>2017-12-29T10:12:02Z</time>
      </trkpt>
      <trkpt lat="45.94733" lon="4.85298">
        <ele>270</ele>
        <time>2017-12-29T10:12:03Z</time>
      </trkpt>
      <trkpt lat="45.94734" lon="4.85309">
        <ele>270</ele>
        <time>2017-12-29T10:12:05Z</time>
      </trkpt>
      <trkpt lat="45.94735" lon="4.85315">
        <ele>270</ele>
        <time>2017-12-29T10:12:06Z</time>
      </trkpt>
      <trkpt lat="45.94736" lon="4.85325">
        <ele>270</ele>
        <time>2017-12-29T10:12:08Z</time>
      </trkpt>
      <trkpt lat="45.94736" lon="4.85331">
        <ele>270</ele>
        <time>2017-12-29T10:12:09Z</time>
      </trkpt>
      <trkpt lat="45.94737" lon="4.85341">
        <ele>271</ele>
        <time>2017-12-29T10:12:11Z</time>
      </trkpt>
      <trkpt lat="45.94738" lon="4.85347">
        <ele>271</ele>
        <time>2017-12-29T10:12:12Z</time>
      </trkpt>
      <trkpt lat="45.94739" lon="4.85358">
        <ele>271</ele>
        <time>2017-12-29T10:12:14Z</time>
      </trkpt>
      <trkpt lat="45.9474" lon="4.85364">
        <ele>271</ele>
        <time>2017-12-29T10:12:15Z</time>
      </trkpt>
      <trkpt lat="45.94741" lon="4.85375">
        <ele>271</ele>
        <time>2017-12-29T10:12:17Z</time>
      </trkpt>
      <trkpt lat="45.94742" lon="4.8538">
        <ele>271</ele>
        <time>2017-12-29T10:12:18Z</time>
      </trkpt>
      <trkpt lat="45.94743" lon="4.85392">
        <ele>272</ele>
        <time>2017-12-29T10:12:20Z</time>
      </trkpt>
      <trkpt lat="45.94744" lon="4.85397">
        <ele>272</ele>
        <time>2017-12-29T10:12:21Z</time>
      </trkpt>
      <trkpt lat="45.94745" lon="4.85409">
        <ele>272</ele>
        <time>2017-12-29T10:12:23Z</time>
      </trkpt>
      <trkpt lat="45.94745" lon="4.85414">
        <ele>273</ele>
        <time>2017-12-29T10:12:24Z</time>
      </trkpt>
      <trkpt lat="45.94746" lon="4.85424">
        <ele>273</ele>
        <time>2017-12-29T10:12:26Z</time>
      </trkpt>
      <trkpt lat="45.94747" lon="4.85429">
        <ele>273</ele>
        <time>2017-12-29T10:12:27Z</time>
      </trkpt>
      <trkpt lat="45.94748" lon="4.85439">
        <ele>274</ele>
        <time>2017-12-29T10:12:29Z</time>
      </trkpt>
      <trkpt lat="45.94749" lon="4.85444">
        <ele>274</ele>
        <time>2017-12-29T10:12:30Z</time>
      </trkpt>
      <trkpt lat="45.9475" lon="4.85453">
        <ele>274</ele>
        <time>2017-12-29T10:12:32Z</time>
      </trkpt>
      <trkpt lat="45.9475" lon="4.85457">
        <ele>275</ele>
        <time>2017-12-29T10:12:33Z</time>
      </trkpt>
      <trkpt lat="45.94751" lon="4.85466">
        <ele>275</ele>
        <time>2017-12-29T10:12:35Z</time>
      </trkpt>
      <trkpt lat="45.94752" lon="4.8547">
        <ele>275</ele>
        <time>2017-12-29T10:12:36Z</time>
      </trkpt>
      <trkpt lat="45.94752" lon="4.85479">
        <ele>275</ele>
        <time>2017-12-29T10:12:38Z</time>
      </trkpt>
      <trkpt lat="45.94753" lon="4.85484">
        <ele>275</ele>
        <time>2017-12-29T10:12:39Z</time>
      </trkpt>
      <trkpt lat="45.94753" lon="4.85493">
        <ele>276</ele>
        <time>2017-12-29T10:12:41Z</time>
      </trkpt>
      <trkpt lat="45.94754" lon="4.85498">
        <ele>276</ele>
        <time>2017-12-29T10:12:42Z</time>
      </trkpt>
      <trkpt lat="45.94756" lon="4.85507">
        <ele>277</ele>
        <time>2017-12-29T10:12:44Z</time>
      </trkpt>
      <trkpt lat="45.94756" lon="4.85511">
        <ele>277</ele>
        <time>2017-12-29T10:12:45Z</time>
      </trkpt>
      <trkpt lat="45.94758" lon="4.85521">
        <ele>277</ele>
        <time>2017-12-29T10:12:47Z</time>
      </trkpt>
      <trkpt lat="45.94758" lon="4.85526">
        <ele>278</ele>
        <time>2017-12-29T10:12:48Z</time>
      </trkpt>
      <trkpt lat="45.9476" lon="4.85535">
        <ele>278</ele>
        <time>2017-12-29T10:12:50Z</time>
      </trkpt>
      <trkpt lat="45.94761" lon="4.8554">
        <ele>278</ele>
        <time>2017-12-29T10:12:51Z</time>
      </trkpt>
      <trkpt lat="45.94762" lon="4.85549">
        <ele>278</ele>
        <time>2017-12-29T10:12:53Z</time>
      </trkpt>
      <trkpt lat="45.94763" lon="4.85554">
        <ele>278</ele>
        <time>2017-12-29T10:12:54Z</time>
      </trkpt>
      <trkpt lat="45.94765" lon="4.85563">
        <ele>279</ele>
        <time>2017-12-29T10:12:56Z</time>
      </trkpt>
      <trkpt lat="45.94766" lon="4.85568">
        <ele>279</ele>
        <time>2017-12-29T10:12:57Z</time>
      </trkpt>
      <trkpt lat="45.94767" lon="4.85576">
        <ele>279</ele>
        <time>2017-12-29T10:12:59Z</time>
      </trkpt>
      <trkpt lat="45.94768" lon="4.85581">
        <ele>279</ele>
        <time>2017-12-29T10:13:00Z</time>
      </trkpt>
      <trkpt lat="45.94769" lon="4.85589">
        <ele>280</ele>
        <time>2017-12-29T10:13:02Z</time>
      </trkpt>
      <trkpt lat="45.9477" lon="4.85593">
        <ele>280</ele>
        <time>2017-12-29T10:13:03Z</time>
      </trkpt>
      <trkpt lat="45.94771" lon="4.85602">
        <ele>280</ele>
        <time>2017-12-29T10:13:05Z</time>
      </trkpt>
      <trkpt lat="45.94772" lon="4.85606">
        <ele>280</ele>
        <time>2017-12-29T10:13:06Z</time>
      </trkpt>
      <trkpt lat="45.94775" lon="4.85618">
        <ele>280</ele>
        <time>2017-12-29T10:13:09Z</time>
      </trkpt>
      <trkpt lat="45.94776" lon="4.85622">
        <ele>280</ele>
        <time>2017-12-29T10:13:10Z</time>
      </trkpt>
      <trkpt lat="45.94778" lon="4.85632">
        <ele>280</ele>
        <time>2017-12-29T10:13:13Z</time>
      </trkpt>
      <trkpt lat="45.94779" lon="4.85636">
        <ele>281</ele>
        <time>2017-12-29T10:13:14Z</time>
      </trkpt>
      <trkpt lat="45.94782" lon="4.85647">
        <ele>281</ele>
        <time>2017-12-29T10:13:17Z</time>
      </trkpt>
      <trkpt lat="45.94783" lon="4.8565">
        <ele>281</ele>
        <time>2017-12-29T10:13:18Z</time>
      </trkpt>
      <trkpt lat="45.94785" lon="4.85662">
        <ele>281</ele>
        <time>2017-12-29T10:13:21Z</time>
      </trkpt>
      <trkpt lat="45.94786" lon="4.85666">
        <ele>281</ele>
        <time>2017-12-29T10:13:22Z</time>
      </trkpt>
      <trkpt lat="45.94788" lon="4.85674">
        <ele>280</ele>
        <time>2017-12-29T10:13:24Z</time>
      </trkpt>
      <trkpt lat="45.94789" lon="4.85678">
        <ele>280</ele>
        <time>2017-12-29T10:13:25Z</time>
      </trkpt>
      <trkpt lat="45.94792" lon="4.85686">
        <ele>280</ele>
        <time>2017-12-29T10:13:27Z</time>
      </trkpt>
      <trkpt lat="45.94793" lon="4.8569">
        <ele>280</ele>
        <time>2017-12-29T10:13:28Z</time>
      </trkpt>
      <trkpt lat="45.94796" lon="4.85703">
        <ele>280</ele>
        <time>2017-12-29T10:13:31Z</time>
      </trkpt>
      <trkpt lat="45.94797" lon="4.85707">
        <ele>280</ele>
        <time>2017-12-29T10:13:32Z</time>
      </trkpt>
      <trkpt lat="45.94799" lon="4.85715">
        <ele>280</ele>
        <time>2017-12-29T10:13:34Z</time>
      </trkpt>
      <trkpt lat="45.948" lon="4.8572">
        <ele>280</ele>
        <time>2017-12-29T10:13:35Z</time>
      </trkpt>
      <trkpt lat="45.94803" lon="4.85731">
        <ele>280</ele>
        <time>2017-12-29T10:13:37Z</time>
      </trkpt>
      <trkpt lat="45.94804" lon="4.85737">
        <ele>279</ele>
        <time>2017-12-29T10:13:38Z</time>
      </trkpt>
      <trkpt lat="45.94808" lon="4.85748">
        <ele>279</ele>
        <time>2017-12-29T10:13:40Z</time>
      </trkpt>
      <trkpt lat="45.94808" lon="4.85753">
        <ele>278</ele>
        <time>2017-12-29T10:13:41Z</time>
      </trkpt>
      <trkpt lat="45.9481" lon="4.85759">
        <ele>278</ele>
        <time>2017-12-29T10:13:42Z</time>
      </trkpt>
      <trkpt lat="45.94812" lon="4.85765">
        <ele>278</ele>
        <time>2017-12-29T10:13:43Z</time>
      </trkpt>
      <trkpt lat="45.94813" lon="4.85772">
        <ele>278</ele>
        <time>2017-12-29T10:13:44Z</time>
      </trkpt>
      <trkpt lat="45.94814" lon="4.85778">
        <ele>278</ele>
        <time>2017-12-29T10:13:45Z</time>
      </trkpt>
      <trkpt lat="45.94817" lon="4.8579">
        <ele>278</ele>
        <time>2017-12-29T10:13:47Z</time>
      </trkpt>
      <trkpt lat="45.94819" lon="4.85795">
        <ele>278</ele>
        <time>2017-12-29T10:13:48Z</time>
      </trkpt>
      <trkpt lat="45.94821" lon="4.85802">
        <ele>278</ele>
        <time>2017-12-29T10:13:49Z</time>
      </trkpt>
      <trkpt lat="45.94822" lon="4.85808">
        <ele>278</ele>
        <time>2017-12-29T10:13:50Z</time>
      </trkpt>
      <trkpt lat="45.94824" lon="4.8582">
        <ele>278</ele>
        <time>2017-12-29T10:13:52Z</time>
      </trkpt>
      <trkpt lat="45.94826" lon="4.85825">
        <ele>277</ele>
        <time>2017-12-29T10:13:53Z</time>
      </trkpt>
      <trkpt lat="45.94829" lon="4.85836">
        <ele>277</ele>
        <time>2017-12-29T10:13:55Z</time>
      </trkpt>
      <trkpt lat="45.9483" lon="4.8584">
        <ele>277</ele>
        <time>2017-12-29T10:13:56Z</time>
      </trkpt>
      <trkpt lat="45.94834" lon="4.85851">
        <ele>276</ele>
        <time>2017-12-29T10:13:58Z</time>
      </trkpt>
      <trkpt lat="45.94835" lon="4.85858">
        <ele>276</ele>
        <time>2017-12-29T10:13:59Z</time>
      </trkpt>
      <trkpt lat="45.94837" lon="4.85863">
        <ele>276</ele>
        <time>2017-12-29T10:14:00Z</time>
      </trkpt>
      <trkpt lat="45.94838" lon="4.8587">
        <ele>276</ele>
        <time>2017-12-29T10:14:01Z</time>
      </trkpt>
      <trkpt lat="45.94841" lon="4.85882">
        <ele>276</ele>
        <time>2017-12-29T10:14:03Z</time>
      </trkpt>
      <trkpt lat="45.94842" lon="4.85889">
        <ele>276</ele>
        <time>2017-12-29T10:14:04Z</time>
      </trkpt>
      <trkpt lat="45.94844" lon="4.85896">
        <ele>276</ele>
        <time>2017-12-29T10:14:05Z</time>
      </trkpt>
      <trkpt lat="45.94845" lon="4.85903">
        <ele>276</ele>
        <time>2017-12-29T10:14:06Z</time>
      </trkpt>
      <trkpt lat="45.94847" lon="4.8591">
        <ele>275</ele>
        <time>2017-12-29T10:14:07Z</time>
      </trkpt>
      <trkpt lat="45.94849" lon="4.85917">
        <ele>275</ele>
        <time>2017-12-29T10:14:08Z</time>
      </trkpt>
      <trkpt lat="45.9485" lon="4.85923">
        <ele>275</ele>
        <time>2017-12-29T10:14:09Z</time>
      </trkpt>
      <trkpt lat="45.94852" lon="4.85929">
        <ele>275</ele>
        <time>2017-12-29T10:14:10Z</time>
      </trkpt>
      <trkpt lat="45.94854" lon="4.85936">
        <ele>275</ele>
        <time>2017-12-29T10:14:11Z</time>
      </trkpt>
      <trkpt lat="45.94856" lon="4.85942">
        <ele>275</ele>
        <time>2017-12-29T10:14:12Z</time>
      </trkpt>
      <trkpt lat="45.94858" lon="4.85948">
        <ele>275</ele>
        <time>2017-12-29T10:14:13Z</time>
      </trkpt>
      <trkpt lat="45.94859" lon="4.85954">
        <ele>275</ele>
        <time>2017-12-29T10:14:14Z</time>
      </trkpt>
      <trkpt lat="45.94861" lon="4.85961">
        <ele>275</ele>
        <time>2017-12-29T10:14:15Z</time>
      </trkpt>
      <trkpt lat="45.94862" lon="4.85968">
        <ele>275</ele>
        <time>2017-12-29T10:14:16Z</time>
      </trkpt>
      <trkpt lat="45.94864" lon="4.85975">
        <ele>275</ele>
        <time>2017-12-29T10:14:17Z</time>
      </trkpt>
      <trkpt lat="45.94865" lon="4.85981">
        <ele>275</ele>
        <time>2017-12-29T10:14:18Z</time>
      </trkpt>
      <trkpt lat="45.94866" lon="4.85987">
        <ele>275</ele>
        <time>2017-12-29T10:14:19Z</time>
      </trkpt>
      <trkpt lat="45.94868" lon="4.85994">
        <ele>275</ele>
        <time>2017-12-29T10:14:20Z</time>
      </trkpt>
      <trkpt lat="45.94872" lon="4.86006">
        <ele>274</ele>
        <time>2017-12-29T10:14:22Z</time>
      </trkpt>
      <trkpt lat="45.94874" lon="4.86012">
        <ele>274</ele>
        <time>2017-12-29T10:14:23Z</time>
      </trkpt>
      <trkpt lat="45.94877" lon="4.86022">
        <ele>274</ele>
        <time>2017-12-29T10:14:25Z</time>
      </trkpt>
      <trkpt lat="45.94878" lon="4.86028">
        <ele>274</ele>
        <time>2017-12-29T10:14:26Z</time>
      </trkpt>
      <trkpt lat="45.9488" lon="4.86033">
        <ele>274</ele>
        <time>2017-12-29T10:14:27Z</time>
      </trkpt>
      <trkpt lat="45.94883" lon="4.86039">
        <ele>274</ele>
        <time>2017-12-29T10:14:28Z</time>
      </trkpt>
      <trkpt lat="45.94886" lon="4.86046">
        <ele>274</ele>
        <time>2017-12-29T10:14:29Z</time>
      </trkpt>
      <trkpt lat="45.94888" lon="4.86051">
        <ele>274</ele>
        <time>2017-12-29T10:14:30Z</time>
      </trkpt>
      <trkpt lat="45.9489" lon="4.86058">
        <ele>274</ele>
        <time>2017-12-29T10:14:31Z</time>
      </trkpt>
      <trkpt lat="45.94892" lon="4.86064">
        <ele>274</ele>
        <time>2017-12-29T10:14:32Z</time>
      </trkpt>
      <trkpt lat="45.94894" lon="4.86071">
        <ele>274</ele>
        <time>2017-12-29T10:14:33Z</time>
      </trkpt>
      <trkpt lat="45.94896" lon="4.86078">
        <ele>274</ele>
        <time>2017-12-29T10:14:34Z</time>
      </trkpt>
      <trkpt lat="45.94898" lon="4.86084">
        <ele>274</ele>
        <time>2017-12-29T10:14:35Z</time>
      </trkpt>
      <trkpt lat="45.949" lon="4.8609">
        <ele>274</ele>
        <time>2017-12-29T10:14:36Z</time>
      </trkpt>
      <trkpt lat="45.94903" lon="4.86096">
        <ele>274</ele>
        <time>2017-12-29T10:14:37Z</time>
      </trkpt>
      <trkpt lat="45.94905" lon="4.86102">
        <ele>274</ele>
        <time>2017-12-29T10:14:38Z</time>
      </trkpt>
      <trkpt lat="45.94908" lon="4.86107">
        <ele>274</ele>
        <time>2017-12-29T10:14:39Z</time>
      </trkpt>
      <trkpt lat="45.94909" lon="4.86113">
        <ele>274</ele>
        <time>2017-12-29T10:14:40Z</time>
      </trkpt>
      <trkpt lat="45.94912" lon="4.86119">
        <ele>274</ele>
        <time>2017-12-29T10:14:41Z</time>
      </trkpt>
      <trkpt lat="45.94914" lon="4.86125">
        <ele>274</ele>
        <time>2017-12-29T10:14:42Z</time>
      </trkpt>
      <trkpt lat="45.94916" lon="4.86131">
        <ele>274</ele>
        <time>2017-12-29T10:14:43Z</time>
      </trkpt>
      <trkpt lat="45.9492" lon="4.86137">
        <ele>273</ele>
        <time>2017-12-29T10:14:44Z</time>
      </trkpt>
      <trkpt lat="45.94925" lon="4.86145">
        <ele>273</ele>
        <time>2017-12-29T10:14:46Z</time>
      </trkpt>
      <trkpt lat="45.94928" lon="4.86151">
        <ele>273</ele>
        <time>2017-12-29T10:14:47Z</time>
      </trkpt>
      <trkpt lat="45.94932" lon="4.86155">
        <ele>273</ele>
        <time>2017-12-29T10:14:48Z</time>
      </trkpt>
      <trkpt lat="45.94935" lon="4.8616">
        <ele>273</ele>
        <time>2017-12-29T10:14:49Z</time>
      </trkpt>
      <trkpt lat="45.94938" lon="4.86164">
        <ele>273</ele>
        <time>2017-12-29T10:14:50Z</time>
      </trkpt>
      <trkpt lat="45.94942" lon="4.86169">
        <ele>273</ele>
        <time>2017-12-29T10:14:51Z</time>
      </trkpt>
      <trkpt lat="45.94945" lon="4.86173">
        <ele>273</ele>
        <time>2017-12-29T10:14:52Z</time>
      </trkpt>
      <trkpt lat="45.94949" lon="4.86177">
        <ele>273</ele>
        <time>2017-12-29T10:14:53Z</time>
      </trkpt>
      <trkpt lat="45.94953" lon="4.86182">
        <ele>273</ele>
        <time>2017-12-29T10:14:54Z</time>
      </trkpt>
      <trkpt lat="45.94957" lon="4.86187">
        <ele>273</ele>
        <time>2017-12-29T10:14:55Z</time>
      </trkpt>
      <trkpt lat="45.94962" lon="4.86194">
        <ele>272</ele>
        <time>2017-12-29T10:14:56Z</time>
      </trkpt>
      <trkpt lat="45.94966" lon="4.86199">
        <ele>272</ele>
        <time>2017-12-29T10:14:57Z</time>
      </trkpt>
      <trkpt lat="45.94971" lon="4.86204">
        <ele>272</ele>
        <time>2017-12-29T10:14:58Z</time>
      </trkpt>
      <trkpt lat="45.94976" lon="4.8621">
        <ele>272</ele>
        <time>2017-12-29T10:14:59Z</time>
      </trkpt>
      <trkpt lat="45.9498" lon="4.86218">
        <ele>272</ele>
        <time>2017-12-29T10:15:00Z</time>
      </trkpt>
      <trkpt lat="45.94984" lon="4.86223">
        <ele>272</ele>
        <time>2017-12-29T10:15:01Z</time>
      </trkpt>
      <trkpt lat="45.94988" lon="4.86227">
        <ele>272</ele>
        <time>2017-12-29T10:15:02Z</time>
      </trkpt>
      <trkpt lat="45.94992" lon="4.86231">
        <ele>272</ele>
        <time>2017-12-29T10:15:03Z</time>
      </trkpt>
      <trkpt lat="45.94997" lon="4.86237">
        <ele>272</ele>
        <time>2017-12-29T10:15:04Z</time>
      </trkpt>
      <trkpt lat="45.95001" lon="4.86243">
        <ele>272</ele>
        <time>2017-12-29T10:15:05Z</time>
      </trkpt>
      <trkpt lat="45.95005" lon="4.86249">
        <ele>272</ele>
        <time>2017-12-29T10:15:06Z</time>
      </trkpt>
      <trkpt lat="45.95009" lon="4.86253">
        <ele>272</ele>
        <time>2017-12-29T10:15:07Z</time>
      </trkpt>
      <trkpt lat="45.95013" lon="4.86259">
        <ele>272</ele>
        <time>2017-12-29T10:15:08Z</time>
      </trkpt>
      <trkpt lat="45.95019" lon="4.86263">
        <ele>271</ele>
        <time>2017-12-29T10:15:09Z</time>
      </trkpt>
      <trkpt lat="45.95024" lon="4.86269">
        <ele>271</ele>
        <time>2017-12-29T10:15:10Z</time>
      </trkpt>
      <trkpt lat="45.95029" lon="4.86274">
        <ele>271</ele>
        <time>2017-12-29T10:15:11Z</time>
      </trkpt>
      <trkpt lat="45.95033" lon="4.8628">
        <ele>271</ele>
        <time>2017-12-29T10:15:12Z</time>
      </trkpt>
      <trkpt lat="45.95037" lon="4.86285">
        <ele>271</ele>
        <time>2017-12-29T10:15:13Z</time>
      </trkpt>
      <trkpt lat="45.9504" lon="4.86292">
        <ele>271</ele>
        <time>2017-12-29T10:15:14Z</time>
      </trkpt>
      <trkpt lat="45.95044" lon="4.86297">
        <ele>271</ele>
        <time>2017-12-29T10:15:15Z</time>
      </trkpt>
      <trkpt lat="45.95048" lon="4.86304">
        <ele>271</ele>
        <time>2017-12-29T10:15:16Z</time>
      </trkpt>
      <trkpt lat="45.95052" lon="4.86309">
        <ele>271</ele>
        <time>2017-12-29T10:15:17Z</time>
      </trkpt>
      <trkpt lat="45.95058" lon="4.86314">
        <ele>271</ele>
        <time>2017-12-29T10:15:18Z</time>
      </trkpt>
      <trkpt lat="45.95062" lon="4.86319">
        <ele>270</ele>
        <time>2017-12-29T10:15:19Z</time>
      </trkpt>
      <trkpt lat="45.95066" lon="4.86325">
        <ele>270</ele>
        <time>2017-12-29T10:15:20Z</time>
      </trkpt>
      <trkpt lat="45.95071" lon="4.8633">
        <ele>270</ele>
        <time>2017-12-29T10:15:21Z</time>
      </trkpt>
      <trkpt lat="45.95076" lon="4.86335">
        <ele>270</ele>
        <time>2017-12-29T10:15:22Z</time>
      </trkpt>
      <trkpt lat="45.95079" lon="4.8634">
        <ele>270</ele>
        <time>2017-12-29T10:15:23Z</time>
      </trkpt>
      <trkpt lat="45.95083" lon="4.86346">
        <ele>270</ele>
        <time>2017-12-29T10:15:24Z</time>
      </trkpt>
      <trkpt lat="45.95087" lon="4.86352">
        <ele>269</ele>
        <time>2017-12-29T10:15:25Z</time>
      </trkpt>
      <trkpt lat="45.95092" lon="4.86358">
        <ele>269</ele>
        <time>2017-12-29T10:15:26Z</time>
      </trkpt>
      <trkpt lat="45.95097" lon="4.86362">
        <ele>269</ele>
        <time>2017-12-29T10:15:27Z</time>
      </trkpt>
      <trkpt lat="45.95101" lon="4.86367">
        <ele>269</ele>
        <time>2017-12-29T10:15:28Z</time>
      </trkpt>
      <trkpt lat="45.95105" lon="4.8637">
        <ele>269</ele>
        <time>2017-12-29T10:15:29Z</time>
      </trkpt>
      <trkpt lat="45.95108" lon="4.86375">
        <ele>269</ele>
        <time>2017-12-29T10:15:30Z</time>
      </trkpt>
      <trkpt lat="45.95112" lon="4.8638">
        <ele>269</ele>
        <time>2017-12-29T10:15:31Z</time>
      </trkpt>
      <trkpt lat="45.95116" lon="4.86383">
        <ele>269</ele>
        <time>2017-12-29T10:15:32Z</time>
      </trkpt>
      <trkpt lat="45.95119" lon="4.86389">
        <ele>269</ele>
        <time>2017-12-29T10:15:33Z</time>
      </trkpt>
      <trkpt lat="45.95123" lon="4.86394">
        <ele>269</ele>
        <time>2017-12-29T10:15:34Z</time>
      </trkpt>
      <trkpt lat="45.95127" lon="4.86398">
        <ele>268</ele>
        <time>2017-12-29T10:15:35Z</time>
      </trkpt>
      <trkpt lat="45.95131" lon="4.86403">
        <ele>268</ele>
        <time>2017-12-29T10:15:36Z</time>
      </trkpt>
      <trkpt lat="45.95136" lon="4.86407">
        <ele>268</ele>
        <time>2017-12-29T10:15:37Z</time>
      </trkpt>
      <trkpt lat="45.9514" lon="4.86412">
        <ele>268</ele>
        <time>2017-12-29T10:15:38Z</time>
      </trkpt>
      <trkpt lat="45.95144" lon="4.86416">
        <ele>268</ele>
        <time>2017-12-29T10:15:39Z</time>
      </trkpt>
      <trkpt lat="45.95147" lon="4.86421">
        <ele>268</ele>
        <time>2017-12-29T10:15:40Z</time>
      </trkpt>
      <trkpt lat="45.9515" lon="4.86425">
        <ele>268</ele>
        <time>2017-12-29T10:15:41Z</time>
      </trkpt>
      <trkpt lat="45.95154" lon="4.8643">
        <ele>268</ele>
        <time>2017-12-29T10:15:42Z</time>
      </trkpt>
      <trkpt lat="45.95157" lon="4.86434">
        <ele>268</ele>
        <time>2017-12-29T10:15:43Z</time>
      </trkpt>
      <trkpt lat="45.95161" lon="4.86439">
        <ele>268</ele>
        <time>2017-12-29T10:15:44Z</time>
      </trkpt>
      <trkpt lat="45.95165" lon="4.86444">
        <ele>268</ele>
        <time>2017-12-29T10:15:45Z</time>
      </trkpt>
      <trkpt lat="45.95169" lon="4.86449">
        <ele>268</ele>
        <time>2017-12-29T10:15:46Z</time>
      </trkpt>
      <trkpt lat="45.95173" lon="4.86454">
        <ele>268</ele>
        <time>2017-12-29T10:15:47Z</time>
      </trkpt>
      <trkpt lat="45.95177" lon="4.86457">
        <ele>268</ele>
        <time>2017-12-29T10:15:48Z</time>
      </trkpt>
      <trkpt lat="45.95181" lon="4.86462">
        <ele>268</ele>
        <time>2017-12-29T10:15:49Z</time>
      </trkpt>
      <trkpt lat="45.95184" lon="4.86467">
        <ele>268</ele>
        <time>2017-12-29T10:15:50Z</time>
      </trkpt>
      <trkpt lat="45.95189" lon="4.86472">
        <ele>268</ele>
        <time>2017-12-29T10:15:51Z</time>
      </trkpt>
      <trkpt lat="45.95193" lon="4.86478">
        <ele>268</ele>
        <time>2017-12-29T10:15:52Z</time>
      </trkpt>
      <trkpt lat="45.95197" lon="4.86484">
        <ele>268</ele>
        <time>2017-12-29T10:15:53Z</time>
      </trkpt>
      <trkpt lat="45.95201" lon="4.8649">
        <ele>268</ele>
        <time>2017-12-29T10:15:54Z</time>
      </trkpt>
      <trkpt lat="45.95206" lon="4.86497">
        <ele>268</ele>
        <time>2017-12-29T10:15:55Z</time>
      </trkpt>
      <trkpt lat="45.95211" lon="4.86502">
        <ele>268</ele>
        <time>2017-12-29T10:15:56Z</time>
      </trkpt>
      <trkpt lat="45.95215" lon="4.86507">
        <ele>268</ele>
        <time>2017-12-29T10:15:57Z</time>
      </trkpt>
      <trkpt lat="45.9522" lon="4.86513">
        <ele>268</ele>
        <time>2017-12-29T10:15:58Z</time>
      </trkpt>
      <trkpt lat="45.95225" lon="4.8652">
        <ele>268</ele>
        <time>2017-12-29T10:15:59Z</time>
      </trkpt>
      <trkpt lat="45.9523" lon="4.86526">
        <ele>268</ele>
        <time>2017-12-29T10:16:00Z</time>
      </trkpt>
      <trkpt lat="45.95234" lon="4.86532">
        <ele>268</ele>
        <time>2017-12-29T10:16:01Z</time>
      </trkpt>
      <trkpt lat="45.95239" lon="4.86538">
        <ele>268</ele>
        <time>2017-12-29T10:16:02Z</time>
      </trkpt>
      <trkpt lat="45.95243" lon="4.86544">
        <ele>268</ele>
        <time>2017-12-29T10:16:03Z</time>
      </trkpt>
      <trkpt lat="45.95248" lon="4.86547">
        <ele>268</ele>
        <time>2017-12-29T10:16:04Z</time>
      </trkpt>
      <trkpt lat="45.95252" lon="4.86551">
        <ele>267</ele>
        <time>2017-12-29T10:16:05Z</time>
      </trkpt>
      <trkpt lat="45.95256" lon="4.86558">
        <ele>267</ele>
        <time>2017-12-29T10:16:06Z</time>
      </trkpt>
      <trkpt lat="45.95259" lon="4.86562">
        <ele>267</ele>
        <time>2017-12-29T10:16:07Z</time>
      </trkpt>
      <trkpt lat="45.95262" lon="4.86573">
        <ele>267</ele>
        <time>2017-12-29T10:16:09Z</time>
      </trkpt>
      <trkpt lat="45.9526" lon="4.86579">
        <ele>268</ele>
        <time>2017-12-29T10:16:10Z</time>
      </trkpt>
      <trkpt lat="45.95253" lon="4.86586">
        <ele>268</ele>
        <time>2017-12-29T10:16:12Z</time>
      </trkpt>
      <trkpt lat="45.95249" lon="4.86586">
        <ele>268</ele>
        <time>2017-12-29T10:16:13Z</time>
      </trkpt>
      <trkpt lat="45.95241" lon="4.86584">
        <ele>268</ele>
        <time>2017-12-29T10:16:15Z</time>
      </trkpt>
      <trkpt lat="45.95238" lon="4.86583">
        <ele>268</ele>
        <time>2017-12-29T10:16:16Z</time>
      </trkpt>
      <trkpt lat="45.9523" lon="4.86581">
        <ele>268</ele>
        <time>2017-12-29T10:16:18Z</time>
      </trkpt>
      <trkpt lat="45.95227" lon="4.8658">
        <ele>268</ele>
        <time>2017-12-29T10:16:19Z</time>
      </trkpt>
      <trkpt lat="45.9522" lon="4.8658">
        <ele>268</ele>
        <time>2017-12-29T10:16:21Z</time>
      </trkpt>
      <trkpt lat="45.95217" lon="4.8658">
        <ele>268</ele>
        <time>2017-12-29T10:16:22Z</time>
      </trkpt>
      <trkpt lat="45.95208" lon="4.86579">
        <ele>268</ele>
        <time>2017-12-29T10:16:25Z</time>
      </trkpt>
      <trkpt lat="45.95205" lon="4.86578">
        <ele>268</ele>
        <time>2017-12-29T10:16:26Z</time>
      </trkpt>
      <trkpt lat="45.95199" lon="4.86578">
        <ele>268</ele>
        <time>2017-12-29T10:16:28Z</time>
      </trkpt>
      <trkpt lat="45.95196" lon="4.86577">
        <ele>268</ele>
        <time>2017-12-29T10:16:29Z</time>
      </trkpt>
      <trkpt lat="45.9519" lon="4.86578">
        <ele>269</ele>
        <time>2017-12-29T10:16:31Z</time>
      </trkpt>
      <trkpt lat="45.95187" lon="4.86578">
        <ele>269</ele>
        <time>2017-12-29T10:16:32Z</time>
      </trkpt>
      <trkpt lat="45.9518" lon="4.86579">
        <ele>269</ele>
        <time>2017-12-29T10:16:34Z</time>
      </trkpt>
      <trkpt lat="45.95176" lon="4.8658">
        <ele>269</ele>
        <time>2017-12-29T10:16:35Z</time>
      </trkpt>
      <trkpt lat="45.9517" lon="4.8658">
        <ele>269</ele>
        <time>2017-12-29T10:16:37Z</time>
      </trkpt>
      <trkpt lat="45.95166" lon="4.86581">
        <ele>269</ele>
        <time>2017-12-29T10:16:38Z</time>
      </trkpt>
      <trkpt lat="45.95159" lon="4.86581">
        <ele>269</ele>
        <time>2017-12-29T10:16:40Z</time>
      </trkpt>
      <trkpt lat="45.95156" lon="4.86581">
        <ele>269</ele>
        <time>2017-12-29T10:16:41Z</time>
      </trkpt>
      <trkpt lat="45.95149" lon="4.86582">
        <ele>270</ele>
        <time>2017-12-29T10:16:43Z</time>
      </trkpt>
      <trkpt lat="45.95145" lon="4.86582">
        <ele>270</ele>
        <time>2017-12-29T10:16:44Z</time>
      </trkpt>
      <trkpt lat="45.95137" lon="4.86583">
        <ele>270</ele>
        <time>2017-12-29T10:16:46Z</time>
      </trkpt>
      <trkpt lat="45.95134" lon="4.86584">
        <ele>270</ele>
        <time>2017-12-29T10:16:47Z</time>
      </trkpt>
      <trkpt lat="45.95127" lon="4.86585">
        <ele>270</ele>
        <time>2017-12-29T10:16:49Z</time>
      </trkpt>
      <trkpt lat="45.95124" lon="4.86586">
        <ele>270</ele>
        <time>2017-12-29T10:16:50Z</time>
      </trkpt>
      <trkpt lat="45.95117" lon="4.86588">
        <ele>270</ele>
        <time>2017-12-29T10:16:52Z</time>
      </trkpt>
      <trkpt lat="45.95114" lon="4.86588">
        <ele>270</ele>
        <time>2017-12-29T10:16:53Z</time>
      </trkpt>
      <trkpt lat="45.95106" lon="4.8659">
        <ele>271</ele>
        <time>2017-12-29T10:16:55Z</time>
      </trkpt>
      <trkpt lat="45.95103" lon="4.86591">
        <ele>271</ele>
        <time>2017-12-29T10:16:56Z</time>
      </trkpt>
      <trkpt lat="45.95097" lon="4.86592">
        <ele>271</ele>
        <time>2017-12-29T10:16:58Z</time>
      </trkpt>
      <trkpt lat="45.95094" lon="4.86593">
        <ele>271</ele>
        <time>2017-12-29T10:16:59Z</time>
      </trkpt>
      <trkpt lat="45.95087" lon="4.86595">
        <ele>271</ele>
        <time>2017-12-29T10:17:01Z</time>
      </trkpt>
      <trkpt lat="45.95084" lon="4.86597">
        <ele>271</ele>
        <time>2017-12-29T10:17:02Z</time>
      </trkpt>
      <trkpt lat="45.95077" lon="4.866">
        <ele>272</ele>
        <time>2017-12-29T10:17:04Z</time>
      </trkpt>
      <trkpt lat="45.95074" lon="4.86601">
        <ele>272</ele>
        <time>2017-12-29T10:17:05Z</time>
      </trkpt>
      <trkpt lat="45.95067" lon="4.86603">
        <ele>272</ele>
        <time>2017-12-29T10:17:07Z</time>
      </trkpt>
      <trkpt lat="45.95063" lon="4.86604">
        <ele>272</ele>
        <time>2017-12-29T10:17:08Z</time>
      </trkpt>
      <trkpt lat="45.95057" lon="4.86606">
        <ele>272</ele>
        <time>2017-12-29T10:17:10Z</time>
      </trkpt>
      <trkpt lat="45.95053" lon="4.86607">
        <ele>272</ele>
        <time>2017-12-29T10:17:11Z</time>
      </trkpt>
      <trkpt lat="45.95047" lon="4.8661">
        <ele>272</ele>
        <time>2017-12-29T10:17:13Z</time>
      </trkpt>
      <trkpt lat="45.95044" lon="4.8661">
        <ele>272</ele>
        <time>2017-12-29T10:17:14Z</time>
      </trkpt>
      <trkpt lat="45.95038" lon="4.8661">
        <ele>273</ele>
        <time>2017-12-29T10:17:16Z</time>
      </trkpt>
      <trkpt lat="45.95035" lon="4.86611">
        <ele>273</ele>
        <time>2017-12-29T10:17:17Z</time>
      </trkpt>
      <trkpt lat="45.95028" lon="4.86612">
        <ele>273</ele>
        <time>2017-12-29T10:17:19Z</time>
      </trkpt>
      <trkpt lat="45.95025" lon="4.86612">
        <ele>273</ele>
        <time>2017-12-29T10:17:20Z</time>
      </trkpt>
      <trkpt lat="45.95019" lon="4.86614">
        <ele>273</ele>
        <time>2017-12-29T10:17:22Z</time>
      </trkpt>
      <trkpt lat="45.95016" lon="4.86615">
        <ele>273</ele>
        <time>2017-12-29T10:17:23Z</time>
      </trkpt>
      <trkpt lat="45.9501" lon="4.86616">
        <ele>273</ele>
        <time>2017-12-29T10:17:25Z</time>
      </trkpt>
      <trkpt lat="45.95007" lon="4.86616">
        <ele>273</ele>
        <time>2017-12-29T10:17:26Z</time>
      </trkpt>
      <trkpt lat="45.95" lon="4.86617">
        <ele>275</ele>
        <time>2017-12-29T10:17:28Z</time>
      </trkpt>
      <trkpt lat="45.94996" lon="4.86617">
        <ele>275</ele>
        <time>2017-12-29T10:17:29Z</time>
      </trkpt>
      <trkpt lat="45.94989" lon="4.86617">
        <ele>275</ele>
        <time>2017-12-29T10:17:31Z</time>
      </trkpt>
      <trkpt lat="45.94986" lon="4.86617">
        <ele>275</ele>
        <time>2017-12-29T10:17:32Z</time>
      </trkpt>
      <trkpt lat="45.9498" lon="4.86618">
        <ele>275</ele>
        <time>2017-12-29T10:17:34Z</time>
      </trkpt>
      <trkpt lat="45.94977" lon="4.86619">
        <ele>275</ele>
        <time>2017-12-29T10:17:35Z</time>
      </trkpt>
      <trkpt lat="45.94971" lon="4.86623">
        <ele>275</ele>
        <time>2017-12-29T10:17:37Z</time>
      </trkpt>
      <trkpt lat="45.94968" lon="4.86626">
        <ele>275</ele>
        <time>2017-12-29T10:17:38Z</time>
      </trkpt>
      <trkpt lat="45.94962" lon="4.86632">
        <ele>275</ele>
        <time>2017-12-29T10:17:40Z</time>
      </trkpt>
      <trkpt lat="45.94959" lon="4.86636">
        <ele>275</ele>
        <time>2017-12-29T10:17:41Z</time>
      </trkpt>
      <trkpt lat="45.94954" lon="4.86646">
        <ele>276</ele>
        <time>2017-12-29T10:17:43Z</time>
      </trkpt>
      <trkpt lat="45.94952" lon="4.86652">
        <ele>276</ele>
        <time>2017-12-29T10:17:44Z</time>
      </trkpt>
      <trkpt lat="45.9495" lon="4.86662">
        <ele>276</ele>
        <time>2017-12-29T10:17:46Z</time>
      </trkpt>
      <trkpt lat="45.94949" lon="4.86667">
        <ele>276</ele>
        <time>2017-12-29T10:17:47Z</time>
      </trkpt>
      <trkpt lat="45.94948" lon="4.86679">
        <ele>276</ele>
        <time>2017-12-29T10:17:49Z</time>
      </trkpt>
      <trkpt lat="45.94948" lon="4.86685">
        <ele>276</ele>
        <time>2017-12-29T10:17:50Z</time>
      </trkpt>
      <trkpt lat="45.9495" lon="4.86692">
        <ele>275</ele>
        <time>2017-12-29T10:17:51Z</time>
      </trkpt>
      <trkpt lat="45.9495" lon="4.86698">
        <ele>275</ele>
        <time>2017-12-29T10:17:52Z</time>
      </trkpt>
      <trkpt lat="45.94952" lon="4.86708">
        <ele>275</ele>
        <time>2017-12-29T10:17:54Z</time>
      </trkpt>
      <trkpt lat="45.94953" lon="4.86713">
        <ele>275</ele>
        <time>2017-12-29T10:17:55Z</time>
      </trkpt>
      <trkpt lat="45.94956" lon="4.86724">
        <ele>275</ele>
        <time>2017-12-29T10:17:57Z</time>
      </trkpt>
      <trkpt lat="45.94957" lon="4.86728">
        <ele>275</ele>
        <time>2017-12-29T10:17:58Z</time>
      </trkpt>
      <trkpt lat="45.9496" lon="4.86737">
        <ele>275</ele>
        <time>2017-12-29T10:18:00Z</time>
      </trkpt>
      <trkpt lat="45.94961" lon="4.86741">
        <ele>275</ele>
        <time>2017-12-29T10:18:01Z</time>
      </trkpt>
      <trkpt lat="45.94965" lon="4.86749">
        <ele>275</ele>
        <time>2017-12-29T10:18:03Z</time>
      </trkpt>
      <trkpt lat="45.94967" lon="4.86753">
        <ele>275</ele>
        <time>2017-12-29T10:18:04Z</time>
      </trkpt>
      <trkpt lat="45.94972" lon="4.86761">
        <ele>275</ele>
        <time>2017-12-29T10:18:06Z</time>
      </trkpt>
      <trkpt lat="45.94975" lon="4.86766">
        <ele>275</ele>
        <time>2017-12-29T10:18:07Z</time>
      </trkpt>
      <trkpt lat="45.9498" lon="4.86774">
        <ele>275</ele>
        <time>2017-12-29T10:18:09Z</time>
      </trkpt>
      <trkpt lat="45.94982" lon="4.86779">
        <ele>275</ele>
        <time>2017-12-29T10:18:10Z</time>
      </trkpt>
      <trkpt lat="45.94987" lon="4.86787">
        <ele>275</ele>
        <time>2017-12-29T10:18:12Z</time>
      </trkpt>
      <trkpt lat="45.94989" lon="4.8679">
        <ele>275</ele>
        <time>2017-12-29T10:18:13Z</time>
      </trkpt>
      <trkpt lat="45.94994" lon="4.868">
        <ele>276</ele>
        <time>2017-12-29T10:18:15Z</time>
      </trkpt>
      <trkpt lat="45.94996" lon="4.86805">
        <ele>276</ele>
        <time>2017-12-29T10:18:16Z</time>
      </trkpt>
      <trkpt lat="45.95" lon="4.8681">
        <ele>276</ele>
        <time>2017-12-29T10:18:17Z</time>
      </trkpt>
      <trkpt lat="45.95002" lon="4.86816">
        <ele>275</ele>
        <time>2017-12-29T10:18:18Z</time>
      </trkpt>
      <trkpt lat="45.95007" lon="4.86827">
        <ele>275</ele>
        <time>2017-12-29T10:18:20Z</time>
      </trkpt>
      <trkpt lat="45.9501" lon="4.86832">
        <ele>275</ele>
        <time>2017-12-29T10:18:21Z</time>
      </trkpt>
      <trkpt lat="45.95011" lon="4.86839">
        <ele>276</ele>
        <time>2017-12-29T10:18:22Z</time>
      </trkpt>
      <trkpt lat="45.95013" lon="4.86844">
        <ele>275</ele>
        <time>2017-12-29T10:18:23Z</time>
      </trkpt>
      <trkpt lat="45.95016" lon="4.86856">
        <ele>275</ele>
        <time>2017-12-29T10:18:25Z</time>
      </trkpt>
      <trkpt lat="45.95019" lon="4.86861">
        <ele>275</ele>
        <time>2017-12-29T10:18:26Z</time>
      </trkpt>
      <trkpt lat="45.95022" lon="4.86872">
        <ele>275</ele>
        <time>2017-12-29T10:18:28Z</time>
      </trkpt>
      <trkpt lat="45.95023" lon="4.86877">
        <ele>275</ele>
        <time>2017-12-29T10:18:29Z</time>
      </trkpt>
      <trkpt lat="45.95025" lon="4.86883">
        <ele>275</ele>
        <time>2017-12-29T10:18:30Z</time>
      </trkpt>
      <trkpt lat="45.95027" lon="4.86889">
        <ele>275</ele>
        <time>2017-12-29T10:18:31Z</time>
      </trkpt>
      <trkpt lat="45.95028" lon="4.86896">
        <ele>275</ele>
        <time>2017-12-29T10:18:32Z</time>
      </trkpt>
      <trkpt lat="45.95031" lon="4.86902">
        <ele>275</ele>
        <time>2017-12-29T10:18:33Z</time>
      </trkpt>
      <trkpt lat="45.95033" lon="4.8691">
        <ele>275</ele>
        <time>2017-12-29T10:18:34Z</time>
      </trkpt>
      <trkpt lat="45.95035" lon="4.86917">
        <ele>276</ele>
        <time>2017-12-29T10:18:35Z</time>
      </trkpt>
      <trkpt lat="45.95037" lon="4.86924">
        <ele>276</ele>
        <time>2017-12-29T10:18:36Z</time>
      </trkpt>
      <trkpt lat="45.95039" lon="4.86931">
        <ele>276</ele>
        <time>2017-12-29T10:18:37Z</time>
      </trkpt>
      <trkpt lat="45.95043" lon="4.86941">
        <ele>276</ele>
        <time>2017-12-29T10:18:39Z</time>
      </trkpt>
      <trkpt lat="45.95044" lon="4.86945">
        <ele>276</ele>
        <time>2017-12-29T10:18:40Z</time>
      </trkpt>
      <trkpt lat="45.95048" lon="4.86956">
        <ele>276</ele>
        <time>2017-12-29T10:18:42Z</time>
      </trkpt>
      <trkpt lat="45.95049" lon="4.86961">
        <ele>276</ele>
        <time>2017-12-29T10:18:43Z</time>
      </trkpt>
      <trkpt lat="45.95054" lon="4.86972">
        <ele>276</ele>
        <time>2017-12-29T10:18:45Z</time>
      </trkpt>
      <trkpt lat="45.95056" lon="4.86977">
        <ele>276</ele>
        <time>2017-12-29T10:18:46Z</time>
      </trkpt>
      <trkpt lat="45.9506" lon="4.86988">
        <ele>276</ele>
        <time>2017-12-29T10:18:48Z</time>
      </trkpt>
      <trkpt lat="45.95062" lon="4.86994">
        <ele>276</ele>
        <time>2017-12-29T10:18:49Z</time>
      </trkpt>
      <trkpt lat="45.95066" lon="4.87005">
        <ele>277</ele>
        <time>2017-12-29T10:18:51Z</time>
      </trkpt>
      <trkpt lat="45.95068" lon="4.8701">
        <ele>277</ele>
        <time>2017-12-29T10:18:52Z</time>
      </trkpt>
      <trkpt lat="45.95071" lon="4.87016">
        <ele>277</ele>
        <time>2017-12-29T10:18:53Z</time>
      </trkpt>
      <trkpt lat="45.95073" lon="4.87021">
        <ele>277</ele>
        <time>2017-12-29T10:18:54Z</time>
      </trkpt>
      <trkpt lat="45.95078" lon="4.8703">
        <ele>277</ele>
        <time>2017-12-29T10:18:56Z</time>
      </trkpt>
      <trkpt lat="45.95082" lon="4.87036">
        <ele>277</ele>
        <time>2017-12-29T10:18:57Z</time>
      </trkpt>
      <trkpt lat="45.95087" lon="4.87045">
        <ele>277</ele>
        <time>2017-12-29T10:18:59Z</time>
      </trkpt>
      <trkpt lat="45.9509" lon="4.8705">
        <ele>277</ele>
        <time>2017-12-29T10:19:00Z</time>
      </trkpt>
      <trkpt lat="45.95095" lon="4.87058">
        <ele>277</ele>
        <time>2017-12-29T10:19:02Z</time>
      </trkpt>
      <trkpt lat="45.95097" lon="4.87062">
        <ele>277</ele>
        <time>2017-12-29T10:19:03Z</time>
      </trkpt>
      <trkpt lat="45.95102" lon="4.8707">
        <ele>277</ele>
        <time>2017-12-29T10:19:05Z</time>
      </trkpt>
      <trkpt lat="45.95103" lon="4.87075">
        <ele>277</ele>
        <time>2017-12-29T10:19:06Z</time>
      </trkpt>
      <trkpt lat="45.95106" lon="4.87082">
        <ele>277</ele>
        <time>2017-12-29T10:19:08Z</time>
      </trkpt>
      <trkpt lat="45.95107" lon="4.87087">
        <ele>277</ele>
        <time>2017-12-29T10:19:09Z</time>
      </trkpt>
      <trkpt lat="45.95109" lon="4.87096">
        <ele>277</ele>
        <time>2017-12-29T10:19:11Z</time>
      </trkpt>
      <trkpt lat="45.95111" lon="4.87101">
        <ele>277</ele>
        <time>2017-12-29T10:19:12Z</time>
      </trkpt>
      <trkpt lat="45.95112" lon="4.87106">
        <ele>277</ele>
        <time>2017-12-29T10:19:13Z</time>
      </trkpt>
      <trkpt lat="45.95115" lon="4.87113">
        <ele>277</ele>
        <time>2017-12-29T10:19:14Z</time>
      </trkpt>
      <trkpt lat="45.95118" lon="4.87124">
        <ele>276</ele>
        <time>2017-12-29T10:19:16Z</time>
      </trkpt>
      <trkpt lat="45.95119" lon="4.87129">
        <ele>276</ele>
        <time>2017-12-29T10:19:17Z</time>
      </trkpt>
      <trkpt lat="45.95121" lon="4.8714">
        <ele>276</ele>
        <time>2017-12-29T10:19:19Z</time>
      </trkpt>
      <trkpt lat="45.95121" lon="4.87146">
        <ele>276</ele>
        <time>2017-12-29T10:19:20Z</time>
      </trkpt>
      <trkpt lat="45.95124" lon="4.87157">
        <ele>276</ele>
        <time>2017-12-29T10:19:22Z</time>
      </trkpt>
      <trkpt lat="45.95125" lon="4.87163">
        <ele>276</ele>
        <time>2017-12-29T10:19:23Z</time>
      </trkpt>
      <trkpt lat="45.95126" lon="4.87171">
        <ele>276</ele>
        <time>2017-12-29T10:19:24Z</time>
      </trkpt>
      <trkpt lat="45.95128" lon="4.87177">
        <ele>276</ele>
        <time>2017-12-29T10:19:25Z</time>
      </trkpt>
      <trkpt lat="45.95129" lon="4.87184">
        <ele>276</ele>
        <time>2017-12-29T10:19:26Z</time>
      </trkpt>
      <trkpt lat="45.95131" lon="4.87191">
        <ele>276</ele>
        <time>2017-12-29T10:19:27Z</time>
      </trkpt>
      <trkpt lat="45.95131" lon="4.87198">
        <ele>276</ele>
        <time>2017-12-29T10:19:28Z</time>
      </trkpt>
      <trkpt lat="45.95133" lon="4.87205">
        <ele>276</ele>
        <time>2017-12-29T10:19:29Z</time>
      </trkpt>
      <trkpt lat="45.95135" lon="4.87212">
        <ele>276</ele>
        <time>2017-12-29T10:19:30Z</time>
      </trkpt>
      <trkpt lat="45.95137" lon="4.87217">
        <ele>276</ele>
        <time>2017-12-29T10:19:31Z</time>
      </trkpt>
      <trkpt lat="45.95139" lon="4.87226">
        <ele>276</ele>
        <time>2017-12-29T10:19:32Z</time>
      </trkpt>
      <trkpt lat="45.9514" lon="4.87233">
        <ele>276</ele>
        <time>2017-12-29T10:19:33Z</time>
      </trkpt>
      <trkpt lat="45.95142" lon="4.87241">
        <ele>275</ele>
        <time>2017-12-29T10:19:34Z</time>
      </trkpt>
      <trkpt lat="45.95143" lon="4.87247">
        <ele>275</ele>
        <time>2017-12-29T10:19:35Z</time>
      </trkpt>
      <trkpt lat="45.95145" lon="4.87255">
        <ele>274</ele>
        <time>2017-12-29T10:19:36Z</time>
      </trkpt>
      <trkpt lat="45.95147" lon="4.87264">
        <ele>274</ele>
        <time>2017-12-29T10:19:37Z</time>
      </trkpt>
      <trkpt lat="45.95148" lon="4.87273">
        <ele>274</ele>
        <time>2017-12-29T10:19:38Z</time>
      </trkpt>
      <trkpt lat="45.9515" lon="4.87283">
        <ele>274</ele>
        <time>2017-12-29T10:19:39Z</time>
      </trkpt>
      <trkpt lat="45.95152" lon="4.87292">
        <ele>274</ele>
        <time>2017-12-29T10:19:40Z</time>
      </trkpt>
      <trkpt lat="45.95153" lon="4.87301">
        <ele>274</ele>
        <time>2017-12-29T10:19:41Z</time>
      </trkpt>
      <trkpt lat="45.95155" lon="4.8731">
        <ele>273</ele>
        <time>2017-12-29T10:19:42Z</time>
      </trkpt>
      <trkpt lat="45.95156" lon="4.87318">
        <ele>273</ele>
        <time>2017-12-29T10:19:43Z</time>
      </trkpt>
      <trkpt lat="45.95158" lon="4.87327">
        <ele>272</ele>
        <time>2017-12-29T10:19:44Z</time>
      </trkpt>
      <trkpt lat="45.9516" lon="4.87335">
        <ele>272</ele>
        <time>2017-12-29T10:19:45Z</time>
      </trkpt>
      <trkpt lat="45.95161" lon="4.87343">
        <ele>272</ele>
        <time>2017-12-29T10:19:46Z</time>
      </trkpt>
      <trkpt lat="45.95162" lon="4.87351">
        <ele>272</ele>
        <time>2017-12-29T10:19:47Z</time>
      </trkpt>
      <trkpt lat="45.95164" lon="4.87359">
        <ele>272</ele>
        <time>2017-12-29T10:19:48Z</time>
      </trkpt>
      <trkpt lat="45.95166" lon="4.87367">
        <ele>272</ele>
        <time>2017-12-29T10:19:49Z</time>
      </trkpt>
      <trkpt lat="45.95167" lon="4.87375">
        <ele>271</ele>
        <time>2017-12-29T10:19:50Z</time>
      </trkpt>
      <trkpt lat="45.95169" lon="4.87383">
        <ele>271</ele>
        <time>2017-12-29T10:19:51Z</time>
      </trkpt>
      <trkpt lat="45.95171" lon="4.87389">
        <ele>271</ele>
        <time>2017-12-29T10:19:52Z</time>
      </trkpt>
      <trkpt lat="45.95172" lon="4.87397">
        <ele>271</ele>
        <time>2017-12-29T10:19:53Z</time>
      </trkpt>
      <trkpt lat="45.95173" lon="4.87403">
        <ele>271</ele>
        <time>2017-12-29T10:19:54Z</time>
      </trkpt>
      <trkpt lat="45.95175" lon="4.87409">
        <ele>271</ele>
        <time>2017-12-29T10:19:55Z</time>
      </trkpt>
      <trkpt lat="45.95177" lon="4.87416">
        <ele>271</ele>
        <time>2017-12-29T10:19:56Z</time>
      </trkpt>
      <trkpt lat="45.9518" lon="4.87422">
        <ele>271</ele>
        <time>2017-12-29T10:19:57Z</time>
      </trkpt>
      <trkpt lat="45.95182" lon="4.87429">
        <ele>271</ele>
        <time>2017-12-29T10:19:58Z</time>
      </trkpt>
      <trkpt lat="45.95184" lon="4.87437">
        <ele>272</ele>
        <time>2017-12-29T10:19:59Z</time>
      </trkpt>
      <trkpt lat="45.95187" lon="4.87444">
        <ele>272</ele>
        <time>2017-12-29T10:20:00Z</time>
      </trkpt>
      <trkpt lat="45.95188" lon="4.87451">
        <ele>272</ele>
        <time>2017-12-29T10:20:01Z</time>
      </trkpt>
      <trkpt lat="45.95191" lon="4.87458">
        <ele>272</ele>
        <time>2017-12-29T10:20:02Z</time>
      </trkpt>
      <trkpt lat="45.95192" lon="4.87464">
        <ele>272</ele>
        <time>2017-12-29T10:20:03Z</time>
      </trkpt>
      <trkpt lat="45.95192" lon="4.87471">
        <ele>272</ele>
        <time>2017-12-29T10:20:04Z</time>
      </trkpt>
      <trkpt lat="45.95193" lon="4.87478">
        <ele>272</ele>
        <time>2017-12-29T10:20:05Z</time>
      </trkpt>
      <trkpt lat="45.95196" lon="4.87487">
        <ele>272</ele>
        <time>2017-12-29T10:20:07Z</time>
      </trkpt>
      <trkpt lat="45.95197" lon="4.87494">
        <ele>272</ele>
        <time>2017-12-29T10:20:08Z</time>
      </trkpt>
      <trkpt lat="45.95201" lon="4.87505">
        <ele>273</ele>
        <time>2017-12-29T10:20:10Z</time>
      </trkpt>
      <trkpt lat="45.95202" lon="4.87511">
        <ele>273</ele>
        <time>2017-12-29T10:20:11Z</time>
      </trkpt>
      <trkpt lat="45.95204" lon="4.87522">
        <ele>274</ele>
        <time>2017-12-29T10:20:13Z</time>
      </trkpt>
      <trkpt lat="45.95206" lon="4.87529">
        <ele>274</ele>
        <time>2017-12-29T10:20:14Z</time>
      </trkpt>
      <trkpt lat="45.95207" lon="4.87537">
        <ele>274</ele>
        <time>2017-12-29T10:20:15Z</time>
      </trkpt>
      <trkpt lat="45.95209" lon="4.87544">
        <ele>274</ele>
        <time>2017-12-29T10:20:16Z</time>
      </trkpt>
      <trkpt lat="45.95211" lon="4.87556">
        <ele>274</ele>
        <time>2017-12-29T10:20:18Z</time>
      </trkpt>
      <trkpt lat="45.95211" lon="4.87563">
        <ele>274</ele>
        <time>2017-12-29T10:20:19Z</time>
      </trkpt>
      <trkpt lat="45.95212" lon="4.87575">
        <ele>274</ele>
        <time>2017-12-29T10:20:21Z</time>
      </trkpt>
      <trkpt lat="45.95212" lon="4.87581">
        <ele>274</ele>
        <time>2017-12-29T10:20:22Z</time>
      </trkpt>
      <trkpt lat="45.95213" lon="4.87591">
        <ele>276</ele>
        <time>2017-12-29T10:20:24Z</time>
      </trkpt>
      <trkpt lat="45.95214" lon="4.87597">
        <ele>276</ele>
        <time>2017-12-29T10:20:25Z</time>
      </trkpt>
      <trkpt lat="45.95215" lon="4.87607">
        <ele>276</ele>
        <time>2017-12-29T10:20:27Z</time>
      </trkpt>
      <trkpt lat="45.95215" lon="4.87612">
        <ele>276</ele>
        <time>2017-12-29T10:20:28Z</time>
      </trkpt>
      <trkpt lat="45.95215" lon="4.87623">
        <ele>276</ele>
        <time>2017-12-29T10:20:30Z</time>
      </trkpt>
      <trkpt lat="45.95215" lon="4.87628">
        <ele>276</ele>
        <time>2017-12-29T10:20:31Z</time>
      </trkpt>
      <trkpt lat="45.95217" lon="4.87637">
        <ele>276</ele>
        <time>2017-12-29T10:20:33Z</time>
      </trkpt>
      <trkpt lat="45.95218" lon="4.87643">
        <ele>276</ele>
        <time>2017-12-29T10:20:34Z</time>
      </trkpt>
      <trkpt lat="45.95219" lon="4.87652">
        <ele>276</ele>
        <time>2017-12-29T10:20:36Z</time>
      </trkpt>
      <trkpt lat="45.95219" lon="4.87657">
        <ele>276</ele>
        <time>2017-12-29T10:20:37Z</time>
      </trkpt>
      <trkpt lat="45.9522" lon="4.87666">
        <ele>276</ele>
        <time>2017-12-29T10:20:39Z</time>
      </trkpt>
      <trkpt lat="45.95222" lon="4.87671">
        <ele>278</ele>
        <time>2017-12-29T10:20:40Z</time>
      </trkpt>
      <trkpt lat="45.95224" lon="4.87681">
        <ele>278</ele>
        <time>2017-12-29T10:20:42Z</time>
      </trkpt>
      <trkpt lat="45.95225" lon="4.87686">
        <ele>279</ele>
        <time>2017-12-29T10:20:43Z</time>
      </trkpt>
      <trkpt lat="45.95226" lon="4.87695">
        <ele>279</ele>
        <time>2017-12-29T10:20:45Z</time>
      </trkpt>
      <trkpt lat="45.95228" lon="4.877">
        <ele>279</ele>
        <time>2017-12-29T10:20:46Z</time>
      </trkpt>
      <trkpt lat="45.9523" lon="4.87709">
        <ele>279</ele>
        <time>2017-12-29T10:20:48Z</time>
      </trkpt>
      <trkpt lat="45.95231" lon="4.87712">
        <ele>279</ele>
        <time>2017-12-29T10:20:49Z</time>
      </trkpt>
      <trkpt lat="45.95233" lon="4.87723">
        <ele>279</ele>
        <time>2017-12-29T10:20:52Z</time>
      </trkpt>
      <trkpt lat="45.95234" lon="4.87727">
        <ele>280</ele>
        <time>2017-12-29T10:20:53Z</time>
      </trkpt>
      <trkpt lat="45.95237" lon="4.87737">
        <ele>280</ele>
        <time>2017-12-29T10:20:55Z</time>
      </trkpt>
      <trkpt lat="45.95238" lon="4.87741">
        <ele>280</ele>
        <time>2017-12-29T10:20:56Z</time>
      </trkpt>
      <trkpt lat="45.95239" lon="4.87751">
        <ele>281</ele>
        <time>2017-12-29T10:20:58Z</time>
      </trkpt>
      <trkpt lat="45.9524" lon="4.87756">
        <ele>281</ele>
        <time>2017-12-29T10:20:59Z</time>
      </trkpt>
      <trkpt lat="45.95241" lon="4.87767">
        <ele>281</ele>
        <time>2017-12-29T10:21:01Z</time>
      </trkpt>
      <trkpt lat="45.95242" lon="4.87772">
        <ele>282</ele>
        <time>2017-12-29T10:21:02Z</time>
      </trkpt>
      <trkpt lat="45.95244" lon="4.87783">
        <ele>282</ele>
        <time>2017-12-29T10:21:04Z</time>
      </trkpt>
      <trkpt lat="45.95245" lon="4.87789">
        <ele>282</ele>
        <time>2017-12-29T10:21:05Z</time>
      </trkpt>
      <trkpt lat="45.95248" lon="4.87799">
        <ele>282</ele>
        <time>2017-12-29T10:21:07Z</time>
      </trkpt>
      <trkpt lat="45.95248" lon="4.87803">
        <ele>282</ele>
        <time>2017-12-29T10:21:08Z</time>
      </trkpt>
      <trkpt lat="45.9525" lon="4.87812">
        <ele>282</ele>
        <time>2017-12-29T10:21:10Z</time>
      </trkpt>
      <trkpt lat="45.95251" lon="4.87817">
        <ele>281</ele>
        <time>2017-12-29T10:21:11Z</time>
      </trkpt>
      <trkpt lat="45.95252" lon="4.87827">
        <ele>281</ele>
        <time>2017-12-29T10:21:13Z</time>
      </trkpt>
      <trkpt lat="45.95252" lon="4.87832">
        <ele>282</ele>
        <time>2017-12-29T10:21:14Z</time>
      </trkpt>
      <trkpt lat="45.95254" lon="4.87843">
        <ele>281</ele>
        <time>2017-12-29T10:21:16Z</time>
      </trkpt>
      <trkpt lat="45.95255" lon="4.87848">
        <ele>281</ele>
        <time>2017-12-29T10:21:17Z</time>
      </trkpt>
      <trkpt lat="45.95257" lon="4.87858">
        <ele>281</ele>
        <time>2017-12-29T10:21:19Z</time>
      </trkpt>
      <trkpt lat="45.95258" lon="4.87863">
        <ele>281</ele>
        <time>2017-12-29T10:21:20Z</time>
      </trkpt>
      <trkpt lat="45.9526" lon="4.87876">
        <ele>280</ele>
        <time>2017-12-29T10:21:22Z</time>
      </trkpt>
      <trkpt lat="45.95261" lon="4.87882">
        <ele>281</ele>
        <time>2017-12-29T10:21:23Z</time>
      </trkpt>
      <trkpt lat="45.95263" lon="4.87893">
        <ele>281</ele>
        <time>2017-12-29T10:21:25Z</time>
      </trkpt>
      <trkpt lat="45.95264" lon="4.87899">
        <ele>281</ele>
        <time>2017-12-29T10:21:26Z</time>
      </trkpt>
      <trkpt lat="45.95265" lon="4.8791">
        <ele>281</ele>
        <time>2017-12-29T10:21:28Z</time>
      </trkpt>
      <trkpt lat="45.95266" lon="4.87916">
        <ele>281</ele>
        <time>2017-12-29T10:21:29Z</time>
      </trkpt>
      <trkpt lat="45.95266" lon="4.87926">
        <ele>281</ele>
        <time>2017-12-29T10:21:31Z</time>
      </trkpt>
      <trkpt lat="45.95266" lon="4.87931">
        <ele>280</ele>
        <time>2017-12-29T10:21:32Z</time>
      </trkpt>
      <trkpt lat="45.95265" lon="4.87942">
        <ele>280</ele>
        <time>2017-12-29T10:21:34Z</time>
      </trkpt>
      <trkpt lat="45.95264" lon="4.87947">
        <ele>280</ele>
        <time>2017-12-29T10:21:35Z</time>
      </trkpt>
      <trkpt lat="45.95261" lon="4.87957">
        <ele>280</ele>
        <time>2017-12-29T10:21:37Z</time>
      </trkpt>
      <trkpt lat="45.95259" lon="4.87962">
        <ele>280</ele>
        <time>2017-12-29T10:21:38Z</time>
      </trkpt>
      <trkpt lat="45.95253" lon="4.8797">
        <ele>280</ele>
        <time>2017-12-29T10:21:40Z</time>
      </trkpt>
      <trkpt lat="45.9525" lon="4.87974">
        <ele>280</ele>
        <time>2017-12-29T10:21:41Z</time>
      </trkpt>
      <trkpt lat="45.95244" lon="4.8798">
        <ele>281</ele>
        <time>2017-12-29T10:21:43Z</time>
      </trkpt>
      <trkpt lat="45.95242" lon="4.87983">
        <ele>281</ele>
        <time>2017-12-29T10:21:44Z</time>
      </trkpt>
      <trkpt lat="45.95235" lon="4.8799">
        <ele>281</ele>
        <time>2017-12-29T10:21:46Z</time>
      </trkpt>
      <trkpt lat="45.95232" lon="4.87994">
        <ele>281</ele>
        <time>2017-12-29T10:21:47Z</time>
      </trkpt>
      <trkpt lat="45.95229" lon="4.87998">
        <ele>281</ele>
        <time>2017-12-29T10:21:48Z</time>
      </trkpt>
      <trkpt lat="45.95225" lon="4.88004">
        <ele>281</ele>
        <time>2017-12-29T10:21:49Z</time>
      </trkpt>
      <trkpt lat="45.95223" lon="4.8801">
        <ele>281</ele>
        <time>2017-12-29T10:21:50Z</time>
      </trkpt>
      <trkpt lat="45.9522" lon="4.88015">
        <ele>281</ele>
        <time>2017-12-29T10:21:51Z</time>
      </trkpt>
      <trkpt lat="45.95214" lon="4.88024">
        <ele>281</ele>
        <time>2017-12-29T10:21:53Z</time>
      </trkpt>
      <trkpt lat="45.95211" lon="4.88028">
        <ele>281</ele>
        <time>2017-12-29T10:21:54Z</time>
      </trkpt>
      <trkpt lat="45.95206" lon="4.88037">
        <ele>281</ele>
        <time>2017-12-29T10:21:56Z</time>
      </trkpt>
      <trkpt lat="45.95204" lon="4.88041">
        <ele>281</ele>
        <time>2017-12-29T10:21:57Z</time>
      </trkpt>
      <trkpt lat="45.952" lon="4.8805">
        <ele>281</ele>
        <time>2017-12-29T10:21:59Z</time>
      </trkpt>
      <trkpt lat="45.95197" lon="4.88056">
        <ele>281</ele>
        <time>2017-12-29T10:22:00Z</time>
      </trkpt>
      <trkpt lat="45.95194" lon="4.88068">
        <ele>281</ele>
        <time>2017-12-29T10:22:02Z</time>
      </trkpt>
      <trkpt lat="45.95192" lon="4.88073">
        <ele>281</ele>
        <time>2017-12-29T10:22:03Z</time>
      </trkpt>
      <trkpt lat="45.95189" lon="4.88085">
        <ele>282</ele>
        <time>2017-12-29T10:22:05Z</time>
      </trkpt>
      <trkpt lat="45.95188" lon="4.88091">
        <ele>282</ele>
        <time>2017-12-29T10:22:06Z</time>
      </trkpt>
      <trkpt lat="45.95186" lon="4.88102">
        <ele>282</ele>
        <time>2017-12-29T10:22:08Z</time>
      </trkpt>
      <trkpt lat="45.95185" lon="4.88106">
        <ele>282</ele>
        <time>2017-12-29T10:22:09Z</time>
      </trkpt>
      <trkpt lat="45.95184" lon="4.88115">
        <ele>282</ele>
        <time>2017-12-29T10:22:11Z</time>
      </trkpt>
      <trkpt lat="45.95183" lon="4.8812">
        <ele>282</ele>
        <time>2017-12-29T10:22:12Z</time>
      </trkpt>
      <trkpt lat="45.95181" lon="4.88131">
        <ele>282</ele>
        <time>2017-12-29T10:22:14Z</time>
      </trkpt>
      <trkpt lat="45.95179" lon="4.88135">
        <ele>283</ele>
        <time>2017-12-29T10:22:15Z</time>
      </trkpt>
      <trkpt lat="45.95177" lon="4.88145">
        <ele>283</ele>
        <time>2017-12-29T10:22:17Z</time>
      </trkpt>
      <trkpt lat="45.95176" lon="4.88151">
        <ele>283</ele>
        <time>2017-12-29T10:22:18Z</time>
      </trkpt>
      <trkpt lat="45.95174" lon="4.8816">
        <ele>284</ele>
        <time>2017-12-29T10:22:20Z</time>
      </trkpt>
      <trkpt lat="45.95173" lon="4.88165">
        <ele>284</ele>
        <time>2017-12-29T10:22:21Z</time>
      </trkpt>
      <trkpt lat="45.95175" lon="4.88177">
        <ele>285</ele>
        <time>2017-12-29T10:22:24Z</time>
      </trkpt>
      <trkpt lat="45.95178" lon="4.8818">
        <ele>285</ele>
        <time>2017-12-29T10:22:25Z</time>
      </trkpt>
      <trkpt lat="45.95186" lon="4.88181">
        <ele>285</ele>
        <time>2017-12-29T10:22:27Z</time>
      </trkpt>
      <trkpt lat="45.9519" lon="4.88179">
        <ele>285</ele>
        <time>2017-12-29T10:22:28Z</time>
      </trkpt>
      <trkpt lat="45.95195" lon="4.88178">
        <ele>285</ele>
        <time>2017-12-29T10:22:29Z</time>
      </trkpt>
      <trkpt lat="45.95201" lon="4.88174">
        <ele>285</ele>
        <time>2017-12-29T10:22:30Z</time>
      </trkpt>
      <trkpt lat="45.95205" lon="4.88173">
        <ele>285</ele>
        <time>2017-12-29T10:22:31Z</time>
      </trkpt>
      <trkpt lat="45.9521" lon="4.88173">
        <ele>284</ele>
        <time>2017-12-29T10:22:32Z</time>
      </trkpt>
      <trkpt lat="45.95215" lon="4.88173">
        <ele>284</ele>
        <time>2017-12-29T10:22:33Z</time>
      </trkpt>
      <trkpt lat="45.9522" lon="4.88172">
        <ele>284</ele>
        <time>2017-12-29T10:22:34Z</time>
      </trkpt>
      <trkpt lat="45.95225" lon="4.88172">
        <ele>284</ele>
        <time>2017-12-29T10:22:35Z</time>
      </trkpt>
      <trkpt lat="45.95231" lon="4.88172">
        <ele>283</ele>
        <time>2017-12-29T10:22:36Z</time>
      </trkpt>
      <trkpt lat="45.95236" lon="4.88172">
        <ele>283</ele>
        <time>2017-12-29T10:22:37Z</time>
      </trkpt>
      <trkpt lat="45.95242" lon="4.88171">
        <ele>282</ele>
        <time>2017-12-29T10:22:38Z</time>
      </trkpt>
      <trkpt lat="45.95248" lon="4.88171">
        <ele>282</ele>
        <time>2017-12-29T10:22:39Z</time>
      </trkpt>
      <trkpt lat="45.95255" lon="4.88171">
        <ele>281</ele>
        <time>2017-12-29T10:22:40Z</time>
      </trkpt>
      <trkpt lat="45.95262" lon="4.88171">
        <ele>281</ele>
        <time>2017-12-29T10:22:41Z</time>
      </trkpt>
      <trkpt lat="45.95269" lon="4.88172">
        <ele>281</ele>
        <time>2017-12-29T10:22:42Z</time>
      </trkpt>
      <trkpt lat="45.95275" lon="4.88172">
        <ele>281</ele>
        <time>2017-12-29T10:22:43Z</time>
      </trkpt>
      <trkpt lat="45.95282" lon="4.88172">
        <ele>281</ele>
        <time>2017-12-29T10:22:44Z</time>
      </trkpt>
      <trkpt lat="45.9529" lon="4.88172">
        <ele>281</ele>
        <time>2017-12-29T10:22:45Z</time>
      </trkpt>
      <trkpt lat="45.95297" lon="4.88172">
        <ele>281</ele>
        <time>2017-12-29T10:22:46Z</time>
      </trkpt>
      <trkpt lat="45.95304" lon="4.88173">
        <ele>281</ele>
        <time>2017-12-29T10:22:47Z</time>
      </trkpt>
      <trkpt lat="45.95312" lon="4.88174">
        <ele>280</ele>
        <time>2017-12-29T10:22:48Z</time>
      </trkpt>
      <trkpt lat="45.95319" lon="4.88175">
        <ele>280</ele>
        <time>2017-12-29T10:22:49Z</time>
      </trkpt>
      <trkpt lat="45.95326" lon="4.88176">
        <ele>279</ele>
        <time>2017-12-29T10:22:50Z</time>
      </trkpt>
      <trkpt lat="45.95334" lon="4.88176">
        <ele>278</ele>
        <time>2017-12-29T10:22:51Z</time>
      </trkpt>
      <trkpt lat="45.95341" lon="4.88174">
        <ele>278</ele>
        <time>2017-12-29T10:22:52Z</time>
      </trkpt>
      <trkpt lat="45.95348" lon="4.88172">
        <ele>278</ele>
        <time>2017-12-29T10:22:53Z</time>
      </trkpt>
      <trkpt lat="45.95355" lon="4.88171">
        <ele>278</ele>
        <time>2017-12-29T10:22:54Z</time>
      </trkpt>
      <trkpt lat="45.95363" lon="4.88172">
        <ele>278</ele>
        <time>2017-12-29T10:22:55Z</time>
      </trkpt>
      <trkpt lat="45.9537" lon="4.8817">
        <ele>278</ele>
        <time>2017-12-29T10:22:56Z</time>
      </trkpt>
      <trkpt lat="45.95377" lon="4.88168">
        <ele>278</ele>
        <time>2017-12-29T10:22:57Z</time>
      </trkpt>
      <trkpt lat="45.95383" lon="4.88166">
        <ele>276</ele>
        <time>2017-12-29T10:22:58Z</time>
      </trkpt>
      <trkpt lat="45.9539" lon="4.88165">
        <ele>276</ele>
        <time>2017-12-29T10:22:59Z</time>
      </trkpt>
      <trkpt lat="45.95396" lon="4.88162">
        <ele>276</ele>
        <time>2017-12-29T10:23:00Z</time>
      </trkpt>
      <trkpt lat="45.95401" lon="4.88158">
        <ele>276</ele>
        <time>2017-12-29T10:23:01Z</time>
      </trkpt>
      <trkpt lat="45.95406" lon="4.88157">
        <ele>276</ele>
        <time>2017-12-29T10:23:02Z</time>
      </trkpt>
      <trkpt lat="45.95412" lon="4.88155">
        <ele>276</ele>
        <time>2017-12-29T10:23:03Z</time>
      </trkpt>
      <trkpt lat="45.95417" lon="4.88153">
        <ele>276</ele>
        <time>2017-12-29T10:23:04Z</time>
      </trkpt>
      <trkpt lat="45.95422" lon="4.8815">
        <ele>276</ele>
        <time>2017-12-29T10:23:05Z</time>
      </trkpt>
      <trkpt lat="45.95428" lon="4.88147">
        <ele>276</ele>
        <time>2017-12-29T10:23:06Z</time>
      </trkpt>
      <trkpt lat="45.95433" lon="4.88145">
        <ele>276</ele>
        <time>2017-12-29T10:23:07Z</time>
      </trkpt>
      <trkpt lat="45.95437" lon="4.88143">
        <ele>276</ele>
        <time>2017-12-29T10:23:08Z</time>
      </trkpt>
      <trkpt lat="45.95442" lon="4.88141">
        <ele>276</ele>
        <time>2017-12-29T10:23:09Z</time>
      </trkpt>
      <trkpt lat="45.95446" lon="4.88139">
        <ele>276</ele>
        <time>2017-12-29T10:23:10Z</time>
      </trkpt>
      <trkpt lat="45.95451" lon="4.88137">
        <ele>276</ele>
        <time>2017-12-29T10:23:11Z</time>
      </trkpt>
      <trkpt lat="45.95455" lon="4.88134">
        <ele>276</ele>
        <time>2017-12-29T10:23:12Z</time>
      </trkpt>
      <trkpt lat="45.9546" lon="4.88132">
        <ele>276</ele>
        <time>2017-12-29T10:23:13Z</time>
      </trkpt>
      <trkpt lat="45.95465" lon="4.8813">
        <ele>276</ele>
        <time>2017-12-29T10:23:14Z</time>
      </trkpt>
      <trkpt lat="45.9547" lon="4.88128">
        <ele>276</ele>
        <time>2017-12-29T10:23:15Z</time>
      </trkpt>
      <trkpt lat="45.95476" lon="4.88127">
        <ele>276</ele>
        <time>2017-12-29T10:23:16Z</time>
      </trkpt>
      <trkpt lat="45.9548" lon="4.88125">
        <ele>276</ele>
        <time>2017-12-29T10:23:17Z</time>
      </trkpt>
      <trkpt lat="45.95485" lon="4.88123">
        <ele>276</ele>
        <time>2017-12-29T10:23:18Z</time>
      </trkpt>
      <trkpt lat="45.95492" lon="4.88116">
        <ele>276</ele>
        <time>2017-12-29T10:23:20Z</time>
      </trkpt>
      <trkpt lat="45.95495" lon="4.88115">
        <ele>276</ele>
        <time>2017-12-29T10:23:21Z</time>
      </trkpt>
      <trkpt lat="45.95503" lon="4.88112">
        <ele>276</ele>
        <time>2017-12-29T10:23:23Z</time>
      </trkpt>
      <trkpt lat="45.95508" lon="4.8811">
        <ele>276</ele>
        <time>2017-12-29T10:23:24Z</time>
      </trkpt>
      <trkpt lat="45.95512" lon="4.88108">
        <ele>276</ele>
        <time>2017-12-29T10:23:25Z</time>
      </trkpt>
      <trkpt lat="45.95517" lon="4.88107">
        <ele>276</ele>
        <time>2017-12-29T10:23:26Z</time>
      </trkpt>
      <trkpt lat="45.95525" lon="4.88103">
        <ele>277</ele>
        <time>2017-12-29T10:23:28Z</time>
      </trkpt>
      <trkpt lat="45.95529" lon="4.88101">
        <ele>277</ele>
        <time>2017-12-29T10:23:29Z</time>
      </trkpt>
      <trkpt lat="45.95537" lon="4.88097">
        <ele>277</ele>
        <time>2017-12-29T10:23:31Z</time>
      </trkpt>
      <trkpt lat="45.95541" lon="4.88095">
        <ele>277</ele>
        <time>2017-12-29T10:23:32Z</time>
      </trkpt>
      <trkpt lat="45.95545" lon="4.88092">
        <ele>277</ele>
        <time>2017-12-29T10:23:33Z</time>
      </trkpt>
      <trkpt lat="45.95549" lon="4.8809">
        <ele>277</ele>
        <time>2017-12-29T10:23:34Z</time>
      </trkpt>
      <trkpt lat="45.95555" lon="4.88089">
        <ele>277</ele>
        <time>2017-12-29T10:23:35Z</time>
      </trkpt>
      <trkpt lat="45.9556" lon="4.88086">
        <ele>277</ele>
        <time>2017-12-29T10:23:36Z</time>
      </trkpt>
      <trkpt lat="45.95568" lon="4.88082">
        <ele>276</ele>
        <time>2017-12-29T10:23:38Z</time>
      </trkpt>
      <trkpt lat="45.95571" lon="4.88079">
        <ele>277</ele>
        <time>2017-12-29T10:23:39Z</time>
      </trkpt>
      <trkpt lat="45.95579" lon="4.88074">
        <ele>277</ele>
        <time>2017-12-29T10:23:41Z</time>
      </trkpt>
      <trkpt lat="45.95583" lon="4.8807">
        <ele>277</ele>
        <time>2017-12-29T10:23:42Z</time>
      </trkpt>
      <trkpt lat="45.95591" lon="4.88064">
        <ele>278</ele>
        <time>2017-12-29T10:23:44Z</time>
      </trkpt>
      <trkpt lat="45.95594" lon="4.8806">
        <ele>278</ele>
        <time>2017-12-29T10:23:45Z</time>
      </trkpt>
      <trkpt lat="45.95598" lon="4.88056">
        <ele>278</ele>
        <time>2017-12-29T10:23:46Z</time>
      </trkpt>
      <trkpt lat="45.95602" lon="4.88052">
        <ele>278</ele>
        <time>2017-12-29T10:23:47Z</time>
      </trkpt>
      <trkpt lat="45.95609" lon="4.88046">
        <ele>278</ele>
        <time>2017-12-29T10:23:49Z</time>
      </trkpt>
      <trkpt lat="45.95613" lon="4.88044">
        <ele>278</ele>
        <time>2017-12-29T10:23:50Z</time>
      </trkpt>
      <trkpt lat="45.95619" lon="4.88039">
        <ele>278</ele>
        <time>2017-12-29T10:23:52Z</time>
      </trkpt>
      <trkpt lat="45.95622" lon="4.88036">
        <ele>278</ele>
        <time>2017-12-29T10:23:53Z</time>
      </trkpt>
      <trkpt lat="45.95629" lon="4.8803">
        <ele>279</ele>
        <time>2017-12-29T10:23:55Z</time>
      </trkpt>
      <trkpt lat="45.95633" lon="4.88027">
        <ele>279</ele>
        <time>2017-12-29T10:23:56Z</time>
      </trkpt>
      <trkpt lat="45.95641" lon="4.88022">
        <ele>279</ele>
        <time>2017-12-29T10:23:58Z</time>
      </trkpt>
      <trkpt lat="45.95644" lon="4.88019">
        <ele>279</ele>
        <time>2017-12-29T10:23:59Z</time>
      </trkpt>
      <trkpt lat="45.95651" lon="4.88014">
        <ele>280</ele>
        <time>2017-12-29T10:24:01Z</time>
      </trkpt>
      <trkpt lat="45.95655" lon="4.88011">
        <ele>280</ele>
        <time>2017-12-29T10:24:02Z</time>
      </trkpt>
      <trkpt lat="45.95661" lon="4.88004">
        <ele>280</ele>
        <time>2017-12-29T10:24:04Z</time>
      </trkpt>
      <trkpt lat="45.95665" lon="4.88001">
        <ele>281</ele>
        <time>2017-12-29T10:24:05Z</time>
      </trkpt>
      <trkpt lat="45.95672" lon="4.87995">
        <ele>281</ele>
        <time>2017-12-29T10:24:07Z</time>
      </trkpt>
      <trkpt lat="45.95676" lon="4.87992">
        <ele>282</ele>
        <time>2017-12-29T10:24:08Z</time>
      </trkpt>
      <trkpt lat="45.95683" lon="4.87985">
        <ele>282</ele>
        <time>2017-12-29T10:24:10Z</time>
      </trkpt>
      <trkpt lat="45.95686" lon="4.87982">
        <ele>282</ele>
        <time>2017-12-29T10:24:11Z</time>
      </trkpt>
      <trkpt lat="45.95692" lon="4.87975">
        <ele>282</ele>
        <time>2017-12-29T10:24:13Z</time>
      </trkpt>
      <trkpt lat="45.95695" lon="4.87972">
        <ele>282</ele>
        <time>2017-12-29T10:24:14Z</time>
      </trkpt>
      <trkpt lat="45.95701" lon="4.87965">
        <ele>283</ele>
        <time>2017-12-29T10:24:16Z</time>
      </trkpt>
      <trkpt lat="45.95704" lon="4.87962">
        <ele>283</ele>
        <time>2017-12-29T10:24:17Z</time>
      </trkpt>
      <trkpt lat="45.95711" lon="4.87956">
        <ele>283</ele>
        <time>2017-12-29T10:24:19Z</time>
      </trkpt>
      <trkpt lat="45.95714" lon="4.87953">
        <ele>283</ele>
        <time>2017-12-29T10:24:20Z</time>
      </trkpt>
      <trkpt lat="45.95719" lon="4.87948">
        <ele>283</ele>
        <time>2017-12-29T10:24:22Z</time>
      </trkpt>
      <trkpt lat="45.95723" lon="4.87945">
        <ele>283</ele>
        <time>2017-12-29T10:24:23Z</time>
      </trkpt>
      <trkpt lat="45.95729" lon="4.87939">
        <ele>283</ele>
        <time>2017-12-29T10:24:25Z</time>
      </trkpt>
      <trkpt lat="45.95733" lon="4.87937">
        <ele>284</ele>
        <time>2017-12-29T10:24:26Z</time>
      </trkpt>
      <trkpt lat="45.95739" lon="4.87931">
        <ele>284</ele>
        <time>2017-12-29T10:24:28Z</time>
      </trkpt>
      <trkpt lat="45.95743" lon="4.87928">
        <ele>284</ele>
        <time>2017-12-29T10:24:29Z</time>
      </trkpt>
      <trkpt lat="45.95749" lon="4.87922">
        <ele>285</ele>
        <time>2017-12-29T10:24:31Z</time>
      </trkpt>
      <trkpt lat="45.95753" lon="4.8792">
        <ele>285</ele>
        <time>2017-12-29T10:24:32Z</time>
      </trkpt>
      <trkpt lat="45.95759" lon="4.87916">
        <ele>285</ele>
        <time>2017-12-29T10:24:34Z</time>
      </trkpt>
      <trkpt lat="45.95763" lon="4.87914">
        <ele>286</ele>
        <time>2017-12-29T10:24:35Z</time>
      </trkpt>
      <trkpt lat="45.95769" lon="4.87909">
        <ele>286</ele>
        <time>2017-12-29T10:24:37Z</time>
      </trkpt>
      <trkpt lat="45.95772" lon="4.87906">
        <ele>286</ele>
        <time>2017-12-29T10:24:38Z</time>
      </trkpt>
      <trkpt lat="45.95777" lon="4.87902">
        <ele>286</ele>
        <time>2017-12-29T10:24:40Z</time>
      </trkpt>
      <trkpt lat="45.9578" lon="4.879">
        <ele>286</ele>
        <time>2017-12-29T10:24:41Z</time>
      </trkpt>
      <trkpt lat="45.95786" lon="4.87896">
        <ele>286</ele>
        <time>2017-12-29T10:24:43Z</time>
      </trkpt>
      <trkpt lat="45.95789" lon="4.87894">
        <ele>286</ele>
        <time>2017-12-29T10:24:44Z</time>
      </trkpt>
      <trkpt lat="45.95795" lon="4.87891">
        <ele>286</ele>
        <time>2017-12-29T10:24:46Z</time>
      </trkpt>
      <trkpt lat="45.95798" lon="4.87889">
        <ele>287</ele>
        <time>2017-12-29T10:24:47Z</time>
      </trkpt>
      <trkpt lat="45.95805" lon="4.87886">
        <ele>287</ele>
        <time>2017-12-29T10:24:49Z</time>
      </trkpt>
      <trkpt lat="45.95808" lon="4.87885">
        <ele>287</ele>
        <time>2017-12-29T10:24:50Z</time>
      </trkpt>
      <trkpt lat="45.95814" lon="4.87883">
        <ele>287</ele>
        <time>2017-12-29T10:24:52Z</time>
      </trkpt>
      <trkpt lat="45.95817" lon="4.87882">
        <ele>287</ele>
        <time>2017-12-29T10:24:53Z</time>
      </trkpt>
      <trkpt lat="45.95824" lon="4.87879">
        <ele>287</ele>
        <time>2017-12-29T10:24:55Z</time>
      </trkpt>
      <trkpt lat="45.95827" lon="4.87879">
        <ele>287</ele>
        <time>2017-12-29T10:24:56Z</time>
      </trkpt>
      <trkpt lat="45.95834" lon="4.87877">
        <ele>289</ele>
        <time>2017-12-29T10:24:58Z</time>
      </trkpt>
      <trkpt lat="45.95837" lon="4.87876">
        <ele>289</ele>
        <time>2017-12-29T10:24:59Z</time>
      </trkpt>
      <trkpt lat="45.95845" lon="4.87871">
        <ele>289</ele>
        <time>2017-12-29T10:25:01Z</time>
      </trkpt>
      <trkpt lat="45.95849" lon="4.87867">
        <ele>289</ele>
        <time>2017-12-29T10:25:02Z</time>
      </trkpt>
      <trkpt lat="45.95855" lon="4.87858">
        <ele>289</ele>
        <time>2017-12-29T10:25:04Z</time>
      </trkpt>
      <trkpt lat="45.95859" lon="4.87854">
        <ele>289</ele>
        <time>2017-12-29T10:25:05Z</time>
      </trkpt>
      <trkpt lat="45.95866" lon="4.87847">
        <ele>289</ele>
        <time>2017-12-29T10:25:07Z</time>
      </trkpt>
      <trkpt lat="45.95869" lon="4.87843">
        <ele>289</ele>
        <time>2017-12-29T10:25:08Z</time>
      </trkpt>
      <trkpt lat="45.95875" lon="4.87836">
        <ele>289</ele>
        <time>2017-12-29T10:25:10Z</time>
      </trkpt>
      <trkpt lat="45.95878" lon="4.87832">
        <ele>288</ele>
        <time>2017-12-29T10:25:11Z</time>
      </trkpt>
      <trkpt lat="45.95882" lon="4.87828">
        <ele>288</ele>
        <time>2017-12-29T10:25:12Z</time>
      </trkpt>
      <trkpt lat="45.95885" lon="4.87824">
        <ele>288</ele>
        <time>2017-12-29T10:25:13Z</time>
      </trkpt>
      <trkpt lat="45.95889" lon="4.87819">
        <ele>288</ele>
        <time>2017-12-29T10:25:14Z</time>
      </trkpt>
      <trkpt lat="45.95893" lon="4.87815">
        <ele>288</ele>
        <time>2017-12-29T10:25:15Z</time>
      </trkpt>
      <trkpt lat="45.95897" lon="4.8781">
        <ele>288</ele>
        <time>2017-12-29T10:25:16Z</time>
      </trkpt>
      <trkpt lat="45.959" lon="4.87806">
        <ele>288</ele>
        <time>2017-12-29T10:25:17Z</time>
      </trkpt>
      <trkpt lat="45.95903" lon="4.87802">
        <ele>288</ele>
        <time>2017-12-29T10:25:18Z</time>
      </trkpt>
      <trkpt lat="45.95907" lon="4.87797">
        <ele>288</ele>
        <time>2017-12-29T10:25:19Z</time>
      </trkpt>
      <trkpt lat="45.95911" lon="4.87788">
        <ele>288</ele>
        <time>2017-12-29T10:25:21Z</time>
      </trkpt>
      <trkpt lat="45.95913" lon="4.87785">
        <ele>288</ele>
        <time>2017-12-29T10:25:22Z</time>
      </trkpt>
      <trkpt lat="45.95917" lon="4.87778">
        <ele>289</ele>
        <time>2017-12-29T10:25:24Z</time>
      </trkpt>
      <trkpt lat="45.9592" lon="4.87774">
        <ele>289</ele>
        <time>2017-12-29T10:25:25Z</time>
      </trkpt>
      <trkpt lat="45.95924" lon="4.87765">
        <ele>288</ele>
        <time>2017-12-29T10:25:27Z</time>
      </trkpt>
      <trkpt lat="45.95927" lon="4.8776">
        <ele>288</ele>
        <time>2017-12-29T10:25:28Z</time>
      </trkpt>
      <trkpt lat="45.95932" lon="4.87751">
        <ele>288</ele>
        <time>2017-12-29T10:25:30Z</time>
      </trkpt>
      <trkpt lat="45.95935" lon="4.87746">
        <ele>288</ele>
        <time>2017-12-29T10:25:31Z</time>
      </trkpt>
      <trkpt lat="45.9594" lon="4.87739">
        <ele>288</ele>
        <time>2017-12-29T10:25:33Z</time>
      </trkpt>
      <trkpt lat="45.95943" lon="4.87736">
        <ele>289</ele>
        <time>2017-12-29T10:25:34Z</time>
      </trkpt>
      <trkpt lat="45.95948" lon="4.87729">
        <ele>289</ele>
        <time>2017-12-29T10:25:36Z</time>
      </trkpt>
      <trkpt lat="45.95951" lon="4.87725">
        <ele>289</ele>
        <time>2017-12-29T10:25:37Z</time>
      </trkpt>
      <trkpt lat="45.95956" lon="4.87717">
        <ele>289</ele>
        <time>2017-12-29T10:25:39Z</time>
      </trkpt>
      <trkpt lat="45.95959" lon="4.87713">
        <ele>289</ele>
        <time>2017-12-29T10:25:40Z</time>
      </trkpt>
      <trkpt lat="45.95965" lon="4.87706">
        <ele>289</ele>
        <time>2017-12-29T10:25:42Z</time>
      </trkpt>
      <trkpt lat="45.95969" lon="4.87702">
        <ele>289</ele>
        <time>2017-12-29T10:25:43Z</time>
      </trkpt>
      <trkpt lat="45.95972" lon="4.87698">
        <ele>289</ele>
        <time>2017-12-29T10:25:44Z</time>
      </trkpt>
      <trkpt lat="45.95978" lon="4.87693">
        <ele>289</ele>
        <time>2017-12-29T10:25:45Z</time>
      </trkpt>
      <trkpt lat="45.95984" lon="4.87686">
        <ele>289</ele>
        <time>2017-12-29T10:25:47Z</time>
      </trkpt>
      <trkpt lat="45.95987" lon="4.87683">
        <ele>289</ele>
        <time>2017-12-29T10:25:48Z</time>
      </trkpt>
      <trkpt lat="45.95993" lon="4.87674">
        <ele>290</ele>
        <time>2017-12-29T10:25:50Z</time>
      </trkpt>
      <trkpt lat="45.95996" lon="4.87671">
        <ele>290</ele>
        <time>2017-12-29T10:25:51Z</time>
      </trkpt>
      <trkpt lat="45.96002" lon="4.87665">
        <ele>290</ele>
        <time>2017-12-29T10:25:53Z</time>
      </trkpt>
      <trkpt lat="45.96006" lon="4.8766">
        <ele>290</ele>
        <time>2017-12-29T10:25:54Z</time>
      </trkpt>
      <trkpt lat="45.96009" lon="4.87656">
        <ele>289</ele>
        <time>2017-12-29T10:25:55Z</time>
      </trkpt>
      <trkpt lat="45.96013" lon="4.8765">
        <ele>289</ele>
        <time>2017-12-29T10:25:56Z</time>
      </trkpt>
      <trkpt lat="45.96019" lon="4.87642">
        <ele>289</ele>
        <time>2017-12-29T10:25:58Z</time>
      </trkpt>
      <trkpt lat="45.96022" lon="4.87638">
        <ele>289</ele>
        <time>2017-12-29T10:25:59Z</time>
      </trkpt>
      <trkpt lat="45.96029" lon="4.87631">
        <ele>289</ele>
        <time>2017-12-29T10:26:01Z</time>
      </trkpt>
      <trkpt lat="45.96032" lon="4.87629">
        <ele>289</ele>
        <time>2017-12-29T10:26:02Z</time>
      </trkpt>
      <trkpt lat="45.96039" lon="4.87622">
        <ele>289</ele>
        <time>2017-12-29T10:26:04Z</time>
      </trkpt>
      <trkpt lat="45.96042" lon="4.87619">
        <ele>289</ele>
        <time>2017-12-29T10:26:05Z</time>
      </trkpt>
      <trkpt lat="45.96048" lon="4.87612">
        <ele>289</ele>
        <time>2017-12-29T10:26:07Z</time>
      </trkpt>
      <trkpt lat="45.96052" lon="4.87608">
        <ele>289</ele>
        <time>2017-12-29T10:26:08Z</time>
      </trkpt>
      <trkpt lat="45.96056" lon="4.87604">
        <ele>289</ele>
        <time>2017-12-29T10:26:09Z</time>
      </trkpt>
      <trkpt lat="45.9606" lon="4.876">
        <ele>288</ele>
        <time>2017-12-29T10:26:10Z</time>
      </trkpt>
      <trkpt lat="45.96064" lon="4.87595">
        <ele>288</ele>
        <time>2017-12-29T10:26:11Z</time>
      </trkpt>
      <trkpt lat="45.96067" lon="4.8759">
        <ele>288</ele>
        <time>2017-12-29T10:26:12Z</time>
      </trkpt>
      <trkpt lat="45.96071" lon="4.87585">
        <ele>288</ele>
        <time>2017-12-29T10:26:13Z</time>
      </trkpt>
      <trkpt lat="45.96074" lon="4.8758">
        <ele>288</ele>
        <time>2017-12-29T10:26:14Z</time>
      </trkpt>
      <trkpt lat="45.96079" lon="4.87575">
        <ele>288</ele>
        <time>2017-12-29T10:26:15Z</time>
      </trkpt>
      <trkpt lat="45.96083" lon="4.87571">
        <ele>288</ele>
        <time>2017-12-29T10:26:16Z</time>
      </trkpt>
      <trkpt lat="45.96087" lon="4.87566">
        <ele>287</ele>
        <time>2017-12-29T10:26:17Z</time>
      </trkpt>
      <trkpt lat="45.96091" lon="4.87562">
        <ele>287</ele>
        <time>2017-12-29T10:26:18Z</time>
      </trkpt>
      <trkpt lat="45.96095" lon="4.87557">
        <ele>287</ele>
        <time>2017-12-29T10:26:19Z</time>
      </trkpt>
      <trkpt lat="45.96097" lon="4.87552">
        <ele>287</ele>
        <time>2017-12-29T10:26:20Z</time>
      </trkpt>
      <trkpt lat="45.96103" lon="4.87547">
        <ele>287</ele>
        <time>2017-12-29T10:26:21Z</time>
      </trkpt>
      <trkpt lat="45.96107" lon="4.87542">
        <ele>287</ele>
        <time>2017-12-29T10:26:22Z</time>
      </trkpt>
      <trkpt lat="45.9611" lon="4.87537">
        <ele>287</ele>
        <time>2017-12-29T10:26:23Z</time>
      </trkpt>
      <trkpt lat="45.96114" lon="4.87533">
        <ele>287</ele>
        <time>2017-12-29T10:26:24Z</time>
      </trkpt>
      <trkpt lat="45.96118" lon="4.87528">
        <ele>287</ele>
        <time>2017-12-29T10:26:25Z</time>
      </trkpt>
      <trkpt lat="45.96122" lon="4.87523">
        <ele>286</ele>
        <time>2017-12-29T10:26:26Z</time>
      </trkpt>
      <trkpt lat="45.96126" lon="4.87518">
        <ele>286</ele>
        <time>2017-12-29T10:26:27Z</time>
      </trkpt>
      <trkpt lat="45.96132" lon="4.87513">
        <ele>286</ele>
        <time>2017-12-29T10:26:28Z</time>
      </trkpt>
      <trkpt lat="45.96136" lon="4.87509">
        <ele>286</ele>
        <time>2017-12-29T10:26:29Z</time>
      </trkpt>
      <trkpt lat="45.9614" lon="4.87503">
        <ele>286</ele>
        <time>2017-12-29T10:26:30Z</time>
      </trkpt>
      <trkpt lat="45.96144" lon="4.87498">
        <ele>285</ele>
        <time>2017-12-29T10:26:31Z</time>
      </trkpt>
      <trkpt lat="45.96149" lon="4.87493">
        <ele>285</ele>
        <time>2017-12-29T10:26:32Z</time>
      </trkpt>
      <trkpt lat="45.96154" lon="4.87488">
        <ele>285</ele>
        <time>2017-12-29T10:26:33Z</time>
      </trkpt>
      <trkpt lat="45.96159" lon="4.87483">
        <ele>285</ele>
        <time>2017-12-29T10:26:34Z</time>
      </trkpt>
      <trkpt lat="45.96163" lon="4.87478">
        <ele>285</ele>
        <time>2017-12-29T10:26:35Z</time>
      </trkpt>
      <trkpt lat="45.96168" lon="4.87473">
        <ele>284</ele>
        <time>2017-12-29T10:26:36Z</time>
      </trkpt>
      <trkpt lat="45.96173" lon="4.87468">
        <ele>284</ele>
        <time>2017-12-29T10:26:37Z</time>
      </trkpt>
      <trkpt lat="45.96177" lon="4.87462">
        <ele>284</ele>
        <time>2017-12-29T10:26:38Z</time>
      </trkpt>
      <trkpt lat="45.96182" lon="4.87457">
        <ele>284</ele>
        <time>2017-12-29T10:26:39Z</time>
      </trkpt>
      <trkpt lat="45.96187" lon="4.87452">
        <ele>284</ele>
        <time>2017-12-29T10:26:40Z</time>
      </trkpt>
      <trkpt lat="45.96191" lon="4.87446">
        <ele>284</ele>
        <time>2017-12-29T10:26:41Z</time>
      </trkpt>
      <trkpt lat="45.96195" lon="4.8744">
        <ele>284</ele>
        <time>2017-12-29T10:26:42Z</time>
      </trkpt>
      <trkpt lat="45.962" lon="4.87436">
        <ele>284</ele>
        <time>2017-12-29T10:26:43Z</time>
      </trkpt>
      <trkpt lat="45.96205" lon="4.8743">
        <ele>284</ele>
        <time>2017-12-29T10:26:44Z</time>
      </trkpt>
      <trkpt lat="45.96209" lon="4.87424">
        <ele>284</ele>
        <time>2017-12-29T10:26:45Z</time>
      </trkpt>
      <trkpt lat="45.96213" lon="4.87417">
        <ele>284</ele>
        <time>2017-12-29T10:26:46Z</time>
      </trkpt>
      <trkpt lat="45.96218" lon="4.87411">
        <ele>283</ele>
        <time>2017-12-29T10:26:47Z</time>
      </trkpt>
      <trkpt lat="45.96222" lon="4.87405">
        <ele>283</ele>
        <time>2017-12-29T10:26:48Z</time>
      </trkpt>
      <trkpt lat="45.96227" lon="4.874">
        <ele>283</ele>
        <time>2017-12-29T10:26:49Z</time>
      </trkpt>
      <trkpt lat="45.96233" lon="4.87392">
        <ele>283</ele>
        <time>2017-12-29T10:26:50Z</time>
      </trkpt>
      <trkpt lat="45.9624" lon="4.87385">
        <ele>283</ele>
        <time>2017-12-29T10:26:51Z</time>
      </trkpt>
      <trkpt lat="45.96245" lon="4.8738">
        <ele>283</ele>
        <time>2017-12-29T10:26:52Z</time>
      </trkpt>
      <trkpt lat="45.96249" lon="4.87375">
        <ele>283</ele>
        <time>2017-12-29T10:26:53Z</time>
      </trkpt>
      <trkpt lat="45.96253" lon="4.8737">
        <ele>283</ele>
        <time>2017-12-29T10:26:54Z</time>
      </trkpt>
      <trkpt lat="45.96257" lon="4.87365">
        <ele>283</ele>
        <time>2017-12-29T10:26:55Z</time>
      </trkpt>
      <trkpt lat="45.96263" lon="4.8736">
        <ele>283</ele>
        <time>2017-12-29T10:26:56Z</time>
      </trkpt>
      <trkpt lat="45.9627" lon="4.87355">
        <ele>283</ele>
        <time>2017-12-29T10:26:57Z</time>
      </trkpt>
      <trkpt lat="45.96274" lon="4.8735">
        <ele>284</ele>
        <time>2017-12-29T10:26:58Z</time>
      </trkpt>
      <trkpt lat="45.96277" lon="4.87344">
        <ele>284</ele>
        <time>2017-12-29T10:26:59Z</time>
      </trkpt>
      <trkpt lat="45.9628" lon="4.8734">
        <ele>284</ele>
        <time>2017-12-29T10:27:00Z</time>
      </trkpt>
      <trkpt lat="45.96284" lon="4.87335">
        <ele>284</ele>
        <time>2017-12-29T10:27:01Z</time>
      </trkpt>
      <trkpt lat="45.96288" lon="4.8733">
        <ele>283</ele>
        <time>2017-12-29T10:27:02Z</time>
      </trkpt>
      <trkpt lat="45.96291" lon="4.87326">
        <ele>283</ele>
        <time>2017-12-29T10:27:03Z</time>
      </trkpt>
      <trkpt lat="45.96296" lon="4.87321">
        <ele>283</ele>
        <time>2017-12-29T10:27:04Z</time>
      </trkpt>
      <trkpt lat="45.963" lon="4.87317">
        <ele>283</ele>
        <time>2017-12-29T10:27:05Z</time>
      </trkpt>
      <trkpt lat="45.96304" lon="4.87312">
        <ele>283</ele>
        <time>2017-12-29T10:27:06Z</time>
      </trkpt>
      <trkpt lat="45.96309" lon="4.87306">
        <ele>283</ele>
        <time>2017-12-29T10:27:07Z</time>
      </trkpt>
      <trkpt lat="45.96313" lon="4.87301">
        <ele>283</ele>
        <time>2017-12-29T10:27:08Z</time>
      </trkpt>
      <trkpt lat="45.96317" lon="4.87295">
        <ele>283</ele>
        <time>2017-12-29T10:27:09Z</time>
      </trkpt>
      <trkpt lat="45.96323" lon="4.87286">
        <ele>283</ele>
        <time>2017-12-29T10:27:10Z</time>
      </trkpt>
      <trkpt lat="45.96327" lon="4.87279">
        <ele>283</ele>
        <time>2017-12-29T10:27:11Z</time>
      </trkpt>
      <trkpt lat="45.96332" lon="4.87275">
        <ele>283</ele>
        <time>2017-12-29T10:27:12Z</time>
      </trkpt>
      <trkpt lat="45.96336" lon="4.8727">
        <ele>283</ele>
        <time>2017-12-29T10:27:13Z</time>
      </trkpt>
      <trkpt lat="45.9634" lon="4.87265">
        <ele>283</ele>
        <time>2017-12-29T10:27:14Z</time>
      </trkpt>
      <trkpt lat="45.96344" lon="4.87258">
        <ele>283</ele>
        <time>2017-12-29T10:27:15Z</time>
      </trkpt>
      <trkpt lat="45.96347" lon="4.87253">
        <ele>283</ele>
        <time>2017-12-29T10:27:16Z</time>
      </trkpt>
      <trkpt lat="45.96352" lon="4.87248">
        <ele>282</ele>
        <time>2017-12-29T10:27:17Z</time>
      </trkpt>
      <trkpt lat="45.96355" lon="4.87243">
        <ele>282</ele>
        <time>2017-12-29T10:27:18Z</time>
      </trkpt>
      <trkpt lat="45.96359" lon="4.87237">
        <ele>282</ele>
        <time>2017-12-29T10:27:19Z</time>
      </trkpt>
      <trkpt lat="45.96363" lon="4.87232">
        <ele>282</ele>
        <time>2017-12-29T10:27:20Z</time>
      </trkpt>
      <trkpt lat="45.96367" lon="4.87226">
        <ele>282</ele>
        <time>2017-12-29T10:27:21Z</time>
      </trkpt>
      <trkpt lat="45.96372" lon="4.87219">
        <ele>282</ele>
        <time>2017-12-29T10:27:22Z</time>
      </trkpt>
      <trkpt lat="45.96376" lon="4.87214">
        <ele>282</ele>
        <time>2017-12-29T10:27:23Z</time>
      </trkpt>
      <trkpt lat="45.9638" lon="4.87209">
        <ele>282</ele>
        <time>2017-12-29T10:27:24Z</time>
      </trkpt>
      <trkpt lat="45.96384" lon="4.87204">
        <ele>282</ele>
        <time>2017-12-29T10:27:25Z</time>
      </trkpt>
      <trkpt lat="45.96387" lon="4.87199">
        <ele>282</ele>
        <time>2017-12-29T10:27:26Z</time>
      </trkpt>
      <trkpt lat="45.96393" lon="4.87191">
        <ele>282</ele>
        <time>2017-12-29T10:27:27Z</time>
      </trkpt>
      <trkpt lat="45.96397" lon="4.87185">
        <ele>282</ele>
        <time>2017-12-29T10:27:28Z</time>
      </trkpt>
      <trkpt lat="45.96401" lon="4.87178">
        <ele>282</ele>
        <time>2017-12-29T10:27:29Z</time>
      </trkpt>
      <trkpt lat="45.96405" lon="4.87171">
        <ele>281</ele>
        <time>2017-12-29T10:27:30Z</time>
      </trkpt>
      <trkpt lat="45.9641" lon="4.87165">
        <ele>281</ele>
        <time>2017-12-29T10:27:31Z</time>
      </trkpt>
      <trkpt lat="45.96415" lon="4.87159">
        <ele>281</ele>
        <time>2017-12-29T10:27:32Z</time>
      </trkpt>
      <trkpt lat="45.9642" lon="4.87152">
        <ele>281</ele>
        <time>2017-12-29T10:27:33Z</time>
      </trkpt>
      <trkpt lat="45.96424" lon="4.87146">
        <ele>281</ele>
        <time>2017-12-29T10:27:34Z</time>
      </trkpt>
      <trkpt lat="45.96429" lon="4.87141">
        <ele>281</ele>
        <time>2017-12-29T10:27:35Z</time>
      </trkpt>
      <trkpt lat="45.96433" lon="4.87136">
        <ele>281</ele>
        <time>2017-12-29T10:27:36Z</time>
      </trkpt>
      <trkpt lat="45.96438" lon="4.8713">
        <ele>281</ele>
        <time>2017-12-29T10:27:37Z</time>
      </trkpt>
      <trkpt lat="45.96442" lon="4.87126">
        <ele>281</ele>
        <time>2017-12-29T10:27:38Z</time>
      </trkpt>
      <trkpt lat="45.96447" lon="4.87121">
        <ele>281</ele>
        <time>2017-12-29T10:27:39Z</time>
      </trkpt>
      <trkpt lat="45.96451" lon="4.87116">
        <ele>281</ele>
        <time>2017-12-29T10:27:40Z</time>
      </trkpt>
      <trkpt lat="45.96456" lon="4.87112">
        <ele>281</ele>
        <time>2017-12-29T10:27:41Z</time>
      </trkpt>
      <trkpt lat="45.9646" lon="4.87108">
        <ele>282</ele>
        <time>2017-12-29T10:27:42Z</time>
      </trkpt>
      <trkpt lat="45.96466" lon="4.871">
        <ele>282</ele>
        <time>2017-12-29T10:27:44Z</time>
      </trkpt>
      <trkpt lat="45.96469" lon="4.87096">
        <ele>282</ele>
        <time>2017-12-29T10:27:45Z</time>
      </trkpt>
      <trkpt lat="45.96475" lon="4.87087">
        <ele>282</ele>
        <time>2017-12-29T10:27:47Z</time>
      </trkpt>
      <trkpt lat="45.96479" lon="4.87082">
        <ele>282</ele>
        <time>2017-12-29T10:27:48Z</time>
      </trkpt>
      <trkpt lat="45.96482" lon="4.87077">
        <ele>282</ele>
        <time>2017-12-29T10:27:49Z</time>
      </trkpt>
      <trkpt lat="45.96485" lon="4.87073">
        <ele>282</ele>
        <time>2017-12-29T10:27:50Z</time>
      </trkpt>
      <trkpt lat="45.96492" lon="4.87065">
        <ele>282</ele>
        <time>2017-12-29T10:27:52Z</time>
      </trkpt>
      <trkpt lat="45.96495" lon="4.87061">
        <ele>282</ele>
        <time>2017-12-29T10:27:53Z</time>
      </trkpt>
      <trkpt lat="45.965" lon="4.87053">
        <ele>282</ele>
        <time>2017-12-29T10:27:55Z</time>
      </trkpt>
      <trkpt lat="45.96502" lon="4.87049">
        <ele>282</ele>
        <time>2017-12-29T10:27:56Z</time>
      </trkpt>
      <trkpt lat="45.96509" lon="4.87045">
        <ele>283</ele>
        <time>2017-12-29T10:27:58Z</time>
      </trkpt>
      <trkpt lat="45.96512" lon="4.87046">
        <ele>283</ele>
        <time>2017-12-29T10:27:59Z</time>
      </trkpt>
      <trkpt lat="45.96518" lon="4.87051">
        <ele>283</ele>
        <time>2017-12-29T10:28:01Z</time>
      </trkpt>
      <trkpt lat="45.9652" lon="4.87055">
        <ele>283</ele>
        <time>2017-12-29T10:28:02Z</time>
      </trkpt>
      <trkpt lat="45.96526" lon="4.87064">
        <ele>283</ele>
        <time>2017-12-29T10:28:05Z</time>
      </trkpt>
      <trkpt lat="45.96528" lon="4.87067">
        <ele>283</ele>
        <time>2017-12-29T10:28:06Z</time>
      </trkpt>
      <trkpt lat="45.96536" lon="4.87067">
        <ele>283</ele>
        <time>2017-12-29T10:28:09Z</time>
      </trkpt>
      <trkpt lat="45.96538" lon="4.87065">
        <ele>283</ele>
        <time>2017-12-29T10:28:10Z</time>
      </trkpt>
      <trkpt lat="45.96546" lon="4.87069">
        <ele>283</ele>
        <time>2017-12-29T10:28:17Z</time>
      </trkpt>
      <trkpt lat="45.96547" lon="4.87072">
        <ele>283</ele>
        <time>2017-12-29T10:28:18Z</time>
      </trkpt>
      <trkpt lat="45.96555" lon="4.87071">
        <ele>283</ele>
        <time>2017-12-29T10:28:23Z</time>
      </trkpt>
      <trkpt lat="45.96558" lon="4.8707">
        <ele>283</ele>
        <time>2017-12-29T10:28:24Z</time>
      </trkpt>
      <trkpt lat="45.96563" lon="4.87063">
        <ele>283</ele>
        <time>2017-12-29T10:28:27Z</time>
      </trkpt>
      <trkpt lat="45.96564" lon="4.87059">
        <ele>283</ele>
        <time>2017-12-29T10:28:28Z</time>
      </trkpt>
      <trkpt lat="45.96563" lon="4.8705">
        <ele>283</ele>
        <time>2017-12-29T10:28:30Z</time>
      </trkpt>
      <trkpt lat="45.96562" lon="4.87046">
        <ele>283</ele>
        <time>2017-12-29T10:28:31Z</time>
      </trkpt>
      <trkpt lat="45.96563" lon="4.87034">
        <ele>283</ele>
        <time>2017-12-29T10:28:34Z</time>
      </trkpt>
      <trkpt lat="45.96563" lon="4.8703">
        <ele>283</ele>
        <time>2017-12-29T10:28:35Z</time>
      </trkpt>
      <trkpt lat="45.96556" lon="4.87024">
        <ele>283</ele>
        <time>2017-12-29T10:28:40Z</time>
      </trkpt>
      <trkpt lat="45.96555" lon="4.87025">
        <ele>283</ele>
        <time>2017-12-29T10:28:41Z</time>
      </trkpt>
      <trkpt lat="45.96547" lon="4.87019">
        <ele>283</ele>
        <time>2017-12-29T10:38:12Z</time>
      </trkpt>
      <trkpt lat="45.96547" lon="4.87016">
        <ele>283</ele>
        <time>2017-12-29T10:38:13Z</time>
      </trkpt>
      <trkpt lat="45.96547" lon="4.87004">
        <ele>283</ele>
        <time>2017-12-29T10:38:17Z</time>
      </trkpt>
      <trkpt lat="45.96547" lon="4.87">
        <ele>283</ele>
        <time>2017-12-29T10:38:18Z</time>
      </trkpt>
      <trkpt lat="45.96545" lon="4.86991">
        <ele>283</ele>
        <time>2017-12-29T10:38:20Z</time>
      </trkpt>
      <trkpt lat="45.96545" lon="4.86986">
        <ele>283</ele>
        <time>2017-12-29T10:38:21Z</time>
      </trkpt>
      <trkpt lat="45.96549" lon="4.86978">
        <ele>283</ele>
        <time>2017-12-29T10:38:23Z</time>
      </trkpt>
      <trkpt lat="45.96552" lon="4.86975">
        <ele>283</ele>
        <time>2017-12-29T10:38:24Z</time>
      </trkpt>
      <trkpt lat="45.96558" lon="4.8697">
        <ele>283</ele>
        <time>2017-12-29T10:38:26Z</time>
      </trkpt>
      <trkpt lat="45.9656" lon="4.86967">
        <ele>283</ele>
        <time>2017-12-29T10:38:27Z</time>
      </trkpt>
      <trkpt lat="45.96564" lon="4.8696">
        <ele>283</ele>
        <time>2017-12-29T10:38:29Z</time>
      </trkpt>
      <trkpt lat="45.96566" lon="4.86956">
        <ele>284</ele>
        <time>2017-12-29T10:38:30Z</time>
      </trkpt>
      <trkpt lat="45.96571" lon="4.86948">
        <ele>284</ele>
        <time>2017-12-29T10:38:32Z</time>
      </trkpt>
      <trkpt lat="45.96573" lon="4.86944">
        <ele>284</ele>
        <time>2017-12-29T10:38:33Z</time>
      </trkpt>
      <trkpt lat="45.96578" lon="4.86937">
        <ele>284</ele>
        <time>2017-12-29T10:38:35Z</time>
      </trkpt>
      <trkpt lat="45.9658" lon="4.86932">
        <ele>284</ele>
        <time>2017-12-29T10:38:36Z</time>
      </trkpt>
      <trkpt lat="45.96585" lon="4.86924">
        <ele>285</ele>
        <time>2017-12-29T10:38:38Z</time>
      </trkpt>
      <trkpt lat="45.96588" lon="4.8692">
        <ele>285</ele>
        <time>2017-12-29T10:38:39Z</time>
      </trkpt>
      <trkpt lat="45.96593" lon="4.86911">
        <ele>286</ele>
        <time>2017-12-29T10:38:41Z</time>
      </trkpt>
      <trkpt lat="45.96596" lon="4.86905">
        <ele>286</ele>
        <time>2017-12-29T10:38:42Z</time>
      </trkpt>
      <trkpt lat="45.96599" lon="4.86901">
        <ele>286</ele>
        <time>2017-12-29T10:38:43Z</time>
      </trkpt>
      <trkpt lat="45.96602" lon="4.86896">
        <ele>286</ele>
        <time>2017-12-29T10:38:44Z</time>
      </trkpt>
      <trkpt lat="45.96606" lon="4.86889">
        <ele>287</ele>
        <time>2017-12-29T10:38:46Z</time>
      </trkpt>
      <trkpt lat="45.96609" lon="4.86885">
        <ele>287</ele>
        <time>2017-12-29T10:38:47Z</time>
      </trkpt>
      <trkpt lat="45.96613" lon="4.86875">
        <ele>287</ele>
        <time>2017-12-29T10:38:49Z</time>
      </trkpt>
      <trkpt lat="45.96614" lon="4.86872">
        <ele>287</ele>
        <time>2017-12-29T10:38:50Z</time>
      </trkpt>
      <trkpt lat="45.96618" lon="4.86867">
        <ele>287</ele>
        <time>2017-12-29T10:38:51Z</time>
      </trkpt>
      <trkpt lat="45.96621" lon="4.86863">
        <ele>287</ele>
        <time>2017-12-29T10:38:52Z</time>
      </trkpt>
      <trkpt lat="45.96626" lon="4.86852">
        <ele>287</ele>
        <time>2017-12-29T10:38:54Z</time>
      </trkpt>
      <trkpt lat="45.96629" lon="4.86847">
        <ele>287</ele>
        <time>2017-12-29T10:38:55Z</time>
      </trkpt>
      <trkpt lat="45.96632" lon="4.86842">
        <ele>287</ele>
        <time>2017-12-29T10:38:56Z</time>
      </trkpt>
      <trkpt lat="45.96636" lon="4.86837">
        <ele>287</ele>
        <time>2017-12-29T10:38:57Z</time>
      </trkpt>
      <trkpt lat="45.96639" lon="4.86832">
        <ele>288</ele>
        <time>2017-12-29T10:38:58Z</time>
      </trkpt>
      <trkpt lat="45.96643" lon="4.86827">
        <ele>288</ele>
        <time>2017-12-29T10:38:59Z</time>
      </trkpt>
      <trkpt lat="45.96646" lon="4.86821">
        <ele>288</ele>
        <time>2017-12-29T10:39:00Z</time>
      </trkpt>
      <trkpt lat="45.96649" lon="4.86816">
        <ele>288</ele>
        <time>2017-12-29T10:39:01Z</time>
      </trkpt>
      <trkpt lat="45.96652" lon="4.86812">
        <ele>288</ele>
        <time>2017-12-29T10:39:02Z</time>
      </trkpt>
      <trkpt lat="45.96656" lon="4.86805">
        <ele>288</ele>
        <time>2017-12-29T10:39:03Z</time>
      </trkpt>
      <trkpt lat="45.96659" lon="4.868">
        <ele>288</ele>
        <time>2017-12-29T10:39:04Z</time>
      </trkpt>
      <trkpt lat="45.96662" lon="4.86794">
        <ele>288</ele>
        <time>2017-12-29T10:39:05Z</time>
      </trkpt>
      <trkpt lat="45.96668" lon="4.86786">
        <ele>289</ele>
        <time>2017-12-29T10:39:07Z</time>
      </trkpt>
      <trkpt lat="45.9667" lon="4.86781">
        <ele>289</ele>
        <time>2017-12-29T10:39:08Z</time>
      </trkpt>
      <trkpt lat="45.96676" lon="4.86772">
        <ele>289</ele>
        <time>2017-12-29T10:39:10Z</time>
      </trkpt>
      <trkpt lat="45.96678" lon="4.86768">
        <ele>289</ele>
        <time>2017-12-29T10:39:11Z</time>
      </trkpt>
      <trkpt lat="45.96684" lon="4.8676">
        <ele>289</ele>
        <time>2017-12-29T10:39:13Z</time>
      </trkpt>
      <trkpt lat="45.96686" lon="4.86753">
        <ele>289</ele>
        <time>2017-12-29T10:39:14Z</time>
      </trkpt>
      <trkpt lat="45.96689" lon="4.86747">
        <ele>289</ele>
        <time>2017-12-29T10:39:15Z</time>
      </trkpt>
      <trkpt lat="45.96692" lon="4.86742">
        <ele>289</ele>
        <time>2017-12-29T10:39:16Z</time>
      </trkpt>
      <trkpt lat="45.96696" lon="4.86737">
        <ele>289</ele>
        <time>2017-12-29T10:39:17Z</time>
      </trkpt>
      <trkpt lat="45.96699" lon="4.86734">
        <ele>289</ele>
        <time>2017-12-29T10:39:18Z</time>
      </trkpt>
      <trkpt lat="45.96703" lon="4.86729">
        <ele>289</ele>
        <time>2017-12-29T10:39:19Z</time>
      </trkpt>
      <trkpt lat="45.96706" lon="4.86723">
        <ele>289</ele>
        <time>2017-12-29T10:39:20Z</time>
      </trkpt>
      <trkpt lat="45.96709" lon="4.86718">
        <ele>289</ele>
        <time>2017-12-29T10:39:21Z</time>
      </trkpt>
      <trkpt lat="45.96712" lon="4.86713">
        <ele>289</ele>
        <time>2017-12-29T10:39:22Z</time>
      </trkpt>
      <trkpt lat="45.96718" lon="4.86704">
        <ele>289</ele>
        <time>2017-12-29T10:39:24Z</time>
      </trkpt>
      <trkpt lat="45.96721" lon="4.86699">
        <ele>289</ele>
        <time>2017-12-29T10:39:25Z</time>
      </trkpt>
      <trkpt lat="45.96724" lon="4.86694">
        <ele>289</ele>
        <time>2017-12-29T10:39:26Z</time>
      </trkpt>
      <trkpt lat="45.96727" lon="4.86688">
        <ele>289</ele>
        <time>2017-12-29T10:39:27Z</time>
      </trkpt>
      <trkpt lat="45.96732" lon="4.86679">
        <ele>290</ele>
        <time>2017-12-29T10:39:29Z</time>
      </trkpt>
      <trkpt lat="45.96735" lon="4.86674">
        <ele>290</ele>
        <time>2017-12-29T10:39:30Z</time>
      </trkpt>
      <trkpt lat="45.96741" lon="4.86664">
        <ele>290</ele>
        <time>2017-12-29T10:39:32Z</time>
      </trkpt>
      <trkpt lat="45.96745" lon="4.8666">
        <ele>290</ele>
        <time>2017-12-29T10:39:33Z</time>
      </trkpt>
      <trkpt lat="45.9675" lon="4.86651">
        <ele>290</ele>
        <time>2017-12-29T10:39:35Z</time>
      </trkpt>
      <trkpt lat="45.96753" lon="4.86647">
        <ele>290</ele>
        <time>2017-12-29T10:39:36Z</time>
      </trkpt>
      <trkpt lat="45.96758" lon="4.86637">
        <ele>290</ele>
        <time>2017-12-29T10:39:38Z</time>
      </trkpt>
      <trkpt lat="45.96761" lon="4.86632">
        <ele>289</ele>
        <time>2017-12-29T10:39:39Z</time>
      </trkpt>
      <trkpt lat="45.96764" lon="4.86627">
        <ele>289</ele>
        <time>2017-12-29T10:39:40Z</time>
      </trkpt>
      <trkpt lat="45.96767" lon="4.86621">
        <ele>289</ele>
        <time>2017-12-29T10:39:41Z</time>
      </trkpt>
      <trkpt lat="45.96769" lon="4.86615">
        <ele>289</ele>
        <time>2017-12-29T10:39:42Z</time>
      </trkpt>
      <trkpt lat="45.96773" lon="4.8661">
        <ele>289</ele>
        <time>2017-12-29T10:39:43Z</time>
      </trkpt>
      <trkpt lat="45.96776" lon="4.86605">
        <ele>289</ele>
        <time>2017-12-29T10:39:44Z</time>
      </trkpt>
      <trkpt lat="45.96779" lon="4.866">
        <ele>289</ele>
        <time>2017-12-29T10:39:45Z</time>
      </trkpt>
      <trkpt lat="45.96784" lon="4.86594">
        <ele>289</ele>
        <time>2017-12-29T10:39:46Z</time>
      </trkpt>
      <trkpt lat="45.96787" lon="4.86589">
        <ele>289</ele>
        <time>2017-12-29T10:39:47Z</time>
      </trkpt>
      <trkpt lat="45.9679" lon="4.86584">
        <ele>289</ele>
        <time>2017-12-29T10:39:48Z</time>
      </trkpt>
      <trkpt lat="45.96794" lon="4.86578">
        <ele>290</ele>
        <time>2017-12-29T10:39:49Z</time>
      </trkpt>
      <trkpt lat="45.96797" lon="4.86573">
        <ele>290</ele>
        <time>2017-12-29T10:39:50Z</time>
      </trkpt>
      <trkpt lat="45.968" lon="4.86569">
        <ele>290</ele>
        <time>2017-12-29T10:39:51Z</time>
      </trkpt>
      <trkpt lat="45.96806" lon="4.8656">
        <ele>290</ele>
        <time>2017-12-29T10:39:53Z</time>
      </trkpt>
      <trkpt lat="45.96809" lon="4.86554">
        <ele>290</ele>
        <time>2017-12-29T10:39:54Z</time>
      </trkpt>
      <trkpt lat="45.96815" lon="4.86545">
        <ele>290</ele>
        <time>2017-12-29T10:39:56Z</time>
      </trkpt>
      <trkpt lat="45.96818" lon="4.8654">
        <ele>290</ele>
        <time>2017-12-29T10:39:57Z</time>
      </trkpt>
      <trkpt lat="45.96821" lon="4.86534">
        <ele>290</ele>
        <time>2017-12-29T10:39:58Z</time>
      </trkpt>
      <trkpt lat="45.96823" lon="4.86529">
        <ele>289</ele>
        <time>2017-12-29T10:39:59Z</time>
      </trkpt>
      <trkpt lat="45.96828" lon="4.8652">
        <ele>289</ele>
        <time>2017-12-29T10:40:01Z</time>
      </trkpt>
      <trkpt lat="45.9683" lon="4.86516">
        <ele>289</ele>
        <time>2017-12-29T10:40:02Z</time>
      </trkpt>
      <trkpt lat="45.96833" lon="4.86511">
        <ele>289</ele>
        <time>2017-12-29T10:40:03Z</time>
      </trkpt>
      <trkpt lat="45.96836" lon="4.86506">
        <ele>289</ele>
        <time>2017-12-29T10:40:04Z</time>
      </trkpt>
      <trkpt lat="45.96838" lon="4.86501">
        <ele>289</ele>
        <time>2017-12-29T10:40:05Z</time>
      </trkpt>
      <trkpt lat="45.96841" lon="4.86495">
        <ele>289</ele>
        <time>2017-12-29T10:40:06Z</time>
      </trkpt>
      <trkpt lat="45.96846" lon="4.86484">
        <ele>289</ele>
        <time>2017-12-29T10:40:08Z</time>
      </trkpt>
      <trkpt lat="45.96848" lon="4.86478">
        <ele>289</ele>
        <time>2017-12-29T10:40:09Z</time>
      </trkpt>
      <trkpt lat="45.9685" lon="4.86471">
        <ele>289</ele>
        <time>2017-12-29T10:40:10Z</time>
      </trkpt>
      <trkpt lat="45.96851" lon="4.86464">
        <ele>289</ele>
        <time>2017-12-29T10:40:11Z</time>
      </trkpt>
      <trkpt lat="45.96853" lon="4.86457">
        <ele>289</ele>
        <time>2017-12-29T10:40:12Z</time>
      </trkpt>
      <trkpt lat="45.96856" lon="4.86448">
        <ele>289</ele>
        <time>2017-12-29T10:40:13Z</time>
      </trkpt>
      <trkpt lat="45.96857" lon="4.86441">
        <ele>290</ele>
        <time>2017-12-29T10:40:14Z</time>
      </trkpt>
      <trkpt lat="45.96859" lon="4.86434">
        <ele>290</ele>
        <time>2017-12-29T10:40:15Z</time>
      </trkpt>
      <trkpt lat="45.9686" lon="4.86428">
        <ele>290</ele>
        <time>2017-12-29T10:40:16Z</time>
      </trkpt>
      <trkpt lat="45.96861" lon="4.86421">
        <ele>290</ele>
        <time>2017-12-29T10:40:17Z</time>
      </trkpt>
      <trkpt lat="45.96863" lon="4.86414">
        <ele>290</ele>
        <time>2017-12-29T10:40:18Z</time>
      </trkpt>
      <trkpt lat="45.96865" lon="4.86407">
        <ele>290</ele>
        <time>2017-12-29T10:40:19Z</time>
      </trkpt>
      <trkpt lat="45.96866" lon="4.86396">
        <ele>290</ele>
        <time>2017-12-29T10:40:21Z</time>
      </trkpt>
      <trkpt lat="45.96866" lon="4.8639">
        <ele>290</ele>
        <time>2017-12-29T10:40:22Z</time>
      </trkpt>
      <trkpt lat="45.96868" lon="4.8638">
        <ele>290</ele>
        <time>2017-12-29T10:40:24Z</time>
      </trkpt>
      <trkpt lat="45.96868" lon="4.86374">
        <ele>290</ele>
        <time>2017-12-29T10:40:25Z</time>
      </trkpt>
      <trkpt lat="45.96869" lon="4.86366">
        <ele>290</ele>
        <time>2017-12-29T10:40:26Z</time>
      </trkpt>
      <trkpt lat="45.9687" lon="4.8636">
        <ele>290</ele>
        <time>2017-12-29T10:40:27Z</time>
      </trkpt>
      <trkpt lat="45.96872" lon="4.86353">
        <ele>290</ele>
        <time>2017-12-29T10:40:28Z</time>
      </trkpt>
      <trkpt lat="45.96873" lon="4.86345">
        <ele>290</ele>
        <time>2017-12-29T10:40:29Z</time>
      </trkpt>
      <trkpt lat="45.96874" lon="4.86339">
        <ele>290</ele>
        <time>2017-12-29T10:40:30Z</time>
      </trkpt>
      <trkpt lat="45.96875" lon="4.86332">
        <ele>289</ele>
        <time>2017-12-29T10:40:31Z</time>
      </trkpt>
      <trkpt lat="45.96877" lon="4.86325">
        <ele>289</ele>
        <time>2017-12-29T10:40:32Z</time>
      </trkpt>
      <trkpt lat="45.96878" lon="4.86318">
        <ele>289</ele>
        <time>2017-12-29T10:40:33Z</time>
      </trkpt>
      <trkpt lat="45.9688" lon="4.86306">
        <ele>289</ele>
        <time>2017-12-29T10:40:35Z</time>
      </trkpt>
      <trkpt lat="45.96881" lon="4.863">
        <ele>289</ele>
        <time>2017-12-29T10:40:36Z</time>
      </trkpt>
      <trkpt lat="45.96881" lon="4.86294">
        <ele>289</ele>
        <time>2017-12-29T10:40:37Z</time>
      </trkpt>
      <trkpt lat="45.96881" lon="4.86287">
        <ele>289</ele>
        <time>2017-12-29T10:40:38Z</time>
      </trkpt>
      <trkpt lat="45.96883" lon="4.86275">
        <ele>288</ele>
        <time>2017-12-29T10:40:40Z</time>
      </trkpt>
      <trkpt lat="45.96883" lon="4.86269">
        <ele>288</ele>
        <time>2017-12-29T10:40:41Z</time>
      </trkpt>
      <trkpt lat="45.96885" lon="4.86257">
        <ele>288</ele>
        <time>2017-12-29T10:40:43Z</time>
      </trkpt>
      <trkpt lat="45.96885" lon="4.86251">
        <ele>288</ele>
        <time>2017-12-29T10:40:44Z</time>
      </trkpt>
      <trkpt lat="45.96886" lon="4.86244">
        <ele>288</ele>
        <time>2017-12-29T10:40:45Z</time>
      </trkpt>
      <trkpt lat="45.96887" lon="4.86236">
        <ele>288</ele>
        <time>2017-12-29T10:40:46Z</time>
      </trkpt>
      <trkpt lat="45.96888" lon="4.86229">
        <ele>288</ele>
        <time>2017-12-29T10:40:47Z</time>
      </trkpt>
      <trkpt lat="45.96889" lon="4.86222">
        <ele>289</ele>
        <time>2017-12-29T10:40:48Z</time>
      </trkpt>
      <trkpt lat="45.9689" lon="4.86214">
        <ele>289</ele>
        <time>2017-12-29T10:40:49Z</time>
      </trkpt>
      <trkpt lat="45.96891" lon="4.86207">
        <ele>289</ele>
        <time>2017-12-29T10:40:50Z</time>
      </trkpt>
      <trkpt lat="45.96892" lon="4.86201">
        <ele>289</ele>
        <time>2017-12-29T10:40:51Z</time>
      </trkpt>
      <trkpt lat="45.96895" lon="4.86194">
        <ele>289</ele>
        <time>2017-12-29T10:40:52Z</time>
      </trkpt>
      <trkpt lat="45.96896" lon="4.86186">
        <ele>288</ele>
        <time>2017-12-29T10:40:53Z</time>
      </trkpt>
      <trkpt lat="45.96897" lon="4.86179">
        <ele>288</ele>
        <time>2017-12-29T10:40:54Z</time>
      </trkpt>
      <trkpt lat="45.96898" lon="4.86172">
        <ele>288</ele>
        <time>2017-12-29T10:40:55Z</time>
      </trkpt>
      <trkpt lat="45.96898" lon="4.86164">
        <ele>288</ele>
        <time>2017-12-29T10:40:56Z</time>
      </trkpt>
      <trkpt lat="45.96898" lon="4.86156">
        <ele>289</ele>
        <time>2017-12-29T10:40:57Z</time>
      </trkpt>
      <trkpt lat="45.96901" lon="4.86149">
        <ele>289</ele>
        <time>2017-12-29T10:40:58Z</time>
      </trkpt>
      <trkpt lat="45.96902" lon="4.86141">
        <ele>289</ele>
        <time>2017-12-29T10:40:59Z</time>
      </trkpt>
      <trkpt lat="45.96903" lon="4.86132">
        <ele>289</ele>
        <time>2017-12-29T10:41:00Z</time>
      </trkpt>
      <trkpt lat="45.96903" lon="4.86125">
        <ele>289</ele>
        <time>2017-12-29T10:41:01Z</time>
      </trkpt>
      <trkpt lat="45.96904" lon="4.86118">
        <ele>289</ele>
        <time>2017-12-29T10:41:02Z</time>
      </trkpt>
      <trkpt lat="45.96905" lon="4.86109">
        <ele>289</ele>
        <time>2017-12-29T10:41:03Z</time>
      </trkpt>
      <trkpt lat="45.96907" lon="4.861">
        <ele>288</ele>
        <time>2017-12-29T10:41:04Z</time>
      </trkpt>
      <trkpt lat="45.96907" lon="4.86092">
        <ele>288</ele>
        <time>2017-12-29T10:41:05Z</time>
      </trkpt>
      <trkpt lat="45.96908" lon="4.86084">
        <ele>288</ele>
        <time>2017-12-29T10:41:06Z</time>
      </trkpt>
      <trkpt lat="45.96908" lon="4.86076">
        <ele>288</ele>
        <time>2017-12-29T10:41:07Z</time>
      </trkpt>
      <trkpt lat="45.96909" lon="4.86067">
        <ele>288</ele>
        <time>2017-12-29T10:41:08Z</time>
      </trkpt>
      <trkpt lat="45.9691" lon="4.86059">
        <ele>288</ele>
        <time>2017-12-29T10:41:09Z</time>
      </trkpt>
      <trkpt lat="45.96911" lon="4.8605">
        <ele>289</ele>
        <time>2017-12-29T10:41:10Z</time>
      </trkpt>
      <trkpt lat="45.96912" lon="4.86041">
        <ele>289</ele>
        <time>2017-12-29T10:41:11Z</time>
      </trkpt>
      <trkpt lat="45.96913" lon="4.86032">
        <ele>289</ele>
        <time>2017-12-29T10:41:12Z</time>
      </trkpt>
      <trkpt lat="45.96915" lon="4.86022">
        <ele>289</ele>
        <time>2017-12-29T10:41:13Z</time>
      </trkpt>
      <trkpt lat="45.96916" lon="4.86013">
        <ele>288</ele>
        <time>2017-12-29T10:41:14Z</time>
      </trkpt>
      <trkpt lat="45.96918" lon="4.86004">
        <ele>288</ele>
        <time>2017-12-29T10:41:15Z</time>
      </trkpt>
      <trkpt lat="45.96919" lon="4.85996">
        <ele>288</ele>
        <time>2017-12-29T10:41:16Z</time>
      </trkpt>
      <trkpt lat="45.96921" lon="4.85986">
        <ele>287</ele>
        <time>2017-12-29T10:41:17Z</time>
      </trkpt>
      <trkpt lat="45.96923" lon="4.85978">
        <ele>287</ele>
        <time>2017-12-29T10:41:18Z</time>
      </trkpt>
      <trkpt lat="45.96924" lon="4.85971">
        <ele>287</ele>
        <time>2017-12-29T10:41:19Z</time>
      </trkpt>
      <trkpt lat="45.96925" lon="4.85963">
        <ele>287</ele>
        <time>2017-12-29T10:41:20Z</time>
      </trkpt>
      <trkpt lat="45.96929" lon="4.85953">
        <ele>287</ele>
        <time>2017-12-29T10:41:21Z</time>
      </trkpt>
      <trkpt lat="45.96932" lon="4.85944">
        <ele>286</ele>
        <time>2017-12-29T10:41:22Z</time>
      </trkpt>
      <trkpt lat="45.96934" lon="4.85936">
        <ele>286</ele>
        <time>2017-12-29T10:41:23Z</time>
      </trkpt>
      <trkpt lat="45.96936" lon="4.85928">
        <ele>286</ele>
        <time>2017-12-29T10:41:24Z</time>
      </trkpt>
      <trkpt lat="45.96938" lon="4.85921">
        <ele>286</ele>
        <time>2017-12-29T10:41:25Z</time>
      </trkpt>
      <trkpt lat="45.9694" lon="4.85912">
        <ele>286</ele>
        <time>2017-12-29T10:41:26Z</time>
      </trkpt>
      <trkpt lat="45.96942" lon="4.85905">
        <ele>285</ele>
        <time>2017-12-29T10:41:27Z</time>
      </trkpt>
      <trkpt lat="45.96944" lon="4.85896">
        <ele>285</ele>
        <time>2017-12-29T10:41:28Z</time>
      </trkpt>
      <trkpt lat="45.96945" lon="4.85887">
        <ele>285</ele>
        <time>2017-12-29T10:41:29Z</time>
      </trkpt>
      <trkpt lat="45.96947" lon="4.85879">
        <ele>285</ele>
        <time>2017-12-29T10:41:30Z</time>
      </trkpt>
      <trkpt lat="45.96949" lon="4.85871">
        <ele>285</ele>
        <time>2017-12-29T10:41:31Z</time>
      </trkpt>
      <trkpt lat="45.96952" lon="4.85862">
        <ele>285</ele>
        <time>2017-12-29T10:41:32Z</time>
      </trkpt>
      <trkpt lat="45.96954" lon="4.85854">
        <ele>285</ele>
        <time>2017-12-29T10:41:33Z</time>
      </trkpt>
      <trkpt lat="45.96956" lon="4.85845">
        <ele>285</ele>
        <time>2017-12-29T10:41:34Z</time>
      </trkpt>
      <trkpt lat="45.96957" lon="4.85837">
        <ele>285</ele>
        <time>2017-12-29T10:41:35Z</time>
      </trkpt>
      <trkpt lat="45.96959" lon="4.85829">
        <ele>285</ele>
        <time>2017-12-29T10:41:36Z</time>
      </trkpt>
      <trkpt lat="45.96961" lon="4.85821">
        <ele>285</ele>
        <time>2017-12-29T10:41:37Z</time>
      </trkpt>
      <trkpt lat="45.96963" lon="4.85813">
        <ele>285</ele>
        <time>2017-12-29T10:41:38Z</time>
      </trkpt>
      <trkpt lat="45.96965" lon="4.85806">
        <ele>285</ele>
        <time>2017-12-29T10:41:39Z</time>
      </trkpt>
      <trkpt lat="45.96968" lon="4.85799">
        <ele>285</ele>
        <time>2017-12-29T10:41:40Z</time>
      </trkpt>
      <trkpt lat="45.9697" lon="4.85791">
        <ele>285</ele>
        <time>2017-12-29T10:41:41Z</time>
      </trkpt>
      <trkpt lat="45.96972" lon="4.85785">
        <ele>285</ele>
        <time>2017-12-29T10:41:42Z</time>
      </trkpt>
      <trkpt lat="45.96975" lon="4.85776">
        <ele>285</ele>
        <time>2017-12-29T10:41:43Z</time>
      </trkpt>
      <trkpt lat="45.96977" lon="4.85768">
        <ele>285</ele>
        <time>2017-12-29T10:41:44Z</time>
      </trkpt>
      <trkpt lat="45.96979" lon="4.85759">
        <ele>285</ele>
        <time>2017-12-29T10:41:45Z</time>
      </trkpt>
      <trkpt lat="45.96982" lon="4.85748">
        <ele>285</ele>
        <time>2017-12-29T10:41:46Z</time>
      </trkpt>
      <trkpt lat="45.96984" lon="4.8574">
        <ele>285</ele>
        <time>2017-12-29T10:41:47Z</time>
      </trkpt>
      <trkpt lat="45.96987" lon="4.85732">
        <ele>285</ele>
        <time>2017-12-29T10:41:48Z</time>
      </trkpt>
      <trkpt lat="45.9699" lon="4.85724">
        <ele>285</ele>
        <time>2017-12-29T10:41:49Z</time>
      </trkpt>
      <trkpt lat="45.96992" lon="4.85717">
        <ele>285</ele>
        <time>2017-12-29T10:41:50Z</time>
      </trkpt>
      <trkpt lat="45.96994" lon="4.85709">
        <ele>285</ele>
        <time>2017-12-29T10:41:51Z</time>
      </trkpt>
      <trkpt lat="45.96995" lon="4.85703">
        <ele>285</ele>
        <time>2017-12-29T10:41:52Z</time>
      </trkpt>
      <trkpt lat="45.96997" lon="4.85696">
        <ele>285</ele>
        <time>2017-12-29T10:41:53Z</time>
      </trkpt>
      <trkpt lat="45.96999" lon="4.85688">
        <ele>285</ele>
        <time>2017-12-29T10:41:54Z</time>
      </trkpt>
      <trkpt lat="45.97001" lon="4.85682">
        <ele>285</ele>
        <time>2017-12-29T10:41:55Z</time>
      </trkpt>
      <trkpt lat="45.97003" lon="4.85675">
        <ele>285</ele>
        <time>2017-12-29T10:41:56Z</time>
      </trkpt>
      <trkpt lat="45.97005" lon="4.85667">
        <ele>286</ele>
        <time>2017-12-29T10:41:57Z</time>
      </trkpt>
      <trkpt lat="45.97007" lon="4.85659">
        <ele>285</ele>
        <time>2017-12-29T10:41:58Z</time>
      </trkpt>
      <trkpt lat="45.97009" lon="4.85652">
        <ele>285</ele>
        <time>2017-12-29T10:41:59Z</time>
      </trkpt>
      <trkpt lat="45.97011" lon="4.85643">
        <ele>284</ele>
        <time>2017-12-29T10:42:00Z</time>
      </trkpt>
      <trkpt lat="45.97012" lon="4.85636">
        <ele>284</ele>
        <time>2017-12-29T10:42:01Z</time>
      </trkpt>
      <trkpt lat="45.97014" lon="4.85629">
        <ele>284</ele>
        <time>2017-12-29T10:42:02Z</time>
      </trkpt>
      <trkpt lat="45.97016" lon="4.85622">
        <ele>284</ele>
        <time>2017-12-29T10:42:03Z</time>
      </trkpt>
      <trkpt lat="45.97018" lon="4.85615">
        <ele>284</ele>
        <time>2017-12-29T10:42:04Z</time>
      </trkpt>
      <trkpt lat="45.9702" lon="4.85607">
        <ele>284</ele>
        <time>2017-12-29T10:42:05Z</time>
      </trkpt>
      <trkpt lat="45.97023" lon="4.85598">
        <ele>284</ele>
        <time>2017-12-29T10:42:06Z</time>
      </trkpt>
      <trkpt lat="45.97024" lon="4.8559">
        <ele>284</ele>
        <time>2017-12-29T10:42:07Z</time>
      </trkpt>
      <trkpt lat="45.97027" lon="4.85582">
        <ele>283</ele>
        <time>2017-12-29T10:42:08Z</time>
      </trkpt>
      <trkpt lat="45.9703" lon="4.85573">
        <ele>283</ele>
        <time>2017-12-29T10:42:09Z</time>
      </trkpt>
      <trkpt lat="45.97032" lon="4.85565">
        <ele>283</ele>
        <time>2017-12-29T10:42:10Z</time>
      </trkpt>
      <trkpt lat="45.97035" lon="4.85557">
        <ele>283</ele>
        <time>2017-12-29T10:42:11Z</time>
      </trkpt>
      <trkpt lat="45.97037" lon="4.85549">
        <ele>282</ele>
        <time>2017-12-29T10:42:12Z</time>
      </trkpt>
      <trkpt lat="45.9704" lon="4.85541">
        <ele>282</ele>
        <time>2017-12-29T10:42:13Z</time>
      </trkpt>
      <trkpt lat="45.97042" lon="4.85533">
        <ele>282</ele>
        <time>2017-12-29T10:42:14Z</time>
      </trkpt>
      <trkpt lat="45.97045" lon="4.85524">
        <ele>282</ele>
        <time>2017-12-29T10:42:15Z</time>
      </trkpt>
      <trkpt lat="45.97046" lon="4.85516">
        <ele>282</ele>
        <time>2017-12-29T10:42:16Z</time>
      </trkpt>
      <trkpt lat="45.97048" lon="4.85508">
        <ele>282</ele>
        <time>2017-12-29T10:42:17Z</time>
      </trkpt>
      <trkpt lat="45.97051" lon="4.85499">
        <ele>281</ele>
        <time>2017-12-29T10:42:18Z</time>
      </trkpt>
      <trkpt lat="45.97053" lon="4.85491">
        <ele>281</ele>
        <time>2017-12-29T10:42:19Z</time>
      </trkpt>
      <trkpt lat="45.97056" lon="4.85483">
        <ele>281</ele>
        <time>2017-12-29T10:42:20Z</time>
      </trkpt>
      <trkpt lat="45.97059" lon="4.85473">
        <ele>281</ele>
        <time>2017-12-29T10:42:21Z</time>
      </trkpt>
      <trkpt lat="45.97063" lon="4.85466">
        <ele>281</ele>
        <time>2017-12-29T10:42:22Z</time>
      </trkpt>
      <trkpt lat="45.97065" lon="4.85457">
        <ele>281</ele>
        <time>2017-12-29T10:42:23Z</time>
      </trkpt>
      <trkpt lat="45.97068" lon="4.85449">
        <ele>281</ele>
        <time>2017-12-29T10:42:24Z</time>
      </trkpt>
      <trkpt lat="45.97071" lon="4.8544">
        <ele>281</ele>
        <time>2017-12-29T10:42:25Z</time>
      </trkpt>
      <trkpt lat="45.97074" lon="4.85431">
        <ele>281</ele>
        <time>2017-12-29T10:42:26Z</time>
      </trkpt>
      <trkpt lat="45.97077" lon="4.85422">
        <ele>280</ele>
        <time>2017-12-29T10:42:27Z</time>
      </trkpt>
      <trkpt lat="45.97079" lon="4.85413">
        <ele>280</ele>
        <time>2017-12-29T10:42:28Z</time>
      </trkpt>
      <trkpt lat="45.97083" lon="4.85403">
        <ele>281</ele>
        <time>2017-12-29T10:42:29Z</time>
      </trkpt>
      <trkpt lat="45.97086" lon="4.85395">
        <ele>280</ele>
        <time>2017-12-29T10:42:30Z</time>
      </trkpt>
      <trkpt lat="45.97089" lon="4.85386">
        <ele>280</ele>
        <time>2017-12-29T10:42:31Z</time>
      </trkpt>
      <trkpt lat="45.97093" lon="4.85378">
        <ele>280</ele>
        <time>2017-12-29T10:42:32Z</time>
      </trkpt>
      <trkpt lat="45.97096" lon="4.85369">
        <ele>280</ele>
        <time>2017-12-29T10:42:33Z</time>
      </trkpt>
      <trkpt lat="45.97098" lon="4.85359">
        <ele>280</ele>
        <time>2017-12-29T10:42:34Z</time>
      </trkpt>
      <trkpt lat="45.97101" lon="4.85351">
        <ele>280</ele>
        <time>2017-12-29T10:42:35Z</time>
      </trkpt>
      <trkpt lat="45.97105" lon="4.85342">
        <ele>280</ele>
        <time>2017-12-29T10:42:36Z</time>
      </trkpt>
      <trkpt lat="45.97108" lon="4.85333">
        <ele>280</ele>
        <time>2017-12-29T10:42:37Z</time>
      </trkpt>
      <trkpt lat="45.97113" lon="4.85326">
        <ele>280</ele>
        <time>2017-12-29T10:42:38Z</time>
      </trkpt>
      <trkpt lat="45.97116" lon="4.85318">
        <ele>280</ele>
        <time>2017-12-29T10:42:39Z</time>
      </trkpt>
      <trkpt lat="45.97119" lon="4.85309">
        <ele>280</ele>
        <time>2017-12-29T10:42:40Z</time>
      </trkpt>
      <trkpt lat="45.97122" lon="4.85301">
        <ele>280</ele>
        <time>2017-12-29T10:42:41Z</time>
      </trkpt>
      <trkpt lat="45.97126" lon="4.85294">
        <ele>279</ele>
        <time>2017-12-29T10:42:42Z</time>
      </trkpt>
      <trkpt lat="45.9713" lon="4.85286">
        <ele>279</ele>
        <time>2017-12-29T10:42:43Z</time>
      </trkpt>
      <trkpt lat="45.97133" lon="4.85278">
        <ele>279</ele>
        <time>2017-12-29T10:42:44Z</time>
      </trkpt>
      <trkpt lat="45.97136" lon="4.85269">
        <ele>279</ele>
        <time>2017-12-29T10:42:45Z</time>
      </trkpt>
      <trkpt lat="45.97139" lon="4.85262">
        <ele>279</ele>
        <time>2017-12-29T10:42:46Z</time>
      </trkpt>
      <trkpt lat="45.97142" lon="4.85255">
        <ele>279</ele>
        <time>2017-12-29T10:42:47Z</time>
      </trkpt>
      <trkpt lat="45.97146" lon="4.85247">
        <ele>279</ele>
        <time>2017-12-29T10:42:48Z</time>
      </trkpt>
      <trkpt lat="45.9715" lon="4.85239">
        <ele>279</ele>
        <time>2017-12-29T10:42:49Z</time>
      </trkpt>
      <trkpt lat="45.97153" lon="4.8523">
        <ele>279</ele>
        <time>2017-12-29T10:42:50Z</time>
      </trkpt>
      <trkpt lat="45.97157" lon="4.85221">
        <ele>279</ele>
        <time>2017-12-29T10:42:51Z</time>
      </trkpt>
      <trkpt lat="45.97162" lon="4.85211">
        <ele>279</ele>
        <time>2017-12-29T10:42:52Z</time>
      </trkpt>
      <trkpt lat="45.97167" lon="4.85202">
        <ele>278</ele>
        <time>2017-12-29T10:42:53Z</time>
      </trkpt>
      <trkpt lat="45.97172" lon="4.85194">
        <ele>278</ele>
        <time>2017-12-29T10:42:54Z</time>
      </trkpt>
      <trkpt lat="45.97178" lon="4.85185">
        <ele>278</ele>
        <time>2017-12-29T10:42:55Z</time>
      </trkpt>
      <trkpt lat="45.97182" lon="4.85175">
        <ele>278</ele>
        <time>2017-12-29T10:42:56Z</time>
      </trkpt>
      <trkpt lat="45.97186" lon="4.85166">
        <ele>278</ele>
        <time>2017-12-29T10:42:57Z</time>
      </trkpt>
      <trkpt lat="45.9719" lon="4.85157">
        <ele>278</ele>
        <time>2017-12-29T10:42:58Z</time>
      </trkpt>
      <trkpt lat="45.97194" lon="4.85148">
        <ele>278</ele>
        <time>2017-12-29T10:42:59Z</time>
      </trkpt>
      <trkpt lat="45.97198" lon="4.85139">
        <ele>278</ele>
        <time>2017-12-29T10:43:00Z</time>
      </trkpt>
      <trkpt lat="45.97202" lon="4.85131">
        <ele>278</ele>
        <time>2017-12-29T10:43:01Z</time>
      </trkpt>
      <trkpt lat="45.97206" lon="4.85121">
        <ele>278</ele>
        <time>2017-12-29T10:43:02Z</time>
      </trkpt>
      <trkpt lat="45.9721" lon="4.85112">
        <ele>278</ele>
        <time>2017-12-29T10:43:03Z</time>
      </trkpt>
      <trkpt lat="45.97215" lon="4.85104">
        <ele>278</ele>
        <time>2017-12-29T10:43:04Z</time>
      </trkpt>
      <trkpt lat="45.97218" lon="4.85095">
        <ele>278</ele>
        <time>2017-12-29T10:43:05Z</time>
      </trkpt>
      <trkpt lat="45.97221" lon="4.85086">
        <ele>278</ele>
        <time>2017-12-29T10:43:06Z</time>
      </trkpt>
      <trkpt lat="45.97225" lon="4.85079">
        <ele>278</ele>
        <time>2017-12-29T10:43:07Z</time>
      </trkpt>
      <trkpt lat="45.9723" lon="4.85071">
        <ele>278</ele>
        <time>2017-12-29T10:43:08Z</time>
      </trkpt>
      <trkpt lat="45.97233" lon="4.85064">
        <ele>278</ele>
        <time>2017-12-29T10:43:09Z</time>
      </trkpt>
      <trkpt lat="45.97236" lon="4.85055">
        <ele>279</ele>
        <time>2017-12-29T10:43:10Z</time>
      </trkpt>
      <trkpt lat="45.9724" lon="4.85048">
        <ele>279</ele>
        <time>2017-12-29T10:43:11Z</time>
      </trkpt>
      <trkpt lat="45.97243" lon="4.8504">
        <ele>279</ele>
        <time>2017-12-29T10:43:12Z</time>
      </trkpt>
      <trkpt lat="45.97247" lon="4.85032">
        <ele>279</ele>
        <time>2017-12-29T10:43:13Z</time>
      </trkpt>
      <trkpt lat="45.97251" lon="4.85023">
        <ele>279</ele>
        <time>2017-12-29T10:43:14Z</time>
      </trkpt>
      <trkpt lat="45.97255" lon="4.85013">
        <ele>279</ele>
        <time>2017-12-29T10:43:15Z</time>
      </trkpt>
      <trkpt lat="45.97258" lon="4.85004">
        <ele>279</ele>
        <time>2017-12-29T10:43:16Z</time>
      </trkpt>
      <trkpt lat="45.97262" lon="4.84995">
        <ele>279</ele>
        <time>2017-12-29T10:43:17Z</time>
      </trkpt>
      <trkpt lat="45.97266" lon="4.84987">
        <ele>279</ele>
        <time>2017-12-29T10:43:18Z</time>
      </trkpt>
      <trkpt lat="45.97269" lon="4.84979">
        <ele>279</ele>
        <time>2017-12-29T10:43:19Z</time>
      </trkpt>
      <trkpt lat="45.97273" lon="4.84971">
        <ele>278</ele>
        <time>2017-12-29T10:43:20Z</time>
      </trkpt>
      <trkpt lat="45.97277" lon="4.84963">
        <ele>278</ele>
        <time>2017-12-29T10:43:21Z</time>
      </trkpt>
      <trkpt lat="45.97281" lon="4.84956">
        <ele>278</ele>
        <time>2017-12-29T10:43:22Z</time>
      </trkpt>
      <trkpt lat="45.97285" lon="4.84948">
        <ele>278</ele>
        <time>2017-12-29T10:43:23Z</time>
      </trkpt>
      <trkpt lat="45.97289" lon="4.84942">
        <ele>278</ele>
        <time>2017-12-29T10:43:24Z</time>
      </trkpt>
      <trkpt lat="45.97293" lon="4.84935">
        <ele>278</ele>
        <time>2017-12-29T10:43:25Z</time>
      </trkpt>
      <trkpt lat="45.97296" lon="4.84928">
        <ele>278</ele>
        <time>2017-12-29T10:43:26Z</time>
      </trkpt>
      <trkpt lat="45.973" lon="4.84921">
        <ele>278</ele>
        <time>2017-12-29T10:43:27Z</time>
      </trkpt>
      <trkpt lat="45.97303" lon="4.84915">
        <ele>278</ele>
        <time>2017-12-29T10:43:28Z</time>
      </trkpt>
      <trkpt lat="45.97307" lon="4.84909">
        <ele>278</ele>
        <time>2017-12-29T10:43:29Z</time>
      </trkpt>
      <trkpt lat="45.97311" lon="4.84904">
        <ele>278</ele>
        <time>2017-12-29T10:43:30Z</time>
      </trkpt>
      <trkpt lat="45.97315" lon="4.84898">
        <ele>278</ele>
        <time>2017-12-29T10:43:31Z</time>
      </trkpt>
      <trkpt lat="45.97319" lon="4.84891">
        <ele>278</ele>
        <time>2017-12-29T10:43:32Z</time>
      </trkpt>
      <trkpt lat="45.97323" lon="4.84884">
        <ele>278</ele>
        <time>2017-12-29T10:43:33Z</time>
      </trkpt>
      <trkpt lat="45.97327" lon="4.84877">
        <ele>278</ele>
        <time>2017-12-29T10:43:34Z</time>
      </trkpt>
      <trkpt lat="45.97331" lon="4.8487">
        <ele>278</ele>
        <time>2017-12-29T10:43:35Z</time>
      </trkpt>
      <trkpt lat="45.97334" lon="4.84863">
        <ele>277</ele>
        <time>2017-12-29T10:43:36Z</time>
      </trkpt>
      <trkpt lat="45.97338" lon="4.84856">
        <ele>277</ele>
        <time>2017-12-29T10:43:37Z</time>
      </trkpt>
      <trkpt lat="45.97342" lon="4.84849">
        <ele>277</ele>
        <time>2017-12-29T10:43:38Z</time>
      </trkpt>
      <trkpt lat="45.97345" lon="4.84842">
        <ele>277</ele>
        <time>2017-12-29T10:43:39Z</time>
      </trkpt>
      <trkpt lat="45.97348" lon="4.84835">
        <ele>277</ele>
        <time>2017-12-29T10:43:40Z</time>
      </trkpt>
      <trkpt lat="45.97351" lon="4.84827">
        <ele>278</ele>
        <time>2017-12-29T10:43:41Z</time>
      </trkpt>
      <trkpt lat="45.97354" lon="4.8482">
        <ele>278</ele>
        <time>2017-12-29T10:43:42Z</time>
      </trkpt>
      <trkpt lat="45.97357" lon="4.84812">
        <ele>278</ele>
        <time>2017-12-29T10:43:43Z</time>
      </trkpt>
      <trkpt lat="45.97359" lon="4.84806">
        <ele>278</ele>
        <time>2017-12-29T10:43:44Z</time>
      </trkpt>
      <trkpt lat="45.97362" lon="4.84799">
        <ele>278</ele>
        <time>2017-12-29T10:43:45Z</time>
      </trkpt>
      <trkpt lat="45.97365" lon="4.84791">
        <ele>278</ele>
        <time>2017-12-29T10:43:46Z</time>
      </trkpt>
      <trkpt lat="45.97369" lon="4.84784">
        <ele>278</ele>
        <time>2017-12-29T10:43:47Z</time>
      </trkpt>
      <trkpt lat="45.97371" lon="4.84776">
        <ele>278</ele>
        <time>2017-12-29T10:43:48Z</time>
      </trkpt>
      <trkpt lat="45.97374" lon="4.84769">
        <ele>278</ele>
        <time>2017-12-29T10:43:49Z</time>
      </trkpt>
      <trkpt lat="45.97378" lon="4.8476">
        <ele>278</ele>
        <time>2017-12-29T10:43:50Z</time>
      </trkpt>
      <trkpt lat="45.97381" lon="4.84753">
        <ele>278</ele>
        <time>2017-12-29T10:43:51Z</time>
      </trkpt>
      <trkpt lat="45.97384" lon="4.84747">
        <ele>278</ele>
        <time>2017-12-29T10:43:52Z</time>
      </trkpt>
      <trkpt lat="45.97388" lon="4.84739">
        <ele>278</ele>
        <time>2017-12-29T10:43:53Z</time>
      </trkpt>
      <trkpt lat="45.97394" lon="4.84731">
        <ele>278</ele>
        <time>2017-12-29T10:43:54Z</time>
      </trkpt>
      <trkpt lat="45.97398" lon="4.84725">
        <ele>278</ele>
        <time>2017-12-29T10:43:55Z</time>
      </trkpt>
      <trkpt lat="45.97404" lon="4.8472">
        <ele>278</ele>
        <time>2017-12-29T10:43:56Z</time>
      </trkpt>
      <trkpt lat="45.97409" lon="4.84716">
        <ele>278</ele>
        <time>2017-12-29T10:43:57Z</time>
      </trkpt>
      <trkpt lat="45.97413" lon="4.84712">
        <ele>278</ele>
        <time>2017-12-29T10:43:58Z</time>
      </trkpt>
      <trkpt lat="45.9742" lon="4.84706">
        <ele>276</ele>
        <time>2017-12-29T10:43:59Z</time>
      </trkpt>
      <trkpt lat="45.97425" lon="4.84701">
        <ele>276</ele>
        <time>2017-12-29T10:44:00Z</time>
      </trkpt>
      <trkpt lat="45.97431" lon="4.84697">
        <ele>276</ele>
        <time>2017-12-29T10:44:01Z</time>
      </trkpt>
      <trkpt lat="45.97437" lon="4.84693">
        <ele>276</ele>
        <time>2017-12-29T10:44:02Z</time>
      </trkpt>
      <trkpt lat="45.97443" lon="4.84688">
        <ele>276</ele>
        <time>2017-12-29T10:44:03Z</time>
      </trkpt>
      <trkpt lat="45.97451" lon="4.84685">
        <ele>276</ele>
        <time>2017-12-29T10:44:04Z</time>
      </trkpt>
      <trkpt lat="45.97456" lon="4.84682">
        <ele>276</ele>
        <time>2017-12-29T10:44:05Z</time>
      </trkpt>
      <trkpt lat="45.97463" lon="4.84676">
        <ele>276</ele>
        <time>2017-12-29T10:44:06Z</time>
      </trkpt>
      <trkpt lat="45.97469" lon="4.84672">
        <ele>276</ele>
        <time>2017-12-29T10:44:07Z</time>
      </trkpt>
      <trkpt lat="45.97474" lon="4.84668">
        <ele>276</ele>
        <time>2017-12-29T10:44:08Z</time>
      </trkpt>
      <trkpt lat="45.9748" lon="4.84665">
        <ele>276</ele>
        <time>2017-12-29T10:44:09Z</time>
      </trkpt>
      <trkpt lat="45.97485" lon="4.84661">
        <ele>275</ele>
        <time>2017-12-29T10:44:10Z</time>
      </trkpt>
      <trkpt lat="45.9749" lon="4.84658">
        <ele>275</ele>
        <time>2017-12-29T10:44:11Z</time>
      </trkpt>
      <trkpt lat="45.97495" lon="4.84655">
        <ele>275</ele>
        <time>2017-12-29T10:44:12Z</time>
      </trkpt>
      <trkpt lat="45.97499" lon="4.8465">
        <ele>275</ele>
        <time>2017-12-29T10:44:13Z</time>
      </trkpt>
      <trkpt lat="45.97504" lon="4.84646">
        <ele>275</ele>
        <time>2017-12-29T10:44:14Z</time>
      </trkpt>
      <trkpt lat="45.97509" lon="4.84643">
        <ele>275</ele>
        <time>2017-12-29T10:44:15Z</time>
      </trkpt>
      <trkpt lat="45.97514" lon="4.8464">
        <ele>275</ele>
        <time>2017-12-29T10:44:16Z</time>
      </trkpt>
      <trkpt lat="45.9752" lon="4.84635">
        <ele>275</ele>
        <time>2017-12-29T10:44:17Z</time>
      </trkpt>
      <trkpt lat="45.97525" lon="4.84631">
        <ele>275</ele>
        <time>2017-12-29T10:44:18Z</time>
      </trkpt>
      <trkpt lat="45.97531" lon="4.84625">
        <ele>275</ele>
        <time>2017-12-29T10:44:19Z</time>
      </trkpt>
      <trkpt lat="45.97537" lon="4.84621">
        <ele>275</ele>
        <time>2017-12-29T10:44:20Z</time>
      </trkpt>
      <trkpt lat="45.97543" lon="4.84615">
        <ele>274</ele>
        <time>2017-12-29T10:44:21Z</time>
      </trkpt>
      <trkpt lat="45.97549" lon="4.84611">
        <ele>274</ele>
        <time>2017-12-29T10:44:22Z</time>
      </trkpt>
      <trkpt lat="45.97554" lon="4.84606">
        <ele>274</ele>
        <time>2017-12-29T10:44:23Z</time>
      </trkpt>
      <trkpt lat="45.97559" lon="4.846">
        <ele>274</ele>
        <time>2017-12-29T10:44:24Z</time>
      </trkpt>
      <trkpt lat="45.97565" lon="4.84594">
        <ele>274</ele>
        <time>2017-12-29T10:44:25Z</time>
      </trkpt>
      <trkpt lat="45.9757" lon="4.84589">
        <ele>274</ele>
        <time>2017-12-29T10:44:26Z</time>
      </trkpt>
      <trkpt lat="45.97575" lon="4.84583">
        <ele>274</ele>
        <time>2017-12-29T10:44:27Z</time>
      </trkpt>
      <trkpt lat="45.9758" lon="4.84578">
        <ele>274</ele>
        <time>2017-12-29T10:44:28Z</time>
      </trkpt>
      <trkpt lat="45.97586" lon="4.84573">
        <ele>274</ele>
        <time>2017-12-29T10:44:29Z</time>
      </trkpt>
      <trkpt lat="45.9759" lon="4.84569">
        <ele>274</ele>
        <time>2017-12-29T10:44:30Z</time>
      </trkpt>
      <trkpt lat="45.97594" lon="4.84563">
        <ele>274</ele>
        <time>2017-12-29T10:44:31Z</time>
      </trkpt>
      <trkpt lat="45.97599" lon="4.84559">
        <ele>275</ele>
        <time>2017-12-29T10:44:32Z</time>
      </trkpt>
      <trkpt lat="45.97603" lon="4.84554">
        <ele>275</ele>
        <time>2017-12-29T10:44:33Z</time>
      </trkpt>
      <trkpt lat="45.97608" lon="4.84548">
        <ele>275</ele>
        <time>2017-12-29T10:44:34Z</time>
      </trkpt>
      <trkpt lat="45.97611" lon="4.84542">
        <ele>275</ele>
        <time>2017-12-29T10:44:35Z</time>
      </trkpt>
      <trkpt lat="45.97616" lon="4.84536">
        <ele>275</ele>
        <time>2017-12-29T10:44:36Z</time>
      </trkpt>
      <trkpt lat="45.9762" lon="4.84529">
        <ele>275</ele>
        <time>2017-12-29T10:44:37Z</time>
      </trkpt>
      <trkpt lat="45.97625" lon="4.84523">
        <ele>275</ele>
        <time>2017-12-29T10:44:38Z</time>
      </trkpt>
      <trkpt lat="45.9763" lon="4.84517">
        <ele>275</ele>
        <time>2017-12-29T10:44:39Z</time>
      </trkpt>
      <trkpt lat="45.97636" lon="4.84511">
        <ele>275</ele>
        <time>2017-12-29T10:44:40Z</time>
      </trkpt>
      <trkpt lat="45.97641" lon="4.84505">
        <ele>275</ele>
        <time>2017-12-29T10:44:41Z</time>
      </trkpt>
      <trkpt lat="45.97646" lon="4.84499">
        <ele>275</ele>
        <time>2017-12-29T10:44:42Z</time>
      </trkpt>
      <trkpt lat="45.9765" lon="4.84493">
        <ele>275</ele>
        <time>2017-12-29T10:44:43Z</time>
      </trkpt>
      <trkpt lat="45.97655" lon="4.84488">
        <ele>275</ele>
        <time>2017-12-29T10:44:44Z</time>
      </trkpt>
      <trkpt lat="45.97659" lon="4.84483">
        <ele>275</ele>
        <time>2017-12-29T10:44:45Z</time>
      </trkpt>
      <trkpt lat="45.97664" lon="4.84479">
        <ele>276</ele>
        <time>2017-12-29T10:44:46Z</time>
      </trkpt>
      <trkpt lat="45.97669" lon="4.84475">
        <ele>276</ele>
        <time>2017-12-29T10:44:47Z</time>
      </trkpt>
      <trkpt lat="45.97673" lon="4.84472">
        <ele>276</ele>
        <time>2017-12-29T10:44:48Z</time>
      </trkpt>
      <trkpt lat="45.97678" lon="4.84468">
        <ele>277</ele>
        <time>2017-12-29T10:44:49Z</time>
      </trkpt>
      <trkpt lat="45.97683" lon="4.84465">
        <ele>277</ele>
        <time>2017-12-29T10:44:50Z</time>
      </trkpt>
      <trkpt lat="45.97689" lon="4.84462">
        <ele>277</ele>
        <time>2017-12-29T10:44:51Z</time>
      </trkpt>
      <trkpt lat="45.97694" lon="4.84459">
        <ele>277</ele>
        <time>2017-12-29T10:44:52Z</time>
      </trkpt>
      <trkpt lat="45.977" lon="4.84455">
        <ele>277</ele>
        <time>2017-12-29T10:44:53Z</time>
      </trkpt>
      <trkpt lat="45.97706" lon="4.84452">
        <ele>277</ele>
        <time>2017-12-29T10:44:54Z</time>
      </trkpt>
      <trkpt lat="45.97711" lon="4.84451">
        <ele>277</ele>
        <time>2017-12-29T10:44:55Z</time>
      </trkpt>
      <trkpt lat="45.97718" lon="4.84449">
        <ele>277</ele>
        <time>2017-12-29T10:44:56Z</time>
      </trkpt>
      <trkpt lat="45.97724" lon="4.84448">
        <ele>277</ele>
        <time>2017-12-29T10:44:57Z</time>
      </trkpt>
      <trkpt lat="45.9773" lon="4.84446">
        <ele>277</ele>
        <time>2017-12-29T10:44:58Z</time>
      </trkpt>
      <trkpt lat="45.97736" lon="4.84443">
        <ele>277</ele>
        <time>2017-12-29T10:44:59Z</time>
      </trkpt>
      <trkpt lat="45.97743" lon="4.84441">
        <ele>277</ele>
        <time>2017-12-29T10:45:00Z</time>
      </trkpt>
      <trkpt lat="45.97749" lon="4.84439">
        <ele>277</ele>
        <time>2017-12-29T10:45:01Z</time>
      </trkpt>
      <trkpt lat="45.97755" lon="4.84438">
        <ele>277</ele>
        <time>2017-12-29T10:45:02Z</time>
      </trkpt>
      <trkpt lat="45.9776" lon="4.84437">
        <ele>277</ele>
        <time>2017-12-29T10:45:03Z</time>
      </trkpt>
      <trkpt lat="45.97766" lon="4.84435">
        <ele>277</ele>
        <time>2017-12-29T10:45:04Z</time>
      </trkpt>
      <trkpt lat="45.97771" lon="4.84433">
        <ele>277</ele>
        <time>2017-12-29T10:45:05Z</time>
      </trkpt>
      <trkpt lat="45.97776" lon="4.84431">
        <ele>277</ele>
        <time>2017-12-29T10:45:06Z</time>
      </trkpt>
      <trkpt lat="45.97782" lon="4.84429">
        <ele>277</ele>
        <time>2017-12-29T10:45:07Z</time>
      </trkpt>
      <trkpt lat="45.97787" lon="4.84426">
        <ele>277</ele>
        <time>2017-12-29T10:45:08Z</time>
      </trkpt>
      <trkpt lat="45.97793" lon="4.84423">
        <ele>277</ele>
        <time>2017-12-29T10:45:09Z</time>
      </trkpt>
      <trkpt lat="45.97799" lon="4.8442">
        <ele>277</ele>
        <time>2017-12-29T10:45:10Z</time>
      </trkpt>
      <trkpt lat="45.97804" lon="4.84417">
        <ele>277</ele>
        <time>2017-12-29T10:45:11Z</time>
      </trkpt>
      <trkpt lat="45.97811" lon="4.84414">
        <ele>277</ele>
        <time>2017-12-29T10:45:12Z</time>
      </trkpt>
      <trkpt lat="45.97817" lon="4.84409">
        <ele>276</ele>
        <time>2017-12-29T10:45:13Z</time>
      </trkpt>
      <trkpt lat="45.97823" lon="4.84405">
        <ele>276</ele>
        <time>2017-12-29T10:45:14Z</time>
      </trkpt>
      <trkpt lat="45.97828" lon="4.84399">
        <ele>276</ele>
        <time>2017-12-29T10:45:15Z</time>
      </trkpt>
      <trkpt lat="45.97834" lon="4.84393">
        <ele>276</ele>
        <time>2017-12-29T10:45:16Z</time>
      </trkpt>
      <trkpt lat="45.97839" lon="4.84388">
        <ele>276</ele>
        <time>2017-12-29T10:45:17Z</time>
      </trkpt>
      <trkpt lat="45.97844" lon="4.84383">
        <ele>276</ele>
        <time>2017-12-29T10:45:18Z</time>
      </trkpt>
      <trkpt lat="45.97848" lon="4.84377">
        <ele>276</ele>
        <time>2017-12-29T10:45:19Z</time>
      </trkpt>
      <trkpt lat="45.97853" lon="4.8437">
        <ele>276</ele>
        <time>2017-12-29T10:45:20Z</time>
      </trkpt>
      <trkpt lat="45.97858" lon="4.84364">
        <ele>276</ele>
        <time>2017-12-29T10:45:21Z</time>
      </trkpt>
      <trkpt lat="45.97862" lon="4.84358">
        <ele>276</ele>
        <time>2017-12-29T10:45:22Z</time>
      </trkpt>
      <trkpt lat="45.97866" lon="4.84352">
        <ele>276</ele>
        <time>2017-12-29T10:45:23Z</time>
      </trkpt>
      <trkpt lat="45.97871" lon="4.84345">
        <ele>276</ele>
        <time>2017-12-29T10:45:24Z</time>
      </trkpt>
      <trkpt lat="45.97874" lon="4.84339">
        <ele>276</ele>
        <time>2017-12-29T10:45:25Z</time>
      </trkpt>
      <trkpt lat="45.97878" lon="4.84333">
        <ele>275</ele>
        <time>2017-12-29T10:45:26Z</time>
      </trkpt>
      <trkpt lat="45.97881" lon="4.84327">
        <ele>275</ele>
        <time>2017-12-29T10:45:27Z</time>
      </trkpt>
      <trkpt lat="45.97885" lon="4.8432">
        <ele>275</ele>
        <time>2017-12-29T10:45:28Z</time>
      </trkpt>
      <trkpt lat="45.97889" lon="4.84313">
        <ele>275</ele>
        <time>2017-12-29T10:45:29Z</time>
      </trkpt>
      <trkpt lat="45.97894" lon="4.84307">
        <ele>275</ele>
        <time>2017-12-29T10:45:30Z</time>
      </trkpt>
      <trkpt lat="45.97898" lon="4.843">
        <ele>275</ele>
        <time>2017-12-29T10:45:31Z</time>
      </trkpt>
      <trkpt lat="45.97904" lon="4.84292">
        <ele>275</ele>
        <time>2017-12-29T10:45:32Z</time>
      </trkpt>
      <trkpt lat="45.97909" lon="4.84286">
        <ele>275</ele>
        <time>2017-12-29T10:45:33Z</time>
      </trkpt>
      <trkpt lat="45.97914" lon="4.8428">
        <ele>275</ele>
        <time>2017-12-29T10:45:34Z</time>
      </trkpt>
      <trkpt lat="45.97919" lon="4.84275">
        <ele>275</ele>
        <time>2017-12-29T10:45:35Z</time>
      </trkpt>
      <trkpt lat="45.97924" lon="4.8427">
        <ele>275</ele>
        <time>2017-12-29T10:45:36Z</time>
      </trkpt>
      <trkpt lat="45.97929" lon="4.84265">
        <ele>275</ele>
        <time>2017-12-29T10:45:37Z</time>
      </trkpt>
      <trkpt lat="45.97935" lon="4.84261">
        <ele>275</ele>
        <time>2017-12-29T10:45:38Z</time>
      </trkpt>
      <trkpt lat="45.9794" lon="4.84256">
        <ele>275</ele>
        <time>2017-12-29T10:45:39Z</time>
      </trkpt>
      <trkpt lat="45.97945" lon="4.84251">
        <ele>275</ele>
        <time>2017-12-29T10:45:40Z</time>
      </trkpt>
      <trkpt lat="45.97949" lon="4.84245">
        <ele>275</ele>
        <time>2017-12-29T10:45:41Z</time>
      </trkpt>
      <trkpt lat="45.97954" lon="4.8424">
        <ele>275</ele>
        <time>2017-12-29T10:45:42Z</time>
      </trkpt>
      <trkpt lat="45.97962" lon="4.84235">
        <ele>274</ele>
        <time>2017-12-29T10:45:43Z</time>
      </trkpt>
      <trkpt lat="45.97967" lon="4.84231">
        <ele>274</ele>
        <time>2017-12-29T10:45:44Z</time>
      </trkpt>
      <trkpt lat="45.97972" lon="4.84226">
        <ele>274</ele>
        <time>2017-12-29T10:45:45Z</time>
      </trkpt>
      <trkpt lat="45.97977" lon="4.84221">
        <ele>274</ele>
        <time>2017-12-29T10:45:46Z</time>
      </trkpt>
      <trkpt lat="45.97982" lon="4.84216">
        <ele>274</ele>
        <time>2017-12-29T10:45:47Z</time>
      </trkpt>
      <trkpt lat="45.97987" lon="4.84211">
        <ele>274</ele>
        <time>2017-12-29T10:45:48Z</time>
      </trkpt>
      <trkpt lat="45.97993" lon="4.84206">
        <ele>274</ele>
        <time>2017-12-29T10:45:49Z</time>
      </trkpt>
      <trkpt lat="45.97998" lon="4.84201">
        <ele>274</ele>
        <time>2017-12-29T10:45:50Z</time>
      </trkpt>
      <trkpt lat="45.98004" lon="4.84194">
        <ele>274</ele>
        <time>2017-12-29T10:45:51Z</time>
      </trkpt>
      <trkpt lat="45.9801" lon="4.84189">
        <ele>274</ele>
        <time>2017-12-29T10:45:52Z</time>
      </trkpt>
      <trkpt lat="45.98016" lon="4.84184">
        <ele>274</ele>
        <time>2017-12-29T10:45:53Z</time>
      </trkpt>
      <trkpt lat="45.98022" lon="4.84178">
        <ele>274</ele>
        <time>2017-12-29T10:45:54Z</time>
      </trkpt>
      <trkpt lat="45.98029" lon="4.84172">
        <ele>274</ele>
        <time>2017-12-29T10:45:55Z</time>
      </trkpt>
      <trkpt lat="45.98036" lon="4.84166">
        <ele>273</ele>
        <time>2017-12-29T10:45:56Z</time>
      </trkpt>
      <trkpt lat="45.98041" lon="4.8416">
        <ele>273</ele>
        <time>2017-12-29T10:45:57Z</time>
      </trkpt>
      <trkpt lat="45.98047" lon="4.84154">
        <ele>273</ele>
        <time>2017-12-29T10:45:58Z</time>
      </trkpt>
      <trkpt lat="45.98054" lon="4.84148">
        <ele>273</ele>
        <time>2017-12-29T10:45:59Z</time>
      </trkpt>
      <trkpt lat="45.98061" lon="4.84142">
        <ele>273</ele>
        <time>2017-12-29T10:46:00Z</time>
      </trkpt>
      <trkpt lat="45.98067" lon="4.84135">
        <ele>273</ele>
        <time>2017-12-29T10:46:01Z</time>
      </trkpt>
      <trkpt lat="45.98073" lon="4.84129">
        <ele>273</ele>
        <time>2017-12-29T10:46:02Z</time>
      </trkpt>
      <trkpt lat="45.98079" lon="4.84122">
        <ele>273</ele>
        <time>2017-12-29T10:46:03Z</time>
      </trkpt>
      <trkpt lat="45.98085" lon="4.84116">
        <ele>273</ele>
        <time>2017-12-29T10:46:04Z</time>
      </trkpt>
      <trkpt lat="45.98091" lon="4.84111">
        <ele>273</ele>
        <time>2017-12-29T10:46:05Z</time>
      </trkpt>
      <trkpt lat="45.98097" lon="4.84106">
        <ele>273</ele>
        <time>2017-12-29T10:46:06Z</time>
      </trkpt>
      <trkpt lat="45.98103" lon="4.841">
        <ele>273</ele>
        <time>2017-12-29T10:46:07Z</time>
      </trkpt>
      <trkpt lat="45.98109" lon="4.84095">
        <ele>273</ele>
        <time>2017-12-29T10:46:08Z</time>
      </trkpt>
      <trkpt lat="45.98115" lon="4.8409">
        <ele>273</ele>
        <time>2017-12-29T10:46:09Z</time>
      </trkpt>
      <trkpt lat="45.9812" lon="4.84085">
        <ele>273</ele>
        <time>2017-12-29T10:46:10Z</time>
      </trkpt>
      <trkpt lat="45.98125" lon="4.84078">
        <ele>273</ele>
        <time>2017-12-29T10:46:11Z</time>
      </trkpt>
      <trkpt lat="45.9813" lon="4.84073">
        <ele>273</ele>
        <time>2017-12-29T10:46:12Z</time>
      </trkpt>
      <trkpt lat="45.98135" lon="4.84066">
        <ele>273</ele>
        <time>2017-12-29T10:46:13Z</time>
      </trkpt>
      <trkpt lat="45.98141" lon="4.84059">
        <ele>273</ele>
        <time>2017-12-29T10:46:14Z</time>
      </trkpt>
      <trkpt lat="45.98146" lon="4.84053">
        <ele>273</ele>
        <time>2017-12-29T10:46:15Z</time>
      </trkpt>
      <trkpt lat="45.98151" lon="4.84047">
        <ele>273</ele>
        <time>2017-12-29T10:46:16Z</time>
      </trkpt>
      <trkpt lat="45.98156" lon="4.84041">
        <ele>273</ele>
        <time>2017-12-29T10:46:17Z</time>
      </trkpt>
      <trkpt lat="45.9816" lon="4.84033">
        <ele>273</ele>
        <time>2017-12-29T10:46:18Z</time>
      </trkpt>
      <trkpt lat="45.98164" lon="4.84024">
        <ele>273</ele>
        <time>2017-12-29T10:46:19Z</time>
      </trkpt>
      <trkpt lat="45.98168" lon="4.84016">
        <ele>273</ele>
        <time>2017-12-29T10:46:20Z</time>
      </trkpt>
      <trkpt lat="45.98172" lon="4.84008">
        <ele>273</ele>
        <time>2017-12-29T10:46:21Z</time>
      </trkpt>
      <trkpt lat="45.98175" lon="4.83999">
        <ele>273</ele>
        <time>2017-12-29T10:46:22Z</time>
      </trkpt>
      <trkpt lat="45.9818" lon="4.83989">
        <ele>273</ele>
        <time>2017-12-29T10:46:23Z</time>
      </trkpt>
      <trkpt lat="45.98184" lon="4.83978">
        <ele>273</ele>
        <time>2017-12-29T10:46:24Z</time>
      </trkpt>
      <trkpt lat="45.98187" lon="4.83969">
        <ele>273</ele>
        <time>2017-12-29T10:46:25Z</time>
      </trkpt>
      <trkpt lat="45.98193" lon="4.83958">
        <ele>273</ele>
        <time>2017-12-29T10:46:26Z</time>
      </trkpt>
      <trkpt lat="45.98196" lon="4.83949">
        <ele>273</ele>
        <time>2017-12-29T10:46:27Z</time>
      </trkpt>
      <trkpt lat="45.98199" lon="4.83941">
        <ele>273</ele>
        <time>2017-12-29T10:46:28Z</time>
      </trkpt>
      <trkpt lat="45.98203" lon="4.83933">
        <ele>273</ele>
        <time>2017-12-29T10:46:29Z</time>
      </trkpt>
      <trkpt lat="45.98205" lon="4.83924">
        <ele>273</ele>
        <time>2017-12-29T10:46:30Z</time>
      </trkpt>
      <trkpt lat="45.98208" lon="4.83915">
        <ele>273</ele>
        <time>2017-12-29T10:46:31Z</time>
      </trkpt>
      <trkpt lat="45.98211" lon="4.83906">
        <ele>273</ele>
        <time>2017-12-29T10:46:32Z</time>
      </trkpt>
      <trkpt lat="45.98213" lon="4.83898">
        <ele>273</ele>
        <time>2017-12-29T10:46:33Z</time>
      </trkpt>
      <trkpt lat="45.98216" lon="4.83891">
        <ele>273</ele>
        <time>2017-12-29T10:46:34Z</time>
      </trkpt>
      <trkpt lat="45.98219" lon="4.83883">
        <ele>272</ele>
        <time>2017-12-29T10:46:35Z</time>
      </trkpt>
      <trkpt lat="45.98223" lon="4.83873">
        <ele>272</ele>
        <time>2017-12-29T10:46:36Z</time>
      </trkpt>
      <trkpt lat="45.98228" lon="4.83865">
        <ele>272</ele>
        <time>2017-12-29T10:46:37Z</time>
      </trkpt>
      <trkpt lat="45.98231" lon="4.83857">
        <ele>272</ele>
        <time>2017-12-29T10:46:38Z</time>
      </trkpt>
      <trkpt lat="45.98233" lon="4.83848">
        <ele>272</ele>
        <time>2017-12-29T10:46:39Z</time>
      </trkpt>
      <trkpt lat="45.98236" lon="4.83839">
        <ele>272</ele>
        <time>2017-12-29T10:46:40Z</time>
      </trkpt>
      <trkpt lat="45.98239" lon="4.8383">
        <ele>272</ele>
        <time>2017-12-29T10:46:41Z</time>
      </trkpt>
      <trkpt lat="45.98242" lon="4.83821">
        <ele>272</ele>
        <time>2017-12-29T10:46:42Z</time>
      </trkpt>
      <trkpt lat="45.98245" lon="4.83812">
        <ele>272</ele>
        <time>2017-12-29T10:46:43Z</time>
      </trkpt>
      <trkpt lat="45.9825" lon="4.83803">
        <ele>272</ele>
        <time>2017-12-29T10:46:44Z</time>
      </trkpt>
      <trkpt lat="45.98253" lon="4.83794">
        <ele>272</ele>
        <time>2017-12-29T10:46:45Z</time>
      </trkpt>
      <trkpt lat="45.98256" lon="4.83784">
        <ele>272</ele>
        <time>2017-12-29T10:46:46Z</time>
      </trkpt>
      <trkpt lat="45.98259" lon="4.83775">
        <ele>272</ele>
        <time>2017-12-29T10:46:47Z</time>
      </trkpt>
      <trkpt lat="45.98262" lon="4.83766">
        <ele>272</ele>
        <time>2017-12-29T10:46:48Z</time>
      </trkpt>
      <trkpt lat="45.98265" lon="4.83757">
        <ele>272</ele>
        <time>2017-12-29T10:46:49Z</time>
      </trkpt>
      <trkpt lat="45.98265" lon="4.83749">
        <ele>272</ele>
        <time>2017-12-29T10:46:50Z</time>
      </trkpt>
      <trkpt lat="45.98267" lon="4.83741">
        <ele>272</ele>
        <time>2017-12-29T10:46:51Z</time>
      </trkpt>
      <trkpt lat="45.98269" lon="4.83733">
        <ele>272</ele>
        <time>2017-12-29T10:46:52Z</time>
      </trkpt>
      <trkpt lat="45.98272" lon="4.83725">
        <ele>272</ele>
        <time>2017-12-29T10:46:53Z</time>
      </trkpt>
      <trkpt lat="45.98274" lon="4.83717">
        <ele>272</ele>
        <time>2017-12-29T10:46:54Z</time>
      </trkpt>
      <trkpt lat="45.98277" lon="4.8371">
        <ele>272</ele>
        <time>2017-12-29T10:46:55Z</time>
      </trkpt>
      <trkpt lat="45.9828" lon="4.83703">
        <ele>272</ele>
        <time>2017-12-29T10:46:56Z</time>
      </trkpt>
      <trkpt lat="45.98282" lon="4.83695">
        <ele>272</ele>
        <time>2017-12-29T10:46:57Z</time>
      </trkpt>
      <trkpt lat="45.98285" lon="4.83686">
        <ele>272</ele>
        <time>2017-12-29T10:46:58Z</time>
      </trkpt>
      <trkpt lat="45.98289" lon="4.83677">
        <ele>272</ele>
        <time>2017-12-29T10:46:59Z</time>
      </trkpt>
      <trkpt lat="45.98293" lon="4.83668">
        <ele>272</ele>
        <time>2017-12-29T10:47:00Z</time>
      </trkpt>
      <trkpt lat="45.98297" lon="4.8366">
        <ele>271</ele>
        <time>2017-12-29T10:47:01Z</time>
      </trkpt>
      <trkpt lat="45.983" lon="4.8365">
        <ele>271</ele>
        <time>2017-12-29T10:47:02Z</time>
      </trkpt>
      <trkpt lat="45.98304" lon="4.83641">
        <ele>271</ele>
        <time>2017-12-29T10:47:03Z</time>
      </trkpt>
      <trkpt lat="45.9831" lon="4.83633">
        <ele>271</ele>
        <time>2017-12-29T10:47:04Z</time>
      </trkpt>
      <trkpt lat="45.98314" lon="4.83625">
        <ele>271</ele>
        <time>2017-12-29T10:47:05Z</time>
      </trkpt>
      <trkpt lat="45.98318" lon="4.83616">
        <ele>271</ele>
        <time>2017-12-29T10:47:06Z</time>
      </trkpt>
      <trkpt lat="45.98322" lon="4.83609">
        <ele>271</ele>
        <time>2017-12-29T10:47:07Z</time>
      </trkpt>
      <trkpt lat="45.98329" lon="4.836">
        <ele>271</ele>
        <time>2017-12-29T10:47:08Z</time>
      </trkpt>
      <trkpt lat="45.98334" lon="4.83593">
        <ele>270</ele>
        <time>2017-12-29T10:47:09Z</time>
      </trkpt>
      <trkpt lat="45.98339" lon="4.83586">
        <ele>270</ele>
        <time>2017-12-29T10:47:10Z</time>
      </trkpt>
      <trkpt lat="45.98344" lon="4.83578">
        <ele>270</ele>
        <time>2017-12-29T10:47:11Z</time>
      </trkpt>
      <trkpt lat="45.9835" lon="4.83572">
        <ele>269</ele>
        <time>2017-12-29T10:47:12Z</time>
      </trkpt>
      <trkpt lat="45.98355" lon="4.83566">
        <ele>269</ele>
        <time>2017-12-29T10:47:13Z</time>
      </trkpt>
      <trkpt lat="45.9836" lon="4.83559">
        <ele>269</ele>
        <time>2017-12-29T10:47:14Z</time>
      </trkpt>
      <trkpt lat="45.98365" lon="4.83551">
        <ele>269</ele>
        <time>2017-12-29T10:47:15Z</time>
      </trkpt>
      <trkpt lat="45.98372" lon="4.83544">
        <ele>269</ele>
        <time>2017-12-29T10:47:16Z</time>
      </trkpt>
      <trkpt lat="45.98377" lon="4.83536">
        <ele>269</ele>
        <time>2017-12-29T10:47:17Z</time>
      </trkpt>
      <trkpt lat="45.98382" lon="4.83529">
        <ele>269</ele>
        <time>2017-12-29T10:47:18Z</time>
      </trkpt>
      <trkpt lat="45.98388" lon="4.83524">
        <ele>269</ele>
        <time>2017-12-29T10:47:19Z</time>
      </trkpt>
      <trkpt lat="45.98393" lon="4.83517">
        <ele>269</ele>
        <time>2017-12-29T10:47:20Z</time>
      </trkpt>
      <trkpt lat="45.98397" lon="4.83511">
        <ele>269</ele>
        <time>2017-12-29T10:47:21Z</time>
      </trkpt>
      <trkpt lat="45.98402" lon="4.83505">
        <ele>268</ele>
        <time>2017-12-29T10:47:22Z</time>
      </trkpt>
      <trkpt lat="45.98406" lon="4.83498">
        <ele>268</ele>
        <time>2017-12-29T10:47:23Z</time>
      </trkpt>
      <trkpt lat="45.98411" lon="4.83491">
        <ele>268</ele>
        <time>2017-12-29T10:47:24Z</time>
      </trkpt>
      <trkpt lat="45.98415" lon="4.83484">
        <ele>269</ele>
        <time>2017-12-29T10:47:25Z</time>
      </trkpt>
      <trkpt lat="45.98421" lon="4.83477">
        <ele>268</ele>
        <time>2017-12-29T10:47:26Z</time>
      </trkpt>
      <trkpt lat="45.98426" lon="4.83471">
        <ele>268</ele>
        <time>2017-12-29T10:47:27Z</time>
      </trkpt>
      <trkpt lat="45.98431" lon="4.83465">
        <ele>268</ele>
        <time>2017-12-29T10:47:28Z</time>
      </trkpt>
      <trkpt lat="45.98437" lon="4.83457">
        <ele>268</ele>
        <time>2017-12-29T10:47:29Z</time>
      </trkpt>
      <trkpt lat="45.98442" lon="4.8345">
        <ele>268</ele>
        <time>2017-12-29T10:47:30Z</time>
      </trkpt>
      <trkpt lat="45.98447" lon="4.83443">
        <ele>268</ele>
        <time>2017-12-29T10:47:31Z</time>
      </trkpt>
      <trkpt lat="45.98452" lon="4.83436">
        <ele>268</ele>
        <time>2017-12-29T10:47:32Z</time>
      </trkpt>
      <trkpt lat="45.98458" lon="4.83429">
        <ele>268</ele>
        <time>2017-12-29T10:47:33Z</time>
      </trkpt>
      <trkpt lat="45.98463" lon="4.83422">
        <ele>269</ele>
        <time>2017-12-29T10:47:34Z</time>
      </trkpt>
      <trkpt lat="45.98468" lon="4.83414">
        <ele>269</ele>
        <time>2017-12-29T10:47:35Z</time>
      </trkpt>
      <trkpt lat="45.98473" lon="4.83406">
        <ele>269</ele>
        <time>2017-12-29T10:47:36Z</time>
      </trkpt>
      <trkpt lat="45.98477" lon="4.834">
        <ele>269</ele>
        <time>2017-12-29T10:47:37Z</time>
      </trkpt>
      <trkpt lat="45.98482" lon="4.83393">
        <ele>269</ele>
        <time>2017-12-29T10:47:38Z</time>
      </trkpt>
      <trkpt lat="45.98488" lon="4.83387">
        <ele>269</ele>
        <time>2017-12-29T10:47:39Z</time>
      </trkpt>
      <trkpt lat="45.98493" lon="4.83381">
        <ele>269</ele>
        <time>2017-12-29T10:47:40Z</time>
      </trkpt>
      <trkpt lat="45.98496" lon="4.83376">
        <ele>269</ele>
        <time>2017-12-29T10:47:41Z</time>
      </trkpt>
      <trkpt lat="45.98501" lon="4.83369">
        <ele>269</ele>
        <time>2017-12-29T10:47:42Z</time>
      </trkpt>
      <trkpt lat="45.98505" lon="4.83364">
        <ele>269</ele>
        <time>2017-12-29T10:47:43Z</time>
      </trkpt>
      <trkpt lat="45.98509" lon="4.83358">
        <ele>269</ele>
        <time>2017-12-29T10:47:44Z</time>
      </trkpt>
      <trkpt lat="45.98514" lon="4.83351">
        <ele>270</ele>
        <time>2017-12-29T10:47:45Z</time>
      </trkpt>
      <trkpt lat="45.98519" lon="4.83344">
        <ele>270</ele>
        <time>2017-12-29T10:47:46Z</time>
      </trkpt>
      <trkpt lat="45.98523" lon="4.83336">
        <ele>270</ele>
        <time>2017-12-29T10:47:47Z</time>
      </trkpt>
      <trkpt lat="45.98527" lon="4.83331">
        <ele>269</ele>
        <time>2017-12-29T10:47:48Z</time>
      </trkpt>
      <trkpt lat="45.98532" lon="4.83324">
        <ele>269</ele>
        <time>2017-12-29T10:47:49Z</time>
      </trkpt>
      <trkpt lat="45.98536" lon="4.83318">
        <ele>269</ele>
        <time>2017-12-29T10:47:50Z</time>
      </trkpt>
      <trkpt lat="45.98539" lon="4.83311">
        <ele>269</ele>
        <time>2017-12-29T10:47:51Z</time>
      </trkpt>
      <trkpt lat="45.98544" lon="4.83305">
        <ele>269</ele>
        <time>2017-12-29T10:47:52Z</time>
      </trkpt>
      <trkpt lat="45.98549" lon="4.83301">
        <ele>269</ele>
        <time>2017-12-29T10:47:53Z</time>
      </trkpt>
      <trkpt lat="45.98553" lon="4.83294">
        <ele>269</ele>
        <time>2017-12-29T10:47:54Z</time>
      </trkpt>
      <trkpt lat="45.98558" lon="4.83289">
        <ele>269</ele>
        <time>2017-12-29T10:47:55Z</time>
      </trkpt>
      <trkpt lat="45.98562" lon="4.83285">
        <ele>269</ele>
        <time>2017-12-29T10:47:56Z</time>
      </trkpt>
      <trkpt lat="45.98566" lon="4.8328">
        <ele>269</ele>
        <time>2017-12-29T10:47:57Z</time>
      </trkpt>
      <trkpt lat="45.9857" lon="4.83274">
        <ele>269</ele>
        <time>2017-12-29T10:47:58Z</time>
      </trkpt>
      <trkpt lat="45.98575" lon="4.83269">
        <ele>269</ele>
        <time>2017-12-29T10:47:59Z</time>
      </trkpt>
      <trkpt lat="45.9858" lon="4.83263">
        <ele>269</ele>
        <time>2017-12-29T10:48:00Z</time>
      </trkpt>
      <trkpt lat="45.98584" lon="4.83256">
        <ele>268</ele>
        <time>2017-12-29T10:48:01Z</time>
      </trkpt>
      <trkpt lat="45.98589" lon="4.83249">
        <ele>268</ele>
        <time>2017-12-29T10:48:02Z</time>
      </trkpt>
      <trkpt lat="45.98594" lon="4.8324">
        <ele>268</ele>
        <time>2017-12-29T10:48:03Z</time>
      </trkpt>
      <trkpt lat="45.986" lon="4.83233">
        <ele>268</ele>
        <time>2017-12-29T10:48:04Z</time>
      </trkpt>
      <trkpt lat="45.98605" lon="4.83226">
        <ele>267</ele>
        <time>2017-12-29T10:48:05Z</time>
      </trkpt>
      <trkpt lat="45.9861" lon="4.83218">
        <ele>267</ele>
        <time>2017-12-29T10:48:06Z</time>
      </trkpt>
      <trkpt lat="45.98615" lon="4.83211">
        <ele>267</ele>
        <time>2017-12-29T10:48:07Z</time>
      </trkpt>
      <trkpt lat="45.9862" lon="4.83204">
        <ele>267</ele>
        <time>2017-12-29T10:48:08Z</time>
      </trkpt>
      <trkpt lat="45.98626" lon="4.83197">
        <ele>267</ele>
        <time>2017-12-29T10:48:09Z</time>
      </trkpt>
      <trkpt lat="45.98632" lon="4.83191">
        <ele>267</ele>
        <time>2017-12-29T10:48:10Z</time>
      </trkpt>
      <trkpt lat="45.98638" lon="4.83185">
        <ele>267</ele>
        <time>2017-12-29T10:48:11Z</time>
      </trkpt>
      <trkpt lat="45.98645" lon="4.83181">
        <ele>267</ele>
        <time>2017-12-29T10:48:12Z</time>
      </trkpt>
      <trkpt lat="45.98653" lon="4.83173">
        <ele>267</ele>
        <time>2017-12-29T10:48:13Z</time>
      </trkpt>
      <trkpt lat="45.9866" lon="4.83168">
        <ele>266</ele>
        <time>2017-12-29T10:48:14Z</time>
      </trkpt>
      <trkpt lat="45.98666" lon="4.83164">
        <ele>266</ele>
        <time>2017-12-29T10:48:15Z</time>
      </trkpt>
      <trkpt lat="45.98673" lon="4.83159">
        <ele>266</ele>
        <time>2017-12-29T10:48:16Z</time>
      </trkpt>
      <trkpt lat="45.9868" lon="4.83153">
        <ele>266</ele>
        <time>2017-12-29T10:48:17Z</time>
      </trkpt>
      <trkpt lat="45.98687" lon="4.83148">
        <ele>266</ele>
        <time>2017-12-29T10:48:18Z</time>
      </trkpt>
      <trkpt lat="45.98695" lon="4.83143">
        <ele>266</ele>
        <time>2017-12-29T10:48:19Z</time>
      </trkpt>
      <trkpt lat="45.98702" lon="4.83137">
        <ele>266</ele>
        <time>2017-12-29T10:48:20Z</time>
      </trkpt>
      <trkpt lat="45.9871" lon="4.8313">
        <ele>266</ele>
        <time>2017-12-29T10:48:21Z</time>
      </trkpt>
      <trkpt lat="45.98717" lon="4.83124">
        <ele>266</ele>
        <time>2017-12-29T10:48:22Z</time>
      </trkpt>
      <trkpt lat="45.98724" lon="4.83118">
        <ele>267</ele>
        <time>2017-12-29T10:48:23Z</time>
      </trkpt>
      <trkpt lat="45.98731" lon="4.83112">
        <ele>267</ele>
        <time>2017-12-29T10:48:24Z</time>
      </trkpt>
      <trkpt lat="45.98738" lon="4.83106">
        <ele>267</ele>
        <time>2017-12-29T10:48:25Z</time>
      </trkpt>
      <trkpt lat="45.98745" lon="4.83099">
        <ele>267</ele>
        <time>2017-12-29T10:48:26Z</time>
      </trkpt>
      <trkpt lat="45.98753" lon="4.83094">
        <ele>266</ele>
        <time>2017-12-29T10:48:27Z</time>
      </trkpt>
      <trkpt lat="45.9876" lon="4.83088">
        <ele>266</ele>
        <time>2017-12-29T10:48:28Z</time>
      </trkpt>
      <trkpt lat="45.98767" lon="4.83082">
        <ele>266</ele>
        <time>2017-12-29T10:48:29Z</time>
      </trkpt>
      <trkpt lat="45.98775" lon="4.83076">
        <ele>265</ele>
        <time>2017-12-29T10:48:30Z</time>
      </trkpt>
      <trkpt lat="45.98783" lon="4.83068">
        <ele>265</ele>
        <time>2017-12-29T10:48:31Z</time>
      </trkpt>
      <trkpt lat="45.9879" lon="4.83061">
        <ele>265</ele>
        <time>2017-12-29T10:48:32Z</time>
      </trkpt>
      <trkpt lat="45.98799" lon="4.83054">
        <ele>264</ele>
        <time>2017-12-29T10:48:33Z</time>
      </trkpt>
      <trkpt lat="45.98807" lon="4.83047">
        <ele>264</ele>
        <time>2017-12-29T10:48:34Z</time>
      </trkpt>
      <trkpt lat="45.98815" lon="4.83039">
        <ele>264</ele>
        <time>2017-12-29T10:48:35Z</time>
      </trkpt>
      <trkpt lat="45.98825" lon="4.83032">
        <ele>264</ele>
        <time>2017-12-29T10:48:36Z</time>
      </trkpt>
      <trkpt lat="45.98833" lon="4.83026">
        <ele>264</ele>
        <time>2017-12-29T10:48:37Z</time>
      </trkpt>
      <trkpt lat="45.98843" lon="4.83019">
        <ele>261</ele>
        <time>2017-12-29T10:48:38Z</time>
      </trkpt>
      <trkpt lat="45.98852" lon="4.83013">
        <ele>261</ele>
        <time>2017-12-29T10:48:39Z</time>
      </trkpt>
      <trkpt lat="45.98862" lon="4.83006">
        <ele>260</ele>
        <time>2017-12-29T10:48:40Z</time>
      </trkpt>
      <trkpt lat="45.98872" lon="4.82998">
        <ele>260</ele>
        <time>2017-12-29T10:48:41Z</time>
      </trkpt>
      <trkpt lat="45.98881" lon="4.82991">
        <ele>259</ele>
        <time>2017-12-29T10:48:42Z</time>
      </trkpt>
      <trkpt lat="45.98891" lon="4.82984">
        <ele>259</ele>
        <time>2017-12-29T10:48:43Z</time>
      </trkpt>
      <trkpt lat="45.98901" lon="4.82975">
        <ele>259</ele>
        <time>2017-12-29T10:48:44Z</time>
      </trkpt>
      <trkpt lat="45.98909" lon="4.82963">
        <ele>259</ele>
        <time>2017-12-29T10:48:45Z</time>
      </trkpt>
      <trkpt lat="45.98917" lon="4.8295">
        <ele>255</ele>
        <time>2017-12-29T10:48:46Z</time>
      </trkpt>
      <trkpt lat="45.98924" lon="4.82936">
        <ele>255</ele>
        <time>2017-12-29T10:48:47Z</time>
      </trkpt>
      <trkpt lat="45.9893" lon="4.82921">
        <ele>255</ele>
        <time>2017-12-29T10:48:48Z</time>
      </trkpt>
      <trkpt lat="45.98937" lon="4.82905">
        <ele>254</ele>
        <time>2017-12-29T10:48:49Z</time>
      </trkpt>
      <trkpt lat="45.98946" lon="4.82887">
        <ele>253</ele>
        <time>2017-12-29T10:48:50Z</time>
      </trkpt>
      <trkpt lat="45.98953" lon="4.8287">
        <ele>253</ele>
        <time>2017-12-29T10:48:51Z</time>
      </trkpt>
      <trkpt lat="45.9896" lon="4.82854">
        <ele>252</ele>
        <time>2017-12-29T10:48:52Z</time>
      </trkpt>
      <trkpt lat="45.98966" lon="4.82838">
        <ele>252</ele>
        <time>2017-12-29T10:48:53Z</time>
      </trkpt>
      <trkpt lat="45.98973" lon="4.82822">
        <ele>249</ele>
        <time>2017-12-29T10:48:54Z</time>
      </trkpt>
      <trkpt lat="45.9898" lon="4.82805">
        <ele>248</ele>
        <time>2017-12-29T10:48:55Z</time>
      </trkpt>
      <trkpt lat="45.98988" lon="4.82788">
        <ele>247</ele>
        <time>2017-12-29T10:48:56Z</time>
      </trkpt>
      <trkpt lat="45.98995" lon="4.82771">
        <ele>245</ele>
        <time>2017-12-29T10:48:57Z</time>
      </trkpt>
      <trkpt lat="45.99002" lon="4.82755">
        <ele>241</ele>
        <time>2017-12-29T10:48:58Z</time>
      </trkpt>
      <trkpt lat="45.99009" lon="4.82739">
        <ele>240</ele>
        <time>2017-12-29T10:48:59Z</time>
      </trkpt>
      <trkpt lat="45.99016" lon="4.82721">
        <ele>239</ele>
        <time>2017-12-29T10:49:00Z</time>
      </trkpt>
      <trkpt lat="45.99023" lon="4.82706">
        <ele>238</ele>
        <time>2017-12-29T10:49:01Z</time>
      </trkpt>
      <trkpt lat="45.99029" lon="4.82691">
        <ele>238</ele>
        <time>2017-12-29T10:49:02Z</time>
      </trkpt>
      <trkpt lat="45.99037" lon="4.82675">
        <ele>238</ele>
        <time>2017-12-29T10:49:03Z</time>
      </trkpt>
      <trkpt lat="45.99046" lon="4.82661">
        <ele>236</ele>
        <time>2017-12-29T10:49:04Z</time>
      </trkpt>
      <trkpt lat="45.99051" lon="4.82647">
        <ele>236</ele>
        <time>2017-12-29T10:49:05Z</time>
      </trkpt>
      <trkpt lat="45.99057" lon="4.82634">
        <ele>236</ele>
        <time>2017-12-29T10:49:06Z</time>
      </trkpt>
      <trkpt lat="45.99062" lon="4.82622">
        <ele>236</ele>
        <time>2017-12-29T10:49:07Z</time>
      </trkpt>
      <trkpt lat="45.99066" lon="4.82611">
        <ele>236</ele>
        <time>2017-12-29T10:49:08Z</time>
      </trkpt>
      <trkpt lat="45.9907" lon="4.82602">
        <ele>236</ele>
        <time>2017-12-29T10:49:09Z</time>
      </trkpt>
      <trkpt lat="45.99073" lon="4.82594">
        <ele>235</ele>
        <time>2017-12-29T10:49:10Z</time>
      </trkpt>
      <trkpt lat="45.99075" lon="4.82587">
        <ele>235</ele>
        <time>2017-12-29T10:49:11Z</time>
      </trkpt>
      <trkpt lat="45.99075" lon="4.8258">
        <ele>235</ele>
        <time>2017-12-29T10:49:12Z</time>
      </trkpt>
      <trkpt lat="45.99075" lon="4.82571">
        <ele>235</ele>
        <time>2017-12-29T10:49:13Z</time>
      </trkpt>
      <trkpt lat="45.99072" lon="4.82565">
        <ele>235</ele>
        <time>2017-12-29T10:49:14Z</time>
      </trkpt>
      <trkpt lat="45.99067" lon="4.82561">
        <ele>235</ele>
        <time>2017-12-29T10:49:15Z</time>
      </trkpt>
      <trkpt lat="45.99062" lon="4.8256">
        <ele>235</ele>
        <time>2017-12-29T10:49:16Z</time>
      </trkpt>
      <trkpt lat="45.99057" lon="4.82561">
        <ele>235</ele>
        <time>2017-12-29T10:49:17Z</time>
      </trkpt>
      <trkpt lat="45.99053" lon="4.82561">
        <ele>235</ele>
        <time>2017-12-29T10:49:18Z</time>
      </trkpt>
      <trkpt lat="45.99049" lon="4.82558">
        <ele>235</ele>
        <time>2017-12-29T10:49:19Z</time>
      </trkpt>
      <trkpt lat="45.99044" lon="4.82557">
        <ele>235</ele>
        <time>2017-12-29T10:49:20Z</time>
      </trkpt>
      <trkpt lat="45.9904" lon="4.82553">
        <ele>235</ele>
        <time>2017-12-29T10:49:21Z</time>
      </trkpt>
      <trkpt lat="45.99037" lon="4.82549">
        <ele>235</ele>
        <time>2017-12-29T10:49:23Z</time>
      </trkpt>
      <trkpt lat="45.99033" lon="4.82545">
        <ele>235</ele>
        <time>2017-12-29T10:49:24Z</time>
      </trkpt>
      <trkpt lat="45.99025" lon="4.82539">
        <ele>235</ele>
        <time>2017-12-29T10:49:26Z</time>
      </trkpt>
      <trkpt lat="45.99021" lon="4.82535">
        <ele>235</ele>
        <time>2017-12-29T10:49:27Z</time>
      </trkpt>
      <trkpt lat="45.99018" lon="4.82531">
        <ele>235</ele>
        <time>2017-12-29T10:49:28Z</time>
      </trkpt>
      <trkpt lat="45.99015" lon="4.82526">
        <ele>235</ele>
        <time>2017-12-29T10:49:29Z</time>
      </trkpt>
      <trkpt lat="45.99011" lon="4.82519">
        <ele>235</ele>
        <time>2017-12-29T10:49:31Z</time>
      </trkpt>
      <trkpt lat="45.99008" lon="4.82513">
        <ele>235</ele>
        <time>2017-12-29T10:49:32Z</time>
      </trkpt>
      <trkpt lat="45.99005" lon="4.82506">
        <ele>235</ele>
        <time>2017-12-29T10:49:33Z</time>
      </trkpt>
      <trkpt lat="45.99002" lon="4.82501">
        <ele>235</ele>
        <time>2017-12-29T10:49:34Z</time>
      </trkpt>
      <trkpt lat="45.98997" lon="4.82491">
        <ele>236</ele>
        <time>2017-12-29T10:49:36Z</time>
      </trkpt>
      <trkpt lat="45.98994" lon="4.82485">
        <ele>236</ele>
        <time>2017-12-29T10:49:37Z</time>
      </trkpt>
      <trkpt lat="45.98992" lon="4.82479">
        <ele>236</ele>
        <time>2017-12-29T10:49:38Z</time>
      </trkpt>
      <trkpt lat="45.9899" lon="4.82472">
        <ele>236</ele>
        <time>2017-12-29T10:49:39Z</time>
      </trkpt>
      <trkpt lat="45.98989" lon="4.82465">
        <ele>236</ele>
        <time>2017-12-29T10:49:40Z</time>
      </trkpt>
      <trkpt lat="45.98987" lon="4.82459">
        <ele>236</ele>
        <time>2017-12-29T10:49:41Z</time>
      </trkpt>
      <trkpt lat="45.98983" lon="4.82449">
        <ele>236</ele>
        <time>2017-12-29T10:49:43Z</time>
      </trkpt>
      <trkpt lat="45.98983" lon="4.82442">
        <ele>236</ele>
        <time>2017-12-29T10:49:44Z</time>
      </trkpt>
      <trkpt lat="45.98979" lon="4.82431">
        <ele>236</ele>
        <time>2017-12-29T10:49:46Z</time>
      </trkpt>
      <trkpt lat="45.98978" lon="4.82425">
        <ele>236</ele>
        <time>2017-12-29T10:49:47Z</time>
      </trkpt>
      <trkpt lat="45.98976" lon="4.82418">
        <ele>236</ele>
        <time>2017-12-29T10:49:48Z</time>
      </trkpt>
      <trkpt lat="45.98975" lon="4.82411">
        <ele>235</ele>
        <time>2017-12-29T10:49:49Z</time>
      </trkpt>
      <trkpt lat="45.98974" lon="4.82405">
        <ele>235</ele>
        <time>2017-12-29T10:49:50Z</time>
      </trkpt>
      <trkpt lat="45.98972" lon="4.82397">
        <ele>235</ele>
        <time>2017-12-29T10:49:51Z</time>
      </trkpt>
      <trkpt lat="45.9897" lon="4.82391">
        <ele>235</ele>
        <time>2017-12-29T10:49:52Z</time>
      </trkpt>
      <trkpt lat="45.98968" lon="4.82384">
        <ele>235</ele>
        <time>2017-12-29T10:49:53Z</time>
      </trkpt>
      <trkpt lat="45.98967" lon="4.82378">
        <ele>235</ele>
        <time>2017-12-29T10:49:54Z</time>
      </trkpt>
      <trkpt lat="45.98966" lon="4.82371">
        <ele>235</ele>
        <time>2017-12-29T10:49:55Z</time>
      </trkpt>
      <trkpt lat="45.98962" lon="4.82359">
        <ele>235</ele>
        <time>2017-12-29T10:49:57Z</time>
      </trkpt>
      <trkpt lat="45.98961" lon="4.82352">
        <ele>235</ele>
        <time>2017-12-29T10:49:58Z</time>
      </trkpt>
      <trkpt lat="45.98959" lon="4.82343">
        <ele>235</ele>
        <time>2017-12-29T10:49:59Z</time>
      </trkpt>
      <trkpt lat="45.98956" lon="4.82338">
        <ele>235</ele>
        <time>2017-12-29T10:50:00Z</time>
      </trkpt>
      <trkpt lat="45.98952" lon="4.82333">
        <ele>234</ele>
        <time>2017-12-29T10:50:01Z</time>
      </trkpt>
      <trkpt lat="45.98948" lon="4.82328">
        <ele>234</ele>
        <time>2017-12-29T10:50:02Z</time>
      </trkpt>
      <trkpt lat="45.98944" lon="4.82322">
        <ele>234</ele>
        <time>2017-12-29T10:50:03Z</time>
      </trkpt>
      <trkpt lat="45.98941" lon="4.82316">
        <ele>234</ele>
        <time>2017-12-29T10:50:04Z</time>
      </trkpt>
      <trkpt lat="45.98936" lon="4.82312">
        <ele>234</ele>
        <time>2017-12-29T10:50:05Z</time>
      </trkpt>
      <trkpt lat="45.98931" lon="4.82308">
        <ele>234</ele>
        <time>2017-12-29T10:50:06Z</time>
      </trkpt>
      <trkpt lat="45.98928" lon="4.82303">
        <ele>234</ele>
        <time>2017-12-29T10:50:07Z</time>
      </trkpt>
      <trkpt lat="45.98924" lon="4.82299">
        <ele>234</ele>
        <time>2017-12-29T10:50:08Z</time>
      </trkpt>
      <trkpt lat="45.9892" lon="4.82294">
        <ele>234</ele>
        <time>2017-12-29T10:50:09Z</time>
      </trkpt>
      <trkpt lat="45.98916" lon="4.82289">
        <ele>236</ele>
        <time>2017-12-29T10:50:10Z</time>
      </trkpt>
      <trkpt lat="45.98912" lon="4.82285">
        <ele>236</ele>
        <time>2017-12-29T10:50:11Z</time>
      </trkpt>
      <trkpt lat="45.98909" lon="4.8228">
        <ele>236</ele>
        <time>2017-12-29T10:50:12Z</time>
      </trkpt>
      <trkpt lat="45.98905" lon="4.82276">
        <ele>236</ele>
        <time>2017-12-29T10:50:13Z</time>
      </trkpt>
      <trkpt lat="45.98901" lon="4.82271">
        <ele>236</ele>
        <time>2017-12-29T10:50:14Z</time>
      </trkpt>
      <trkpt lat="45.98898" lon="4.82267">
        <ele>236</ele>
        <time>2017-12-29T10:50:15Z</time>
      </trkpt>
      <trkpt lat="45.98895" lon="4.82262">
        <ele>236</ele>
        <time>2017-12-29T10:50:16Z</time>
      </trkpt>
      <trkpt lat="45.98891" lon="4.82257">
        <ele>236</ele>
        <time>2017-12-29T10:50:17Z</time>
      </trkpt>
      <trkpt lat="45.98888" lon="4.82253">
        <ele>236</ele>
        <time>2017-12-29T10:50:18Z</time>
      </trkpt>
      <trkpt lat="45.98884" lon="4.82247">
        <ele>236</ele>
        <time>2017-12-29T10:50:19Z</time>
      </trkpt>
      <trkpt lat="45.98882" lon="4.82242">
        <ele>236</ele>
        <time>2017-12-29T10:50:20Z</time>
      </trkpt>
      <trkpt lat="45.9888" lon="4.82236">
        <ele>236</ele>
        <time>2017-12-29T10:50:21Z</time>
      </trkpt>
      <trkpt lat="45.98877" lon="4.8223">
        <ele>236</ele>
        <time>2017-12-29T10:50:22Z</time>
      </trkpt>
      <trkpt lat="45.98875" lon="4.82223">
        <ele>236</ele>
        <time>2017-12-29T10:50:23Z</time>
      </trkpt>
      <trkpt lat="45.98873" lon="4.82217">
        <ele>236</ele>
        <time>2017-12-29T10:50:24Z</time>
      </trkpt>
      <trkpt lat="45.98871" lon="4.8221">
        <ele>236</ele>
        <time>2017-12-29T10:50:25Z</time>
      </trkpt>
      <trkpt lat="45.98868" lon="4.82204">
        <ele>236</ele>
        <time>2017-12-29T10:50:26Z</time>
      </trkpt>
      <trkpt lat="45.98865" lon="4.82197">
        <ele>236</ele>
        <time>2017-12-29T10:50:27Z</time>
      </trkpt>
      <trkpt lat="45.98862" lon="4.82191">
        <ele>236</ele>
        <time>2017-12-29T10:50:28Z</time>
      </trkpt>
      <trkpt lat="45.9886" lon="4.82185">
        <ele>236</ele>
        <time>2017-12-29T10:50:29Z</time>
      </trkpt>
      <trkpt lat="45.98858" lon="4.82177">
        <ele>236</ele>
        <time>2017-12-29T10:50:30Z</time>
      </trkpt>
      <trkpt lat="45.98853" lon="4.82166">
        <ele>236</ele>
        <time>2017-12-29T10:50:32Z</time>
      </trkpt>
      <trkpt lat="45.98851" lon="4.82161">
        <ele>236</ele>
        <time>2017-12-29T10:50:33Z</time>
      </trkpt>
      <trkpt lat="45.98847" lon="4.82154">
        <ele>236</ele>
        <time>2017-12-29T10:50:34Z</time>
      </trkpt>
      <trkpt lat="45.98847" lon="4.82149">
        <ele>236</ele>
        <time>2017-12-29T10:50:35Z</time>
      </trkpt>
      <trkpt lat="45.98845" lon="4.82144">
        <ele>236</ele>
        <time>2017-12-29T10:50:36Z</time>
      </trkpt>
      <trkpt lat="45.98843" lon="4.82137">
        <ele>236</ele>
        <time>2017-12-29T10:50:37Z</time>
      </trkpt>
      <trkpt lat="45.98841" lon="4.82129">
        <ele>236</ele>
        <time>2017-12-29T10:50:38Z</time>
      </trkpt>
      <trkpt lat="45.9884" lon="4.82123">
        <ele>236</ele>
        <time>2017-12-29T10:50:39Z</time>
      </trkpt>
      <trkpt lat="45.9884" lon="4.82115">
        <ele>235</ele>
        <time>2017-12-29T10:50:40Z</time>
      </trkpt>
      <trkpt lat="45.98839" lon="4.82109">
        <ele>235</ele>
        <time>2017-12-29T10:50:41Z</time>
      </trkpt>
      <trkpt lat="45.98836" lon="4.82097">
        <ele>236</ele>
        <time>2017-12-29T10:50:43Z</time>
      </trkpt>
      <trkpt lat="45.98834" lon="4.82091">
        <ele>236</ele>
        <time>2017-12-29T10:50:44Z</time>
      </trkpt>
      <trkpt lat="45.98834" lon="4.82083">
        <ele>236</ele>
        <time>2017-12-29T10:50:45Z</time>
      </trkpt>
      <trkpt lat="45.98834" lon="4.82077">
        <ele>236</ele>
        <time>2017-12-29T10:50:46Z</time>
      </trkpt>
      <trkpt lat="45.98833" lon="4.8207">
        <ele>237</ele>
        <time>2017-12-29T10:50:47Z</time>
      </trkpt>
      <trkpt lat="45.98832" lon="4.8206">
        <ele>237</ele>
        <time>2017-12-29T10:50:48Z</time>
      </trkpt>
      <trkpt lat="45.9883" lon="4.8205">
        <ele>237</ele>
        <time>2017-12-29T10:50:50Z</time>
      </trkpt>
      <trkpt lat="45.9883" lon="4.82044">
        <ele>238</ele>
        <time>2017-12-29T10:50:51Z</time>
      </trkpt>
      <trkpt lat="45.98829" lon="4.82037">
        <ele>238</ele>
        <time>2017-12-29T10:50:52Z</time>
      </trkpt>
      <trkpt lat="45.98828" lon="4.82031">
        <ele>238</ele>
        <time>2017-12-29T10:50:53Z</time>
      </trkpt>
      <trkpt lat="45.98826" lon="4.82024">
        <ele>238</ele>
        <time>2017-12-29T10:50:54Z</time>
      </trkpt>
      <trkpt lat="45.98825" lon="4.82018">
        <ele>238</ele>
        <time>2017-12-29T10:50:55Z</time>
      </trkpt>
      <trkpt lat="45.98824" lon="4.82011">
        <ele>238</ele>
        <time>2017-12-29T10:50:56Z</time>
      </trkpt>
      <trkpt lat="45.98823" lon="4.82004">
        <ele>238</ele>
        <time>2017-12-29T10:50:57Z</time>
      </trkpt>
      <trkpt lat="45.98822" lon="4.81997">
        <ele>238</ele>
        <time>2017-12-29T10:50:58Z</time>
      </trkpt>
      <trkpt lat="45.9882" lon="4.8199">
        <ele>238</ele>
        <time>2017-12-29T10:50:59Z</time>
      </trkpt>
      <trkpt lat="45.98819" lon="4.81977">
        <ele>239</ele>
        <time>2017-12-29T10:51:01Z</time>
      </trkpt>
      <trkpt lat="45.98818" lon="4.8197">
        <ele>239</ele>
        <time>2017-12-29T10:51:02Z</time>
      </trkpt>
      <trkpt lat="45.98815" lon="4.81958">
        <ele>239</ele>
        <time>2017-12-29T10:51:04Z</time>
      </trkpt>
      <trkpt lat="45.98813" lon="4.81952">
        <ele>239</ele>
        <time>2017-12-29T10:51:05Z</time>
      </trkpt>
      <trkpt lat="45.98811" lon="4.81941">
        <ele>239</ele>
        <time>2017-12-29T10:51:07Z</time>
      </trkpt>
      <trkpt lat="45.98809" lon="4.81933">
        <ele>239</ele>
        <time>2017-12-29T10:51:08Z</time>
      </trkpt>
      <trkpt lat="45.9881" lon="4.81925">
        <ele>239</ele>
        <time>2017-12-29T10:51:09Z</time>
      </trkpt>
      <trkpt lat="45.98809" lon="4.81917">
        <ele>239</ele>
        <time>2017-12-29T10:51:10Z</time>
      </trkpt>
      <trkpt lat="45.98809" lon="4.81909">
        <ele>239</ele>
        <time>2017-12-29T10:51:11Z</time>
      </trkpt>
      <trkpt lat="45.9881" lon="4.81903">
        <ele>239</ele>
        <time>2017-12-29T10:51:12Z</time>
      </trkpt>
      <trkpt lat="45.98807" lon="4.81891">
        <ele>239</ele>
        <time>2017-12-29T10:51:14Z</time>
      </trkpt>
      <trkpt lat="45.98805" lon="4.81886">
        <ele>239</ele>
        <time>2017-12-29T10:51:15Z</time>
      </trkpt>
      <trkpt lat="45.98801" lon="4.81875">
        <ele>239</ele>
        <time>2017-12-29T10:51:17Z</time>
      </trkpt>
      <trkpt lat="45.98798" lon="4.81871">
        <ele>239</ele>
        <time>2017-12-29T10:51:18Z</time>
      </trkpt>
      <trkpt lat="45.98796" lon="4.81865">
        <ele>239</ele>
        <time>2017-12-29T10:51:19Z</time>
      </trkpt>
      <trkpt lat="45.98793" lon="4.8186">
        <ele>239</ele>
        <time>2017-12-29T10:51:20Z</time>
      </trkpt>
      <trkpt lat="45.98789" lon="4.8185">
        <ele>239</ele>
        <time>2017-12-29T10:51:22Z</time>
      </trkpt>
      <trkpt lat="45.98786" lon="4.81845">
        <ele>239</ele>
        <time>2017-12-29T10:51:23Z</time>
      </trkpt>
      <trkpt lat="45.98787" lon="4.81837">
        <ele>239</ele>
        <time>2017-12-29T10:51:24Z</time>
      </trkpt>
      <trkpt lat="45.98784" lon="4.81832">
        <ele>240</ele>
        <time>2017-12-29T10:51:25Z</time>
      </trkpt>
      <trkpt lat="45.98779" lon="4.81823">
        <ele>240</ele>
        <time>2017-12-29T10:51:27Z</time>
      </trkpt>
      <trkpt lat="45.98777" lon="4.81818">
        <ele>240</ele>
        <time>2017-12-29T10:51:28Z</time>
      </trkpt>
      <trkpt lat="45.98774" lon="4.81808">
        <ele>240</ele>
        <time>2017-12-29T10:51:30Z</time>
      </trkpt>
      <trkpt lat="45.98772" lon="4.81803">
        <ele>240</ele>
        <time>2017-12-29T10:51:31Z</time>
      </trkpt>
      <trkpt lat="45.98769" lon="4.81793">
        <ele>241</ele>
        <time>2017-12-29T10:51:33Z</time>
      </trkpt>
      <trkpt lat="45.98767" lon="4.81789">
        <ele>241</ele>
        <time>2017-12-29T10:51:34Z</time>
      </trkpt>
      <trkpt lat="45.98762" lon="4.81778">
        <ele>241</ele>
        <time>2017-12-29T10:51:36Z</time>
      </trkpt>
      <trkpt lat="45.98761" lon="4.81774">
        <ele>241</ele>
        <time>2017-12-29T10:51:37Z</time>
      </trkpt>
      <trkpt lat="45.98756" lon="4.81767">
        <ele>241</ele>
        <time>2017-12-29T10:51:39Z</time>
      </trkpt>
      <trkpt lat="45.98754" lon="4.81763">
        <ele>241</ele>
        <time>2017-12-29T10:51:40Z</time>
      </trkpt>
      <trkpt lat="45.98749" lon="4.81754">
        <ele>241</ele>
        <time>2017-12-29T10:51:42Z</time>
      </trkpt>
      <trkpt lat="45.98746" lon="4.8175">
        <ele>241</ele>
        <time>2017-12-29T10:51:43Z</time>
      </trkpt>
      <trkpt lat="45.98743" lon="4.81745">
        <ele>240</ele>
        <time>2017-12-29T10:51:44Z</time>
      </trkpt>
      <trkpt lat="45.98741" lon="4.8174">
        <ele>240</ele>
        <time>2017-12-29T10:51:45Z</time>
      </trkpt>
      <trkpt lat="45.98735" lon="4.8173">
        <ele>239</ele>
        <time>2017-12-29T10:51:47Z</time>
      </trkpt>
      <trkpt lat="45.98732" lon="4.81726">
        <ele>239</ele>
        <time>2017-12-29T10:51:48Z</time>
      </trkpt>
      <trkpt lat="45.98725" lon="4.81722">
        <ele>239</ele>
        <time>2017-12-29T10:51:50Z</time>
      </trkpt>
      <trkpt lat="45.98721" lon="4.81721">
        <ele>239</ele>
        <time>2017-12-29T10:51:51Z</time>
      </trkpt>
      <trkpt lat="45.98713" lon="4.81723">
        <ele>239</ele>
        <time>2017-12-29T10:51:53Z</time>
      </trkpt>
      <trkpt lat="45.98708" lon="4.81728">
        <ele>239</ele>
        <time>2017-12-29T10:51:54Z</time>
      </trkpt>
      <trkpt lat="45.98703" lon="4.81729">
        <ele>239</ele>
        <time>2017-12-29T10:51:55Z</time>
      </trkpt>
      <trkpt lat="45.98697" lon="4.8173">
        <ele>239</ele>
        <time>2017-12-29T10:51:56Z</time>
      </trkpt>
      <trkpt lat="45.98692" lon="4.81732">
        <ele>238</ele>
        <time>2017-12-29T10:51:57Z</time>
      </trkpt>
      <trkpt lat="45.98688" lon="4.81733">
        <ele>238</ele>
        <time>2017-12-29T10:51:58Z</time>
      </trkpt>
      <trkpt lat="45.98684" lon="4.81737">
        <ele>238</ele>
        <time>2017-12-29T10:51:59Z</time>
      </trkpt>
      <trkpt lat="45.9868" lon="4.81738">
        <ele>238</ele>
        <time>2017-12-29T10:52:00Z</time>
      </trkpt>
      <trkpt lat="45.98673" lon="4.81739">
        <ele>238</ele>
        <time>2017-12-29T10:52:02Z</time>
      </trkpt>
      <trkpt lat="45.98668" lon="4.8174">
        <ele>238</ele>
        <time>2017-12-29T10:52:03Z</time>
      </trkpt>
      <trkpt lat="45.9866" lon="4.81742">
        <ele>237</ele>
        <time>2017-12-29T10:52:05Z</time>
      </trkpt>
      <trkpt lat="45.98655" lon="4.81743">
        <ele>237</ele>
        <time>2017-12-29T10:52:06Z</time>
      </trkpt>
      <trkpt lat="45.9865" lon="4.81745">
        <ele>237</ele>
        <time>2017-12-29T10:52:07Z</time>
      </trkpt>
      <trkpt lat="45.98646" lon="4.81746">
        <ele>237</ele>
        <time>2017-12-29T10:52:08Z</time>
      </trkpt>
      <trkpt lat="45.98641" lon="4.81747">
        <ele>237</ele>
        <time>2017-12-29T10:52:09Z</time>
      </trkpt>
      <trkpt lat="45.98637" lon="4.81748">
        <ele>237</ele>
        <time>2017-12-29T10:52:10Z</time>
      </trkpt>
      <trkpt lat="45.98632" lon="4.81751">
        <ele>238</ele>
        <time>2017-12-29T10:52:11Z</time>
      </trkpt>
      <trkpt lat="45.98627" lon="4.81751">
        <ele>238</ele>
        <time>2017-12-29T10:52:12Z</time>
      </trkpt>
      <trkpt lat="45.98622" lon="4.81752">
        <ele>238</ele>
        <time>2017-12-29T10:52:13Z</time>
      </trkpt>
      <trkpt lat="45.98618" lon="4.81752">
        <ele>238</ele>
        <time>2017-12-29T10:52:14Z</time>
      </trkpt>
      <trkpt lat="45.98611" lon="4.81755">
        <ele>238</ele>
        <time>2017-12-29T10:52:16Z</time>
      </trkpt>
      <trkpt lat="45.98606" lon="4.81757">
        <ele>238</ele>
        <time>2017-12-29T10:52:17Z</time>
      </trkpt>
      <trkpt lat="45.98601" lon="4.8176">
        <ele>238</ele>
        <time>2017-12-29T10:52:18Z</time>
      </trkpt>
      <trkpt lat="45.98596" lon="4.81763">
        <ele>238</ele>
        <time>2017-12-29T10:52:19Z</time>
      </trkpt>
      <trkpt lat="45.98591" lon="4.81767">
        <ele>238</ele>
        <time>2017-12-29T10:52:20Z</time>
      </trkpt>
      <trkpt lat="45.98587" lon="4.81771">
        <ele>238</ele>
        <time>2017-12-29T10:52:21Z</time>
      </trkpt>
      <trkpt lat="45.98582" lon="4.81777">
        <ele>237</ele>
        <time>2017-12-29T10:52:22Z</time>
      </trkpt>
      <trkpt lat="45.9858" lon="4.81781">
        <ele>238</ele>
        <time>2017-12-29T10:52:23Z</time>
      </trkpt>
      <trkpt lat="45.98578" lon="4.81785">
        <ele>238</ele>
        <time>2017-12-29T10:52:24Z</time>
      </trkpt>
      <trkpt lat="45.98572" lon="4.8179">
        <ele>238</ele>
        <time>2017-12-29T10:52:25Z</time>
      </trkpt>
      <trkpt lat="45.98567" lon="4.81793">
        <ele>238</ele>
        <time>2017-12-29T10:52:26Z</time>
      </trkpt>
      <trkpt lat="45.98564" lon="4.81797">
        <ele>238</ele>
        <time>2017-12-29T10:52:27Z</time>
      </trkpt>
      <trkpt lat="45.98556" lon="4.81801">
        <ele>238</ele>
        <time>2017-12-29T10:52:29Z</time>
      </trkpt>
      <trkpt lat="45.98551" lon="4.81802">
        <ele>238</ele>
        <time>2017-12-29T10:52:30Z</time>
      </trkpt>
      <trkpt lat="45.98542" lon="4.818">
        <ele>238</ele>
        <time>2017-12-29T10:52:32Z</time>
      </trkpt>
      <trkpt lat="45.98538" lon="4.81797">
        <ele>238</ele>
        <time>2017-12-29T10:52:33Z</time>
      </trkpt>
      <trkpt lat="45.98534" lon="4.81793">
        <ele>238</ele>
        <time>2017-12-29T10:52:34Z</time>
      </trkpt>
      <trkpt lat="45.98532" lon="4.81787">
        <ele>238</ele>
        <time>2017-12-29T10:52:35Z</time>
      </trkpt>
      <trkpt lat="45.98525" lon="4.81778">
        <ele>238</ele>
        <time>2017-12-29T10:52:37Z</time>
      </trkpt>
      <trkpt lat="45.98521" lon="4.81773">
        <ele>238</ele>
        <time>2017-12-29T10:52:38Z</time>
      </trkpt>
      <trkpt lat="45.98516" lon="4.81765">
        <ele>237</ele>
        <time>2017-12-29T10:52:40Z</time>
      </trkpt>
      <trkpt lat="45.98513" lon="4.81757">
        <ele>237</ele>
        <time>2017-12-29T10:52:41Z</time>
      </trkpt>
      <trkpt lat="45.98506" lon="4.8175">
        <ele>237</ele>
        <time>2017-12-29T10:52:43Z</time>
      </trkpt>
      <trkpt lat="45.98502" lon="4.81747">
        <ele>237</ele>
        <time>2017-12-29T10:52:44Z</time>
      </trkpt>
      <trkpt lat="45.98496" lon="4.81741">
        <ele>238</ele>
        <time>2017-12-29T10:52:46Z</time>
      </trkpt>
      <trkpt lat="45.98493" lon="4.81738">
        <ele>238</ele>
        <time>2017-12-29T10:52:47Z</time>
      </trkpt>
      <trkpt lat="45.98488" lon="4.81732">
        <ele>238</ele>
        <time>2017-12-29T10:52:49Z</time>
      </trkpt>
      <trkpt lat="45.98484" lon="4.81729">
        <ele>238</ele>
        <time>2017-12-29T10:52:50Z</time>
      </trkpt>
      <trkpt lat="45.98478" lon="4.81722">
        <ele>238</ele>
        <time>2017-12-29T10:52:52Z</time>
      </trkpt>
      <trkpt lat="45.98475" lon="4.8172">
        <ele>239</ele>
        <time>2017-12-29T10:52:53Z</time>
      </trkpt>
      <trkpt lat="45.98467" lon="4.81713">
        <ele>239</ele>
        <time>2017-12-29T10:52:56Z</time>
      </trkpt>
      <trkpt lat="45.98465" lon="4.81711">
        <ele>239</ele>
        <time>2017-12-29T10:52:57Z</time>
      </trkpt>
      <trkpt lat="45.9846" lon="4.81701">
        <ele>239</ele>
        <time>2017-12-29T10:53:00Z</time>
      </trkpt>
      <trkpt lat="45.98459" lon="4.81697">
        <ele>239</ele>
        <time>2017-12-29T10:53:01Z</time>
      </trkpt>
      <trkpt lat="45.98454" lon="4.81688">
        <ele>239</ele>
        <time>2017-12-29T10:53:04Z</time>
      </trkpt>
      <trkpt lat="45.98451" lon="4.81684">
        <ele>239</ele>
        <time>2017-12-29T10:53:05Z</time>
      </trkpt>
      <trkpt lat="45.98446" lon="4.81677">
        <ele>239</ele>
        <time>2017-12-29T10:53:07Z</time>
      </trkpt>
      <trkpt lat="45.98444" lon="4.81673">
        <ele>239</ele>
        <time>2017-12-29T10:53:08Z</time>
      </trkpt>
      <trkpt lat="45.98438" lon="4.81666">
        <ele>239</ele>
        <time>2017-12-29T10:53:10Z</time>
      </trkpt>
      <trkpt lat="45.98435" lon="4.81662">
        <ele>239</ele>
        <time>2017-12-29T10:53:11Z</time>
      </trkpt>
      <trkpt lat="45.98427" lon="4.81658">
        <ele>239</ele>
        <time>2017-12-29T10:53:13Z</time>
      </trkpt>
      <trkpt lat="45.98424" lon="4.81657">
        <ele>239</ele>
        <time>2017-12-29T10:53:14Z</time>
      </trkpt>
      <trkpt lat="45.98416" lon="4.81656">
        <ele>241</ele>
        <time>2017-12-29T10:53:16Z</time>
      </trkpt>
      <trkpt lat="45.98411" lon="4.81657">
        <ele>241</ele>
        <time>2017-12-29T10:53:17Z</time>
      </trkpt>
      <trkpt lat="45.98403" lon="4.81659">
        <ele>242</ele>
        <time>2017-12-29T10:53:19Z</time>
      </trkpt>
      <trkpt lat="45.98399" lon="4.81661">
        <ele>242</ele>
        <time>2017-12-29T10:53:20Z</time>
      </trkpt>
      <trkpt lat="45.98391" lon="4.81664">
        <ele>242</ele>
        <time>2017-12-29T10:53:22Z</time>
      </trkpt>
      <trkpt lat="45.98387" lon="4.81665">
        <ele>242</ele>
        <time>2017-12-29T10:53:23Z</time>
      </trkpt>
      <trkpt lat="45.98378" lon="4.81668">
        <ele>244</ele>
        <time>2017-12-29T10:53:25Z</time>
      </trkpt>
      <trkpt lat="45.98375" lon="4.81669">
        <ele>244</ele>
        <time>2017-12-29T10:53:26Z</time>
      </trkpt>
      <trkpt lat="45.98367" lon="4.81671">
        <ele>244</ele>
        <time>2017-12-29T10:53:28Z</time>
      </trkpt>
      <trkpt lat="45.98363" lon="4.81671">
        <ele>244</ele>
        <time>2017-12-29T10:53:29Z</time>
      </trkpt>
      <trkpt lat="45.98356" lon="4.81672">
        <ele>245</ele>
        <time>2017-12-29T10:53:31Z</time>
      </trkpt>
      <trkpt lat="45.98352" lon="4.81671">
        <ele>245</ele>
        <time>2017-12-29T10:53:32Z</time>
      </trkpt>
      <trkpt lat="45.98344" lon="4.8167">
        <ele>245</ele>
        <time>2017-12-29T10:53:34Z</time>
      </trkpt>
      <trkpt lat="45.9834" lon="4.81669">
        <ele>245</ele>
        <time>2017-12-29T10:53:35Z</time>
      </trkpt>
      <trkpt lat="45.98334" lon="4.81665">
        <ele>246</ele>
        <time>2017-12-29T10:53:37Z</time>
      </trkpt>
      <trkpt lat="45.98331" lon="4.81663">
        <ele>246</ele>
        <time>2017-12-29T10:53:38Z</time>
      </trkpt>
      <trkpt lat="45.98325" lon="4.81657">
        <ele>246</ele>
        <time>2017-12-29T10:53:40Z</time>
      </trkpt>
      <trkpt lat="45.98321" lon="4.81655">
        <ele>246</ele>
        <time>2017-12-29T10:53:41Z</time>
      </trkpt>
      <trkpt lat="45.98314" lon="4.81649">
        <ele>246</ele>
        <time>2017-12-29T10:53:43Z</time>
      </trkpt>
      <trkpt lat="45.98311" lon="4.81645">
        <ele>246</ele>
        <time>2017-12-29T10:53:44Z</time>
      </trkpt>
      <trkpt lat="45.98304" lon="4.81638">
        <ele>246</ele>
        <time>2017-12-29T10:53:46Z</time>
      </trkpt>
      <trkpt lat="45.983" lon="4.81635">
        <ele>246</ele>
        <time>2017-12-29T10:53:47Z</time>
      </trkpt>
      <trkpt lat="45.98294" lon="4.81628">
        <ele>246</ele>
        <time>2017-12-29T10:53:49Z</time>
      </trkpt>
      <trkpt lat="45.98292" lon="4.81625">
        <ele>246</ele>
        <time>2017-12-29T10:53:50Z</time>
      </trkpt>
      <trkpt lat="45.98287" lon="4.81618">
        <ele>247</ele>
        <time>2017-12-29T10:53:52Z</time>
      </trkpt>
      <trkpt lat="45.98284" lon="4.81613">
        <ele>247</ele>
        <time>2017-12-29T10:53:53Z</time>
      </trkpt>
      <trkpt lat="45.9828" lon="4.81604">
        <ele>247</ele>
        <time>2017-12-29T10:53:55Z</time>
      </trkpt>
      <trkpt lat="45.98278" lon="4.816">
        <ele>247</ele>
        <time>2017-12-29T10:53:56Z</time>
      </trkpt>
      <trkpt lat="45.98275" lon="4.81589">
        <ele>247</ele>
        <time>2017-12-29T10:53:58Z</time>
      </trkpt>
      <trkpt lat="45.98273" lon="4.81584">
        <ele>247</ele>
        <time>2017-12-29T10:53:59Z</time>
      </trkpt>
      <trkpt lat="45.9827" lon="4.81573">
        <ele>247</ele>
        <time>2017-12-29T10:54:01Z</time>
      </trkpt>
      <trkpt lat="45.98268" lon="4.81568">
        <ele>247</ele>
        <time>2017-12-29T10:54:02Z</time>
      </trkpt>
      <trkpt lat="45.98265" lon="4.81556">
        <ele>247</ele>
        <time>2017-12-29T10:54:04Z</time>
      </trkpt>
      <trkpt lat="45.98263" lon="4.81551">
        <ele>247</ele>
        <time>2017-12-29T10:54:05Z</time>
      </trkpt>
      <trkpt lat="45.98259" lon="4.81539">
        <ele>247</ele>
        <time>2017-12-29T10:54:07Z</time>
      </trkpt>
      <trkpt lat="45.98257" lon="4.81534">
        <ele>247</ele>
        <time>2017-12-29T10:54:08Z</time>
      </trkpt>
      <trkpt lat="45.98254" lon="4.81524">
        <ele>247</ele>
        <time>2017-12-29T10:54:10Z</time>
      </trkpt>
      <trkpt lat="45.98252" lon="4.81519">
        <ele>247</ele>
        <time>2017-12-29T10:54:11Z</time>
      </trkpt>
      <trkpt lat="45.98248" lon="4.81509">
        <ele>249</ele>
        <time>2017-12-29T10:54:13Z</time>
      </trkpt>
      <trkpt lat="45.98246" lon="4.81504">
        <ele>249</ele>
        <time>2017-12-29T10:54:14Z</time>
      </trkpt>
      <trkpt lat="45.98243" lon="4.81493">
        <ele>249</ele>
        <time>2017-12-29T10:54:16Z</time>
      </trkpt>
      <trkpt lat="45.98241" lon="4.81488">
        <ele>249</ele>
        <time>2017-12-29T10:54:17Z</time>
      </trkpt>
      <trkpt lat="45.98237" lon="4.81477">
        <ele>249</ele>
        <time>2017-12-29T10:54:19Z</time>
      </trkpt>
      <trkpt lat="45.98235" lon="4.81472">
        <ele>249</ele>
        <time>2017-12-29T10:54:20Z</time>
      </trkpt>
      <trkpt lat="45.98231" lon="4.81461">
        <ele>249</ele>
        <time>2017-12-29T10:54:22Z</time>
      </trkpt>
      <trkpt lat="45.98229" lon="4.81456">
        <ele>249</ele>
        <time>2017-12-29T10:54:23Z</time>
      </trkpt>
      <trkpt lat="45.98226" lon="4.81446">
        <ele>249</ele>
        <time>2017-12-29T10:54:25Z</time>
      </trkpt>
      <trkpt lat="45.98225" lon="4.81441">
        <ele>249</ele>
        <time>2017-12-29T10:54:26Z</time>
      </trkpt>
      <trkpt lat="45.98222" lon="4.81431">
        <ele>249</ele>
        <time>2017-12-29T10:54:28Z</time>
      </trkpt>
      <trkpt lat="45.9822" lon="4.81427">
        <ele>249</ele>
        <time>2017-12-29T10:54:29Z</time>
      </trkpt>
      <trkpt lat="45.98217" lon="4.81417">
        <ele>249</ele>
        <time>2017-12-29T10:54:31Z</time>
      </trkpt>
      <trkpt lat="45.98215" lon="4.81412">
        <ele>248</ele>
        <time>2017-12-29T10:54:32Z</time>
      </trkpt>
      <trkpt lat="45.98211" lon="4.81402">
        <ele>248</ele>
        <time>2017-12-29T10:54:34Z</time>
      </trkpt>
      <trkpt lat="45.98209" lon="4.81397">
        <ele>248</ele>
        <time>2017-12-29T10:54:35Z</time>
      </trkpt>
      <trkpt lat="45.98205" lon="4.81386">
        <ele>248</ele>
        <time>2017-12-29T10:54:37Z</time>
      </trkpt>
      <trkpt lat="45.98203" lon="4.8138">
        <ele>248</ele>
        <time>2017-12-29T10:54:38Z</time>
      </trkpt>
      <trkpt lat="45.982" lon="4.81369">
        <ele>248</ele>
        <time>2017-12-29T10:54:40Z</time>
      </trkpt>
      <trkpt lat="45.98199" lon="4.81363">
        <ele>248</ele>
        <time>2017-12-29T10:54:41Z</time>
      </trkpt>
      <trkpt lat="45.98198" lon="4.81357">
        <ele>248</ele>
        <time>2017-12-29T10:54:42Z</time>
      </trkpt>
      <trkpt lat="45.98197" lon="4.81349">
        <ele>248</ele>
        <time>2017-12-29T10:54:43Z</time>
      </trkpt>
      <trkpt lat="45.98194" lon="4.81343">
        <ele>248</ele>
        <time>2017-12-29T10:54:44Z</time>
      </trkpt>
      <trkpt lat="45.98194" lon="4.81334">
        <ele>248</ele>
        <time>2017-12-29T10:54:45Z</time>
      </trkpt>
      <trkpt lat="45.98191" lon="4.81322">
        <ele>247</ele>
        <time>2017-12-29T10:54:47Z</time>
      </trkpt>
      <trkpt lat="45.98191" lon="4.81316">
        <ele>247</ele>
        <time>2017-12-29T10:54:48Z</time>
      </trkpt>
      <trkpt lat="45.9819" lon="4.81309">
        <ele>247</ele>
        <time>2017-12-29T10:54:49Z</time>
      </trkpt>
      <trkpt lat="45.9819" lon="4.81301">
        <ele>247</ele>
        <time>2017-12-29T10:54:50Z</time>
      </trkpt>
      <trkpt lat="45.98188" lon="4.81289">
        <ele>247</ele>
        <time>2017-12-29T10:54:52Z</time>
      </trkpt>
      <trkpt lat="45.98187" lon="4.81282">
        <ele>247</ele>
        <time>2017-12-29T10:54:53Z</time>
      </trkpt>
      <trkpt lat="45.98186" lon="4.81276">
        <ele>247</ele>
        <time>2017-12-29T10:54:54Z</time>
      </trkpt>
      <trkpt lat="45.98184" lon="4.81269">
        <ele>247</ele>
        <time>2017-12-29T10:54:55Z</time>
      </trkpt>
      <trkpt lat="45.98182" lon="4.81262">
        <ele>247</ele>
        <time>2017-12-29T10:54:56Z</time>
      </trkpt>
      <trkpt lat="45.98181" lon="4.81255">
        <ele>247</ele>
        <time>2017-12-29T10:54:57Z</time>
      </trkpt>
      <trkpt lat="45.9818" lon="4.81249">
        <ele>247</ele>
        <time>2017-12-29T10:54:58Z</time>
      </trkpt>
      <trkpt lat="45.98179" lon="4.81242">
        <ele>247</ele>
        <time>2017-12-29T10:54:59Z</time>
      </trkpt>
      <trkpt lat="45.98179" lon="4.81235">
        <ele>246</ele>
        <time>2017-12-29T10:55:00Z</time>
      </trkpt>
      <trkpt lat="45.98178" lon="4.81228">
        <ele>246</ele>
        <time>2017-12-29T10:55:01Z</time>
      </trkpt>
      <trkpt lat="45.98177" lon="4.81221">
        <ele>246</ele>
        <time>2017-12-29T10:55:02Z</time>
      </trkpt>
      <trkpt lat="45.98176" lon="4.81214">
        <ele>246</ele>
        <time>2017-12-29T10:55:03Z</time>
      </trkpt>
      <trkpt lat="45.98176" lon="4.81208">
        <ele>245</ele>
        <time>2017-12-29T10:55:04Z</time>
      </trkpt>
      <trkpt lat="45.98175" lon="4.81201">
        <ele>245</ele>
        <time>2017-12-29T10:55:05Z</time>
      </trkpt>
      <trkpt lat="45.98175" lon="4.81189">
        <ele>245</ele>
        <time>2017-12-29T10:55:07Z</time>
      </trkpt>
      <trkpt lat="45.98173" lon="4.81182">
        <ele>245</ele>
        <time>2017-12-29T10:55:08Z</time>
      </trkpt>
      <trkpt lat="45.98172" lon="4.81174">
        <ele>245</ele>
        <time>2017-12-29T10:55:09Z</time>
      </trkpt>
      <trkpt lat="45.98171" lon="4.81167">
        <ele>245</ele>
        <time>2017-12-29T10:55:10Z</time>
      </trkpt>
      <trkpt lat="45.98168" lon="4.81159">
        <ele>244</ele>
        <time>2017-12-29T10:55:11Z</time>
      </trkpt>
      <trkpt lat="45.98165" lon="4.81152">
        <ele>245</ele>
        <time>2017-12-29T10:55:12Z</time>
      </trkpt>
      <trkpt lat="45.98162" lon="4.81145">
        <ele>245</ele>
        <time>2017-12-29T10:55:13Z</time>
      </trkpt>
      <trkpt lat="45.98158" lon="4.81138">
        <ele>245</ele>
        <time>2017-12-29T10:55:14Z</time>
      </trkpt>
      <trkpt lat="45.98155" lon="4.81131">
        <ele>245</ele>
        <time>2017-12-29T10:55:15Z</time>
      </trkpt>
      <trkpt lat="45.98152" lon="4.81123">
        <ele>245</ele>
        <time>2017-12-29T10:55:16Z</time>
      </trkpt>
      <trkpt lat="45.98149" lon="4.81115">
        <ele>245</ele>
        <time>2017-12-29T10:55:17Z</time>
      </trkpt>
      <trkpt lat="45.98146" lon="4.81108">
        <ele>245</ele>
        <time>2017-12-29T10:55:18Z</time>
      </trkpt>
      <trkpt lat="45.98144" lon="4.81102">
        <ele>245</ele>
        <time>2017-12-29T10:55:19Z</time>
      </trkpt>
      <trkpt lat="45.98142" lon="4.81096">
        <ele>245</ele>
        <time>2017-12-29T10:55:20Z</time>
      </trkpt>
      <trkpt lat="45.98138" lon="4.8109">
        <ele>245</ele>
        <time>2017-12-29T10:55:21Z</time>
      </trkpt>
      <trkpt lat="45.98135" lon="4.81083">
        <ele>243</ele>
        <time>2017-12-29T10:55:22Z</time>
      </trkpt>
      <trkpt lat="45.98133" lon="4.81076">
        <ele>243</ele>
        <time>2017-12-29T10:55:23Z</time>
      </trkpt>
      <trkpt lat="45.9813" lon="4.81068">
        <ele>243</ele>
        <time>2017-12-29T10:55:24Z</time>
      </trkpt>
      <trkpt lat="45.98126" lon="4.81061">
        <ele>243</ele>
        <time>2017-12-29T10:55:25Z</time>
      </trkpt>
      <trkpt lat="45.98124" lon="4.81054">
        <ele>243</ele>
        <time>2017-12-29T10:55:26Z</time>
      </trkpt>
      <trkpt lat="45.98122" lon="4.81048">
        <ele>242</ele>
        <time>2017-12-29T10:55:27Z</time>
      </trkpt>
      <trkpt lat="45.98119" lon="4.81042">
        <ele>242</ele>
        <time>2017-12-29T10:55:28Z</time>
      </trkpt>
      <trkpt lat="45.98118" lon="4.81036">
        <ele>242</ele>
        <time>2017-12-29T10:55:29Z</time>
      </trkpt>
      <trkpt lat="45.98116" lon="4.81028">
        <ele>242</ele>
        <time>2017-12-29T10:55:30Z</time>
      </trkpt>
      <trkpt lat="45.98113" lon="4.81016">
        <ele>242</ele>
        <time>2017-12-29T10:55:32Z</time>
      </trkpt>
      <trkpt lat="45.98111" lon="4.8101">
        <ele>242</ele>
        <time>2017-12-29T10:55:33Z</time>
      </trkpt>
      <trkpt lat="45.98108" lon="4.81004">
        <ele>242</ele>
        <time>2017-12-29T10:55:34Z</time>
      </trkpt>
      <trkpt lat="45.98106" lon="4.80997">
        <ele>239</ele>
        <time>2017-12-29T10:55:35Z</time>
      </trkpt>
      <trkpt lat="45.98104" lon="4.80986">
        <ele>239</ele>
        <time>2017-12-29T10:55:37Z</time>
      </trkpt>
      <trkpt lat="45.98103" lon="4.8098">
        <ele>239</ele>
        <time>2017-12-29T10:55:38Z</time>
      </trkpt>
      <trkpt lat="45.981" lon="4.80975">
        <ele>239</ele>
        <time>2017-12-29T10:55:39Z</time>
      </trkpt>
      <trkpt lat="45.98098" lon="4.80968">
        <ele>239</ele>
        <time>2017-12-29T10:55:40Z</time>
      </trkpt>
      <trkpt lat="45.98094" lon="4.80962">
        <ele>239</ele>
        <time>2017-12-29T10:55:41Z</time>
      </trkpt>
      <trkpt lat="45.98092" lon="4.80954">
        <ele>238</ele>
        <time>2017-12-29T10:55:42Z</time>
      </trkpt>
      <trkpt lat="45.98089" lon="4.80945">
        <ele>238</ele>
        <time>2017-12-29T10:55:43Z</time>
      </trkpt>
      <trkpt lat="45.98088" lon="4.80936">
        <ele>238</ele>
        <time>2017-12-29T10:55:44Z</time>
      </trkpt>
      <trkpt lat="45.98086" lon="4.80926">
        <ele>239</ele>
        <time>2017-12-29T10:55:45Z</time>
      </trkpt>
      <trkpt lat="45.98084" lon="4.80916">
        <ele>239</ele>
        <time>2017-12-29T10:55:46Z</time>
      </trkpt>
      <trkpt lat="45.98081" lon="4.80906">
        <ele>238</ele>
        <time>2017-12-29T10:55:47Z</time>
      </trkpt>
      <trkpt lat="45.98078" lon="4.80894">
        <ele>238</ele>
        <time>2017-12-29T10:55:48Z</time>
      </trkpt>
      <trkpt lat="45.98075" lon="4.80883">
        <ele>237</ele>
        <time>2017-12-29T10:55:49Z</time>
      </trkpt>
      <trkpt lat="45.98072" lon="4.80872">
        <ele>237</ele>
        <time>2017-12-29T10:55:50Z</time>
      </trkpt>
      <trkpt lat="45.98069" lon="4.80859">
        <ele>236</ele>
        <time>2017-12-29T10:55:51Z</time>
      </trkpt>
      <trkpt lat="45.98066" lon="4.80848">
        <ele>236</ele>
        <time>2017-12-29T10:55:52Z</time>
      </trkpt>
      <trkpt lat="45.98064" lon="4.80836">
        <ele>236</ele>
        <time>2017-12-29T10:55:53Z</time>
      </trkpt>
      <trkpt lat="45.98061" lon="4.80823">
        <ele>234</ele>
        <time>2017-12-29T10:55:54Z</time>
      </trkpt>
      <trkpt lat="45.98058" lon="4.80812">
        <ele>234</ele>
        <time>2017-12-29T10:55:55Z</time>
      </trkpt>
      <trkpt lat="45.98055" lon="4.80799">
        <ele>233</ele>
        <time>2017-12-29T10:55:56Z</time>
      </trkpt>
      <trkpt lat="45.98052" lon="4.80788">
        <ele>233</ele>
        <time>2017-12-29T10:55:57Z</time>
      </trkpt>
      <trkpt lat="45.98048" lon="4.80777">
        <ele>233</ele>
        <time>2017-12-29T10:55:58Z</time>
      </trkpt>
      <trkpt lat="45.98046" lon="4.80767">
        <ele>233</ele>
        <time>2017-12-29T10:55:59Z</time>
      </trkpt>
      <trkpt lat="45.98044" lon="4.80755">
        <ele>233</ele>
        <time>2017-12-29T10:56:00Z</time>
      </trkpt>
      <trkpt lat="45.98041" lon="4.80746">
        <ele>231</ele>
        <time>2017-12-29T10:56:01Z</time>
      </trkpt>
      <trkpt lat="45.98039" lon="4.80738">
        <ele>231</ele>
        <time>2017-12-29T10:56:02Z</time>
      </trkpt>
      <trkpt lat="45.98036" lon="4.80729">
        <ele>231</ele>
        <time>2017-12-29T10:56:03Z</time>
      </trkpt>
      <trkpt lat="45.98034" lon="4.80723">
        <ele>231</ele>
        <time>2017-12-29T10:56:04Z</time>
      </trkpt>
      <trkpt lat="45.98033" lon="4.80711">
        <ele>231</ele>
        <time>2017-12-29T10:56:06Z</time>
      </trkpt>
      <trkpt lat="45.98033" lon="4.80704">
        <ele>231</ele>
        <time>2017-12-29T10:56:07Z</time>
      </trkpt>
      <trkpt lat="45.98035" lon="4.80698">
        <ele>230</ele>
        <time>2017-12-29T10:56:08Z</time>
      </trkpt>
      <trkpt lat="45.98039" lon="4.80693">
        <ele>230</ele>
        <time>2017-12-29T10:56:09Z</time>
      </trkpt>
      <trkpt lat="45.98044" lon="4.8069">
        <ele>230</ele>
        <time>2017-12-29T10:56:10Z</time>
      </trkpt>
      <trkpt lat="45.98049" lon="4.80688">
        <ele>230</ele>
        <time>2017-12-29T10:56:11Z</time>
      </trkpt>
      <trkpt lat="45.98055" lon="4.80687">
        <ele>230</ele>
        <time>2017-12-29T10:56:12Z</time>
      </trkpt>
      <trkpt lat="45.9806" lon="4.80687">
        <ele>230</ele>
        <time>2017-12-29T10:56:13Z</time>
      </trkpt>
      <trkpt lat="45.98067" lon="4.80687">
        <ele>230</ele>
        <time>2017-12-29T10:56:14Z</time>
      </trkpt>
      <trkpt lat="45.98073" lon="4.80688">
        <ele>230</ele>
        <time>2017-12-29T10:56:15Z</time>
      </trkpt>
      <trkpt lat="45.9808" lon="4.80688">
        <ele>229</ele>
        <time>2017-12-29T10:56:16Z</time>
      </trkpt>
      <trkpt lat="45.98087" lon="4.80689">
        <ele>228</ele>
        <time>2017-12-29T10:56:17Z</time>
      </trkpt>
      <trkpt lat="45.98095" lon="4.80689">
        <ele>228</ele>
        <time>2017-12-29T10:56:18Z</time>
      </trkpt>
      <trkpt lat="45.98102" lon="4.8069">
        <ele>228</ele>
        <time>2017-12-29T10:56:19Z</time>
      </trkpt>
      <trkpt lat="45.98109" lon="4.80691">
        <ele>228</ele>
        <time>2017-12-29T10:56:20Z</time>
      </trkpt>
      <trkpt lat="45.98116" lon="4.80691">
        <ele>228</ele>
        <time>2017-12-29T10:56:21Z</time>
      </trkpt>
      <trkpt lat="45.98123" lon="4.8069">
        <ele>228</ele>
        <time>2017-12-29T10:56:22Z</time>
      </trkpt>
      <trkpt lat="45.98131" lon="4.80689">
        <ele>228</ele>
        <time>2017-12-29T10:56:23Z</time>
      </trkpt>
      <trkpt lat="45.98138" lon="4.80689">
        <ele>228</ele>
        <time>2017-12-29T10:56:24Z</time>
      </trkpt>
      <trkpt lat="45.98145" lon="4.80688">
        <ele>228</ele>
        <time>2017-12-29T10:56:25Z</time>
      </trkpt>
      <trkpt lat="45.98152" lon="4.80687">
        <ele>227</ele>
        <time>2017-12-29T10:56:26Z</time>
      </trkpt>
      <trkpt lat="45.98159" lon="4.80687">
        <ele>227</ele>
        <time>2017-12-29T10:56:27Z</time>
      </trkpt>
      <trkpt lat="45.98169" lon="4.80687">
        <ele>225</ele>
        <time>2017-12-29T10:56:28Z</time>
      </trkpt>
      <trkpt lat="45.98178" lon="4.80686">
        <ele>225</ele>
        <time>2017-12-29T10:56:29Z</time>
      </trkpt>
      <trkpt lat="45.98184" lon="4.80684">
        <ele>225</ele>
        <time>2017-12-29T10:56:30Z</time>
      </trkpt>
      <trkpt lat="45.9819" lon="4.80683">
        <ele>225</ele>
        <time>2017-12-29T10:56:31Z</time>
      </trkpt>
      <trkpt lat="45.98197" lon="4.80681">
        <ele>225</ele>
        <time>2017-12-29T10:56:32Z</time>
      </trkpt>
      <trkpt lat="45.98204" lon="4.80678">
        <ele>225</ele>
        <time>2017-12-29T10:56:33Z</time>
      </trkpt>
      <trkpt lat="45.9821" lon="4.80676">
        <ele>224</ele>
        <time>2017-12-29T10:56:34Z</time>
      </trkpt>
      <trkpt lat="45.98216" lon="4.80671">
        <ele>224</ele>
        <time>2017-12-29T10:56:35Z</time>
      </trkpt>
      <trkpt lat="45.98221" lon="4.80666">
        <ele>224</ele>
        <time>2017-12-29T10:56:36Z</time>
      </trkpt>
      <trkpt lat="45.98226" lon="4.80659">
        <ele>223</ele>
        <time>2017-12-29T10:56:37Z</time>
      </trkpt>
      <trkpt lat="45.98231" lon="4.80651">
        <ele>223</ele>
        <time>2017-12-29T10:56:38Z</time>
      </trkpt>
      <trkpt lat="45.98234" lon="4.80642">
        <ele>223</ele>
        <time>2017-12-29T10:56:39Z</time>
      </trkpt>
      <trkpt lat="45.98237" lon="4.80632">
        <ele>224</ele>
        <time>2017-12-29T10:56:40Z</time>
      </trkpt>
      <trkpt lat="45.9824" lon="4.80623">
        <ele>224</ele>
        <time>2017-12-29T10:56:41Z</time>
      </trkpt>
      <trkpt lat="45.98242" lon="4.80613">
        <ele>224</ele>
        <time>2017-12-29T10:56:42Z</time>
      </trkpt>
      <trkpt lat="45.98245" lon="4.80604">
        <ele>224</ele>
        <time>2017-12-29T10:56:43Z</time>
      </trkpt>
      <trkpt lat="45.98248" lon="4.80595">
        <ele>224</ele>
        <time>2017-12-29T10:56:44Z</time>
      </trkpt>
      <trkpt lat="45.98251" lon="4.80587">
        <ele>224</ele>
        <time>2017-12-29T10:56:45Z</time>
      </trkpt>
      <trkpt lat="45.98253" lon="4.80578">
        <ele>224</ele>
        <time>2017-12-29T10:56:46Z</time>
      </trkpt>
      <trkpt lat="45.98256" lon="4.8057">
        <ele>224</ele>
        <time>2017-12-29T10:56:47Z</time>
      </trkpt>
      <trkpt lat="45.98258" lon="4.80562">
        <ele>224</ele>
        <time>2017-12-29T10:56:48Z</time>
      </trkpt>
      <trkpt lat="45.9826" lon="4.80554">
        <ele>224</ele>
        <time>2017-12-29T10:56:49Z</time>
      </trkpt>
      <trkpt lat="45.98262" lon="4.80546">
        <ele>224</ele>
        <time>2017-12-29T10:56:50Z</time>
      </trkpt>
      <trkpt lat="45.98264" lon="4.80539">
        <ele>224</ele>
        <time>2017-12-29T10:56:51Z</time>
      </trkpt>
      <trkpt lat="45.98266" lon="4.80532">
        <ele>224</ele>
        <time>2017-12-29T10:56:52Z</time>
      </trkpt>
      <trkpt lat="45.98268" lon="4.80524">
        <ele>224</ele>
        <time>2017-12-29T10:56:53Z</time>
      </trkpt>
      <trkpt lat="45.9827" lon="4.80517">
        <ele>223</ele>
        <time>2017-12-29T10:56:54Z</time>
      </trkpt>
      <trkpt lat="45.98271" lon="4.8051">
        <ele>223</ele>
        <time>2017-12-29T10:56:55Z</time>
      </trkpt>
      <trkpt lat="45.98273" lon="4.80502">
        <ele>223</ele>
        <time>2017-12-29T10:56:56Z</time>
      </trkpt>
      <trkpt lat="45.98275" lon="4.80494">
        <ele>223</ele>
        <time>2017-12-29T10:56:57Z</time>
      </trkpt>
      <trkpt lat="45.98277" lon="4.80486">
        <ele>223</ele>
        <time>2017-12-29T10:56:58Z</time>
      </trkpt>
      <trkpt lat="45.98279" lon="4.80478">
        <ele>223</ele>
        <time>2017-12-29T10:56:59Z</time>
      </trkpt>
      <trkpt lat="45.98281" lon="4.8047">
        <ele>223</ele>
        <time>2017-12-29T10:57:00Z</time>
      </trkpt>
      <trkpt lat="45.98282" lon="4.80462">
        <ele>223</ele>
        <time>2017-12-29T10:57:01Z</time>
      </trkpt>
      <trkpt lat="45.98283" lon="4.80454">
        <ele>223</ele>
        <time>2017-12-29T10:57:02Z</time>
      </trkpt>
      <trkpt lat="45.98285" lon="4.80447">
        <ele>224</ele>
        <time>2017-12-29T10:57:03Z</time>
      </trkpt>
      <trkpt lat="45.98287" lon="4.80441">
        <ele>224</ele>
        <time>2017-12-29T10:57:04Z</time>
      </trkpt>
      <trkpt lat="45.98288" lon="4.80434">
        <ele>224</ele>
        <time>2017-12-29T10:57:05Z</time>
      </trkpt>
      <trkpt lat="45.98291" lon="4.80422">
        <ele>224</ele>
        <time>2017-12-29T10:57:07Z</time>
      </trkpt>
      <trkpt lat="45.98292" lon="4.80416">
        <ele>224</ele>
        <time>2017-12-29T10:57:08Z</time>
      </trkpt>
      <trkpt lat="45.98294" lon="4.80404">
        <ele>224</ele>
        <time>2017-12-29T10:57:10Z</time>
      </trkpt>
      <trkpt lat="45.98295" lon="4.80397">
        <ele>224</ele>
        <time>2017-12-29T10:57:11Z</time>
      </trkpt>
      <trkpt lat="45.98297" lon="4.80391">
        <ele>225</ele>
        <time>2017-12-29T10:57:12Z</time>
      </trkpt>
      <trkpt lat="45.98298" lon="4.80385">
        <ele>225</ele>
        <time>2017-12-29T10:57:13Z</time>
      </trkpt>
      <trkpt lat="45.983" lon="4.80373">
        <ele>225</ele>
        <time>2017-12-29T10:57:15Z</time>
      </trkpt>
      <trkpt lat="45.98301" lon="4.80366">
        <ele>225</ele>
        <time>2017-12-29T10:57:16Z</time>
      </trkpt>
      <trkpt lat="45.98305" lon="4.80355">
        <ele>225</ele>
        <time>2017-12-29T10:57:18Z</time>
      </trkpt>
      <trkpt lat="45.98306" lon="4.80351">
        <ele>225</ele>
        <time>2017-12-29T10:57:19Z</time>
      </trkpt>
      <trkpt lat="45.98307" lon="4.80344">
        <ele>226</ele>
        <time>2017-12-29T10:57:20Z</time>
      </trkpt>
      <trkpt lat="45.98308" lon="4.80338">
        <ele>226</ele>
        <time>2017-12-29T10:57:21Z</time>
      </trkpt>
      <trkpt lat="45.98309" lon="4.80331">
        <ele>227</ele>
        <time>2017-12-29T10:57:22Z</time>
      </trkpt>
      <trkpt lat="45.98311" lon="4.80325">
        <ele>227</ele>
        <time>2017-12-29T10:57:23Z</time>
      </trkpt>
      <trkpt lat="45.98312" lon="4.80314">
        <ele>226</ele>
        <time>2017-12-29T10:57:25Z</time>
      </trkpt>
      <trkpt lat="45.98314" lon="4.80309">
        <ele>226</ele>
        <time>2017-12-29T10:57:26Z</time>
      </trkpt>
      <trkpt lat="45.98316" lon="4.80298">
        <ele>226</ele>
        <time>2017-12-29T10:57:28Z</time>
      </trkpt>
      <trkpt lat="45.98317" lon="4.80293">
        <ele>226</ele>
        <time>2017-12-29T10:57:29Z</time>
      </trkpt>
      <trkpt lat="45.9832" lon="4.80281">
        <ele>227</ele>
        <time>2017-12-29T10:57:31Z</time>
      </trkpt>
      <trkpt lat="45.98322" lon="4.80274">
        <ele>227</ele>
        <time>2017-12-29T10:57:32Z</time>
      </trkpt>
      <trkpt lat="45.98323" lon="4.80262">
        <ele>228</ele>
        <time>2017-12-29T10:57:34Z</time>
      </trkpt>
      <trkpt lat="45.98325" lon="4.80256">
        <ele>228</ele>
        <time>2017-12-29T10:57:35Z</time>
      </trkpt>
      <trkpt lat="45.98325" lon="4.80245">
        <ele>229</ele>
        <time>2017-12-29T10:57:37Z</time>
      </trkpt>
      <trkpt lat="45.98327" lon="4.80239">
        <ele>228</ele>
        <time>2017-12-29T10:57:38Z</time>
      </trkpt>
      <trkpt lat="45.98328" lon="4.80228">
        <ele>228</ele>
        <time>2017-12-29T10:57:40Z</time>
      </trkpt>
      <trkpt lat="45.98328" lon="4.80223">
        <ele>227</ele>
        <time>2017-12-29T10:57:41Z</time>
      </trkpt>
      <trkpt lat="45.98326" lon="4.80211">
        <ele>227</ele>
        <time>2017-12-29T10:57:43Z</time>
      </trkpt>
      <trkpt lat="45.98325" lon="4.80206">
        <ele>227</ele>
        <time>2017-12-29T10:57:44Z</time>
      </trkpt>
      <trkpt lat="45.98321" lon="4.80195">
        <ele>227</ele>
        <time>2017-12-29T10:57:46Z</time>
      </trkpt>
      <trkpt lat="45.98319" lon="4.8019">
        <ele>227</ele>
        <time>2017-12-29T10:57:47Z</time>
      </trkpt>
      <trkpt lat="45.98316" lon="4.80179">
        <ele>227</ele>
        <time>2017-12-29T10:57:49Z</time>
      </trkpt>
      <trkpt lat="45.98315" lon="4.80173">
        <ele>227</ele>
        <time>2017-12-29T10:57:50Z</time>
      </trkpt>
      <trkpt lat="45.98313" lon="4.80161">
        <ele>228</ele>
        <time>2017-12-29T10:57:52Z</time>
      </trkpt>
      <trkpt lat="45.98311" lon="4.80154">
        <ele>228</ele>
        <time>2017-12-29T10:57:53Z</time>
      </trkpt>
      <trkpt lat="45.98308" lon="4.80147">
        <ele>228</ele>
        <time>2017-12-29T10:57:54Z</time>
      </trkpt>
      <trkpt lat="45.98305" lon="4.80141">
        <ele>228</ele>
        <time>2017-12-29T10:57:55Z</time>
      </trkpt>
      <trkpt lat="45.98302" lon="4.80135">
        <ele>228</ele>
        <time>2017-12-29T10:57:56Z</time>
      </trkpt>
      <trkpt lat="45.983" lon="4.80129">
        <ele>228</ele>
        <time>2017-12-29T10:57:57Z</time>
      </trkpt>
      <trkpt lat="45.98298" lon="4.80122">
        <ele>228</ele>
        <time>2017-12-29T10:57:58Z</time>
      </trkpt>
      <trkpt lat="45.98297" lon="4.80116">
        <ele>228</ele>
        <time>2017-12-29T10:57:59Z</time>
      </trkpt>
      <trkpt lat="45.98292" lon="4.80105">
        <ele>228</ele>
        <time>2017-12-29T10:58:01Z</time>
      </trkpt>
      <trkpt lat="45.98291" lon="4.80099">
        <ele>228</ele>
        <time>2017-12-29T10:58:02Z</time>
      </trkpt>
      <trkpt lat="45.98291" lon="4.80092">
        <ele>228</ele>
        <time>2017-12-29T10:58:03Z</time>
      </trkpt>
      <trkpt lat="45.98289" lon="4.80086">
        <ele>228</ele>
        <time>2017-12-29T10:58:04Z</time>
      </trkpt>
      <trkpt lat="45.98287" lon="4.80081">
        <ele>229</ele>
        <time>2017-12-29T10:58:05Z</time>
      </trkpt>
      <trkpt lat="45.98285" lon="4.80074">
        <ele>229</ele>
        <time>2017-12-29T10:58:06Z</time>
      </trkpt>
      <trkpt lat="45.98281" lon="4.80065">
        <ele>229</ele>
        <time>2017-12-29T10:58:08Z</time>
      </trkpt>
      <trkpt lat="45.98278" lon="4.8006">
        <ele>229</ele>
        <time>2017-12-29T10:58:09Z</time>
      </trkpt>
      <trkpt lat="45.98274" lon="4.80049">
        <ele>229</ele>
        <time>2017-12-29T10:58:11Z</time>
      </trkpt>
      <trkpt lat="45.98273" lon="4.80043">
        <ele>229</ele>
        <time>2017-12-29T10:58:12Z</time>
      </trkpt>
      <trkpt lat="45.9827" lon="4.80037">
        <ele>229</ele>
        <time>2017-12-29T10:58:13Z</time>
      </trkpt>
      <trkpt lat="45.98268" lon="4.8003">
        <ele>229</ele>
        <time>2017-12-29T10:58:14Z</time>
      </trkpt>
      <trkpt lat="45.98266" lon="4.80023">
        <ele>228</ele>
        <time>2017-12-29T10:58:15Z</time>
      </trkpt>
      <trkpt lat="45.98263" lon="4.80017">
        <ele>228</ele>
        <time>2017-12-29T10:58:16Z</time>
      </trkpt>
      <trkpt lat="45.98261" lon="4.8001">
        <ele>228</ele>
        <time>2017-12-29T10:58:17Z</time>
      </trkpt>
      <trkpt lat="45.98259" lon="4.80003">
        <ele>227</ele>
        <time>2017-12-29T10:58:18Z</time>
      </trkpt>
      <trkpt lat="45.98255" lon="4.79992">
        <ele>227</ele>
        <time>2017-12-29T10:58:20Z</time>
      </trkpt>
      <trkpt lat="45.98252" lon="4.79985">
        <ele>228</ele>
        <time>2017-12-29T10:58:21Z</time>
      </trkpt>
      <trkpt lat="45.98249" lon="4.79974">
        <ele>225</ele>
        <time>2017-12-29T10:58:23Z</time>
      </trkpt>
      <trkpt lat="45.98247" lon="4.79969">
        <ele>225</ele>
        <time>2017-12-29T10:58:24Z</time>
      </trkpt>
      <trkpt lat="45.98243" lon="4.7996">
        <ele>225</ele>
        <time>2017-12-29T10:58:26Z</time>
      </trkpt>
      <trkpt lat="45.98242" lon="4.79955">
        <ele>225</ele>
        <time>2017-12-29T10:58:27Z</time>
      </trkpt>
      <trkpt lat="45.98239" lon="4.79945">
        <ele>225</ele>
        <time>2017-12-29T10:58:29Z</time>
      </trkpt>
      <trkpt lat="45.98237" lon="4.79939">
        <ele>225</ele>
        <time>2017-12-29T10:58:30Z</time>
      </trkpt>
      <trkpt lat="45.98235" lon="4.79932">
        <ele>225</ele>
        <time>2017-12-29T10:58:31Z</time>
      </trkpt>
      <trkpt lat="45.98232" lon="4.79926">
        <ele>225</ele>
        <time>2017-12-29T10:58:32Z</time>
      </trkpt>
      <trkpt lat="45.98231" lon="4.79919">
        <ele>225</ele>
        <time>2017-12-29T10:58:33Z</time>
      </trkpt>
      <trkpt lat="45.98228" lon="4.79912">
        <ele>225</ele>
        <time>2017-12-29T10:58:34Z</time>
      </trkpt>
      <trkpt lat="45.98225" lon="4.79905">
        <ele>225</ele>
        <time>2017-12-29T10:58:35Z</time>
      </trkpt>
      <trkpt lat="45.98223" lon="4.79898">
        <ele>225</ele>
        <time>2017-12-29T10:58:36Z</time>
      </trkpt>
      <trkpt lat="45.9822" lon="4.79888">
        <ele>225</ele>
        <time>2017-12-29T10:58:38Z</time>
      </trkpt>
      <trkpt lat="45.98218" lon="4.79883">
        <ele>225</ele>
        <time>2017-12-29T10:58:39Z</time>
      </trkpt>
      <trkpt lat="45.98214" lon="4.79872">
        <ele>225</ele>
        <time>2017-12-29T10:58:41Z</time>
      </trkpt>
      <trkpt lat="45.98212" lon="4.79866">
        <ele>225</ele>
        <time>2017-12-29T10:58:42Z</time>
      </trkpt>
      <trkpt lat="45.98209" lon="4.79855">
        <ele>225</ele>
        <time>2017-12-29T10:58:44Z</time>
      </trkpt>
      <trkpt lat="45.98207" lon="4.79849">
        <ele>225</ele>
        <time>2017-12-29T10:58:45Z</time>
      </trkpt>
      <trkpt lat="45.98205" lon="4.79843">
        <ele>225</ele>
        <time>2017-12-29T10:58:46Z</time>
      </trkpt>
      <trkpt lat="45.98203" lon="4.79838">
        <ele>225</ele>
        <time>2017-12-29T10:58:47Z</time>
      </trkpt>
      <trkpt lat="45.98199" lon="4.79827">
        <ele>225</ele>
        <time>2017-12-29T10:58:49Z</time>
      </trkpt>
      <trkpt lat="45.98197" lon="4.79822">
        <ele>225</ele>
        <time>2017-12-29T10:58:50Z</time>
      </trkpt>
      <trkpt lat="45.98194" lon="4.79813">
        <ele>226</ele>
        <time>2017-12-29T10:58:52Z</time>
      </trkpt>
      <trkpt lat="45.98193" lon="4.79808">
        <ele>226</ele>
        <time>2017-12-29T10:58:53Z</time>
      </trkpt>
      <trkpt lat="45.9819" lon="4.79798">
        <ele>226</ele>
        <time>2017-12-29T10:58:55Z</time>
      </trkpt>
      <trkpt lat="45.98189" lon="4.79794">
        <ele>226</ele>
        <time>2017-12-29T10:58:56Z</time>
      </trkpt>
      <trkpt lat="45.98187" lon="4.79785">
        <ele>226</ele>
        <time>2017-12-29T10:58:58Z</time>
      </trkpt>
      <trkpt lat="45.98186" lon="4.79781">
        <ele>226</ele>
        <time>2017-12-29T10:58:59Z</time>
      </trkpt>
      <trkpt lat="45.98187" lon="4.79771">
        <ele>226</ele>
        <time>2017-12-29T10:59:02Z</time>
      </trkpt>
      <trkpt lat="45.98188" lon="4.79767">
        <ele>226</ele>
        <time>2017-12-29T10:59:03Z</time>
      </trkpt>
      <trkpt lat="45.98191" lon="4.79758">
        <ele>226</ele>
        <time>2017-12-29T10:59:06Z</time>
      </trkpt>
      <trkpt lat="45.98193" lon="4.79755">
        <ele>226</ele>
        <time>2017-12-29T10:59:07Z</time>
      </trkpt>
      <trkpt lat="45.98201" lon="4.7975">
        <ele>228</ele>
        <time>2017-12-29T10:59:10Z</time>
      </trkpt>
      <trkpt lat="45.98204" lon="4.79749">
        <ele>228</ele>
        <time>2017-12-29T10:59:11Z</time>
      </trkpt>
      <trkpt lat="45.9821" lon="4.79747">
        <ele>228</ele>
        <time>2017-12-29T10:59:13Z</time>
      </trkpt>
      <trkpt lat="45.98213" lon="4.79747">
        <ele>228</ele>
        <time>2017-12-29T10:59:14Z</time>
      </trkpt>
      <trkpt lat="45.98219" lon="4.79745">
        <ele>228</ele>
        <time>2017-12-29T10:59:16Z</time>
      </trkpt>
      <trkpt lat="45.98223" lon="4.79745">
        <ele>228</ele>
        <time>2017-12-29T10:59:17Z</time>
      </trkpt>
      <trkpt lat="45.98229" lon="4.79746">
        <ele>228</ele>
        <time>2017-12-29T10:59:19Z</time>
      </trkpt>
      <trkpt lat="45.98233" lon="4.79745">
        <ele>228</ele>
        <time>2017-12-29T10:59:20Z</time>
      </trkpt>
      <trkpt lat="45.9824" lon="4.79745">
        <ele>228</ele>
        <time>2017-12-29T10:59:22Z</time>
      </trkpt>
      <trkpt lat="45.98243" lon="4.79745">
        <ele>228</ele>
        <time>2017-12-29T10:59:23Z</time>
      </trkpt>
      <trkpt lat="45.9825" lon="4.79744">
        <ele>230</ele>
        <time>2017-12-29T10:59:25Z</time>
      </trkpt>
      <trkpt lat="45.98254" lon="4.79744">
        <ele>230</ele>
        <time>2017-12-29T10:59:26Z</time>
      </trkpt>
      <trkpt lat="45.9826" lon="4.79743">
        <ele>231</ele>
        <time>2017-12-29T10:59:28Z</time>
      </trkpt>
      <trkpt lat="45.98263" lon="4.79743">
        <ele>231</ele>
        <time>2017-12-29T10:59:29Z</time>
      </trkpt>
      <trkpt lat="45.9827" lon="4.79742">
        <ele>232</ele>
        <time>2017-12-29T10:59:31Z</time>
      </trkpt>
      <trkpt lat="45.98273" lon="4.79742">
        <ele>233</ele>
        <time>2017-12-29T10:59:32Z</time>
      </trkpt>
      <trkpt lat="45.9828" lon="4.79741">
        <ele>233</ele>
        <time>2017-12-29T10:59:34Z</time>
      </trkpt>
      <trkpt lat="45.98283" lon="4.79741">
        <ele>234</ele>
        <time>2017-12-29T10:59:35Z</time>
      </trkpt>
      <trkpt lat="45.98289" lon="4.7974">
        <ele>234</ele>
        <time>2017-12-29T10:59:37Z</time>
      </trkpt>
      <trkpt lat="45.98293" lon="4.7974">
        <ele>234</ele>
        <time>2017-12-29T10:59:38Z</time>
      </trkpt>
      <trkpt lat="45.983" lon="4.79739">
        <ele>235</ele>
        <time>2017-12-29T10:59:40Z</time>
      </trkpt>
      <trkpt lat="45.98303" lon="4.79739">
        <ele>235</ele>
        <time>2017-12-29T10:59:41Z</time>
      </trkpt>
      <trkpt lat="45.9831" lon="4.79737">
        <ele>236</ele>
        <time>2017-12-29T10:59:43Z</time>
      </trkpt>
      <trkpt lat="45.98313" lon="4.79737">
        <ele>236</ele>
        <time>2017-12-29T10:59:44Z</time>
      </trkpt>
      <trkpt lat="45.9832" lon="4.79737">
        <ele>236</ele>
        <time>2017-12-29T10:59:46Z</time>
      </trkpt>
      <trkpt lat="45.98323" lon="4.79736">
        <ele>236</ele>
        <time>2017-12-29T10:59:47Z</time>
      </trkpt>
      <trkpt lat="45.9833" lon="4.79735">
        <ele>236</ele>
        <time>2017-12-29T10:59:49Z</time>
      </trkpt>
      <trkpt lat="45.98334" lon="4.79735">
        <ele>239</ele>
        <time>2017-12-29T10:59:50Z</time>
      </trkpt>
      <trkpt lat="45.98341" lon="4.79734">
        <ele>239</ele>
        <time>2017-12-29T10:59:52Z</time>
      </trkpt>
      <trkpt lat="45.98345" lon="4.79734">
        <ele>239</ele>
        <time>2017-12-29T10:59:53Z</time>
      </trkpt>
      <trkpt lat="45.98353" lon="4.79733">
        <ele>240</ele>
        <time>2017-12-29T10:59:55Z</time>
      </trkpt>
      <trkpt lat="45.98356" lon="4.79732">
        <ele>240</ele>
        <time>2017-12-29T10:59:56Z</time>
      </trkpt>
      <trkpt lat="45.98363" lon="4.79731">
        <ele>240</ele>
        <time>2017-12-29T10:59:58Z</time>
      </trkpt>
      <trkpt lat="45.98367" lon="4.79731">
        <ele>240</ele>
        <time>2017-12-29T10:59:59Z</time>
      </trkpt>
      <trkpt lat="45.98374" lon="4.7973">
        <ele>240</ele>
        <time>2017-12-29T11:00:01Z</time>
      </trkpt>
      <trkpt lat="45.98377" lon="4.7973">
        <ele>241</ele>
        <time>2017-12-29T11:00:02Z</time>
      </trkpt>
      <trkpt lat="45.98385" lon="4.7973">
        <ele>241</ele>
        <time>2017-12-29T11:00:04Z</time>
      </trkpt>
      <trkpt lat="45.98389" lon="4.7973">
        <ele>241</ele>
        <time>2017-12-29T11:00:05Z</time>
      </trkpt>
      <trkpt lat="45.98397" lon="4.79729">
        <ele>241</ele>
        <time>2017-12-29T11:00:07Z</time>
      </trkpt>
      <trkpt lat="45.98401" lon="4.79728">
        <ele>241</ele>
        <time>2017-12-29T11:00:08Z</time>
      </trkpt>
      <trkpt lat="45.98409" lon="4.79727">
        <ele>241</ele>
        <time>2017-12-29T11:00:10Z</time>
      </trkpt>
      <trkpt lat="45.98413" lon="4.79727">
        <ele>241</ele>
        <time>2017-12-29T11:00:11Z</time>
      </trkpt>
      <trkpt lat="45.98421" lon="4.79727">
        <ele>242</ele>
        <time>2017-12-29T11:00:13Z</time>
      </trkpt>
      <trkpt lat="45.98424" lon="4.79727">
        <ele>242</ele>
        <time>2017-12-29T11:00:14Z</time>
      </trkpt>
      <trkpt lat="45.98432" lon="4.79726">
        <ele>242</ele>
        <time>2017-12-29T11:00:16Z</time>
      </trkpt>
      <trkpt lat="45.98435" lon="4.79725">
        <ele>242</ele>
        <time>2017-12-29T11:00:17Z</time>
      </trkpt>
      <trkpt lat="45.98443" lon="4.79725">
        <ele>242</ele>
        <time>2017-12-29T11:00:19Z</time>
      </trkpt>
      <trkpt lat="45.98447" lon="4.79725">
        <ele>242</ele>
        <time>2017-12-29T11:00:20Z</time>
      </trkpt>
      <trkpt lat="45.98454" lon="4.79726">
        <ele>243</ele>
        <time>2017-12-29T11:00:22Z</time>
      </trkpt>
      <trkpt lat="45.98458" lon="4.79726">
        <ele>243</ele>
        <time>2017-12-29T11:00:23Z</time>
      </trkpt>
      <trkpt lat="45.98465" lon="4.79727">
        <ele>243</ele>
        <time>2017-12-29T11:00:25Z</time>
      </trkpt>
      <trkpt lat="45.98468" lon="4.79727">
        <ele>243</ele>
        <time>2017-12-29T11:00:26Z</time>
      </trkpt>
      <trkpt lat="45.98475" lon="4.79727">
        <ele>243</ele>
        <time>2017-12-29T11:00:28Z</time>
      </trkpt>
      <trkpt lat="45.98479" lon="4.79727">
        <ele>243</ele>
        <time>2017-12-29T11:00:29Z</time>
      </trkpt>
      <trkpt lat="45.98486" lon="4.79728">
        <ele>243</ele>
        <time>2017-12-29T11:00:31Z</time>
      </trkpt>
      <trkpt lat="45.98489" lon="4.79728">
        <ele>243</ele>
        <time>2017-12-29T11:00:32Z</time>
      </trkpt>
      <trkpt lat="45.98496" lon="4.79728">
        <ele>243</ele>
        <time>2017-12-29T11:00:34Z</time>
      </trkpt>
      <trkpt lat="45.985" lon="4.79729">
        <ele>244</ele>
        <time>2017-12-29T11:00:35Z</time>
      </trkpt>
      <trkpt lat="45.98508" lon="4.79729">
        <ele>244</ele>
        <time>2017-12-29T11:00:37Z</time>
      </trkpt>
      <trkpt lat="45.98511" lon="4.79729">
        <ele>244</ele>
        <time>2017-12-29T11:00:38Z</time>
      </trkpt>
      <trkpt lat="45.98519" lon="4.79727">
        <ele>244</ele>
        <time>2017-12-29T11:00:40Z</time>
      </trkpt>
      <trkpt lat="45.98522" lon="4.79727">
        <ele>244</ele>
        <time>2017-12-29T11:00:41Z</time>
      </trkpt>
      <trkpt lat="45.98528" lon="4.79724">
        <ele>244</ele>
        <time>2017-12-29T11:00:43Z</time>
      </trkpt>
      <trkpt lat="45.98531" lon="4.79723">
        <ele>244</ele>
        <time>2017-12-29T11:00:44Z</time>
      </trkpt>
      <trkpt lat="45.98537" lon="4.7972">
        <ele>244</ele>
        <time>2017-12-29T11:00:46Z</time>
      </trkpt>
      <trkpt lat="45.98541" lon="4.79717">
        <ele>244</ele>
        <time>2017-12-29T11:00:47Z</time>
      </trkpt>
      <trkpt lat="45.98547" lon="4.79713">
        <ele>244</ele>
        <time>2017-12-29T11:00:49Z</time>
      </trkpt>
      <trkpt lat="45.9855" lon="4.7971">
        <ele>244</ele>
        <time>2017-12-29T11:00:50Z</time>
      </trkpt>
      <trkpt lat="45.98556" lon="4.79704">
        <ele>244</ele>
        <time>2017-12-29T11:00:52Z</time>
      </trkpt>
      <trkpt lat="45.98559" lon="4.79701">
        <ele>244</ele>
        <time>2017-12-29T11:00:53Z</time>
      </trkpt>
      <trkpt lat="45.98565" lon="4.79694">
        <ele>244</ele>
        <time>2017-12-29T11:00:55Z</time>
      </trkpt>
      <trkpt lat="45.98568" lon="4.7969">
        <ele>244</ele>
        <time>2017-12-29T11:00:56Z</time>
      </trkpt>
      <trkpt lat="45.98573" lon="4.79682">
        <ele>244</ele>
        <time>2017-12-29T11:00:58Z</time>
      </trkpt>
      <trkpt lat="45.98575" lon="4.79678">
        <ele>245</ele>
        <time>2017-12-29T11:00:59Z</time>
      </trkpt>
      <trkpt lat="45.9858" lon="4.79669">
        <ele>245</ele>
        <time>2017-12-29T11:01:01Z</time>
      </trkpt>
      <trkpt lat="45.98582" lon="4.79664">
        <ele>245</ele>
        <time>2017-12-29T11:01:02Z</time>
      </trkpt>
      <trkpt lat="45.98588" lon="4.79654">
        <ele>245</ele>
        <time>2017-12-29T11:01:04Z</time>
      </trkpt>
      <trkpt lat="45.98591" lon="4.7965">
        <ele>245</ele>
        <time>2017-12-29T11:01:05Z</time>
      </trkpt>
      <trkpt lat="45.98597" lon="4.79642">
        <ele>245</ele>
        <time>2017-12-29T11:01:07Z</time>
      </trkpt>
      <trkpt lat="45.986" lon="4.79638">
        <ele>245</ele>
        <time>2017-12-29T11:01:08Z</time>
      </trkpt>
      <trkpt lat="45.98608" lon="4.79632">
        <ele>245</ele>
        <time>2017-12-29T11:01:10Z</time>
      </trkpt>
      <trkpt lat="45.98612" lon="4.7963">
        <ele>245</ele>
        <time>2017-12-29T11:01:11Z</time>
      </trkpt>
      <trkpt lat="45.9862" lon="4.79625">
        <ele>245</ele>
        <time>2017-12-29T11:01:13Z</time>
      </trkpt>
      <trkpt lat="45.98623" lon="4.79621">
        <ele>245</ele>
        <time>2017-12-29T11:01:14Z</time>
      </trkpt>
      <trkpt lat="45.98626" lon="4.79609">
        <ele>245</ele>
        <time>2017-12-29T11:01:16Z</time>
      </trkpt>
      <trkpt lat="45.98627" lon="4.79603">
        <ele>245</ele>
        <time>2017-12-29T11:01:17Z</time>
      </trkpt>
      <trkpt lat="45.98623" lon="4.79591">
        <ele>245</ele>
        <time>2017-12-29T11:01:19Z</time>
      </trkpt>
      <trkpt lat="45.98621" lon="4.79587">
        <ele>245</ele>
        <time>2017-12-29T11:01:20Z</time>
      </trkpt>
      <trkpt lat="45.98617" lon="4.79583">
        <ele>245</ele>
        <time>2017-12-29T11:01:21Z</time>
      </trkpt>
      <trkpt lat="45.98613" lon="4.7958">
        <ele>245</ele>
        <time>2017-12-29T11:01:22Z</time>
      </trkpt>
      <trkpt lat="45.98608" lon="4.7958">
        <ele>245</ele>
        <time>2017-12-29T11:01:23Z</time>
      </trkpt>
      <trkpt lat="45.98603" lon="4.7958">
        <ele>245</ele>
        <time>2017-12-29T11:01:24Z</time>
      </trkpt>
      <trkpt lat="45.98599" lon="4.7958">
        <ele>245</ele>
        <time>2017-12-29T11:01:25Z</time>
      </trkpt>
      <trkpt lat="45.98594" lon="4.7958">
        <ele>245</ele>
        <time>2017-12-29T11:01:26Z</time>
      </trkpt>
      <trkpt lat="45.98585" lon="4.79579">
        <ele>245</ele>
        <time>2017-12-29T11:01:28Z</time>
      </trkpt>
      <trkpt lat="45.98579" lon="4.79578">
        <ele>245</ele>
        <time>2017-12-29T11:01:29Z</time>
      </trkpt>
      <trkpt lat="45.98575" lon="4.79576">
        <ele>245</ele>
        <time>2017-12-29T11:01:30Z</time>
      </trkpt>
      <trkpt lat="45.98571" lon="4.79573">
        <ele>245</ele>
        <time>2017-12-29T11:01:31Z</time>
      </trkpt>
      <trkpt lat="45.98563" lon="4.79566">
        <ele>244</ele>
        <time>2017-12-29T11:01:33Z</time>
      </trkpt>
      <trkpt lat="45.9856" lon="4.79561">
        <ele>244</ele>
        <time>2017-12-29T11:01:34Z</time>
      </trkpt>
      <trkpt lat="45.98556" lon="4.79556">
        <ele>244</ele>
        <time>2017-12-29T11:01:35Z</time>
      </trkpt>
      <trkpt lat="45.98552" lon="4.79551">
        <ele>244</ele>
        <time>2017-12-29T11:01:36Z</time>
      </trkpt>
      <trkpt lat="45.98549" lon="4.79546">
        <ele>244</ele>
        <time>2017-12-29T11:01:37Z</time>
      </trkpt>
      <trkpt lat="45.98545" lon="4.79541">
        <ele>244</ele>
        <time>2017-12-29T11:01:38Z</time>
      </trkpt>
      <trkpt lat="45.98543" lon="4.79534">
        <ele>244</ele>
        <time>2017-12-29T11:01:39Z</time>
      </trkpt>
      <trkpt lat="45.9854" lon="4.79529">
        <ele>244</ele>
        <time>2017-12-29T11:01:40Z</time>
      </trkpt>
      <trkpt lat="45.98537" lon="4.79523">
        <ele>244</ele>
        <time>2017-12-29T11:01:41Z</time>
      </trkpt>
      <trkpt lat="45.98535" lon="4.79517">
        <ele>244</ele>
        <time>2017-12-29T11:01:42Z</time>
      </trkpt>
      <trkpt lat="45.98534" lon="4.79508">
        <ele>244</ele>
        <time>2017-12-29T11:01:43Z</time>
      </trkpt>
      <trkpt lat="45.98533" lon="4.795">
        <ele>244</ele>
        <time>2017-12-29T11:01:44Z</time>
      </trkpt>
      <trkpt lat="45.98531" lon="4.79494">
        <ele>244</ele>
        <time>2017-12-29T11:01:45Z</time>
      </trkpt>
      <trkpt lat="45.9853" lon="4.79487">
        <ele>244</ele>
        <time>2017-12-29T11:01:46Z</time>
      </trkpt>
      <trkpt lat="45.98528" lon="4.79475">
        <ele>244</ele>
        <time>2017-12-29T11:01:48Z</time>
      </trkpt>
      <trkpt lat="45.98528" lon="4.79468">
        <ele>244</ele>
        <time>2017-12-29T11:01:49Z</time>
      </trkpt>
      <trkpt lat="45.98527" lon="4.7946">
        <ele>244</ele>
        <time>2017-12-29T11:01:50Z</time>
      </trkpt>
      <trkpt lat="45.98527" lon="4.79453">
        <ele>244</ele>
        <time>2017-12-29T11:01:51Z</time>
      </trkpt>
      <trkpt lat="45.98528" lon="4.79445">
        <ele>244</ele>
        <time>2017-12-29T11:01:52Z</time>
      </trkpt>
      <trkpt lat="45.98528" lon="4.79438">
        <ele>244</ele>
        <time>2017-12-29T11:01:53Z</time>
      </trkpt>
      <trkpt lat="45.98528" lon="4.7943">
        <ele>244</ele>
        <time>2017-12-29T11:01:54Z</time>
      </trkpt>
      <trkpt lat="45.98527" lon="4.79423">
        <ele>244</ele>
        <time>2017-12-29T11:01:55Z</time>
      </trkpt>
      <trkpt lat="45.98527" lon="4.79416">
        <ele>244</ele>
        <time>2017-12-29T11:01:56Z</time>
      </trkpt>
      <trkpt lat="45.98526" lon="4.79409">
        <ele>244</ele>
        <time>2017-12-29T11:01:57Z</time>
      </trkpt>
      <trkpt lat="45.98525" lon="4.79397">
        <ele>244</ele>
        <time>2017-12-29T11:01:59Z</time>
      </trkpt>
      <trkpt lat="45.98524" lon="4.79391">
        <ele>244</ele>
        <time>2017-12-29T11:02:00Z</time>
      </trkpt>
      <trkpt lat="45.98522" lon="4.79379">
        <ele>244</ele>
        <time>2017-12-29T11:02:02Z</time>
      </trkpt>
      <trkpt lat="45.98521" lon="4.79373">
        <ele>243</ele>
        <time>2017-12-29T11:02:03Z</time>
      </trkpt>
      <trkpt lat="45.9852" lon="4.79367">
        <ele>243</ele>
        <time>2017-12-29T11:02:04Z</time>
      </trkpt>
      <trkpt lat="45.98518" lon="4.79361">
        <ele>243</ele>
        <time>2017-12-29T11:02:05Z</time>
      </trkpt>
      <trkpt lat="45.98517" lon="4.79354">
        <ele>243</ele>
        <time>2017-12-29T11:02:06Z</time>
      </trkpt>
      <trkpt lat="45.98515" lon="4.79346">
        <ele>243</ele>
        <time>2017-12-29T11:02:07Z</time>
      </trkpt>
      <trkpt lat="45.98513" lon="4.79339">
        <ele>243</ele>
        <time>2017-12-29T11:02:08Z</time>
      </trkpt>
      <trkpt lat="45.98512" lon="4.79331">
        <ele>243</ele>
        <time>2017-12-29T11:02:09Z</time>
      </trkpt>
      <trkpt lat="45.9851" lon="4.79324">
        <ele>243</ele>
        <time>2017-12-29T11:02:10Z</time>
      </trkpt>
      <trkpt lat="45.98508" lon="4.79317">
        <ele>243</ele>
        <time>2017-12-29T11:02:11Z</time>
      </trkpt>
      <trkpt lat="45.98505" lon="4.79309">
        <ele>243</ele>
        <time>2017-12-29T11:02:12Z</time>
      </trkpt>
      <trkpt lat="45.98504" lon="4.79302">
        <ele>243</ele>
        <time>2017-12-29T11:02:13Z</time>
      </trkpt>
      <trkpt lat="45.985" lon="4.79295">
        <ele>243</ele>
        <time>2017-12-29T11:02:14Z</time>
      </trkpt>
      <trkpt lat="45.98497" lon="4.79289">
        <ele>243</ele>
        <time>2017-12-29T11:02:15Z</time>
      </trkpt>
      <trkpt lat="45.98495" lon="4.79283">
        <ele>243</ele>
        <time>2017-12-29T11:02:16Z</time>
      </trkpt>
      <trkpt lat="45.98493" lon="4.79277">
        <ele>243</ele>
        <time>2017-12-29T11:02:17Z</time>
      </trkpt>
      <trkpt lat="45.9849" lon="4.79271">
        <ele>243</ele>
        <time>2017-12-29T11:02:18Z</time>
      </trkpt>
      <trkpt lat="45.98487" lon="4.79265">
        <ele>243</ele>
        <time>2017-12-29T11:02:19Z</time>
      </trkpt>
      <trkpt lat="45.98484" lon="4.79261">
        <ele>243</ele>
        <time>2017-12-29T11:02:20Z</time>
      </trkpt>
      <trkpt lat="45.98481" lon="4.79256">
        <ele>243</ele>
        <time>2017-12-29T11:02:21Z</time>
      </trkpt>
      <trkpt lat="45.98477" lon="4.79249">
        <ele>243</ele>
        <time>2017-12-29T11:02:22Z</time>
      </trkpt>
      <trkpt lat="45.98474" lon="4.79244">
        <ele>243</ele>
        <time>2017-12-29T11:02:23Z</time>
      </trkpt>
      <trkpt lat="45.98471" lon="4.79238">
        <ele>243</ele>
        <time>2017-12-29T11:02:24Z</time>
      </trkpt>
      <trkpt lat="45.98468" lon="4.79232">
        <ele>243</ele>
        <time>2017-12-29T11:02:25Z</time>
      </trkpt>
      <trkpt lat="45.98464" lon="4.79226">
        <ele>243</ele>
        <time>2017-12-29T11:02:26Z</time>
      </trkpt>
      <trkpt lat="45.9846" lon="4.79219">
        <ele>243</ele>
        <time>2017-12-29T11:02:27Z</time>
      </trkpt>
      <trkpt lat="45.98455" lon="4.79212">
        <ele>243</ele>
        <time>2017-12-29T11:02:28Z</time>
      </trkpt>
      <trkpt lat="45.98452" lon="4.79206">
        <ele>242</ele>
        <time>2017-12-29T11:02:29Z</time>
      </trkpt>
      <trkpt lat="45.98449" lon="4.79199">
        <ele>242</ele>
        <time>2017-12-29T11:02:30Z</time>
      </trkpt>
      <trkpt lat="45.98446" lon="4.79193">
        <ele>242</ele>
        <time>2017-12-29T11:02:31Z</time>
      </trkpt>
      <trkpt lat="45.98442" lon="4.79187">
        <ele>242</ele>
        <time>2017-12-29T11:02:32Z</time>
      </trkpt>
      <trkpt lat="45.9844" lon="4.79181">
        <ele>242</ele>
        <time>2017-12-29T11:02:33Z</time>
      </trkpt>
      <trkpt lat="45.98436" lon="4.79175">
        <ele>242</ele>
        <time>2017-12-29T11:02:34Z</time>
      </trkpt>
      <trkpt lat="45.98433" lon="4.79169">
        <ele>242</ele>
        <time>2017-12-29T11:02:35Z</time>
      </trkpt>
      <trkpt lat="45.9843" lon="4.79164">
        <ele>242</ele>
        <time>2017-12-29T11:02:36Z</time>
      </trkpt>
      <trkpt lat="45.98427" lon="4.79159">
        <ele>242</ele>
        <time>2017-12-29T11:02:37Z</time>
      </trkpt>
      <trkpt lat="45.98424" lon="4.79154">
        <ele>242</ele>
        <time>2017-12-29T11:02:38Z</time>
      </trkpt>
      <trkpt lat="45.98421" lon="4.79149">
        <ele>242</ele>
        <time>2017-12-29T11:02:39Z</time>
      </trkpt>
      <trkpt lat="45.98418" lon="4.79144">
        <ele>242</ele>
        <time>2017-12-29T11:02:40Z</time>
      </trkpt>
      <trkpt lat="45.98415" lon="4.79138">
        <ele>242</ele>
        <time>2017-12-29T11:02:41Z</time>
      </trkpt>
      <trkpt lat="45.98412" lon="4.79133">
        <ele>242</ele>
        <time>2017-12-29T11:02:42Z</time>
      </trkpt>
      <trkpt lat="45.98409" lon="4.79127">
        <ele>242</ele>
        <time>2017-12-29T11:02:43Z</time>
      </trkpt>
      <trkpt lat="45.98405" lon="4.79121">
        <ele>242</ele>
        <time>2017-12-29T11:02:44Z</time>
      </trkpt>
      <trkpt lat="45.98402" lon="4.79114">
        <ele>242</ele>
        <time>2017-12-29T11:02:45Z</time>
      </trkpt>
      <trkpt lat="45.98398" lon="4.79108">
        <ele>242</ele>
        <time>2017-12-29T11:02:46Z</time>
      </trkpt>
      <trkpt lat="45.98395" lon="4.79101">
        <ele>242</ele>
        <time>2017-12-29T11:02:47Z</time>
      </trkpt>
      <trkpt lat="45.98391" lon="4.79095">
        <ele>242</ele>
        <time>2017-12-29T11:02:48Z</time>
      </trkpt>
      <trkpt lat="45.98388" lon="4.79087">
        <ele>242</ele>
        <time>2017-12-29T11:02:49Z</time>
      </trkpt>
      <trkpt lat="45.98384" lon="4.79081">
        <ele>242</ele>
        <time>2017-12-29T11:02:50Z</time>
      </trkpt>
      <trkpt lat="45.98381" lon="4.79075">
        <ele>242</ele>
        <time>2017-12-29T11:02:51Z</time>
      </trkpt>
      <trkpt lat="45.98377" lon="4.79068">
        <ele>242</ele>
        <time>2017-12-29T11:02:52Z</time>
      </trkpt>
      <trkpt lat="45.98374" lon="4.79063">
        <ele>242</ele>
        <time>2017-12-29T11:02:53Z</time>
      </trkpt>
      <trkpt lat="45.9837" lon="4.79057">
        <ele>242</ele>
        <time>2017-12-29T11:02:54Z</time>
      </trkpt>
      <trkpt lat="45.98368" lon="4.79052">
        <ele>242</ele>
        <time>2017-12-29T11:02:55Z</time>
      </trkpt>
      <trkpt lat="45.98365" lon="4.79046">
        <ele>242</ele>
        <time>2017-12-29T11:02:56Z</time>
      </trkpt>
      <trkpt lat="45.98361" lon="4.79041">
        <ele>242</ele>
        <time>2017-12-29T11:02:57Z</time>
      </trkpt>
      <trkpt lat="45.98358" lon="4.79036">
        <ele>242</ele>
        <time>2017-12-29T11:02:58Z</time>
      </trkpt>
      <trkpt lat="45.98354" lon="4.7903">
        <ele>242</ele>
        <time>2017-12-29T11:02:59Z</time>
      </trkpt>
      <trkpt lat="45.9835" lon="4.79025">
        <ele>242</ele>
        <time>2017-12-29T11:03:00Z</time>
      </trkpt>
      <trkpt lat="45.98346" lon="4.79019">
        <ele>242</ele>
        <time>2017-12-29T11:03:01Z</time>
      </trkpt>
      <trkpt lat="45.98341" lon="4.79015">
        <ele>242</ele>
        <time>2017-12-29T11:03:02Z</time>
      </trkpt>
      <trkpt lat="45.98337" lon="4.79009">
        <ele>242</ele>
        <time>2017-12-29T11:03:03Z</time>
      </trkpt>
      <trkpt lat="45.98331" lon="4.79005">
        <ele>242</ele>
        <time>2017-12-29T11:03:04Z</time>
      </trkpt>
      <trkpt lat="45.98326" lon="4.79002">
        <ele>242</ele>
        <time>2017-12-29T11:03:05Z</time>
      </trkpt>
      <trkpt lat="45.9832" lon="4.78999">
        <ele>242</ele>
        <time>2017-12-29T11:03:06Z</time>
      </trkpt>
      <trkpt lat="45.98314" lon="4.78997">
        <ele>242</ele>
        <time>2017-12-29T11:03:07Z</time>
      </trkpt>
      <trkpt lat="45.98308" lon="4.78994">
        <ele>241</ele>
        <time>2017-12-29T11:03:08Z</time>
      </trkpt>
      <trkpt lat="45.98303" lon="4.78991">
        <ele>241</ele>
        <time>2017-12-29T11:03:09Z</time>
      </trkpt>
      <trkpt lat="45.98298" lon="4.78989">
        <ele>241</ele>
        <time>2017-12-29T11:03:10Z</time>
      </trkpt>
      <trkpt lat="45.98293" lon="4.78987">
        <ele>241</ele>
        <time>2017-12-29T11:03:11Z</time>
      </trkpt>
      <trkpt lat="45.98288" lon="4.78985">
        <ele>241</ele>
        <time>2017-12-29T11:03:12Z</time>
      </trkpt>
      <trkpt lat="45.98283" lon="4.78982">
        <ele>241</ele>
        <time>2017-12-29T11:03:13Z</time>
      </trkpt>
      <trkpt lat="45.98278" lon="4.78979">
        <ele>241</ele>
        <time>2017-12-29T11:03:14Z</time>
      </trkpt>
      <trkpt lat="45.98273" lon="4.78977">
        <ele>241</ele>
        <time>2017-12-29T11:03:15Z</time>
      </trkpt>
      <trkpt lat="45.98269" lon="4.78975">
        <ele>241</ele>
        <time>2017-12-29T11:03:16Z</time>
      </trkpt>
      <trkpt lat="45.98264" lon="4.78972">
        <ele>241</ele>
        <time>2017-12-29T11:03:17Z</time>
      </trkpt>
      <trkpt lat="45.9826" lon="4.7897">
        <ele>241</ele>
        <time>2017-12-29T11:03:18Z</time>
      </trkpt>
      <trkpt lat="45.98256" lon="4.78965">
        <ele>241</ele>
        <time>2017-12-29T11:03:19Z</time>
      </trkpt>
      <trkpt lat="45.98251" lon="4.78962">
        <ele>241</ele>
        <time>2017-12-29T11:03:20Z</time>
      </trkpt>
      <trkpt lat="45.98246" lon="4.78958">
        <ele>241</ele>
        <time>2017-12-29T11:03:21Z</time>
      </trkpt>
      <trkpt lat="45.9824" lon="4.78954">
        <ele>241</ele>
        <time>2017-12-29T11:03:22Z</time>
      </trkpt>
      <trkpt lat="45.98234" lon="4.78951">
        <ele>241</ele>
        <time>2017-12-29T11:03:23Z</time>
      </trkpt>
      <trkpt lat="45.9823" lon="4.78949">
        <ele>241</ele>
        <time>2017-12-29T11:03:24Z</time>
      </trkpt>
      <trkpt lat="45.98225" lon="4.78946">
        <ele>241</ele>
        <time>2017-12-29T11:03:25Z</time>
      </trkpt>
      <trkpt lat="45.9822" lon="4.78943">
        <ele>241</ele>
        <time>2017-12-29T11:03:26Z</time>
      </trkpt>
      <trkpt lat="45.98215" lon="4.7894">
        <ele>241</ele>
        <time>2017-12-29T11:03:27Z</time>
      </trkpt>
      <trkpt lat="45.98211" lon="4.78938">
        <ele>241</ele>
        <time>2017-12-29T11:03:28Z</time>
      </trkpt>
      <trkpt lat="45.98207" lon="4.78935">
        <ele>241</ele>
        <time>2017-12-29T11:03:29Z</time>
      </trkpt>
      <trkpt lat="45.98202" lon="4.78933">
        <ele>241</ele>
        <time>2017-12-29T11:03:30Z</time>
      </trkpt>
      <trkpt lat="45.98198" lon="4.7893">
        <ele>241</ele>
        <time>2017-12-29T11:03:31Z</time>
      </trkpt>
      <trkpt lat="45.98194" lon="4.78926">
        <ele>241</ele>
        <time>2017-12-29T11:03:32Z</time>
      </trkpt>
      <trkpt lat="45.9819" lon="4.78923">
        <ele>241</ele>
        <time>2017-12-29T11:03:33Z</time>
      </trkpt>
      <trkpt lat="45.98185" lon="4.7892">
        <ele>240</ele>
        <time>2017-12-29T11:03:34Z</time>
      </trkpt>
      <trkpt lat="45.9818" lon="4.78917">
        <ele>240</ele>
        <time>2017-12-29T11:03:35Z</time>
      </trkpt>
      <trkpt lat="45.98175" lon="4.78914">
        <ele>240</ele>
        <time>2017-12-29T11:03:36Z</time>
      </trkpt>
      <trkpt lat="45.9817" lon="4.78911">
        <ele>240</ele>
        <time>2017-12-29T11:03:37Z</time>
      </trkpt>
      <trkpt lat="45.98164" lon="4.78908">
        <ele>240</ele>
        <time>2017-12-29T11:03:38Z</time>
      </trkpt>
      <trkpt lat="45.9816" lon="4.78904">
        <ele>240</ele>
        <time>2017-12-29T11:03:39Z</time>
      </trkpt>
      <trkpt lat="45.98155" lon="4.78901">
        <ele>240</ele>
        <time>2017-12-29T11:03:40Z</time>
      </trkpt>
      <trkpt lat="45.98151" lon="4.78898">
        <ele>240</ele>
        <time>2017-12-29T11:03:41Z</time>
      </trkpt>
      <trkpt lat="45.98146" lon="4.78895">
        <ele>240</ele>
        <time>2017-12-29T11:03:42Z</time>
      </trkpt>
      <trkpt lat="45.9814" lon="4.78892">
        <ele>240</ele>
        <time>2017-12-29T11:03:43Z</time>
      </trkpt>
      <trkpt lat="45.98135" lon="4.7889">
        <ele>240</ele>
        <time>2017-12-29T11:03:44Z</time>
      </trkpt>
      <trkpt lat="45.9813" lon="4.78888">
        <ele>240</ele>
        <time>2017-12-29T11:03:45Z</time>
      </trkpt>
      <trkpt lat="45.98126" lon="4.78886">
        <ele>240</ele>
        <time>2017-12-29T11:03:46Z</time>
      </trkpt>
      <trkpt lat="45.98122" lon="4.78883">
        <ele>240</ele>
        <time>2017-12-29T11:03:47Z</time>
      </trkpt>
      <trkpt lat="45.98118" lon="4.7888">
        <ele>240</ele>
        <time>2017-12-29T11:03:48Z</time>
      </trkpt>
      <trkpt lat="45.98113" lon="4.78878">
        <ele>240</ele>
        <time>2017-12-29T11:03:49Z</time>
      </trkpt>
      <trkpt lat="45.98107" lon="4.78874">
        <ele>239</ele>
        <time>2017-12-29T11:03:50Z</time>
      </trkpt>
      <trkpt lat="45.98103" lon="4.78871">
        <ele>239</ele>
        <time>2017-12-29T11:03:51Z</time>
      </trkpt>
      <trkpt lat="45.98098" lon="4.78869">
        <ele>239</ele>
        <time>2017-12-29T11:03:52Z</time>
      </trkpt>
      <trkpt lat="45.98094" lon="4.78866">
        <ele>239</ele>
        <time>2017-12-29T11:03:53Z</time>
      </trkpt>
      <trkpt lat="45.9809" lon="4.78864">
        <ele>239</ele>
        <time>2017-12-29T11:03:54Z</time>
      </trkpt>
      <trkpt lat="45.98085" lon="4.78861">
        <ele>239</ele>
        <time>2017-12-29T11:03:55Z</time>
      </trkpt>
      <trkpt lat="45.9808" lon="4.78859">
        <ele>239</ele>
        <time>2017-12-29T11:03:56Z</time>
      </trkpt>
      <trkpt lat="45.98076" lon="4.78854">
        <ele>239</ele>
        <time>2017-12-29T11:03:57Z</time>
      </trkpt>
      <trkpt lat="45.98071" lon="4.78852">
        <ele>239</ele>
        <time>2017-12-29T11:03:58Z</time>
      </trkpt>
      <trkpt lat="45.98065" lon="4.78848">
        <ele>239</ele>
        <time>2017-12-29T11:03:59Z</time>
      </trkpt>
      <trkpt lat="45.9806" lon="4.78844">
        <ele>238</ele>
        <time>2017-12-29T11:04:00Z</time>
      </trkpt>
      <trkpt lat="45.98056" lon="4.78841">
        <ele>238</ele>
        <time>2017-12-29T11:04:01Z</time>
      </trkpt>
      <trkpt lat="45.98051" lon="4.78838">
        <ele>238</ele>
        <time>2017-12-29T11:04:02Z</time>
      </trkpt>
      <trkpt lat="45.98047" lon="4.78835">
        <ele>238</ele>
        <time>2017-12-29T11:04:03Z</time>
      </trkpt>
      <trkpt lat="45.98042" lon="4.78831">
        <ele>238</ele>
        <time>2017-12-29T11:04:04Z</time>
      </trkpt>
      <trkpt lat="45.98038" lon="4.78827">
        <ele>238</ele>
        <time>2017-12-29T11:04:05Z</time>
      </trkpt>
      <trkpt lat="45.98035" lon="4.78824">
        <ele>238</ele>
        <time>2017-12-29T11:04:06Z</time>
      </trkpt>
      <trkpt lat="45.9803" lon="4.78822">
        <ele>238</ele>
        <time>2017-12-29T11:04:07Z</time>
      </trkpt>
      <trkpt lat="45.98026" lon="4.78819">
        <ele>238</ele>
        <time>2017-12-29T11:04:08Z</time>
      </trkpt>
      <trkpt lat="45.98021" lon="4.78815">
        <ele>238</ele>
        <time>2017-12-29T11:04:09Z</time>
      </trkpt>
      <trkpt lat="45.98015" lon="4.78812">
        <ele>238</ele>
        <time>2017-12-29T11:04:10Z</time>
      </trkpt>
      <trkpt lat="45.9801" lon="4.78808">
        <ele>238</ele>
        <time>2017-12-29T11:04:11Z</time>
      </trkpt>
      <trkpt lat="45.98006" lon="4.78805">
        <ele>238</ele>
        <time>2017-12-29T11:04:12Z</time>
      </trkpt>
      <trkpt lat="45.98001" lon="4.788">
        <ele>238</ele>
        <time>2017-12-29T11:04:13Z</time>
      </trkpt>
      <trkpt lat="45.97996" lon="4.78797">
        <ele>238</ele>
        <time>2017-12-29T11:04:14Z</time>
      </trkpt>
      <trkpt lat="45.97991" lon="4.78793">
        <ele>238</ele>
        <time>2017-12-29T11:04:15Z</time>
      </trkpt>
      <trkpt lat="45.97986" lon="4.7879">
        <ele>238</ele>
        <time>2017-12-29T11:04:16Z</time>
      </trkpt>
      <trkpt lat="45.97982" lon="4.78787">
        <ele>238</ele>
        <time>2017-12-29T11:04:17Z</time>
      </trkpt>
      <trkpt lat="45.97975" lon="4.78781">
        <ele>238</ele>
        <time>2017-12-29T11:04:19Z</time>
      </trkpt>
      <trkpt lat="45.97971" lon="4.78777">
        <ele>238</ele>
        <time>2017-12-29T11:04:20Z</time>
      </trkpt>
      <trkpt lat="45.97966" lon="4.78774">
        <ele>238</ele>
        <time>2017-12-29T11:04:21Z</time>
      </trkpt>
      <trkpt lat="45.97962" lon="4.78771">
        <ele>238</ele>
        <time>2017-12-29T11:04:22Z</time>
      </trkpt>
      <trkpt lat="45.97957" lon="4.78767">
        <ele>238</ele>
        <time>2017-12-29T11:04:23Z</time>
      </trkpt>
      <trkpt lat="45.97952" lon="4.78764">
        <ele>238</ele>
        <time>2017-12-29T11:04:24Z</time>
      </trkpt>
      <trkpt lat="45.97948" lon="4.78761">
        <ele>238</ele>
        <time>2017-12-29T11:04:25Z</time>
      </trkpt>
      <trkpt lat="45.97943" lon="4.78757">
        <ele>238</ele>
        <time>2017-12-29T11:04:26Z</time>
      </trkpt>
      <trkpt lat="45.97938" lon="4.78753">
        <ele>238</ele>
        <time>2017-12-29T11:04:27Z</time>
      </trkpt>
      <trkpt lat="45.97933" lon="4.7875">
        <ele>238</ele>
        <time>2017-12-29T11:04:28Z</time>
      </trkpt>
      <trkpt lat="45.97929" lon="4.78747">
        <ele>237</ele>
        <time>2017-12-29T11:04:29Z</time>
      </trkpt>
      <trkpt lat="45.97924" lon="4.78744">
        <ele>237</ele>
        <time>2017-12-29T11:04:30Z</time>
      </trkpt>
      <trkpt lat="45.9792" lon="4.78739">
        <ele>237</ele>
        <time>2017-12-29T11:04:31Z</time>
      </trkpt>
      <trkpt lat="45.97915" lon="4.78737">
        <ele>237</ele>
        <time>2017-12-29T11:04:32Z</time>
      </trkpt>
      <trkpt lat="45.97907" lon="4.78732">
        <ele>237</ele>
        <time>2017-12-29T11:04:34Z</time>
      </trkpt>
      <trkpt lat="45.97903" lon="4.78729">
        <ele>237</ele>
        <time>2017-12-29T11:04:35Z</time>
      </trkpt>
      <trkpt lat="45.97898" lon="4.78725">
        <ele>236</ele>
        <time>2017-12-29T11:04:36Z</time>
      </trkpt>
      <trkpt lat="45.97893" lon="4.78721">
        <ele>236</ele>
        <time>2017-12-29T11:04:37Z</time>
      </trkpt>
      <trkpt lat="45.97888" lon="4.78717">
        <ele>236</ele>
        <time>2017-12-29T11:04:38Z</time>
      </trkpt>
      <trkpt lat="45.97883" lon="4.78712">
        <ele>236</ele>
        <time>2017-12-29T11:04:39Z</time>
      </trkpt>
      <trkpt lat="45.97879" lon="4.78708">
        <ele>236</ele>
        <time>2017-12-29T11:04:40Z</time>
      </trkpt>
      <trkpt lat="45.97875" lon="4.78704">
        <ele>236</ele>
        <time>2017-12-29T11:04:41Z</time>
      </trkpt>
      <trkpt lat="45.9787" lon="4.78703">
        <ele>236</ele>
        <time>2017-12-29T11:04:42Z</time>
      </trkpt>
      <trkpt lat="45.97866" lon="4.787">
        <ele>236</ele>
        <time>2017-12-29T11:04:43Z</time>
      </trkpt>
      <trkpt lat="45.97858" lon="4.78695">
        <ele>236</ele>
        <time>2017-12-29T11:04:45Z</time>
      </trkpt>
      <trkpt lat="45.97853" lon="4.78692">
        <ele>236</ele>
        <time>2017-12-29T11:04:46Z</time>
      </trkpt>
      <trkpt lat="45.97845" lon="4.78687">
        <ele>236</ele>
        <time>2017-12-29T11:04:48Z</time>
      </trkpt>
      <trkpt lat="45.9784" lon="4.78684">
        <ele>236</ele>
        <time>2017-12-29T11:04:49Z</time>
      </trkpt>
      <trkpt lat="45.97836" lon="4.78681">
        <ele>236</ele>
        <time>2017-12-29T11:04:50Z</time>
      </trkpt>
      <trkpt lat="45.97831" lon="4.78679">
        <ele>235</ele>
        <time>2017-12-29T11:04:51Z</time>
      </trkpt>
      <trkpt lat="45.97826" lon="4.78677">
        <ele>235</ele>
        <time>2017-12-29T11:04:52Z</time>
      </trkpt>
      <trkpt lat="45.9782" lon="4.78675">
        <ele>235</ele>
        <time>2017-12-29T11:04:53Z</time>
      </trkpt>
      <trkpt lat="45.97815" lon="4.78672">
        <ele>235</ele>
        <time>2017-12-29T11:04:54Z</time>
      </trkpt>
      <trkpt lat="45.9781" lon="4.7867">
        <ele>235</ele>
        <time>2017-12-29T11:04:55Z</time>
      </trkpt>
      <trkpt lat="45.97805" lon="4.78667">
        <ele>235</ele>
        <time>2017-12-29T11:04:56Z</time>
      </trkpt>
      <trkpt lat="45.97799" lon="4.78665">
        <ele>235</ele>
        <time>2017-12-29T11:04:57Z</time>
      </trkpt>
      <trkpt lat="45.97795" lon="4.78663">
        <ele>235</ele>
        <time>2017-12-29T11:04:58Z</time>
      </trkpt>
      <trkpt lat="45.9779" lon="4.78662">
        <ele>235</ele>
        <time>2017-12-29T11:04:59Z</time>
      </trkpt>
      <trkpt lat="45.97783" lon="4.78658">
        <ele>235</ele>
        <time>2017-12-29T11:05:01Z</time>
      </trkpt>
      <trkpt lat="45.97778" lon="4.78657">
        <ele>235</ele>
        <time>2017-12-29T11:05:02Z</time>
      </trkpt>
      <trkpt lat="45.97774" lon="4.78654">
        <ele>235</ele>
        <time>2017-12-29T11:05:03Z</time>
      </trkpt>
      <trkpt lat="45.97769" lon="4.78652">
        <ele>235</ele>
        <time>2017-12-29T11:05:04Z</time>
      </trkpt>
      <trkpt lat="45.9776" lon="4.7865">
        <ele>235</ele>
        <time>2017-12-29T11:05:06Z</time>
      </trkpt>
      <trkpt lat="45.97755" lon="4.78649">
        <ele>235</ele>
        <time>2017-12-29T11:05:07Z</time>
      </trkpt>
      <trkpt lat="45.97751" lon="4.78646">
        <ele>235</ele>
        <time>2017-12-29T11:05:08Z</time>
      </trkpt>
      <trkpt lat="45.97745" lon="4.78644">
        <ele>234</ele>
        <time>2017-12-29T11:05:09Z</time>
      </trkpt>
      <trkpt lat="45.9774" lon="4.78642">
        <ele>234</ele>
        <time>2017-12-29T11:05:10Z</time>
      </trkpt>
      <trkpt lat="45.97736" lon="4.78641">
        <ele>234</ele>
        <time>2017-12-29T11:05:11Z</time>
      </trkpt>
      <trkpt lat="45.97731" lon="4.78639">
        <ele>234</ele>
        <time>2017-12-29T11:05:12Z</time>
      </trkpt>
      <trkpt lat="45.97726" lon="4.78637">
        <ele>234</ele>
        <time>2017-12-29T11:05:13Z</time>
      </trkpt>
      <trkpt lat="45.97721" lon="4.78634">
        <ele>234</ele>
        <time>2017-12-29T11:05:14Z</time>
      </trkpt>
      <trkpt lat="45.97717" lon="4.78631">
        <ele>234</ele>
        <time>2017-12-29T11:05:15Z</time>
      </trkpt>
      <trkpt lat="45.97713" lon="4.78629">
        <ele>234</ele>
        <time>2017-12-29T11:05:16Z</time>
      </trkpt>
      <trkpt lat="45.97708" lon="4.78628">
        <ele>234</ele>
        <time>2017-12-29T11:05:17Z</time>
      </trkpt>
      <trkpt lat="45.97704" lon="4.78626">
        <ele>234</ele>
        <time>2017-12-29T11:05:18Z</time>
      </trkpt>
      <trkpt lat="45.97699" lon="4.78624">
        <ele>234</ele>
        <time>2017-12-29T11:05:19Z</time>
      </trkpt>
      <trkpt lat="45.97695" lon="4.78621">
        <ele>234</ele>
        <time>2017-12-29T11:05:20Z</time>
      </trkpt>
      <trkpt lat="45.97689" lon="4.78619">
        <ele>234</ele>
        <time>2017-12-29T11:05:21Z</time>
      </trkpt>
      <trkpt lat="45.97684" lon="4.78618">
        <ele>234</ele>
        <time>2017-12-29T11:05:22Z</time>
      </trkpt>
      <trkpt lat="45.9768" lon="4.78617">
        <ele>234</ele>
        <time>2017-12-29T11:05:23Z</time>
      </trkpt>
      <trkpt lat="45.97674" lon="4.78615">
        <ele>234</ele>
        <time>2017-12-29T11:05:24Z</time>
      </trkpt>
      <trkpt lat="45.97669" lon="4.78613">
        <ele>234</ele>
        <time>2017-12-29T11:05:25Z</time>
      </trkpt>
      <trkpt lat="45.97664" lon="4.78611">
        <ele>233</ele>
        <time>2017-12-29T11:05:26Z</time>
      </trkpt>
      <trkpt lat="45.9766" lon="4.78609">
        <ele>233</ele>
        <time>2017-12-29T11:05:27Z</time>
      </trkpt>
      <trkpt lat="45.97654" lon="4.78608">
        <ele>233</ele>
        <time>2017-12-29T11:05:28Z</time>
      </trkpt>
      <trkpt lat="45.9765" lon="4.78607">
        <ele>233</ele>
        <time>2017-12-29T11:05:29Z</time>
      </trkpt>
      <trkpt lat="45.97642" lon="4.78601">
        <ele>233</ele>
        <time>2017-12-29T11:05:31Z</time>
      </trkpt>
      <trkpt lat="45.97638" lon="4.78598">
        <ele>233</ele>
        <time>2017-12-29T11:05:32Z</time>
      </trkpt>
      <trkpt lat="45.97629" lon="4.78595">
        <ele>233</ele>
        <time>2017-12-29T11:05:34Z</time>
      </trkpt>
      <trkpt lat="45.97625" lon="4.78593">
        <ele>233</ele>
        <time>2017-12-29T11:05:35Z</time>
      </trkpt>
      <trkpt lat="45.9762" lon="4.78591">
        <ele>233</ele>
        <time>2017-12-29T11:05:36Z</time>
      </trkpt>
      <trkpt lat="45.97616" lon="4.78589">
        <ele>233</ele>
        <time>2017-12-29T11:05:37Z</time>
      </trkpt>
      <trkpt lat="45.97611" lon="4.78588">
        <ele>233</ele>
        <time>2017-12-29T11:05:38Z</time>
      </trkpt>
      <trkpt lat="45.97606" lon="4.78586">
        <ele>233</ele>
        <time>2017-12-29T11:05:39Z</time>
      </trkpt>
      <trkpt lat="45.97601" lon="4.78584">
        <ele>233</ele>
        <time>2017-12-29T11:05:40Z</time>
      </trkpt>
      <trkpt lat="45.97597" lon="4.78582">
        <ele>234</ele>
        <time>2017-12-29T11:05:41Z</time>
      </trkpt>
      <trkpt lat="45.97591" lon="4.7858">
        <ele>233</ele>
        <time>2017-12-29T11:05:42Z</time>
      </trkpt>
      <trkpt lat="45.97586" lon="4.78579">
        <ele>233</ele>
        <time>2017-12-29T11:05:43Z</time>
      </trkpt>
      <trkpt lat="45.9758" lon="4.78576">
        <ele>233</ele>
        <time>2017-12-29T11:05:44Z</time>
      </trkpt>
      <trkpt lat="45.97576" lon="4.78572">
        <ele>233</ele>
        <time>2017-12-29T11:05:45Z</time>
      </trkpt>
      <trkpt lat="45.97571" lon="4.7857">
        <ele>233</ele>
        <time>2017-12-29T11:05:46Z</time>
      </trkpt>
      <trkpt lat="45.97567" lon="4.78569">
        <ele>233</ele>
        <time>2017-12-29T11:05:47Z</time>
      </trkpt>
      <trkpt lat="45.97562" lon="4.78568">
        <ele>234</ele>
        <time>2017-12-29T11:05:48Z</time>
      </trkpt>
      <trkpt lat="45.97557" lon="4.78565">
        <ele>234</ele>
        <time>2017-12-29T11:05:49Z</time>
      </trkpt>
      <trkpt lat="45.97549" lon="4.78561">
        <ele>234</ele>
        <time>2017-12-29T11:05:51Z</time>
      </trkpt>
      <trkpt lat="45.97546" lon="4.78559">
        <ele>234</ele>
        <time>2017-12-29T11:05:52Z</time>
      </trkpt>
      <trkpt lat="45.97541" lon="4.78557">
        <ele>234</ele>
        <time>2017-12-29T11:05:53Z</time>
      </trkpt>
      <trkpt lat="45.97535" lon="4.78555">
        <ele>234</ele>
        <time>2017-12-29T11:05:54Z</time>
      </trkpt>
      <trkpt lat="45.97531" lon="4.78554">
        <ele>234</ele>
        <time>2017-12-29T11:05:55Z</time>
      </trkpt>
      <trkpt lat="45.97526" lon="4.78552">
        <ele>234</ele>
        <time>2017-12-29T11:05:56Z</time>
      </trkpt>
      <trkpt lat="45.97522" lon="4.78549">
        <ele>234</ele>
        <time>2017-12-29T11:05:57Z</time>
      </trkpt>
      <trkpt lat="45.97517" lon="4.78546">
        <ele>234</ele>
        <time>2017-12-29T11:05:58Z</time>
      </trkpt>
      <trkpt lat="45.97509" lon="4.7854">
        <ele>234</ele>
        <time>2017-12-29T11:06:00Z</time>
      </trkpt>
      <trkpt lat="45.97505" lon="4.78537">
        <ele>234</ele>
        <time>2017-12-29T11:06:01Z</time>
      </trkpt>
      <trkpt lat="45.97498" lon="4.78531">
        <ele>233</ele>
        <time>2017-12-29T11:06:03Z</time>
      </trkpt>
      <trkpt lat="45.97494" lon="4.78527">
        <ele>233</ele>
        <time>2017-12-29T11:06:04Z</time>
      </trkpt>
      <trkpt lat="45.9749" lon="4.78524">
        <ele>234</ele>
        <time>2017-12-29T11:06:05Z</time>
      </trkpt>
      <trkpt lat="45.97485" lon="4.78521">
        <ele>234</ele>
        <time>2017-12-29T11:06:06Z</time>
      </trkpt>
      <trkpt lat="45.97477" lon="4.78515">
        <ele>234</ele>
        <time>2017-12-29T11:06:08Z</time>
      </trkpt>
      <trkpt lat="45.97473" lon="4.78512">
        <ele>234</ele>
        <time>2017-12-29T11:06:09Z</time>
      </trkpt>
      <trkpt lat="45.97469" lon="4.78507">
        <ele>234</ele>
        <time>2017-12-29T11:06:10Z</time>
      </trkpt>
      <trkpt lat="45.97464" lon="4.78505">
        <ele>234</ele>
        <time>2017-12-29T11:06:11Z</time>
      </trkpt>
      <trkpt lat="45.97461" lon="4.785">
        <ele>234</ele>
        <time>2017-12-29T11:06:12Z</time>
      </trkpt>
      <trkpt lat="45.97456" lon="4.78496">
        <ele>234</ele>
        <time>2017-12-29T11:06:13Z</time>
      </trkpt>
      <trkpt lat="45.97448" lon="4.78491">
        <ele>234</ele>
        <time>2017-12-29T11:06:15Z</time>
      </trkpt>
      <trkpt lat="45.97444" lon="4.78487">
        <ele>234</ele>
        <time>2017-12-29T11:06:16Z</time>
      </trkpt>
      <trkpt lat="45.9744" lon="4.78479">
        <ele>234</ele>
        <time>2017-12-29T11:06:18Z</time>
      </trkpt>
      <trkpt lat="45.97436" lon="4.78477">
        <ele>234</ele>
        <time>2017-12-29T11:06:19Z</time>
      </trkpt>
      <trkpt lat="45.97429" lon="4.7847">
        <ele>234</ele>
        <time>2017-12-29T11:06:21Z</time>
      </trkpt>
      <trkpt lat="45.97425" lon="4.78467">
        <ele>234</ele>
        <time>2017-12-29T11:06:22Z</time>
      </trkpt>
      <trkpt lat="45.97422" lon="4.78464">
        <ele>234</ele>
        <time>2017-12-29T11:06:23Z</time>
      </trkpt>
      <trkpt lat="45.97417" lon="4.78459">
        <ele>234</ele>
        <time>2017-12-29T11:06:24Z</time>
      </trkpt>
      <trkpt lat="45.97413" lon="4.78455">
        <ele>233</ele>
        <time>2017-12-29T11:06:25Z</time>
      </trkpt>
      <trkpt lat="45.97408" lon="4.78452">
        <ele>233</ele>
        <time>2017-12-29T11:06:26Z</time>
      </trkpt>
      <trkpt lat="45.97405" lon="4.78448">
        <ele>233</ele>
        <time>2017-12-29T11:06:27Z</time>
      </trkpt>
      <trkpt lat="45.974" lon="4.78444">
        <ele>233</ele>
        <time>2017-12-29T11:06:28Z</time>
      </trkpt>
      <trkpt lat="45.97396" lon="4.7844">
        <ele>233</ele>
        <time>2017-12-29T11:06:29Z</time>
      </trkpt>
      <trkpt lat="45.97391" lon="4.78437">
        <ele>233</ele>
        <time>2017-12-29T11:06:30Z</time>
      </trkpt>
      <trkpt lat="45.97387" lon="4.78432">
        <ele>233</ele>
        <time>2017-12-29T11:06:31Z</time>
      </trkpt>
      <trkpt lat="45.97383" lon="4.78427">
        <ele>233</ele>
        <time>2017-12-29T11:06:32Z</time>
      </trkpt>
      <trkpt lat="45.97379" lon="4.78424">
        <ele>233</ele>
        <time>2017-12-29T11:06:33Z</time>
      </trkpt>
      <trkpt lat="45.97375" lon="4.78419">
        <ele>233</ele>
        <time>2017-12-29T11:06:34Z</time>
      </trkpt>
      <trkpt lat="45.97367" lon="4.78412">
        <ele>233</ele>
        <time>2017-12-29T11:06:36Z</time>
      </trkpt>
      <trkpt lat="45.97364" lon="4.78407">
        <ele>233</ele>
        <time>2017-12-29T11:06:37Z</time>
      </trkpt>
      <trkpt lat="45.97357" lon="4.784">
        <ele>233</ele>
        <time>2017-12-29T11:06:39Z</time>
      </trkpt>
      <trkpt lat="45.97353" lon="4.78396">
        <ele>233</ele>
        <time>2017-12-29T11:06:40Z</time>
      </trkpt>
      <trkpt lat="45.97349" lon="4.78391">
        <ele>233</ele>
        <time>2017-12-29T11:06:41Z</time>
      </trkpt>
      <trkpt lat="45.97345" lon="4.78387">
        <ele>233</ele>
        <time>2017-12-29T11:06:42Z</time>
      </trkpt>
      <trkpt lat="45.97338" lon="4.78379">
        <ele>233</ele>
        <time>2017-12-29T11:06:44Z</time>
      </trkpt>
      <trkpt lat="45.97335" lon="4.78375">
        <ele>233</ele>
        <time>2017-12-29T11:06:45Z</time>
      </trkpt>
      <trkpt lat="45.97331" lon="4.78372">
        <ele>232</ele>
        <time>2017-12-29T11:06:46Z</time>
      </trkpt>
      <trkpt lat="45.97327" lon="4.78367">
        <ele>232</ele>
        <time>2017-12-29T11:06:47Z</time>
      </trkpt>
      <trkpt lat="45.97323" lon="4.78364">
        <ele>232</ele>
        <time>2017-12-29T11:06:48Z</time>
      </trkpt>
      <trkpt lat="45.9732" lon="4.78356">
        <ele>232</ele>
        <time>2017-12-29T11:06:49Z</time>
      </trkpt>
      <trkpt lat="45.97316" lon="4.78351">
        <ele>232</ele>
        <time>2017-12-29T11:06:50Z</time>
      </trkpt>
      <trkpt lat="45.97312" lon="4.78346">
        <ele>232</ele>
        <time>2017-12-29T11:06:51Z</time>
      </trkpt>
      <trkpt lat="45.97307" lon="4.78343">
        <ele>232</ele>
        <time>2017-12-29T11:06:52Z</time>
      </trkpt>
      <trkpt lat="45.97303" lon="4.78338">
        <ele>232</ele>
        <time>2017-12-29T11:06:53Z</time>
      </trkpt>
      <trkpt lat="45.97299" lon="4.78334">
        <ele>232</ele>
        <time>2017-12-29T11:06:54Z</time>
      </trkpt>
      <trkpt lat="45.97296" lon="4.78328">
        <ele>232</ele>
        <time>2017-12-29T11:06:55Z</time>
      </trkpt>
      <trkpt lat="45.97292" lon="4.78324">
        <ele>232</ele>
        <time>2017-12-29T11:06:56Z</time>
      </trkpt>
      <trkpt lat="45.97288" lon="4.78319">
        <ele>232</ele>
        <time>2017-12-29T11:06:57Z</time>
      </trkpt>
      <trkpt lat="45.97284" lon="4.78313">
        <ele>232</ele>
        <time>2017-12-29T11:06:58Z</time>
      </trkpt>
      <trkpt lat="45.9728" lon="4.78309">
        <ele>232</ele>
        <time>2017-12-29T11:06:59Z</time>
      </trkpt>
      <trkpt lat="45.97274" lon="4.783">
        <ele>232</ele>
        <time>2017-12-29T11:07:01Z</time>
      </trkpt>
      <trkpt lat="45.9727" lon="4.78295">
        <ele>232</ele>
        <time>2017-12-29T11:07:02Z</time>
      </trkpt>
      <trkpt lat="45.97267" lon="4.7829">
        <ele>232</ele>
        <time>2017-12-29T11:07:03Z</time>
      </trkpt>
      <trkpt lat="45.97263" lon="4.78286">
        <ele>232</ele>
        <time>2017-12-29T11:07:04Z</time>
      </trkpt>
      <trkpt lat="45.97259" lon="4.78281">
        <ele>232</ele>
        <time>2017-12-29T11:07:05Z</time>
      </trkpt>
      <trkpt lat="45.97255" lon="4.78276">
        <ele>232</ele>
        <time>2017-12-29T11:07:06Z</time>
      </trkpt>
      <trkpt lat="45.97251" lon="4.7827">
        <ele>231</ele>
        <time>2017-12-29T11:07:07Z</time>
      </trkpt>
      <trkpt lat="45.97247" lon="4.78264">
        <ele>231</ele>
        <time>2017-12-29T11:07:08Z</time>
      </trkpt>
      <trkpt lat="45.97244" lon="4.78258">
        <ele>231</ele>
        <time>2017-12-29T11:07:09Z</time>
      </trkpt>
      <trkpt lat="45.9724" lon="4.78253">
        <ele>231</ele>
        <time>2017-12-29T11:07:10Z</time>
      </trkpt>
      <trkpt lat="45.97236" lon="4.78248">
        <ele>231</ele>
        <time>2017-12-29T11:07:11Z</time>
      </trkpt>
      <trkpt lat="45.97233" lon="4.78241">
        <ele>231</ele>
        <time>2017-12-29T11:07:12Z</time>
      </trkpt>
      <trkpt lat="45.97229" lon="4.78235">
        <ele>231</ele>
        <time>2017-12-29T11:07:13Z</time>
      </trkpt>
      <trkpt lat="45.97225" lon="4.78229">
        <ele>231</ele>
        <time>2017-12-29T11:07:14Z</time>
      </trkpt>
      <trkpt lat="45.97221" lon="4.78223">
        <ele>231</ele>
        <time>2017-12-29T11:07:15Z</time>
      </trkpt>
      <trkpt lat="45.97219" lon="4.78218">
        <ele>231</ele>
        <time>2017-12-29T11:07:16Z</time>
      </trkpt>
      <trkpt lat="45.97213" lon="4.78208">
        <ele>231</ele>
        <time>2017-12-29T11:07:18Z</time>
      </trkpt>
      <trkpt lat="45.97211" lon="4.78203">
        <ele>231</ele>
        <time>2017-12-29T11:07:19Z</time>
      </trkpt>
      <trkpt lat="45.97208" lon="4.78197">
        <ele>231</ele>
        <time>2017-12-29T11:07:20Z</time>
      </trkpt>
      <trkpt lat="45.97205" lon="4.78192">
        <ele>231</ele>
        <time>2017-12-29T11:07:21Z</time>
      </trkpt>
      <trkpt lat="45.97202" lon="4.78187">
        <ele>231</ele>
        <time>2017-12-29T11:07:22Z</time>
      </trkpt>
      <trkpt lat="45.97199" lon="4.78182">
        <ele>231</ele>
        <time>2017-12-29T11:07:23Z</time>
      </trkpt>
      <trkpt lat="45.97196" lon="4.78177">
        <ele>231</ele>
        <time>2017-12-29T11:07:24Z</time>
      </trkpt>
      <trkpt lat="45.97193" lon="4.78172">
        <ele>231</ele>
        <time>2017-12-29T11:07:25Z</time>
      </trkpt>
      <trkpt lat="45.97189" lon="4.78166">
        <ele>231</ele>
        <time>2017-12-29T11:07:26Z</time>
      </trkpt>
      <trkpt lat="45.97185" lon="4.78159">
        <ele>231</ele>
        <time>2017-12-29T11:07:27Z</time>
      </trkpt>
      <trkpt lat="45.97182" lon="4.78153">
        <ele>231</ele>
        <time>2017-12-29T11:07:28Z</time>
      </trkpt>
      <trkpt lat="45.97178" lon="4.78146">
        <ele>231</ele>
        <time>2017-12-29T11:07:29Z</time>
      </trkpt>
      <trkpt lat="45.97175" lon="4.78141">
        <ele>231</ele>
        <time>2017-12-29T11:07:30Z</time>
      </trkpt>
      <trkpt lat="45.97172" lon="4.78136">
        <ele>231</ele>
        <time>2017-12-29T11:07:31Z</time>
      </trkpt>
      <trkpt lat="45.9717" lon="4.7813">
        <ele>231</ele>
        <time>2017-12-29T11:07:32Z</time>
      </trkpt>
      <trkpt lat="45.97167" lon="4.78125">
        <ele>231</ele>
        <time>2017-12-29T11:07:33Z</time>
      </trkpt>
      <trkpt lat="45.97164" lon="4.78119">
        <ele>230</ele>
        <time>2017-12-29T11:07:34Z</time>
      </trkpt>
      <trkpt lat="45.97161" lon="4.78114">
        <ele>230</ele>
        <time>2017-12-29T11:07:35Z</time>
      </trkpt>
      <trkpt lat="45.97158" lon="4.78109">
        <ele>230</ele>
        <time>2017-12-29T11:07:36Z</time>
      </trkpt>
      <trkpt lat="45.97156" lon="4.78102">
        <ele>230</ele>
        <time>2017-12-29T11:07:37Z</time>
      </trkpt>
      <trkpt lat="45.97152" lon="4.78097">
        <ele>230</ele>
        <time>2017-12-29T11:07:38Z</time>
      </trkpt>
      <trkpt lat="45.9715" lon="4.78089">
        <ele>230</ele>
        <time>2017-12-29T11:07:39Z</time>
      </trkpt>
      <trkpt lat="45.97146" lon="4.78083">
        <ele>230</ele>
        <time>2017-12-29T11:07:40Z</time>
      </trkpt>
      <trkpt lat="45.97143" lon="4.78078">
        <ele>230</ele>
        <time>2017-12-29T11:07:41Z</time>
      </trkpt>
      <trkpt lat="45.97139" lon="4.78073">
        <ele>230</ele>
        <time>2017-12-29T11:07:42Z</time>
      </trkpt>
      <trkpt lat="45.97135" lon="4.78067">
        <ele>230</ele>
        <time>2017-12-29T11:07:43Z</time>
      </trkpt>
      <trkpt lat="45.97131" lon="4.78062">
        <ele>230</ele>
        <time>2017-12-29T11:07:44Z</time>
      </trkpt>
      <trkpt lat="45.97127" lon="4.78057">
        <ele>230</ele>
        <time>2017-12-29T11:07:45Z</time>
      </trkpt>
      <trkpt lat="45.97124" lon="4.78052">
        <ele>229</ele>
        <time>2017-12-29T11:07:46Z</time>
      </trkpt>
      <trkpt lat="45.9712" lon="4.78048">
        <ele>229</ele>
        <time>2017-12-29T11:07:47Z</time>
      </trkpt>
      <trkpt lat="45.97116" lon="4.78045">
        <ele>229</ele>
        <time>2017-12-29T11:07:48Z</time>
      </trkpt>
      <trkpt lat="45.97113" lon="4.78038">
        <ele>229</ele>
        <time>2017-12-29T11:07:49Z</time>
      </trkpt>
      <trkpt lat="45.97109" lon="4.78034">
        <ele>229</ele>
        <time>2017-12-29T11:07:50Z</time>
      </trkpt>
      <trkpt lat="45.97105" lon="4.7803">
        <ele>229</ele>
        <time>2017-12-29T11:07:51Z</time>
      </trkpt>
      <trkpt lat="45.97101" lon="4.78027">
        <ele>229</ele>
        <time>2017-12-29T11:07:52Z</time>
      </trkpt>
      <trkpt lat="45.97097" lon="4.78021">
        <ele>229</ele>
        <time>2017-12-29T11:07:53Z</time>
      </trkpt>
      <trkpt lat="45.97093" lon="4.78018">
        <ele>229</ele>
        <time>2017-12-29T11:07:54Z</time>
      </trkpt>
      <trkpt lat="45.97089" lon="4.78014">
        <ele>229</ele>
        <time>2017-12-29T11:07:55Z</time>
      </trkpt>
      <trkpt lat="45.97086" lon="4.78009">
        <ele>229</ele>
        <time>2017-12-29T11:07:56Z</time>
      </trkpt>
      <trkpt lat="45.97082" lon="4.78006">
        <ele>229</ele>
        <time>2017-12-29T11:07:57Z</time>
      </trkpt>
      <trkpt lat="45.97077" lon="4.78002">
        <ele>229</ele>
        <time>2017-12-29T11:07:58Z</time>
      </trkpt>
      <trkpt lat="45.97073" lon="4.77998">
        <ele>229</ele>
        <time>2017-12-29T11:07:59Z</time>
      </trkpt>
      <trkpt lat="45.97069" lon="4.77993">
        <ele>229</ele>
        <time>2017-12-29T11:08:00Z</time>
      </trkpt>
      <trkpt lat="45.97065" lon="4.77991">
        <ele>229</ele>
        <time>2017-12-29T11:08:01Z</time>
      </trkpt>
      <trkpt lat="45.97058" lon="4.77983">
        <ele>229</ele>
        <time>2017-12-29T11:08:03Z</time>
      </trkpt>
      <trkpt lat="45.97053" lon="4.77979">
        <ele>229</ele>
        <time>2017-12-29T11:08:04Z</time>
      </trkpt>
      <trkpt lat="45.97047" lon="4.77971">
        <ele>229</ele>
        <time>2017-12-29T11:08:06Z</time>
      </trkpt>
      <trkpt lat="45.97043" lon="4.77967">
        <ele>229</ele>
        <time>2017-12-29T11:08:07Z</time>
      </trkpt>
      <trkpt lat="45.97039" lon="4.77963">
        <ele>229</ele>
        <time>2017-12-29T11:08:08Z</time>
      </trkpt>
      <trkpt lat="45.97035" lon="4.77958">
        <ele>228</ele>
        <time>2017-12-29T11:08:09Z</time>
      </trkpt>
      <trkpt lat="45.97031" lon="4.77954">
        <ele>228</ele>
        <time>2017-12-29T11:08:10Z</time>
      </trkpt>
      <trkpt lat="45.97027" lon="4.77949">
        <ele>228</ele>
        <time>2017-12-29T11:08:11Z</time>
      </trkpt>
      <trkpt lat="45.97023" lon="4.77945">
        <ele>228</ele>
        <time>2017-12-29T11:08:12Z</time>
      </trkpt>
      <trkpt lat="45.97019" lon="4.77941">
        <ele>228</ele>
        <time>2017-12-29T11:08:13Z</time>
      </trkpt>
      <trkpt lat="45.97015" lon="4.77936">
        <ele>228</ele>
        <time>2017-12-29T11:08:14Z</time>
      </trkpt>
      <trkpt lat="45.97012" lon="4.77932">
        <ele>228</ele>
        <time>2017-12-29T11:08:15Z</time>
      </trkpt>
      <trkpt lat="45.97008" lon="4.77927">
        <ele>228</ele>
        <time>2017-12-29T11:08:16Z</time>
      </trkpt>
      <trkpt lat="45.97005" lon="4.77923">
        <ele>227</ele>
        <time>2017-12-29T11:08:17Z</time>
      </trkpt>
      <trkpt lat="45.97001" lon="4.77919">
        <ele>227</ele>
        <time>2017-12-29T11:08:18Z</time>
      </trkpt>
      <trkpt lat="45.96997" lon="4.77914">
        <ele>227</ele>
        <time>2017-12-29T11:08:19Z</time>
      </trkpt>
      <trkpt lat="45.9699" lon="4.77907">
        <ele>227</ele>
        <time>2017-12-29T11:08:21Z</time>
      </trkpt>
      <trkpt lat="45.96988" lon="4.77902">
        <ele>227</ele>
        <time>2017-12-29T11:08:22Z</time>
      </trkpt>
      <trkpt lat="45.96985" lon="4.77898">
        <ele>227</ele>
        <time>2017-12-29T11:08:23Z</time>
      </trkpt>
      <trkpt lat="45.96981" lon="4.77892">
        <ele>228</ele>
        <time>2017-12-29T11:08:24Z</time>
      </trkpt>
      <trkpt lat="45.96977" lon="4.77888">
        <ele>228</ele>
        <time>2017-12-29T11:08:25Z</time>
      </trkpt>
      <trkpt lat="45.96973" lon="4.77885">
        <ele>228</ele>
        <time>2017-12-29T11:08:26Z</time>
      </trkpt>
      <trkpt lat="45.96969" lon="4.77881">
        <ele>228</ele>
        <time>2017-12-29T11:08:27Z</time>
      </trkpt>
      <trkpt lat="45.96965" lon="4.77874">
        <ele>228</ele>
        <time>2017-12-29T11:08:28Z</time>
      </trkpt>
      <trkpt lat="45.96962" lon="4.7787">
        <ele>228</ele>
        <time>2017-12-29T11:08:29Z</time>
      </trkpt>
      <trkpt lat="45.96957" lon="4.77866">
        <ele>228</ele>
        <time>2017-12-29T11:08:30Z</time>
      </trkpt>
      <trkpt lat="45.96953" lon="4.77861">
        <ele>228</ele>
        <time>2017-12-29T11:08:31Z</time>
      </trkpt>
      <trkpt lat="45.9695" lon="4.77857">
        <ele>228</ele>
        <time>2017-12-29T11:08:32Z</time>
      </trkpt>
      <trkpt lat="45.96945" lon="4.77851">
        <ele>228</ele>
        <time>2017-12-29T11:08:33Z</time>
      </trkpt>
      <trkpt lat="45.96941" lon="4.77846">
        <ele>228</ele>
        <time>2017-12-29T11:08:34Z</time>
      </trkpt>
      <trkpt lat="45.96937" lon="4.77842">
        <ele>228</ele>
        <time>2017-12-29T11:08:35Z</time>
      </trkpt>
      <trkpt lat="45.96933" lon="4.77838">
        <ele>228</ele>
        <time>2017-12-29T11:08:36Z</time>
      </trkpt>
      <trkpt lat="45.9693" lon="4.77834">
        <ele>228</ele>
        <time>2017-12-29T11:08:37Z</time>
      </trkpt>
      <trkpt lat="45.96925" lon="4.7783">
        <ele>228</ele>
        <time>2017-12-29T11:08:38Z</time>
      </trkpt>
      <trkpt lat="45.96922" lon="4.77826">
        <ele>228</ele>
        <time>2017-12-29T11:08:39Z</time>
      </trkpt>
      <trkpt lat="45.96917" lon="4.77823">
        <ele>228</ele>
        <time>2017-12-29T11:08:40Z</time>
      </trkpt>
      <trkpt lat="45.96914" lon="4.77817">
        <ele>228</ele>
        <time>2017-12-29T11:08:41Z</time>
      </trkpt>
      <trkpt lat="45.96911" lon="4.77813">
        <ele>228</ele>
        <time>2017-12-29T11:08:42Z</time>
      </trkpt>
      <trkpt lat="45.96907" lon="4.7781">
        <ele>228</ele>
        <time>2017-12-29T11:08:43Z</time>
      </trkpt>
      <trkpt lat="45.96903" lon="4.77806">
        <ele>228</ele>
        <time>2017-12-29T11:08:44Z</time>
      </trkpt>
      <trkpt lat="45.96899" lon="4.77801">
        <ele>228</ele>
        <time>2017-12-29T11:08:45Z</time>
      </trkpt>
      <trkpt lat="45.96894" lon="4.77797">
        <ele>228</ele>
        <time>2017-12-29T11:08:46Z</time>
      </trkpt>
      <trkpt lat="45.9689" lon="4.77792">
        <ele>228</ele>
        <time>2017-12-29T11:08:47Z</time>
      </trkpt>
      <trkpt lat="45.96886" lon="4.77788">
        <ele>228</ele>
        <time>2017-12-29T11:08:48Z</time>
      </trkpt>
      <trkpt lat="45.96881" lon="4.77785">
        <ele>228</ele>
        <time>2017-12-29T11:08:49Z</time>
      </trkpt>
      <trkpt lat="45.96877" lon="4.77781">
        <ele>228</ele>
        <time>2017-12-29T11:08:50Z</time>
      </trkpt>
      <trkpt lat="45.96873" lon="4.77777">
        <ele>228</ele>
        <time>2017-12-29T11:08:51Z</time>
      </trkpt>
      <trkpt lat="45.96869" lon="4.77773">
        <ele>228</ele>
        <time>2017-12-29T11:08:52Z</time>
      </trkpt>
      <trkpt lat="45.96865" lon="4.77769">
        <ele>228</ele>
        <time>2017-12-29T11:08:53Z</time>
      </trkpt>
      <trkpt lat="45.96862" lon="4.77763">
        <ele>228</ele>
        <time>2017-12-29T11:08:54Z</time>
      </trkpt>
      <trkpt lat="45.96857" lon="4.7776">
        <ele>228</ele>
        <time>2017-12-29T11:08:55Z</time>
      </trkpt>
      <trkpt lat="45.96852" lon="4.77756">
        <ele>228</ele>
        <time>2017-12-29T11:08:56Z</time>
      </trkpt>
      <trkpt lat="45.96848" lon="4.77752">
        <ele>228</ele>
        <time>2017-12-29T11:08:57Z</time>
      </trkpt>
      <trkpt lat="45.96844" lon="4.77745">
        <ele>228</ele>
        <time>2017-12-29T11:08:58Z</time>
      </trkpt>
      <trkpt lat="45.9684" lon="4.77741">
        <ele>228</ele>
        <time>2017-12-29T11:08:59Z</time>
      </trkpt>
      <trkpt lat="45.96836" lon="4.77736">
        <ele>228</ele>
        <time>2017-12-29T11:09:00Z</time>
      </trkpt>
      <trkpt lat="45.96831" lon="4.77732">
        <ele>228</ele>
        <time>2017-12-29T11:09:01Z</time>
      </trkpt>
      <trkpt lat="45.96827" lon="4.77728">
        <ele>228</ele>
        <time>2017-12-29T11:09:02Z</time>
      </trkpt>
      <trkpt lat="45.96822" lon="4.77725">
        <ele>228</ele>
        <time>2017-12-29T11:09:03Z</time>
      </trkpt>
      <trkpt lat="45.96817" lon="4.77719">
        <ele>228</ele>
        <time>2017-12-29T11:09:04Z</time>
      </trkpt>
      <trkpt lat="45.96813" lon="4.77715">
        <ele>228</ele>
        <time>2017-12-29T11:09:05Z</time>
      </trkpt>
      <trkpt lat="45.96809" lon="4.77711">
        <ele>228</ele>
        <time>2017-12-29T11:09:06Z</time>
      </trkpt>
      <trkpt lat="45.96803" lon="4.77703">
        <ele>228</ele>
        <time>2017-12-29T11:09:08Z</time>
      </trkpt>
      <trkpt lat="45.96799" lon="4.77699">
        <ele>228</ele>
        <time>2017-12-29T11:09:09Z</time>
      </trkpt>
      <trkpt lat="45.96795" lon="4.77694">
        <ele>228</ele>
        <time>2017-12-29T11:09:10Z</time>
      </trkpt>
      <trkpt lat="45.9679" lon="4.77689">
        <ele>227</ele>
        <time>2017-12-29T11:09:11Z</time>
      </trkpt>
      <trkpt lat="45.96787" lon="4.77685">
        <ele>227</ele>
        <time>2017-12-29T11:09:12Z</time>
      </trkpt>
      <trkpt lat="45.96781" lon="4.77679">
        <ele>227</ele>
        <time>2017-12-29T11:09:13Z</time>
      </trkpt>
      <trkpt lat="45.96777" lon="4.77675">
        <ele>227</ele>
        <time>2017-12-29T11:09:14Z</time>
      </trkpt>
      <trkpt lat="45.96773" lon="4.7767">
        <ele>227</ele>
        <time>2017-12-29T11:09:15Z</time>
      </trkpt>
      <trkpt lat="45.96769" lon="4.77666">
        <ele>227</ele>
        <time>2017-12-29T11:09:16Z</time>
      </trkpt>
      <trkpt lat="45.96766" lon="4.7766">
        <ele>227</ele>
        <time>2017-12-29T11:09:17Z</time>
      </trkpt>
      <trkpt lat="45.96762" lon="4.77655">
        <ele>227</ele>
        <time>2017-12-29T11:09:18Z</time>
      </trkpt>
      <trkpt lat="45.96758" lon="4.77651">
        <ele>227</ele>
        <time>2017-12-29T11:09:19Z</time>
      </trkpt>
      <trkpt lat="45.96754" lon="4.77647">
        <ele>227</ele>
        <time>2017-12-29T11:09:20Z</time>
      </trkpt>
      <trkpt lat="45.9675" lon="4.77643">
        <ele>228</ele>
        <time>2017-12-29T11:09:21Z</time>
      </trkpt>
      <trkpt lat="45.96747" lon="4.77638">
        <ele>227</ele>
        <time>2017-12-29T11:09:22Z</time>
      </trkpt>
      <trkpt lat="45.96744" lon="4.77632">
        <ele>227</ele>
        <time>2017-12-29T11:09:23Z</time>
      </trkpt>
      <trkpt lat="45.9674" lon="4.77627">
        <ele>226</ele>
        <time>2017-12-29T11:09:24Z</time>
      </trkpt>
      <trkpt lat="45.96736" lon="4.77623">
        <ele>226</ele>
        <time>2017-12-29T11:09:25Z</time>
      </trkpt>
      <trkpt lat="45.96731" lon="4.77618">
        <ele>226</ele>
        <time>2017-12-29T11:09:26Z</time>
      </trkpt>
      <trkpt lat="45.96728" lon="4.77612">
        <ele>226</ele>
        <time>2017-12-29T11:09:27Z</time>
      </trkpt>
      <trkpt lat="45.96723" lon="4.77607">
        <ele>226</ele>
        <time>2017-12-29T11:09:28Z</time>
      </trkpt>
      <trkpt lat="45.96719" lon="4.77602">
        <ele>226</ele>
        <time>2017-12-29T11:09:29Z</time>
      </trkpt>
      <trkpt lat="45.96715" lon="4.77596">
        <ele>226</ele>
        <time>2017-12-29T11:09:30Z</time>
      </trkpt>
      <trkpt lat="45.96711" lon="4.77591">
        <ele>226</ele>
        <time>2017-12-29T11:09:31Z</time>
      </trkpt>
      <trkpt lat="45.96707" lon="4.77586">
        <ele>226</ele>
        <time>2017-12-29T11:09:32Z</time>
      </trkpt>
      <trkpt lat="45.96703" lon="4.77582">
        <ele>226</ele>
        <time>2017-12-29T11:09:33Z</time>
      </trkpt>
      <trkpt lat="45.96697" lon="4.77574">
        <ele>225</ele>
        <time>2017-12-29T11:09:35Z</time>
      </trkpt>
      <trkpt lat="45.96693" lon="4.77569">
        <ele>225</ele>
        <time>2017-12-29T11:09:36Z</time>
      </trkpt>
      <trkpt lat="45.96686" lon="4.77563">
        <ele>225</ele>
        <time>2017-12-29T11:09:38Z</time>
      </trkpt>
      <trkpt lat="45.96681" lon="4.7756">
        <ele>225</ele>
        <time>2017-12-29T11:09:39Z</time>
      </trkpt>
      <trkpt lat="45.96676" lon="4.77556">
        <ele>225</ele>
        <time>2017-12-29T11:09:40Z</time>
      </trkpt>
      <trkpt lat="45.96671" lon="4.77552">
        <ele>225</ele>
        <time>2017-12-29T11:09:41Z</time>
      </trkpt>
      <trkpt lat="45.96666" lon="4.77548">
        <ele>224</ele>
        <time>2017-12-29T11:09:42Z</time>
      </trkpt>
      <trkpt lat="45.96661" lon="4.77545">
        <ele>224</ele>
        <time>2017-12-29T11:09:43Z</time>
      </trkpt>
      <trkpt lat="45.96656" lon="4.77541">
        <ele>224</ele>
        <time>2017-12-29T11:09:44Z</time>
      </trkpt>
      <trkpt lat="45.96651" lon="4.77538">
        <ele>224</ele>
        <time>2017-12-29T11:09:45Z</time>
      </trkpt>
      <trkpt lat="45.96645" lon="4.77534">
        <ele>224</ele>
        <time>2017-12-29T11:09:46Z</time>
      </trkpt>
      <trkpt lat="45.9664" lon="4.77533">
        <ele>224</ele>
        <time>2017-12-29T11:09:47Z</time>
      </trkpt>
      <trkpt lat="45.96635" lon="4.77531">
        <ele>224</ele>
        <time>2017-12-29T11:09:48Z</time>
      </trkpt>
      <trkpt lat="45.9663" lon="4.77529">
        <ele>224</ele>
        <time>2017-12-29T11:09:49Z</time>
      </trkpt>
      <trkpt lat="45.96626" lon="4.77527">
        <ele>224</ele>
        <time>2017-12-29T11:09:50Z</time>
      </trkpt>
      <trkpt lat="45.96621" lon="4.77523">
        <ele>224</ele>
        <time>2017-12-29T11:09:51Z</time>
      </trkpt>
      <trkpt lat="45.96613" lon="4.77518">
        <ele>224</ele>
        <time>2017-12-29T11:09:53Z</time>
      </trkpt>
      <trkpt lat="45.96609" lon="4.77515">
        <ele>224</ele>
        <time>2017-12-29T11:09:54Z</time>
      </trkpt>
      <trkpt lat="45.96605" lon="4.77512">
        <ele>224</ele>
        <time>2017-12-29T11:09:55Z</time>
      </trkpt>
      <trkpt lat="45.96601" lon="4.77508">
        <ele>224</ele>
        <time>2017-12-29T11:09:56Z</time>
      </trkpt>
      <trkpt lat="45.96597" lon="4.77505">
        <ele>224</ele>
        <time>2017-12-29T11:09:57Z</time>
      </trkpt>
      <trkpt lat="45.96593" lon="4.77502">
        <ele>224</ele>
        <time>2017-12-29T11:09:58Z</time>
      </trkpt>
      <trkpt lat="45.96589" lon="4.77498">
        <ele>224</ele>
        <time>2017-12-29T11:09:59Z</time>
      </trkpt>
      <trkpt lat="45.96584" lon="4.77495">
        <ele>224</ele>
        <time>2017-12-29T11:10:00Z</time>
      </trkpt>
      <trkpt lat="45.96578" lon="4.77491">
        <ele>224</ele>
        <time>2017-12-29T11:10:01Z</time>
      </trkpt>
      <trkpt lat="45.96573" lon="4.77487">
        <ele>224</ele>
        <time>2017-12-29T11:10:02Z</time>
      </trkpt>
      <trkpt lat="45.96569" lon="4.77482">
        <ele>224</ele>
        <time>2017-12-29T11:10:03Z</time>
      </trkpt>
      <trkpt lat="45.96563" lon="4.7748">
        <ele>224</ele>
        <time>2017-12-29T11:10:04Z</time>
      </trkpt>
      <trkpt lat="45.96558" lon="4.77476">
        <ele>224</ele>
        <time>2017-12-29T11:10:05Z</time>
      </trkpt>
      <trkpt lat="45.96553" lon="4.77473">
        <ele>224</ele>
        <time>2017-12-29T11:10:06Z</time>
      </trkpt>
      <trkpt lat="45.96547" lon="4.7747">
        <ele>223</ele>
        <time>2017-12-29T11:10:07Z</time>
      </trkpt>
      <trkpt lat="45.96543" lon="4.77466">
        <ele>223</ele>
        <time>2017-12-29T11:10:08Z</time>
      </trkpt>
      <trkpt lat="45.96537" lon="4.77462">
        <ele>223</ele>
        <time>2017-12-29T11:10:09Z</time>
      </trkpt>
      <trkpt lat="45.96532" lon="4.77459">
        <ele>223</ele>
        <time>2017-12-29T11:10:10Z</time>
      </trkpt>
      <trkpt lat="45.96526" lon="4.77456">
        <ele>223</ele>
        <time>2017-12-29T11:10:11Z</time>
      </trkpt>
      <trkpt lat="45.96521" lon="4.77453">
        <ele>223</ele>
        <time>2017-12-29T11:10:12Z</time>
      </trkpt>
      <trkpt lat="45.96516" lon="4.7745">
        <ele>223</ele>
        <time>2017-12-29T11:10:13Z</time>
      </trkpt>
      <trkpt lat="45.96512" lon="4.77446">
        <ele>223</ele>
        <time>2017-12-29T11:10:14Z</time>
      </trkpt>
      <trkpt lat="45.96507" lon="4.77443">
        <ele>223</ele>
        <time>2017-12-29T11:10:15Z</time>
      </trkpt>
      <trkpt lat="45.96501" lon="4.7744">
        <ele>223</ele>
        <time>2017-12-29T11:10:16Z</time>
      </trkpt>
      <trkpt lat="45.96496" lon="4.77437">
        <ele>222</ele>
        <time>2017-12-29T11:10:17Z</time>
      </trkpt>
      <trkpt lat="45.96491" lon="4.77433">
        <ele>222</ele>
        <time>2017-12-29T11:10:18Z</time>
      </trkpt>
      <trkpt lat="45.96486" lon="4.77429">
        <ele>222</ele>
        <time>2017-12-29T11:10:19Z</time>
      </trkpt>
      <trkpt lat="45.96481" lon="4.77426">
        <ele>222</ele>
        <time>2017-12-29T11:10:20Z</time>
      </trkpt>
      <trkpt lat="45.96476" lon="4.77423">
        <ele>222</ele>
        <time>2017-12-29T11:10:21Z</time>
      </trkpt>
      <trkpt lat="45.96471" lon="4.7742">
        <ele>221</ele>
        <time>2017-12-29T11:10:22Z</time>
      </trkpt>
      <trkpt lat="45.96465" lon="4.77417">
        <ele>221</ele>
        <time>2017-12-29T11:10:23Z</time>
      </trkpt>
      <trkpt lat="45.9646" lon="4.77414">
        <ele>222</ele>
        <time>2017-12-29T11:10:24Z</time>
      </trkpt>
      <trkpt lat="45.96454" lon="4.7741">
        <ele>222</ele>
        <time>2017-12-29T11:10:25Z</time>
      </trkpt>
      <trkpt lat="45.96449" lon="4.77405">
        <ele>222</ele>
        <time>2017-12-29T11:10:26Z</time>
      </trkpt>
      <trkpt lat="45.96443" lon="4.77402">
        <ele>222</ele>
        <time>2017-12-29T11:10:27Z</time>
      </trkpt>
      <trkpt lat="45.96438" lon="4.77397">
        <ele>222</ele>
        <time>2017-12-29T11:10:28Z</time>
      </trkpt>
      <trkpt lat="45.96433" lon="4.77394">
        <ele>222</ele>
        <time>2017-12-29T11:10:29Z</time>
      </trkpt>
      <trkpt lat="45.96427" lon="4.77391">
        <ele>222</ele>
        <time>2017-12-29T11:10:30Z</time>
      </trkpt>
      <trkpt lat="45.96421" lon="4.77389">
        <ele>222</ele>
        <time>2017-12-29T11:10:31Z</time>
      </trkpt>
      <trkpt lat="45.96415" lon="4.77386">
        <ele>220</ele>
        <time>2017-12-29T11:10:32Z</time>
      </trkpt>
      <trkpt lat="45.96409" lon="4.77383">
        <ele>220</ele>
        <time>2017-12-29T11:10:33Z</time>
      </trkpt>
      <trkpt lat="45.96403" lon="4.7738">
        <ele>220</ele>
        <time>2017-12-29T11:10:34Z</time>
      </trkpt>
      <trkpt lat="45.96398" lon="4.77377">
        <ele>220</ele>
        <time>2017-12-29T11:10:35Z</time>
      </trkpt>
      <trkpt lat="45.96393" lon="4.77374">
        <ele>220</ele>
        <time>2017-12-29T11:10:36Z</time>
      </trkpt>
      <trkpt lat="45.96387" lon="4.77372">
        <ele>220</ele>
        <time>2017-12-29T11:10:37Z</time>
      </trkpt>
      <trkpt lat="45.96381" lon="4.7737">
        <ele>220</ele>
        <time>2017-12-29T11:10:38Z</time>
      </trkpt>
      <trkpt lat="45.96376" lon="4.77368">
        <ele>220</ele>
        <time>2017-12-29T11:10:39Z</time>
      </trkpt>
      <trkpt lat="45.96371" lon="4.77366">
        <ele>220</ele>
        <time>2017-12-29T11:10:40Z</time>
      </trkpt>
      <trkpt lat="45.96366" lon="4.77363">
        <ele>220</ele>
        <time>2017-12-29T11:10:41Z</time>
      </trkpt>
      <trkpt lat="45.9636" lon="4.77359">
        <ele>220</ele>
        <time>2017-12-29T11:10:42Z</time>
      </trkpt>
      <trkpt lat="45.96355" lon="4.77358">
        <ele>219</ele>
        <time>2017-12-29T11:10:43Z</time>
      </trkpt>
      <trkpt lat="45.9635" lon="4.77355">
        <ele>219</ele>
        <time>2017-12-29T11:10:44Z</time>
      </trkpt>
      <trkpt lat="45.96344" lon="4.77353">
        <ele>220</ele>
        <time>2017-12-29T11:10:45Z</time>
      </trkpt>
      <trkpt lat="45.96339" lon="4.77349">
        <ele>220</ele>
        <time>2017-12-29T11:10:46Z</time>
      </trkpt>
      <trkpt lat="45.96334" lon="4.77346">
        <ele>220</ele>
        <time>2017-12-29T11:10:47Z</time>
      </trkpt>
      <trkpt lat="45.9633" lon="4.77343">
        <ele>219</ele>
        <time>2017-12-29T11:10:48Z</time>
      </trkpt>
      <trkpt lat="45.96325" lon="4.7734">
        <ele>218</ele>
        <time>2017-12-29T11:10:49Z</time>
      </trkpt>
      <trkpt lat="45.96319" lon="4.77337">
        <ele>218</ele>
        <time>2017-12-29T11:10:50Z</time>
      </trkpt>
      <trkpt lat="45.96313" lon="4.77335">
        <ele>218</ele>
        <time>2017-12-29T11:10:51Z</time>
      </trkpt>
      <trkpt lat="45.96307" lon="4.77331">
        <ele>219</ele>
        <time>2017-12-29T11:10:52Z</time>
      </trkpt>
      <trkpt lat="45.96302" lon="4.77328">
        <ele>219</ele>
        <time>2017-12-29T11:10:53Z</time>
      </trkpt>
      <trkpt lat="45.96295" lon="4.77325">
        <ele>219</ele>
        <time>2017-12-29T11:10:54Z</time>
      </trkpt>
      <trkpt lat="45.96289" lon="4.77323">
        <ele>219</ele>
        <time>2017-12-29T11:10:55Z</time>
      </trkpt>
      <trkpt lat="45.96284" lon="4.7732">
        <ele>219</ele>
        <time>2017-12-29T11:10:56Z</time>
      </trkpt>
      <trkpt lat="45.96278" lon="4.77316">
        <ele>219</ele>
        <time>2017-12-29T11:10:57Z</time>
      </trkpt>
      <trkpt lat="45.96273" lon="4.77313">
        <ele>219</ele>
        <time>2017-12-29T11:10:58Z</time>
      </trkpt>
      <trkpt lat="45.96268" lon="4.7731">
        <ele>219</ele>
        <time>2017-12-29T11:10:59Z</time>
      </trkpt>
      <trkpt lat="45.96262" lon="4.77307">
        <ele>219</ele>
        <time>2017-12-29T11:11:00Z</time>
      </trkpt>
      <trkpt lat="45.96257" lon="4.77302">
        <ele>219</ele>
        <time>2017-12-29T11:11:01Z</time>
      </trkpt>
      <trkpt lat="45.96251" lon="4.773">
        <ele>219</ele>
        <time>2017-12-29T11:11:02Z</time>
      </trkpt>
      <trkpt lat="45.96245" lon="4.77295">
        <ele>217</ele>
        <time>2017-12-29T11:11:03Z</time>
      </trkpt>
      <trkpt lat="45.96241" lon="4.77291">
        <ele>217</ele>
        <time>2017-12-29T11:11:04Z</time>
      </trkpt>
      <trkpt lat="45.96236" lon="4.77288">
        <ele>217</ele>
        <time>2017-12-29T11:11:05Z</time>
      </trkpt>
      <trkpt lat="45.96231" lon="4.77285">
        <ele>217</ele>
        <time>2017-12-29T11:11:06Z</time>
      </trkpt>
      <trkpt lat="45.96225" lon="4.77282">
        <ele>217</ele>
        <time>2017-12-29T11:11:07Z</time>
      </trkpt>
      <trkpt lat="45.9622" lon="4.7728">
        <ele>217</ele>
        <time>2017-12-29T11:11:08Z</time>
      </trkpt>
      <trkpt lat="45.96215" lon="4.77278">
        <ele>217</ele>
        <time>2017-12-29T11:11:09Z</time>
      </trkpt>
      <trkpt lat="45.9621" lon="4.77276">
        <ele>217</ele>
        <time>2017-12-29T11:11:10Z</time>
      </trkpt>
      <trkpt lat="45.96204" lon="4.77273">
        <ele>217</ele>
        <time>2017-12-29T11:11:11Z</time>
      </trkpt>
      <trkpt lat="45.96199" lon="4.7727">
        <ele>216</ele>
        <time>2017-12-29T11:11:12Z</time>
      </trkpt>
      <trkpt lat="45.96193" lon="4.77266">
        <ele>216</ele>
        <time>2017-12-29T11:11:13Z</time>
      </trkpt>
      <trkpt lat="45.96187" lon="4.77263">
        <ele>216</ele>
        <time>2017-12-29T11:11:14Z</time>
      </trkpt>
      <trkpt lat="45.96181" lon="4.77259">
        <ele>216</ele>
        <time>2017-12-29T11:11:15Z</time>
      </trkpt>
      <trkpt lat="45.96175" lon="4.77256">
        <ele>216</ele>
        <time>2017-12-29T11:11:16Z</time>
      </trkpt>
      <trkpt lat="45.9617" lon="4.77253">
        <ele>216</ele>
        <time>2017-12-29T11:11:17Z</time>
      </trkpt>
      <trkpt lat="45.96164" lon="4.77249">
        <ele>216</ele>
        <time>2017-12-29T11:11:18Z</time>
      </trkpt>
      <trkpt lat="45.96158" lon="4.77246">
        <ele>216</ele>
        <time>2017-12-29T11:11:19Z</time>
      </trkpt>
      <trkpt lat="45.96152" lon="4.77243">
        <ele>215</ele>
        <time>2017-12-29T11:11:20Z</time>
      </trkpt>
      <trkpt lat="45.96146" lon="4.77242">
        <ele>215</ele>
        <time>2017-12-29T11:11:21Z</time>
      </trkpt>
      <trkpt lat="45.9614" lon="4.7724">
        <ele>215</ele>
        <time>2017-12-29T11:11:22Z</time>
      </trkpt>
      <trkpt lat="45.96135" lon="4.77237">
        <ele>215</ele>
        <time>2017-12-29T11:11:23Z</time>
      </trkpt>
      <trkpt lat="45.9613" lon="4.77236">
        <ele>215</ele>
        <time>2017-12-29T11:11:24Z</time>
      </trkpt>
      <trkpt lat="45.96124" lon="4.77235">
        <ele>214</ele>
        <time>2017-12-29T11:11:25Z</time>
      </trkpt>
      <trkpt lat="45.96119" lon="4.77235">
        <ele>214</ele>
        <time>2017-12-29T11:11:26Z</time>
      </trkpt>
      <trkpt lat="45.96113" lon="4.77235">
        <ele>214</ele>
        <time>2017-12-29T11:11:27Z</time>
      </trkpt>
      <trkpt lat="45.96107" lon="4.77234">
        <ele>214</ele>
        <time>2017-12-29T11:11:28Z</time>
      </trkpt>
      <trkpt lat="45.96101" lon="4.77234">
        <ele>213</ele>
        <time>2017-12-29T11:11:29Z</time>
      </trkpt>
      <trkpt lat="45.96095" lon="4.77234">
        <ele>213</ele>
        <time>2017-12-29T11:11:30Z</time>
      </trkpt>
      <trkpt lat="45.96089" lon="4.77235">
        <ele>212</ele>
        <time>2017-12-29T11:11:31Z</time>
      </trkpt>
      <trkpt lat="45.96083" lon="4.77236">
        <ele>210</ele>
        <time>2017-12-29T11:11:32Z</time>
      </trkpt>
      <trkpt lat="45.96077" lon="4.77237">
        <ele>210</ele>
        <time>2017-12-29T11:11:33Z</time>
      </trkpt>
      <trkpt lat="45.96071" lon="4.77238">
        <ele>210</ele>
        <time>2017-12-29T11:11:34Z</time>
      </trkpt>
      <trkpt lat="45.96065" lon="4.77238">
        <ele>209</ele>
        <time>2017-12-29T11:11:35Z</time>
      </trkpt>
      <trkpt lat="45.9606" lon="4.77238">
        <ele>209</ele>
        <time>2017-12-29T11:11:36Z</time>
      </trkpt>
      <trkpt lat="45.96054" lon="4.77238">
        <ele>209</ele>
        <time>2017-12-29T11:11:37Z</time>
      </trkpt>
      <trkpt lat="45.96048" lon="4.77239">
        <ele>209</ele>
        <time>2017-12-29T11:11:38Z</time>
      </trkpt>
      <trkpt lat="45.96042" lon="4.77239">
        <ele>208</ele>
        <time>2017-12-29T11:11:39Z</time>
      </trkpt>
      <trkpt lat="45.96034" lon="4.7724">
        <ele>208</ele>
        <time>2017-12-29T11:11:40Z</time>
      </trkpt>
      <trkpt lat="45.96027" lon="4.77242">
        <ele>207</ele>
        <time>2017-12-29T11:11:41Z</time>
      </trkpt>
      <trkpt lat="45.9602" lon="4.77242">
        <ele>207</ele>
        <time>2017-12-29T11:11:42Z</time>
      </trkpt>
      <trkpt lat="45.96014" lon="4.77243">
        <ele>206</ele>
        <time>2017-12-29T11:11:43Z</time>
      </trkpt>
      <trkpt lat="45.96007" lon="4.77241">
        <ele>205</ele>
        <time>2017-12-29T11:11:44Z</time>
      </trkpt>
      <trkpt lat="45.96" lon="4.77239">
        <ele>203</ele>
        <time>2017-12-29T11:11:45Z</time>
      </trkpt>
      <trkpt lat="45.95992" lon="4.77237">
        <ele>202</ele>
        <time>2017-12-29T11:11:46Z</time>
      </trkpt>
      <trkpt lat="45.95986" lon="4.77233">
        <ele>202</ele>
        <time>2017-12-29T11:11:47Z</time>
      </trkpt>
      <trkpt lat="45.9598" lon="4.77227">
        <ele>202</ele>
        <time>2017-12-29T11:11:48Z</time>
      </trkpt>
      <trkpt lat="45.95974" lon="4.77222">
        <ele>202</ele>
        <time>2017-12-29T11:11:49Z</time>
      </trkpt>
      <trkpt lat="45.95968" lon="4.77217">
        <ele>202</ele>
        <time>2017-12-29T11:11:50Z</time>
      </trkpt>
      <trkpt lat="45.95963" lon="4.7721">
        <ele>201</ele>
        <time>2017-12-29T11:11:51Z</time>
      </trkpt>
      <trkpt lat="45.95958" lon="4.77203">
        <ele>201</ele>
        <time>2017-12-29T11:11:52Z</time>
      </trkpt>
      <trkpt lat="45.95953" lon="4.77194">
        <ele>201</ele>
        <time>2017-12-29T11:11:53Z</time>
      </trkpt>
      <trkpt lat="45.9595" lon="4.77185">
        <ele>201</ele>
        <time>2017-12-29T11:11:54Z</time>
      </trkpt>
      <trkpt lat="45.95948" lon="4.77175">
        <ele>201</ele>
        <time>2017-12-29T11:11:55Z</time>
      </trkpt>
      <trkpt lat="45.95945" lon="4.77165">
        <ele>201</ele>
        <time>2017-12-29T11:11:56Z</time>
      </trkpt>
      <trkpt lat="45.95943" lon="4.77154">
        <ele>201</ele>
        <time>2017-12-29T11:11:57Z</time>
      </trkpt>
      <trkpt lat="45.95942" lon="4.77144">
        <ele>201</ele>
        <time>2017-12-29T11:11:58Z</time>
      </trkpt>
      <trkpt lat="45.95942" lon="4.77134">
        <ele>201</ele>
        <time>2017-12-29T11:11:59Z</time>
      </trkpt>
      <trkpt lat="45.95942" lon="4.77124">
        <ele>201</ele>
        <time>2017-12-29T11:12:00Z</time>
      </trkpt>
      <trkpt lat="45.95942" lon="4.77114">
        <ele>201</ele>
        <time>2017-12-29T11:12:01Z</time>
      </trkpt>
      <trkpt lat="45.95942" lon="4.77103">
        <ele>201</ele>
        <time>2017-12-29T11:12:02Z</time>
      </trkpt>
      <trkpt lat="45.95944" lon="4.77094">
        <ele>201</ele>
        <time>2017-12-29T11:12:03Z</time>
      </trkpt>
      <trkpt lat="45.95946" lon="4.77084">
        <ele>201</ele>
        <time>2017-12-29T11:12:04Z</time>
      </trkpt>
      <trkpt lat="45.95947" lon="4.77076">
        <ele>200</ele>
        <time>2017-12-29T11:12:05Z</time>
      </trkpt>
      <trkpt lat="45.95951" lon="4.77068">
        <ele>200</ele>
        <time>2017-12-29T11:12:06Z</time>
      </trkpt>
      <trkpt lat="45.95954" lon="4.77059">
        <ele>200</ele>
        <time>2017-12-29T11:12:07Z</time>
      </trkpt>
      <trkpt lat="45.95958" lon="4.7705">
        <ele>200</ele>
        <time>2017-12-29T11:12:08Z</time>
      </trkpt>
      <trkpt lat="45.95963" lon="4.77041">
        <ele>200</ele>
        <time>2017-12-29T11:12:09Z</time>
      </trkpt>
      <trkpt lat="45.95967" lon="4.77031">
        <ele>200</ele>
        <time>2017-12-29T11:12:10Z</time>
      </trkpt>
      <trkpt lat="45.9597" lon="4.77021">
        <ele>200</ele>
        <time>2017-12-29T11:12:11Z</time>
      </trkpt>
      <trkpt lat="45.95974" lon="4.77011">
        <ele>200</ele>
        <time>2017-12-29T11:12:12Z</time>
      </trkpt>
      <trkpt lat="45.95977" lon="4.77001">
        <ele>200</ele>
        <time>2017-12-29T11:12:13Z</time>
      </trkpt>
      <trkpt lat="45.95979" lon="4.76991">
        <ele>198</ele>
        <time>2017-12-29T11:12:14Z</time>
      </trkpt>
      <trkpt lat="45.95981" lon="4.7698">
        <ele>197</ele>
        <time>2017-12-29T11:12:15Z</time>
      </trkpt>
      <trkpt lat="45.95981" lon="4.76969">
        <ele>197</ele>
        <time>2017-12-29T11:12:16Z</time>
      </trkpt>
      <trkpt lat="45.95985" lon="4.76952">
        <ele>196</ele>
        <time>2017-12-29T11:12:17Z</time>
      </trkpt>
      <trkpt lat="45.9598" lon="4.76941">
        <ele>196</ele>
        <time>2017-12-29T11:12:18Z</time>
      </trkpt>
      <trkpt lat="45.95976" lon="4.76932">
        <ele>196</ele>
        <time>2017-12-29T11:12:19Z</time>
      </trkpt>
      <trkpt lat="45.9597" lon="4.76923">
        <ele>195</ele>
        <time>2017-12-29T11:12:20Z</time>
      </trkpt>
      <trkpt lat="45.95963" lon="4.76915">
        <ele>193</ele>
        <time>2017-12-29T11:12:21Z</time>
      </trkpt>
      <trkpt lat="45.95956" lon="4.76908">
        <ele>193</ele>
        <time>2017-12-29T11:12:22Z</time>
      </trkpt>
      <trkpt lat="45.95949" lon="4.769">
        <ele>193</ele>
        <time>2017-12-29T11:12:23Z</time>
      </trkpt>
      <trkpt lat="45.95942" lon="4.76894">
        <ele>192</ele>
        <time>2017-12-29T11:12:24Z</time>
      </trkpt>
      <trkpt lat="45.95935" lon="4.76887">
        <ele>192</ele>
        <time>2017-12-29T11:12:25Z</time>
      </trkpt>
      <trkpt lat="45.95929" lon="4.76879">
        <ele>192</ele>
        <time>2017-12-29T11:12:26Z</time>
      </trkpt>
      <trkpt lat="45.95922" lon="4.76872">
        <ele>192</ele>
        <time>2017-12-29T11:12:27Z</time>
      </trkpt>
      <trkpt lat="45.95916" lon="4.76865">
        <ele>191</ele>
        <time>2017-12-29T11:12:28Z</time>
      </trkpt>
      <trkpt lat="45.95909" lon="4.76859">
        <ele>191</ele>
        <time>2017-12-29T11:12:29Z</time>
      </trkpt>
      <trkpt lat="45.95903" lon="4.76853">
        <ele>191</ele>
        <time>2017-12-29T11:12:30Z</time>
      </trkpt>
      <trkpt lat="45.95897" lon="4.76847">
        <ele>191</ele>
        <time>2017-12-29T11:12:31Z</time>
      </trkpt>
      <trkpt lat="45.95891" lon="4.7684">
        <ele>191</ele>
        <time>2017-12-29T11:12:32Z</time>
      </trkpt>
      <trkpt lat="45.95886" lon="4.76832">
        <ele>191</ele>
        <time>2017-12-29T11:12:33Z</time>
      </trkpt>
      <trkpt lat="45.9588" lon="4.76826">
        <ele>191</ele>
        <time>2017-12-29T11:12:34Z</time>
      </trkpt>
      <trkpt lat="45.95874" lon="4.76821">
        <ele>191</ele>
        <time>2017-12-29T11:12:35Z</time>
      </trkpt>
      <trkpt lat="45.95869" lon="4.76815">
        <ele>191</ele>
        <time>2017-12-29T11:12:36Z</time>
      </trkpt>
      <trkpt lat="45.95863" lon="4.76809">
        <ele>191</ele>
        <time>2017-12-29T11:12:37Z</time>
      </trkpt>
      <trkpt lat="45.95857" lon="4.76805">
        <ele>191</ele>
        <time>2017-12-29T11:12:38Z</time>
      </trkpt>
      <trkpt lat="45.95852" lon="4.76799">
        <ele>191</ele>
        <time>2017-12-29T11:12:39Z</time>
      </trkpt>
      <trkpt lat="45.95848" lon="4.76794">
        <ele>191</ele>
        <time>2017-12-29T11:12:40Z</time>
      </trkpt>
      <trkpt lat="45.95844" lon="4.76788">
        <ele>191</ele>
        <time>2017-12-29T11:12:41Z</time>
      </trkpt>
      <trkpt lat="45.95839" lon="4.76781">
        <ele>191</ele>
        <time>2017-12-29T11:12:42Z</time>
      </trkpt>
      <trkpt lat="45.95836" lon="4.76775">
        <ele>191</ele>
        <time>2017-12-29T11:12:43Z</time>
      </trkpt>
      <trkpt lat="45.95834" lon="4.76769">
        <ele>191</ele>
        <time>2017-12-29T11:12:44Z</time>
      </trkpt>
      <trkpt lat="45.95831" lon="4.76761">
        <ele>191</ele>
        <time>2017-12-29T11:12:45Z</time>
      </trkpt>
      <trkpt lat="45.95828" lon="4.76752">
        <ele>191</ele>
        <time>2017-12-29T11:12:46Z</time>
      </trkpt>
      <trkpt lat="45.95826" lon="4.76743">
        <ele>190</ele>
        <time>2017-12-29T11:12:47Z</time>
      </trkpt>
      <trkpt lat="45.95825" lon="4.76733">
        <ele>190</ele>
        <time>2017-12-29T11:12:48Z</time>
      </trkpt>
      <trkpt lat="45.95824" lon="4.76724">
        <ele>190</ele>
        <time>2017-12-29T11:12:49Z</time>
      </trkpt>
      <trkpt lat="45.95822" lon="4.76715">
        <ele>189</ele>
        <time>2017-12-29T11:12:50Z</time>
      </trkpt>
      <trkpt lat="45.9582" lon="4.76706">
        <ele>189</ele>
        <time>2017-12-29T11:12:51Z</time>
      </trkpt>
      <trkpt lat="45.95819" lon="4.76696">
        <ele>189</ele>
        <time>2017-12-29T11:12:52Z</time>
      </trkpt>
      <trkpt lat="45.95818" lon="4.76687">
        <ele>189</ele>
        <time>2017-12-29T11:12:53Z</time>
      </trkpt>
      <trkpt lat="45.95817" lon="4.76679">
        <ele>189</ele>
        <time>2017-12-29T11:12:54Z</time>
      </trkpt>
      <trkpt lat="45.95816" lon="4.7667">
        <ele>188</ele>
        <time>2017-12-29T11:12:55Z</time>
      </trkpt>
      <trkpt lat="45.95814" lon="4.76662">
        <ele>188</ele>
        <time>2017-12-29T11:12:56Z</time>
      </trkpt>
      <trkpt lat="45.95813" lon="4.76654">
        <ele>188</ele>
        <time>2017-12-29T11:12:57Z</time>
      </trkpt>
      <trkpt lat="45.95811" lon="4.76647">
        <ele>188</ele>
        <time>2017-12-29T11:12:58Z</time>
      </trkpt>
      <trkpt lat="45.9581" lon="4.76638">
        <ele>188</ele>
        <time>2017-12-29T11:12:59Z</time>
      </trkpt>
      <trkpt lat="45.95809" lon="4.7663">
        <ele>188</ele>
        <time>2017-12-29T11:13:00Z</time>
      </trkpt>
      <trkpt lat="45.95809" lon="4.7662">
        <ele>188</ele>
        <time>2017-12-29T11:13:01Z</time>
      </trkpt>
      <trkpt lat="45.95808" lon="4.76611">
        <ele>188</ele>
        <time>2017-12-29T11:13:02Z</time>
      </trkpt>
      <trkpt lat="45.95806" lon="4.76602">
        <ele>188</ele>
        <time>2017-12-29T11:13:03Z</time>
      </trkpt>
      <trkpt lat="45.95805" lon="4.76593">
        <ele>188</ele>
        <time>2017-12-29T11:13:04Z</time>
      </trkpt>
      <trkpt lat="45.95804" lon="4.76586">
        <ele>188</ele>
        <time>2017-12-29T11:13:05Z</time>
      </trkpt>
      <trkpt lat="45.95802" lon="4.76577">
        <ele>187</ele>
        <time>2017-12-29T11:13:06Z</time>
      </trkpt>
      <trkpt lat="45.95801" lon="4.76569">
        <ele>187</ele>
        <time>2017-12-29T11:13:07Z</time>
      </trkpt>
      <trkpt lat="45.95801" lon="4.76561">
        <ele>187</ele>
        <time>2017-12-29T11:13:08Z</time>
      </trkpt>
      <trkpt lat="45.958" lon="4.76553">
        <ele>187</ele>
        <time>2017-12-29T11:13:09Z</time>
      </trkpt>
      <trkpt lat="45.95798" lon="4.76546">
        <ele>187</ele>
        <time>2017-12-29T11:13:10Z</time>
      </trkpt>
      <trkpt lat="45.95797" lon="4.76539">
        <ele>187</ele>
        <time>2017-12-29T11:13:11Z</time>
      </trkpt>
      <trkpt lat="45.95796" lon="4.76532">
        <ele>187</ele>
        <time>2017-12-29T11:13:12Z</time>
      </trkpt>
      <trkpt lat="45.95795" lon="4.76525">
        <ele>187</ele>
        <time>2017-12-29T11:13:13Z</time>
      </trkpt>
      <trkpt lat="45.95794" lon="4.76518">
        <ele>187</ele>
        <time>2017-12-29T11:13:14Z</time>
      </trkpt>
      <trkpt lat="45.95793" lon="4.76509">
        <ele>187</ele>
        <time>2017-12-29T11:13:15Z</time>
      </trkpt>
      <trkpt lat="45.95792" lon="4.76502">
        <ele>187</ele>
        <time>2017-12-29T11:13:16Z</time>
      </trkpt>
      <trkpt lat="45.95792" lon="4.76493">
        <ele>187</ele>
        <time>2017-12-29T11:13:17Z</time>
      </trkpt>
      <trkpt lat="45.9579" lon="4.76484">
        <ele>186</ele>
        <time>2017-12-29T11:13:18Z</time>
      </trkpt>
      <trkpt lat="45.95789" lon="4.76476">
        <ele>186</ele>
        <time>2017-12-29T11:13:19Z</time>
      </trkpt>
      <trkpt lat="45.95788" lon="4.76469">
        <ele>186</ele>
        <time>2017-12-29T11:13:20Z</time>
      </trkpt>
      <trkpt lat="45.95786" lon="4.7646">
        <ele>186</ele>
        <time>2017-12-29T11:13:21Z</time>
      </trkpt>
      <trkpt lat="45.95785" lon="4.76452">
        <ele>186</ele>
        <time>2017-12-29T11:13:22Z</time>
      </trkpt>
      <trkpt lat="45.95784" lon="4.76445">
        <ele>186</ele>
        <time>2017-12-29T11:13:23Z</time>
      </trkpt>
      <trkpt lat="45.95784" lon="4.76438">
        <ele>186</ele>
        <time>2017-12-29T11:13:24Z</time>
      </trkpt>
      <trkpt lat="45.95783" lon="4.76431">
        <ele>186</ele>
        <time>2017-12-29T11:13:25Z</time>
      </trkpt>
      <trkpt lat="45.95783" lon="4.76421">
        <ele>186</ele>
        <time>2017-12-29T11:13:26Z</time>
      </trkpt>
      <trkpt lat="45.95781" lon="4.76413">
        <ele>186</ele>
        <time>2017-12-29T11:13:27Z</time>
      </trkpt>
      <trkpt lat="45.95781" lon="4.76406">
        <ele>186</ele>
        <time>2017-12-29T11:13:28Z</time>
      </trkpt>
      <trkpt lat="45.9578" lon="4.76399">
        <ele>186</ele>
        <time>2017-12-29T11:13:29Z</time>
      </trkpt>
      <trkpt lat="45.95778" lon="4.76386">
        <ele>186</ele>
        <time>2017-12-29T11:13:31Z</time>
      </trkpt>
      <trkpt lat="45.95778" lon="4.7638">
        <ele>186</ele>
        <time>2017-12-29T11:13:32Z</time>
      </trkpt>
      <trkpt lat="45.95777" lon="4.76373">
        <ele>186</ele>
        <time>2017-12-29T11:13:33Z</time>
      </trkpt>
      <trkpt lat="45.95777" lon="4.76365">
        <ele>186</ele>
        <time>2017-12-29T11:13:34Z</time>
      </trkpt>
      <trkpt lat="45.95776" lon="4.76357">
        <ele>186</ele>
        <time>2017-12-29T11:13:35Z</time>
      </trkpt>
      <trkpt lat="45.95776" lon="4.76349">
        <ele>186</ele>
        <time>2017-12-29T11:13:36Z</time>
      </trkpt>
      <trkpt lat="45.95776" lon="4.76341">
        <ele>186</ele>
        <time>2017-12-29T11:13:37Z</time>
      </trkpt>
      <trkpt lat="45.95775" lon="4.76332">
        <ele>185</ele>
        <time>2017-12-29T11:13:38Z</time>
      </trkpt>
      <trkpt lat="45.95775" lon="4.76324">
        <ele>185</ele>
        <time>2017-12-29T11:13:39Z</time>
      </trkpt>
      <trkpt lat="45.95774" lon="4.76315">
        <ele>186</ele>
        <time>2017-12-29T11:13:40Z</time>
      </trkpt>
      <trkpt lat="45.95774" lon="4.76307">
        <ele>186</ele>
        <time>2017-12-29T11:13:41Z</time>
      </trkpt>
      <trkpt lat="45.95773" lon="4.76299">
        <ele>186</ele>
        <time>2017-12-29T11:13:42Z</time>
      </trkpt>
      <trkpt lat="45.95773" lon="4.76292">
        <ele>186</ele>
        <time>2017-12-29T11:13:43Z</time>
      </trkpt>
      <trkpt lat="45.95773" lon="4.76284">
        <ele>186</ele>
        <time>2017-12-29T11:13:44Z</time>
      </trkpt>
      <trkpt lat="45.95773" lon="4.76276">
        <ele>186</ele>
        <time>2017-12-29T11:13:45Z</time>
      </trkpt>
      <trkpt lat="45.95772" lon="4.76267">
        <ele>186</ele>
        <time>2017-12-29T11:13:46Z</time>
      </trkpt>
      <trkpt lat="45.95771" lon="4.76259">
        <ele>186</ele>
        <time>2017-12-29T11:13:47Z</time>
      </trkpt>
      <trkpt lat="45.95771" lon="4.7625">
        <ele>185</ele>
        <time>2017-12-29T11:13:48Z</time>
      </trkpt>
      <trkpt lat="45.9577" lon="4.76243">
        <ele>186</ele>
        <time>2017-12-29T11:13:49Z</time>
      </trkpt>
      <trkpt lat="45.95769" lon="4.76236">
        <ele>186</ele>
        <time>2017-12-29T11:13:50Z</time>
      </trkpt>
      <trkpt lat="45.95769" lon="4.76229">
        <ele>186</ele>
        <time>2017-12-29T11:13:51Z</time>
      </trkpt>
      <trkpt lat="45.95768" lon="4.76221">
        <ele>186</ele>
        <time>2017-12-29T11:13:52Z</time>
      </trkpt>
      <trkpt lat="45.95767" lon="4.76213">
        <ele>186</ele>
        <time>2017-12-29T11:13:53Z</time>
      </trkpt>
      <trkpt lat="45.95768" lon="4.76205">
        <ele>186</ele>
        <time>2017-12-29T11:13:54Z</time>
      </trkpt>
      <trkpt lat="45.95767" lon="4.76197">
        <ele>186</ele>
        <time>2017-12-29T11:13:55Z</time>
      </trkpt>
      <trkpt lat="45.95767" lon="4.76188">
        <ele>186</ele>
        <time>2017-12-29T11:13:56Z</time>
      </trkpt>
      <trkpt lat="45.95766" lon="4.7618">
        <ele>186</ele>
        <time>2017-12-29T11:13:57Z</time>
      </trkpt>
      <trkpt lat="45.95766" lon="4.7617">
        <ele>186</ele>
        <time>2017-12-29T11:13:58Z</time>
      </trkpt>
      <trkpt lat="45.95765" lon="4.7616">
        <ele>186</ele>
        <time>2017-12-29T11:13:59Z</time>
      </trkpt>
      <trkpt lat="45.95765" lon="4.76152">
        <ele>186</ele>
        <time>2017-12-29T11:14:00Z</time>
      </trkpt>
      <trkpt lat="45.95765" lon="4.76144">
        <ele>186</ele>
        <time>2017-12-29T11:14:01Z</time>
      </trkpt>
      <trkpt lat="45.95764" lon="4.76135">
        <ele>186</ele>
        <time>2017-12-29T11:14:02Z</time>
      </trkpt>
      <trkpt lat="45.95763" lon="4.76127">
        <ele>186</ele>
        <time>2017-12-29T11:14:03Z</time>
      </trkpt>
      <trkpt lat="45.95762" lon="4.7612">
        <ele>186</ele>
        <time>2017-12-29T11:14:04Z</time>
      </trkpt>
      <trkpt lat="45.95761" lon="4.76113">
        <ele>186</ele>
        <time>2017-12-29T11:14:05Z</time>
      </trkpt>
      <trkpt lat="45.9576" lon="4.76105">
        <ele>186</ele>
        <time>2017-12-29T11:14:06Z</time>
      </trkpt>
      <trkpt lat="45.95758" lon="4.76098">
        <ele>186</ele>
        <time>2017-12-29T11:14:07Z</time>
      </trkpt>
      <trkpt lat="45.95757" lon="4.7609">
        <ele>186</ele>
        <time>2017-12-29T11:14:08Z</time>
      </trkpt>
      <trkpt lat="45.95755" lon="4.76083">
        <ele>185</ele>
        <time>2017-12-29T11:14:09Z</time>
      </trkpt>
      <trkpt lat="45.95752" lon="4.76074">
        <ele>186</ele>
        <time>2017-12-29T11:14:10Z</time>
      </trkpt>
      <trkpt lat="45.95749" lon="4.76066">
        <ele>185</ele>
        <time>2017-12-29T11:14:11Z</time>
      </trkpt>
      <trkpt lat="45.95746" lon="4.76059">
        <ele>185</ele>
        <time>2017-12-29T11:14:12Z</time>
      </trkpt>
      <trkpt lat="45.95744" lon="4.76051">
        <ele>184</ele>
        <time>2017-12-29T11:14:13Z</time>
      </trkpt>
      <trkpt lat="45.95741" lon="4.76044">
        <ele>184</ele>
        <time>2017-12-29T11:14:14Z</time>
      </trkpt>
      <trkpt lat="45.95736" lon="4.76038">
        <ele>184</ele>
        <time>2017-12-29T11:14:15Z</time>
      </trkpt>
      <trkpt lat="45.95733" lon="4.76032">
        <ele>185</ele>
        <time>2017-12-29T11:14:16Z</time>
      </trkpt>
      <trkpt lat="45.9573" lon="4.76023">
        <ele>185</ele>
        <time>2017-12-29T11:14:17Z</time>
      </trkpt>
      <trkpt lat="45.95728" lon="4.76014">
        <ele>185</ele>
        <time>2017-12-29T11:14:18Z</time>
      </trkpt>
      <trkpt lat="45.95725" lon="4.76008">
        <ele>185</ele>
        <time>2017-12-29T11:14:19Z</time>
      </trkpt>
      <trkpt lat="45.95722" lon="4.76001">
        <ele>185</ele>
        <time>2017-12-29T11:14:20Z</time>
      </trkpt>
      <trkpt lat="45.95719" lon="4.75995">
        <ele>185</ele>
        <time>2017-12-29T11:14:21Z</time>
      </trkpt>
      <trkpt lat="45.95717" lon="4.75989">
        <ele>185</ele>
        <time>2017-12-29T11:14:22Z</time>
      </trkpt>
      <trkpt lat="45.95713" lon="4.75983">
        <ele>185</ele>
        <time>2017-12-29T11:14:23Z</time>
      </trkpt>
      <trkpt lat="45.9571" lon="4.75978">
        <ele>185</ele>
        <time>2017-12-29T11:14:24Z</time>
      </trkpt>
      <trkpt lat="45.95708" lon="4.75973">
        <ele>185</ele>
        <time>2017-12-29T11:14:25Z</time>
      </trkpt>
      <trkpt lat="45.95705" lon="4.75967">
        <ele>185</ele>
        <time>2017-12-29T11:14:26Z</time>
      </trkpt>
      <trkpt lat="45.95701" lon="4.75961">
        <ele>185</ele>
        <time>2017-12-29T11:14:27Z</time>
      </trkpt>
      <trkpt lat="45.95699" lon="4.75955">
        <ele>185</ele>
        <time>2017-12-29T11:14:28Z</time>
      </trkpt>
      <trkpt lat="45.95696" lon="4.75948">
        <ele>185</ele>
        <time>2017-12-29T11:14:29Z</time>
      </trkpt>
      <trkpt lat="45.95693" lon="4.75941">
        <ele>185</ele>
        <time>2017-12-29T11:14:30Z</time>
      </trkpt>
      <trkpt lat="45.9569" lon="4.75935">
        <ele>185</ele>
        <time>2017-12-29T11:14:31Z</time>
      </trkpt>
      <trkpt lat="45.95686" lon="4.75928">
        <ele>185</ele>
        <time>2017-12-29T11:14:32Z</time>
      </trkpt>
      <trkpt lat="45.95683" lon="4.75921">
        <ele>185</ele>
        <time>2017-12-29T11:14:33Z</time>
      </trkpt>
      <trkpt lat="45.9568" lon="4.75915">
        <ele>185</ele>
        <time>2017-12-29T11:14:34Z</time>
      </trkpt>
      <trkpt lat="45.95677" lon="4.75909">
        <ele>185</ele>
        <time>2017-12-29T11:14:35Z</time>
      </trkpt>
      <trkpt lat="45.95674" lon="4.75902">
        <ele>185</ele>
        <time>2017-12-29T11:14:36Z</time>
      </trkpt>
      <trkpt lat="45.95671" lon="4.75896">
        <ele>186</ele>
        <time>2017-12-29T11:14:37Z</time>
      </trkpt>
      <trkpt lat="45.95669" lon="4.7589">
        <ele>186</ele>
        <time>2017-12-29T11:14:38Z</time>
      </trkpt>
      <trkpt lat="45.95668" lon="4.75884">
        <ele>186</ele>
        <time>2017-12-29T11:14:39Z</time>
      </trkpt>
      <trkpt lat="45.95666" lon="4.75878">
        <ele>184</ele>
        <time>2017-12-29T11:14:40Z</time>
      </trkpt>
      <trkpt lat="45.95663" lon="4.7587">
        <ele>184</ele>
        <time>2017-12-29T11:14:41Z</time>
      </trkpt>
      <trkpt lat="45.95661" lon="4.75864">
        <ele>184</ele>
        <time>2017-12-29T11:14:42Z</time>
      </trkpt>
      <trkpt lat="45.95659" lon="4.75857">
        <ele>184</ele>
        <time>2017-12-29T11:14:43Z</time>
      </trkpt>
      <trkpt lat="45.95658" lon="4.75848">
        <ele>185</ele>
        <time>2017-12-29T11:14:44Z</time>
      </trkpt>
      <trkpt lat="45.95656" lon="4.75841">
        <ele>185</ele>
        <time>2017-12-29T11:14:45Z</time>
      </trkpt>
      <trkpt lat="45.95654" lon="4.75835">
        <ele>185</ele>
        <time>2017-12-29T11:14:46Z</time>
      </trkpt>
      <trkpt lat="45.95653" lon="4.75827">
        <ele>185</ele>
        <time>2017-12-29T11:14:47Z</time>
      </trkpt>
      <trkpt lat="45.95651" lon="4.7582">
        <ele>185</ele>
        <time>2017-12-29T11:14:48Z</time>
      </trkpt>
      <trkpt lat="45.9565" lon="4.75812">
        <ele>185</ele>
        <time>2017-12-29T11:14:49Z</time>
      </trkpt>
      <trkpt lat="45.95649" lon="4.75805">
        <ele>185</ele>
        <time>2017-12-29T11:14:50Z</time>
      </trkpt>
      <trkpt lat="45.95647" lon="4.75798">
        <ele>185</ele>
        <time>2017-12-29T11:14:51Z</time>
      </trkpt>
      <trkpt lat="45.95645" lon="4.75793">
        <ele>185</ele>
        <time>2017-12-29T11:14:52Z</time>
      </trkpt>
      <trkpt lat="45.95642" lon="4.75781">
        <ele>186</ele>
        <time>2017-12-29T11:14:54Z</time>
      </trkpt>
      <trkpt lat="45.95642" lon="4.75776">
        <ele>186</ele>
        <time>2017-12-29T11:14:55Z</time>
      </trkpt>
      <trkpt lat="45.95642" lon="4.75764">
        <ele>186</ele>
        <time>2017-12-29T11:14:57Z</time>
      </trkpt>
      <trkpt lat="45.95641" lon="4.75757">
        <ele>186</ele>
        <time>2017-12-29T11:14:58Z</time>
      </trkpt>
      <trkpt lat="45.9564" lon="4.75751">
        <ele>186</ele>
        <time>2017-12-29T11:14:59Z</time>
      </trkpt>
      <trkpt lat="45.95639" lon="4.75744">
        <ele>187</ele>
        <time>2017-12-29T11:15:00Z</time>
      </trkpt>
      <trkpt lat="45.95638" lon="4.75737">
        <ele>187</ele>
        <time>2017-12-29T11:15:01Z</time>
      </trkpt>
      <trkpt lat="45.95638" lon="4.7573">
        <ele>187</ele>
        <time>2017-12-29T11:15:02Z</time>
      </trkpt>
      <trkpt lat="45.95635" lon="4.75718">
        <ele>187</ele>
        <time>2017-12-29T11:15:04Z</time>
      </trkpt>
      <trkpt lat="45.95635" lon="4.75712">
        <ele>187</ele>
        <time>2017-12-29T11:15:05Z</time>
      </trkpt>
      <trkpt lat="45.95634" lon="4.75704">
        <ele>187</ele>
        <time>2017-12-29T11:15:06Z</time>
      </trkpt>
      <trkpt lat="45.95633" lon="4.75698">
        <ele>187</ele>
        <time>2017-12-29T11:15:07Z</time>
      </trkpt>
      <trkpt lat="45.95631" lon="4.75691">
        <ele>187</ele>
        <time>2017-12-29T11:15:08Z</time>
      </trkpt>
      <trkpt lat="45.9563" lon="4.75685">
        <ele>187</ele>
        <time>2017-12-29T11:15:09Z</time>
      </trkpt>
      <trkpt lat="45.95628" lon="4.75679">
        <ele>187</ele>
        <time>2017-12-29T11:15:10Z</time>
      </trkpt>
      <trkpt lat="45.95626" lon="4.75671">
        <ele>187</ele>
        <time>2017-12-29T11:15:11Z</time>
      </trkpt>
      <trkpt lat="45.95624" lon="4.75664">
        <ele>188</ele>
        <time>2017-12-29T11:15:12Z</time>
      </trkpt>
      <trkpt lat="45.95622" lon="4.75657">
        <ele>188</ele>
        <time>2017-12-29T11:15:13Z</time>
      </trkpt>
      <trkpt lat="45.9562" lon="4.75651">
        <ele>188</ele>
        <time>2017-12-29T11:15:14Z</time>
      </trkpt>
      <trkpt lat="45.95619" lon="4.75644">
        <ele>188</ele>
        <time>2017-12-29T11:15:15Z</time>
      </trkpt>
      <trkpt lat="45.95617" lon="4.75637">
        <ele>188</ele>
        <time>2017-12-29T11:15:16Z</time>
      </trkpt>
      <trkpt lat="45.95614" lon="4.7563">
        <ele>188</ele>
        <time>2017-12-29T11:15:17Z</time>
      </trkpt>
      <trkpt lat="45.95612" lon="4.75624">
        <ele>188</ele>
        <time>2017-12-29T11:15:18Z</time>
      </trkpt>
      <trkpt lat="45.9561" lon="4.75617">
        <ele>188</ele>
        <time>2017-12-29T11:15:19Z</time>
      </trkpt>
      <trkpt lat="45.95607" lon="4.75606">
        <ele>187</ele>
        <time>2017-12-29T11:15:21Z</time>
      </trkpt>
      <trkpt lat="45.95605" lon="4.756">
        <ele>187</ele>
        <time>2017-12-29T11:15:22Z</time>
      </trkpt>
      <trkpt lat="45.95601" lon="4.7559">
        <ele>187</ele>
        <time>2017-12-29T11:15:24Z</time>
      </trkpt>
      <trkpt lat="45.95599" lon="4.75584">
        <ele>187</ele>
        <time>2017-12-29T11:15:25Z</time>
      </trkpt>
      <trkpt lat="45.95596" lon="4.75578">
        <ele>188</ele>
        <time>2017-12-29T11:15:26Z</time>
      </trkpt>
      <trkpt lat="45.95594" lon="4.75571">
        <ele>188</ele>
        <time>2017-12-29T11:15:27Z</time>
      </trkpt>
      <trkpt lat="45.95591" lon="4.75565">
        <ele>188</ele>
        <time>2017-12-29T11:15:28Z</time>
      </trkpt>
      <trkpt lat="45.95588" lon="4.75558">
        <ele>188</ele>
        <time>2017-12-29T11:15:29Z</time>
      </trkpt>
      <trkpt lat="45.95584" lon="4.75552">
        <ele>188</ele>
        <time>2017-12-29T11:15:30Z</time>
      </trkpt>
      <trkpt lat="45.9558" lon="4.75547">
        <ele>186</ele>
        <time>2017-12-29T11:15:31Z</time>
      </trkpt>
      <trkpt lat="45.95576" lon="4.75541">
        <ele>186</ele>
        <time>2017-12-29T11:15:32Z</time>
      </trkpt>
      <trkpt lat="45.95572" lon="4.75536">
        <ele>186</ele>
        <time>2017-12-29T11:15:33Z</time>
      </trkpt>
      <trkpt lat="45.95567" lon="4.75531">
        <ele>186</ele>
        <time>2017-12-29T11:15:34Z</time>
      </trkpt>
      <trkpt lat="45.95563" lon="4.75526">
        <ele>186</ele>
        <time>2017-12-29T11:15:35Z</time>
      </trkpt>
      <trkpt lat="45.95559" lon="4.75521">
        <ele>186</ele>
        <time>2017-12-29T11:15:36Z</time>
      </trkpt>
      <trkpt lat="45.95555" lon="4.75515">
        <ele>186</ele>
        <time>2017-12-29T11:15:37Z</time>
      </trkpt>
      <trkpt lat="45.95551" lon="4.75512">
        <ele>186</ele>
        <time>2017-12-29T11:15:38Z</time>
      </trkpt>
      <trkpt lat="45.95547" lon="4.75505">
        <ele>186</ele>
        <time>2017-12-29T11:15:39Z</time>
      </trkpt>
      <trkpt lat="45.95545" lon="4.75499">
        <ele>187</ele>
        <time>2017-12-29T11:15:40Z</time>
      </trkpt>
      <trkpt lat="45.95542" lon="4.75494">
        <ele>187</ele>
        <time>2017-12-29T11:15:41Z</time>
      </trkpt>
      <trkpt lat="45.95541" lon="4.75487">
        <ele>187</ele>
        <time>2017-12-29T11:15:42Z</time>
      </trkpt>
      <trkpt lat="45.95541" lon="4.75479">
        <ele>187</ele>
        <time>2017-12-29T11:15:43Z</time>
      </trkpt>
      <trkpt lat="45.95541" lon="4.75471">
        <ele>187</ele>
        <time>2017-12-29T11:15:44Z</time>
      </trkpt>
      <trkpt lat="45.95541" lon="4.75464">
        <ele>187</ele>
        <time>2017-12-29T11:15:45Z</time>
      </trkpt>
      <trkpt lat="45.95539" lon="4.75457">
        <ele>187</ele>
        <time>2017-12-29T11:15:46Z</time>
      </trkpt>
      <trkpt lat="45.95536" lon="4.75451">
        <ele>187</ele>
        <time>2017-12-29T11:15:47Z</time>
      </trkpt>
      <trkpt lat="45.95532" lon="4.75445">
        <ele>187</ele>
        <time>2017-12-29T11:15:48Z</time>
      </trkpt>
      <trkpt lat="45.95528" lon="4.75439">
        <ele>187</ele>
        <time>2017-12-29T11:15:49Z</time>
      </trkpt>
      <trkpt lat="45.95524" lon="4.75432">
        <ele>187</ele>
        <time>2017-12-29T11:15:50Z</time>
      </trkpt>
      <trkpt lat="45.9552" lon="4.75426">
        <ele>187</ele>
        <time>2017-12-29T11:15:51Z</time>
      </trkpt>
      <trkpt lat="45.95518" lon="4.75419">
        <ele>186</ele>
        <time>2017-12-29T11:15:52Z</time>
      </trkpt>
      <trkpt lat="45.95515" lon="4.75413">
        <ele>187</ele>
        <time>2017-12-29T11:15:53Z</time>
      </trkpt>
      <trkpt lat="45.95511" lon="4.75401">
        <ele>187</ele>
        <time>2017-12-29T11:15:55Z</time>
      </trkpt>
      <trkpt lat="45.95509" lon="4.75396">
        <ele>188</ele>
        <time>2017-12-29T11:15:56Z</time>
      </trkpt>
      <trkpt lat="45.95506" lon="4.75389">
        <ele>188</ele>
        <time>2017-12-29T11:15:57Z</time>
      </trkpt>
      <trkpt lat="45.95505" lon="4.75384">
        <ele>188</ele>
        <time>2017-12-29T11:15:58Z</time>
      </trkpt>
      <trkpt lat="45.95499" lon="4.75374">
        <ele>185</ele>
        <time>2017-12-29T11:16:00Z</time>
      </trkpt>
      <trkpt lat="45.95496" lon="4.7537">
        <ele>186</ele>
        <time>2017-12-29T11:16:01Z</time>
      </trkpt>
      <trkpt lat="45.95493" lon="4.75365">
        <ele>186</ele>
        <time>2017-12-29T11:16:02Z</time>
      </trkpt>
      <trkpt lat="45.9549" lon="4.7536">
        <ele>186</ele>
        <time>2017-12-29T11:16:03Z</time>
      </trkpt>
      <trkpt lat="45.95488" lon="4.75354">
        <ele>186</ele>
        <time>2017-12-29T11:16:04Z</time>
      </trkpt>
      <trkpt lat="45.95484" lon="4.75349">
        <ele>186</ele>
        <time>2017-12-29T11:16:05Z</time>
      </trkpt>
      <trkpt lat="45.95482" lon="4.75343">
        <ele>186</ele>
        <time>2017-12-29T11:16:06Z</time>
      </trkpt>
      <trkpt lat="45.95479" lon="4.75338">
        <ele>186</ele>
        <time>2017-12-29T11:16:07Z</time>
      </trkpt>
      <trkpt lat="45.95476" lon="4.75332">
        <ele>188</ele>
        <time>2017-12-29T11:16:08Z</time>
      </trkpt>
      <trkpt lat="45.95473" lon="4.75326">
        <ele>188</ele>
        <time>2017-12-29T11:16:09Z</time>
      </trkpt>
      <trkpt lat="45.9547" lon="4.75321">
        <ele>188</ele>
        <time>2017-12-29T11:16:10Z</time>
      </trkpt>
      <trkpt lat="45.95467" lon="4.75315">
        <ele>188</ele>
        <time>2017-12-29T11:16:11Z</time>
      </trkpt>
      <trkpt lat="45.95464" lon="4.7531">
        <ele>188</ele>
        <time>2017-12-29T11:16:12Z</time>
      </trkpt>
      <trkpt lat="45.95462" lon="4.75304">
        <ele>188</ele>
        <time>2017-12-29T11:16:13Z</time>
      </trkpt>
      <trkpt lat="45.95457" lon="4.75296">
        <ele>188</ele>
        <time>2017-12-29T11:16:15Z</time>
      </trkpt>
      <trkpt lat="45.95454" lon="4.75291">
        <ele>188</ele>
        <time>2017-12-29T11:16:16Z</time>
      </trkpt>
      <trkpt lat="45.9545" lon="4.75284">
        <ele>188</ele>
        <time>2017-12-29T11:16:17Z</time>
      </trkpt>
      <trkpt lat="45.95448" lon="4.75279">
        <ele>189</ele>
        <time>2017-12-29T11:16:18Z</time>
      </trkpt>
      <trkpt lat="45.95445" lon="4.75273">
        <ele>189</ele>
        <time>2017-12-29T11:16:19Z</time>
      </trkpt>
      <trkpt lat="45.95442" lon="4.75268">
        <ele>189</ele>
        <time>2017-12-29T11:16:20Z</time>
      </trkpt>
      <trkpt lat="45.95439" lon="4.75261">
        <ele>189</ele>
        <time>2017-12-29T11:16:21Z</time>
      </trkpt>
      <trkpt lat="45.95436" lon="4.75256">
        <ele>189</ele>
        <time>2017-12-29T11:16:22Z</time>
      </trkpt>
      <trkpt lat="45.95432" lon="4.75251">
        <ele>189</ele>
        <time>2017-12-29T11:16:23Z</time>
      </trkpt>
      <trkpt lat="45.9543" lon="4.75246">
        <ele>190</ele>
        <time>2017-12-29T11:16:24Z</time>
      </trkpt>
      <trkpt lat="45.95427" lon="4.75241">
        <ele>190</ele>
        <time>2017-12-29T11:16:25Z</time>
      </trkpt>
      <trkpt lat="45.95424" lon="4.75235">
        <ele>190</ele>
        <time>2017-12-29T11:16:26Z</time>
      </trkpt>
      <trkpt lat="45.95421" lon="4.7523">
        <ele>191</ele>
        <time>2017-12-29T11:16:27Z</time>
      </trkpt>
      <trkpt lat="45.95419" lon="4.75224">
        <ele>191</ele>
        <time>2017-12-29T11:16:28Z</time>
      </trkpt>
      <trkpt lat="45.95416" lon="4.75218">
        <ele>189</ele>
        <time>2017-12-29T11:16:29Z</time>
      </trkpt>
      <trkpt lat="45.95413" lon="4.75213">
        <ele>189</ele>
        <time>2017-12-29T11:16:30Z</time>
      </trkpt>
      <trkpt lat="45.9541" lon="4.75207">
        <ele>189</ele>
        <time>2017-12-29T11:16:31Z</time>
      </trkpt>
      <trkpt lat="45.95408" lon="4.75201">
        <ele>189</ele>
        <time>2017-12-29T11:16:32Z</time>
      </trkpt>
      <trkpt lat="45.95404" lon="4.75196">
        <ele>189</ele>
        <time>2017-12-29T11:16:33Z</time>
      </trkpt>
      <trkpt lat="45.95401" lon="4.75191">
        <ele>189</ele>
        <time>2017-12-29T11:16:34Z</time>
      </trkpt>
      <trkpt lat="45.95398" lon="4.75186">
        <ele>189</ele>
        <time>2017-12-29T11:16:35Z</time>
      </trkpt>
      <trkpt lat="45.95395" lon="4.7518">
        <ele>189</ele>
        <time>2017-12-29T11:16:36Z</time>
      </trkpt>
      <trkpt lat="45.95391" lon="4.75174">
        <ele>189</ele>
        <time>2017-12-29T11:16:37Z</time>
      </trkpt>
      <trkpt lat="45.95388" lon="4.75169">
        <ele>189</ele>
        <time>2017-12-29T11:16:38Z</time>
      </trkpt>
      <trkpt lat="45.95382" lon="4.7516">
        <ele>191</ele>
        <time>2017-12-29T11:16:40Z</time>
      </trkpt>
      <trkpt lat="45.95379" lon="4.75154">
        <ele>191</ele>
        <time>2017-12-29T11:16:41Z</time>
      </trkpt>
      <trkpt lat="45.95373" lon="4.75144">
        <ele>191</ele>
        <time>2017-12-29T11:16:43Z</time>
      </trkpt>
      <trkpt lat="45.9537" lon="4.75139">
        <ele>191</ele>
        <time>2017-12-29T11:16:44Z</time>
      </trkpt>
      <trkpt lat="45.95368" lon="4.75134">
        <ele>191</ele>
        <time>2017-12-29T11:16:45Z</time>
      </trkpt>
      <trkpt lat="45.95365" lon="4.75129">
        <ele>191</ele>
        <time>2017-12-29T11:16:46Z</time>
      </trkpt>
      <trkpt lat="45.95361" lon="4.75122">
        <ele>191</ele>
        <time>2017-12-29T11:16:47Z</time>
      </trkpt>
      <trkpt lat="45.95358" lon="4.75117">
        <ele>192</ele>
        <time>2017-12-29T11:16:48Z</time>
      </trkpt>
      <trkpt lat="45.95355" lon="4.75112">
        <ele>192</ele>
        <time>2017-12-29T11:16:49Z</time>
      </trkpt>
      <trkpt lat="45.95351" lon="4.75107">
        <ele>192</ele>
        <time>2017-12-29T11:16:50Z</time>
      </trkpt>
      <trkpt lat="45.95347" lon="4.75101">
        <ele>192</ele>
        <time>2017-12-29T11:16:51Z</time>
      </trkpt>
      <trkpt lat="45.95345" lon="4.75094">
        <ele>192</ele>
        <time>2017-12-29T11:16:52Z</time>
      </trkpt>
      <trkpt lat="45.95341" lon="4.7509">
        <ele>192</ele>
        <time>2017-12-29T11:16:53Z</time>
      </trkpt>
      <trkpt lat="45.95336" lon="4.75084">
        <ele>193</ele>
        <time>2017-12-29T11:16:54Z</time>
      </trkpt>
      <trkpt lat="45.95333" lon="4.75079">
        <ele>193</ele>
        <time>2017-12-29T11:16:55Z</time>
      </trkpt>
      <trkpt lat="45.9533" lon="4.75074">
        <ele>192</ele>
        <time>2017-12-29T11:16:56Z</time>
      </trkpt>
      <trkpt lat="45.95326" lon="4.75069">
        <ele>192</ele>
        <time>2017-12-29T11:16:57Z</time>
      </trkpt>
      <trkpt lat="45.95323" lon="4.75064">
        <ele>192</ele>
        <time>2017-12-29T11:16:58Z</time>
      </trkpt>
      <trkpt lat="45.95319" lon="4.75058">
        <ele>192</ele>
        <time>2017-12-29T11:16:59Z</time>
      </trkpt>
      <trkpt lat="45.95316" lon="4.75053">
        <ele>192</ele>
        <time>2017-12-29T11:17:00Z</time>
      </trkpt>
      <trkpt lat="45.95313" lon="4.75048">
        <ele>192</ele>
        <time>2017-12-29T11:17:01Z</time>
      </trkpt>
      <trkpt lat="45.95309" lon="4.75043">
        <ele>192</ele>
        <time>2017-12-29T11:17:02Z</time>
      </trkpt>
      <trkpt lat="45.95305" lon="4.75038">
        <ele>192</ele>
        <time>2017-12-29T11:17:03Z</time>
      </trkpt>
      <trkpt lat="45.95302" lon="4.75034">
        <ele>192</ele>
        <time>2017-12-29T11:17:04Z</time>
      </trkpt>
      <trkpt lat="45.95299" lon="4.75028">
        <ele>192</ele>
        <time>2017-12-29T11:17:05Z</time>
      </trkpt>
      <trkpt lat="45.95295" lon="4.75023">
        <ele>191</ele>
        <time>2017-12-29T11:17:06Z</time>
      </trkpt>
      <trkpt lat="45.95289" lon="4.75015">
        <ele>191</ele>
        <time>2017-12-29T11:17:08Z</time>
      </trkpt>
      <trkpt lat="45.95285" lon="4.7501">
        <ele>191</ele>
        <time>2017-12-29T11:17:09Z</time>
      </trkpt>
      <trkpt lat="45.95282" lon="4.75005">
        <ele>191</ele>
        <time>2017-12-29T11:17:10Z</time>
      </trkpt>
      <trkpt lat="45.95278" lon="4.74998">
        <ele>192</ele>
        <time>2017-12-29T11:17:11Z</time>
      </trkpt>
      <trkpt lat="45.95274" lon="4.74993">
        <ele>192</ele>
        <time>2017-12-29T11:17:12Z</time>
      </trkpt>
      <trkpt lat="45.95271" lon="4.74988">
        <ele>192</ele>
        <time>2017-12-29T11:17:13Z</time>
      </trkpt>
      <trkpt lat="45.95268" lon="4.74982">
        <ele>192</ele>
        <time>2017-12-29T11:17:14Z</time>
      </trkpt>
      <trkpt lat="45.95265" lon="4.74977">
        <ele>192</ele>
        <time>2017-12-29T11:17:15Z</time>
      </trkpt>
      <trkpt lat="45.95261" lon="4.7497">
        <ele>192</ele>
        <time>2017-12-29T11:17:16Z</time>
      </trkpt>
      <trkpt lat="45.95258" lon="4.74964">
        <ele>192</ele>
        <time>2017-12-29T11:17:17Z</time>
      </trkpt>
      <trkpt lat="45.95254" lon="4.74959">
        <ele>192</ele>
        <time>2017-12-29T11:17:18Z</time>
      </trkpt>
      <trkpt lat="45.9525" lon="4.74954">
        <ele>192</ele>
        <time>2017-12-29T11:17:19Z</time>
      </trkpt>
      <trkpt lat="45.95244" lon="4.74945">
        <ele>192</ele>
        <time>2017-12-29T11:17:21Z</time>
      </trkpt>
      <trkpt lat="45.9524" lon="4.74939">
        <ele>192</ele>
        <time>2017-12-29T11:17:22Z</time>
      </trkpt>
      <trkpt lat="45.95236" lon="4.74935">
        <ele>192</ele>
        <time>2017-12-29T11:17:23Z</time>
      </trkpt>
      <trkpt lat="45.95233" lon="4.7493">
        <ele>192</ele>
        <time>2017-12-29T11:17:24Z</time>
      </trkpt>
      <trkpt lat="45.95226" lon="4.74922">
        <ele>192</ele>
        <time>2017-12-29T11:17:26Z</time>
      </trkpt>
      <trkpt lat="45.95223" lon="4.74916">
        <ele>193</ele>
        <time>2017-12-29T11:17:27Z</time>
      </trkpt>
      <trkpt lat="45.9522" lon="4.74911">
        <ele>193</ele>
        <time>2017-12-29T11:17:28Z</time>
      </trkpt>
      <trkpt lat="45.95216" lon="4.74906">
        <ele>193</ele>
        <time>2017-12-29T11:17:29Z</time>
      </trkpt>
      <trkpt lat="45.95212" lon="4.74901">
        <ele>193</ele>
        <time>2017-12-29T11:17:30Z</time>
      </trkpt>
      <trkpt lat="45.95209" lon="4.74896">
        <ele>193</ele>
        <time>2017-12-29T11:17:31Z</time>
      </trkpt>
      <trkpt lat="45.95205" lon="4.7489">
        <ele>194</ele>
        <time>2017-12-29T11:17:32Z</time>
      </trkpt>
      <trkpt lat="45.95201" lon="4.74884">
        <ele>194</ele>
        <time>2017-12-29T11:17:33Z</time>
      </trkpt>
      <trkpt lat="45.95198" lon="4.74878">
        <ele>194</ele>
        <time>2017-12-29T11:17:34Z</time>
      </trkpt>
      <trkpt lat="45.95194" lon="4.74874">
        <ele>194</ele>
        <time>2017-12-29T11:17:35Z</time>
      </trkpt>
      <trkpt lat="45.95191" lon="4.74868">
        <ele>194</ele>
        <time>2017-12-29T11:17:36Z</time>
      </trkpt>
      <trkpt lat="45.95188" lon="4.74863">
        <ele>194</ele>
        <time>2017-12-29T11:17:37Z</time>
      </trkpt>
      <trkpt lat="45.95186" lon="4.74858">
        <ele>194</ele>
        <time>2017-12-29T11:17:38Z</time>
      </trkpt>
      <trkpt lat="45.95182" lon="4.74853">
        <ele>194</ele>
        <time>2017-12-29T11:17:39Z</time>
      </trkpt>
      <trkpt lat="45.95179" lon="4.74847">
        <ele>194</ele>
        <time>2017-12-29T11:17:40Z</time>
      </trkpt>
      <trkpt lat="45.95176" lon="4.74841">
        <ele>194</ele>
        <time>2017-12-29T11:17:41Z</time>
      </trkpt>
      <trkpt lat="45.95173" lon="4.74835">
        <ele>194</ele>
        <time>2017-12-29T11:17:42Z</time>
      </trkpt>
      <trkpt lat="45.9517" lon="4.7483">
        <ele>194</ele>
        <time>2017-12-29T11:17:43Z</time>
      </trkpt>
      <trkpt lat="45.95167" lon="4.74823">
        <ele>194</ele>
        <time>2017-12-29T11:17:44Z</time>
      </trkpt>
      <trkpt lat="45.95164" lon="4.74816">
        <ele>194</ele>
        <time>2017-12-29T11:17:45Z</time>
      </trkpt>
      <trkpt lat="45.9516" lon="4.74812">
        <ele>194</ele>
        <time>2017-12-29T11:17:46Z</time>
      </trkpt>
      <trkpt lat="45.95158" lon="4.74805">
        <ele>194</ele>
        <time>2017-12-29T11:17:47Z</time>
      </trkpt>
      <trkpt lat="45.95154" lon="4.748">
        <ele>194</ele>
        <time>2017-12-29T11:17:48Z</time>
      </trkpt>
      <trkpt lat="45.95151" lon="4.74794">
        <ele>194</ele>
        <time>2017-12-29T11:17:49Z</time>
      </trkpt>
      <trkpt lat="45.95147" lon="4.74788">
        <ele>194</ele>
        <time>2017-12-29T11:17:50Z</time>
      </trkpt>
      <trkpt lat="45.95143" lon="4.74782">
        <ele>194</ele>
        <time>2017-12-29T11:17:51Z</time>
      </trkpt>
      <trkpt lat="45.95139" lon="4.74776">
        <ele>194</ele>
        <time>2017-12-29T11:17:52Z</time>
      </trkpt>
      <trkpt lat="45.95135" lon="4.7477">
        <ele>194</ele>
        <time>2017-12-29T11:17:53Z</time>
      </trkpt>
      <trkpt lat="45.95131" lon="4.74766">
        <ele>194</ele>
        <time>2017-12-29T11:17:54Z</time>
      </trkpt>
      <trkpt lat="45.95127" lon="4.7476">
        <ele>194</ele>
        <time>2017-12-29T11:17:55Z</time>
      </trkpt>
      <trkpt lat="45.95123" lon="4.74754">
        <ele>194</ele>
        <time>2017-12-29T11:17:56Z</time>
      </trkpt>
      <trkpt lat="45.9512" lon="4.74749">
        <ele>194</ele>
        <time>2017-12-29T11:17:57Z</time>
      </trkpt>
      <trkpt lat="45.95117" lon="4.74743">
        <ele>194</ele>
        <time>2017-12-29T11:17:58Z</time>
      </trkpt>
      <trkpt lat="45.95113" lon="4.74737">
        <ele>194</ele>
        <time>2017-12-29T11:17:59Z</time>
      </trkpt>
      <trkpt lat="45.9511" lon="4.7473">
        <ele>194</ele>
        <time>2017-12-29T11:18:00Z</time>
      </trkpt>
      <trkpt lat="45.95107" lon="4.74723">
        <ele>194</ele>
        <time>2017-12-29T11:18:01Z</time>
      </trkpt>
      <trkpt lat="45.95104" lon="4.74717">
        <ele>194</ele>
        <time>2017-12-29T11:18:02Z</time>
      </trkpt>
      <trkpt lat="45.95101" lon="4.7471">
        <ele>194</ele>
        <time>2017-12-29T11:18:03Z</time>
      </trkpt>
      <trkpt lat="45.95098" lon="4.74702">
        <ele>194</ele>
        <time>2017-12-29T11:18:04Z</time>
      </trkpt>
      <trkpt lat="45.95095" lon="4.74697">
        <ele>194</ele>
        <time>2017-12-29T11:18:05Z</time>
      </trkpt>
      <trkpt lat="45.95092" lon="4.74692">
        <ele>194</ele>
        <time>2017-12-29T11:18:06Z</time>
      </trkpt>
      <trkpt lat="45.95088" lon="4.74685">
        <ele>195</ele>
        <time>2017-12-29T11:18:07Z</time>
      </trkpt>
      <trkpt lat="45.95084" lon="4.74679">
        <ele>195</ele>
        <time>2017-12-29T11:18:08Z</time>
      </trkpt>
      <trkpt lat="45.95081" lon="4.74673">
        <ele>195</ele>
        <time>2017-12-29T11:18:09Z</time>
      </trkpt>
      <trkpt lat="45.95077" lon="4.74668">
        <ele>195</ele>
        <time>2017-12-29T11:18:10Z</time>
      </trkpt>
      <trkpt lat="45.95074" lon="4.74663">
        <ele>195</ele>
        <time>2017-12-29T11:18:11Z</time>
      </trkpt>
      <trkpt lat="45.95071" lon="4.74657">
        <ele>195</ele>
        <time>2017-12-29T11:18:12Z</time>
      </trkpt>
      <trkpt lat="45.95068" lon="4.74651">
        <ele>195</ele>
        <time>2017-12-29T11:18:13Z</time>
      </trkpt>
      <trkpt lat="45.95065" lon="4.74645">
        <ele>195</ele>
        <time>2017-12-29T11:18:14Z</time>
      </trkpt>
      <trkpt lat="45.95062" lon="4.74639">
        <ele>194</ele>
        <time>2017-12-29T11:18:15Z</time>
      </trkpt>
      <trkpt lat="45.95058" lon="4.74633">
        <ele>194</ele>
        <time>2017-12-29T11:18:16Z</time>
      </trkpt>
      <trkpt lat="45.95056" lon="4.74628">
        <ele>194</ele>
        <time>2017-12-29T11:18:17Z</time>
      </trkpt>
      <trkpt lat="45.95052" lon="4.74622">
        <ele>194</ele>
        <time>2017-12-29T11:18:18Z</time>
      </trkpt>
      <trkpt lat="45.95049" lon="4.74616">
        <ele>194</ele>
        <time>2017-12-29T11:18:19Z</time>
      </trkpt>
      <trkpt lat="45.95046" lon="4.7461">
        <ele>194</ele>
        <time>2017-12-29T11:18:20Z</time>
      </trkpt>
      <trkpt lat="45.95043" lon="4.74604">
        <ele>194</ele>
        <time>2017-12-29T11:18:21Z</time>
      </trkpt>
      <trkpt lat="45.9504" lon="4.74598">
        <ele>194</ele>
        <time>2017-12-29T11:18:22Z</time>
      </trkpt>
      <trkpt lat="45.95037" lon="4.74592">
        <ele>194</ele>
        <time>2017-12-29T11:18:23Z</time>
      </trkpt>
      <trkpt lat="45.95033" lon="4.74586">
        <ele>194</ele>
        <time>2017-12-29T11:18:24Z</time>
      </trkpt>
      <trkpt lat="45.9503" lon="4.7458">
        <ele>194</ele>
        <time>2017-12-29T11:18:25Z</time>
      </trkpt>
      <trkpt lat="45.95027" lon="4.74575">
        <ele>194</ele>
        <time>2017-12-29T11:18:26Z</time>
      </trkpt>
      <trkpt lat="45.95023" lon="4.74569">
        <ele>194</ele>
        <time>2017-12-29T11:18:27Z</time>
      </trkpt>
      <trkpt lat="45.9502" lon="4.74562">
        <ele>194</ele>
        <time>2017-12-29T11:18:28Z</time>
      </trkpt>
      <trkpt lat="45.95017" lon="4.74557">
        <ele>194</ele>
        <time>2017-12-29T11:18:29Z</time>
      </trkpt>
      <trkpt lat="45.95014" lon="4.74552">
        <ele>194</ele>
        <time>2017-12-29T11:18:30Z</time>
      </trkpt>
      <trkpt lat="45.95011" lon="4.74545">
        <ele>194</ele>
        <time>2017-12-29T11:18:31Z</time>
      </trkpt>
      <trkpt lat="45.95007" lon="4.74539">
        <ele>194</ele>
        <time>2017-12-29T11:18:32Z</time>
      </trkpt>
      <trkpt lat="45.95004" lon="4.74533">
        <ele>194</ele>
        <time>2017-12-29T11:18:33Z</time>
      </trkpt>
      <trkpt lat="45.95001" lon="4.74526">
        <ele>194</ele>
        <time>2017-12-29T11:18:34Z</time>
      </trkpt>
      <trkpt lat="45.94998" lon="4.7452">
        <ele>193</ele>
        <time>2017-12-29T11:18:35Z</time>
      </trkpt>
      <trkpt lat="45.94995" lon="4.74515">
        <ele>193</ele>
        <time>2017-12-29T11:18:36Z</time>
      </trkpt>
      <trkpt lat="45.94992" lon="4.7451">
        <ele>193</ele>
        <time>2017-12-29T11:18:37Z</time>
      </trkpt>
      <trkpt lat="45.94989" lon="4.74503">
        <ele>193</ele>
        <time>2017-12-29T11:18:38Z</time>
      </trkpt>
      <trkpt lat="45.94987" lon="4.74498">
        <ele>193</ele>
        <time>2017-12-29T11:18:39Z</time>
      </trkpt>
      <trkpt lat="45.94984" lon="4.74494">
        <ele>193</ele>
        <time>2017-12-29T11:18:40Z</time>
      </trkpt>
      <trkpt lat="45.94981" lon="4.74488">
        <ele>193</ele>
        <time>2017-12-29T11:18:41Z</time>
      </trkpt>
      <trkpt lat="45.94978" lon="4.74483">
        <ele>193</ele>
        <time>2017-12-29T11:18:42Z</time>
      </trkpt>
      <trkpt lat="45.94975" lon="4.74477">
        <ele>193</ele>
        <time>2017-12-29T11:18:43Z</time>
      </trkpt>
      <trkpt lat="45.94972" lon="4.74472">
        <ele>193</ele>
        <time>2017-12-29T11:18:44Z</time>
      </trkpt>
      <trkpt lat="45.94969" lon="4.74467">
        <ele>193</ele>
        <time>2017-12-29T11:18:45Z</time>
      </trkpt>
      <trkpt lat="45.94966" lon="4.74463">
        <ele>193</ele>
        <time>2017-12-29T11:18:46Z</time>
      </trkpt>
      <trkpt lat="45.94962" lon="4.74455">
        <ele>192</ele>
        <time>2017-12-29T11:18:47Z</time>
      </trkpt>
      <trkpt lat="45.9496" lon="4.74448">
        <ele>192</ele>
        <time>2017-12-29T11:18:48Z</time>
      </trkpt>
      <trkpt lat="45.94956" lon="4.74441">
        <ele>192</ele>
        <time>2017-12-29T11:18:49Z</time>
      </trkpt>
      <trkpt lat="45.94952" lon="4.74435">
        <ele>192</ele>
        <time>2017-12-29T11:18:50Z</time>
      </trkpt>
      <trkpt lat="45.94949" lon="4.74427">
        <ele>192</ele>
        <time>2017-12-29T11:18:51Z</time>
      </trkpt>
      <trkpt lat="45.94945" lon="4.74421">
        <ele>192</ele>
        <time>2017-12-29T11:18:52Z</time>
      </trkpt>
      <trkpt lat="45.94942" lon="4.74414">
        <ele>192</ele>
        <time>2017-12-29T11:18:53Z</time>
      </trkpt>
      <trkpt lat="45.94938" lon="4.74408">
        <ele>192</ele>
        <time>2017-12-29T11:18:54Z</time>
      </trkpt>
      <trkpt lat="45.94934" lon="4.74401">
        <ele>192</ele>
        <time>2017-12-29T11:18:55Z</time>
      </trkpt>
      <trkpt lat="45.9493" lon="4.74393">
        <ele>192</ele>
        <time>2017-12-29T11:18:56Z</time>
      </trkpt>
      <trkpt lat="45.94927" lon="4.74386">
        <ele>192</ele>
        <time>2017-12-29T11:18:57Z</time>
      </trkpt>
      <trkpt lat="45.94923" lon="4.74379">
        <ele>192</ele>
        <time>2017-12-29T11:18:58Z</time>
      </trkpt>
      <trkpt lat="45.9492" lon="4.74372">
        <ele>192</ele>
        <time>2017-12-29T11:18:59Z</time>
      </trkpt>
      <trkpt lat="45.94916" lon="4.74365">
        <ele>191</ele>
        <time>2017-12-29T11:19:00Z</time>
      </trkpt>
      <trkpt lat="45.94913" lon="4.74357">
        <ele>191</ele>
        <time>2017-12-29T11:19:01Z</time>
      </trkpt>
      <trkpt lat="45.9491" lon="4.7435">
        <ele>191</ele>
        <time>2017-12-29T11:19:02Z</time>
      </trkpt>
      <trkpt lat="45.94906" lon="4.74344">
        <ele>191</ele>
        <time>2017-12-29T11:19:03Z</time>
      </trkpt>
      <trkpt lat="45.94903" lon="4.74337">
        <ele>191</ele>
        <time>2017-12-29T11:19:04Z</time>
      </trkpt>
      <trkpt lat="45.949" lon="4.74332">
        <ele>191</ele>
        <time>2017-12-29T11:19:05Z</time>
      </trkpt>
      <trkpt lat="45.94896" lon="4.74325">
        <ele>191</ele>
        <time>2017-12-29T11:19:06Z</time>
      </trkpt>
      <trkpt lat="45.94893" lon="4.7432">
        <ele>191</ele>
        <time>2017-12-29T11:19:07Z</time>
      </trkpt>
      <trkpt lat="45.9489" lon="4.74314">
        <ele>191</ele>
        <time>2017-12-29T11:19:08Z</time>
      </trkpt>
      <trkpt lat="45.94887" lon="4.74308">
        <ele>191</ele>
        <time>2017-12-29T11:19:09Z</time>
      </trkpt>
      <trkpt lat="45.94884" lon="4.74303">
        <ele>191</ele>
        <time>2017-12-29T11:19:10Z</time>
      </trkpt>
      <trkpt lat="45.9488" lon="4.74297">
        <ele>191</ele>
        <time>2017-12-29T11:19:11Z</time>
      </trkpt>
      <trkpt lat="45.94876" lon="4.74291">
        <ele>191</ele>
        <time>2017-12-29T11:19:12Z</time>
      </trkpt>
      <trkpt lat="45.94873" lon="4.74285">
        <ele>191</ele>
        <time>2017-12-29T11:19:13Z</time>
      </trkpt>
      <trkpt lat="45.94869" lon="4.74278">
        <ele>191</ele>
        <time>2017-12-29T11:19:14Z</time>
      </trkpt>
      <trkpt lat="45.94865" lon="4.74272">
        <ele>190</ele>
        <time>2017-12-29T11:19:15Z</time>
      </trkpt>
      <trkpt lat="45.94862" lon="4.74264">
        <ele>190</ele>
        <time>2017-12-29T11:19:16Z</time>
      </trkpt>
      <trkpt lat="45.94858" lon="4.74257">
        <ele>190</ele>
        <time>2017-12-29T11:19:17Z</time>
      </trkpt>
      <trkpt lat="45.94855" lon="4.7425">
        <ele>190</ele>
        <time>2017-12-29T11:19:18Z</time>
      </trkpt>
      <trkpt lat="45.94852" lon="4.74243">
        <ele>190</ele>
        <time>2017-12-29T11:19:19Z</time>
      </trkpt>
      <trkpt lat="45.94849" lon="4.74236">
        <ele>190</ele>
        <time>2017-12-29T11:19:20Z</time>
      </trkpt>
      <trkpt lat="45.94847" lon="4.74229">
        <ele>190</ele>
        <time>2017-12-29T11:19:21Z</time>
      </trkpt>
      <trkpt lat="45.94844" lon="4.74223">
        <ele>190</ele>
        <time>2017-12-29T11:19:22Z</time>
      </trkpt>
      <trkpt lat="45.9484" lon="4.74217">
        <ele>190</ele>
        <time>2017-12-29T11:19:23Z</time>
      </trkpt>
      <trkpt lat="45.94836" lon="4.74211">
        <ele>190</ele>
        <time>2017-12-29T11:19:24Z</time>
      </trkpt>
      <trkpt lat="45.94832" lon="4.74204">
        <ele>189</ele>
        <time>2017-12-29T11:19:25Z</time>
      </trkpt>
      <trkpt lat="45.94828" lon="4.74199">
        <ele>189</ele>
        <time>2017-12-29T11:19:26Z</time>
      </trkpt>
      <trkpt lat="45.94826" lon="4.74193">
        <ele>189</ele>
        <time>2017-12-29T11:19:27Z</time>
      </trkpt>
      <trkpt lat="45.94822" lon="4.74187">
        <ele>189</ele>
        <time>2017-12-29T11:19:28Z</time>
      </trkpt>
      <trkpt lat="45.94819" lon="4.74182">
        <ele>189</ele>
        <time>2017-12-29T11:19:29Z</time>
      </trkpt>
      <trkpt lat="45.94816" lon="4.74177">
        <ele>189</ele>
        <time>2017-12-29T11:19:30Z</time>
      </trkpt>
      <trkpt lat="45.94814" lon="4.74169">
        <ele>189</ele>
        <time>2017-12-29T11:19:31Z</time>
      </trkpt>
      <trkpt lat="45.9481" lon="4.74163">
        <ele>189</ele>
        <time>2017-12-29T11:19:32Z</time>
      </trkpt>
      <trkpt lat="45.94806" lon="4.74157">
        <ele>189</ele>
        <time>2017-12-29T11:19:33Z</time>
      </trkpt>
      <trkpt lat="45.94802" lon="4.74152">
        <ele>189</ele>
        <time>2017-12-29T11:19:34Z</time>
      </trkpt>
      <trkpt lat="45.948" lon="4.74146">
        <ele>189</ele>
        <time>2017-12-29T11:19:35Z</time>
      </trkpt>
      <trkpt lat="45.94796" lon="4.7414">
        <ele>189</ele>
        <time>2017-12-29T11:19:36Z</time>
      </trkpt>
      <trkpt lat="45.94792" lon="4.74133">
        <ele>189</ele>
        <time>2017-12-29T11:19:37Z</time>
      </trkpt>
      <trkpt lat="45.94788" lon="4.74127">
        <ele>189</ele>
        <time>2017-12-29T11:19:38Z</time>
      </trkpt>
      <trkpt lat="45.94784" lon="4.74121">
        <ele>189</ele>
        <time>2017-12-29T11:19:39Z</time>
      </trkpt>
      <trkpt lat="45.9478" lon="4.74115">
        <ele>189</ele>
        <time>2017-12-29T11:19:40Z</time>
      </trkpt>
      <trkpt lat="45.94776" lon="4.74109">
        <ele>189</ele>
        <time>2017-12-29T11:19:41Z</time>
      </trkpt>
      <trkpt lat="45.94772" lon="4.74105">
        <ele>189</ele>
        <time>2017-12-29T11:19:42Z</time>
      </trkpt>
      <trkpt lat="45.94767" lon="4.74099">
        <ele>189</ele>
        <time>2017-12-29T11:19:43Z</time>
      </trkpt>
      <trkpt lat="45.94762" lon="4.74094">
        <ele>189</ele>
        <time>2017-12-29T11:19:44Z</time>
      </trkpt>
      <trkpt lat="45.94759" lon="4.74088">
        <ele>189</ele>
        <time>2017-12-29T11:19:45Z</time>
      </trkpt>
      <trkpt lat="45.94755" lon="4.74083">
        <ele>189</ele>
        <time>2017-12-29T11:19:46Z</time>
      </trkpt>
      <trkpt lat="45.94751" lon="4.74077">
        <ele>189</ele>
        <time>2017-12-29T11:19:47Z</time>
      </trkpt>
      <trkpt lat="45.94748" lon="4.74072">
        <ele>188</ele>
        <time>2017-12-29T11:19:48Z</time>
      </trkpt>
      <trkpt lat="45.94745" lon="4.74064">
        <ele>188</ele>
        <time>2017-12-29T11:19:49Z</time>
      </trkpt>
      <trkpt lat="45.9474" lon="4.74059">
        <ele>188</ele>
        <time>2017-12-29T11:19:50Z</time>
      </trkpt>
      <trkpt lat="45.94736" lon="4.74054">
        <ele>188</ele>
        <time>2017-12-29T11:19:51Z</time>
      </trkpt>
      <trkpt lat="45.94732" lon="4.74049">
        <ele>188</ele>
        <time>2017-12-29T11:19:52Z</time>
      </trkpt>
      <trkpt lat="45.94728" lon="4.74041">
        <ele>188</ele>
        <time>2017-12-29T11:19:53Z</time>
      </trkpt>
      <trkpt lat="45.94724" lon="4.74035">
        <ele>187</ele>
        <time>2017-12-29T11:19:54Z</time>
      </trkpt>
      <trkpt lat="45.9472" lon="4.7403">
        <ele>187</ele>
        <time>2017-12-29T11:19:55Z</time>
      </trkpt>
      <trkpt lat="45.94717" lon="4.74025">
        <ele>187</ele>
        <time>2017-12-29T11:19:56Z</time>
      </trkpt>
      <trkpt lat="45.94714" lon="4.74018">
        <ele>187</ele>
        <time>2017-12-29T11:19:57Z</time>
      </trkpt>
      <trkpt lat="45.9471" lon="4.74013">
        <ele>187</ele>
        <time>2017-12-29T11:19:58Z</time>
      </trkpt>
      <trkpt lat="45.94707" lon="4.74008">
        <ele>187</ele>
        <time>2017-12-29T11:19:59Z</time>
      </trkpt>
      <trkpt lat="45.947" lon="4.74">
        <ele>187</ele>
        <time>2017-12-29T11:20:01Z</time>
      </trkpt>
      <trkpt lat="45.94696" lon="4.73995">
        <ele>187</ele>
        <time>2017-12-29T11:20:02Z</time>
      </trkpt>
      <trkpt lat="45.94693" lon="4.73991">
        <ele>187</ele>
        <time>2017-12-29T11:20:03Z</time>
      </trkpt>
      <trkpt lat="45.94689" lon="4.73986">
        <ele>187</ele>
        <time>2017-12-29T11:20:04Z</time>
      </trkpt>
      <trkpt lat="45.94686" lon="4.73982">
        <ele>187</ele>
        <time>2017-12-29T11:20:05Z</time>
      </trkpt>
      <trkpt lat="45.94682" lon="4.73977">
        <ele>187</ele>
        <time>2017-12-29T11:20:06Z</time>
      </trkpt>
      <trkpt lat="45.94678" lon="4.73972">
        <ele>187</ele>
        <time>2017-12-29T11:20:07Z</time>
      </trkpt>
      <trkpt lat="45.94674" lon="4.73967">
        <ele>187</ele>
        <time>2017-12-29T11:20:08Z</time>
      </trkpt>
      <trkpt lat="45.94671" lon="4.73962">
        <ele>187</ele>
        <time>2017-12-29T11:20:09Z</time>
      </trkpt>
      <trkpt lat="45.94666" lon="4.73957">
        <ele>187</ele>
        <time>2017-12-29T11:20:10Z</time>
      </trkpt>
      <trkpt lat="45.94662" lon="4.73951">
        <ele>187</ele>
        <time>2017-12-29T11:20:11Z</time>
      </trkpt>
      <trkpt lat="45.94657" lon="4.73945">
        <ele>187</ele>
        <time>2017-12-29T11:20:12Z</time>
      </trkpt>
      <trkpt lat="45.94653" lon="4.7394">
        <ele>187</ele>
        <time>2017-12-29T11:20:13Z</time>
      </trkpt>
      <trkpt lat="45.94648" lon="4.73935">
        <ele>187</ele>
        <time>2017-12-29T11:20:14Z</time>
      </trkpt>
      <trkpt lat="45.94644" lon="4.73929">
        <ele>187</ele>
        <time>2017-12-29T11:20:15Z</time>
      </trkpt>
      <trkpt lat="45.94639" lon="4.73924">
        <ele>187</ele>
        <time>2017-12-29T11:20:16Z</time>
      </trkpt>
      <trkpt lat="45.94635" lon="4.73919">
        <ele>187</ele>
        <time>2017-12-29T11:20:17Z</time>
      </trkpt>
      <trkpt lat="45.94631" lon="4.73914">
        <ele>187</ele>
        <time>2017-12-29T11:20:18Z</time>
      </trkpt>
      <trkpt lat="45.94627" lon="4.73909">
        <ele>187</ele>
        <time>2017-12-29T11:20:19Z</time>
      </trkpt>
      <trkpt lat="45.94623" lon="4.73904">
        <ele>187</ele>
        <time>2017-12-29T11:20:20Z</time>
      </trkpt>
      <trkpt lat="45.94618" lon="4.739">
        <ele>187</ele>
        <time>2017-12-29T11:20:21Z</time>
      </trkpt>
      <trkpt lat="45.94614" lon="4.73895">
        <ele>187</ele>
        <time>2017-12-29T11:20:22Z</time>
      </trkpt>
      <trkpt lat="45.9461" lon="4.7389">
        <ele>187</ele>
        <time>2017-12-29T11:20:23Z</time>
      </trkpt>
      <trkpt lat="45.94606" lon="4.73885">
        <ele>187</ele>
        <time>2017-12-29T11:20:24Z</time>
      </trkpt>
      <trkpt lat="45.94602" lon="4.73881">
        <ele>187</ele>
        <time>2017-12-29T11:20:25Z</time>
      </trkpt>
      <trkpt lat="45.94597" lon="4.73876">
        <ele>187</ele>
        <time>2017-12-29T11:20:26Z</time>
      </trkpt>
      <trkpt lat="45.94593" lon="4.7387">
        <ele>187</ele>
        <time>2017-12-29T11:20:27Z</time>
      </trkpt>
      <trkpt lat="45.94589" lon="4.73863">
        <ele>187</ele>
        <time>2017-12-29T11:20:28Z</time>
      </trkpt>
      <trkpt lat="45.94584" lon="4.73858">
        <ele>187</ele>
        <time>2017-12-29T11:20:29Z</time>
      </trkpt>
      <trkpt lat="45.94579" lon="4.73853">
        <ele>186</ele>
        <time>2017-12-29T11:20:30Z</time>
      </trkpt>
      <trkpt lat="45.94574" lon="4.73848">
        <ele>186</ele>
        <time>2017-12-29T11:20:31Z</time>
      </trkpt>
      <trkpt lat="45.94569" lon="4.73844">
        <ele>186</ele>
        <time>2017-12-29T11:20:32Z</time>
      </trkpt>
      <trkpt lat="45.94564" lon="4.73839">
        <ele>186</ele>
        <time>2017-12-29T11:20:33Z</time>
      </trkpt>
      <trkpt lat="45.94559" lon="4.73833">
        <ele>186</ele>
        <time>2017-12-29T11:20:34Z</time>
      </trkpt>
      <trkpt lat="45.94555" lon="4.73829">
        <ele>186</ele>
        <time>2017-12-29T11:20:35Z</time>
      </trkpt>
      <trkpt lat="45.94551" lon="4.73825">
        <ele>186</ele>
        <time>2017-12-29T11:20:36Z</time>
      </trkpt>
      <trkpt lat="45.94547" lon="4.73821">
        <ele>186</ele>
        <time>2017-12-29T11:20:37Z</time>
      </trkpt>
      <trkpt lat="45.94542" lon="4.73816">
        <ele>186</ele>
        <time>2017-12-29T11:20:38Z</time>
      </trkpt>
      <trkpt lat="45.94538" lon="4.73811">
        <ele>186</ele>
        <time>2017-12-29T11:20:39Z</time>
      </trkpt>
      <trkpt lat="45.94534" lon="4.73806">
        <ele>186</ele>
        <time>2017-12-29T11:20:40Z</time>
      </trkpt>
      <trkpt lat="45.9453" lon="4.73803">
        <ele>186</ele>
        <time>2017-12-29T11:20:41Z</time>
      </trkpt>
      <trkpt lat="45.94526" lon="4.73799">
        <ele>186</ele>
        <time>2017-12-29T11:20:42Z</time>
      </trkpt>
      <trkpt lat="45.94522" lon="4.73795">
        <ele>186</ele>
        <time>2017-12-29T11:20:43Z</time>
      </trkpt>
      <trkpt lat="45.94518" lon="4.73793">
        <ele>186</ele>
        <time>2017-12-29T11:20:44Z</time>
      </trkpt>
      <trkpt lat="45.94514" lon="4.73789">
        <ele>186</ele>
        <time>2017-12-29T11:20:45Z</time>
      </trkpt>
      <trkpt lat="45.94509" lon="4.73785">
        <ele>186</ele>
        <time>2017-12-29T11:20:46Z</time>
      </trkpt>
      <trkpt lat="45.94504" lon="4.73781">
        <ele>186</ele>
        <time>2017-12-29T11:20:47Z</time>
      </trkpt>
      <trkpt lat="45.945" lon="4.73775">
        <ele>186</ele>
        <time>2017-12-29T11:20:48Z</time>
      </trkpt>
      <trkpt lat="45.94497" lon="4.7377">
        <ele>186</ele>
        <time>2017-12-29T11:20:49Z</time>
      </trkpt>
      <trkpt lat="45.94493" lon="4.73765">
        <ele>186</ele>
        <time>2017-12-29T11:20:50Z</time>
      </trkpt>
      <trkpt lat="45.94488" lon="4.73754">
        <ele>186</ele>
        <time>2017-12-29T11:20:52Z</time>
      </trkpt>
      <trkpt lat="45.94487" lon="4.73747">
        <ele>186</ele>
        <time>2017-12-29T11:20:53Z</time>
      </trkpt>
      <trkpt lat="45.94487" lon="4.73734">
        <ele>186</ele>
        <time>2017-12-29T11:20:55Z</time>
      </trkpt>
      <trkpt lat="45.94487" lon="4.73727">
        <ele>186</ele>
        <time>2017-12-29T11:20:56Z</time>
      </trkpt>
      <trkpt lat="45.94488" lon="4.73719">
        <ele>186</ele>
        <time>2017-12-29T11:20:57Z</time>
      </trkpt>
      <trkpt lat="45.94489" lon="4.73712">
        <ele>186</ele>
        <time>2017-12-29T11:20:58Z</time>
      </trkpt>
      <trkpt lat="45.9449" lon="4.73703">
        <ele>186</ele>
        <time>2017-12-29T11:20:59Z</time>
      </trkpt>
      <trkpt lat="45.94491" lon="4.73694">
        <ele>186</ele>
        <time>2017-12-29T11:21:00Z</time>
      </trkpt>
      <trkpt lat="45.94493" lon="4.73686">
        <ele>186</ele>
        <time>2017-12-29T11:21:01Z</time>
      </trkpt>
      <trkpt lat="45.94495" lon="4.73678">
        <ele>185</ele>
        <time>2017-12-29T11:21:02Z</time>
      </trkpt>
      <trkpt lat="45.94496" lon="4.73671">
        <ele>185</ele>
        <time>2017-12-29T11:21:03Z</time>
      </trkpt>
      <trkpt lat="45.94497" lon="4.73663">
        <ele>185</ele>
        <time>2017-12-29T11:21:04Z</time>
      </trkpt>
      <trkpt lat="45.94498" lon="4.73656">
        <ele>185</ele>
        <time>2017-12-29T11:21:05Z</time>
      </trkpt>
      <trkpt lat="45.945" lon="4.73648">
        <ele>185</ele>
        <time>2017-12-29T11:21:06Z</time>
      </trkpt>
      <trkpt lat="45.94501" lon="4.7364">
        <ele>184</ele>
        <time>2017-12-29T11:21:07Z</time>
      </trkpt>
      <trkpt lat="45.94502" lon="4.73633">
        <ele>184</ele>
        <time>2017-12-29T11:21:08Z</time>
      </trkpt>
      <trkpt lat="45.94502" lon="4.73625">
        <ele>184</ele>
        <time>2017-12-29T11:21:09Z</time>
      </trkpt>
      <trkpt lat="45.94503" lon="4.73617">
        <ele>184</ele>
        <time>2017-12-29T11:21:10Z</time>
      </trkpt>
      <trkpt lat="45.94503" lon="4.73608">
        <ele>184</ele>
        <time>2017-12-29T11:21:11Z</time>
      </trkpt>
      <trkpt lat="45.94504" lon="4.73601">
        <ele>184</ele>
        <time>2017-12-29T11:21:12Z</time>
      </trkpt>
      <trkpt lat="45.94504" lon="4.73593">
        <ele>184</ele>
        <time>2017-12-29T11:21:13Z</time>
      </trkpt>
      <trkpt lat="45.94505" lon="4.73584">
        <ele>185</ele>
        <time>2017-12-29T11:21:14Z</time>
      </trkpt>
      <trkpt lat="45.94505" lon="4.73575">
        <ele>184</ele>
        <time>2017-12-29T11:21:15Z</time>
      </trkpt>
      <trkpt lat="45.94506" lon="4.73567">
        <ele>184</ele>
        <time>2017-12-29T11:21:16Z</time>
      </trkpt>
      <trkpt lat="45.94506" lon="4.73559">
        <ele>184</ele>
        <time>2017-12-29T11:21:17Z</time>
      </trkpt>
      <trkpt lat="45.94508" lon="4.7355">
        <ele>183</ele>
        <time>2017-12-29T11:21:18Z</time>
      </trkpt>
      <trkpt lat="45.94508" lon="4.73542">
        <ele>183</ele>
        <time>2017-12-29T11:21:19Z</time>
      </trkpt>
      <trkpt lat="45.94507" lon="4.73533">
        <ele>183</ele>
        <time>2017-12-29T11:21:20Z</time>
      </trkpt>
      <trkpt lat="45.94507" lon="4.73524">
        <ele>183</ele>
        <time>2017-12-29T11:21:21Z</time>
      </trkpt>
      <trkpt lat="45.94508" lon="4.73515">
        <ele>183</ele>
        <time>2017-12-29T11:21:22Z</time>
      </trkpt>
      <trkpt lat="45.94507" lon="4.73507">
        <ele>183</ele>
        <time>2017-12-29T11:21:23Z</time>
      </trkpt>
      <trkpt lat="45.94507" lon="4.73498">
        <ele>183</ele>
        <time>2017-12-29T11:21:24Z</time>
      </trkpt>
      <trkpt lat="45.94507" lon="4.73489">
        <ele>182</ele>
        <time>2017-12-29T11:21:25Z</time>
      </trkpt>
      <trkpt lat="45.94507" lon="4.7348">
        <ele>182</ele>
        <time>2017-12-29T11:21:26Z</time>
      </trkpt>
      <trkpt lat="45.94507" lon="4.7347">
        <ele>181</ele>
        <time>2017-12-29T11:21:27Z</time>
      </trkpt>
      <trkpt lat="45.94507" lon="4.7346">
        <ele>181</ele>
        <time>2017-12-29T11:21:28Z</time>
      </trkpt>
      <trkpt lat="45.94507" lon="4.73451">
        <ele>181</ele>
        <time>2017-12-29T11:21:29Z</time>
      </trkpt>
      <trkpt lat="45.94507" lon="4.73443">
        <ele>181</ele>
        <time>2017-12-29T11:21:30Z</time>
      </trkpt>
      <trkpt lat="45.94507" lon="4.73434">
        <ele>181</ele>
        <time>2017-12-29T11:21:31Z</time>
      </trkpt>
      <trkpt lat="45.94506" lon="4.73426">
        <ele>180</ele>
        <time>2017-12-29T11:21:32Z</time>
      </trkpt>
      <trkpt lat="45.94505" lon="4.73416">
        <ele>180</ele>
        <time>2017-12-29T11:21:33Z</time>
      </trkpt>
      <trkpt lat="45.94505" lon="4.73407">
        <ele>179</ele>
        <time>2017-12-29T11:21:34Z</time>
      </trkpt>
      <trkpt lat="45.94504" lon="4.73397">
        <ele>179</ele>
        <time>2017-12-29T11:21:35Z</time>
      </trkpt>
      <trkpt lat="45.94504" lon="4.73387">
        <ele>179</ele>
        <time>2017-12-29T11:21:36Z</time>
      </trkpt>
      <trkpt lat="45.94503" lon="4.73378">
        <ele>178</ele>
        <time>2017-12-29T11:21:37Z</time>
      </trkpt>
      <trkpt lat="45.94502" lon="4.73368">
        <ele>178</ele>
        <time>2017-12-29T11:21:38Z</time>
      </trkpt>
      <trkpt lat="45.94501" lon="4.73359">
        <ele>178</ele>
        <time>2017-12-29T11:21:39Z</time>
      </trkpt>
      <trkpt lat="45.945" lon="4.73349">
        <ele>178</ele>
        <time>2017-12-29T11:21:40Z</time>
      </trkpt>
      <trkpt lat="45.94498" lon="4.73339">
        <ele>177</ele>
        <time>2017-12-29T11:21:41Z</time>
      </trkpt>
      <trkpt lat="45.94497" lon="4.73328">
        <ele>177</ele>
        <time>2017-12-29T11:21:42Z</time>
      </trkpt>
      <trkpt lat="45.94496" lon="4.73319">
        <ele>177</ele>
        <time>2017-12-29T11:21:43Z</time>
      </trkpt>
      <trkpt lat="45.94496" lon="4.73309">
        <ele>177</ele>
        <time>2017-12-29T11:21:44Z</time>
      </trkpt>
      <trkpt lat="45.94494" lon="4.73299">
        <ele>177</ele>
        <time>2017-12-29T11:21:45Z</time>
      </trkpt>
      <trkpt lat="45.94493" lon="4.73289">
        <ele>177</ele>
        <time>2017-12-29T11:21:46Z</time>
      </trkpt>
      <trkpt lat="45.94491" lon="4.73279">
        <ele>177</ele>
        <time>2017-12-29T11:21:47Z</time>
      </trkpt>
      <trkpt lat="45.9449" lon="4.73269">
        <ele>177</ele>
        <time>2017-12-29T11:21:48Z</time>
      </trkpt>
      <trkpt lat="45.94489" lon="4.7326">
        <ele>176</ele>
        <time>2017-12-29T11:21:49Z</time>
      </trkpt>
      <trkpt lat="45.94488" lon="4.7325">
        <ele>175</ele>
        <time>2017-12-29T11:21:50Z</time>
      </trkpt>
      <trkpt lat="45.94486" lon="4.7324">
        <ele>175</ele>
        <time>2017-12-29T11:21:51Z</time>
      </trkpt>
      <trkpt lat="45.94485" lon="4.73231">
        <ele>175</ele>
        <time>2017-12-29T11:21:52Z</time>
      </trkpt>
      <trkpt lat="45.94483" lon="4.73221">
        <ele>175</ele>
        <time>2017-12-29T11:21:53Z</time>
      </trkpt>
      <trkpt lat="45.94482" lon="4.73211">
        <ele>175</ele>
        <time>2017-12-29T11:21:54Z</time>
      </trkpt>
      <trkpt lat="45.9448" lon="4.73202">
        <ele>175</ele>
        <time>2017-12-29T11:21:55Z</time>
      </trkpt>
      <trkpt lat="45.94479" lon="4.73192">
        <ele>174</ele>
        <time>2017-12-29T11:21:56Z</time>
      </trkpt>
      <trkpt lat="45.94478" lon="4.73182">
        <ele>174</ele>
        <time>2017-12-29T11:21:57Z</time>
      </trkpt>
      <trkpt lat="45.94477" lon="4.73173">
        <ele>174</ele>
        <time>2017-12-29T11:21:58Z</time>
      </trkpt>
      <trkpt lat="45.94475" lon="4.73164">
        <ele>173</ele>
        <time>2017-12-29T11:21:59Z</time>
      </trkpt>
      <trkpt lat="45.94474" lon="4.73154">
        <ele>172</ele>
        <time>2017-12-29T11:22:00Z</time>
      </trkpt>
      <trkpt lat="45.94473" lon="4.73145">
        <ele>172</ele>
        <time>2017-12-29T11:22:01Z</time>
      </trkpt>
      <trkpt lat="45.94471" lon="4.73135">
        <ele>172</ele>
        <time>2017-12-29T11:22:02Z</time>
      </trkpt>
      <trkpt lat="45.94471" lon="4.73125">
        <ele>172</ele>
        <time>2017-12-29T11:22:03Z</time>
      </trkpt>
      <trkpt lat="45.9447" lon="4.73116">
        <ele>172</ele>
        <time>2017-12-29T11:22:04Z</time>
      </trkpt>
      <trkpt lat="45.9447" lon="4.73106">
        <ele>172</ele>
        <time>2017-12-29T11:22:05Z</time>
      </trkpt>
      <trkpt lat="45.94469" lon="4.73097">
        <ele>172</ele>
        <time>2017-12-29T11:22:06Z</time>
      </trkpt>
      <trkpt lat="45.94466" lon="4.73089">
        <ele>171</ele>
        <time>2017-12-29T11:22:07Z</time>
      </trkpt>
      <trkpt lat="45.94465" lon="4.7308">
        <ele>170</ele>
        <time>2017-12-29T11:22:08Z</time>
      </trkpt>
      <trkpt lat="45.94464" lon="4.73071">
        <ele>170</ele>
        <time>2017-12-29T11:22:09Z</time>
      </trkpt>
      <trkpt lat="45.94463" lon="4.73063">
        <ele>170</ele>
        <time>2017-12-29T11:22:10Z</time>
      </trkpt>
      <trkpt lat="45.94461" lon="4.73056">
        <ele>170</ele>
        <time>2017-12-29T11:22:11Z</time>
      </trkpt>
      <trkpt lat="45.9446" lon="4.73047">
        <ele>170</ele>
        <time>2017-12-29T11:22:12Z</time>
      </trkpt>
      <trkpt lat="45.94458" lon="4.73039">
        <ele>169</ele>
        <time>2017-12-29T11:22:13Z</time>
      </trkpt>
      <trkpt lat="45.94457" lon="4.73031">
        <ele>169</ele>
        <time>2017-12-29T11:22:14Z</time>
      </trkpt>
      <trkpt lat="45.94456" lon="4.73024">
        <ele>169</ele>
        <time>2017-12-29T11:22:15Z</time>
      </trkpt>
      <trkpt lat="45.94455" lon="4.73016">
        <ele>169</ele>
        <time>2017-12-29T11:22:16Z</time>
      </trkpt>
      <trkpt lat="45.94454" lon="4.73009">
        <ele>169</ele>
        <time>2017-12-29T11:22:17Z</time>
      </trkpt>
      <trkpt lat="45.94453" lon="4.73002">
        <ele>169</ele>
        <time>2017-12-29T11:22:18Z</time>
      </trkpt>
      <trkpt lat="45.94453" lon="4.72995">
        <ele>167</ele>
        <time>2017-12-29T11:22:19Z</time>
      </trkpt>
      <trkpt lat="45.94452" lon="4.72988">
        <ele>167</ele>
        <time>2017-12-29T11:22:20Z</time>
      </trkpt>
      <trkpt lat="45.94452" lon="4.7298">
        <ele>167</ele>
        <time>2017-12-29T11:22:21Z</time>
      </trkpt>
      <trkpt lat="45.9445" lon="4.72972">
        <ele>167</ele>
        <time>2017-12-29T11:22:22Z</time>
      </trkpt>
      <trkpt lat="45.94449" lon="4.72965">
        <ele>167</ele>
        <time>2017-12-29T11:22:23Z</time>
      </trkpt>
      <trkpt lat="45.94448" lon="4.72958">
        <ele>167</ele>
        <time>2017-12-29T11:22:24Z</time>
      </trkpt>
      <trkpt lat="45.94447" lon="4.72951">
        <ele>167</ele>
        <time>2017-12-29T11:22:25Z</time>
      </trkpt>
      <trkpt lat="45.94446" lon="4.72944">
        <ele>167</ele>
        <time>2017-12-29T11:22:26Z</time>
      </trkpt>
      <trkpt lat="45.94445" lon="4.72937">
        <ele>167</ele>
        <time>2017-12-29T11:22:27Z</time>
      </trkpt>
      <trkpt lat="45.94444" lon="4.72931">
        <ele>167</ele>
        <time>2017-12-29T11:22:28Z</time>
      </trkpt>
      <trkpt lat="45.94443" lon="4.72924">
        <ele>167</ele>
        <time>2017-12-29T11:22:29Z</time>
      </trkpt>
      <trkpt lat="45.94443" lon="4.72917">
        <ele>167</ele>
        <time>2017-12-29T11:22:30Z</time>
      </trkpt>
      <trkpt lat="45.94441" lon="4.72905">
        <ele>166</ele>
        <time>2017-12-29T11:22:32Z</time>
      </trkpt>
      <trkpt lat="45.9444" lon="4.729">
        <ele>166</ele>
        <time>2017-12-29T11:22:33Z</time>
      </trkpt>
      <trkpt lat="45.9444" lon="4.72894">
        <ele>166</ele>
        <time>2017-12-29T11:22:34Z</time>
      </trkpt>
      <trkpt lat="45.9444" lon="4.72887">
        <ele>166</ele>
        <time>2017-12-29T11:22:35Z</time>
      </trkpt>
      <trkpt lat="45.94438" lon="4.72875">
        <ele>166</ele>
        <time>2017-12-29T11:22:37Z</time>
      </trkpt>
      <trkpt lat="45.94438" lon="4.72869">
        <ele>166</ele>
        <time>2017-12-29T11:22:38Z</time>
      </trkpt>
      <trkpt lat="45.94436" lon="4.72863">
        <ele>166</ele>
        <time>2017-12-29T11:22:39Z</time>
      </trkpt>
      <trkpt lat="45.94435" lon="4.72856">
        <ele>166</ele>
        <time>2017-12-29T11:22:40Z</time>
      </trkpt>
      <trkpt lat="45.94434" lon="4.72848">
        <ele>166</ele>
        <time>2017-12-29T11:22:41Z</time>
      </trkpt>
      <trkpt lat="45.94433" lon="4.72841">
        <ele>166</ele>
        <time>2017-12-29T11:22:42Z</time>
      </trkpt>
      <trkpt lat="45.94432" lon="4.72833">
        <ele>167</ele>
        <time>2017-12-29T11:22:43Z</time>
      </trkpt>
      <trkpt lat="45.94431" lon="4.72826">
        <ele>167</ele>
        <time>2017-12-29T11:22:44Z</time>
      </trkpt>
      <trkpt lat="45.9443" lon="4.72817">
        <ele>167</ele>
        <time>2017-12-29T11:22:45Z</time>
      </trkpt>
      <trkpt lat="45.94429" lon="4.7281">
        <ele>167</ele>
        <time>2017-12-29T11:22:46Z</time>
      </trkpt>
      <trkpt lat="45.94428" lon="4.72802">
        <ele>167</ele>
        <time>2017-12-29T11:22:47Z</time>
      </trkpt>
      <trkpt lat="45.94427" lon="4.72794">
        <ele>168</ele>
        <time>2017-12-29T11:22:48Z</time>
      </trkpt>
      <trkpt lat="45.94425" lon="4.72786">
        <ele>168</ele>
        <time>2017-12-29T11:22:49Z</time>
      </trkpt>
      <trkpt lat="45.94424" lon="4.72777">
        <ele>168</ele>
        <time>2017-12-29T11:22:50Z</time>
      </trkpt>
      <trkpt lat="45.94424" lon="4.72767">
        <ele>169</ele>
        <time>2017-12-29T11:22:51Z</time>
      </trkpt>
      <trkpt lat="45.94423" lon="4.72758">
        <ele>170</ele>
        <time>2017-12-29T11:22:52Z</time>
      </trkpt>
      <trkpt lat="45.94421" lon="4.72749">
        <ele>171</ele>
        <time>2017-12-29T11:22:53Z</time>
      </trkpt>
      <trkpt lat="45.94421" lon="4.72741">
        <ele>171</ele>
        <time>2017-12-29T11:22:54Z</time>
      </trkpt>
      <trkpt lat="45.9442" lon="4.7273">
        <ele>171</ele>
        <time>2017-12-29T11:22:55Z</time>
      </trkpt>
      <trkpt lat="45.94419" lon="4.72721">
        <ele>171</ele>
        <time>2017-12-29T11:22:56Z</time>
      </trkpt>
      <trkpt lat="45.94418" lon="4.72713">
        <ele>172</ele>
        <time>2017-12-29T11:22:57Z</time>
      </trkpt>
      <trkpt lat="45.94416" lon="4.72704">
        <ele>172</ele>
        <time>2017-12-29T11:22:58Z</time>
      </trkpt>
      <trkpt lat="45.94416" lon="4.72697">
        <ele>173</ele>
        <time>2017-12-29T11:22:59Z</time>
      </trkpt>
      <trkpt lat="45.94415" lon="4.72689">
        <ele>173</ele>
        <time>2017-12-29T11:23:00Z</time>
      </trkpt>
      <trkpt lat="45.94414" lon="4.72681">
        <ele>173</ele>
        <time>2017-12-29T11:23:01Z</time>
      </trkpt>
      <trkpt lat="45.94413" lon="4.72673">
        <ele>173</ele>
        <time>2017-12-29T11:23:02Z</time>
      </trkpt>
      <trkpt lat="45.94411" lon="4.72665">
        <ele>174</ele>
        <time>2017-12-29T11:23:03Z</time>
      </trkpt>
      <trkpt lat="45.94411" lon="4.72657">
        <ele>174</ele>
        <time>2017-12-29T11:23:04Z</time>
      </trkpt>
      <trkpt lat="45.9441" lon="4.72649">
        <ele>174</ele>
        <time>2017-12-29T11:23:05Z</time>
      </trkpt>
      <trkpt lat="45.94408" lon="4.72641">
        <ele>174</ele>
        <time>2017-12-29T11:23:06Z</time>
      </trkpt>
      <trkpt lat="45.94408" lon="4.72632">
        <ele>174</ele>
        <time>2017-12-29T11:23:07Z</time>
      </trkpt>
      <trkpt lat="45.94408" lon="4.72625">
        <ele>173</ele>
        <time>2017-12-29T11:23:08Z</time>
      </trkpt>
      <trkpt lat="45.94407" lon="4.72617">
        <ele>173</ele>
        <time>2017-12-29T11:23:09Z</time>
      </trkpt>
      <trkpt lat="45.94405" lon="4.7261">
        <ele>173</ele>
        <time>2017-12-29T11:23:10Z</time>
      </trkpt>
      <trkpt lat="45.94404" lon="4.72602">
        <ele>173</ele>
        <time>2017-12-29T11:23:11Z</time>
      </trkpt>
      <trkpt lat="45.94403" lon="4.72593">
        <ele>173</ele>
        <time>2017-12-29T11:23:12Z</time>
      </trkpt>
      <trkpt lat="45.94402" lon="4.72586">
        <ele>173</ele>
        <time>2017-12-29T11:23:13Z</time>
      </trkpt>
      <trkpt lat="45.94401" lon="4.72577">
        <ele>173</ele>
        <time>2017-12-29T11:23:14Z</time>
      </trkpt>
      <trkpt lat="45.94399" lon="4.72568">
        <ele>173</ele>
        <time>2017-12-29T11:23:15Z</time>
      </trkpt>
      <trkpt lat="45.94398" lon="4.72559">
        <ele>173</ele>
        <time>2017-12-29T11:23:16Z</time>
      </trkpt>
      <trkpt lat="45.94396" lon="4.72551">
        <ele>173</ele>
        <time>2017-12-29T11:23:17Z</time>
      </trkpt>
      <trkpt lat="45.94396" lon="4.7254">
        <ele>174</ele>
        <time>2017-12-29T11:23:18Z</time>
      </trkpt>
      <trkpt lat="45.94395" lon="4.72532">
        <ele>174</ele>
        <time>2017-12-29T11:23:19Z</time>
      </trkpt>
      <trkpt lat="45.94393" lon="4.72525">
        <ele>174</ele>
        <time>2017-12-29T11:23:20Z</time>
      </trkpt>
      <trkpt lat="45.94391" lon="4.72518">
        <ele>174</ele>
        <time>2017-12-29T11:23:21Z</time>
      </trkpt>
      <trkpt lat="45.94389" lon="4.72512">
        <ele>174</ele>
        <time>2017-12-29T11:23:22Z</time>
      </trkpt>
      <trkpt lat="45.94387" lon="4.72506">
        <ele>174</ele>
        <time>2017-12-29T11:23:23Z</time>
      </trkpt>
      <trkpt lat="45.94385" lon="4.72499">
        <ele>173</ele>
        <time>2017-12-29T11:23:24Z</time>
      </trkpt>
      <trkpt lat="45.94382" lon="4.72493">
        <ele>173</ele>
        <time>2017-12-29T11:23:25Z</time>
      </trkpt>
      <trkpt lat="45.9438" lon="4.72487">
        <ele>173</ele>
        <time>2017-12-29T11:23:26Z</time>
      </trkpt>
      <trkpt lat="45.94377" lon="4.72481">
        <ele>173</ele>
        <time>2017-12-29T11:23:27Z</time>
      </trkpt>
      <trkpt lat="45.94375" lon="4.72474">
        <ele>173</ele>
        <time>2017-12-29T11:23:28Z</time>
      </trkpt>
      <trkpt lat="45.94372" lon="4.72468">
        <ele>173</ele>
        <time>2017-12-29T11:23:29Z</time>
      </trkpt>
      <trkpt lat="45.94369" lon="4.72462">
        <ele>173</ele>
        <time>2017-12-29T11:23:30Z</time>
      </trkpt>
      <trkpt lat="45.94366" lon="4.72456">
        <ele>173</ele>
        <time>2017-12-29T11:23:31Z</time>
      </trkpt>
      <trkpt lat="45.94363" lon="4.72449">
        <ele>173</ele>
        <time>2017-12-29T11:23:32Z</time>
      </trkpt>
      <trkpt lat="45.94361" lon="4.72443">
        <ele>173</ele>
        <time>2017-12-29T11:23:33Z</time>
      </trkpt>
      <trkpt lat="45.94358" lon="4.72437">
        <ele>173</ele>
        <time>2017-12-29T11:23:34Z</time>
      </trkpt>
      <trkpt lat="45.94355" lon="4.72432">
        <ele>173</ele>
        <time>2017-12-29T11:23:35Z</time>
      </trkpt>
      <trkpt lat="45.94352" lon="4.72425">
        <ele>173</ele>
        <time>2017-12-29T11:23:36Z</time>
      </trkpt>
      <trkpt lat="45.94349" lon="4.72418">
        <ele>173</ele>
        <time>2017-12-29T11:23:37Z</time>
      </trkpt>
      <trkpt lat="45.94346" lon="4.72412">
        <ele>173</ele>
        <time>2017-12-29T11:23:38Z</time>
      </trkpt>
      <trkpt lat="45.94344" lon="4.72407">
        <ele>173</ele>
        <time>2017-12-29T11:23:39Z</time>
      </trkpt>
      <trkpt lat="45.94341" lon="4.724">
        <ele>172</ele>
        <time>2017-12-29T11:23:40Z</time>
      </trkpt>
      <trkpt lat="45.94338" lon="4.72394">
        <ele>172</ele>
        <time>2017-12-29T11:23:41Z</time>
      </trkpt>
      <trkpt lat="45.94334" lon="4.72387">
        <ele>172</ele>
        <time>2017-12-29T11:23:42Z</time>
      </trkpt>
      <trkpt lat="45.94331" lon="4.7238">
        <ele>172</ele>
        <time>2017-12-29T11:23:43Z</time>
      </trkpt>
      <trkpt lat="45.94329" lon="4.72374">
        <ele>172</ele>
        <time>2017-12-29T11:23:44Z</time>
      </trkpt>
      <trkpt lat="45.94326" lon="4.72368">
        <ele>172</ele>
        <time>2017-12-29T11:23:45Z</time>
      </trkpt>
      <trkpt lat="45.94323" lon="4.72362">
        <ele>172</ele>
        <time>2017-12-29T11:23:46Z</time>
      </trkpt>
      <trkpt lat="45.94321" lon="4.72355">
        <ele>172</ele>
        <time>2017-12-29T11:23:47Z</time>
      </trkpt>
      <trkpt lat="45.94317" lon="4.72349">
        <ele>172</ele>
        <time>2017-12-29T11:23:48Z</time>
      </trkpt>
      <trkpt lat="45.94315" lon="4.72343">
        <ele>172</ele>
        <time>2017-12-29T11:23:49Z</time>
      </trkpt>
      <trkpt lat="45.94312" lon="4.72336">
        <ele>172</ele>
        <time>2017-12-29T11:23:50Z</time>
      </trkpt>
      <trkpt lat="45.9431" lon="4.72328">
        <ele>172</ele>
        <time>2017-12-29T11:23:51Z</time>
      </trkpt>
      <trkpt lat="45.94306" lon="4.72322">
        <ele>171</ele>
        <time>2017-12-29T11:23:52Z</time>
      </trkpt>
      <trkpt lat="45.94303" lon="4.72315">
        <ele>171</ele>
        <time>2017-12-29T11:23:53Z</time>
      </trkpt>
      <trkpt lat="45.943" lon="4.72309">
        <ele>171</ele>
        <time>2017-12-29T11:23:54Z</time>
      </trkpt>
      <trkpt lat="45.94299" lon="4.72301">
        <ele>171</ele>
        <time>2017-12-29T11:23:55Z</time>
      </trkpt>
      <trkpt lat="45.94296" lon="4.72295">
        <ele>171</ele>
        <time>2017-12-29T11:23:56Z</time>
      </trkpt>
      <trkpt lat="45.94291" lon="4.72285">
        <ele>171</ele>
        <time>2017-12-29T11:23:58Z</time>
      </trkpt>
      <trkpt lat="45.94289" lon="4.7228">
        <ele>171</ele>
        <time>2017-12-29T11:23:59Z</time>
      </trkpt>
      <trkpt lat="45.94285" lon="4.7227">
        <ele>171</ele>
        <time>2017-12-29T11:24:01Z</time>
      </trkpt>
      <trkpt lat="45.94281" lon="4.72266">
        <ele>171</ele>
        <time>2017-12-29T11:24:02Z</time>
      </trkpt>
      <trkpt lat="45.94273" lon="4.72264">
        <ele>171</ele>
        <time>2017-12-29T11:24:04Z</time>
      </trkpt>
      <trkpt lat="45.94268" lon="4.72265">
        <ele>171</ele>
        <time>2017-12-29T11:24:05Z</time>
      </trkpt>
      <trkpt lat="45.94263" lon="4.72268">
        <ele>171</ele>
        <time>2017-12-29T11:24:06Z</time>
      </trkpt>
      <trkpt lat="45.94259" lon="4.72271">
        <ele>171</ele>
        <time>2017-12-29T11:24:07Z</time>
      </trkpt>
      <trkpt lat="45.94254" lon="4.72275">
        <ele>171</ele>
        <time>2017-12-29T11:24:08Z</time>
      </trkpt>
      <trkpt lat="45.94249" lon="4.72277">
        <ele>171</ele>
        <time>2017-12-29T11:24:09Z</time>
      </trkpt>
      <trkpt lat="45.94244" lon="4.72278">
        <ele>171</ele>
        <time>2017-12-29T11:24:10Z</time>
      </trkpt>
      <trkpt lat="45.94238" lon="4.72279">
        <ele>171</ele>
        <time>2017-12-29T11:24:11Z</time>
      </trkpt>
      <trkpt lat="45.94233" lon="4.72282">
        <ele>171</ele>
        <time>2017-12-29T11:24:12Z</time>
      </trkpt>
      <trkpt lat="45.94228" lon="4.72284">
        <ele>171</ele>
        <time>2017-12-29T11:24:13Z</time>
      </trkpt>
      <trkpt lat="45.94223" lon="4.72284">
        <ele>171</ele>
        <time>2017-12-29T11:24:14Z</time>
      </trkpt>
      <trkpt lat="45.94218" lon="4.72285">
        <ele>171</ele>
        <time>2017-12-29T11:24:15Z</time>
      </trkpt>
      <trkpt lat="45.94213" lon="4.72285">
        <ele>171</ele>
        <time>2017-12-29T11:24:16Z</time>
      </trkpt>
      <trkpt lat="45.94208" lon="4.72285">
        <ele>171</ele>
        <time>2017-12-29T11:24:17Z</time>
      </trkpt>
      <trkpt lat="45.94203" lon="4.72285">
        <ele>171</ele>
        <time>2017-12-29T11:24:18Z</time>
      </trkpt>
      <trkpt lat="45.94198" lon="4.72285">
        <ele>171</ele>
        <time>2017-12-29T11:24:19Z</time>
      </trkpt>
      <trkpt lat="45.94193" lon="4.72285">
        <ele>171</ele>
        <time>2017-12-29T11:24:20Z</time>
      </trkpt>
      <trkpt lat="45.94187" lon="4.72284">
        <ele>171</ele>
        <time>2017-12-29T11:24:21Z</time>
      </trkpt>
      <trkpt lat="45.94182" lon="4.72283">
        <ele>171</ele>
        <time>2017-12-29T11:24:22Z</time>
      </trkpt>
      <trkpt lat="45.94176" lon="4.72283">
        <ele>171</ele>
        <time>2017-12-29T11:24:23Z</time>
      </trkpt>
      <trkpt lat="45.9417" lon="4.72283">
        <ele>171</ele>
        <time>2017-12-29T11:24:24Z</time>
      </trkpt>
      <trkpt lat="45.94165" lon="4.72282">
        <ele>171</ele>
        <time>2017-12-29T11:24:25Z</time>
      </trkpt>
      <trkpt lat="45.94159" lon="4.7228">
        <ele>171</ele>
        <time>2017-12-29T11:24:26Z</time>
      </trkpt>
      <trkpt lat="45.94154" lon="4.72279">
        <ele>171</ele>
        <time>2017-12-29T11:24:27Z</time>
      </trkpt>
      <trkpt lat="45.94149" lon="4.72276">
        <ele>171</ele>
        <time>2017-12-29T11:24:28Z</time>
      </trkpt>
      <trkpt lat="45.94145" lon="4.72275">
        <ele>171</ele>
        <time>2017-12-29T11:24:29Z</time>
      </trkpt>
      <trkpt lat="45.9414" lon="4.72272">
        <ele>171</ele>
        <time>2017-12-29T11:24:30Z</time>
      </trkpt>
      <trkpt lat="45.94136" lon="4.7227">
        <ele>171</ele>
        <time>2017-12-29T11:24:31Z</time>
      </trkpt>
      <trkpt lat="45.94127" lon="4.72267">
        <ele>171</ele>
        <time>2017-12-29T11:24:33Z</time>
      </trkpt>
      <trkpt lat="45.94123" lon="4.72266">
        <ele>171</ele>
        <time>2017-12-29T11:24:34Z</time>
      </trkpt>
      <trkpt lat="45.94119" lon="4.72264">
        <ele>171</ele>
        <time>2017-12-29T11:24:35Z</time>
      </trkpt>
      <trkpt lat="45.94114" lon="4.72262">
        <ele>171</ele>
        <time>2017-12-29T11:24:36Z</time>
      </trkpt>
      <trkpt lat="45.94109" lon="4.72261">
        <ele>171</ele>
        <time>2017-12-29T11:24:37Z</time>
      </trkpt>
      <trkpt lat="45.94105" lon="4.72261">
        <ele>171</ele>
        <time>2017-12-29T11:24:38Z</time>
      </trkpt>
      <trkpt lat="45.94099" lon="4.72261">
        <ele>171</ele>
        <time>2017-12-29T11:24:39Z</time>
      </trkpt>
      <trkpt lat="45.94095" lon="4.72263">
        <ele>171</ele>
        <time>2017-12-29T11:24:40Z</time>
      </trkpt>
      <trkpt lat="45.94089" lon="4.72266">
        <ele>171</ele>
        <time>2017-12-29T11:24:41Z</time>
      </trkpt>
      <trkpt lat="45.94084" lon="4.72269">
        <ele>171</ele>
        <time>2017-12-29T11:24:42Z</time>
      </trkpt>
      <trkpt lat="45.94078" lon="4.72271">
        <ele>171</ele>
        <time>2017-12-29T11:24:43Z</time>
      </trkpt>
      <trkpt lat="45.94073" lon="4.72275">
        <ele>171</ele>
        <time>2017-12-29T11:24:44Z</time>
      </trkpt>
      <trkpt lat="45.94068" lon="4.72279">
        <ele>171</ele>
        <time>2017-12-29T11:24:45Z</time>
      </trkpt>
      <trkpt lat="45.94063" lon="4.72284">
        <ele>171</ele>
        <time>2017-12-29T11:24:46Z</time>
      </trkpt>
      <trkpt lat="45.94059" lon="4.72289">
        <ele>171</ele>
        <time>2017-12-29T11:24:47Z</time>
      </trkpt>
      <trkpt lat="45.94055" lon="4.72295">
        <ele>171</ele>
        <time>2017-12-29T11:24:48Z</time>
      </trkpt>
      <trkpt lat="45.94051" lon="4.723">
        <ele>171</ele>
        <time>2017-12-29T11:24:49Z</time>
      </trkpt>
      <trkpt lat="45.94048" lon="4.72306">
        <ele>171</ele>
        <time>2017-12-29T11:24:50Z</time>
      </trkpt>
      <trkpt lat="45.94044" lon="4.72312">
        <ele>171</ele>
        <time>2017-12-29T11:24:51Z</time>
      </trkpt>
      <trkpt lat="45.94038" lon="4.72318">
        <ele>171</ele>
        <time>2017-12-29T11:24:52Z</time>
      </trkpt>
      <trkpt lat="45.94034" lon="4.72322">
        <ele>171</ele>
        <time>2017-12-29T11:24:53Z</time>
      </trkpt>
      <trkpt lat="45.9403" lon="4.72325">
        <ele>171</ele>
        <time>2017-12-29T11:24:54Z</time>
      </trkpt>
      <trkpt lat="45.94026" lon="4.7233">
        <ele>171</ele>
        <time>2017-12-29T11:24:55Z</time>
      </trkpt>
      <trkpt lat="45.94023" lon="4.72335">
        <ele>171</ele>
        <time>2017-12-29T11:24:56Z</time>
      </trkpt>
      <trkpt lat="45.9402" lon="4.72341">
        <ele>171</ele>
        <time>2017-12-29T11:24:57Z</time>
      </trkpt>
      <trkpt lat="45.94016" lon="4.72344">
        <ele>171</ele>
        <time>2017-12-29T11:24:58Z</time>
      </trkpt>
      <trkpt lat="45.94011" lon="4.72348">
        <ele>171</ele>
        <time>2017-12-29T11:24:59Z</time>
      </trkpt>
      <trkpt lat="45.94008" lon="4.72353">
        <ele>171</ele>
        <time>2017-12-29T11:25:00Z</time>
      </trkpt>
      <trkpt lat="45.94004" lon="4.72359">
        <ele>171</ele>
        <time>2017-12-29T11:25:01Z</time>
      </trkpt>
      <trkpt lat="45.94" lon="4.72364">
        <ele>171</ele>
        <time>2017-12-29T11:25:02Z</time>
      </trkpt>
      <trkpt lat="45.93995" lon="4.72369">
        <ele>171</ele>
        <time>2017-12-29T11:25:03Z</time>
      </trkpt>
      <trkpt lat="45.93992" lon="4.72373">
        <ele>171</ele>
        <time>2017-12-29T11:25:04Z</time>
      </trkpt>
      <trkpt lat="45.93986" lon="4.72378">
        <ele>171</ele>
        <time>2017-12-29T11:25:05Z</time>
      </trkpt>
      <trkpt lat="45.93982" lon="4.72385">
        <ele>171</ele>
        <time>2017-12-29T11:25:06Z</time>
      </trkpt>
      <trkpt lat="45.93978" lon="4.72391">
        <ele>171</ele>
        <time>2017-12-29T11:25:07Z</time>
      </trkpt>
      <trkpt lat="45.93974" lon="4.72396">
        <ele>171</ele>
        <time>2017-12-29T11:25:08Z</time>
      </trkpt>
      <trkpt lat="45.9397" lon="4.72401">
        <ele>171</ele>
        <time>2017-12-29T11:25:09Z</time>
      </trkpt>
      <trkpt lat="45.93966" lon="4.72406">
        <ele>171</ele>
        <time>2017-12-29T11:25:10Z</time>
      </trkpt>
      <trkpt lat="45.93962" lon="4.72411">
        <ele>171</ele>
        <time>2017-12-29T11:25:11Z</time>
      </trkpt>
      <trkpt lat="45.93957" lon="4.72415">
        <ele>171</ele>
        <time>2017-12-29T11:25:12Z</time>
      </trkpt>
      <trkpt lat="45.93954" lon="4.72419">
        <ele>171</ele>
        <time>2017-12-29T11:25:13Z</time>
      </trkpt>
      <trkpt lat="45.9395" lon="4.72423">
        <ele>171</ele>
        <time>2017-12-29T11:25:14Z</time>
      </trkpt>
      <trkpt lat="45.93946" lon="4.72427">
        <ele>171</ele>
        <time>2017-12-29T11:25:15Z</time>
      </trkpt>
      <trkpt lat="45.93942" lon="4.72432">
        <ele>171</ele>
        <time>2017-12-29T11:25:16Z</time>
      </trkpt>
      <trkpt lat="45.93938" lon="4.72436">
        <ele>171</ele>
        <time>2017-12-29T11:25:17Z</time>
      </trkpt>
      <trkpt lat="45.93934" lon="4.72443">
        <ele>171</ele>
        <time>2017-12-29T11:25:18Z</time>
      </trkpt>
      <trkpt lat="45.93931" lon="4.72449">
        <ele>171</ele>
        <time>2017-12-29T11:25:19Z</time>
      </trkpt>
      <trkpt lat="45.93926" lon="4.72454">
        <ele>171</ele>
        <time>2017-12-29T11:25:20Z</time>
      </trkpt>
      <trkpt lat="45.93922" lon="4.7246">
        <ele>171</ele>
        <time>2017-12-29T11:25:21Z</time>
      </trkpt>
      <trkpt lat="45.93918" lon="4.72465">
        <ele>171</ele>
        <time>2017-12-29T11:25:22Z</time>
      </trkpt>
      <trkpt lat="45.93911" lon="4.72473">
        <ele>172</ele>
        <time>2017-12-29T11:25:24Z</time>
      </trkpt>
      <trkpt lat="45.93909" lon="4.72477">
        <ele>172</ele>
        <time>2017-12-29T11:25:25Z</time>
      </trkpt>
      <trkpt lat="45.93902" lon="4.72484">
        <ele>172</ele>
        <time>2017-12-29T11:25:27Z</time>
      </trkpt>
      <trkpt lat="45.93898" lon="4.72488">
        <ele>172</ele>
        <time>2017-12-29T11:25:28Z</time>
      </trkpt>
      <trkpt lat="45.93895" lon="4.72491">
        <ele>172</ele>
        <time>2017-12-29T11:25:29Z</time>
      </trkpt>
      <trkpt lat="45.93891" lon="4.72496">
        <ele>172</ele>
        <time>2017-12-29T11:25:30Z</time>
      </trkpt>
      <trkpt lat="45.93884" lon="4.72505">
        <ele>173</ele>
        <time>2017-12-29T11:25:32Z</time>
      </trkpt>
      <trkpt lat="45.93881" lon="4.72508">
        <ele>173</ele>
        <time>2017-12-29T11:25:33Z</time>
      </trkpt>
      <trkpt lat="45.93876" lon="4.72511">
        <ele>173</ele>
        <time>2017-12-29T11:25:34Z</time>
      </trkpt>
      <trkpt lat="45.93871" lon="4.72512">
        <ele>173</ele>
        <time>2017-12-29T11:25:35Z</time>
      </trkpt>
      <trkpt lat="45.93863" lon="4.7251">
        <ele>173</ele>
        <time>2017-12-29T11:25:37Z</time>
      </trkpt>
      <trkpt lat="45.93859" lon="4.72508">
        <ele>173</ele>
        <time>2017-12-29T11:25:38Z</time>
      </trkpt>
      <trkpt lat="45.93853" lon="4.72503">
        <ele>173</ele>
        <time>2017-12-29T11:25:40Z</time>
      </trkpt>
      <trkpt lat="45.93851" lon="4.72503">
        <ele>174</ele>
        <time>2017-12-29T11:25:41Z</time>
      </trkpt>
      <trkpt lat="45.93842" lon="4.725">
        <ele>173</ele>
        <time>2017-12-29T11:25:44Z</time>
      </trkpt>
      <trkpt lat="45.9384" lon="4.72499">
        <ele>174</ele>
        <time>2017-12-29T11:25:45Z</time>
      </trkpt>
      <trkpt lat="45.93825" lon="4.72471">
        <ele>172</ele>
        <time>2017-12-29T11:25:46Z</time>
      </trkpt>
      <trkpt lat="45.93821" lon="4.72469">
        <ele>172</ele>
        <time>2017-12-29T11:25:47Z</time>
      </trkpt>
      <trkpt lat="45.93817" lon="4.72465">
        <ele>172</ele>
        <time>2017-12-29T11:25:48Z</time>
      </trkpt>
      <trkpt lat="45.93809" lon="4.7246">
        <ele>172</ele>
        <time>2017-12-29T11:25:50Z</time>
      </trkpt>
      <trkpt lat="45.93805" lon="4.72456">
        <ele>172</ele>
        <time>2017-12-29T11:25:51Z</time>
      </trkpt>
      <trkpt lat="45.93801" lon="4.72452">
        <ele>172</ele>
        <time>2017-12-29T11:25:52Z</time>
      </trkpt>
      <trkpt lat="45.93798" lon="4.72446">
        <ele>172</ele>
        <time>2017-12-29T11:25:53Z</time>
      </trkpt>
      <trkpt lat="45.93794" lon="4.72443">
        <ele>172</ele>
        <time>2017-12-29T11:25:54Z</time>
      </trkpt>
      <trkpt lat="45.9379" lon="4.72438">
        <ele>172</ele>
        <time>2017-12-29T11:25:55Z</time>
      </trkpt>
      <trkpt lat="45.93784" lon="4.72431">
        <ele>172</ele>
        <time>2017-12-29T11:25:57Z</time>
      </trkpt>
      <trkpt lat="45.9378" lon="4.72426">
        <ele>172</ele>
        <time>2017-12-29T11:25:58Z</time>
      </trkpt>
      <trkpt lat="45.93773" lon="4.7242">
        <ele>171</ele>
        <time>2017-12-29T11:26:00Z</time>
      </trkpt>
      <trkpt lat="45.93769" lon="4.72417">
        <ele>171</ele>
        <time>2017-12-29T11:26:01Z</time>
      </trkpt>
      <trkpt lat="45.93762" lon="4.72411">
        <ele>171</ele>
        <time>2017-12-29T11:26:03Z</time>
      </trkpt>
      <trkpt lat="45.93759" lon="4.72407">
        <ele>171</ele>
        <time>2017-12-29T11:26:04Z</time>
      </trkpt>
      <trkpt lat="45.93752" lon="4.724">
        <ele>171</ele>
        <time>2017-12-29T11:26:06Z</time>
      </trkpt>
      <trkpt lat="45.93747" lon="4.72396">
        <ele>171</ele>
        <time>2017-12-29T11:26:07Z</time>
      </trkpt>
      <trkpt lat="45.9374" lon="4.7239">
        <ele>171</ele>
        <time>2017-12-29T11:26:09Z</time>
      </trkpt>
      <trkpt lat="45.93737" lon="4.72387">
        <ele>171</ele>
        <time>2017-12-29T11:26:10Z</time>
      </trkpt>
      <trkpt lat="45.93732" lon="4.72383">
        <ele>171</ele>
        <time>2017-12-29T11:26:11Z</time>
      </trkpt>
      <trkpt lat="45.93728" lon="4.72379">
        <ele>171</ele>
        <time>2017-12-29T11:26:12Z</time>
      </trkpt>
      <trkpt lat="45.93724" lon="4.72376">
        <ele>171</ele>
        <time>2017-12-29T11:26:13Z</time>
      </trkpt>
      <trkpt lat="45.9372" lon="4.72369">
        <ele>172</ele>
        <time>2017-12-29T11:26:14Z</time>
      </trkpt>
      <trkpt lat="45.93716" lon="4.72366">
        <ele>172</ele>
        <time>2017-12-29T11:26:15Z</time>
      </trkpt>
      <trkpt lat="45.93713" lon="4.72361">
        <ele>172</ele>
        <time>2017-12-29T11:26:16Z</time>
      </trkpt>
      <trkpt lat="45.93709" lon="4.72358">
        <ele>172</ele>
        <time>2017-12-29T11:26:17Z</time>
      </trkpt>
      <trkpt lat="45.93705" lon="4.72354">
        <ele>171</ele>
        <time>2017-12-29T11:26:18Z</time>
      </trkpt>
      <trkpt lat="45.93698" lon="4.72349">
        <ele>171</ele>
        <time>2017-12-29T11:26:21Z</time>
      </trkpt>
      <trkpt lat="45.93693" lon="4.72344">
        <ele>171</ele>
        <time>2017-12-29T11:26:22Z</time>
      </trkpt>
      <trkpt lat="45.93688" lon="4.72338">
        <ele>171</ele>
        <time>2017-12-29T11:26:23Z</time>
      </trkpt>
      <trkpt lat="45.93685" lon="4.72334">
        <ele>171</ele>
        <time>2017-12-29T11:26:24Z</time>
      </trkpt>
      <trkpt lat="45.93677" lon="4.72328">
        <ele>171</ele>
        <time>2017-12-29T11:26:26Z</time>
      </trkpt>
      <trkpt lat="45.93675" lon="4.72324">
        <ele>171</ele>
        <time>2017-12-29T11:26:27Z</time>
      </trkpt>
      <trkpt lat="45.93669" lon="4.72317">
        <ele>171</ele>
        <time>2017-12-29T11:26:29Z</time>
      </trkpt>
      <trkpt lat="45.93665" lon="4.72314">
        <ele>172</ele>
        <time>2017-12-29T11:26:30Z</time>
      </trkpt>
      <trkpt lat="45.93661" lon="4.72311">
        <ele>172</ele>
        <time>2017-12-29T11:26:31Z</time>
      </trkpt>
      <trkpt lat="45.93657" lon="4.72307">
        <ele>172</ele>
        <time>2017-12-29T11:26:32Z</time>
      </trkpt>
      <trkpt lat="45.93653" lon="4.72303">
        <ele>172</ele>
        <time>2017-12-29T11:26:33Z</time>
      </trkpt>
      <trkpt lat="45.93648" lon="4.72299">
        <ele>172</ele>
        <time>2017-12-29T11:26:34Z</time>
      </trkpt>
      <trkpt lat="45.93644" lon="4.72295">
        <ele>172</ele>
        <time>2017-12-29T11:26:35Z</time>
      </trkpt>
      <trkpt lat="45.9364" lon="4.7229">
        <ele>172</ele>
        <time>2017-12-29T11:26:36Z</time>
      </trkpt>
      <trkpt lat="45.93636" lon="4.72286">
        <ele>172</ele>
        <time>2017-12-29T11:26:37Z</time>
      </trkpt>
      <trkpt lat="45.93632" lon="4.72283">
        <ele>172</ele>
        <time>2017-12-29T11:26:38Z</time>
      </trkpt>
      <trkpt lat="45.93627" lon="4.7228">
        <ele>172</ele>
        <time>2017-12-29T11:26:39Z</time>
      </trkpt>
      <trkpt lat="45.93623" lon="4.72276">
        <ele>172</ele>
        <time>2017-12-29T11:26:40Z</time>
      </trkpt>
      <trkpt lat="45.93616" lon="4.72268">
        <ele>172</ele>
        <time>2017-12-29T11:26:42Z</time>
      </trkpt>
      <trkpt lat="45.93613" lon="4.72264">
        <ele>172</ele>
        <time>2017-12-29T11:26:43Z</time>
      </trkpt>
      <trkpt lat="45.93606" lon="4.72259">
        <ele>173</ele>
        <time>2017-12-29T11:26:45Z</time>
      </trkpt>
      <trkpt lat="45.93603" lon="4.72256">
        <ele>173</ele>
        <time>2017-12-29T11:26:46Z</time>
      </trkpt>
      <trkpt lat="45.93595" lon="4.72251">
        <ele>173</ele>
        <time>2017-12-29T11:26:48Z</time>
      </trkpt>
      <trkpt lat="45.93592" lon="4.72247">
        <ele>173</ele>
        <time>2017-12-29T11:26:49Z</time>
      </trkpt>
      <trkpt lat="45.93587" lon="4.7224">
        <ele>173</ele>
        <time>2017-12-29T11:26:51Z</time>
      </trkpt>
      <trkpt lat="45.93583" lon="4.72237">
        <ele>173</ele>
        <time>2017-12-29T11:26:52Z</time>
      </trkpt>
      <trkpt lat="45.93578" lon="4.72231">
        <ele>173</ele>
        <time>2017-12-29T11:26:54Z</time>
      </trkpt>
      <trkpt lat="45.93575" lon="4.72228">
        <ele>173</ele>
        <time>2017-12-29T11:26:55Z</time>
      </trkpt>
      <trkpt lat="45.93568" lon="4.72221">
        <ele>173</ele>
        <time>2017-12-29T11:26:58Z</time>
      </trkpt>
      <trkpt lat="45.93566" lon="4.7222">
        <ele>173</ele>
        <time>2017-12-29T11:26:59Z</time>
      </trkpt>
      <trkpt lat="45.93557" lon="4.72216">
        <ele>173</ele>
        <time>2017-12-29T11:27:23Z</time>
      </trkpt>
      <trkpt lat="45.93555" lon="4.72216">
        <ele>173</ele>
        <time>2017-12-29T11:27:24Z</time>
      </trkpt>
      <trkpt lat="45.93547" lon="4.72222">
        <ele>172</ele>
        <time>2017-12-29T11:27:28Z</time>
      </trkpt>
      <trkpt lat="45.93546" lon="4.72225">
        <ele>172</ele>
        <time>2017-12-29T11:27:29Z</time>
      </trkpt>
      <trkpt lat="45.93542" lon="4.72235">
        <ele>172</ele>
        <time>2017-12-29T11:27:32Z</time>
      </trkpt>
      <trkpt lat="45.9354" lon="4.72239">
        <ele>172</ele>
        <time>2017-12-29T11:27:33Z</time>
      </trkpt>
      <trkpt lat="45.93537" lon="4.72248">
        <ele>172</ele>
        <time>2017-12-29T11:27:35Z</time>
      </trkpt>
      <trkpt lat="45.93535" lon="4.72253">
        <ele>172</ele>
        <time>2017-12-29T11:27:36Z</time>
      </trkpt>
      <trkpt lat="45.93531" lon="4.72263">
        <ele>172</ele>
        <time>2017-12-29T11:27:38Z</time>
      </trkpt>
      <trkpt lat="45.93529" lon="4.72268">
        <ele>172</ele>
        <time>2017-12-29T11:27:39Z</time>
      </trkpt>
      <trkpt lat="45.93525" lon="4.72279">
        <ele>172</ele>
        <time>2017-12-29T11:27:41Z</time>
      </trkpt>
      <trkpt lat="45.93523" lon="4.72287">
        <ele>172</ele>
        <time>2017-12-29T11:27:42Z</time>
      </trkpt>
      <trkpt lat="45.9352" lon="4.72292">
        <ele>172</ele>
        <time>2017-12-29T11:27:43Z</time>
      </trkpt>
      <trkpt lat="45.93517" lon="4.72299">
        <ele>172</ele>
        <time>2017-12-29T11:27:44Z</time>
      </trkpt>
      <trkpt lat="45.93513" lon="4.72304">
        <ele>173</ele>
        <time>2017-12-29T11:27:45Z</time>
      </trkpt>
      <trkpt lat="45.93509" lon="4.72311">
        <ele>173</ele>
        <time>2017-12-29T11:27:46Z</time>
      </trkpt>
      <trkpt lat="45.93504" lon="4.72317">
        <ele>173</ele>
        <time>2017-12-29T11:27:47Z</time>
      </trkpt>
      <trkpt lat="45.935" lon="4.72323">
        <ele>173</ele>
        <time>2017-12-29T11:27:48Z</time>
      </trkpt>
      <trkpt lat="45.93496" lon="4.72329">
        <ele>173</ele>
        <time>2017-12-29T11:27:49Z</time>
      </trkpt>
      <trkpt lat="45.93492" lon="4.72336">
        <ele>173</ele>
        <time>2017-12-29T11:27:50Z</time>
      </trkpt>
      <trkpt lat="45.93487" lon="4.7234">
        <ele>173</ele>
        <time>2017-12-29T11:27:51Z</time>
      </trkpt>
      <trkpt lat="45.93483" lon="4.72346">
        <ele>173</ele>
        <time>2017-12-29T11:27:52Z</time>
      </trkpt>
      <trkpt lat="45.93479" lon="4.7235">
        <ele>173</ele>
        <time>2017-12-29T11:27:53Z</time>
      </trkpt>
      <trkpt lat="45.93475" lon="4.72355">
        <ele>173</ele>
        <time>2017-12-29T11:27:54Z</time>
      </trkpt>
      <trkpt lat="45.93472" lon="4.72359">
        <ele>173</ele>
        <time>2017-12-29T11:27:55Z</time>
      </trkpt>
      <trkpt lat="45.93468" lon="4.72364">
        <ele>173</ele>
        <time>2017-12-29T11:27:56Z</time>
      </trkpt>
      <trkpt lat="45.93464" lon="4.72368">
        <ele>173</ele>
        <time>2017-12-29T11:27:57Z</time>
      </trkpt>
      <trkpt lat="45.9346" lon="4.72373">
        <ele>173</ele>
        <time>2017-12-29T11:27:58Z</time>
      </trkpt>
      <trkpt lat="45.93456" lon="4.72377">
        <ele>173</ele>
        <time>2017-12-29T11:27:59Z</time>
      </trkpt>
      <trkpt lat="45.93451" lon="4.72382">
        <ele>173</ele>
        <time>2017-12-29T11:28:00Z</time>
      </trkpt>
      <trkpt lat="45.93447" lon="4.72386">
        <ele>173</ele>
        <time>2017-12-29T11:28:01Z</time>
      </trkpt>
      <trkpt lat="45.93442" lon="4.7239">
        <ele>173</ele>
        <time>2017-12-29T11:28:02Z</time>
      </trkpt>
      <trkpt lat="45.93437" lon="4.72394">
        <ele>173</ele>
        <time>2017-12-29T11:28:03Z</time>
      </trkpt>
      <trkpt lat="45.93431" lon="4.72398">
        <ele>174</ele>
        <time>2017-12-29T11:28:04Z</time>
      </trkpt>
      <trkpt lat="45.93425" lon="4.724">
        <ele>174</ele>
        <time>2017-12-29T11:28:05Z</time>
      </trkpt>
      <trkpt lat="45.93419" lon="4.72402">
        <ele>174</ele>
        <time>2017-12-29T11:28:06Z</time>
      </trkpt>
      <trkpt lat="45.93414" lon="4.72404">
        <ele>174</ele>
        <time>2017-12-29T11:28:07Z</time>
      </trkpt>
      <trkpt lat="45.93409" lon="4.72404">
        <ele>174</ele>
        <time>2017-12-29T11:28:08Z</time>
      </trkpt>
      <trkpt lat="45.93404" lon="4.72404">
        <ele>174</ele>
        <time>2017-12-29T11:28:09Z</time>
      </trkpt>
      <trkpt lat="45.93399" lon="4.72405">
        <ele>174</ele>
        <time>2017-12-29T11:28:10Z</time>
      </trkpt>
      <trkpt lat="45.93391" lon="4.72405">
        <ele>174</ele>
        <time>2017-12-29T11:28:12Z</time>
      </trkpt>
      <trkpt lat="45.93387" lon="4.72407">
        <ele>174</ele>
        <time>2017-12-29T11:28:13Z</time>
      </trkpt>
      <trkpt lat="45.93383" lon="4.72418">
        <ele>173</ele>
        <time>2017-12-29T11:28:15Z</time>
      </trkpt>
      <trkpt lat="45.93383" lon="4.72426">
        <ele>173</ele>
        <time>2017-12-29T11:28:16Z</time>
      </trkpt>
      <trkpt lat="45.93384" lon="4.72432">
        <ele>173</ele>
        <time>2017-12-29T11:28:17Z</time>
      </trkpt>
      <trkpt lat="45.93385" lon="4.72439">
        <ele>173</ele>
        <time>2017-12-29T11:28:18Z</time>
      </trkpt>
      <trkpt lat="45.93386" lon="4.72446">
        <ele>173</ele>
        <time>2017-12-29T11:28:19Z</time>
      </trkpt>
      <trkpt lat="45.93387" lon="4.72454">
        <ele>173</ele>
        <time>2017-12-29T11:28:20Z</time>
      </trkpt>
      <trkpt lat="45.93386" lon="4.72461">
        <ele>173</ele>
        <time>2017-12-29T11:28:21Z</time>
      </trkpt>
      <trkpt lat="45.93383" lon="4.72466">
        <ele>173</ele>
        <time>2017-12-29T11:28:22Z</time>
      </trkpt>
      <trkpt lat="45.9338" lon="4.7247">
        <ele>173</ele>
        <time>2017-12-29T11:28:23Z</time>
      </trkpt>
      <trkpt lat="45.93376" lon="4.72476">
        <ele>173</ele>
        <time>2017-12-29T11:28:24Z</time>
      </trkpt>
      <trkpt lat="45.9337" lon="4.72484">
        <ele>173</ele>
        <time>2017-12-29T11:28:26Z</time>
      </trkpt>
      <trkpt lat="45.93366" lon="4.72488">
        <ele>173</ele>
        <time>2017-12-29T11:28:27Z</time>
      </trkpt>
      <trkpt lat="45.93361" lon="4.72496">
        <ele>173</ele>
        <time>2017-12-29T11:28:29Z</time>
      </trkpt>
      <trkpt lat="45.93358" lon="4.72499">
        <ele>173</ele>
        <time>2017-12-29T11:28:30Z</time>
      </trkpt>
      <trkpt lat="45.93355" lon="4.72505">
        <ele>172</ele>
        <time>2017-12-29T11:28:31Z</time>
      </trkpt>
      <trkpt lat="45.9335" lon="4.7251">
        <ele>172</ele>
        <time>2017-12-29T11:28:32Z</time>
      </trkpt>
      <trkpt lat="45.93346" lon="4.72514">
        <ele>172</ele>
        <time>2017-12-29T11:28:33Z</time>
      </trkpt>
      <trkpt lat="45.93342" lon="4.72519">
        <ele>172</ele>
        <time>2017-12-29T11:28:34Z</time>
      </trkpt>
      <trkpt lat="45.93336" lon="4.72524">
        <ele>172</ele>
        <time>2017-12-29T11:28:35Z</time>
      </trkpt>
      <trkpt lat="45.93331" lon="4.7253">
        <ele>172</ele>
        <time>2017-12-29T11:28:36Z</time>
      </trkpt>
      <trkpt lat="45.93327" lon="4.72535">
        <ele>172</ele>
        <time>2017-12-29T11:28:37Z</time>
      </trkpt>
      <trkpt lat="45.93323" lon="4.72539">
        <ele>172</ele>
        <time>2017-12-29T11:28:38Z</time>
      </trkpt>
      <trkpt lat="45.93318" lon="4.72545">
        <ele>172</ele>
        <time>2017-12-29T11:28:39Z</time>
      </trkpt>
      <trkpt lat="45.93314" lon="4.7255">
        <ele>172</ele>
        <time>2017-12-29T11:28:40Z</time>
      </trkpt>
      <trkpt lat="45.93312" lon="4.72552">
        <ele>172</ele>
        <time>2017-12-29T11:28:41Z</time>
      </trkpt>
      <trkpt lat="45.93307" lon="4.72558">
        <ele>172</ele>
        <time>2017-12-29T11:28:42Z</time>
      </trkpt>
      <trkpt lat="45.93301" lon="4.72566">
        <ele>172</ele>
        <time>2017-12-29T11:28:44Z</time>
      </trkpt>
      <trkpt lat="45.93298" lon="4.72569">
        <ele>171</ele>
        <time>2017-12-29T11:28:45Z</time>
      </trkpt>
      <trkpt lat="45.93294" lon="4.72574">
        <ele>171</ele>
        <time>2017-12-29T11:28:46Z</time>
      </trkpt>
      <trkpt lat="45.9329" lon="4.72578">
        <ele>171</ele>
        <time>2017-12-29T11:28:47Z</time>
      </trkpt>
      <trkpt lat="45.93285" lon="4.72582">
        <ele>171</ele>
        <time>2017-12-29T11:28:48Z</time>
      </trkpt>
      <trkpt lat="45.93281" lon="4.72586">
        <ele>170</ele>
        <time>2017-12-29T11:28:49Z</time>
      </trkpt>
      <trkpt lat="45.93276" lon="4.72591">
        <ele>170</ele>
        <time>2017-12-29T11:28:50Z</time>
      </trkpt>
      <trkpt lat="45.93272" lon="4.72596">
        <ele>170</ele>
        <time>2017-12-29T11:28:51Z</time>
      </trkpt>
      <trkpt lat="45.93268" lon="4.72601">
        <ele>170</ele>
        <time>2017-12-29T11:28:52Z</time>
      </trkpt>
      <trkpt lat="45.93263" lon="4.72606">
        <ele>170</ele>
        <time>2017-12-29T11:28:53Z</time>
      </trkpt>
      <trkpt lat="45.93259" lon="4.7261">
        <ele>170</ele>
        <time>2017-12-29T11:28:54Z</time>
      </trkpt>
      <trkpt lat="45.93254" lon="4.72617">
        <ele>170</ele>
        <time>2017-12-29T11:28:55Z</time>
      </trkpt>
      <trkpt lat="45.93251" lon="4.72621">
        <ele>170</ele>
        <time>2017-12-29T11:28:56Z</time>
      </trkpt>
      <trkpt lat="45.93246" lon="4.72626">
        <ele>170</ele>
        <time>2017-12-29T11:28:57Z</time>
      </trkpt>
      <trkpt lat="45.93241" lon="4.7263">
        <ele>170</ele>
        <time>2017-12-29T11:28:58Z</time>
      </trkpt>
      <trkpt lat="45.93237" lon="4.72635">
        <ele>170</ele>
        <time>2017-12-29T11:28:59Z</time>
      </trkpt>
      <trkpt lat="45.9323" lon="4.72644">
        <ele>170</ele>
        <time>2017-12-29T11:29:01Z</time>
      </trkpt>
      <trkpt lat="45.93226" lon="4.72648">
        <ele>170</ele>
        <time>2017-12-29T11:29:02Z</time>
      </trkpt>
      <trkpt lat="45.93222" lon="4.72652">
        <ele>170</ele>
        <time>2017-12-29T11:29:03Z</time>
      </trkpt>
      <trkpt lat="45.93218" lon="4.72657">
        <ele>170</ele>
        <time>2017-12-29T11:29:04Z</time>
      </trkpt>
      <trkpt lat="45.93215" lon="4.72662">
        <ele>170</ele>
        <time>2017-12-29T11:29:05Z</time>
      </trkpt>
      <trkpt lat="45.93211" lon="4.72666">
        <ele>170</ele>
        <time>2017-12-29T11:29:06Z</time>
      </trkpt>
      <trkpt lat="45.93207" lon="4.72671">
        <ele>169</ele>
        <time>2017-12-29T11:29:07Z</time>
      </trkpt>
      <trkpt lat="45.93203" lon="4.72676">
        <ele>169</ele>
        <time>2017-12-29T11:29:08Z</time>
      </trkpt>
      <trkpt lat="45.93199" lon="4.7268">
        <ele>169</ele>
        <time>2017-12-29T11:29:09Z</time>
      </trkpt>
      <trkpt lat="45.93195" lon="4.72685">
        <ele>169</ele>
        <time>2017-12-29T11:29:10Z</time>
      </trkpt>
      <trkpt lat="45.93191" lon="4.72689">
        <ele>169</ele>
        <time>2017-12-29T11:29:11Z</time>
      </trkpt>
      <trkpt lat="45.93187" lon="4.72694">
        <ele>169</ele>
        <time>2017-12-29T11:29:12Z</time>
      </trkpt>
      <trkpt lat="45.93182" lon="4.72699">
        <ele>169</ele>
        <time>2017-12-29T11:29:13Z</time>
      </trkpt>
      <trkpt lat="45.93178" lon="4.72705">
        <ele>169</ele>
        <time>2017-12-29T11:29:14Z</time>
      </trkpt>
      <trkpt lat="45.93174" lon="4.72711">
        <ele>170</ele>
        <time>2017-12-29T11:29:15Z</time>
      </trkpt>
      <trkpt lat="45.9317" lon="4.72716">
        <ele>170</ele>
        <time>2017-12-29T11:29:16Z</time>
      </trkpt>
      <trkpt lat="45.93166" lon="4.72721">
        <ele>170</ele>
        <time>2017-12-29T11:29:17Z</time>
      </trkpt>
      <trkpt lat="45.93161" lon="4.72726">
        <ele>170</ele>
        <time>2017-12-29T11:29:18Z</time>
      </trkpt>
      <trkpt lat="45.93158" lon="4.72732">
        <ele>170</ele>
        <time>2017-12-29T11:29:19Z</time>
      </trkpt>
      <trkpt lat="45.93153" lon="4.72738">
        <ele>170</ele>
        <time>2017-12-29T11:29:20Z</time>
      </trkpt>
      <trkpt lat="45.93149" lon="4.72743">
        <ele>170</ele>
        <time>2017-12-29T11:29:21Z</time>
      </trkpt>
      <trkpt lat="45.93145" lon="4.72747">
        <ele>170</ele>
        <time>2017-12-29T11:29:22Z</time>
      </trkpt>
      <trkpt lat="45.9314" lon="4.72752">
        <ele>171</ele>
        <time>2017-12-29T11:29:23Z</time>
      </trkpt>
      <trkpt lat="45.93136" lon="4.72757">
        <ele>171</ele>
        <time>2017-12-29T11:29:24Z</time>
      </trkpt>
      <trkpt lat="45.93132" lon="4.72762">
        <ele>171</ele>
        <time>2017-12-29T11:29:25Z</time>
      </trkpt>
      <trkpt lat="45.93127" lon="4.72768">
        <ele>171</ele>
        <time>2017-12-29T11:29:26Z</time>
      </trkpt>
      <trkpt lat="45.93122" lon="4.72774">
        <ele>171</ele>
        <time>2017-12-29T11:29:27Z</time>
      </trkpt>
      <trkpt lat="45.93118" lon="4.72779">
        <ele>171</ele>
        <time>2017-12-29T11:29:28Z</time>
      </trkpt>
      <trkpt lat="45.93115" lon="4.72784">
        <ele>171</ele>
        <time>2017-12-29T11:29:29Z</time>
      </trkpt>
      <trkpt lat="45.9311" lon="4.72791">
        <ele>171</ele>
        <time>2017-12-29T11:29:30Z</time>
      </trkpt>
      <trkpt lat="45.93105" lon="4.72796">
        <ele>171</ele>
        <time>2017-12-29T11:29:31Z</time>
      </trkpt>
      <trkpt lat="45.93101" lon="4.728">
        <ele>171</ele>
        <time>2017-12-29T11:29:32Z</time>
      </trkpt>
      <trkpt lat="45.93097" lon="4.72806">
        <ele>172</ele>
        <time>2017-12-29T11:29:33Z</time>
      </trkpt>
      <trkpt lat="45.93093" lon="4.72811">
        <ele>172</ele>
        <time>2017-12-29T11:29:34Z</time>
      </trkpt>
      <trkpt lat="45.93088" lon="4.72814">
        <ele>172</ele>
        <time>2017-12-29T11:29:35Z</time>
      </trkpt>
      <trkpt lat="45.93084" lon="4.72818">
        <ele>172</ele>
        <time>2017-12-29T11:29:36Z</time>
      </trkpt>
      <trkpt lat="45.9308" lon="4.72822">
        <ele>173</ele>
        <time>2017-12-29T11:29:37Z</time>
      </trkpt>
      <trkpt lat="45.93075" lon="4.72825">
        <ele>173</ele>
        <time>2017-12-29T11:29:38Z</time>
      </trkpt>
      <trkpt lat="45.9307" lon="4.72835">
        <ele>173</ele>
        <time>2017-12-29T11:29:40Z</time>
      </trkpt>
      <trkpt lat="45.9307" lon="4.72838">
        <ele>173</ele>
        <time>2017-12-29T11:29:41Z</time>
      </trkpt>
      <trkpt lat="45.93068" lon="4.72844">
        <ele>173</ele>
        <time>2017-12-29T11:29:42Z</time>
      </trkpt>
      <trkpt lat="45.93067" lon="4.72855">
        <ele>172</ele>
        <time>2017-12-29T11:29:43Z</time>
      </trkpt>
      <trkpt lat="45.93054" lon="4.72855">
        <ele>172</ele>
        <time>2017-12-29T11:29:44Z</time>
      </trkpt>
      <trkpt lat="45.93049" lon="4.72858">
        <ele>172</ele>
        <time>2017-12-29T11:29:45Z</time>
      </trkpt>
      <trkpt lat="45.93044" lon="4.72863">
        <ele>172</ele>
        <time>2017-12-29T11:29:46Z</time>
      </trkpt>
      <trkpt lat="45.93041" lon="4.72867">
        <ele>172</ele>
        <time>2017-12-29T11:29:47Z</time>
      </trkpt>
      <trkpt lat="45.93037" lon="4.7287">
        <ele>172</ele>
        <time>2017-12-29T11:29:48Z</time>
      </trkpt>
      <trkpt lat="45.93033" lon="4.72875">
        <ele>172</ele>
        <time>2017-12-29T11:29:49Z</time>
      </trkpt>
      <trkpt lat="45.93029" lon="4.7288">
        <ele>172</ele>
        <time>2017-12-29T11:29:50Z</time>
      </trkpt>
      <trkpt lat="45.93025" lon="4.72886">
        <ele>172</ele>
        <time>2017-12-29T11:29:51Z</time>
      </trkpt>
      <trkpt lat="45.93022" lon="4.7289">
        <ele>172</ele>
        <time>2017-12-29T11:29:52Z</time>
      </trkpt>
      <trkpt lat="45.93015" lon="4.72898">
        <ele>172</ele>
        <time>2017-12-29T11:29:54Z</time>
      </trkpt>
      <trkpt lat="45.93011" lon="4.72902">
        <ele>172</ele>
        <time>2017-12-29T11:29:55Z</time>
      </trkpt>
      <trkpt lat="45.93008" lon="4.72907">
        <ele>171</ele>
        <time>2017-12-29T11:29:56Z</time>
      </trkpt>
      <trkpt lat="45.93005" lon="4.72911">
        <ele>171</ele>
        <time>2017-12-29T11:29:57Z</time>
      </trkpt>
      <trkpt lat="45.93001" lon="4.72916">
        <ele>171</ele>
        <time>2017-12-29T11:29:58Z</time>
      </trkpt>
      <trkpt lat="45.92997" lon="4.72921">
        <ele>171</ele>
        <time>2017-12-29T11:29:59Z</time>
      </trkpt>
      <trkpt lat="45.92994" lon="4.72925">
        <ele>171</ele>
        <time>2017-12-29T11:30:00Z</time>
      </trkpt>
      <trkpt lat="45.9299" lon="4.72929">
        <ele>171</ele>
        <time>2017-12-29T11:30:01Z</time>
      </trkpt>
      <trkpt lat="45.92986" lon="4.72934">
        <ele>171</ele>
        <time>2017-12-29T11:30:02Z</time>
      </trkpt>
      <trkpt lat="45.92981" lon="4.72938">
        <ele>171</ele>
        <time>2017-12-29T11:30:03Z</time>
      </trkpt>
      <trkpt lat="45.92978" lon="4.72944">
        <ele>171</ele>
        <time>2017-12-29T11:30:04Z</time>
      </trkpt>
      <trkpt lat="45.92973" lon="4.72949">
        <ele>171</ele>
        <time>2017-12-29T11:30:05Z</time>
      </trkpt>
      <trkpt lat="45.92969" lon="4.72954">
        <ele>171</ele>
        <time>2017-12-29T11:30:06Z</time>
      </trkpt>
      <trkpt lat="45.92966" lon="4.72958">
        <ele>171</ele>
        <time>2017-12-29T11:30:07Z</time>
      </trkpt>
      <trkpt lat="45.92962" lon="4.72963">
        <ele>171</ele>
        <time>2017-12-29T11:30:08Z</time>
      </trkpt>
      <trkpt lat="45.92957" lon="4.72968">
        <ele>171</ele>
        <time>2017-12-29T11:30:09Z</time>
      </trkpt>
      <trkpt lat="45.92953" lon="4.72973">
        <ele>171</ele>
        <time>2017-12-29T11:30:10Z</time>
      </trkpt>
      <trkpt lat="45.92949" lon="4.72978">
        <ele>171</ele>
        <time>2017-12-29T11:30:11Z</time>
      </trkpt>
      <trkpt lat="45.92945" lon="4.72983">
        <ele>171</ele>
        <time>2017-12-29T11:30:12Z</time>
      </trkpt>
      <trkpt lat="45.92941" lon="4.72989">
        <ele>171</ele>
        <time>2017-12-29T11:30:13Z</time>
      </trkpt>
      <trkpt lat="45.92937" lon="4.72994">
        <ele>171</ele>
        <time>2017-12-29T11:30:14Z</time>
      </trkpt>
      <trkpt lat="45.92933" lon="4.72998">
        <ele>172</ele>
        <time>2017-12-29T11:30:15Z</time>
      </trkpt>
      <trkpt lat="45.92928" lon="4.73003">
        <ele>172</ele>
        <time>2017-12-29T11:30:16Z</time>
      </trkpt>
      <trkpt lat="45.92924" lon="4.73008">
        <ele>172</ele>
        <time>2017-12-29T11:30:17Z</time>
      </trkpt>
      <trkpt lat="45.92919" lon="4.73013">
        <ele>172</ele>
        <time>2017-12-29T11:30:18Z</time>
      </trkpt>
      <trkpt lat="45.92915" lon="4.73018">
        <ele>172</ele>
        <time>2017-12-29T11:30:19Z</time>
      </trkpt>
      <trkpt lat="45.92912" lon="4.73023">
        <ele>172</ele>
        <time>2017-12-29T11:30:20Z</time>
      </trkpt>
      <trkpt lat="45.92908" lon="4.73029">
        <ele>172</ele>
        <time>2017-12-29T11:30:21Z</time>
      </trkpt>
      <trkpt lat="45.92903" lon="4.73035">
        <ele>172</ele>
        <time>2017-12-29T11:30:22Z</time>
      </trkpt>
      <trkpt lat="45.92899" lon="4.7304">
        <ele>172</ele>
        <time>2017-12-29T11:30:23Z</time>
      </trkpt>
      <trkpt lat="45.92893" lon="4.73046">
        <ele>172</ele>
        <time>2017-12-29T11:30:24Z</time>
      </trkpt>
      <trkpt lat="45.9289" lon="4.73053">
        <ele>172</ele>
        <time>2017-12-29T11:30:25Z</time>
      </trkpt>
      <trkpt lat="45.92886" lon="4.73059">
        <ele>172</ele>
        <time>2017-12-29T11:30:26Z</time>
      </trkpt>
      <trkpt lat="45.92883" lon="4.73064">
        <ele>172</ele>
        <time>2017-12-29T11:30:27Z</time>
      </trkpt>
      <trkpt lat="45.92877" lon="4.73074">
        <ele>172</ele>
        <time>2017-12-29T11:30:29Z</time>
      </trkpt>
      <trkpt lat="45.92874" lon="4.73077">
        <ele>172</ele>
        <time>2017-12-29T11:30:30Z</time>
      </trkpt>
      <trkpt lat="45.9287" lon="4.73081">
        <ele>172</ele>
        <time>2017-12-29T11:30:31Z</time>
      </trkpt>
      <trkpt lat="45.92867" lon="4.73086">
        <ele>172</ele>
        <time>2017-12-29T11:30:32Z</time>
      </trkpt>
      <trkpt lat="45.92861" lon="4.73096">
        <ele>171</ele>
        <time>2017-12-29T11:30:34Z</time>
      </trkpt>
      <trkpt lat="45.92857" lon="4.731">
        <ele>171</ele>
        <time>2017-12-29T11:30:35Z</time>
      </trkpt>
      <trkpt lat="45.92849" lon="4.73101">
        <ele>171</ele>
        <time>2017-12-29T11:30:37Z</time>
      </trkpt>
      <trkpt lat="45.92846" lon="4.73096">
        <ele>171</ele>
        <time>2017-12-29T11:30:38Z</time>
      </trkpt>
      <trkpt lat="45.92844" lon="4.7309">
        <ele>171</ele>
        <time>2017-12-29T11:30:39Z</time>
      </trkpt>
      <trkpt lat="45.92845" lon="4.73081">
        <ele>171</ele>
        <time>2017-12-29T11:30:40Z</time>
      </trkpt>
      <trkpt lat="45.92844" lon="4.73073">
        <ele>171</ele>
        <time>2017-12-29T11:30:41Z</time>
      </trkpt>
      <trkpt lat="45.92844" lon="4.73066">
        <ele>171</ele>
        <time>2017-12-29T11:30:42Z</time>
      </trkpt>
      <trkpt lat="45.92843" lon="4.73059">
        <ele>171</ele>
        <time>2017-12-29T11:30:43Z</time>
      </trkpt>
      <trkpt lat="45.92842" lon="4.73052">
        <ele>171</ele>
        <time>2017-12-29T11:30:44Z</time>
      </trkpt>
      <trkpt lat="45.92841" lon="4.73044">
        <ele>171</ele>
        <time>2017-12-29T11:30:45Z</time>
      </trkpt>
      <trkpt lat="45.9284" lon="4.73037">
        <ele>171</ele>
        <time>2017-12-29T11:30:46Z</time>
      </trkpt>
      <trkpt lat="45.92839" lon="4.7303">
        <ele>171</ele>
        <time>2017-12-29T11:30:47Z</time>
      </trkpt>
      <trkpt lat="45.92837" lon="4.73024">
        <ele>171</ele>
        <time>2017-12-29T11:30:48Z</time>
      </trkpt>
      <trkpt lat="45.92834" lon="4.73012">
        <ele>171</ele>
        <time>2017-12-29T11:30:50Z</time>
      </trkpt>
      <trkpt lat="45.92832" lon="4.73005">
        <ele>170</ele>
        <time>2017-12-29T11:30:51Z</time>
      </trkpt>
      <trkpt lat="45.92832" lon="4.72999">
        <ele>170</ele>
        <time>2017-12-29T11:30:52Z</time>
      </trkpt>
      <trkpt lat="45.92832" lon="4.72991">
        <ele>170</ele>
        <time>2017-12-29T11:30:53Z</time>
      </trkpt>
      <trkpt lat="45.92831" lon="4.72985">
        <ele>170</ele>
        <time>2017-12-29T11:30:54Z</time>
      </trkpt>
      <trkpt lat="45.9283" lon="4.72977">
        <ele>170</ele>
        <time>2017-12-29T11:30:55Z</time>
      </trkpt>
      <trkpt lat="45.9283" lon="4.7297">
        <ele>170</ele>
        <time>2017-12-29T11:30:56Z</time>
      </trkpt>
      <trkpt lat="45.92829" lon="4.72963">
        <ele>170</ele>
        <time>2017-12-29T11:30:57Z</time>
      </trkpt>
      <trkpt lat="45.92828" lon="4.72955">
        <ele>170</ele>
        <time>2017-12-29T11:30:58Z</time>
      </trkpt>
      <trkpt lat="45.92828" lon="4.72947">
        <ele>170</ele>
        <time>2017-12-29T11:30:59Z</time>
      </trkpt>
      <trkpt lat="45.92828" lon="4.72941">
        <ele>170</ele>
        <time>2017-12-29T11:31:00Z</time>
      </trkpt>
      <trkpt lat="45.92827" lon="4.72934">
        <ele>170</ele>
        <time>2017-12-29T11:31:01Z</time>
      </trkpt>
      <trkpt lat="45.92826" lon="4.72927">
        <ele>170</ele>
        <time>2017-12-29T11:31:02Z</time>
      </trkpt>
      <trkpt lat="45.92826" lon="4.7292">
        <ele>170</ele>
        <time>2017-12-29T11:31:03Z</time>
      </trkpt>
      <trkpt lat="45.92824" lon="4.72914">
        <ele>170</ele>
        <time>2017-12-29T11:31:04Z</time>
      </trkpt>
      <trkpt lat="45.92823" lon="4.72907">
        <ele>170</ele>
        <time>2017-12-29T11:31:05Z</time>
      </trkpt>
      <trkpt lat="45.92822" lon="4.72901">
        <ele>170</ele>
        <time>2017-12-29T11:31:06Z</time>
      </trkpt>
      <trkpt lat="45.92821" lon="4.72894">
        <ele>170</ele>
        <time>2017-12-29T11:31:07Z</time>
      </trkpt>
      <trkpt lat="45.9282" lon="4.72887">
        <ele>170</ele>
        <time>2017-12-29T11:31:08Z</time>
      </trkpt>
      <trkpt lat="45.92818" lon="4.7288">
        <ele>170</ele>
        <time>2017-12-29T11:31:09Z</time>
      </trkpt>
      <trkpt lat="45.92817" lon="4.72873">
        <ele>170</ele>
        <time>2017-12-29T11:31:10Z</time>
      </trkpt>
      <trkpt lat="45.92816" lon="4.72864">
        <ele>170</ele>
        <time>2017-12-29T11:31:11Z</time>
      </trkpt>
      <trkpt lat="45.92814" lon="4.72858">
        <ele>170</ele>
        <time>2017-12-29T11:31:12Z</time>
      </trkpt>
      <trkpt lat="45.92813" lon="4.72852">
        <ele>170</ele>
        <time>2017-12-29T11:31:13Z</time>
      </trkpt>
      <trkpt lat="45.9281" lon="4.7284">
        <ele>170</ele>
        <time>2017-12-29T11:31:15Z</time>
      </trkpt>
      <trkpt lat="45.92809" lon="4.72834">
        <ele>170</ele>
        <time>2017-12-29T11:31:16Z</time>
      </trkpt>
      <trkpt lat="45.92808" lon="4.72828">
        <ele>171</ele>
        <time>2017-12-29T11:31:17Z</time>
      </trkpt>
      <trkpt lat="45.92807" lon="4.72821">
        <ele>171</ele>
        <time>2017-12-29T11:31:18Z</time>
      </trkpt>
      <trkpt lat="45.92806" lon="4.72815">
        <ele>171</ele>
        <time>2017-12-29T11:31:19Z</time>
      </trkpt>
      <trkpt lat="45.92805" lon="4.72808">
        <ele>171</ele>
        <time>2017-12-29T11:31:20Z</time>
      </trkpt>
      <trkpt lat="45.92804" lon="4.728">
        <ele>171</ele>
        <time>2017-12-29T11:31:21Z</time>
      </trkpt>
      <trkpt lat="45.92802" lon="4.72794">
        <ele>171</ele>
        <time>2017-12-29T11:31:22Z</time>
      </trkpt>
      <trkpt lat="45.92798" lon="4.72784">
        <ele>171</ele>
        <time>2017-12-29T11:31:24Z</time>
      </trkpt>
      <trkpt lat="45.92794" lon="4.72782">
        <ele>171</ele>
        <time>2017-12-29T11:31:25Z</time>
      </trkpt>
      <trkpt lat="45.92787" lon="4.72787">
        <ele>171</ele>
        <time>2017-12-29T11:31:27Z</time>
      </trkpt>
      <trkpt lat="45.92784" lon="4.7279">
        <ele>170</ele>
        <time>2017-12-29T11:31:28Z</time>
      </trkpt>
      <trkpt lat="45.92781" lon="4.72794">
        <ele>170</ele>
        <time>2017-12-29T11:31:29Z</time>
      </trkpt>
      <trkpt lat="45.92776" lon="4.72797">
        <ele>170</ele>
        <time>2017-12-29T11:31:30Z</time>
      </trkpt>
      <trkpt lat="45.92772" lon="4.72802">
        <ele>170</ele>
        <time>2017-12-29T11:31:31Z</time>
      </trkpt>
      <trkpt lat="45.92767" lon="4.72804">
        <ele>170</ele>
        <time>2017-12-29T11:31:32Z</time>
      </trkpt>
      <trkpt lat="45.92762" lon="4.72808">
        <ele>170</ele>
        <time>2017-12-29T11:31:33Z</time>
      </trkpt>
      <trkpt lat="45.92757" lon="4.72811">
        <ele>170</ele>
        <time>2017-12-29T11:31:34Z</time>
      </trkpt>
      <trkpt lat="45.92752" lon="4.72815">
        <ele>170</ele>
        <time>2017-12-29T11:31:35Z</time>
      </trkpt>
      <trkpt lat="45.92748" lon="4.72818">
        <ele>169</ele>
        <time>2017-12-29T11:31:36Z</time>
      </trkpt>
      <trkpt lat="45.92744" lon="4.72821">
        <ele>169</ele>
        <time>2017-12-29T11:31:37Z</time>
      </trkpt>
      <trkpt lat="45.92739" lon="4.72825">
        <ele>169</ele>
        <time>2017-12-29T11:31:38Z</time>
      </trkpt>
      <trkpt lat="45.92735" lon="4.72828">
        <ele>169</ele>
        <time>2017-12-29T11:31:39Z</time>
      </trkpt>
      <trkpt lat="45.92731" lon="4.72831">
        <ele>169</ele>
        <time>2017-12-29T11:31:40Z</time>
      </trkpt>
      <trkpt lat="45.92723" lon="4.72837">
        <ele>169</ele>
        <time>2017-12-29T11:31:42Z</time>
      </trkpt>
      <trkpt lat="45.92719" lon="4.72839">
        <ele>169</ele>
        <time>2017-12-29T11:31:43Z</time>
      </trkpt>
      <trkpt lat="45.92715" lon="4.72843">
        <ele>169</ele>
        <time>2017-12-29T11:31:44Z</time>
      </trkpt>
      <trkpt lat="45.92711" lon="4.72846">
        <ele>169</ele>
        <time>2017-12-29T11:31:45Z</time>
      </trkpt>
      <trkpt lat="45.92706" lon="4.7285">
        <ele>169</ele>
        <time>2017-12-29T11:31:46Z</time>
      </trkpt>
      <trkpt lat="45.92702" lon="4.72855">
        <ele>169</ele>
        <time>2017-12-29T11:31:47Z</time>
      </trkpt>
      <trkpt lat="45.92698" lon="4.72858">
        <ele>169</ele>
        <time>2017-12-29T11:31:48Z</time>
      </trkpt>
      <trkpt lat="45.92693" lon="4.72862">
        <ele>169</ele>
        <time>2017-12-29T11:31:49Z</time>
      </trkpt>
      <trkpt lat="45.92688" lon="4.72865">
        <ele>169</ele>
        <time>2017-12-29T11:31:50Z</time>
      </trkpt>
      <trkpt lat="45.92684" lon="4.72868">
        <ele>169</ele>
        <time>2017-12-29T11:31:51Z</time>
      </trkpt>
      <trkpt lat="45.92679" lon="4.72873">
        <ele>169</ele>
        <time>2017-12-29T11:31:52Z</time>
      </trkpt>
      <trkpt lat="45.92674" lon="4.72877">
        <ele>170</ele>
        <time>2017-12-29T11:31:53Z</time>
      </trkpt>
      <trkpt lat="45.92669" lon="4.72881">
        <ele>170</ele>
        <time>2017-12-29T11:31:54Z</time>
      </trkpt>
      <trkpt lat="45.92665" lon="4.72886">
        <ele>169</ele>
        <time>2017-12-29T11:31:55Z</time>
      </trkpt>
      <trkpt lat="45.92659" lon="4.72889">
        <ele>169</ele>
        <time>2017-12-29T11:31:56Z</time>
      </trkpt>
      <trkpt lat="45.92655" lon="4.72892">
        <ele>169</ele>
        <time>2017-12-29T11:31:57Z</time>
      </trkpt>
      <trkpt lat="45.92651" lon="4.72895">
        <ele>169</ele>
        <time>2017-12-29T11:31:58Z</time>
      </trkpt>
      <trkpt lat="45.92647" lon="4.72899">
        <ele>169</ele>
        <time>2017-12-29T11:31:59Z</time>
      </trkpt>
      <trkpt lat="45.92643" lon="4.72903">
        <ele>169</ele>
        <time>2017-12-29T11:32:00Z</time>
      </trkpt>
      <trkpt lat="45.92639" lon="4.72907">
        <ele>169</ele>
        <time>2017-12-29T11:32:01Z</time>
      </trkpt>
      <trkpt lat="45.92635" lon="4.72911">
        <ele>169</ele>
        <time>2017-12-29T11:32:02Z</time>
      </trkpt>
      <trkpt lat="45.9263" lon="4.72915">
        <ele>169</ele>
        <time>2017-12-29T11:32:03Z</time>
      </trkpt>
      <trkpt lat="45.92626" lon="4.72919">
        <ele>170</ele>
        <time>2017-12-29T11:32:04Z</time>
      </trkpt>
      <trkpt lat="45.92622" lon="4.72922">
        <ele>169</ele>
        <time>2017-12-29T11:32:05Z</time>
      </trkpt>
      <trkpt lat="45.92617" lon="4.72927">
        <ele>169</ele>
        <time>2017-12-29T11:32:06Z</time>
      </trkpt>
      <trkpt lat="45.92613" lon="4.72933">
        <ele>169</ele>
        <time>2017-12-29T11:32:07Z</time>
      </trkpt>
      <trkpt lat="45.92609" lon="4.72937">
        <ele>169</ele>
        <time>2017-12-29T11:32:08Z</time>
      </trkpt>
      <trkpt lat="45.92603" lon="4.72942">
        <ele>169</ele>
        <time>2017-12-29T11:32:09Z</time>
      </trkpt>
      <trkpt lat="45.92598" lon="4.72948">
        <ele>169</ele>
        <time>2017-12-29T11:32:10Z</time>
      </trkpt>
      <trkpt lat="45.92594" lon="4.72953">
        <ele>169</ele>
        <time>2017-12-29T11:32:11Z</time>
      </trkpt>
      <trkpt lat="45.92589" lon="4.72958">
        <ele>169</ele>
        <time>2017-12-29T11:32:12Z</time>
      </trkpt>
      <trkpt lat="45.92586" lon="4.72962">
        <ele>169</ele>
        <time>2017-12-29T11:32:13Z</time>
      </trkpt>
      <trkpt lat="45.92581" lon="4.72965">
        <ele>169</ele>
        <time>2017-12-29T11:32:14Z</time>
      </trkpt>
      <trkpt lat="45.92577" lon="4.7297">
        <ele>169</ele>
        <time>2017-12-29T11:32:15Z</time>
      </trkpt>
      <trkpt lat="45.92572" lon="4.72974">
        <ele>169</ele>
        <time>2017-12-29T11:32:16Z</time>
      </trkpt>
      <trkpt lat="45.92568" lon="4.72978">
        <ele>169</ele>
        <time>2017-12-29T11:32:17Z</time>
      </trkpt>
      <trkpt lat="45.92564" lon="4.72982">
        <ele>169</ele>
        <time>2017-12-29T11:32:18Z</time>
      </trkpt>
      <trkpt lat="45.9256" lon="4.72987">
        <ele>169</ele>
        <time>2017-12-29T11:32:19Z</time>
      </trkpt>
      <trkpt lat="45.92555" lon="4.72992">
        <ele>169</ele>
        <time>2017-12-29T11:32:20Z</time>
      </trkpt>
      <trkpt lat="45.92551" lon="4.72997">
        <ele>169</ele>
        <time>2017-12-29T11:32:21Z</time>
      </trkpt>
      <trkpt lat="45.92547" lon="4.73001">
        <ele>169</ele>
        <time>2017-12-29T11:32:22Z</time>
      </trkpt>
      <trkpt lat="45.92542" lon="4.73005">
        <ele>169</ele>
        <time>2017-12-29T11:32:23Z</time>
      </trkpt>
      <trkpt lat="45.92538" lon="4.73009">
        <ele>169</ele>
        <time>2017-12-29T11:32:24Z</time>
      </trkpt>
      <trkpt lat="45.92533" lon="4.73014">
        <ele>169</ele>
        <time>2017-12-29T11:32:25Z</time>
      </trkpt>
      <trkpt lat="45.92528" lon="4.73017">
        <ele>169</ele>
        <time>2017-12-29T11:32:26Z</time>
      </trkpt>
      <trkpt lat="45.92523" lon="4.73022">
        <ele>169</ele>
        <time>2017-12-29T11:32:27Z</time>
      </trkpt>
      <trkpt lat="45.92519" lon="4.73027">
        <ele>169</ele>
        <time>2017-12-29T11:32:28Z</time>
      </trkpt>
      <trkpt lat="45.92514" lon="4.73031">
        <ele>169</ele>
        <time>2017-12-29T11:32:29Z</time>
      </trkpt>
      <trkpt lat="45.92509" lon="4.73034">
        <ele>169</ele>
        <time>2017-12-29T11:32:30Z</time>
      </trkpt>
      <trkpt lat="45.92506" lon="4.73036">
        <ele>169</ele>
        <time>2017-12-29T11:32:31Z</time>
      </trkpt>
      <trkpt lat="45.92502" lon="4.7304">
        <ele>169</ele>
        <time>2017-12-29T11:32:32Z</time>
      </trkpt>
      <trkpt lat="45.92497" lon="4.73043">
        <ele>170</ele>
        <time>2017-12-29T11:32:33Z</time>
      </trkpt>
      <trkpt lat="45.9249" lon="4.73049">
        <ele>170</ele>
        <time>2017-12-29T11:32:35Z</time>
      </trkpt>
      <trkpt lat="45.92485" lon="4.73053">
        <ele>170</ele>
        <time>2017-12-29T11:32:36Z</time>
      </trkpt>
      <trkpt lat="45.92481" lon="4.73056">
        <ele>170</ele>
        <time>2017-12-29T11:32:37Z</time>
      </trkpt>
      <trkpt lat="45.92476" lon="4.7306">
        <ele>170</ele>
        <time>2017-12-29T11:32:38Z</time>
      </trkpt>
      <trkpt lat="45.92472" lon="4.73064">
        <ele>170</ele>
        <time>2017-12-29T11:32:39Z</time>
      </trkpt>
      <trkpt lat="45.92468" lon="4.73068">
        <ele>170</ele>
        <time>2017-12-29T11:32:40Z</time>
      </trkpt>
      <trkpt lat="45.92464" lon="4.73073">
        <ele>170</ele>
        <time>2017-12-29T11:32:41Z</time>
      </trkpt>
      <trkpt lat="45.92459" lon="4.73077">
        <ele>170</ele>
        <time>2017-12-29T11:32:42Z</time>
      </trkpt>
      <trkpt lat="45.92454" lon="4.73082">
        <ele>170</ele>
        <time>2017-12-29T11:32:43Z</time>
      </trkpt>
      <trkpt lat="45.92449" lon="4.73085">
        <ele>170</ele>
        <time>2017-12-29T11:32:44Z</time>
      </trkpt>
      <trkpt lat="45.92445" lon="4.73088">
        <ele>170</ele>
        <time>2017-12-29T11:32:45Z</time>
      </trkpt>
      <trkpt lat="45.9244" lon="4.73092">
        <ele>171</ele>
        <time>2017-12-29T11:32:46Z</time>
      </trkpt>
      <trkpt lat="45.92432" lon="4.73099">
        <ele>171</ele>
        <time>2017-12-29T11:32:48Z</time>
      </trkpt>
      <trkpt lat="45.92428" lon="4.73102">
        <ele>171</ele>
        <time>2017-12-29T11:32:49Z</time>
      </trkpt>
      <trkpt lat="45.92424" lon="4.73106">
        <ele>171</ele>
        <time>2017-12-29T11:32:50Z</time>
      </trkpt>
      <trkpt lat="45.92421" lon="4.7311">
        <ele>170</ele>
        <time>2017-12-29T11:32:51Z</time>
      </trkpt>
      <trkpt lat="45.92417" lon="4.73114">
        <ele>170</ele>
        <time>2017-12-29T11:32:52Z</time>
      </trkpt>
      <trkpt lat="45.92413" lon="4.73118">
        <ele>171</ele>
        <time>2017-12-29T11:32:53Z</time>
      </trkpt>
      <trkpt lat="45.9241" lon="4.73122">
        <ele>171</ele>
        <time>2017-12-29T11:32:54Z</time>
      </trkpt>
      <trkpt lat="45.92407" lon="4.73128">
        <ele>171</ele>
        <time>2017-12-29T11:32:55Z</time>
      </trkpt>
      <trkpt lat="45.92406" lon="4.73136">
        <ele>171</ele>
        <time>2017-12-29T11:32:56Z</time>
      </trkpt>
      <trkpt lat="45.92407" lon="4.73143">
        <ele>171</ele>
        <time>2017-12-29T11:32:57Z</time>
      </trkpt>
      <trkpt lat="45.92407" lon="4.7315">
        <ele>171</ele>
        <time>2017-12-29T11:32:58Z</time>
      </trkpt>
      <trkpt lat="45.92406" lon="4.73157">
        <ele>170</ele>
        <time>2017-12-29T11:32:59Z</time>
      </trkpt>
      <trkpt lat="45.92407" lon="4.73164">
        <ele>170</ele>
        <time>2017-12-29T11:33:00Z</time>
      </trkpt>
      <trkpt lat="45.92407" lon="4.7317">
        <ele>170</ele>
        <time>2017-12-29T11:33:01Z</time>
      </trkpt>
      <trkpt lat="45.92407" lon="4.73177">
        <ele>171</ele>
        <time>2017-12-29T11:33:02Z</time>
      </trkpt>
      <trkpt lat="45.92405" lon="4.73183">
        <ele>171</ele>
        <time>2017-12-29T11:33:03Z</time>
      </trkpt>
      <trkpt lat="45.92405" lon="4.7319">
        <ele>171</ele>
        <time>2017-12-29T11:33:04Z</time>
      </trkpt>
      <trkpt lat="45.92406" lon="4.73196">
        <ele>171</ele>
        <time>2017-12-29T11:33:05Z</time>
      </trkpt>
      <trkpt lat="45.92407" lon="4.73208">
        <ele>171</ele>
        <time>2017-12-29T11:33:07Z</time>
      </trkpt>
      <trkpt lat="45.92408" lon="4.73215">
        <ele>171</ele>
        <time>2017-12-29T11:33:08Z</time>
      </trkpt>
      <trkpt lat="45.92408" lon="4.73224">
        <ele>171</ele>
        <time>2017-12-29T11:33:09Z</time>
      </trkpt>
      <trkpt lat="45.92408" lon="4.73233">
        <ele>171</ele>
        <time>2017-12-29T11:33:10Z</time>
      </trkpt>
      <trkpt lat="45.92409" lon="4.73239">
        <ele>171</ele>
        <time>2017-12-29T11:33:11Z</time>
      </trkpt>
      <trkpt lat="45.92409" lon="4.73246">
        <ele>171</ele>
        <time>2017-12-29T11:33:12Z</time>
      </trkpt>
      <trkpt lat="45.9241" lon="4.73254">
        <ele>171</ele>
        <time>2017-12-29T11:33:13Z</time>
      </trkpt>
      <trkpt lat="45.92411" lon="4.73261">
        <ele>171</ele>
        <time>2017-12-29T11:33:14Z</time>
      </trkpt>
      <trkpt lat="45.92412" lon="4.73269">
        <ele>171</ele>
        <time>2017-12-29T11:33:15Z</time>
      </trkpt>
      <trkpt lat="45.92411" lon="4.73275">
        <ele>171</ele>
        <time>2017-12-29T11:33:16Z</time>
      </trkpt>
      <trkpt lat="45.92411" lon="4.73283">
        <ele>171</ele>
        <time>2017-12-29T11:33:17Z</time>
      </trkpt>
      <trkpt lat="45.92412" lon="4.73292">
        <ele>171</ele>
        <time>2017-12-29T11:33:18Z</time>
      </trkpt>
      <trkpt lat="45.92413" lon="4.73299">
        <ele>171</ele>
        <time>2017-12-29T11:33:19Z</time>
      </trkpt>
      <trkpt lat="45.92413" lon="4.73307">
        <ele>171</ele>
        <time>2017-12-29T11:33:20Z</time>
      </trkpt>
      <trkpt lat="45.92414" lon="4.73314">
        <ele>171</ele>
        <time>2017-12-29T11:33:21Z</time>
      </trkpt>
      <trkpt lat="45.92415" lon="4.73321">
        <ele>171</ele>
        <time>2017-12-29T11:33:22Z</time>
      </trkpt>
      <trkpt lat="45.92416" lon="4.7333">
        <ele>171</ele>
        <time>2017-12-29T11:33:23Z</time>
      </trkpt>
      <trkpt lat="45.92417" lon="4.73338">
        <ele>171</ele>
        <time>2017-12-29T11:33:24Z</time>
      </trkpt>
      <trkpt lat="45.92418" lon="4.73345">
        <ele>171</ele>
        <time>2017-12-29T11:33:25Z</time>
      </trkpt>
      <trkpt lat="45.9242" lon="4.73352">
        <ele>171</ele>
        <time>2017-12-29T11:33:26Z</time>
      </trkpt>
      <trkpt lat="45.9242" lon="4.73358">
        <ele>171</ele>
        <time>2017-12-29T11:33:27Z</time>
      </trkpt>
      <trkpt lat="45.92421" lon="4.73365">
        <ele>172</ele>
        <time>2017-12-29T11:33:28Z</time>
      </trkpt>
      <trkpt lat="45.92421" lon="4.73372">
        <ele>172</ele>
        <time>2017-12-29T11:33:29Z</time>
      </trkpt>
      <trkpt lat="45.92422" lon="4.73379">
        <ele>172</ele>
        <time>2017-12-29T11:33:30Z</time>
      </trkpt>
      <trkpt lat="45.92424" lon="4.73385">
        <ele>172</ele>
        <time>2017-12-29T11:33:31Z</time>
      </trkpt>
      <trkpt lat="45.92426" lon="4.73396">
        <ele>172</ele>
        <time>2017-12-29T11:33:32Z</time>
      </trkpt>
      <trkpt lat="45.92428" lon="4.73403">
        <ele>172</ele>
        <time>2017-12-29T11:33:33Z</time>
      </trkpt>
      <trkpt lat="45.92432" lon="4.73408">
        <ele>172</ele>
        <time>2017-12-29T11:33:34Z</time>
      </trkpt>
      <trkpt lat="45.92435" lon="4.73412">
        <ele>172</ele>
        <time>2017-12-29T11:33:35Z</time>
      </trkpt>
      <trkpt lat="45.9244" lon="4.73416">
        <ele>172</ele>
        <time>2017-12-29T11:33:36Z</time>
      </trkpt>
      <trkpt lat="45.92445" lon="4.73419">
        <ele>173</ele>
        <time>2017-12-29T11:33:37Z</time>
      </trkpt>
      <trkpt lat="45.92448" lon="4.73424">
        <ele>173</ele>
        <time>2017-12-29T11:33:38Z</time>
      </trkpt>
      <trkpt lat="45.92453" lon="4.73427">
        <ele>173</ele>
        <time>2017-12-29T11:33:39Z</time>
      </trkpt>
      <trkpt lat="45.92457" lon="4.7343">
        <ele>173</ele>
        <time>2017-12-29T11:33:40Z</time>
      </trkpt>
      <trkpt lat="45.92461" lon="4.73437">
        <ele>173</ele>
        <time>2017-12-29T11:33:41Z</time>
      </trkpt>
      <trkpt lat="45.92464" lon="4.73444">
        <ele>173</ele>
        <time>2017-12-29T11:33:42Z</time>
      </trkpt>
      <trkpt lat="45.92466" lon="4.73451">
        <ele>173</ele>
        <time>2017-12-29T11:33:43Z</time>
      </trkpt>
      <trkpt lat="45.92468" lon="4.7346">
        <ele>173</ele>
        <time>2017-12-29T11:33:44Z</time>
      </trkpt>
      <trkpt lat="45.92469" lon="4.73468">
        <ele>173</ele>
        <time>2017-12-29T11:33:45Z</time>
      </trkpt>
      <trkpt lat="45.92469" lon="4.73475">
        <ele>173</ele>
        <time>2017-12-29T11:33:46Z</time>
      </trkpt>
      <trkpt lat="45.92469" lon="4.73482">
        <ele>173</ele>
        <time>2017-12-29T11:33:47Z</time>
      </trkpt>
      <trkpt lat="45.92469" lon="4.73488">
        <ele>173</ele>
        <time>2017-12-29T11:33:48Z</time>
      </trkpt>
      <trkpt lat="45.92469" lon="4.735">
        <ele>174</ele>
        <time>2017-12-29T11:33:50Z</time>
      </trkpt>
      <trkpt lat="45.92469" lon="4.73508">
        <ele>174</ele>
        <time>2017-12-29T11:33:51Z</time>
      </trkpt>
      <trkpt lat="45.92469" lon="4.73519">
        <ele>174</ele>
        <time>2017-12-29T11:33:53Z</time>
      </trkpt>
      <trkpt lat="45.92469" lon="4.73524">
        <ele>174</ele>
        <time>2017-12-29T11:33:54Z</time>
      </trkpt>
      <trkpt lat="45.92469" lon="4.7353">
        <ele>174</ele>
        <time>2017-12-29T11:33:55Z</time>
      </trkpt>
      <trkpt lat="45.92468" lon="4.73537">
        <ele>174</ele>
        <time>2017-12-29T11:33:56Z</time>
      </trkpt>
      <trkpt lat="45.92467" lon="4.73546">
        <ele>173</ele>
        <time>2017-12-29T11:33:58Z</time>
      </trkpt>
      <trkpt lat="45.92466" lon="4.73551">
        <ele>173</ele>
        <time>2017-12-29T11:33:59Z</time>
      </trkpt>
      <trkpt lat="45.92466" lon="4.73563">
        <ele>173</ele>
        <time>2017-12-29T11:34:01Z</time>
      </trkpt>
      <trkpt lat="45.92466" lon="4.7357">
        <ele>173</ele>
        <time>2017-12-29T11:34:02Z</time>
      </trkpt>
      <trkpt lat="45.92468" lon="4.73582">
        <ele>173</ele>
        <time>2017-12-29T11:34:04Z</time>
      </trkpt>
      <trkpt lat="45.92467" lon="4.73589">
        <ele>174</ele>
        <time>2017-12-29T11:34:05Z</time>
      </trkpt>
      <trkpt lat="45.92467" lon="4.73596">
        <ele>174</ele>
        <time>2017-12-29T11:34:06Z</time>
      </trkpt>
      <trkpt lat="45.92467" lon="4.73603">
        <ele>174</ele>
        <time>2017-12-29T11:34:07Z</time>
      </trkpt>
      <trkpt lat="45.92467" lon="4.73611">
        <ele>174</ele>
        <time>2017-12-29T11:34:08Z</time>
      </trkpt>
      <trkpt lat="45.92466" lon="4.73618">
        <ele>174</ele>
        <time>2017-12-29T11:34:09Z</time>
      </trkpt>
      <trkpt lat="45.92467" lon="4.73625">
        <ele>174</ele>
        <time>2017-12-29T11:34:10Z</time>
      </trkpt>
      <trkpt lat="45.92468" lon="4.73631">
        <ele>174</ele>
        <time>2017-12-29T11:34:11Z</time>
      </trkpt>
      <trkpt lat="45.92467" lon="4.73638">
        <ele>174</ele>
        <time>2017-12-29T11:34:12Z</time>
      </trkpt>
      <trkpt lat="45.92467" lon="4.73644">
        <ele>174</ele>
        <time>2017-12-29T11:34:13Z</time>
      </trkpt>
      <trkpt lat="45.92465" lon="4.73655">
        <ele>174</ele>
        <time>2017-12-29T11:34:15Z</time>
      </trkpt>
      <trkpt lat="45.92465" lon="4.7366">
        <ele>174</ele>
        <time>2017-12-29T11:34:16Z</time>
      </trkpt>
      <trkpt lat="45.92465" lon="4.7367">
        <ele>174</ele>
        <time>2017-12-29T11:34:18Z</time>
      </trkpt>
      <trkpt lat="45.92466" lon="4.73676">
        <ele>174</ele>
        <time>2017-12-29T11:34:19Z</time>
      </trkpt>
      <trkpt lat="45.92466" lon="4.73687">
        <ele>174</ele>
        <time>2017-12-29T11:34:21Z</time>
      </trkpt>
      <trkpt lat="45.92466" lon="4.73692">
        <ele>174</ele>
        <time>2017-12-29T11:34:22Z</time>
      </trkpt>
      <trkpt lat="45.92465" lon="4.73704">
        <ele>174</ele>
        <time>2017-12-29T11:34:25Z</time>
      </trkpt>
      <trkpt lat="45.92464" lon="4.73706">
        <ele>174</ele>
        <time>2017-12-29T11:34:26Z</time>
      </trkpt>
      <trkpt lat="45.92465" lon="4.73709">
        <ele>174</ele>
        <time>2017-12-29T11:35:10.496Z</time>
      </trkpt>
    </trkseg>
  </trk>
</gpx>